<?xml version='1.0' encoding='UTF-8'?><gpx version="1.1" creator="JPX - https://github.com/jenetics/jpx" xmlns="http://www.topografix.com/GPX/1/1"><trk><trkseg><trkpt lat="44.479505611340876" lon="7.87283035771308"><ele>364.0</ele><time>2026-04-10T12:09:52.014Z</time></trkpt><trkpt lat="44.47951464781415" lon="7.872722210388892"><ele>364.0</ele><time>2026-04-10T12:10:08.999Z</time></trkpt><trkpt lat="44.47943626751163" lon="7.872670350256165"><ele>364.0</ele><time>2026-04-10T12:10:11.999Z</time></trkpt><trkpt lat="44.47935435088894" lon="7.872688042786139"><ele>364.0</ele><time>2026-04-10T12:10:14.999Z</time></trkpt><trkpt lat="44.47925969361259" lon="7.872775794269145"><ele>364.0</ele><time>2026-04-10T12:10:18Z</time></trkpt><trkpt lat="44.47919354505298" lon="7.87279715909073"><ele>364.0</ele><time>2026-04-10T12:10:19Z</time></trkpt><trkpt lat="44.479081016010205" lon="7.872833485733072"><ele>364.0</ele><time>2026-04-10T12:10:26Z</time></trkpt><trkpt lat="44.4790575308655" lon="7.872925629378796"><ele>364.0</ele><time>2026-04-10T12:10:35Z</time></trkpt><trkpt lat="44.47907864893898" lon="7.8730363276047"><ele>364.0</ele><time>2026-04-10T12:10:37Z</time></trkpt><trkpt lat="44.47912493232221" lon="7.873195071895367"><ele>364.0</ele><time>2026-04-10T12:10:39Z</time></trkpt><trkpt lat="44.47914595624556" lon="7.873290979679299"><ele>364.0</ele><time>2026-04-10T12:10:40Z</time></trkpt><trkpt lat="44.47917481996286" lon="7.873376132179379"><ele>364.0</ele><time>2026-04-10T12:10:41Z</time></trkpt><trkpt lat="44.47921280792948" lon="7.87346855966144"><ele>363.66666666666663</ele><time>2026-04-10T12:10:41.999Z</time></trkpt><trkpt lat="44.47926372390521" lon="7.873581881784578"><ele>363.3333333333333</ele><time>2026-04-10T12:10:42.999Z</time></trkpt><trkpt lat="44.47929801030713" lon="7.873689153187344"><ele>363.0</ele><time>2026-04-10T12:10:43.999Z</time></trkpt><trkpt lat="44.479327314420935" lon="7.873804915722529"><ele>362.6666666666667</ele><time>2026-04-10T12:10:44.999Z</time></trkpt><trkpt lat="44.47934254640533" lon="7.8738977503219125"><ele>362.33333333333337</ele><time>2026-04-10T12:10:45.999Z</time></trkpt><trkpt lat="44.47936118050157" lon="7.874005641850577"><ele>362.0</ele><time>2026-04-10T12:10:46.999Z</time></trkpt><trkpt lat="44.47938180595014" lon="7.874123651642033"><ele>362.0</ele><time>2026-04-10T12:10:47.999Z</time></trkpt><trkpt lat="44.47939004241306" lon="7.874245431654092"><ele>362.0</ele><time>2026-04-10T12:10:48.999Z</time></trkpt><trkpt lat="44.47940607989325" lon="7.874379543930602"><ele>362.0</ele><time>2026-04-10T12:10:49.999Z</time></trkpt><trkpt lat="44.479423484891555" lon="7.874507952239375"><ele>362.0</ele><time>2026-04-10T12:10:50.999Z</time></trkpt><trkpt lat="44.47944639978259" lon="7.874640359399813"><ele>362.0</ele><time>2026-04-10T12:10:51.999Z</time></trkpt><trkpt lat="44.47945445957584" lon="7.874769598306866"><ele>361.8</ele><time>2026-04-10T12:10:52.999Z</time></trkpt><trkpt lat="44.479467745325245" lon="7.874897903633589"><ele>361.6</ele><time>2026-04-10T12:10:53.999Z</time></trkpt><trkpt lat="44.479473349548435" lon="7.875035497146507"><ele>361.40000000000003</ele><time>2026-04-10T12:10:54.999Z</time></trkpt><trkpt lat="44.4794803497163" lon="7.8751677291923885"><ele>361.20000000000005</ele><time>2026-04-10T12:10:55.999Z</time></trkpt><trkpt lat="44.479481654823466" lon="7.875286309490842"><ele>361.0</ele><time>2026-04-10T12:10:56.999Z</time></trkpt><trkpt lat="44.47948222897123" lon="7.875398659340989"><ele>361.0</ele><time>2026-04-10T12:10:57.999Z</time></trkpt><trkpt lat="44.47947853478944" lon="7.875510474135666"><ele>361.0</ele><time>2026-04-10T12:10:58.999Z</time></trkpt><trkpt lat="44.479475564616706" lon="7.875640498470031"><ele>361.0</ele><time>2026-04-10T12:10:59.999Z</time></trkpt><trkpt lat="44.47947057335239" lon="7.875771917928646"><ele>361.0</ele><time>2026-04-10T12:11:00.999Z</time></trkpt><trkpt lat="44.47946203795791" lon="7.875909740594547"><ele>361.0</ele><time>2026-04-10T12:11:01.999Z</time></trkpt><trkpt lat="44.47945227187793" lon="7.876045359584922"><ele>361.0</ele><time>2026-04-10T12:11:02.999Z</time></trkpt><trkpt lat="44.479441068071736" lon="7.876188438455804"><ele>361.0</ele><time>2026-04-10T12:11:03.999Z</time></trkpt><trkpt lat="44.4794334108362" lon="7.876312484164604"><ele>361.0</ele><time>2026-04-10T12:11:04.999Z</time></trkpt><trkpt lat="44.47942696509327" lon="7.8764417734686925"><ele>361.0</ele><time>2026-04-10T12:11:05.999Z</time></trkpt><trkpt lat="44.479428567540396" lon="7.876567122794335"><ele>361.0</ele><time>2026-04-10T12:11:06.999Z</time></trkpt><trkpt lat="44.47943658988187" lon="7.876680698053468"><ele>361.6</ele><time>2026-04-10T12:11:07.999Z</time></trkpt><trkpt lat="44.47942872195762" lon="7.876792034932249"><ele>362.20000000000005</ele><time>2026-04-10T12:11:08.999Z</time></trkpt><trkpt lat="44.479444384120036" lon="7.876892213173704"><ele>362.79999999999995</ele><time>2026-04-10T12:11:09.999Z</time></trkpt><trkpt lat="44.479407402273395" lon="7.87702363459086"><ele>363.4</ele><time>2026-04-10T12:11:11.999Z</time></trkpt><trkpt lat="44.47932357831385" lon="7.877138571331936"><ele>364.0</ele><time>2026-04-10T12:11:13.999Z</time></trkpt><trkpt lat="44.479236046395016" lon="7.877195218049826"><ele>364.0</ele><time>2026-04-10T12:11:14.999Z</time></trkpt><trkpt lat="44.479158269067355" lon="7.877298495744661"><ele>364.0</ele><time>2026-04-10T12:11:15.999Z</time></trkpt><trkpt lat="44.47909334079827" lon="7.87735786333919"><ele>364.0</ele><time>2026-04-10T12:11:16.999Z</time></trkpt><trkpt lat="44.47903994504532" lon="7.877414962675166"><ele>364.0</ele><time>2026-04-10T12:11:17.999Z</time></trkpt><trkpt lat="44.47897136189942" lon="7.877516319145827"><ele>364.0</ele><time>2026-04-10T12:11:19.999Z</time></trkpt><trkpt lat="44.478926300028185" lon="7.877599110635658"><ele>364.0</ele><time>2026-04-10T12:11:23.999Z</time></trkpt><trkpt lat="44.47888718010887" lon="7.877677814982339"><ele>364.0</ele><time>2026-04-10T12:11:25.999Z</time></trkpt><trkpt lat="44.47882385850087" lon="7.877814213776935"><ele>364.0</ele><time>2026-04-10T12:11:27.999Z</time></trkpt><trkpt lat="44.47880163493862" lon="7.877936036565052"><ele>364.0</ele><time>2026-04-10T12:11:28.999Z</time></trkpt><trkpt lat="44.47874700734032" lon="7.87801787300337"><ele>364.0</ele><time>2026-04-10T12:11:29.999Z</time></trkpt><trkpt lat="44.47868502905625" lon="7.878092325037377"><ele>364.0</ele><time>2026-04-10T12:11:30.999Z</time></trkpt><trkpt lat="44.47864432104101" lon="7.878179085833784"><ele>364.0</ele><time>2026-04-10T12:11:31.999Z</time></trkpt><trkpt lat="44.4785927918452" lon="7.878258153226316"><ele>363.6</ele><time>2026-04-10T12:11:32.999Z</time></trkpt><trkpt lat="44.4785212487832" lon="7.878340127294891"><ele>363.2</ele><time>2026-04-10T12:11:33.999Z</time></trkpt><trkpt lat="44.47844620642967" lon="7.878403619352097"><ele>362.8</ele><time>2026-04-10T12:11:34.999Z</time></trkpt><trkpt lat="44.47839648581478" lon="7.878493906332332"><ele>362.40000000000003</ele><time>2026-04-10T12:11:35.999Z</time></trkpt><trkpt lat="44.47834113783814" lon="7.878590388722789"><ele>362.0</ele><time>2026-04-10T12:11:36.999Z</time></trkpt><trkpt lat="44.478278099813195" lon="7.878712329349068"><ele>362.0</ele><time>2026-04-10T12:11:38.999Z</time></trkpt><trkpt lat="44.4782096067863" lon="7.878795655989276"><ele>362.0</ele><time>2026-04-10T12:11:39.999Z</time></trkpt><trkpt lat="44.478193794102566" lon="7.8788822109312475"><ele>362.0</ele><time>2026-04-10T12:11:40.999Z</time></trkpt><trkpt lat="44.4781538416942" lon="7.878973068714445"><ele>362.0</ele><time>2026-04-10T12:11:41.999Z</time></trkpt><trkpt lat="44.47799151911008" lon="7.878921759757814"><ele>362.0</ele><time>2026-04-10T12:11:42.999Z</time></trkpt><trkpt lat="44.477952466547876" lon="7.878992388150828"><ele>362.0</ele><time>2026-04-10T12:11:43.999Z</time></trkpt><trkpt lat="44.47793964767583" lon="7.879080156054736"><ele>362.0</ele><time>2026-04-10T12:11:44.999Z</time></trkpt><trkpt lat="44.477944161118586" lon="7.879203413394734"><ele>362.0</ele><time>2026-04-10T12:11:45.999Z</time></trkpt><trkpt lat="44.477962401098566" lon="7.879346101336142"><ele>362.0</ele><time>2026-04-10T12:11:46.999Z</time></trkpt><trkpt lat="44.47796688441184" lon="7.8794554634888865"><ele>362.0</ele><time>2026-04-10T12:11:47.999Z</time></trkpt><trkpt lat="44.477964580043384" lon="7.8795973105739066"><ele>362.0</ele><time>2026-04-10T12:11:48.999Z</time></trkpt><trkpt lat="44.47793115815013" lon="7.879699474654334"><ele>358.6666666666667</ele><time>2026-04-10T12:11:49.999Z</time></trkpt><trkpt lat="44.47790656398665" lon="7.8798021689451705"><ele>355.33333333333337</ele><time>2026-04-10T12:11:50.999Z</time></trkpt><trkpt lat="44.47788108275853" lon="7.879905574498884"><ele>352.0</ele><time>2026-04-10T12:11:51.999Z</time></trkpt><trkpt lat="44.477865418170836" lon="7.879993550477916"><ele>348.6666666666667</ele><time>2026-04-10T12:11:52.999Z</time></trkpt><trkpt lat="44.47784967880306" lon="7.880102565942731"><ele>345.3333333333333</ele><time>2026-04-10T12:11:53.999Z</time></trkpt><trkpt lat="44.477865918456196" lon="7.880243710460048"><ele>342.0</ele><time>2026-04-10T12:11:54.998Z</time></trkpt><trkpt lat="44.477898597504826" lon="7.880399979804992"><ele>340.6</ele><time>2026-04-10T12:11:55.998Z</time></trkpt><trkpt lat="44.477937381371504" lon="7.880546753922203"><ele>339.20000000000005</ele><time>2026-04-10T12:11:56.998Z</time></trkpt><trkpt lat="44.477965810793805" lon="7.880665755697526"><ele>337.8</ele><time>2026-04-10T12:11:57.998Z</time></trkpt><trkpt lat="44.477989639933476" lon="7.880781475703321"><ele>336.4</ele><time>2026-04-10T12:11:58.998Z</time></trkpt><trkpt lat="44.478013649316495" lon="7.880907880165266"><ele>335.0</ele><time>2026-04-10T12:11:59.998Z</time></trkpt><trkpt lat="44.47802634524132" lon="7.881030758202836"><ele>335.0</ele><time>2026-04-10T12:12:00.998Z</time></trkpt><trkpt lat="44.478057042909256" lon="7.881138118935612"><ele>335.0</ele><time>2026-04-10T12:12:01.998Z</time></trkpt><trkpt lat="44.47810414077209" lon="7.881255637216164"><ele>335.0</ele><time>2026-04-10T12:12:02.998Z</time></trkpt><trkpt lat="44.47816294094928" lon="7.881373601876936"><ele>335.0</ele><time>2026-04-10T12:12:04Z</time></trkpt><trkpt lat="44.4782230722532" lon="7.881470087097867"><ele>335.0</ele><time>2026-04-10T12:12:05Z</time></trkpt><trkpt lat="44.47831896392457" lon="7.881543161276105"><ele>335.0</ele><time>2026-04-10T12:12:06Z</time></trkpt><trkpt lat="44.478394971302656" lon="7.881637501964302"><ele>335.0</ele><time>2026-04-10T12:12:07Z</time></trkpt><trkpt lat="44.478465160220594" lon="7.881703999289102"><ele>335.0</ele><time>2026-04-10T12:12:08Z</time></trkpt><trkpt lat="44.478525519303425" lon="7.881773440347839"><ele>335.0</ele><time>2026-04-10T12:12:09Z</time></trkpt><trkpt lat="44.478619179010046" lon="7.88186997259443"><ele>335.0</ele><time>2026-04-10T12:12:11Z</time></trkpt><trkpt lat="44.47868652114141" lon="7.881950800604179"><ele>335.0</ele><time>2026-04-10T12:12:13Z</time></trkpt><trkpt lat="44.478611418245485" lon="7.8819992318236"><ele>335.0</ele><time>2026-04-10T12:12:18Z</time></trkpt><trkpt lat="44.4784883702916" lon="7.881883509971204"><ele>335.0</ele><time>2026-04-10T12:12:20Z</time></trkpt><trkpt lat="44.47841228824786" lon="7.881814593150165"><ele>335.0</ele><time>2026-04-10T12:12:21Z</time></trkpt><trkpt lat="44.47833264185668" lon="7.88174738742506"><ele>335.0</ele><time>2026-04-10T12:12:22Z</time></trkpt><trkpt lat="44.478246948186076" lon="7.881685863842642"><ele>335.0</ele><time>2026-04-10T12:12:23Z</time></trkpt><trkpt lat="44.47816028852195" lon="7.881625968813298"><ele>335.0</ele><time>2026-04-10T12:12:24Z</time></trkpt><trkpt lat="44.47808041768507" lon="7.881558518965038"><ele>335.0</ele><time>2026-04-10T12:12:25Z</time></trkpt><trkpt lat="44.47800578869476" lon="7.881486952921261"><ele>335.0</ele><time>2026-04-10T12:12:26Z</time></trkpt><trkpt lat="44.47795150018533" lon="7.881421728504191"><ele>335.0</ele><time>2026-04-10T12:12:27Z</time></trkpt><trkpt lat="44.47788692983175" lon="7.881316067780311"><ele>333.83333333333337</ele><time>2026-04-10T12:12:28Z</time></trkpt><trkpt lat="44.47784278722939" lon="7.881222293398773"><ele>332.6666666666667</ele><time>2026-04-10T12:12:29Z</time></trkpt><trkpt lat="44.47780909531773" lon="7.881119238705562"><ele>331.5</ele><time>2026-04-10T12:12:30Z</time></trkpt><trkpt lat="44.47777302701063" lon="7.8810277960732495"><ele>330.3333333333333</ele><time>2026-04-10T12:12:31Z</time></trkpt><trkpt lat="44.47774999692147" lon="7.8809289957134006"><ele>329.16666666666663</ele><time>2026-04-10T12:12:32Z</time></trkpt><trkpt lat="44.47770020802446" lon="7.88080090733673"><ele>328.0</ele><time>2026-04-10T12:12:34Z</time></trkpt><trkpt lat="44.47762299622228" lon="7.880774929756745"><ele>328.0</ele><time>2026-04-10T12:12:36Z</time></trkpt><trkpt lat="44.47757700184756" lon="7.880879358845514"><ele>328.0</ele><time>2026-04-10T12:12:38Z</time></trkpt><trkpt lat="44.47758548783704" lon="7.880969918634951"><ele>328.0</ele><time>2026-04-10T12:12:39Z</time></trkpt><trkpt lat="44.47761818681981" lon="7.881066145957229"><ele>328.0</ele><time>2026-04-10T12:12:40Z</time></trkpt><trkpt lat="44.47766032186375" lon="7.881153729722167"><ele>328.0</ele><time>2026-04-10T12:12:41Z</time></trkpt><trkpt lat="44.47770322660149" lon="7.881249832888862"><ele>328.0</ele><time>2026-04-10T12:12:42Z</time></trkpt><trkpt lat="44.47774971607021" lon="7.881372275336846"><ele>329.75</ele><time>2026-04-10T12:12:43Z</time></trkpt><trkpt lat="44.47780130624305" lon="7.881497739461793"><ele>331.5</ele><time>2026-04-10T12:12:44Z</time></trkpt><trkpt lat="44.477866488625104" lon="7.881617487673785"><ele>333.25</ele><time>2026-04-10T12:12:45Z</time></trkpt><trkpt lat="44.47794127109578" lon="7.8817432267736764"><ele>335.0</ele><time>2026-04-10T12:12:46Z</time></trkpt><trkpt lat="44.47803569627219" lon="7.881869364717166"><ele>331.0</ele><time>2026-04-10T12:12:47Z</time></trkpt><trkpt lat="44.47812824432489" lon="7.88195724735427"><ele>327.0</ele><time>2026-04-10T12:12:48Z</time></trkpt><trkpt lat="44.478209773385366" lon="7.882066021389319"><ele>323.0</ele><time>2026-04-10T12:12:49Z</time></trkpt><trkpt lat="44.478281931079884" lon="7.882155655832867"><ele>319.0</ele><time>2026-04-10T12:12:49.999Z</time></trkpt><trkpt lat="44.478358116709074" lon="7.882238801108605"><ele>315.0</ele><time>2026-04-10T12:12:50.999Z</time></trkpt><trkpt lat="44.47842420137638" lon="7.882327173804737"><ele>315.0</ele><time>2026-04-10T12:12:51.999Z</time></trkpt><trkpt lat="44.4784808149739" lon="7.882394179664901"><ele>315.0</ele><time>2026-04-10T12:12:52.999Z</time></trkpt><trkpt lat="44.47854466299246" lon="7.882462183928357"><ele>315.0</ele><time>2026-04-10T12:12:53.999Z</time></trkpt><trkpt lat="44.478610584174206" lon="7.8825004984920986"><ele>315.0</ele><time>2026-04-10T12:12:54.999Z</time></trkpt><trkpt lat="44.478674343402474" lon="7.8825268171959815"><ele>315.0</ele><time>2026-04-10T12:12:55.999Z</time></trkpt><trkpt lat="44.47875416924087" lon="7.882525210634376"><ele>315.0</ele><time>2026-04-10T12:12:56.999Z</time></trkpt><trkpt lat="44.47883771367734" lon="7.882476704740221"><ele>317.2</ele><time>2026-04-10T12:12:57.999Z</time></trkpt><trkpt lat="44.478926873950215" lon="7.882434663797486"><ele>319.4</ele><time>2026-04-10T12:12:58.999Z</time></trkpt><trkpt lat="44.47900126812192" lon="7.882389134052818"><ele>321.6</ele><time>2026-04-10T12:12:59.999Z</time></trkpt><trkpt lat="44.479066164728415" lon="7.882352015225598"><ele>323.8</ele><time>2026-04-10T12:13:00.999Z</time></trkpt><trkpt lat="44.47920388442309" lon="7.882364320274773"><ele>326.0</ele><time>2026-04-10T12:13:02.999Z</time></trkpt><trkpt lat="44.479270275113066" lon="7.882412260412362"><ele>326.0</ele><time>2026-04-10T12:13:03.999Z</time></trkpt><trkpt lat="44.47931563064417" lon="7.88249290523403"><ele>326.0</ele><time>2026-04-10T12:13:04.999Z</time></trkpt><trkpt lat="44.479299439894774" lon="7.882603680378356"><ele>326.0</ele><time>2026-04-10T12:13:05.999Z</time></trkpt><trkpt lat="44.47926448252268" lon="7.882707894141404"><ele>326.0</ele><time>2026-04-10T12:13:06.999Z</time></trkpt><trkpt lat="44.479205540293485" lon="7.882799006972204"><ele>326.0</ele><time>2026-04-10T12:13:07.999Z</time></trkpt><trkpt lat="44.479132863822365" lon="7.882896543310204"><ele>326.0</ele><time>2026-04-10T12:13:08.999Z</time></trkpt><trkpt lat="44.4790531704233" lon="7.882973017010387"><ele>325.6666666666667</ele><time>2026-04-10T12:13:09.999Z</time></trkpt><trkpt lat="44.47894859841037" lon="7.883032436943306"><ele>325.33333333333337</ele><time>2026-04-10T12:13:10.999Z</time></trkpt><trkpt lat="44.47886034303062" lon="7.883087644187758"><ele>325.0</ele><time>2026-04-10T12:13:11.999Z</time></trkpt><trkpt lat="44.478780646572034" lon="7.883141603630567"><ele>324.6666666666667</ele><time>2026-04-10T12:13:12.999Z</time></trkpt><trkpt lat="44.47870834886995" lon="7.883188151168991"><ele>324.3333333333333</ele><time>2026-04-10T12:13:13.999Z</time></trkpt><trkpt lat="44.47864690854478" lon="7.88323193261675"><ele>324.0</ele><time>2026-04-10T12:13:14.999Z</time></trkpt><trkpt lat="44.478570149781376" lon="7.883377356235516"><ele>322.59999999999997</ele><time>2026-04-10T12:13:16.999Z</time></trkpt><trkpt lat="44.47856236266429" lon="7.883501032276513"><ele>321.2</ele><time>2026-04-10T12:13:17.999Z</time></trkpt><trkpt lat="44.47857467918471" lon="7.88362669329501"><ele>319.79999999999995</ele><time>2026-04-10T12:13:18.999Z</time></trkpt><trkpt lat="44.47861292807704" lon="7.883763110380793"><ele>318.4</ele><time>2026-04-10T12:13:19.999Z</time></trkpt><trkpt lat="44.47869527168614" lon="7.883909118731188"><ele>317.0</ele><time>2026-04-10T12:13:20.999Z</time></trkpt><trkpt lat="44.47877747851331" lon="7.884046803145762"><ele>317.0</ele><time>2026-04-10T12:13:21.999Z</time></trkpt><trkpt lat="44.478840288714785" lon="7.884175421712889"><ele>317.0</ele><time>2026-04-10T12:13:22.999Z</time></trkpt><trkpt lat="44.47892049211895" lon="7.884294787887821"><ele>317.0</ele><time>2026-04-10T12:13:23.999Z</time></trkpt><trkpt lat="44.47900532080876" lon="7.884421037833053"><ele>317.0</ele><time>2026-04-10T12:13:24.999Z</time></trkpt><trkpt lat="44.47910541984978" lon="7.884570014571475"><ele>313.0</ele><time>2026-04-10T12:13:25.999Z</time></trkpt><trkpt lat="44.479193774816984" lon="7.884710334839736"><ele>309.0</ele><time>2026-04-10T12:13:26.999Z</time></trkpt><trkpt lat="44.47928605788462" lon="7.884870769618772"><ele>305.0</ele><time>2026-04-10T12:13:27.999Z</time></trkpt><trkpt lat="44.47937027744778" lon="7.885042111789591"><ele>301.0</ele><time>2026-04-10T12:13:28.999Z</time></trkpt><trkpt lat="44.47944490839835" lon="7.885219777106028"><ele>302.0</ele><time>2026-04-10T12:13:29.999Z</time></trkpt><trkpt lat="44.4795063386476" lon="7.885415961817672"><ele>303.0</ele><time>2026-04-10T12:13:30.999Z</time></trkpt><trkpt lat="44.47955410622873" lon="7.8856058914359135"><ele>304.0</ele><time>2026-04-10T12:13:31.999Z</time></trkpt><trkpt lat="44.47959779805297" lon="7.88579232642978"><ele>305.0</ele><time>2026-04-10T12:13:32.999Z</time></trkpt><trkpt lat="44.47965043645789" lon="7.886013464725718"><ele>305.0</ele><time>2026-04-10T12:13:33.999Z</time></trkpt><trkpt lat="44.47969767429519" lon="7.886203077194977"><ele>305.0</ele><time>2026-04-10T12:13:34.999Z</time></trkpt><trkpt lat="44.47973587984974" lon="7.88638311608787"><ele>305.0</ele><time>2026-04-10T12:13:35.999Z</time></trkpt><trkpt lat="44.479762889671775" lon="7.886566090366811"><ele>305.0</ele><time>2026-04-10T12:13:36.999Z</time></trkpt><trkpt lat="44.479795048202966" lon="7.886719861010796"><ele>303.1666666666667</ele><time>2026-04-10T12:13:37.999Z</time></trkpt><trkpt lat="44.479822490945956" lon="7.886851082587966"><ele>301.33333333333337</ele><time>2026-04-10T12:13:38.999Z</time></trkpt><trkpt lat="44.47984581767514" lon="7.886975819429923"><ele>299.5</ele><time>2026-04-10T12:13:39.999Z</time></trkpt><trkpt lat="44.47987422297474" lon="7.8870787343477"><ele>297.6666666666667</ele><time>2026-04-10T12:13:40.999Z</time></trkpt><trkpt lat="44.4798722736472" lon="7.88718971001773"><ele>295.8333333333333</ele><time>2026-04-10T12:13:41.999Z</time></trkpt><trkpt lat="44.479869224057964" lon="7.887302196064292"><ele>294.0</ele><time>2026-04-10T12:13:42.999Z</time></trkpt><trkpt lat="44.47984213815034" lon="7.887424141594539"><ele>294.0</ele><time>2026-04-10T12:13:43.999Z</time></trkpt><trkpt lat="44.47977369658637" lon="7.887533186464618"><ele>294.0</ele><time>2026-04-10T12:13:44.999Z</time></trkpt><trkpt lat="44.47968873490174" lon="7.887657704304918"><ele>294.0</ele><time>2026-04-10T12:13:45.999Z</time></trkpt><trkpt lat="44.4796073883917" lon="7.887745527013748"><ele>294.0</ele><time>2026-04-10T12:13:46.999Z</time></trkpt><trkpt lat="44.47951959737253" lon="7.8878133105155745"><ele>294.0</ele><time>2026-04-10T12:13:47.999Z</time></trkpt><trkpt lat="44.47944010343901" lon="7.887903348459682"><ele>290.8</ele><time>2026-04-10T12:13:48.999Z</time></trkpt><trkpt lat="44.479376855683284" lon="7.887993910397361"><ele>287.59999999999997</ele><time>2026-04-10T12:13:49.999Z</time></trkpt><trkpt lat="44.47933701078217" lon="7.888117615201544"><ele>284.4</ele><time>2026-04-10T12:13:50.999Z</time></trkpt><trkpt lat="44.47932259817047" lon="7.888259996620396"><ele>281.2</ele><time>2026-04-10T12:13:51.999Z</time></trkpt><trkpt lat="44.47932908631422" lon="7.888412629234991"><ele>278.0</ele><time>2026-04-10T12:13:52.999Z</time></trkpt><trkpt lat="44.47933504054181" lon="7.888562279019975"><ele>277.5</ele><time>2026-04-10T12:13:53.999Z</time></trkpt><trkpt lat="44.47935149416459" lon="7.88872475562832"><ele>277.0</ele><time>2026-04-10T12:13:54.999Z</time></trkpt><trkpt lat="44.47937612327785" lon="7.888896593496035"><ele>276.5</ele><time>2026-04-10T12:13:55.999Z</time></trkpt><trkpt lat="44.47939216009194" lon="7.8890408239615795"><ele>276.0</ele><time>2026-04-10T12:13:56.998Z</time></trkpt><trkpt lat="44.47940680896123" lon="7.889205536688284"><ele>275.6666666666667</ele><time>2026-04-10T12:13:57.998Z</time></trkpt><trkpt lat="44.479413743669255" lon="7.889348130074506"><ele>275.3333333333333</ele><time>2026-04-10T12:13:58.998Z</time></trkpt><trkpt lat="44.479406894214115" lon="7.8894889459679485"><ele>275.0</ele><time>2026-04-10T12:13:59.998Z</time></trkpt><trkpt lat="44.479378892703245" lon="7.8896011596525035"><ele>274.66666666666663</ele><time>2026-04-10T12:14:00.998Z</time></trkpt><trkpt lat="44.47935574920375" lon="7.88970302522066"><ele>274.3333333333333</ele><time>2026-04-10T12:14:01.998Z</time></trkpt><trkpt lat="44.47935776248622" lon="7.889802994016269"><ele>274.0</ele><time>2026-04-10T12:14:02.998Z</time></trkpt><trkpt lat="44.47930626866329" lon="7.8899168043886165"><ele>274.0</ele><time>2026-04-10T12:14:03.998Z</time></trkpt><trkpt lat="44.47925279858782" lon="7.890024449405209"><ele>274.0</ele><time>2026-04-10T12:14:04.998Z</time></trkpt><trkpt lat="44.47915353774288" lon="7.890097470913525"><ele>274.0</ele><time>2026-04-10T12:14:05.998Z</time></trkpt><trkpt lat="44.47906745070484" lon="7.890179523680455"><ele>274.0</ele><time>2026-04-10T12:14:06.998Z</time></trkpt><trkpt lat="44.478983257207595" lon="7.890258758127088"><ele>274.0</ele><time>2026-04-10T12:14:07.998Z</time></trkpt><trkpt lat="44.47884187082223" lon="7.890273808574663"><ele>273.75</ele><time>2026-04-10T12:14:08.998Z</time></trkpt><trkpt lat="44.478723327712125" lon="7.890292140937743"><ele>273.5</ele><time>2026-04-10T12:14:10Z</time></trkpt><trkpt lat="44.478590090219456" lon="7.890304760282353"><ele>273.25</ele><time>2026-04-10T12:14:11Z</time></trkpt><trkpt lat="44.47845615700501" lon="7.890307139970872"><ele>273.0</ele><time>2026-04-10T12:14:12Z</time></trkpt><trkpt lat="44.47830985377981" lon="7.890294266080444"><ele>273.0</ele><time>2026-04-10T12:14:13Z</time></trkpt><trkpt lat="44.478171263252136" lon="7.890253774265633"><ele>273.0</ele><time>2026-04-10T12:14:14Z</time></trkpt><trkpt lat="44.47802051658169" lon="7.890216693126506"><ele>273.0</ele><time>2026-04-10T12:14:15Z</time></trkpt><trkpt lat="44.47786372904989" lon="7.890161354813311"><ele>273.6666666666667</ele><time>2026-04-10T12:14:16Z</time></trkpt><trkpt lat="44.47769786242767" lon="7.890113891902208"><ele>274.33333333333337</ele><time>2026-04-10T12:14:17Z</time></trkpt><trkpt lat="44.47752764178454" lon="7.890064506557352"><ele>275.0</ele><time>2026-04-10T12:14:18Z</time></trkpt><trkpt lat="44.477357910734895" lon="7.890010869132992"><ele>275.0</ele><time>2026-04-10T12:14:19Z</time></trkpt><trkpt lat="44.477190200050075" lon="7.889949877977175"><ele>275.0</ele><time>2026-04-10T12:14:20Z</time></trkpt><trkpt lat="44.47701130351911" lon="7.889880314585857"><ele>275.0</ele><time>2026-04-10T12:14:21Z</time></trkpt><trkpt lat="44.47683419303356" lon="7.889811328500517"><ele>274.6666666666667</ele><time>2026-04-10T12:14:22Z</time></trkpt><trkpt lat="44.47665950304898" lon="7.88976758720512"><ele>274.3333333333333</ele><time>2026-04-10T12:14:23Z</time></trkpt><trkpt lat="44.47647884796687" lon="7.889721840623252"><ele>274.0</ele><time>2026-04-10T12:14:24Z</time></trkpt><trkpt lat="44.47630204741014" lon="7.889687479984294"><ele>274.0</ele><time>2026-04-10T12:14:25Z</time></trkpt><trkpt lat="44.476121329795674" lon="7.889665414583629"><ele>274.0</ele><time>2026-04-10T12:14:26Z</time></trkpt><trkpt lat="44.47592983688827" lon="7.889642214298817"><ele>274.0</ele><time>2026-04-10T12:14:27Z</time></trkpt><trkpt lat="44.475742602702525" lon="7.889640571015621"><ele>274.0</ele><time>2026-04-10T12:14:28Z</time></trkpt><trkpt lat="44.47555375144349" lon="7.889641087493562"><ele>274.0</ele><time>2026-04-10T12:14:29Z</time></trkpt><trkpt lat="44.47537613781429" lon="7.889656504947893"><ele>274.0</ele><time>2026-04-10T12:14:30Z</time></trkpt><trkpt lat="44.47519140228295" lon="7.889664103794882"><ele>274.66666666666663</ele><time>2026-04-10T12:14:31Z</time></trkpt><trkpt lat="44.475007528320454" lon="7.889665060403972"><ele>275.3333333333333</ele><time>2026-04-10T12:14:32Z</time></trkpt><trkpt lat="44.474825300795004" lon="7.88967167787547"><ele>276.0</ele><time>2026-04-10T12:14:33Z</time></trkpt><trkpt lat="44.474636663427106" lon="7.889666743827241"><ele>276.6666666666667</ele><time>2026-04-10T12:14:34Z</time></trkpt><trkpt lat="44.47444479654968" lon="7.88964181412991"><ele>277.33333333333337</ele><time>2026-04-10T12:14:35Z</time></trkpt><trkpt lat="44.47425885488261" lon="7.889618765494844"><ele>278.0</ele><time>2026-04-10T12:14:36Z</time></trkpt><trkpt lat="44.47407817137512" lon="7.889582950307627"><ele>278.0</ele><time>2026-04-10T12:14:37Z</time></trkpt><trkpt lat="44.4738897975474" lon="7.889536849924346"><ele>278.0</ele><time>2026-04-10T12:14:38Z</time></trkpt><trkpt lat="44.47371010778056" lon="7.889488015267225"><ele>278.0</ele><time>2026-04-10T12:14:39Z</time></trkpt><trkpt lat="44.47353247174241" lon="7.88943367459482"><ele>277.6666666666667</ele><time>2026-04-10T12:14:40Z</time></trkpt><trkpt lat="44.47335015185697" lon="7.889364817314926"><ele>277.3333333333333</ele><time>2026-04-10T12:14:41Z</time></trkpt><trkpt lat="44.473172554795326" lon="7.889281838983246"><ele>277.0</ele><time>2026-04-10T12:14:42Z</time></trkpt><trkpt lat="44.47299565512667" lon="7.889197592239812"><ele>277.66666666666663</ele><time>2026-04-10T12:14:43Z</time></trkpt><trkpt lat="44.47281813254722" lon="7.889107189238726"><ele>278.3333333333333</ele><time>2026-04-10T12:14:44Z</time></trkpt><trkpt lat="44.472648877712544" lon="7.889013134069229"><ele>279.0</ele><time>2026-04-10T12:14:45Z</time></trkpt><trkpt lat="44.47248452775022" lon="7.88892474934309"><ele>279.0</ele><time>2026-04-10T12:14:46Z</time></trkpt><trkpt lat="44.47231094946757" lon="7.888805724199557"><ele>279.0</ele><time>2026-04-10T12:14:47Z</time></trkpt><trkpt lat="44.47213408712445" lon="7.888681009472002"><ele>279.0</ele><time>2026-04-10T12:14:48Z</time></trkpt><trkpt lat="44.471970584017846" lon="7.888553906103122"><ele>279.0</ele><time>2026-04-10T12:14:49Z</time></trkpt><trkpt lat="44.471813610593756" lon="7.888430124775579"><ele>279.0</ele><time>2026-04-10T12:14:50Z</time></trkpt><trkpt lat="44.47165688869956" lon="7.888291617292469"><ele>279.0</ele><time>2026-04-10T12:14:51Z</time></trkpt><trkpt lat="44.471488762280586" lon="7.88812474381346"><ele>279.6666666666667</ele><time>2026-04-10T12:14:52Z</time></trkpt><trkpt lat="44.47134209516522" lon="7.887979209686277"><ele>280.33333333333337</ele><time>2026-04-10T12:14:53Z</time></trkpt><trkpt lat="44.471201332603535" lon="7.88783163775003"><ele>281.0</ele><time>2026-04-10T12:14:54Z</time></trkpt><trkpt lat="44.471054403336716" lon="7.887648057919549"><ele>282.33333333333337</ele><time>2026-04-10T12:14:55Z</time></trkpt><trkpt lat="44.47091909324588" lon="7.887465849275102"><ele>283.6666666666667</ele><time>2026-04-10T12:14:55.999Z</time></trkpt><trkpt lat="44.47080185851726" lon="7.8873113317383075"><ele>285.0</ele><time>2026-04-10T12:14:56.999Z</time></trkpt><trkpt lat="44.47068706583905" lon="7.887159004969481"><ele>285.0</ele><time>2026-04-10T12:14:57.999Z</time></trkpt><trkpt lat="44.470582004607635" lon="7.887013336873709"><ele>285.0</ele><time>2026-04-10T12:14:58.999Z</time></trkpt><trkpt lat="44.47048495626858" lon="7.886871744529337"><ele>285.0</ele><time>2026-04-10T12:14:59.999Z</time></trkpt><trkpt lat="44.47038240644427" lon="7.886720998840444"><ele>285.0</ele><time>2026-04-10T12:15:00.999Z</time></trkpt><trkpt lat="44.47027872260672" lon="7.886574334961126"><ele>285.5</ele><time>2026-04-10T12:15:01.999Z</time></trkpt><trkpt lat="44.47017407438327" lon="7.886434211561499"><ele>286.0</ele><time>2026-04-10T12:15:02.999Z</time></trkpt><trkpt lat="44.47006628897392" lon="7.886292870716384"><ele>286.5</ele><time>2026-04-10T12:15:03.999Z</time></trkpt><trkpt lat="44.46996163975117" lon="7.88615112534678"><ele>287.0</ele><time>2026-04-10T12:15:04.999Z</time></trkpt><trkpt lat="44.469853721275456" lon="7.886012026924075"><ele>286.6666666666667</ele><time>2026-04-10T12:15:05.999Z</time></trkpt><trkpt lat="44.46974437602274" lon="7.885872027189469"><ele>286.3333333333333</ele><time>2026-04-10T12:15:06.999Z</time></trkpt><trkpt lat="44.46963484514759" lon="7.885732835869596"><ele>286.0</ele><time>2026-04-10T12:15:07.999Z</time></trkpt><trkpt lat="44.46951639819" lon="7.88558934632841"><ele>286.0</ele><time>2026-04-10T12:15:08.999Z</time></trkpt><trkpt lat="44.46939038164619" lon="7.88546109349402"><ele>286.0</ele><time>2026-04-10T12:15:09.999Z</time></trkpt><trkpt lat="44.46925711982096" lon="7.885326254302112"><ele>286.0</ele><time>2026-04-10T12:15:10.999Z</time></trkpt><trkpt lat="44.46912020794186" lon="7.885194968865144"><ele>286.3333333333333</ele><time>2026-04-10T12:15:11.999Z</time></trkpt><trkpt lat="44.468977793700994" lon="7.885067168203825"><ele>286.6666666666667</ele><time>2026-04-10T12:15:12.999Z</time></trkpt><trkpt lat="44.468831588379146" lon="7.884954574923776"><ele>287.0</ele><time>2026-04-10T12:15:13.999Z</time></trkpt><trkpt lat="44.46867504869612" lon="7.88483549746722"><ele>286.33333333333337</ele><time>2026-04-10T12:15:14.999Z</time></trkpt><trkpt lat="44.468524706809376" lon="7.884736334008139"><ele>285.6666666666667</ele><time>2026-04-10T12:15:15.999Z</time></trkpt><trkpt lat="44.46835902473354" lon="7.884623717296144"><ele>285.0</ele><time>2026-04-10T12:15:16.999Z</time></trkpt><trkpt lat="44.468186136784716" lon="7.884516657484245"><ele>285.0</ele><time>2026-04-10T12:15:17.999Z</time></trkpt><trkpt lat="44.46801608982081" lon="7.8844299905372495"><ele>285.0</ele><time>2026-04-10T12:15:18.999Z</time></trkpt><trkpt lat="44.46785106650207" lon="7.8843505102084475"><ele>285.0</ele><time>2026-04-10T12:15:19.999Z</time></trkpt><trkpt lat="44.46767588157359" lon="7.884288565443987"><ele>285.6666666666667</ele><time>2026-04-10T12:15:20.999Z</time></trkpt><trkpt lat="44.46748805686913" lon="7.884226766002201"><ele>286.33333333333337</ele><time>2026-04-10T12:15:21.999Z</time></trkpt><trkpt lat="44.46730817905577" lon="7.884175335984646"><ele>287.0</ele><time>2026-04-10T12:15:22.999Z</time></trkpt><trkpt lat="44.46711807380251" lon="7.884133361770632"><ele>286.33333333333337</ele><time>2026-04-10T12:15:23.999Z</time></trkpt><trkpt lat="44.46693439081569" lon="7.884087392333688"><ele>285.6666666666667</ele><time>2026-04-10T12:15:24.999Z</time></trkpt><trkpt lat="44.46674781282532" lon="7.884059043800484"><ele>285.0</ele><time>2026-04-10T12:15:25.999Z</time></trkpt><trkpt lat="44.46656329779855" lon="7.884036286759383"><ele>285.0</ele><time>2026-04-10T12:15:26.999Z</time></trkpt><trkpt lat="44.46636600601969" lon="7.884028965925102"><ele>285.0</ele><time>2026-04-10T12:15:27.999Z</time></trkpt><trkpt lat="44.466189002831555" lon="7.884026401109129"><ele>285.0</ele><time>2026-04-10T12:15:28.999Z</time></trkpt><trkpt lat="44.46601020306488" lon="7.884037802246138"><ele>283.3333333333333</ele><time>2026-04-10T12:15:29.999Z</time></trkpt><trkpt lat="44.46582630780054" lon="7.8840521499657"><ele>281.66666666666663</ele><time>2026-04-10T12:15:30.999Z</time></trkpt><trkpt lat="44.46564714728829" lon="7.884080326707431"><ele>280.0</ele><time>2026-04-10T12:15:31.999Z</time></trkpt><trkpt lat="44.4654733711328" lon="7.884111117910319"><ele>279.66666666666663</ele><time>2026-04-10T12:15:32.999Z</time></trkpt><trkpt lat="44.46527972529035" lon="7.8841634940884"><ele>279.3333333333333</ele><time>2026-04-10T12:15:33.999Z</time></trkpt><trkpt lat="44.465108827018526" lon="7.884217578968442"><ele>279.0</ele><time>2026-04-10T12:15:34.999Z</time></trkpt><trkpt lat="44.46492665358803" lon="7.884284734510742"><ele>278.3333333333333</ele><time>2026-04-10T12:15:35.999Z</time></trkpt><trkpt lat="44.464749998308285" lon="7.884350068858806"><ele>277.66666666666663</ele><time>2026-04-10T12:15:36.999Z</time></trkpt><trkpt lat="44.46457169358242" lon="7.88443506283205"><ele>277.0</ele><time>2026-04-10T12:15:37.999Z</time></trkpt><trkpt lat="44.46439746936713" lon="7.884522324689562"><ele>277.0</ele><time>2026-04-10T12:15:38.999Z</time></trkpt><trkpt lat="44.46422458951533" lon="7.884619601216221"><ele>277.0</ele><time>2026-04-10T12:15:39.999Z</time></trkpt><trkpt lat="44.46405882277001" lon="7.884714100200463"><ele>277.0</ele><time>2026-04-10T12:15:40.999Z</time></trkpt><trkpt lat="44.463900239963856" lon="7.8848207343839025"><ele>276.66666666666663</ele><time>2026-04-10T12:15:41.999Z</time></trkpt><trkpt lat="44.46373299068166" lon="7.8849324576781425"><ele>276.3333333333333</ele><time>2026-04-10T12:15:42.999Z</time></trkpt><trkpt lat="44.463581563934596" lon="7.885050725234056"><ele>276.0</ele><time>2026-04-10T12:15:43.999Z</time></trkpt><trkpt lat="44.463429112207486" lon="7.885179597346475"><ele>275.0</ele><time>2026-04-10T12:15:44.999Z</time></trkpt><trkpt lat="44.46327706384897" lon="7.885318726711453"><ele>274.0</ele><time>2026-04-10T12:15:45.999Z</time></trkpt><trkpt lat="44.463131996721806" lon="7.885466798040098"><ele>273.0</ele><time>2026-04-10T12:15:46.999Z</time></trkpt><trkpt lat="44.462984351034315" lon="7.885619437334838"><ele>277.3333333333333</ele><time>2026-04-10T12:15:47.999Z</time></trkpt><trkpt lat="44.46284938010694" lon="7.8857833781369004"><ele>281.66666666666663</ele><time>2026-04-10T12:15:48.999Z</time></trkpt><trkpt lat="44.46271096268788" lon="7.885950215525062"><ele>286.0</ele><time>2026-04-10T12:15:49.999Z</time></trkpt><trkpt lat="44.46257210789805" lon="7.886122437663022"><ele>286.0</ele><time>2026-04-10T12:15:50.999Z</time></trkpt><trkpt lat="44.46243806628164" lon="7.886295829251917"><ele>286.0</ele><time>2026-04-10T12:15:51.999Z</time></trkpt><trkpt lat="44.462302243211084" lon="7.886468480004355"><ele>286.0</ele><time>2026-04-10T12:15:52.999Z</time></trkpt><trkpt lat="44.46216496004967" lon="7.886641569049799"><ele>284.66666666666663</ele><time>2026-04-10T12:15:53.999Z</time></trkpt><trkpt lat="44.46202116590482" lon="7.886815856894762"><ele>283.3333333333333</ele><time>2026-04-10T12:15:54.999Z</time></trkpt><trkpt lat="44.46187229415181" lon="7.886992147215673"><ele>282.0</ele><time>2026-04-10T12:15:55.999Z</time></trkpt><trkpt lat="44.46173407254011" lon="7.88716133009479"><ele>282.0</ele><time>2026-04-10T12:15:56.999Z</time></trkpt><trkpt lat="44.46157666562121" lon="7.887347949156044"><ele>282.0</ele><time>2026-04-10T12:15:57.999Z</time></trkpt><trkpt lat="44.46142662170594" lon="7.887536833758153"><ele>282.0</ele><time>2026-04-10T12:15:58.999Z</time></trkpt><trkpt lat="44.46127587139494" lon="7.887723931099971"><ele>281.6666666666667</ele><time>2026-04-10T12:15:59.999Z</time></trkpt><trkpt lat="44.46111433595308" lon="7.887916706212948"><ele>281.33333333333337</ele><time>2026-04-10T12:16:00.999Z</time></trkpt><trkpt lat="44.46096482884531" lon="7.888116718663588"><ele>281.0</ele><time>2026-04-10T12:16:01.999Z</time></trkpt><trkpt lat="44.46081675627854" lon="7.888302931619306"><ele>281.0</ele><time>2026-04-10T12:16:02.998Z</time></trkpt><trkpt lat="44.46066324180536" lon="7.888488714084551"><ele>281.0</ele><time>2026-04-10T12:16:03.998Z</time></trkpt><trkpt lat="44.460503637815336" lon="7.8886746392874905"><ele>281.0</ele><time>2026-04-10T12:16:04.998Z</time></trkpt><trkpt lat="44.460350924152586" lon="7.888861422276018"><ele>281.0</ele><time>2026-04-10T12:16:05.998Z</time></trkpt><trkpt lat="44.46019608254161" lon="7.889045699936897"><ele>281.0</ele><time>2026-04-10T12:16:06.998Z</time></trkpt><trkpt lat="44.4600376669877" lon="7.8892244053031675"><ele>281.0</ele><time>2026-04-10T12:16:07.998Z</time></trkpt><trkpt lat="44.459882315046755" lon="7.889392168743398"><ele>279.6666666666667</ele><time>2026-04-10T12:16:08.998Z</time></trkpt><trkpt lat="44.45971218960323" lon="7.889561778932605"><ele>278.3333333333333</ele><time>2026-04-10T12:16:09.998Z</time></trkpt><trkpt lat="44.459541929809696" lon="7.889711540963414"><ele>277.0</ele><time>2026-04-10T12:16:10.998Z</time></trkpt><trkpt lat="44.459358246199535" lon="7.889844418145941"><ele>277.0</ele><time>2026-04-10T12:16:11.998Z</time></trkpt><trkpt lat="44.45918032434141" lon="7.889968537652312"><ele>277.0</ele><time>2026-04-10T12:16:12.998Z</time></trkpt><trkpt lat="44.45899294979411" lon="7.890067229955404"><ele>277.0</ele><time>2026-04-10T12:16:13.998Z</time></trkpt><trkpt lat="44.45880689025701" lon="7.890151547813468"><ele>275.66666666666663</ele><time>2026-04-10T12:16:14.998Z</time></trkpt><trkpt lat="44.458616512342196" lon="7.890228073510327"><ele>274.3333333333333</ele><time>2026-04-10T12:16:16Z</time></trkpt><trkpt lat="44.458424738753166" lon="7.890293020074379"><ele>273.0</ele><time>2026-04-10T12:16:17Z</time></trkpt><trkpt lat="44.45824187364632" lon="7.890359745093444"><ele>273.0</ele><time>2026-04-10T12:16:18Z</time></trkpt><trkpt lat="44.45804568014088" lon="7.890426871602534"><ele>273.0</ele><time>2026-04-10T12:16:19Z</time></trkpt><trkpt lat="44.457854561099126" lon="7.890492700857747"><ele>273.0</ele><time>2026-04-10T12:16:20Z</time></trkpt><trkpt lat="44.457667231554524" lon="7.890553426945319"><ele>272.6666666666667</ele><time>2026-04-10T12:16:21Z</time></trkpt><trkpt lat="44.4574745780472" lon="7.890621481052467"><ele>272.33333333333337</ele><time>2026-04-10T12:16:22Z</time></trkpt><trkpt lat="44.457282817092754" lon="7.890687153561001"><ele>272.0</ele><time>2026-04-10T12:16:23Z</time></trkpt><trkpt lat="44.45709412631057" lon="7.890747258764746"><ele>273.0</ele><time>2026-04-10T12:16:24Z</time></trkpt><trkpt lat="44.45689525206273" lon="7.890816822662853"><ele>274.0</ele><time>2026-04-10T12:16:25Z</time></trkpt><trkpt lat="44.456704046432435" lon="7.890886151186832"><ele>275.0</ele><time>2026-04-10T12:16:26Z</time></trkpt><trkpt lat="44.456505281741606" lon="7.890955321494252"><ele>275.0</ele><time>2026-04-10T12:16:27Z</time></trkpt><trkpt lat="44.45630521727335" lon="7.891025153217846"><ele>275.0</ele><time>2026-04-10T12:16:28Z</time></trkpt><trkpt lat="44.45611378034815" lon="7.891094290776066"><ele>275.0</ele><time>2026-04-10T12:16:29Z</time></trkpt><trkpt lat="44.455918075018545" lon="7.8911678003070715"><ele>277.33333333333337</ele><time>2026-04-10T12:16:30Z</time></trkpt><trkpt lat="44.45571976761656" lon="7.891233847573401"><ele>279.6666666666667</ele><time>2026-04-10T12:16:31Z</time></trkpt><trkpt lat="44.45552443143849" lon="7.891300970095328"><ele>282.0</ele><time>2026-04-10T12:16:32Z</time></trkpt><trkpt lat="44.45532358064178" lon="7.89137061148722"><ele>283.0</ele><time>2026-04-10T12:16:33Z</time></trkpt><trkpt lat="44.45512984878528" lon="7.891436567734082"><ele>284.0</ele><time>2026-04-10T12:16:34Z</time></trkpt><trkpt lat="44.454937196689436" lon="7.891497313362288"><ele>285.0</ele><time>2026-04-10T12:16:35Z</time></trkpt><trkpt lat="44.45474101296221" lon="7.891565185480144"><ele>284.3333333333333</ele><time>2026-04-10T12:16:36Z</time></trkpt><trkpt lat="44.454547369994195" lon="7.891637125544916"><ele>283.66666666666663</ele><time>2026-04-10T12:16:37Z</time></trkpt><trkpt lat="44.45435384589272" lon="7.891705763774395"><ele>283.0</ele><time>2026-04-10T12:16:38Z</time></trkpt><trkpt lat="44.45415457840219" lon="7.891767513761916"><ele>283.0</ele><time>2026-04-10T12:16:39Z</time></trkpt><trkpt lat="44.45396429751893" lon="7.891835766215936"><ele>283.0</ele><time>2026-04-10T12:16:40Z</time></trkpt><trkpt lat="44.45377845239243" lon="7.891903121210576"><ele>283.0</ele><time>2026-04-10T12:16:41Z</time></trkpt><trkpt lat="44.45358882049785" lon="7.891971203386007"><ele>281.3333333333333</ele><time>2026-04-10T12:16:42Z</time></trkpt><trkpt lat="44.453400717166446" lon="7.892041348153183"><ele>279.6666666666667</ele><time>2026-04-10T12:16:43Z</time></trkpt><trkpt lat="44.45321953913263" lon="7.892101774710415"><ele>278.0</ele><time>2026-04-10T12:16:44Z</time></trkpt><trkpt lat="44.453051430918165" lon="7.892158508044959"><ele>278.6666666666667</ele><time>2026-04-10T12:16:45Z</time></trkpt><trkpt lat="44.45290042838938" lon="7.892203928109401"><ele>279.3333333333333</ele><time>2026-04-10T12:16:46Z</time></trkpt><trkpt lat="44.45274758982512" lon="7.892257636888795"><ele>280.0</ele><time>2026-04-10T12:16:47Z</time></trkpt><trkpt lat="44.452604347902245" lon="7.892309685678307"><ele>280.0</ele><time>2026-04-10T12:16:48Z</time></trkpt><trkpt lat="44.45246381796109" lon="7.892353427057214"><ele>280.0</ele><time>2026-04-10T12:16:49Z</time></trkpt><trkpt lat="44.45233397548197" lon="7.892398529351283"><ele>280.0</ele><time>2026-04-10T12:16:50Z</time></trkpt><trkpt lat="44.452218668458755" lon="7.892436791537837"><ele>280.0</ele><time>2026-04-10T12:16:51Z</time></trkpt><trkpt lat="44.45210171902533" lon="7.892466432008091"><ele>280.6</ele><time>2026-04-10T12:16:52Z</time></trkpt><trkpt lat="44.45200625432364" lon="7.89248913092114"><ele>281.2</ele><time>2026-04-10T12:16:53Z</time></trkpt><trkpt lat="44.451916746742356" lon="7.892491755320524"><ele>281.8</ele><time>2026-04-10T12:16:54Z</time></trkpt><trkpt lat="44.45181988451275" lon="7.892478521696093"><ele>282.4</ele><time>2026-04-10T12:16:55Z</time></trkpt><trkpt lat="44.45171030369678" lon="7.8924373473213"><ele>283.0</ele><time>2026-04-10T12:16:56Z</time></trkpt><trkpt lat="44.45160467753772" lon="7.892385824995634"><ele>283.0</ele><time>2026-04-10T12:16:57Z</time></trkpt><trkpt lat="44.451500954916035" lon="7.8923137788938815"><ele>283.0</ele><time>2026-04-10T12:16:58Z</time></trkpt><trkpt lat="44.4514070448898" lon="7.892208330453571"><ele>283.0</ele><time>2026-04-10T12:16:59Z</time></trkpt><trkpt lat="44.45130278691916" lon="7.892076161702719"><ele>283.0</ele><time>2026-04-10T12:17:00Z</time></trkpt><trkpt lat="44.45119927668966" lon="7.891939934176314"><ele>283.3333333333333</ele><time>2026-04-10T12:17:01Z</time></trkpt><trkpt lat="44.45111737753587" lon="7.891746044762859"><ele>283.6666666666667</ele><time>2026-04-10T12:17:02Z</time></trkpt><trkpt lat="44.451019244422795" lon="7.89156534569017"><ele>284.0</ele><time>2026-04-10T12:17:03Z</time></trkpt><trkpt lat="44.45091802414084" lon="7.891353715981658"><ele>284.0</ele><time>2026-04-10T12:17:04Z</time></trkpt><trkpt lat="44.45082127685794" lon="7.8911453430167064"><ele>284.0</ele><time>2026-04-10T12:17:04.999Z</time></trkpt><trkpt lat="44.45071239893552" lon="7.890924116909378"><ele>284.0</ele><time>2026-04-10T12:17:05.999Z</time></trkpt><trkpt lat="44.45060501036329" lon="7.890712899386265"><ele>282.6666666666667</ele><time>2026-04-10T12:17:06.999Z</time></trkpt><trkpt lat="44.45049757571551" lon="7.8904891977360885"><ele>281.3333333333333</ele><time>2026-04-10T12:17:07.999Z</time></trkpt><trkpt lat="44.450383009848295" lon="7.890260117325959"><ele>280.0</ele><time>2026-04-10T12:17:08.999Z</time></trkpt><trkpt lat="44.450267253369915" lon="7.890024346518225"><ele>283.0</ele><time>2026-04-10T12:17:09.999Z</time></trkpt><trkpt lat="44.450147174609306" lon="7.889786262315139"><ele>286.0</ele><time>2026-04-10T12:17:10.999Z</time></trkpt><trkpt lat="44.45002559954398" lon="7.889549653556827"><ele>289.0</ele><time>2026-04-10T12:17:11.999Z</time></trkpt><trkpt lat="44.449907114047555" lon="7.889310960845964"><ele>288.3333333333333</ele><time>2026-04-10T12:17:12.999Z</time></trkpt><trkpt lat="44.44978933505716" lon="7.88907883716961"><ele>287.6666666666667</ele><time>2026-04-10T12:17:13.999Z</time></trkpt><trkpt lat="44.449672766833324" lon="7.888844305537224"><ele>287.0</ele><time>2026-04-10T12:17:14.999Z</time></trkpt><trkpt lat="44.449555773601624" lon="7.888607475619675"><ele>289.0</ele><time>2026-04-10T12:17:15.999Z</time></trkpt><trkpt lat="44.44943863753209" lon="7.888366994373873"><ele>291.0</ele><time>2026-04-10T12:17:16.999Z</time></trkpt><trkpt lat="44.4493200852191" lon="7.8881234519693235"><ele>293.0</ele><time>2026-04-10T12:17:17.999Z</time></trkpt><trkpt lat="44.449201401233246" lon="7.887879877876987"><ele>293.0</ele><time>2026-04-10T12:17:18.999Z</time></trkpt><trkpt lat="44.44908069592861" lon="7.887647727546017"><ele>293.0</ele><time>2026-04-10T12:17:19.999Z</time></trkpt><trkpt lat="44.448959203029546" lon="7.887409816423761"><ele>293.0</ele><time>2026-04-10T12:17:20.999Z</time></trkpt><trkpt lat="44.448838178610295" lon="7.88717624241257"><ele>293.0</ele><time>2026-04-10T12:17:21.999Z</time></trkpt><trkpt lat="44.44871839901262" lon="7.886936292990711"><ele>293.0</ele><time>2026-04-10T12:17:22.999Z</time></trkpt><trkpt lat="44.448607566743895" lon="7.886707728065236"><ele>293.0</ele><time>2026-04-10T12:17:23.999Z</time></trkpt><trkpt lat="44.44849427673161" lon="7.886465807823393"><ele>293.0</ele><time>2026-04-10T12:17:24.999Z</time></trkpt><trkpt lat="44.44838630008484" lon="7.886224928574102"><ele>293.0</ele><time>2026-04-10T12:17:25.999Z</time></trkpt><trkpt lat="44.44827566910028" lon="7.8859976098159095"><ele>293.0</ele><time>2026-04-10T12:17:26.999Z</time></trkpt><trkpt lat="44.44816590095667" lon="7.885762153329872"><ele>293.0</ele><time>2026-04-10T12:17:27.999Z</time></trkpt><trkpt lat="44.44805252401145" lon="7.8855268834878425"><ele>293.0</ele><time>2026-04-10T12:17:28.999Z</time></trkpt><trkpt lat="44.4479409471572" lon="7.885286225251521"><ele>293.0</ele><time>2026-04-10T12:17:29.999Z</time></trkpt><trkpt lat="44.44783754936753" lon="7.885056744727362"><ele>293.0</ele><time>2026-04-10T12:17:30.999Z</time></trkpt><trkpt lat="44.44773926425145" lon="7.884816729541095"><ele>293.0</ele><time>2026-04-10T12:17:31.999Z</time></trkpt><trkpt lat="44.44764684349983" lon="7.884558797234897"><ele>293.0</ele><time>2026-04-10T12:17:32.999Z</time></trkpt><trkpt lat="44.44756253511786" lon="7.8842945582722965"><ele>293.6666666666667</ele><time>2026-04-10T12:17:33.999Z</time></trkpt><trkpt lat="44.447487636473454" lon="7.884013975756995"><ele>294.3333333333333</ele><time>2026-04-10T12:17:34.999Z</time></trkpt><trkpt lat="44.4474272065286" lon="7.883728042328972"><ele>295.0</ele><time>2026-04-10T12:17:35.999Z</time></trkpt><trkpt lat="44.44738763805447" lon="7.883440702377462"><ele>297.3333333333333</ele><time>2026-04-10T12:17:36.999Z</time></trkpt><trkpt lat="44.44735759321845" lon="7.883142420402871"><ele>299.6666666666667</ele><time>2026-04-10T12:17:37.999Z</time></trkpt><trkpt lat="44.4473365813342" lon="7.88284288517802"><ele>302.0</ele><time>2026-04-10T12:17:38.999Z</time></trkpt><trkpt lat="44.447316244584655" lon="7.882534276132977"><ele>303.33333333333337</ele><time>2026-04-10T12:17:39.999Z</time></trkpt><trkpt lat="44.44729425272368" lon="7.882225209710009"><ele>304.6666666666667</ele><time>2026-04-10T12:17:40.999Z</time></trkpt><trkpt lat="44.44727339324766" lon="7.88191870112897"><ele>306.0</ele><time>2026-04-10T12:17:41.999Z</time></trkpt><trkpt lat="44.44725075681595" lon="7.881619460899648"><ele>307.0</ele><time>2026-04-10T12:17:42.999Z</time></trkpt><trkpt lat="44.44723471981909" lon="7.88132743375189"><ele>308.0</ele><time>2026-04-10T12:17:43.999Z</time></trkpt><trkpt lat="44.44723369177789" lon="7.881041238179802"><ele>309.0</ele><time>2026-04-10T12:17:44.999Z</time></trkpt><trkpt lat="44.447202142647015" lon="7.88075982731158"><ele>311.3333333333333</ele><time>2026-04-10T12:17:45.999Z</time></trkpt><trkpt lat="44.44718613518425" lon="7.88048602524506"><ele>313.66666666666663</ele><time>2026-04-10T12:17:46.999Z</time></trkpt><trkpt lat="44.447174192199604" lon="7.880214633523324"><ele>316.0</ele><time>2026-04-10T12:17:47.999Z</time></trkpt><trkpt lat="44.447159930048755" lon="7.879955970166749"><ele>319.66666666666663</ele><time>2026-04-10T12:17:48.999Z</time></trkpt><trkpt lat="44.447135534829314" lon="7.8796972615459415"><ele>323.3333333333333</ele><time>2026-04-10T12:17:49.999Z</time></trkpt><trkpt lat="44.447094749695005" lon="7.879450937644032"><ele>327.0</ele><time>2026-04-10T12:17:50.999Z</time></trkpt><trkpt lat="44.44704760524109" lon="7.87923168353163"><ele>319.0</ele><time>2026-04-10T12:17:51.999Z</time></trkpt><trkpt lat="44.44698470385781" lon="7.879027515088214"><ele>311.0</ele><time>2026-04-10T12:17:52.999Z</time></trkpt><trkpt lat="44.446908854819654" lon="7.878829229296688"><ele>303.0</ele><time>2026-04-10T12:17:53.999Z</time></trkpt><trkpt lat="44.44681724520597" lon="7.878648112363118"><ele>303.0</ele><time>2026-04-10T12:17:54.999Z</time></trkpt><trkpt lat="44.44671267960961" lon="7.878480883730066"><ele>303.0</ele><time>2026-04-10T12:17:55.999Z</time></trkpt><trkpt lat="44.44660142611665" lon="7.878320379358015"><ele>303.0</ele><time>2026-04-10T12:17:56.999Z</time></trkpt><trkpt lat="44.44647485470452" lon="7.8781704815295175"><ele>302.0</ele><time>2026-04-10T12:17:57.999Z</time></trkpt><trkpt lat="44.44634782223622" lon="7.8780263090505205"><ele>301.0</ele><time>2026-04-10T12:17:58.999Z</time></trkpt><trkpt lat="44.44621440340205" lon="7.8778938351333565"><ele>300.0</ele><time>2026-04-10T12:17:59.999Z</time></trkpt><trkpt lat="44.446097453562" lon="7.877760733994493"><ele>300.0</ele><time>2026-04-10T12:18:00.999Z</time></trkpt><trkpt lat="44.446004991144875" lon="7.877631446475932"><ele>300.0</ele><time>2026-04-10T12:18:01.999Z</time></trkpt><trkpt lat="44.445914542535725" lon="7.877470407572926"><ele>300.0</ele><time>2026-04-10T12:18:02.999Z</time></trkpt><trkpt lat="44.445841362534296" lon="7.877294738092588"><ele>300.0</ele><time>2026-04-10T12:18:03.999Z</time></trkpt><trkpt lat="44.44577927831924" lon="7.87711811213602"><ele>307.0</ele><time>2026-04-10T12:18:04.999Z</time></trkpt><trkpt lat="44.44572344836145" lon="7.876926513744913"><ele>314.0</ele><time>2026-04-10T12:18:05.999Z</time></trkpt><trkpt lat="44.44566467731785" lon="7.876724129962741"><ele>321.0</ele><time>2026-04-10T12:18:06.999Z</time></trkpt><trkpt lat="44.44562165243701" lon="7.87651326673961"><ele>325.3333333333333</ele><time>2026-04-10T12:18:07.999Z</time></trkpt><trkpt lat="44.44558667226078" lon="7.876295675757981"><ele>329.66666666666663</ele><time>2026-04-10T12:18:08.999Z</time></trkpt><trkpt lat="44.445528414356076" lon="7.876082840575221"><ele>334.0</ele><time>2026-04-10T12:18:09.999Z</time></trkpt><trkpt lat="44.445486186625786" lon="7.87587716972615"><ele>327.3333333333333</ele><time>2026-04-10T12:18:10.999Z</time></trkpt><trkpt lat="44.44544270882513" lon="7.875668623473705"><ele>320.6666666666667</ele><time>2026-04-10T12:18:11.998Z</time></trkpt><trkpt lat="44.44540018824273" lon="7.875465067582991"><ele>314.0</ele><time>2026-04-10T12:18:12.998Z</time></trkpt><trkpt lat="44.445346005857324" lon="7.875247359463197"><ele>318.6666666666667</ele><time>2026-04-10T12:18:13.998Z</time></trkpt><trkpt lat="44.445279855584246" lon="7.875046292759134"><ele>323.3333333333333</ele><time>2026-04-10T12:18:14.998Z</time></trkpt><trkpt lat="44.445202044874826" lon="7.8748480387744015"><ele>328.0</ele><time>2026-04-10T12:18:15.998Z</time></trkpt><trkpt lat="44.44511665669805" lon="7.874653866208749"><ele>328.0</ele><time>2026-04-10T12:18:16.998Z</time></trkpt><trkpt lat="44.44502289993268" lon="7.8744719404533665"><ele>328.0</ele><time>2026-04-10T12:18:17.998Z</time></trkpt><trkpt lat="44.44491767838672" lon="7.874295314618882"><ele>328.0</ele><time>2026-04-10T12:18:18.998Z</time></trkpt><trkpt lat="44.44480211408951" lon="7.874128538508302"><ele>328.0</ele><time>2026-04-10T12:18:19.998Z</time></trkpt><trkpt lat="44.44467858607278" lon="7.873972699867785"><ele>328.0</ele><time>2026-04-10T12:18:20.998Z</time></trkpt><trkpt lat="44.44454661293689" lon="7.873832706872991"><ele>328.0</ele><time>2026-04-10T12:18:22Z</time></trkpt><trkpt lat="44.4444173056678" lon="7.873689675281113"><ele>328.0</ele><time>2026-04-10T12:18:23Z</time></trkpt><trkpt lat="44.44428775460596" lon="7.873559546680101"><ele>328.0</ele><time>2026-04-10T12:18:24Z</time></trkpt><trkpt lat="44.44415361962685" lon="7.873423712398617"><ele>328.0</ele><time>2026-04-10T12:18:25Z</time></trkpt><trkpt lat="44.444026506008555" lon="7.873297521628054"><ele>331.5</ele><time>2026-04-10T12:18:26Z</time></trkpt><trkpt lat="44.443905070257074" lon="7.87318491311752"><ele>335.0</ele><time>2026-04-10T12:18:27Z</time></trkpt><trkpt lat="44.44378837193195" lon="7.873066954719374"><ele>338.5</ele><time>2026-04-10T12:18:28Z</time></trkpt><trkpt lat="44.44367958114721" lon="7.872956439756703"><ele>342.0</ele><time>2026-04-10T12:18:29Z</time></trkpt><trkpt lat="44.44356987716907" lon="7.872841949005414"><ele>342.0</ele><time>2026-04-10T12:18:30Z</time></trkpt><trkpt lat="44.443454864639584" lon="7.872738950984885"><ele>342.0</ele><time>2026-04-10T12:18:31Z</time></trkpt><trkpt lat="44.44334163442769" lon="7.872638370765047"><ele>342.0</ele><time>2026-04-10T12:18:32Z</time></trkpt><trkpt lat="44.44322073561637" lon="7.8725287618929345"><ele>342.0</ele><time>2026-04-10T12:18:33Z</time></trkpt><trkpt lat="44.443099026301546" lon="7.872415038755575"><ele>345.0</ele><time>2026-04-10T12:18:34Z</time></trkpt><trkpt lat="44.442973632187005" lon="7.872305831600877"><ele>348.0</ele><time>2026-04-10T12:18:35Z</time></trkpt><trkpt lat="44.442846819366586" lon="7.872199736765926"><ele>351.0</ele><time>2026-04-10T12:18:36Z</time></trkpt><trkpt lat="44.442723918179354" lon="7.872092229937217"><ele>354.0</ele><time>2026-04-10T12:18:37Z</time></trkpt><trkpt lat="44.44259318278058" lon="7.871980315090306"><ele>355.0</ele><time>2026-04-10T12:18:38Z</time></trkpt><trkpt lat="44.44246224482005" lon="7.87187807693347"><ele>356.0</ele><time>2026-04-10T12:18:39Z</time></trkpt><trkpt lat="44.44233047787391" lon="7.871769416967617"><ele>357.0</ele><time>2026-04-10T12:18:40Z</time></trkpt><trkpt lat="44.44218867185708" lon="7.871659556560553"><ele>359.0</ele><time>2026-04-10T12:18:41Z</time></trkpt><trkpt lat="44.442047246234225" lon="7.871551779258108"><ele>361.0</ele><time>2026-04-10T12:18:42Z</time></trkpt><trkpt lat="44.441902572199034" lon="7.871440463942083"><ele>363.0</ele><time>2026-04-10T12:18:43Z</time></trkpt><trkpt lat="44.44175374924522" lon="7.871326651025658"><ele>363.0</ele><time>2026-04-10T12:18:44Z</time></trkpt><trkpt lat="44.44160450745068" lon="7.871215135817247"><ele>363.0</ele><time>2026-04-10T12:18:45Z</time></trkpt><trkpt lat="44.44144973889136" lon="7.871105044208421"><ele>363.0</ele><time>2026-04-10T12:18:46Z</time></trkpt><trkpt lat="44.44129751038792" lon="7.870992315242129"><ele>365.3333333333333</ele><time>2026-04-10T12:18:47Z</time></trkpt><trkpt lat="44.441137589306706" lon="7.870876451979199"><ele>367.66666666666663</ele><time>2026-04-10T12:18:48Z</time></trkpt><trkpt lat="44.44098689788053" lon="7.870766836827739"><ele>370.0</ele><time>2026-04-10T12:18:49Z</time></trkpt><trkpt lat="44.440826796251486" lon="7.870644358145541"><ele>370.0</ele><time>2026-04-10T12:18:50Z</time></trkpt><trkpt lat="44.44066018292626" lon="7.870521649044167"><ele>370.0</ele><time>2026-04-10T12:18:51Z</time></trkpt><trkpt lat="44.440494519964766" lon="7.870393838631622"><ele>370.0</ele><time>2026-04-10T12:18:52Z</time></trkpt><trkpt lat="44.44032444402417" lon="7.870259700510275"><ele>370.3333333333333</ele><time>2026-04-10T12:18:53Z</time></trkpt><trkpt lat="44.44015143549305" lon="7.8701231680222365"><ele>370.6666666666667</ele><time>2026-04-10T12:18:54Z</time></trkpt><trkpt lat="44.43998320205645" lon="7.869997343458612"><ele>371.0</ele><time>2026-04-10T12:18:55Z</time></trkpt><trkpt lat="44.439801217597186" lon="7.869863863271974"><ele>371.0</ele><time>2026-04-10T12:18:56Z</time></trkpt><trkpt lat="44.43961825516847" lon="7.869724830000113"><ele>371.0</ele><time>2026-04-10T12:18:57Z</time></trkpt><trkpt lat="44.4394345192127" lon="7.869584226999898"><ele>371.0</ele><time>2026-04-10T12:18:58Z</time></trkpt><trkpt lat="44.43925149294779" lon="7.869437951268975"><ele>371.0</ele><time>2026-04-10T12:18:59Z</time></trkpt><trkpt lat="44.43907420326465" lon="7.869297991244893"><ele>371.0</ele><time>2026-04-10T12:19:00Z</time></trkpt><trkpt lat="44.4388996192405" lon="7.869159664661066"><ele>371.0</ele><time>2026-04-10T12:19:01Z</time></trkpt><trkpt lat="44.4387217201153" lon="7.869005907389779"><ele>371.0</ele><time>2026-04-10T12:19:02Z</time></trkpt><trkpt lat="44.43853660378557" lon="7.8688461646039505"><ele>371.0</ele><time>2026-04-10T12:19:03Z</time></trkpt><trkpt lat="44.43836454340197" lon="7.868693029919572"><ele>371.0</ele><time>2026-04-10T12:19:04Z</time></trkpt><trkpt lat="44.438196756759254" lon="7.868534348660744"><ele>371.0</ele><time>2026-04-10T12:19:05Z</time></trkpt><trkpt lat="44.43802018616939" lon="7.868372478281889"><ele>371.0</ele><time>2026-04-10T12:19:06Z</time></trkpt><trkpt lat="44.437840193689865" lon="7.868209932423379"><ele>371.0</ele><time>2026-04-10T12:19:07Z</time></trkpt><trkpt lat="44.43768065160084" lon="7.8680409933735325"><ele>371.0</ele><time>2026-04-10T12:19:08Z</time></trkpt><trkpt lat="44.43751663436243" lon="7.867869915456691"><ele>371.0</ele><time>2026-04-10T12:19:09Z</time></trkpt><trkpt lat="44.43735020740481" lon="7.8676780361275185"><ele>371.0</ele><time>2026-04-10T12:19:10Z</time></trkpt><trkpt lat="44.437187159977874" lon="7.867491126445662"><ele>371.6666666666667</ele><time>2026-04-10T12:19:10.999Z</time></trkpt><trkpt lat="44.43702183521087" lon="7.867302918037949"><ele>372.3333333333333</ele><time>2026-04-10T12:19:11.999Z</time></trkpt><trkpt lat="44.43685671514025" lon="7.867116442219884"><ele>373.0</ele><time>2026-04-10T12:19:12.999Z</time></trkpt><trkpt lat="44.43670206095977" lon="7.866936778374589"><ele>373.3333333333333</ele><time>2026-04-10T12:19:13.999Z</time></trkpt><trkpt lat="44.43655086286725" lon="7.866765801544094"><ele>373.6666666666667</ele><time>2026-04-10T12:19:14.999Z</time></trkpt><trkpt lat="44.43640345974378" lon="7.866598920393374"><ele>374.0</ele><time>2026-04-10T12:19:15.999Z</time></trkpt><trkpt lat="44.436249655483515" lon="7.866424841638968"><ele>374.0</ele><time>2026-04-10T12:19:16.999Z</time></trkpt><trkpt lat="44.43610039772235" lon="7.866261849596681"><ele>374.0</ele><time>2026-04-10T12:19:17.999Z</time></trkpt><trkpt lat="44.435947694672166" lon="7.866092356368341"><ele>374.0</ele><time>2026-04-10T12:19:18.999Z</time></trkpt><trkpt lat="44.43579667034141" lon="7.865925921373821"><ele>374.0</ele><time>2026-04-10T12:19:19.999Z</time></trkpt><trkpt lat="44.43564519924858" lon="7.8657638498716675"><ele>374.0</ele><time>2026-04-10T12:19:20.999Z</time></trkpt><trkpt lat="44.43550089391151" lon="7.865598765867403"><ele>374.0</ele><time>2026-04-10T12:19:21.999Z</time></trkpt><trkpt lat="44.43535732667584" lon="7.865439099737632"><ele>374.0</ele><time>2026-04-10T12:19:22.999Z</time></trkpt><trkpt lat="44.435219250071476" lon="7.865278728645718"><ele>374.0</ele><time>2026-04-10T12:19:23.999Z</time></trkpt><trkpt lat="44.43506883021512" lon="7.865118951925889"><ele>374.0</ele><time>2026-04-10T12:19:24.999Z</time></trkpt><trkpt lat="44.43492350224969" lon="7.864962810343415"><ele>374.0</ele><time>2026-04-10T12:19:25.999Z</time></trkpt><trkpt lat="44.434768589573" lon="7.864795949231635"><ele>374.0</ele><time>2026-04-10T12:19:26.999Z</time></trkpt><trkpt lat="44.43461341176926" lon="7.86462721938159"><ele>374.0</ele><time>2026-04-10T12:19:27.999Z</time></trkpt><trkpt lat="44.4344520585513" lon="7.864448241827656"><ele>374.0</ele><time>2026-04-10T12:19:28.999Z</time></trkpt><trkpt lat="44.43428960082089" lon="7.86426861975038"><ele>374.0</ele><time>2026-04-10T12:19:29.999Z</time></trkpt><trkpt lat="44.43411790534452" lon="7.864077856316082"><ele>374.0</ele><time>2026-04-10T12:19:30.999Z</time></trkpt><trkpt lat="44.43394746387878" lon="7.863891399232432"><ele>374.5</ele><time>2026-04-10T12:19:31.999Z</time></trkpt><trkpt lat="44.43376946396831" lon="7.863695179452542"><ele>375.0</ele><time>2026-04-10T12:19:32.999Z</time></trkpt><trkpt lat="44.43359961047363" lon="7.863476945702929"><ele>375.0</ele><time>2026-04-10T12:19:33.999Z</time></trkpt><trkpt lat="44.43342541573137" lon="7.863279869534754"><ele>375.0</ele><time>2026-04-10T12:19:34.999Z</time></trkpt><trkpt lat="44.433244220869966" lon="7.863076149225688"><ele>375.0</ele><time>2026-04-10T12:19:35.999Z</time></trkpt><trkpt lat="44.43305763937288" lon="7.862866372663565"><ele>375.0</ele><time>2026-04-10T12:19:36.999Z</time></trkpt><trkpt lat="44.43286067428105" lon="7.862668190178394"><ele>375.0</ele><time>2026-04-10T12:19:37.999Z</time></trkpt><trkpt lat="44.43267472540327" lon="7.862446896483374"><ele>375.0</ele><time>2026-04-10T12:19:38.999Z</time></trkpt><trkpt lat="44.43248966564862" lon="7.862234109612775"><ele>375.0</ele><time>2026-04-10T12:19:39.999Z</time></trkpt><trkpt lat="44.43230837599131" lon="7.862025620174208"><ele>375.0</ele><time>2026-04-10T12:19:40.999Z</time></trkpt><trkpt lat="44.432121343914744" lon="7.8618135498441735"><ele>377.0</ele><time>2026-04-10T12:19:41.999Z</time></trkpt><trkpt lat="44.431934746664616" lon="7.861600894247839"><ele>379.0</ele><time>2026-04-10T12:19:42.999Z</time></trkpt><trkpt lat="44.43174645884377" lon="7.861390352662934"><ele>379.0</ele><time>2026-04-10T12:19:43.999Z</time></trkpt><trkpt lat="44.43156672352885" lon="7.8611884733243755"><ele>379.0</ele><time>2026-04-10T12:19:44.999Z</time></trkpt><trkpt lat="44.4313964696683" lon="7.860995561649917"><ele>379.0</ele><time>2026-04-10T12:19:45.999Z</time></trkpt><trkpt lat="44.43122583626008" lon="7.860810131540385"><ele>378.66666666666663</ele><time>2026-04-10T12:19:46.999Z</time></trkpt><trkpt lat="44.43106210262446" lon="7.860620089584443"><ele>378.3333333333333</ele><time>2026-04-10T12:19:47.999Z</time></trkpt><trkpt lat="44.430903489730525" lon="7.8604364203553185"><ele>378.0</ele><time>2026-04-10T12:19:48.999Z</time></trkpt><trkpt lat="44.4307469595608" lon="7.860262114986396"><ele>378.6666666666667</ele><time>2026-04-10T12:19:49.999Z</time></trkpt><trkpt lat="44.43058183245214" lon="7.860079731729518"><ele>379.33333333333337</ele><time>2026-04-10T12:19:50.999Z</time></trkpt><trkpt lat="44.430421126267134" lon="7.859898856496479"><ele>380.0</ele><time>2026-04-10T12:19:51.999Z</time></trkpt><trkpt lat="44.430259003609955" lon="7.859725418868128"><ele>380.0</ele><time>2026-04-10T12:19:52.999Z</time></trkpt><trkpt lat="44.4301014984846" lon="7.859542100793253"><ele>380.0</ele><time>2026-04-10T12:19:53.999Z</time></trkpt><trkpt lat="44.429941168857" lon="7.859363329041305"><ele>380.0</ele><time>2026-04-10T12:19:54.999Z</time></trkpt><trkpt lat="44.429788047718695" lon="7.85918725098927"><ele>379.6666666666667</ele><time>2026-04-10T12:19:55.999Z</time></trkpt><trkpt lat="44.42963015936288" lon="7.859011859994516"><ele>379.3333333333333</ele><time>2026-04-10T12:19:56.999Z</time></trkpt><trkpt lat="44.42947177217595" lon="7.8588262357504854"><ele>379.0</ele><time>2026-04-10T12:19:57.999Z</time></trkpt><trkpt lat="44.429314909361835" lon="7.858644965571039"><ele>379.0</ele><time>2026-04-10T12:19:58.999Z</time></trkpt><trkpt lat="44.429157656348885" lon="7.858475544673351"><ele>379.0</ele><time>2026-04-10T12:19:59.999Z</time></trkpt><trkpt lat="44.42901182033813" lon="7.858313244938596"><ele>379.0</ele><time>2026-04-10T12:20:00.999Z</time></trkpt><trkpt lat="44.428856502151525" lon="7.858135752162467"><ele>379.0</ele><time>2026-04-10T12:20:01.999Z</time></trkpt><trkpt lat="44.428708061708065" lon="7.857971961923325"><ele>379.0</ele><time>2026-04-10T12:20:02.999Z</time></trkpt><trkpt lat="44.42856291100179" lon="7.857806045975434"><ele>379.0</ele><time>2026-04-10T12:20:03.999Z</time></trkpt><trkpt lat="44.42841749017324" lon="7.8576424694370735"><ele>379.0</ele><time>2026-04-10T12:20:04.999Z</time></trkpt><trkpt lat="44.428270881992155" lon="7.857477081496947"><ele>379.0</ele><time>2026-04-10T12:20:05.999Z</time></trkpt><trkpt lat="44.42812595244745" lon="7.85730674936672"><ele>379.0</ele><time>2026-04-10T12:20:06.999Z</time></trkpt><trkpt lat="44.42798432077632" lon="7.857145997797594"><ele>379.66666666666663</ele><time>2026-04-10T12:20:07.999Z</time></trkpt><trkpt lat="44.427845801823665" lon="7.856989473792296"><ele>380.3333333333333</ele><time>2026-04-10T12:20:08.999Z</time></trkpt><trkpt lat="44.42771597433286" lon="7.8568284023927815"><ele>381.0</ele><time>2026-04-10T12:20:09.999Z</time></trkpt><trkpt lat="44.42759834234875" lon="7.8566834747941625"><ele>381.3333333333333</ele><time>2026-04-10T12:20:10.999Z</time></trkpt><trkpt lat="44.42749182168414" lon="7.856550314549977"><ele>381.66666666666663</ele><time>2026-04-10T12:20:11.999Z</time></trkpt><trkpt lat="44.427374184833155" lon="7.856403714328856"><ele>382.0</ele><time>2026-04-10T12:20:12.999Z</time></trkpt><trkpt lat="44.42725860848714" lon="7.856247823356883"><ele>382.0</ele><time>2026-04-10T12:20:13.999Z</time></trkpt><trkpt lat="44.42713861234421" lon="7.856095296167158"><ele>382.0</ele><time>2026-04-10T12:20:14.999Z</time></trkpt><trkpt lat="44.42702599895468" lon="7.855952564298785"><ele>382.0</ele><time>2026-04-10T12:20:15.999Z</time></trkpt><trkpt lat="44.4269179264676" lon="7.855809854430315"><ele>382.0</ele><time>2026-04-10T12:20:16.998Z</time></trkpt><trkpt lat="44.42681034546967" lon="7.855671636801477"><ele>382.0</ele><time>2026-04-10T12:20:17.998Z</time></trkpt><trkpt lat="44.42670436258564" lon="7.8555348716348785"><ele>382.0</ele><time>2026-04-10T12:20:18.998Z</time></trkpt><trkpt lat="44.42660213893943" lon="7.855399070911291"><ele>382.0</ele><time>2026-04-10T12:20:19.998Z</time></trkpt><trkpt lat="44.42649649499203" lon="7.855263451922372"><ele>382.0</ele><time>2026-04-10T12:20:20.998Z</time></trkpt><trkpt lat="44.426390018520635" lon="7.855127301628529"><ele>382.0</ele><time>2026-04-10T12:20:21.998Z</time></trkpt><trkpt lat="44.42628499445011" lon="7.854994405399503"><ele>382.0</ele><time>2026-04-10T12:20:22.998Z</time></trkpt><trkpt lat="44.42617642979308" lon="7.854858949922782"><ele>382.0</ele><time>2026-04-10T12:20:23.998Z</time></trkpt><trkpt lat="44.426066471306854" lon="7.8547191144699395"><ele>382.3333333333333</ele><time>2026-04-10T12:20:24.998Z</time></trkpt><trkpt lat="44.425960686476174" lon="7.8545716086186985"><ele>382.6666666666667</ele><time>2026-04-10T12:20:25.998Z</time></trkpt><trkpt lat="44.42585146705502" lon="7.85442061838555"><ele>383.0</ele><time>2026-04-10T12:20:26.998Z</time></trkpt><trkpt lat="44.425736966816366" lon="7.854266539307964"><ele>383.0</ele><time>2026-04-10T12:20:28Z</time></trkpt><trkpt lat="44.425616286261395" lon="7.854110937016146"><ele>383.0</ele><time>2026-04-10T12:20:29Z</time></trkpt><trkpt lat="44.42549696348342" lon="7.853957184724099"><ele>383.0</ele><time>2026-04-10T12:20:30Z</time></trkpt><trkpt lat="44.42537773413674" lon="7.853798325321462"><ele>383.0</ele><time>2026-04-10T12:20:31Z</time></trkpt><trkpt lat="44.425263317793124" lon="7.853641917850715"><ele>383.0</ele><time>2026-04-10T12:20:32Z</time></trkpt><trkpt lat="44.42514284248323" lon="7.853485360469289"><ele>383.0</ele><time>2026-04-10T12:20:33Z</time></trkpt><trkpt lat="44.42501929180163" lon="7.853326461777571"><ele>382.6666666666667</ele><time>2026-04-10T12:20:34Z</time></trkpt><trkpt lat="44.42490406969118" lon="7.853174808583856"><ele>382.3333333333333</ele><time>2026-04-10T12:20:35Z</time></trkpt><trkpt lat="44.424785664036925" lon="7.853021286121499"><ele>382.0</ele><time>2026-04-10T12:20:36Z</time></trkpt><trkpt lat="44.42467333049172" lon="7.852858496714279"><ele>382.0</ele><time>2026-04-10T12:20:37Z</time></trkpt><trkpt lat="44.42456618918209" lon="7.852689897602267"><ele>382.0</ele><time>2026-04-10T12:20:38Z</time></trkpt><trkpt lat="44.42446707688692" lon="7.852513431644456"><ele>382.0</ele><time>2026-04-10T12:20:39Z</time></trkpt><trkpt lat="44.42437106234115" lon="7.852316355385466"><ele>382.0</ele><time>2026-04-10T12:20:40Z</time></trkpt><trkpt lat="44.42428395765745" lon="7.85212551816884"><ele>382.0</ele><time>2026-04-10T12:20:41Z</time></trkpt><trkpt lat="44.424195757013706" lon="7.8519261517270325"><ele>382.0</ele><time>2026-04-10T12:20:42Z</time></trkpt><trkpt lat="44.42410267510663" lon="7.851720828057155"><ele>382.3333333333333</ele><time>2026-04-10T12:20:43Z</time></trkpt><trkpt lat="44.42401603579123" lon="7.851529261591739"><ele>382.6666666666667</ele><time>2026-04-10T12:20:44Z</time></trkpt><trkpt lat="44.42393927439944" lon="7.851349492203114"><ele>383.0</ele><time>2026-04-10T12:20:45Z</time></trkpt><trkpt lat="44.42386234162092" lon="7.851178820145061"><ele>383.25</ele><time>2026-04-10T12:20:46Z</time></trkpt><trkpt lat="44.42378562063306" lon="7.851009078066813"><ele>383.5</ele><time>2026-04-10T12:20:47Z</time></trkpt><trkpt lat="44.42371820824054" lon="7.850859188818902"><ele>383.75</ele><time>2026-04-10T12:20:48Z</time></trkpt><trkpt lat="44.42365047000988" lon="7.850724021822465"><ele>384.0</ele><time>2026-04-10T12:20:49Z</time></trkpt><trkpt lat="44.42359145174037" lon="7.850603752545183"><ele>384.0</ele><time>2026-04-10T12:20:50Z</time></trkpt><trkpt lat="44.42352954373928" lon="7.850498631182621"><ele>384.0</ele><time>2026-04-10T12:20:51Z</time></trkpt><trkpt lat="44.42347331603335" lon="7.850405778543263"><ele>384.0</ele><time>2026-04-10T12:20:52Z</time></trkpt><trkpt lat="44.423417237123296" lon="7.850302362379108"><ele>384.0</ele><time>2026-04-10T12:20:53Z</time></trkpt><trkpt lat="44.423363583042025" lon="7.8501824393464865"><ele>384.0</ele><time>2026-04-10T12:20:54Z</time></trkpt><trkpt lat="44.42332341561492" lon="7.850070046152519"><ele>383.79999999999995</ele><time>2026-04-10T12:20:55Z</time></trkpt><trkpt lat="44.423276385947354" lon="7.84996798345406"><ele>383.59999999999997</ele><time>2026-04-10T12:20:56Z</time></trkpt><trkpt lat="44.423220465897856" lon="7.84988661367056"><ele>383.4</ele><time>2026-04-10T12:20:57Z</time></trkpt><trkpt lat="44.42314454232527" lon="7.849816602618319"><ele>383.2</ele><time>2026-04-10T12:20:58Z</time></trkpt><trkpt lat="44.42305785005324" lon="7.849747012292965"><ele>383.0</ele><time>2026-04-10T12:20:59Z</time></trkpt><trkpt lat="44.42296580689907" lon="7.849659167932944"><ele>383.2</ele><time>2026-04-10T12:21:00Z</time></trkpt><trkpt lat="44.42288202455157" lon="7.849555662083673"><ele>383.4</ele><time>2026-04-10T12:21:01Z</time></trkpt><trkpt lat="44.422797964066014" lon="7.849460552546347"><ele>383.59999999999997</ele><time>2026-04-10T12:21:02Z</time></trkpt><trkpt lat="44.422719954592054" lon="7.8493786395575595"><ele>383.79999999999995</ele><time>2026-04-10T12:21:03Z</time></trkpt><trkpt lat="44.42264401034649" lon="7.849318935335048"><ele>384.0</ele><time>2026-04-10T12:21:04Z</time></trkpt><trkpt lat="44.42257473303707" lon="7.8492727308460095"><ele>384.0</ele><time>2026-04-10T12:21:05Z</time></trkpt><trkpt lat="44.42250482086325" lon="7.849245432880896"><ele>384.0</ele><time>2026-04-10T12:21:06Z</time></trkpt><trkpt lat="44.4224057091441" lon="7.849215497710717"><ele>384.0</ele><time>2026-04-10T12:21:08Z</time></trkpt><trkpt lat="44.42233379617861" lon="7.849205406670286"><ele>384.0</ele><time>2026-04-10T12:21:15Z</time></trkpt><trkpt lat="44.422120982806454" lon="7.8490756581411025"><ele>384.2</ele><time>2026-04-10T12:21:24.999Z</time></trkpt><trkpt lat="44.422019330540756" lon="7.8489635150269"><ele>384.4</ele><time>2026-04-10T12:21:26.999Z</time></trkpt><trkpt lat="44.4219369222431" lon="7.848897232347198"><ele>384.6</ele><time>2026-04-10T12:21:27.999Z</time></trkpt><trkpt lat="44.421858765725034" lon="7.84887333081561"><ele>384.8</ele><time>2026-04-10T12:21:28.999Z</time></trkpt><trkpt lat="44.421780343417424" lon="7.848866869528547"><ele>385.0</ele><time>2026-04-10T12:21:29.999Z</time></trkpt><trkpt lat="44.42166655452029" lon="7.848883612686103"><ele>385.0</ele><time>2026-04-10T12:21:31.999Z</time></trkpt><trkpt lat="44.42160449113788" lon="7.8488677820040404"><ele>385.0</ele><time>2026-04-10T12:21:32.999Z</time></trkpt><trkpt lat="44.42152348216399" lon="7.84882189870874"><ele>385.0</ele><time>2026-04-10T12:21:33.999Z</time></trkpt><trkpt lat="44.421442288307546" lon="7.848762579208467"><ele>385.0</ele><time>2026-04-10T12:21:34.999Z</time></trkpt><trkpt lat="44.421363915642544" lon="7.848683261235725"><ele>385.0</ele><time>2026-04-10T12:21:35.999Z</time></trkpt><trkpt lat="44.42126144897265" lon="7.84858380337069"><ele>385.33333333333337</ele><time>2026-04-10T12:21:36.999Z</time></trkpt><trkpt lat="44.42113300665359" lon="7.848484363763768"><ele>385.66666666666663</ele><time>2026-04-10T12:21:37.999Z</time></trkpt><trkpt lat="44.421031625500085" lon="7.848340823137973"><ele>386.0</ele><time>2026-04-10T12:21:38.999Z</time></trkpt><trkpt lat="44.42088468351113" lon="7.8481951742423774"><ele>386.5</ele><time>2026-04-10T12:21:39.999Z</time></trkpt><trkpt lat="44.42076063952596" lon="7.848059125016824"><ele>387.0</ele><time>2026-04-10T12:21:40.999Z</time></trkpt><trkpt lat="44.42064817595648" lon="7.847925905375975"><ele>387.5</ele><time>2026-04-10T12:21:41.999Z</time></trkpt><trkpt lat="44.420551335260534" lon="7.847799370987809"><ele>388.0</ele><time>2026-04-10T12:21:42.999Z</time></trkpt><trkpt lat="44.420466196373646" lon="7.847672767327478"><ele>388.25</ele><time>2026-04-10T12:21:43.999Z</time></trkpt><trkpt lat="44.42038340569814" lon="7.847534967860654"><ele>388.5</ele><time>2026-04-10T12:21:44.999Z</time></trkpt><trkpt lat="44.42029913536158" lon="7.847390586234681"><ele>388.75</ele><time>2026-04-10T12:21:45.999Z</time></trkpt><trkpt lat="44.42020725461145" lon="7.847230284122084"><ele>389.0</ele><time>2026-04-10T12:21:46.999Z</time></trkpt><trkpt lat="44.42012293757533" lon="7.8470732795975815"><ele>389.0</ele><time>2026-04-10T12:21:47.999Z</time></trkpt><trkpt lat="44.42004555229591" lon="7.846888995105134"><ele>389.0</ele><time>2026-04-10T12:21:48.999Z</time></trkpt><trkpt lat="44.4199652574664" lon="7.846711811950496"><ele>389.0</ele><time>2026-04-10T12:21:49.999Z</time></trkpt><trkpt lat="44.419894099292385" lon="7.84650659009049"><ele>389.0</ele><time>2026-04-10T12:21:50.999Z</time></trkpt><trkpt lat="44.41982109250529" lon="7.846296418617822"><ele>389.0</ele><time>2026-04-10T12:21:51.999Z</time></trkpt><trkpt lat="44.41975655644435" lon="7.846075192832969"><ele>389.0</ele><time>2026-04-10T12:21:52.999Z</time></trkpt><trkpt lat="44.41970315535834" lon="7.845872126233493"><ele>389.0</ele><time>2026-04-10T12:21:53.999Z</time></trkpt><trkpt lat="44.419661949476456" lon="7.845664817038912"><ele>389.0</ele><time>2026-04-10T12:21:54.999Z</time></trkpt><trkpt lat="44.4196176879794" lon="7.845446085597879"><ele>389.0</ele><time>2026-04-10T12:21:55.999Z</time></trkpt><trkpt lat="44.41957788903478" lon="7.845233898084814"><ele>388.3333333333333</ele><time>2026-04-10T12:21:56.999Z</time></trkpt><trkpt lat="44.41954313438766" lon="7.845017652123042"><ele>387.66666666666663</ele><time>2026-04-10T12:21:57.999Z</time></trkpt><trkpt lat="44.41950947045104" lon="7.844794422560742"><ele>387.0</ele><time>2026-04-10T12:21:58.999Z</time></trkpt><trkpt lat="44.41947493117251" lon="7.844556241347253"><ele>387.0</ele><time>2026-04-10T12:21:59.999Z</time></trkpt><trkpt lat="44.419442492936525" lon="7.84432753671943"><ele>387.0</ele><time>2026-04-10T12:22:00.999Z</time></trkpt><trkpt lat="44.4194077644606" lon="7.844098268819092"><ele>387.0</ele><time>2026-04-10T12:22:01.999Z</time></trkpt><trkpt lat="44.419372444740354" lon="7.84386514951811"><ele>388.0</ele><time>2026-04-10T12:22:02.999Z</time></trkpt><trkpt lat="44.41934377999611" lon="7.843627490361438"><ele>389.0</ele><time>2026-04-10T12:22:03.999Z</time></trkpt><trkpt lat="44.419310898527314" lon="7.843393480869705"><ele>390.0</ele><time>2026-04-10T12:22:04.999Z</time></trkpt><trkpt lat="44.41927604155442" lon="7.843152187027951"><ele>390.0</ele><time>2026-04-10T12:22:05.999Z</time></trkpt><trkpt lat="44.4192366413598" lon="7.842905281699812"><ele>390.0</ele><time>2026-04-10T12:22:06.999Z</time></trkpt><trkpt lat="44.41920072918222" lon="7.842645068979992"><ele>390.0</ele><time>2026-04-10T12:22:07.999Z</time></trkpt><trkpt lat="44.419155098784465" lon="7.842388205309009"><ele>390.0</ele><time>2026-04-10T12:22:08.999Z</time></trkpt><trkpt lat="44.4190987127634" lon="7.842114607472224"><ele>390.0</ele><time>2026-04-10T12:22:09.999Z</time></trkpt><trkpt lat="44.4190417825145" lon="7.841863184747874"><ele>390.0</ele><time>2026-04-10T12:22:10.999Z</time></trkpt><trkpt lat="44.41897225664911" lon="7.841612302747497"><ele>390.0</ele><time>2026-04-10T12:22:11.999Z</time></trkpt><trkpt lat="44.418890390347144" lon="7.841355369315758"><ele>390.0</ele><time>2026-04-10T12:22:12.999Z</time></trkpt><trkpt lat="44.4188068987549" lon="7.8410998070824816"><ele>390.0</ele><time>2026-04-10T12:22:13.999Z</time></trkpt><trkpt lat="44.41871773395332" lon="7.840849635298227"><ele>390.33333333333337</ele><time>2026-04-10T12:22:14.999Z</time></trkpt><trkpt lat="44.41862985827548" lon="7.8406052642320585"><ele>390.6666666666667</ele><time>2026-04-10T12:22:15.999Z</time></trkpt><trkpt lat="44.41854922148667" lon="7.840363557867904"><ele>391.0</ele><time>2026-04-10T12:22:16.999Z</time></trkpt><trkpt lat="44.41846981870843" lon="7.840126615914639"><ele>391.0</ele><time>2026-04-10T12:22:17.999Z</time></trkpt><trkpt lat="44.418395475613906" lon="7.839894054189707"><ele>391.0</ele><time>2026-04-10T12:22:18.999Z</time></trkpt><trkpt lat="44.41831864010028" lon="7.839656944772841"><ele>391.0</ele><time>2026-04-10T12:22:19.999Z</time></trkpt><trkpt lat="44.41823659744044" lon="7.839422649669937"><ele>391.0</ele><time>2026-04-10T12:22:20.999Z</time></trkpt><trkpt lat="44.41815662764513" lon="7.839198532837436"><ele>391.0</ele><time>2026-04-10T12:22:21.999Z</time></trkpt><trkpt lat="44.418076575085" lon="7.8389730928830055"><ele>391.0</ele><time>2026-04-10T12:22:22.998Z</time></trkpt><trkpt lat="44.41799512129303" lon="7.838741186626434"><ele>391.33333333333337</ele><time>2026-04-10T12:22:23.998Z</time></trkpt><trkpt lat="44.417918862982475" lon="7.838505323544786"><ele>391.66666666666663</ele><time>2026-04-10T12:22:24.998Z</time></trkpt><trkpt lat="44.41784114275169" lon="7.838275372424995"><ele>392.0</ele><time>2026-04-10T12:22:25.998Z</time></trkpt><trkpt lat="44.41776506836337" lon="7.838048311215592"><ele>392.3333333333333</ele><time>2026-04-10T12:22:26.998Z</time></trkpt><trkpt lat="44.41769160698925" lon="7.837827462802681"><ele>392.66666666666663</ele><time>2026-04-10T12:22:27.998Z</time></trkpt><trkpt lat="44.417617604893074" lon="7.837608399519509"><ele>393.0</ele><time>2026-04-10T12:22:28.998Z</time></trkpt><trkpt lat="44.41754525519273" lon="7.83738734735857"><ele>393.0</ele><time>2026-04-10T12:22:29.998Z</time></trkpt><trkpt lat="44.4174712285817" lon="7.837168513436879"><ele>393.0</ele><time>2026-04-10T12:22:30.998Z</time></trkpt><trkpt lat="44.41739501085327" lon="7.836951341387846"><ele>393.0</ele><time>2026-04-10T12:22:31.998Z</time></trkpt><trkpt lat="44.41731900688937" lon="7.83673538978084"><ele>393.33333333333337</ele><time>2026-04-10T12:22:32.998Z</time></trkpt><trkpt lat="44.41724100790505" lon="7.836513404149663"><ele>393.6666666666667</ele><time>2026-04-10T12:22:34Z</time></trkpt><trkpt lat="44.41716930935798" lon="7.836284966322488"><ele>394.0</ele><time>2026-04-10T12:22:35Z</time></trkpt><trkpt lat="44.417097398322774" lon="7.836060147550464"><ele>394.33333333333337</ele><time>2026-04-10T12:22:36Z</time></trkpt><trkpt lat="44.41702682600611" lon="7.835831591669572"><ele>394.66666666666663</ele><time>2026-04-10T12:22:37Z</time></trkpt><trkpt lat="44.416962052832304" lon="7.835596151285005"><ele>395.0</ele><time>2026-04-10T12:22:38Z</time></trkpt><trkpt lat="44.41690620193153" lon="7.835363322607203"><ele>395.3333333333333</ele><time>2026-04-10T12:22:39Z</time></trkpt><trkpt lat="44.41685477895604" lon="7.83513210478671"><ele>395.66666666666663</ele><time>2026-04-10T12:22:40Z</time></trkpt><trkpt lat="44.41681158432925" lon="7.834892916313549"><ele>396.0</ele><time>2026-04-10T12:22:41Z</time></trkpt><trkpt lat="44.41677556781576" lon="7.8346528261564945"><ele>396.0</ele><time>2026-04-10T12:22:42Z</time></trkpt><trkpt lat="44.41674980426621" lon="7.834416323417162"><ele>396.0</ele><time>2026-04-10T12:22:43Z</time></trkpt><trkpt lat="44.416734070832476" lon="7.834176205670179"><ele>396.0</ele><time>2026-04-10T12:22:44Z</time></trkpt><trkpt lat="44.41672229761196" lon="7.833926872643674"><ele>396.0</ele><time>2026-04-10T12:22:45Z</time></trkpt><trkpt lat="44.41671606170408" lon="7.833678872130953"><ele>396.0</ele><time>2026-04-10T12:22:46Z</time></trkpt><trkpt lat="44.41671511160339" lon="7.833419194751709"><ele>396.0</ele><time>2026-04-10T12:22:47Z</time></trkpt><trkpt lat="44.41672548232937" lon="7.8331612890610085"><ele>396.0</ele><time>2026-04-10T12:22:48Z</time></trkpt><trkpt lat="44.416731946498146" lon="7.8328973078414945"><ele>396.0</ele><time>2026-04-10T12:22:49Z</time></trkpt><trkpt lat="44.41674357559488" lon="7.832627845467581"><ele>396.0</ele><time>2026-04-10T12:22:50Z</time></trkpt><trkpt lat="44.41675685440998" lon="7.832365978410197"><ele>396.33333333333337</ele><time>2026-04-10T12:22:51Z</time></trkpt><trkpt lat="44.41677018295993" lon="7.832105912800979"><ele>396.6666666666667</ele><time>2026-04-10T12:22:52Z</time></trkpt><trkpt lat="44.41678563308314" lon="7.831845180517653"><ele>397.0</ele><time>2026-04-10T12:22:53Z</time></trkpt><trkpt lat="44.41680411319455" lon="7.831589101053115"><ele>397.33333333333337</ele><time>2026-04-10T12:22:54Z</time></trkpt><trkpt lat="44.41682150341516" lon="7.831332993267622"><ele>397.66666666666663</ele><time>2026-04-10T12:22:55Z</time></trkpt><trkpt lat="44.41684008484644" lon="7.831078183983659"><ele>398.0</ele><time>2026-04-10T12:22:56Z</time></trkpt><trkpt lat="44.41685678554484" lon="7.830827556407311"><ele>398.66666666666663</ele><time>2026-04-10T12:22:57Z</time></trkpt><trkpt lat="44.41687165001796" lon="7.830581007259984"><ele>399.33333333333337</ele><time>2026-04-10T12:22:58Z</time></trkpt><trkpt lat="44.41688723680326" lon="7.830340463703541"><ele>400.0</ele><time>2026-04-10T12:22:59Z</time></trkpt><trkpt lat="44.41689666655878" lon="7.830102980666005"><ele>400.0</ele><time>2026-04-10T12:23:00Z</time></trkpt><trkpt lat="44.41690911027653" lon="7.829857361501557"><ele>400.0</ele><time>2026-04-10T12:23:01Z</time></trkpt><trkpt lat="44.41692044148868" lon="7.829606756001035"><ele>400.0</ele><time>2026-04-10T12:23:02Z</time></trkpt><trkpt lat="44.416937601747655" lon="7.829379613319429"><ele>399.6666666666667</ele><time>2026-04-10T12:23:03Z</time></trkpt><trkpt lat="44.41695352026164" lon="7.829153275908368"><ele>399.33333333333337</ele><time>2026-04-10T12:23:04Z</time></trkpt><trkpt lat="44.41696863326452" lon="7.828930191204691"><ele>399.0</ele><time>2026-04-10T12:23:05Z</time></trkpt><trkpt lat="44.41698260836792" lon="7.828714600309044"><ele>399.0</ele><time>2026-04-10T12:23:06Z</time></trkpt><trkpt lat="44.41699315592584" lon="7.828499107951926"><ele>399.0</ele><time>2026-04-10T12:23:07Z</time></trkpt><trkpt lat="44.41700350851043" lon="7.82829244053912"><ele>399.0</ele><time>2026-04-10T12:23:08Z</time></trkpt><trkpt lat="44.41701863997856" lon="7.828084784122859"><ele>399.25</ele><time>2026-04-10T12:23:09Z</time></trkpt><trkpt lat="44.4170337891821" lon="7.827887479445281"><ele>399.5</ele><time>2026-04-10T12:23:10Z</time></trkpt><trkpt lat="44.417050393719336" lon="7.827684188714704"><ele>399.75</ele><time>2026-04-10T12:23:11Z</time></trkpt><trkpt lat="44.417070038063414" lon="7.827470556777776"><ele>400.0</ele><time>2026-04-10T12:23:12Z</time></trkpt><trkpt lat="44.41709113013792" lon="7.827241140647939"><ele>400.33333333333337</ele><time>2026-04-10T12:23:13Z</time></trkpt><trkpt lat="44.417109511663135" lon="7.827013182820913"><ele>400.66666666666663</ele><time>2026-04-10T12:23:14Z</time></trkpt><trkpt lat="44.417122751158395" lon="7.826793937184341"><ele>401.0</ele><time>2026-04-10T12:23:15Z</time></trkpt><trkpt lat="44.417134779691935" lon="7.826581244131424"><ele>401.0</ele><time>2026-04-10T12:23:16Z</time></trkpt><trkpt lat="44.41714905856198" lon="7.826366669278528"><ele>401.0</ele><time>2026-04-10T12:23:17Z</time></trkpt><trkpt lat="44.41716292446773" lon="7.826126372768524"><ele>401.0</ele><time>2026-04-10T12:23:18Z</time></trkpt><trkpt lat="44.41718181287142" lon="7.825906777683834"><ele>401.0</ele><time>2026-04-10T12:23:19Z</time></trkpt><trkpt lat="44.41720336995396" lon="7.8256780579291245"><ele>401.0</ele><time>2026-04-10T12:23:20Z</time></trkpt><trkpt lat="44.41721043670979" lon="7.825437735511116"><ele>401.0</ele><time>2026-04-10T12:23:20.999Z</time></trkpt><trkpt lat="44.417223769416836" lon="7.825179728935189"><ele>401.66666666666663</ele><time>2026-04-10T12:23:21.999Z</time></trkpt><trkpt lat="44.41722722692816" lon="7.824903816709564"><ele>402.33333333333337</ele><time>2026-04-10T12:23:22.999Z</time></trkpt><trkpt lat="44.41724685723616" lon="7.82462657877187"><ele>403.0</ele><time>2026-04-10T12:23:23.999Z</time></trkpt><trkpt lat="44.41726051120571" lon="7.824329358786825"><ele>402.0</ele><time>2026-04-10T12:23:24.999Z</time></trkpt><trkpt lat="44.417285496697005" lon="7.824031773093211"><ele>401.0</ele><time>2026-04-10T12:23:25.999Z</time></trkpt><trkpt lat="44.41730164037734" lon="7.823734993602854"><ele>400.0</ele><time>2026-04-10T12:23:26.999Z</time></trkpt><trkpt lat="44.41732000275158" lon="7.8234797042982205"><ele>399.33333333333337</ele><time>2026-04-10T12:23:27.999Z</time></trkpt><trkpt lat="44.417344240987354" lon="7.823212439594783"><ele>398.66666666666663</ele><time>2026-04-10T12:23:28.999Z</time></trkpt><trkpt lat="44.41736786528002" lon="7.822945402731165"><ele>398.0</ele><time>2026-04-10T12:23:29.999Z</time></trkpt><trkpt lat="44.4173849304994" lon="7.8226928141137835"><ele>397.66666666666663</ele><time>2026-04-10T12:23:30.999Z</time></trkpt><trkpt lat="44.41740495755647" lon="7.82245898275179"><ele>397.33333333333337</ele><time>2026-04-10T12:23:31.999Z</time></trkpt><trkpt lat="44.41742352700506" lon="7.8222151563909845"><ele>397.0</ele><time>2026-04-10T12:23:32.999Z</time></trkpt><trkpt lat="44.41743592469847" lon="7.821961194942963"><ele>397.6666666666667</ele><time>2026-04-10T12:23:33.999Z</time></trkpt><trkpt lat="44.41745060124623" lon="7.821701695497101"><ele>398.33333333333337</ele><time>2026-04-10T12:23:34.999Z</time></trkpt><trkpt lat="44.417465535782135" lon="7.821463303663962"><ele>399.0</ele><time>2026-04-10T12:23:35.999Z</time></trkpt><trkpt lat="44.41747507843748" lon="7.821240744697772"><ele>399.0</ele><time>2026-04-10T12:23:36.999Z</time></trkpt><trkpt lat="44.41748492108304" lon="7.821019548205545"><ele>399.0</ele><time>2026-04-10T12:23:37.999Z</time></trkpt><trkpt lat="44.41750466157739" lon="7.820790249310423"><ele>399.0</ele><time>2026-04-10T12:23:38.999Z</time></trkpt><trkpt lat="44.417520929505265" lon="7.820560326617423"><ele>398.33333333333337</ele><time>2026-04-10T12:23:39.999Z</time></trkpt><trkpt lat="44.417536220961146" lon="7.8203421997104"><ele>397.6666666666667</ele><time>2026-04-10T12:23:40.999Z</time></trkpt><trkpt lat="44.41754960194508" lon="7.82010979653311"><ele>397.0</ele><time>2026-04-10T12:23:41.999Z</time></trkpt><trkpt lat="44.41756454186495" lon="7.819875962720647"><ele>397.0</ele><time>2026-04-10T12:23:42.999Z</time></trkpt><trkpt lat="44.41757861105362" lon="7.81962752457763"><ele>397.0</ele><time>2026-04-10T12:23:43.999Z</time></trkpt><trkpt lat="44.41759832445252" lon="7.819366420315051"><ele>397.0</ele><time>2026-04-10T12:23:44.999Z</time></trkpt><trkpt lat="44.41761675335343" lon="7.819100320893584"><ele>397.6666666666667</ele><time>2026-04-10T12:23:45.999Z</time></trkpt><trkpt lat="44.41763324852625" lon="7.818833168724306"><ele>398.33333333333337</ele><time>2026-04-10T12:23:46.999Z</time></trkpt><trkpt lat="44.4176463187952" lon="7.818562319176472"><ele>399.0</ele><time>2026-04-10T12:23:47.999Z</time></trkpt><trkpt lat="44.417664205775296" lon="7.818290924411639"><ele>399.33333333333337</ele><time>2026-04-10T12:23:48.999Z</time></trkpt><trkpt lat="44.41768079182419" lon="7.818013443109398"><ele>399.6666666666667</ele><time>2026-04-10T12:23:49.999Z</time></trkpt><trkpt lat="44.41769737235508" lon="7.817732971855567"><ele>400.0</ele><time>2026-04-10T12:23:50.999Z</time></trkpt><trkpt lat="44.41771600755094" lon="7.817452727981573"><ele>400.0</ele><time>2026-04-10T12:23:51.999Z</time></trkpt><trkpt lat="44.41773854485787" lon="7.817164237533016"><ele>400.0</ele><time>2026-04-10T12:23:52.999Z</time></trkpt><trkpt lat="44.41776077827458" lon="7.816877993198544"><ele>400.0</ele><time>2026-04-10T12:23:53.999Z</time></trkpt><trkpt lat="44.41777886386914" lon="7.8165859525222885"><ele>400.0</ele><time>2026-04-10T12:23:54.999Z</time></trkpt><trkpt lat="44.41779804089399" lon="7.816283277087173"><ele>400.0</ele><time>2026-04-10T12:23:55.999Z</time></trkpt><trkpt lat="44.41781923149269" lon="7.815986586902755"><ele>400.0</ele><time>2026-04-10T12:23:56.999Z</time></trkpt><trkpt lat="44.41783746698293" lon="7.8156909554099"><ele>400.0</ele><time>2026-04-10T12:23:57.999Z</time></trkpt><trkpt lat="44.41784599790752" lon="7.815391241743854"><ele>400.0</ele><time>2026-04-10T12:23:58.999Z</time></trkpt><trkpt lat="44.41784797775841" lon="7.815080907339696"><ele>400.0</ele><time>2026-04-10T12:23:59.999Z</time></trkpt><trkpt lat="44.417868538744905" lon="7.814781148703371"><ele>400.0</ele><time>2026-04-10T12:24:00.999Z</time></trkpt><trkpt lat="44.41788856359309" lon="7.814481726804171"><ele>400.0</ele><time>2026-04-10T12:24:01.999Z</time></trkpt><trkpt lat="44.41791263160308" lon="7.814172316724199"><ele>400.0</ele><time>2026-04-10T12:24:02.999Z</time></trkpt><trkpt lat="44.41793250170512" lon="7.813885593665795"><ele>400.0</ele><time>2026-04-10T12:24:03.999Z</time></trkpt><trkpt lat="44.417950335362114" lon="7.813589128336255"><ele>400.0</ele><time>2026-04-10T12:24:04.999Z</time></trkpt><trkpt lat="44.41796749267171" lon="7.813291026233702"><ele>400.0</ele><time>2026-04-10T12:24:05.999Z</time></trkpt><trkpt lat="44.417981069555594" lon="7.812995727835088"><ele>399.6666666666667</ele><time>2026-04-10T12:24:06.999Z</time></trkpt><trkpt lat="44.41800292323936" lon="7.812702791755255"><ele>399.33333333333337</ele><time>2026-04-10T12:24:07.999Z</time></trkpt><trkpt lat="44.41802346352706" lon="7.812406678880639"><ele>399.0</ele><time>2026-04-10T12:24:08.999Z</time></trkpt><trkpt lat="44.41804144905519" lon="7.8121014702790355"><ele>398.33333333333337</ele><time>2026-04-10T12:24:09.999Z</time></trkpt><trkpt lat="44.41806070525123" lon="7.811790260985088"><ele>397.6666666666667</ele><time>2026-04-10T12:24:10.999Z</time></trkpt><trkpt lat="44.41808112785243" lon="7.811491979871483"><ele>397.0</ele><time>2026-04-10T12:24:11.999Z</time></trkpt><trkpt lat="44.41809035811099" lon="7.811193136618862"><ele>397.33333333333337</ele><time>2026-04-10T12:24:12.999Z</time></trkpt><trkpt lat="44.418102516698745" lon="7.8109030605895535"><ele>397.66666666666663</ele><time>2026-04-10T12:24:13.999Z</time></trkpt><trkpt lat="44.4181072129505" lon="7.810616828851914"><ele>398.0</ele><time>2026-04-10T12:24:14.999Z</time></trkpt><trkpt lat="44.418101145925405" lon="7.810330653598445"><ele>398.0</ele><time>2026-04-10T12:24:15.999Z</time></trkpt><trkpt lat="44.41809250819411" lon="7.810048234006162"><ele>398.0</ele><time>2026-04-10T12:24:16.999Z</time></trkpt><trkpt lat="44.41806447356444" lon="7.809769046786484"><ele>398.0</ele><time>2026-04-10T12:24:17.999Z</time></trkpt><trkpt lat="44.418030579818996" lon="7.809488459806777"><ele>398.3333333333333</ele><time>2026-04-10T12:24:18.999Z</time></trkpt><trkpt lat="44.41799228889054" lon="7.809210816310407"><ele>398.66666666666663</ele><time>2026-04-10T12:24:19.999Z</time></trkpt><trkpt lat="44.41793042391654" lon="7.808938991505429"><ele>399.0</ele><time>2026-04-10T12:24:20.999Z</time></trkpt><trkpt lat="44.41787305314968" lon="7.808665391236842"><ele>399.33333333333337</ele><time>2026-04-10T12:24:21.999Z</time></trkpt><trkpt lat="44.41779111778633" lon="7.808403580807144"><ele>399.6666666666667</ele><time>2026-04-10T12:24:22.999Z</time></trkpt><trkpt lat="44.41770025269006" lon="7.808140398709718"><ele>400.0</ele><time>2026-04-10T12:24:23.999Z</time></trkpt><trkpt lat="44.41760178027813" lon="7.807884025553081"><ele>400.33333333333337</ele><time>2026-04-10T12:24:24.999Z</time></trkpt><trkpt lat="44.41750039762364" lon="7.80762760284369"><ele>400.66666666666663</ele><time>2026-04-10T12:24:25.999Z</time></trkpt><trkpt lat="44.41739237410817" lon="7.807380653799819"><ele>401.0</ele><time>2026-04-10T12:24:26.999Z</time></trkpt><trkpt lat="44.41728003614037" lon="7.807128631943762"><ele>401.0</ele><time>2026-04-10T12:24:27.998Z</time></trkpt><trkpt lat="44.41716446679264" lon="7.806878593984103"><ele>401.0</ele><time>2026-04-10T12:24:28.998Z</time></trkpt><trkpt lat="44.417048109046235" lon="7.806633416564645"><ele>401.0</ele><time>2026-04-10T12:24:29.998Z</time></trkpt><trkpt lat="44.41693006167109" lon="7.806380705004217"><ele>401.0</ele><time>2026-04-10T12:24:30.998Z</time></trkpt><trkpt lat="44.41681245594907" lon="7.806127346827518"><ele>401.0</ele><time>2026-04-10T12:24:31.998Z</time></trkpt><trkpt lat="44.41669454364015" lon="7.805868846117378"><ele>401.0</ele><time>2026-04-10T12:24:32.998Z</time></trkpt><trkpt lat="44.41657838018841" lon="7.805620771096527"><ele>401.3333333333333</ele><time>2026-04-10T12:24:33.998Z</time></trkpt><trkpt lat="44.41646143441939" lon="7.805375416651059"><ele>401.66666666666663</ele><time>2026-04-10T12:24:34.998Z</time></trkpt><trkpt lat="44.41634464811488" lon="7.805127901436603"><ele>402.0</ele><time>2026-04-10T12:24:35.998Z</time></trkpt><trkpt lat="44.41622754161402" lon="7.804881408956936"><ele>403.0</ele><time>2026-04-10T12:24:36.998Z</time></trkpt><trkpt lat="44.41611241783929" lon="7.804640483603183"><ele>404.0</ele><time>2026-04-10T12:24:37.998Z</time></trkpt><trkpt lat="44.41599516961278" lon="7.804414260957021"><ele>405.0</ele><time>2026-04-10T12:24:38.998Z</time></trkpt><trkpt lat="44.415881796211835" lon="7.80420018740417"><ele>405.0</ele><time>2026-04-10T12:24:40Z</time></trkpt><trkpt lat="44.41575815131912" lon="7.803980911093995"><ele>405.0</ele><time>2026-04-10T12:24:41Z</time></trkpt><trkpt lat="44.41563239482318" lon="7.803757383236827"><ele>405.0</ele><time>2026-04-10T12:24:42Z</time></trkpt><trkpt lat="44.415506763550496" lon="7.803536588345331"><ele>404.0</ele><time>2026-04-10T12:24:43Z</time></trkpt><trkpt lat="44.41538916914696" lon="7.8033139774625875"><ele>403.0</ele><time>2026-04-10T12:24:44Z</time></trkpt><trkpt lat="44.41526635421541" lon="7.803100140593964"><ele>402.0</ele><time>2026-04-10T12:24:45Z</time></trkpt><trkpt lat="44.4151466143063" lon="7.802881574798781"><ele>402.33333333333337</ele><time>2026-04-10T12:24:46Z</time></trkpt><trkpt lat="44.415023178081285" lon="7.802654866172015"><ele>402.6666666666667</ele><time>2026-04-10T12:24:47Z</time></trkpt><trkpt lat="44.41490735885937" lon="7.8024426479701265"><ele>403.0</ele><time>2026-04-10T12:24:48Z</time></trkpt><trkpt lat="44.414798320244444" lon="7.802237115752132"><ele>403.0</ele><time>2026-04-10T12:24:49Z</time></trkpt><trkpt lat="44.414689027774955" lon="7.8020404371258225"><ele>403.0</ele><time>2026-04-10T12:24:50Z</time></trkpt><trkpt lat="44.41458512528453" lon="7.801854518340991"><ele>403.0</ele><time>2026-04-10T12:24:51.011Z</time></trkpt><trkpt lat="44.41448720504093" lon="7.801681486566351"><ele>403.5</ele><time>2026-04-10T12:24:52.015Z</time></trkpt><trkpt lat="44.41439345643483" lon="7.801527880374248"><ele>404.0</ele><time>2026-04-10T12:24:53.011Z</time></trkpt><trkpt lat="44.41429315857346" lon="7.801400913206368"><ele>404.5</ele><time>2026-04-10T12:24:54Z</time></trkpt><trkpt lat="44.414174441432785" lon="7.801260391219205"><ele>405.0</ele><time>2026-04-10T12:24:55Z</time></trkpt><trkpt lat="44.414042735408806" lon="7.8011555931666665"><ele>405.0</ele><time>2026-04-10T12:24:56Z</time></trkpt><trkpt lat="44.41390368756471" lon="7.801064224270932"><ele>405.0</ele><time>2026-04-10T12:24:57Z</time></trkpt><trkpt lat="44.413750581758954" lon="7.80100450104984"><ele>405.0</ele><time>2026-04-10T12:24:58Z</time></trkpt><trkpt lat="44.41358744636886" lon="7.800976512887741"><ele>405.66666666666663</ele><time>2026-04-10T12:24:59Z</time></trkpt><trkpt lat="44.41342964083827" lon="7.800991864597608"><ele>406.3333333333333</ele><time>2026-04-10T12:25:00Z</time></trkpt><trkpt lat="44.41327309827046" lon="7.801037042925612"><ele>407.0</ele><time>2026-04-10T12:25:01Z</time></trkpt><trkpt lat="44.413120132288185" lon="7.80111316326638"><ele>407.3333333333333</ele><time>2026-04-10T12:25:02Z</time></trkpt><trkpt lat="44.41296451927447" lon="7.80119188384227"><ele>407.66666666666663</ele><time>2026-04-10T12:25:03Z</time></trkpt><trkpt lat="44.41281278609465" lon="7.801302516886933"><ele>408.0</ele><time>2026-04-10T12:25:04Z</time></trkpt><trkpt lat="44.41265506790707" lon="7.801407589212799"><ele>408.0</ele><time>2026-04-10T12:25:05Z</time></trkpt><trkpt lat="44.412500524403214" lon="7.801529798197223"><ele>408.0</ele><time>2026-04-10T12:25:06Z</time></trkpt><trkpt lat="44.4123494148277" lon="7.801663660434382"><ele>408.0</ele><time>2026-04-10T12:25:07Z</time></trkpt><trkpt lat="44.41219014693375" lon="7.801796294793139"><ele>407.33333333333337</ele><time>2026-04-10T12:25:08Z</time></trkpt><trkpt lat="44.41202408767494" lon="7.801936177389043"><ele>406.6666666666667</ele><time>2026-04-10T12:25:09Z</time></trkpt><trkpt lat="44.41186261457253" lon="7.802071554974602"><ele>406.0</ele><time>2026-04-10T12:25:10Z</time></trkpt><trkpt lat="44.41170397009493" lon="7.8022008465308215"><ele>406.0</ele><time>2026-04-10T12:25:11Z</time></trkpt><trkpt lat="44.41154909550165" lon="7.802315501172801"><ele>406.0</ele><time>2026-04-10T12:25:12Z</time></trkpt><trkpt lat="44.41139894336385" lon="7.802428163458716"><ele>406.0</ele><time>2026-04-10T12:25:13Z</time></trkpt><trkpt lat="44.41125047822425" lon="7.802547159511001"><ele>406.0</ele><time>2026-04-10T12:25:14Z</time></trkpt><trkpt lat="44.41111001339224" lon="7.802659932797991"><ele>406.0</ele><time>2026-04-10T12:25:15Z</time></trkpt><trkpt lat="44.41097567136858" lon="7.802767014479789"><ele>406.0</ele><time>2026-04-10T12:25:16Z</time></trkpt><trkpt lat="44.410841343748956" lon="7.802868888031903"><ele>406.0</ele><time>2026-04-10T12:25:17Z</time></trkpt><trkpt lat="44.41070255304359" lon="7.802967682025325"><ele>406.0</ele><time>2026-04-10T12:25:18Z</time></trkpt><trkpt lat="44.41056661953965" lon="7.803061020258899"><ele>406.0</ele><time>2026-04-10T12:25:19Z</time></trkpt><trkpt lat="44.41043150060823" lon="7.803147394822167"><ele>406.33333333333337</ele><time>2026-04-10T12:25:20Z</time></trkpt><trkpt lat="44.41029587978223" lon="7.803235495883793"><ele>406.66666666666663</ele><time>2026-04-10T12:25:21Z</time></trkpt><trkpt lat="44.41015920019834" lon="7.8033247028210235"><ele>407.0</ele><time>2026-04-10T12:25:22Z</time></trkpt><trkpt lat="44.41002015715245" lon="7.803405679565165"><ele>407.0</ele><time>2026-04-10T12:25:23Z</time></trkpt><trkpt lat="44.40988698860001" lon="7.803470858181217"><ele>407.0</ele><time>2026-04-10T12:25:24Z</time></trkpt><trkpt lat="44.40976680803734" lon="7.803513453713969"><ele>407.0</ele><time>2026-04-10T12:25:25Z</time></trkpt><trkpt lat="44.40966989604537" lon="7.803546168774156"><ele>407.0</ele><time>2026-04-10T12:25:25.999Z</time></trkpt><trkpt lat="44.40958048964704" lon="7.803565717626278"><ele>407.20000000000005</ele><time>2026-04-10T12:25:26.999Z</time></trkpt><trkpt lat="44.409495876988814" lon="7.80357420246429"><ele>407.4</ele><time>2026-04-10T12:25:27.999Z</time></trkpt><trkpt lat="44.40940772629427" lon="7.803565164386229"><ele>407.6</ele><time>2026-04-10T12:25:28.999Z</time></trkpt><trkpt lat="44.40932584003453" lon="7.803526613049553"><ele>407.79999999999995</ele><time>2026-04-10T12:25:29.999Z</time></trkpt><trkpt lat="44.409245289783556" lon="7.803463311623547"><ele>408.0</ele><time>2026-04-10T12:25:30.999Z</time></trkpt><trkpt lat="44.40916063185795" lon="7.803393647861936"><ele>408.0</ele><time>2026-04-10T12:25:31.999Z</time></trkpt><trkpt lat="44.40907141103087" lon="7.803335108055253"><ele>408.0</ele><time>2026-04-10T12:25:32.999Z</time></trkpt><trkpt lat="44.408980814715825" lon="7.803312336560832"><ele>408.0</ele><time>2026-04-10T12:25:33.999Z</time></trkpt><trkpt lat="44.408890960025715" lon="7.803318750552824"><ele>408.0</ele><time>2026-04-10T12:25:34.999Z</time></trkpt><trkpt lat="44.40880058516065" lon="7.803360196138839"><ele>408.0</ele><time>2026-04-10T12:25:35.999Z</time></trkpt><trkpt lat="44.40871787830963" lon="7.80344717619593"><ele>408.5</ele><time>2026-04-10T12:25:36.999Z</time></trkpt><trkpt lat="44.408628031953995" lon="7.803558044700324"><ele>409.0</ele><time>2026-04-10T12:25:37.999Z</time></trkpt><trkpt lat="44.40853829486093" lon="7.80366870777"><ele>409.5</ele><time>2026-04-10T12:25:38.999Z</time></trkpt><trkpt lat="44.40844009768459" lon="7.803751823386753"><ele>410.0</ele><time>2026-04-10T12:25:39.999Z</time></trkpt><trkpt lat="44.40832149251871" lon="7.803815871246247"><ele>410.0</ele><time>2026-04-10T12:25:40.999Z</time></trkpt><trkpt lat="44.40818767630363" lon="7.803845704986237"><ele>410.0</ele><time>2026-04-10T12:25:41.999Z</time></trkpt><trkpt lat="44.40804111718698" lon="7.803863050728672"><ele>410.0</ele><time>2026-04-10T12:25:42.999Z</time></trkpt><trkpt lat="44.407895643980034" lon="7.803877263628924"><ele>410.0</ele><time>2026-04-10T12:25:43.999Z</time></trkpt><trkpt lat="44.407743412349944" lon="7.803894790982643"><ele>410.0</ele><time>2026-04-10T12:25:44.999Z</time></trkpt><trkpt lat="44.40758739151082" lon="7.803904655329626"><ele>410.0</ele><time>2026-04-10T12:25:45.999Z</time></trkpt><trkpt lat="44.40742768289933" lon="7.80391250884207"><ele>410.0</ele><time>2026-04-10T12:25:46.999Z</time></trkpt><trkpt lat="44.407256773860496" lon="7.803905650619687"><ele>411.3333333333333</ele><time>2026-04-10T12:25:47.999Z</time></trkpt><trkpt lat="44.40708559424155" lon="7.80389335678496"><ele>412.66666666666663</ele><time>2026-04-10T12:25:48.999Z</time></trkpt><trkpt lat="44.4069031764207" lon="7.803871132969093"><ele>414.0</ele><time>2026-04-10T12:25:49.999Z</time></trkpt><trkpt lat="44.40672392536724" lon="7.80383422348885"><ele>414.0</ele><time>2026-04-10T12:25:50.999Z</time></trkpt><trkpt lat="44.40654758245033" lon="7.8037863242745615"><ele>414.0</ele><time>2026-04-10T12:25:51.999Z</time></trkpt><trkpt lat="44.4063641579228" lon="7.803742902764338"><ele>414.0</ele><time>2026-04-10T12:25:52.999Z</time></trkpt><trkpt lat="44.40618490138561" lon="7.803685488408436"><ele>414.33333333333337</ele><time>2026-04-10T12:25:53.999Z</time></trkpt><trkpt lat="44.406002042658244" lon="7.80361752289277"><ele>414.6666666666667</ele><time>2026-04-10T12:25:54.999Z</time></trkpt><trkpt lat="44.40581824397762" lon="7.803532110918048"><ele>415.0</ele><time>2026-04-10T12:25:55.999Z</time></trkpt><trkpt lat="44.40565167171899" lon="7.803441649746272"><ele>415.0</ele><time>2026-04-10T12:25:56.999Z</time></trkpt><trkpt lat="44.40547105697591" lon="7.803334257585851"><ele>415.0</ele><time>2026-04-10T12:25:57.999Z</time></trkpt><trkpt lat="44.405293330506446" lon="7.80321722590231"><ele>415.0</ele><time>2026-04-10T12:25:58.999Z</time></trkpt><trkpt lat="44.40511587548955" lon="7.80308678805471"><ele>415.0</ele><time>2026-04-10T12:25:59.999Z</time></trkpt><trkpt lat="44.40493795115782" lon="7.8029465377855365"><ele>415.0</ele><time>2026-04-10T12:26:00.999Z</time></trkpt><trkpt lat="44.40476950222802" lon="7.802793911827526"><ele>415.0</ele><time>2026-04-10T12:26:01.999Z</time></trkpt><trkpt lat="44.40459580472209" lon="7.802629412922823"><ele>414.0</ele><time>2026-04-10T12:26:02.999Z</time></trkpt><trkpt lat="44.404424263793295" lon="7.802454236075137"><ele>413.0</ele><time>2026-04-10T12:26:03.999Z</time></trkpt><trkpt lat="44.40425018871586" lon="7.802273660613129"><ele>412.0</ele><time>2026-04-10T12:26:04.999Z</time></trkpt><trkpt lat="44.40407963577068" lon="7.802082844496461"><ele>412.0</ele><time>2026-04-10T12:26:05.999Z</time></trkpt><trkpt lat="44.4039130234923" lon="7.801896833538234"><ele>412.0</ele><time>2026-04-10T12:26:06.999Z</time></trkpt><trkpt lat="44.40373822767362" lon="7.801702923361096"><ele>412.0</ele><time>2026-04-10T12:26:07.999Z</time></trkpt><trkpt lat="44.403570366570555" lon="7.80151843385802"><ele>412.6666666666667</ele><time>2026-04-10T12:26:08.999Z</time></trkpt><trkpt lat="44.40338746200471" lon="7.801327838970867"><ele>413.33333333333337</ele><time>2026-04-10T12:26:09.999Z</time></trkpt><trkpt lat="44.40321486634964" lon="7.801139483206214"><ele>414.0</ele><time>2026-04-10T12:26:10.999Z</time></trkpt><trkpt lat="44.40303673542149" lon="7.800949454507677"><ele>414.66666666666663</ele><time>2026-04-10T12:26:11.999Z</time></trkpt><trkpt lat="44.40286862211796" lon="7.800752536464827"><ele>415.3333333333333</ele><time>2026-04-10T12:26:12.999Z</time></trkpt><trkpt lat="44.40269945630335" lon="7.800561164173852"><ele>416.0</ele><time>2026-04-10T12:26:13.999Z</time></trkpt><trkpt lat="44.402528412675395" lon="7.800367656967068"><ele>416.0</ele><time>2026-04-10T12:26:14.999Z</time></trkpt><trkpt lat="44.40236110608169" lon="7.800187756091464"><ele>416.0</ele><time>2026-04-10T12:26:15.999Z</time></trkpt><trkpt lat="44.402182706406585" lon="7.799984479994773"><ele>416.0</ele><time>2026-04-10T12:26:16.999Z</time></trkpt><trkpt lat="44.40200946848006" lon="7.799789842638372"><ele>417.0</ele><time>2026-04-10T12:26:17.999Z</time></trkpt><trkpt lat="44.40184114816293" lon="7.799601962378425"><ele>418.0</ele><time>2026-04-10T12:26:18.999Z</time></trkpt><trkpt lat="44.40166795564205" lon="7.799409118563319"><ele>419.0</ele><time>2026-04-10T12:26:19.999Z</time></trkpt><trkpt lat="44.401499240963425" lon="7.799224018524286"><ele>419.0</ele><time>2026-04-10T12:26:20.999Z</time></trkpt><trkpt lat="44.40132933211564" lon="7.79904045781725"><ele>419.0</ele><time>2026-04-10T12:26:21.999Z</time></trkpt><trkpt lat="44.401158520375155" lon="7.798850676238281"><ele>419.0</ele><time>2026-04-10T12:26:22.999Z</time></trkpt><trkpt lat="44.40099197604072" lon="7.79865831977758"><ele>419.3333333333333</ele><time>2026-04-10T12:26:23.999Z</time></trkpt><trkpt lat="44.400819682981464" lon="7.798473350406032"><ele>419.66666666666663</ele><time>2026-04-10T12:26:24.999Z</time></trkpt><trkpt lat="44.40064183354198" lon="7.798303674436769"><ele>420.0</ele><time>2026-04-10T12:26:25.999Z</time></trkpt><trkpt lat="44.40046184514204" lon="7.798150825391536"><ele>420.66666666666663</ele><time>2026-04-10T12:26:26.999Z</time></trkpt><trkpt lat="44.40027859960903" lon="7.798008174891021"><ele>421.3333333333333</ele><time>2026-04-10T12:26:27.999Z</time></trkpt><trkpt lat="44.4000893907116" lon="7.797870141495202"><ele>422.0</ele><time>2026-04-10T12:26:28.999Z</time></trkpt><trkpt lat="44.39989493407834" lon="7.797747352995015"><ele>422.0</ele><time>2026-04-10T12:26:29.999Z</time></trkpt><trkpt lat="44.39970770733372" lon="7.79761206461869"><ele>422.0</ele><time>2026-04-10T12:26:30.999Z</time></trkpt><trkpt lat="44.39951184421858" lon="7.797503063801009"><ele>422.0</ele><time>2026-04-10T12:26:31.999Z</time></trkpt><trkpt lat="44.39931407498198" lon="7.797403349133513"><ele>422.0</ele><time>2026-04-10T12:26:32.998Z</time></trkpt><trkpt lat="44.399114507792746" lon="7.7973108203807975"><ele>422.0</ele><time>2026-04-10T12:26:33.998Z</time></trkpt><trkpt lat="44.39890559898006" lon="7.797253293708445"><ele>422.0</ele><time>2026-04-10T12:26:34.998Z</time></trkpt><trkpt lat="44.39870175453303" lon="7.797184064641296"><ele>422.0</ele><time>2026-04-10T12:26:35.998Z</time></trkpt><trkpt lat="44.39849264387087" lon="7.797121701143257"><ele>422.0</ele><time>2026-04-10T12:26:36.998Z</time></trkpt><trkpt lat="44.39828110736778" lon="7.7970747804353016"><ele>422.0</ele><time>2026-04-10T12:26:37.998Z</time></trkpt><trkpt lat="44.39808151113726" lon="7.797036901481544"><ele>422.3333333333333</ele><time>2026-04-10T12:26:38.998Z</time></trkpt><trkpt lat="44.39787360068081" lon="7.797007501302088"><ele>422.66666666666663</ele><time>2026-04-10T12:26:39.998Z</time></trkpt><trkpt lat="44.39766361191073" lon="7.79699501843901"><ele>423.0</ele><time>2026-04-10T12:26:40.998Z</time></trkpt><trkpt lat="44.3974581945111" lon="7.79696523503854"><ele>423.0</ele><time>2026-04-10T12:26:41.998Z</time></trkpt><trkpt lat="44.39725869846627" lon="7.796955569072083"><ele>423.0</ele><time>2026-04-10T12:26:42.998Z</time></trkpt><trkpt lat="44.397061092624945" lon="7.796946183443491"><ele>423.0</ele><time>2026-04-10T12:26:43.998Z</time></trkpt><trkpt lat="44.39687808802054" lon="7.796937914506331"><ele>424.0</ele><time>2026-04-10T12:26:44.998Z</time></trkpt><trkpt lat="44.39667997825529" lon="7.796928963061272"><ele>425.0</ele><time>2026-04-10T12:26:46Z</time></trkpt><trkpt lat="44.396496346309966" lon="7.7969206657783765"><ele>426.0</ele><time>2026-04-10T12:26:47Z</time></trkpt><trkpt lat="44.39630663460032" lon="7.796912093786697"><ele>426.33333333333337</ele><time>2026-04-10T12:26:48Z</time></trkpt><trkpt lat="44.39612349878719" lon="7.7969038189229165"><ele>426.6666666666667</ele><time>2026-04-10T12:26:49Z</time></trkpt><trkpt lat="44.395940253620964" lon="7.79689449022937"><ele>427.0</ele><time>2026-04-10T12:26:50Z</time></trkpt><trkpt lat="44.39577223271956" lon="7.79690401093917"><ele>427.0</ele><time>2026-04-10T12:26:51Z</time></trkpt><trkpt lat="44.39560041407062" lon="7.796893500682804"><ele>427.0</ele><time>2026-04-10T12:26:52Z</time></trkpt><trkpt lat="44.395431742704325" lon="7.796874503913252"><ele>427.0</ele><time>2026-04-10T12:26:53Z</time></trkpt><trkpt lat="44.395262701716995" lon="7.79686607486098"><ele>427.33333333333337</ele><time>2026-04-10T12:26:54Z</time></trkpt><trkpt lat="44.39509202026367" lon="7.796858437040379"><ele>427.66666666666663</ele><time>2026-04-10T12:26:55Z</time></trkpt><trkpt lat="44.39492329862556" lon="7.796850809698476"><ele>428.0</ele><time>2026-04-10T12:26:56Z</time></trkpt><trkpt lat="44.394756732253825" lon="7.796845405744163"><ele>429.0</ele><time>2026-04-10T12:26:57Z</time></trkpt><trkpt lat="44.39458478822893" lon="7.79683755896599"><ele>430.0</ele><time>2026-04-10T12:26:58Z</time></trkpt><trkpt lat="44.394420254838444" lon="7.796826217494139"><ele>431.0</ele><time>2026-04-10T12:26:59Z</time></trkpt><trkpt lat="44.3942466267122" lon="7.796816854348679"><ele>431.66666666666663</ele><time>2026-04-10T12:27:00Z</time></trkpt><trkpt lat="44.39406711239706" lon="7.796805508073791"><ele>432.33333333333337</ele><time>2026-04-10T12:27:01Z</time></trkpt><trkpt lat="44.39388485260623" lon="7.796800643934329"><ele>433.0</ele><time>2026-04-10T12:27:02Z</time></trkpt><trkpt lat="44.393698244899355" lon="7.796796918764486"><ele>433.33333333333337</ele><time>2026-04-10T12:27:03Z</time></trkpt><trkpt lat="44.39350590590012" lon="7.796783507892819"><ele>433.66666666666663</ele><time>2026-04-10T12:27:04Z</time></trkpt><trkpt lat="44.39331507464952" lon="7.796758105330799"><ele>434.0</ele><time>2026-04-10T12:27:05Z</time></trkpt><trkpt lat="44.39314406283886" lon="7.796728656225363"><ele>435.3333333333333</ele><time>2026-04-10T12:27:06Z</time></trkpt><trkpt lat="44.39297073470463" lon="7.796692161828256"><ele>436.66666666666663</ele><time>2026-04-10T12:27:07Z</time></trkpt><trkpt lat="44.39280175578035" lon="7.796658000036204"><ele>438.0</ele><time>2026-04-10T12:27:08Z</time></trkpt><trkpt lat="44.39263274988799" lon="7.79661943024719"><ele>438.0</ele><time>2026-04-10T12:27:09Z</time></trkpt><trkpt lat="44.392459152511954" lon="7.796579717758958"><ele>438.0</ele><time>2026-04-10T12:27:10Z</time></trkpt><trkpt lat="44.39227903846305" lon="7.7965335098297315"><ele>438.0</ele><time>2026-04-10T12:27:11Z</time></trkpt><trkpt lat="44.39209967028532" lon="7.796486229264483"><ele>438.0</ele><time>2026-04-10T12:27:12Z</time></trkpt><trkpt lat="44.391925169560494" lon="7.796435019495959"><ele>438.0</ele><time>2026-04-10T12:27:13Z</time></trkpt><trkpt lat="44.39174849824515" lon="7.796381833418648"><ele>438.0</ele><time>2026-04-10T12:27:14Z</time></trkpt><trkpt lat="44.391568573102354" lon="7.796316400522791"><ele>438.0</ele><time>2026-04-10T12:27:15Z</time></trkpt><trkpt lat="44.39138060957343" lon="7.796260374719232"><ele>438.0</ele><time>2026-04-10T12:27:16Z</time></trkpt><trkpt lat="44.39118545008745" lon="7.796185128754409"><ele>438.0</ele><time>2026-04-10T12:27:17Z</time></trkpt><trkpt lat="44.390988931296235" lon="7.796097357924515"><ele>438.33333333333337</ele><time>2026-04-10T12:27:18Z</time></trkpt><trkpt lat="44.39080295727555" lon="7.7959980901006904"><ele>438.6666666666667</ele><time>2026-04-10T12:27:19Z</time></trkpt><trkpt lat="44.390618553639555" lon="7.795900103151857"><ele>439.0</ele><time>2026-04-10T12:27:20Z</time></trkpt><trkpt lat="44.39043350275865" lon="7.795809630398296"><ele>439.0</ele><time>2026-04-10T12:27:21Z</time></trkpt><trkpt lat="44.39025651879432" lon="7.795707558018962"><ele>439.0</ele><time>2026-04-10T12:27:22Z</time></trkpt><trkpt lat="44.39007768845268" lon="7.795610842477761"><ele>439.0</ele><time>2026-04-10T12:27:23Z</time></trkpt><trkpt lat="44.38990799901623" lon="7.795505516664286"><ele>439.0</ele><time>2026-04-10T12:27:24Z</time></trkpt><trkpt lat="44.38973417172776" lon="7.795392681778008"><ele>439.0</ele><time>2026-04-10T12:27:25Z</time></trkpt><trkpt lat="44.38956657631915" lon="7.795272739885489"><ele>439.0</ele><time>2026-04-10T12:27:26Z</time></trkpt><trkpt lat="44.38939991441635" lon="7.7951650257524925"><ele>440.33333333333337</ele><time>2026-04-10T12:27:27Z</time></trkpt><trkpt lat="44.389226814796224" lon="7.79505899608173"><ele>441.66666666666663</ele><time>2026-04-10T12:27:28Z</time></trkpt><trkpt lat="44.38904622028468" lon="7.794936425258269"><ele>443.0</ele><time>2026-04-10T12:27:29Z</time></trkpt><trkpt lat="44.3888671903493" lon="7.794803823998858"><ele>443.3333333333333</ele><time>2026-04-10T12:27:29.999Z</time></trkpt><trkpt lat="44.38868930218767" lon="7.794656185489015"><ele>443.66666666666663</ele><time>2026-04-10T12:27:30.999Z</time></trkpt><trkpt lat="44.38850952066918" lon="7.794512653388742"><ele>444.0</ele><time>2026-04-10T12:27:31.999Z</time></trkpt><trkpt lat="44.3883282773783" lon="7.794372481737781"><ele>445.0</ele><time>2026-04-10T12:27:32.999Z</time></trkpt><trkpt lat="44.38814381050698" lon="7.794238388835084"><ele>446.0</ele><time>2026-04-10T12:27:33.999Z</time></trkpt><trkpt lat="44.38795025156796" lon="7.7941060605805745"><ele>447.0</ele><time>2026-04-10T12:27:34.999Z</time></trkpt><trkpt lat="44.387748384737506" lon="7.793981135644581"><ele>447.0</ele><time>2026-04-10T12:27:35.999Z</time></trkpt><trkpt lat="44.38754015977485" lon="7.7938570125970035"><ele>447.0</ele><time>2026-04-10T12:27:36.999Z</time></trkpt><trkpt lat="44.38733020548263" lon="7.7937441851654"><ele>447.5</ele><time>2026-04-10T12:27:37.999Z</time></trkpt><trkpt lat="44.38711908170887" lon="7.7936371099819794"><ele>448.0</ele><time>2026-04-10T12:27:38.999Z</time></trkpt><trkpt lat="44.386901220567566" lon="7.793530229082422"><ele>449.0</ele><time>2026-04-10T12:27:39.999Z</time></trkpt><trkpt lat="44.38667565186148" lon="7.793426209062583"><ele>450.0</ele><time>2026-04-10T12:27:40.999Z</time></trkpt><trkpt lat="44.38644881644077" lon="7.7933369050837245"><ele>450.5</ele><time>2026-04-10T12:27:41.999Z</time></trkpt><trkpt lat="44.38622245189564" lon="7.7932567591442705"><ele>451.0</ele><time>2026-04-10T12:27:42.999Z</time></trkpt><trkpt lat="44.385989445435385" lon="7.7931780783510245"><ele>451.0</ele><time>2026-04-10T12:27:43.999Z</time></trkpt><trkpt lat="44.385752085411745" lon="7.793101979271282"><ele>451.0</ele><time>2026-04-10T12:27:44.999Z</time></trkpt><trkpt lat="44.385515265006376" lon="7.7930304888222"><ele>452.0</ele><time>2026-04-10T12:27:45.999Z</time></trkpt><trkpt lat="44.38528463554064" lon="7.792954720930285"><ele>453.0</ele><time>2026-04-10T12:27:46.999Z</time></trkpt><trkpt lat="44.385045416391186" lon="7.792876457362617"><ele>453.0</ele><time>2026-04-10T12:27:47.999Z</time></trkpt><trkpt lat="44.38481116400955" lon="7.792807895368179"><ele>453.0</ele><time>2026-04-10T12:27:48.999Z</time></trkpt><trkpt lat="44.38457323909118" lon="7.792740270376476"><ele>453.0</ele><time>2026-04-10T12:27:49.999Z</time></trkpt><trkpt lat="44.38433286409816" lon="7.792669570832137"><ele>453.0</ele><time>2026-04-10T12:27:50.999Z</time></trkpt><trkpt lat="44.38410473025462" lon="7.792599997899485"><ele>453.0</ele><time>2026-04-10T12:27:51.999Z</time></trkpt><trkpt lat="44.38388227783236" lon="7.792529925584832"><ele>453.0</ele><time>2026-04-10T12:27:52.999Z</time></trkpt><trkpt lat="44.383653064305115" lon="7.792467310684972"><ele>454.0</ele><time>2026-04-10T12:27:53.999Z</time></trkpt><trkpt lat="44.383428969798736" lon="7.792400584710268"><ele>455.0</ele><time>2026-04-10T12:27:54.999Z</time></trkpt><trkpt lat="44.38320529409508" lon="7.792342393442864"><ele>456.0</ele><time>2026-04-10T12:27:55.999Z</time></trkpt><trkpt lat="44.38298125503688" lon="7.7922780375498775"><ele>457.0</ele><time>2026-04-10T12:27:56.999Z</time></trkpt><trkpt lat="44.382745131208345" lon="7.7922183851965245"><ele>457.0</ele><time>2026-04-10T12:27:57.999Z</time></trkpt><trkpt lat="44.38251100312241" lon="7.792146653686104"><ele>457.0</ele><time>2026-04-10T12:27:58.999Z</time></trkpt><trkpt lat="44.38227168717678" lon="7.792071560979011"><ele>457.5</ele><time>2026-04-10T12:27:59.999Z</time></trkpt><trkpt lat="44.382031944469894" lon="7.791995480200765"><ele>458.0</ele><time>2026-04-10T12:28:00.999Z</time></trkpt><trkpt lat="44.38178282416444" lon="7.791916151676556"><ele>458.5</ele><time>2026-04-10T12:28:01.999Z</time></trkpt><trkpt lat="44.381546547887986" lon="7.791833986498317"><ele>459.0</ele><time>2026-04-10T12:28:02.999Z</time></trkpt><trkpt lat="44.38130177240755" lon="7.791756201855574"><ele>460.0</ele><time>2026-04-10T12:28:03.999Z</time></trkpt><trkpt lat="44.381060190599186" lon="7.7916858232018775"><ele>461.0</ele><time>2026-04-10T12:28:04.999Z</time></trkpt><trkpt lat="44.38080838824681" lon="7.791611103990099"><ele>461.0</ele><time>2026-04-10T12:28:05.999Z</time></trkpt><trkpt lat="44.38055717966974" lon="7.791543478844924"><ele>461.0</ele><time>2026-04-10T12:28:06.999Z</time></trkpt><trkpt lat="44.38030728420468" lon="7.79147040117293"><ele>461.0</ele><time>2026-04-10T12:28:07.999Z</time></trkpt><trkpt lat="44.38005670024497" lon="7.7913993521307185"><ele>461.0</ele><time>2026-04-10T12:28:08.999Z</time></trkpt><trkpt lat="44.379804257986436" lon="7.79132065216124"><ele>461.0</ele><time>2026-04-10T12:28:09.999Z</time></trkpt><trkpt lat="44.37956087749946" lon="7.791240667991312"><ele>461.0</ele><time>2026-04-10T12:28:10.999Z</time></trkpt><trkpt lat="44.379312494508035" lon="7.791163457156502"><ele>461.0</ele><time>2026-04-10T12:28:11.999Z</time></trkpt><trkpt lat="44.379064259550915" lon="7.791087240158929"><ele>461.0</ele><time>2026-04-10T12:28:12.999Z</time></trkpt><trkpt lat="44.37882305554492" lon="7.791012458056739"><ele>462.5</ele><time>2026-04-10T12:28:13.999Z</time></trkpt><trkpt lat="44.37858212684592" lon="7.790944737911693"><ele>464.0</ele><time>2026-04-10T12:28:14.999Z</time></trkpt><trkpt lat="44.37833842237243" lon="7.790872460304672"><ele>464.0</ele><time>2026-04-10T12:28:15.999Z</time></trkpt><trkpt lat="44.37809583336401" lon="7.790808281418643"><ele>464.0</ele><time>2026-04-10T12:28:16.999Z</time></trkpt><trkpt lat="44.377853247789275" lon="7.790736936633476"><ele>463.5</ele><time>2026-04-10T12:28:17.999Z</time></trkpt><trkpt lat="44.377616264589165" lon="7.790660688987002"><ele>463.0</ele><time>2026-04-10T12:28:18.999Z</time></trkpt><trkpt lat="44.3773777431154" lon="7.790585390196569"><ele>464.0</ele><time>2026-04-10T12:28:19.999Z</time></trkpt><trkpt lat="44.377138304152425" lon="7.79052053906985"><ele>465.0</ele><time>2026-04-10T12:28:20.999Z</time></trkpt><trkpt lat="44.376898234091776" lon="7.790458723440484"><ele>465.0</ele><time>2026-04-10T12:28:21.999Z</time></trkpt><trkpt lat="44.37665954139517" lon="7.790409481588736"><ele>465.0</ele><time>2026-04-10T12:28:22.999Z</time></trkpt><trkpt lat="44.37641864547037" lon="7.790375741479204"><ele>465.0</ele><time>2026-04-10T12:28:23.999Z</time></trkpt><trkpt lat="44.376176516744316" lon="7.790357412071628"><ele>465.0</ele><time>2026-04-10T12:28:24.999Z</time></trkpt><trkpt lat="44.375934382132634" lon="7.79034994061656"><ele>465.0</ele><time>2026-04-10T12:28:25.999Z</time></trkpt><trkpt lat="44.37568921752401" lon="7.790352103228902"><ele>465.0</ele><time>2026-04-10T12:28:26.999Z</time></trkpt><trkpt lat="44.37544737460572" lon="7.7903699201960155"><ele>466.0</ele><time>2026-04-10T12:28:27.999Z</time></trkpt><trkpt lat="44.375203251713906" lon="7.790391678739727"><ele>467.0</ele><time>2026-04-10T12:28:28.999Z</time></trkpt><trkpt lat="44.37496115214578" lon="7.790419349201155"><ele>467.0</ele><time>2026-04-10T12:28:29.999Z</time></trkpt><trkpt lat="44.374715918957286" lon="7.790462380241147"><ele>467.0</ele><time>2026-04-10T12:28:30.999Z</time></trkpt><trkpt lat="44.37447856274399" lon="7.7905252750781075"><ele>467.5</ele><time>2026-04-10T12:28:31.999Z</time></trkpt><trkpt lat="44.374242755117244" lon="7.7905949082980195"><ele>468.0</ele><time>2026-04-10T12:28:32.999Z</time></trkpt><trkpt lat="44.374000351430354" lon="7.790662835663115"><ele>467.5</ele><time>2026-04-10T12:28:33.999Z</time></trkpt><trkpt lat="44.37376585203335" lon="7.790758227257028"><ele>467.0</ele><time>2026-04-10T12:28:34.999Z</time></trkpt><trkpt lat="44.37353478246789" lon="7.790856826606321"><ele>467.0</ele><time>2026-04-10T12:28:35.999Z</time></trkpt><trkpt lat="44.37330613224164" lon="7.7909677363141965"><ele>467.0</ele><time>2026-04-10T12:28:36.999Z</time></trkpt><trkpt lat="44.37307955536743" lon="7.791087431110228"><ele>467.5</ele><time>2026-04-10T12:28:37.998Z</time></trkpt><trkpt lat="44.37286039017711" lon="7.791221579866722"><ele>468.0</ele><time>2026-04-10T12:28:38.998Z</time></trkpt><trkpt lat="44.3726424196294" lon="7.791360779092269"><ele>468.0</ele><time>2026-04-10T12:28:39.998Z</time></trkpt><trkpt lat="44.37243083134923" lon="7.791511293063622"><ele>468.0</ele><time>2026-04-10T12:28:40.998Z</time></trkpt><trkpt lat="44.3722213154624" lon="7.7916756565525365"><ele>467.0</ele><time>2026-04-10T12:28:41.998Z</time></trkpt><trkpt lat="44.37202100691626" lon="7.791840987569576"><ele>466.0</ele><time>2026-04-10T12:28:42.998Z</time></trkpt><trkpt lat="44.37182249186093" lon="7.792016229810526"><ele>466.0</ele><time>2026-04-10T12:28:43.998Z</time></trkpt><trkpt lat="44.37163033669186" lon="7.792200372743297"><ele>466.0</ele><time>2026-04-10T12:28:44.998Z</time></trkpt><trkpt lat="44.37143921947618" lon="7.792389315128314"><ele>466.5</ele><time>2026-04-10T12:28:45.998Z</time></trkpt><trkpt lat="44.3712532306811" lon="7.792587976778393"><ele>467.0</ele><time>2026-04-10T12:28:46.998Z</time></trkpt><trkpt lat="44.37107814956094" lon="7.792801757386734"><ele>467.0</ele><time>2026-04-10T12:28:47.998Z</time></trkpt><trkpt lat="44.37090237889804" lon="7.793015772681765"><ele>467.0</ele><time>2026-04-10T12:28:48.998Z</time></trkpt><trkpt lat="44.37074036567053" lon="7.7932400485835185"><ele>467.0</ele><time>2026-04-10T12:28:49.998Z</time></trkpt><trkpt lat="44.370575106064166" lon="7.793469903549241"><ele>467.0</ele><time>2026-04-10T12:28:50.998Z</time></trkpt><trkpt lat="44.370392313356824" lon="7.793679495047811"><ele>468.5</ele><time>2026-04-10T12:28:52Z</time></trkpt><trkpt lat="44.37026479788064" lon="7.793967669749117"><ele>470.0</ele><time>2026-04-10T12:28:53Z</time></trkpt><trkpt lat="44.37011610650741" lon="7.794223128952596"><ele>470.5</ele><time>2026-04-10T12:28:54Z</time></trkpt><trkpt lat="44.36996412283515" lon="7.794486013650392"><ele>471.0</ele><time>2026-04-10T12:28:55Z</time></trkpt><trkpt lat="44.369810184606884" lon="7.7947441423014014"><ele>472.0</ele><time>2026-04-10T12:28:56Z</time></trkpt><trkpt lat="44.36965274008152" lon="7.7950061713011"><ele>473.0</ele><time>2026-04-10T12:28:57Z</time></trkpt><trkpt lat="44.369493620751435" lon="7.795270679544915"><ele>473.0</ele><time>2026-04-10T12:28:58Z</time></trkpt><trkpt lat="44.36933764738075" lon="7.795530465126274"><ele>473.0</ele><time>2026-04-10T12:28:59Z</time></trkpt><trkpt lat="44.36918929290745" lon="7.795775628951713"><ele>473.0</ele><time>2026-04-10T12:29:00Z</time></trkpt><trkpt lat="44.36904876517577" lon="7.795999637415272"><ele>473.0</ele><time>2026-04-10T12:29:01Z</time></trkpt><trkpt lat="44.36891984394417" lon="7.796219257859299"><ele>473.0</ele><time>2026-04-10T12:29:02Z</time></trkpt><trkpt lat="44.368795239033524" lon="7.796420254331654"><ele>473.0</ele><time>2026-04-10T12:29:03Z</time></trkpt><trkpt lat="44.36868539127638" lon="7.7966003745598895"><ele>473.0</ele><time>2026-04-10T12:29:04Z</time></trkpt><trkpt lat="44.36857727522622" lon="7.796774204859931"><ele>473.0</ele><time>2026-04-10T12:29:05Z</time></trkpt><trkpt lat="44.368479408034894" lon="7.796945596858294"><ele>472.75</ele><time>2026-04-10T12:29:06Z</time></trkpt><trkpt lat="44.368392300279716" lon="7.797093725211455"><ele>472.5</ele><time>2026-04-10T12:29:07Z</time></trkpt><trkpt lat="44.368314165816514" lon="7.797218775720398"><ele>472.25</ele><time>2026-04-10T12:29:08Z</time></trkpt><trkpt lat="44.368242337129715" lon="7.7973284282413236"><ele>472.0</ele><time>2026-04-10T12:29:09Z</time></trkpt><trkpt lat="44.3681756225966" lon="7.797433944620398"><ele>472.0</ele><time>2026-04-10T12:29:10Z</time></trkpt><trkpt lat="44.36811232162172" lon="7.797531338090164"><ele>472.00000000000006</ele><time>2026-04-10T12:29:11Z</time></trkpt><trkpt lat="44.368059129982555" lon="7.797602154111793"><ele>472.00000000000006</ele><time>2026-04-10T12:29:12Z</time></trkpt><trkpt lat="44.367959747157705" lon="7.797702484184551"><ele>472.0</ele><time>2026-04-10T12:29:14Z</time></trkpt><trkpt lat="44.36789746115112" lon="7.797752404845057"><ele>472.0</ele><time>2026-04-10T12:29:16Z</time></trkpt><trkpt lat="44.367794324510825" lon="7.797761464411803"><ele>472.0</ele><time>2026-04-10T12:29:21Z</time></trkpt><trkpt lat="44.3676721638469" lon="7.797774318602866"><ele>472.00000000000006</ele><time>2026-04-10T12:29:23Z</time></trkpt><trkpt lat="44.36758499692995" lon="7.797774961840786"><ele>472.00000000000006</ele><time>2026-04-10T12:29:24Z</time></trkpt><trkpt lat="44.367489161301386" lon="7.797754178087204"><ele>472.0</ele><time>2026-04-10T12:29:25Z</time></trkpt><trkpt lat="44.3673831068892" lon="7.7977219274641065"><ele>472.0</ele><time>2026-04-10T12:29:26Z</time></trkpt><trkpt lat="44.36727015285024" lon="7.797655125115016"><ele>472.5</ele><time>2026-04-10T12:29:27Z</time></trkpt><trkpt lat="44.36714775060739" lon="7.797571865945104"><ele>473.0</ele><time>2026-04-10T12:29:28Z</time></trkpt><trkpt lat="44.36703694507202" lon="7.797471429056446"><ele>473.5</ele><time>2026-04-10T12:29:29Z</time></trkpt><trkpt lat="44.36691328508651" lon="7.797350681585639"><ele>474.0</ele><time>2026-04-10T12:29:30Z</time></trkpt><trkpt lat="44.36678795208625" lon="7.797233763488709"><ele>474.0</ele><time>2026-04-10T12:29:31Z</time></trkpt><trkpt lat="44.36667290923772" lon="7.797126276132612"><ele>474.0</ele><time>2026-04-10T12:29:32Z</time></trkpt><trkpt lat="44.36657098010002" lon="7.797029405143187"><ele>474.0</ele><time>2026-04-10T12:29:33Z</time></trkpt><trkpt lat="44.36646759349002" lon="7.796928262465283"><ele>474.0</ele><time>2026-04-10T12:29:34Z</time></trkpt><trkpt lat="44.366355260904115" lon="7.7968021441248405"><ele>474.66666666666663</ele><time>2026-04-10T12:29:35Z</time></trkpt><trkpt lat="44.36623041659224" lon="7.796689387036565"><ele>475.3333333333333</ele><time>2026-04-10T12:29:36Z</time></trkpt><trkpt lat="44.36609601169216" lon="7.796576062968732"><ele>476.0</ele><time>2026-04-10T12:29:37Z</time></trkpt><trkpt lat="44.36595556828867" lon="7.796451105234961"><ele>476.0</ele><time>2026-04-10T12:29:37.999Z</time></trkpt><trkpt lat="44.36581984940555" lon="7.796317056211444"><ele>476.0</ele><time>2026-04-10T12:29:38.999Z</time></trkpt><trkpt lat="44.36566787837084" lon="7.796169230501712"><ele>476.0</ele><time>2026-04-10T12:29:39.999Z</time></trkpt><trkpt lat="44.36550917045688" lon="7.796025629812465"><ele>476.3333333333333</ele><time>2026-04-10T12:29:40.999Z</time></trkpt><trkpt lat="44.365355948234516" lon="7.795882764889641"><ele>476.66666666666663</ele><time>2026-04-10T12:29:41.999Z</time></trkpt><trkpt lat="44.36518702140169" lon="7.795729706142523"><ele>477.0</ele><time>2026-04-10T12:29:42.999Z</time></trkpt><trkpt lat="44.36502786025726" lon="7.79557451707454"><ele>477.0</ele><time>2026-04-10T12:29:43.999Z</time></trkpt><trkpt lat="44.364857267111105" lon="7.795415073623484"><ele>477.0</ele><time>2026-04-10T12:29:44.999Z</time></trkpt><trkpt lat="44.36468892935246" lon="7.795249029276041"><ele>477.0</ele><time>2026-04-10T12:29:45.999Z</time></trkpt><trkpt lat="44.36450176332531" lon="7.795076415682168"><ele>476.66666666666663</ele><time>2026-04-10T12:29:46.999Z</time></trkpt><trkpt lat="44.36432353969811" lon="7.794909193182099"><ele>476.3333333333333</ele><time>2026-04-10T12:29:47.999Z</time></trkpt><trkpt lat="44.36413362641317" lon="7.794735013058645"><ele>476.0</ele><time>2026-04-10T12:29:48.999Z</time></trkpt><trkpt lat="44.363946462847515" lon="7.794564644554786"><ele>476.0</ele><time>2026-04-10T12:29:49.999Z</time></trkpt><trkpt lat="44.36374924190516" lon="7.794378477860768"><ele>476.0</ele><time>2026-04-10T12:29:50.999Z</time></trkpt><trkpt lat="44.363562754027456" lon="7.794199312612312"><ele>476.3333333333333</ele><time>2026-04-10T12:29:51.999Z</time></trkpt><trkpt lat="44.36338552998155" lon="7.794030956094144"><ele>476.66666666666663</ele><time>2026-04-10T12:29:52.999Z</time></trkpt><trkpt lat="44.36319921380112" lon="7.793855818092545"><ele>477.0</ele><time>2026-04-10T12:29:53.999Z</time></trkpt><trkpt lat="44.36301788611744" lon="7.7936831229656995"><ele>477.0</ele><time>2026-04-10T12:29:54.999Z</time></trkpt><trkpt lat="44.362828796520574" lon="7.793507031474265"><ele>477.0</ele><time>2026-04-10T12:29:55.999Z</time></trkpt><trkpt lat="44.3626364329826" lon="7.793325140124782"><ele>478.33333333333337</ele><time>2026-04-10T12:29:56.999Z</time></trkpt><trkpt lat="44.36244310221241" lon="7.793154310117919"><ele>479.6666666666667</ele><time>2026-04-10T12:29:57.999Z</time></trkpt><trkpt lat="44.36226229091638" lon="7.792989925047588"><ele>481.0</ele><time>2026-04-10T12:29:58.999Z</time></trkpt><trkpt lat="44.36206576703033" lon="7.792808529589585"><ele>481.5</ele><time>2026-04-10T12:29:59.999Z</time></trkpt><trkpt lat="44.361878648073066" lon="7.792614014709461"><ele>482.0</ele><time>2026-04-10T12:30:00.999Z</time></trkpt><trkpt lat="44.361676709676225" lon="7.792440063487947"><ele>482.0</ele><time>2026-04-10T12:30:01.999Z</time></trkpt><trkpt lat="44.36148620048158" lon="7.792250938706179"><ele>482.0</ele><time>2026-04-10T12:30:02.999Z</time></trkpt><trkpt lat="44.36129191734311" lon="7.792068472432577"><ele>482.0</ele><time>2026-04-10T12:30:03.999Z</time></trkpt><trkpt lat="44.36108818240908" lon="7.791904821018861"><ele>482.0</ele><time>2026-04-10T12:30:04.999Z</time></trkpt><trkpt lat="44.360898576657476" lon="7.791723921920399"><ele>481.5</ele><time>2026-04-10T12:30:05.999Z</time></trkpt><trkpt lat="44.36070756748814" lon="7.791532086445308"><ele>481.0</ele><time>2026-04-10T12:30:06.999Z</time></trkpt><trkpt lat="44.36051582684542" lon="7.791334567722443"><ele>481.5</ele><time>2026-04-10T12:30:07.999Z</time></trkpt><trkpt lat="44.3603197816716" lon="7.791142435430133"><ele>482.0</ele><time>2026-04-10T12:30:08.999Z</time></trkpt><trkpt lat="44.360127933811874" lon="7.790950897411141"><ele>482.0</ele><time>2026-04-10T12:30:09.999Z</time></trkpt><trkpt lat="44.359938356181765" lon="7.790780741936184"><ele>482.0</ele><time>2026-04-10T12:30:10.999Z</time></trkpt><trkpt lat="44.359746237891855" lon="7.790605390989177"><ele>483.5</ele><time>2026-04-10T12:30:11.999Z</time></trkpt><trkpt lat="44.35955939691335" lon="7.790435555456337"><ele>485.0</ele><time>2026-04-10T12:30:12.999Z</time></trkpt><trkpt lat="44.35937025779148" lon="7.790254047047547"><ele>485.5</ele><time>2026-04-10T12:30:13.999Z</time></trkpt><trkpt lat="44.35918168824021" lon="7.790075547872674"><ele>486.0</ele><time>2026-04-10T12:30:14.999Z</time></trkpt><trkpt lat="44.35899382969728" lon="7.7898923549448975"><ele>484.66666666666663</ele><time>2026-04-10T12:30:15.999Z</time></trkpt><trkpt lat="44.35882734619489" lon="7.789740025929746"><ele>483.3333333333333</ele><time>2026-04-10T12:30:16.999Z</time></trkpt><trkpt lat="44.35866542121875" lon="7.7896034587009195"><ele>482.0</ele><time>2026-04-10T12:30:17.999Z</time></trkpt><trkpt lat="44.35850547961582" lon="7.789456866282667"><ele>482.66666666666663</ele><time>2026-04-10T12:30:18.999Z</time></trkpt><trkpt lat="44.3583634343199" lon="7.789324962626339"><ele>483.33333333333337</ele><time>2026-04-10T12:30:19.999Z</time></trkpt><trkpt lat="44.35822374661372" lon="7.789197352118546"><ele>484.0</ele><time>2026-04-10T12:30:20.999Z</time></trkpt><trkpt lat="44.35808956174907" lon="7.789080868637097"><ele>484.0</ele><time>2026-04-10T12:30:21.999Z</time></trkpt><trkpt lat="44.35795896869869" lon="7.788946169429884"><ele>484.0</ele><time>2026-04-10T12:30:22.999Z</time></trkpt><trkpt lat="44.357824605305815" lon="7.7888188518076955"><ele>484.0</ele><time>2026-04-10T12:30:23.999Z</time></trkpt><trkpt lat="44.35770967921806" lon="7.7887081145402774"><ele>484.0</ele><time>2026-04-10T12:30:24.999Z</time></trkpt><trkpt lat="44.357605201680535" lon="7.788612410713501"><ele>484.0</ele><time>2026-04-10T12:30:25.999Z</time></trkpt><trkpt lat="44.357506415536065" lon="7.788520670256105"><ele>484.0</ele><time>2026-04-10T12:30:26.999Z</time></trkpt><trkpt lat="44.35742109691032" lon="7.788430527441856"><ele>484.0</ele><time>2026-04-10T12:30:27.999Z</time></trkpt><trkpt lat="44.35734268470641" lon="7.78834688704758"><ele>484.0</ele><time>2026-04-10T12:30:28.999Z</time></trkpt><trkpt lat="44.3572757531418" lon="7.788269627689149"><ele>484.1666666666667</ele><time>2026-04-10T12:30:29.999Z</time></trkpt><trkpt lat="44.35721523681797" lon="7.788172729790773"><ele>484.33333333333337</ele><time>2026-04-10T12:30:30.999Z</time></trkpt><trkpt lat="44.357163309261885" lon="7.788069131780043"><ele>484.5</ele><time>2026-04-10T12:30:31.999Z</time></trkpt><trkpt lat="44.357119426342415" lon="7.7879818202269435"><ele>484.66666666666663</ele><time>2026-04-10T12:30:32.999Z</time></trkpt><trkpt lat="44.357061993919885" lon="7.787915804588223"><ele>484.8333333333333</ele><time>2026-04-10T12:30:33.999Z</time></trkpt><trkpt lat="44.35698461891164" lon="7.787877266382902"><ele>485.0</ele><time>2026-04-10T12:30:34.999Z</time></trkpt><trkpt lat="44.356902920027984" lon="7.787855555988257"><ele>485.2</ele><time>2026-04-10T12:30:35.999Z</time></trkpt><trkpt lat="44.35681268504046" lon="7.787821110940325"><ele>485.4</ele><time>2026-04-10T12:30:36.999Z</time></trkpt><trkpt lat="44.3567186599782" lon="7.787765719869739"><ele>485.6</ele><time>2026-04-10T12:30:37.999Z</time></trkpt><trkpt lat="44.356617278689704" lon="7.787695393105185"><ele>485.8</ele><time>2026-04-10T12:30:38.999Z</time></trkpt><trkpt lat="44.3565130108688" lon="7.787601975190751"><ele>486.0</ele><time>2026-04-10T12:30:39.999Z</time></trkpt><trkpt lat="44.35640824110799" lon="7.787502976972463"><ele>486.25</ele><time>2026-04-10T12:30:40.999Z</time></trkpt><trkpt lat="44.35629989600421" lon="7.78740509250969"><ele>486.5</ele><time>2026-04-10T12:30:41.999Z</time></trkpt><trkpt lat="44.356177920595925" lon="7.787291724854221"><ele>486.75</ele><time>2026-04-10T12:30:42.999Z</time></trkpt><trkpt lat="44.35606048403092" lon="7.787178633008405"><ele>487.0</ele><time>2026-04-10T12:30:43.999Z</time></trkpt><trkpt lat="44.355951667366064" lon="7.787071821913726"><ele>487.0</ele><time>2026-04-10T12:30:44.999Z</time></trkpt><trkpt lat="44.355842943919114" lon="7.78695900022038"><ele>487.0</ele><time>2026-04-10T12:30:45.999Z</time></trkpt><trkpt lat="44.35573333754029" lon="7.786852281439769"><ele>487.0</ele><time>2026-04-10T12:30:46.998Z</time></trkpt><trkpt lat="44.3556209175635" lon="7.786746191434566"><ele>487.0</ele><time>2026-04-10T12:30:47.998Z</time></trkpt><trkpt lat="44.35550652608506" lon="7.786639506013688"><ele>488.0</ele><time>2026-04-10T12:30:48.998Z</time></trkpt><trkpt lat="44.35538278522376" lon="7.7865215556463445"><ele>489.0</ele><time>2026-04-10T12:30:49.998Z</time></trkpt><trkpt lat="44.355256352819836" lon="7.786397281962171"><ele>490.0</ele><time>2026-04-10T12:30:50.998Z</time></trkpt><trkpt lat="44.35514559925173" lon="7.786287915436439"><ele>491.0</ele><time>2026-04-10T12:30:51.998Z</time></trkpt><trkpt lat="44.35503946230687" lon="7.7861857356284405"><ele>491.0</ele><time>2026-04-10T12:30:52.998Z</time></trkpt><trkpt lat="44.35494268067555" lon="7.7860829095029445"><ele>491.0</ele><time>2026-04-10T12:30:53.998Z</time></trkpt><trkpt lat="44.35486583646337" lon="7.7859803270966195"><ele>491.0</ele><time>2026-04-10T12:30:54.998Z</time></trkpt><trkpt lat="44.354801797412335" lon="7.785872465352371"><ele>491.0</ele><time>2026-04-10T12:30:55.998Z</time></trkpt><trkpt lat="44.35473825576081" lon="7.7857446157015815"><ele>491.0</ele><time>2026-04-10T12:30:56.998Z</time></trkpt><trkpt lat="44.35466328212929" lon="7.785612382882508"><ele>491.25</ele><time>2026-04-10T12:30:58Z</time></trkpt><trkpt lat="44.354566682999305" lon="7.785486325788538"><ele>491.5</ele><time>2026-04-10T12:30:59Z</time></trkpt><trkpt lat="44.35448184601167" lon="7.7853719643404276"><ele>491.75</ele><time>2026-04-10T12:31:00Z</time></trkpt><trkpt lat="44.35440264278039" lon="7.7852372553969404"><ele>492.0</ele><time>2026-04-10T12:31:01Z</time></trkpt><trkpt lat="44.354327590178066" lon="7.785085262566256"><ele>492.75</ele><time>2026-04-10T12:31:02Z</time></trkpt><trkpt lat="44.354260470903455" lon="7.784941271761154"><ele>493.5</ele><time>2026-04-10T12:31:03Z</time></trkpt><trkpt lat="44.35419413549102" lon="7.784799327885891"><ele>494.25</ele><time>2026-04-10T12:31:04Z</time></trkpt><trkpt lat="44.3541322259876" lon="7.784656009425143"><ele>495.0</ele><time>2026-04-10T12:31:05Z</time></trkpt><trkpt lat="44.35406374146914" lon="7.784503367969127"><ele>495.0</ele><time>2026-04-10T12:31:06Z</time></trkpt><trkpt lat="44.35399737397609" lon="7.784356670098607"><ele>495.0</ele><time>2026-04-10T12:31:07Z</time></trkpt><trkpt lat="44.35393453817914" lon="7.7842116661478284"><ele>495.0</ele><time>2026-04-10T12:31:08Z</time></trkpt><trkpt lat="44.35386713236705" lon="7.784071316858588"><ele>495.0</ele><time>2026-04-10T12:31:09Z</time></trkpt><trkpt lat="44.35379925525533" lon="7.783933769873797"><ele>494.75</ele><time>2026-04-10T12:31:10Z</time></trkpt><trkpt lat="44.35373309546928" lon="7.783793835030996"><ele>494.5</ele><time>2026-04-10T12:31:11Z</time></trkpt><trkpt lat="44.35366642926397" lon="7.783652281962497"><ele>494.25</ele><time>2026-04-10T12:31:12Z</time></trkpt><trkpt lat="44.35359893695887" lon="7.783510287510531"><ele>494.0</ele><time>2026-04-10T12:31:13Z</time></trkpt><trkpt lat="44.35353064129285" lon="7.783367749737603"><ele>494.75</ele><time>2026-04-10T12:31:14Z</time></trkpt><trkpt lat="44.35345685114853" lon="7.783216077805545"><ele>495.5</ele><time>2026-04-10T12:31:15Z</time></trkpt><trkpt lat="44.35338815046829" lon="7.783066029227265"><ele>496.25</ele><time>2026-04-10T12:31:16Z</time></trkpt><trkpt lat="44.3533152287827" lon="7.782916292257039"><ele>497.0</ele><time>2026-04-10T12:31:17Z</time></trkpt><trkpt lat="44.35324516193695" lon="7.78277243035671"><ele>497.25</ele><time>2026-04-10T12:31:18Z</time></trkpt><trkpt lat="44.35317624481373" lon="7.782626013323267"><ele>497.5</ele><time>2026-04-10T12:31:19Z</time></trkpt><trkpt lat="44.35310719423306" lon="7.782481316017554"><ele>497.75</ele><time>2026-04-10T12:31:20Z</time></trkpt><trkpt lat="44.35303783698853" lon="7.782336352225465"><ele>498.0</ele><time>2026-04-10T12:31:21Z</time></trkpt><trkpt lat="44.35297209753231" lon="7.782186235375755"><ele>498.25</ele><time>2026-04-10T12:31:22Z</time></trkpt><trkpt lat="44.35290285447652" lon="7.7820361235750415"><ele>498.5</ele><time>2026-04-10T12:31:23Z</time></trkpt><trkpt lat="44.35283462480541" lon="7.781888781936356"><ele>498.75</ele><time>2026-04-10T12:31:24Z</time></trkpt><trkpt lat="44.352760766312166" lon="7.7817410784453225"><ele>499.0</ele><time>2026-04-10T12:31:25Z</time></trkpt><trkpt lat="44.35269308665055" lon="7.781593657588481"><ele>499.25</ele><time>2026-04-10T12:31:26Z</time></trkpt><trkpt lat="44.352628513666325" lon="7.781454376553867"><ele>499.5</ele><time>2026-04-10T12:31:27Z</time></trkpt><trkpt lat="44.35256014376658" lon="7.781299783771479"><ele>499.75</ele><time>2026-04-10T12:31:28Z</time></trkpt><trkpt lat="44.352496176305756" lon="7.7811494084484165"><ele>500.0</ele><time>2026-04-10T12:31:29Z</time></trkpt><trkpt lat="44.352428770113995" lon="7.781000964632161"><ele>499.75</ele><time>2026-04-10T12:31:30Z</time></trkpt><trkpt lat="44.35236554121091" lon="7.780853208182282"><ele>499.5</ele><time>2026-04-10T12:31:31Z</time></trkpt><trkpt lat="44.35229892080791" lon="7.780705796092064"><ele>499.25</ele><time>2026-04-10T12:31:32Z</time></trkpt><trkpt lat="44.35223614779107" lon="7.780566200711951"><ele>499.0</ele><time>2026-04-10T12:31:33Z</time></trkpt><trkpt lat="44.35218155515855" lon="7.780431596667385"><ele>499.0</ele><time>2026-04-10T12:31:34Z</time></trkpt><trkpt lat="44.352123445115346" lon="7.780292272588028"><ele>499.0</ele><time>2026-04-10T12:31:35Z</time></trkpt><trkpt lat="44.35206969853229" lon="7.780168249200541"><ele>499.0</ele><time>2026-04-10T12:31:36Z</time></trkpt><trkpt lat="44.352014196065745" lon="7.780040239131288"><ele>499.0</ele><time>2026-04-10T12:31:37Z</time></trkpt><trkpt lat="44.351957426127264" lon="7.77991718453141"><ele>499.0</ele><time>2026-04-10T12:31:38Z</time></trkpt><trkpt lat="44.351906418250884" lon="7.7797993128027505"><ele>498.79999999999995</ele><time>2026-04-10T12:31:39Z</time></trkpt><trkpt lat="44.35185408056784" lon="7.779678020673485"><ele>498.59999999999997</ele><time>2026-04-10T12:31:40Z</time></trkpt><trkpt lat="44.35179792012617" lon="7.779552597679513"><ele>498.4</ele><time>2026-04-10T12:31:41Z</time></trkpt><trkpt lat="44.35174328700142" lon="7.779423684408244"><ele>498.2</ele><time>2026-04-10T12:31:42Z</time></trkpt><trkpt lat="44.35168467504392" lon="7.77929870130963"><ele>498.0</ele><time>2026-04-10T12:31:43Z</time></trkpt><trkpt lat="44.35162670017082" lon="7.779167365192775"><ele>497.79999999999995</ele><time>2026-04-10T12:31:44Z</time></trkpt><trkpt lat="44.35156811404286" lon="7.779037153225207"><ele>497.59999999999997</ele><time>2026-04-10T12:31:45Z</time></trkpt><trkpt lat="44.35150817267081" lon="7.778904991663114"><ele>497.40000000000003</ele><time>2026-04-10T12:31:45.999Z</time></trkpt><trkpt lat="44.35145103265548" lon="7.778773366978519"><ele>497.20000000000005</ele><time>2026-04-10T12:31:46.999Z</time></trkpt><trkpt lat="44.35140177660475" lon="7.778646308166141"><ele>497.0</ele><time>2026-04-10T12:31:47.999Z</time></trkpt><trkpt lat="44.35134435431781" lon="7.778519008033565"><ele>497.5</ele><time>2026-04-10T12:31:48.999Z</time></trkpt><trkpt lat="44.351288069665664" lon="7.778385622934466"><ele>498.0</ele><time>2026-04-10T12:31:49.999Z</time></trkpt><trkpt lat="44.35122551030515" lon="7.778254607691151"><ele>498.5</ele><time>2026-04-10T12:31:50.999Z</time></trkpt><trkpt lat="44.35116805372426" lon="7.778122408133751"><ele>499.0</ele><time>2026-04-10T12:31:51.999Z</time></trkpt><trkpt lat="44.351103713348735" lon="7.777983687418034"><ele>499.0</ele><time>2026-04-10T12:31:52.999Z</time></trkpt><trkpt lat="44.35103752216469" lon="7.77784529282269"><ele>499.0</ele><time>2026-04-10T12:31:53.999Z</time></trkpt><trkpt lat="44.3509767972489" lon="7.77770155313206"><ele>499.0</ele><time>2026-04-10T12:31:54.999Z</time></trkpt><trkpt lat="44.350910440215074" lon="7.777554416838828"><ele>499.0</ele><time>2026-04-10T12:31:55.999Z</time></trkpt><trkpt lat="44.35084994244937" lon="7.77741678405906"><ele>499.75</ele><time>2026-04-10T12:31:56.999Z</time></trkpt><trkpt lat="44.35078918765587" lon="7.777276780797888"><ele>500.5</ele><time>2026-04-10T12:31:57.999Z</time></trkpt><trkpt lat="44.350723968615114" lon="7.777128310382372"><ele>501.25</ele><time>2026-04-10T12:31:58.999Z</time></trkpt><trkpt lat="44.35066588656514" lon="7.776989802347511"><ele>502.0</ele><time>2026-04-10T12:31:59.999Z</time></trkpt><trkpt lat="44.35060775317961" lon="7.776858725739978"><ele>502.6</ele><time>2026-04-10T12:32:00.999Z</time></trkpt><trkpt lat="44.35054978923716" lon="7.776725281043968"><ele>503.20000000000005</ele><time>2026-04-10T12:32:01.999Z</time></trkpt><trkpt lat="44.350492978033316" lon="7.776600829931243"><ele>503.8</ele><time>2026-04-10T12:32:02.999Z</time></trkpt><trkpt lat="44.35043496050435" lon="7.7764824354623965"><ele>504.4</ele><time>2026-04-10T12:32:03.999Z</time></trkpt><trkpt lat="44.35037213668461" lon="7.776346666773794"><ele>505.0</ele><time>2026-04-10T12:32:04.999Z</time></trkpt><trkpt lat="44.35031121623874" lon="7.776214379852537"><ele>505.0</ele><time>2026-04-10T12:32:05.999Z</time></trkpt><trkpt lat="44.35025162292353" lon="7.776083474556876"><ele>505.0</ele><time>2026-04-10T12:32:06.999Z</time></trkpt><trkpt lat="44.350193543350045" lon="7.77595105471535"><ele>505.0</ele><time>2026-04-10T12:32:07.999Z</time></trkpt><trkpt lat="44.35013711868186" lon="7.775819601234997"><ele>505.0</ele><time>2026-04-10T12:32:08.999Z</time></trkpt><trkpt lat="44.350076287850904" lon="7.775680662334758"><ele>505.0</ele><time>2026-04-10T12:32:09.999Z</time></trkpt><trkpt lat="44.35002169246381" lon="7.77554945038825"><ele>504.8</ele><time>2026-04-10T12:32:10.999Z</time></trkpt><trkpt lat="44.349962969534594" lon="7.775412039589268"><ele>504.6</ele><time>2026-04-10T12:32:11.999Z</time></trkpt><trkpt lat="44.34990616382004" lon="7.775281333178245"><ele>504.4</ele><time>2026-04-10T12:32:12.999Z</time></trkpt><trkpt lat="44.34985451619801" lon="7.775154772924046"><ele>504.2</ele><time>2026-04-10T12:32:13.999Z</time></trkpt><trkpt lat="44.3498023598277" lon="7.775028490195137"><ele>504.0</ele><time>2026-04-10T12:32:14.999Z</time></trkpt><trkpt lat="44.34974412474185" lon="7.774902463377533"><ele>504.0</ele><time>2026-04-10T12:32:15.999Z</time></trkpt><trkpt lat="44.3496849491237" lon="7.7747745663697865"><ele>504.0</ele><time>2026-04-10T12:32:16.999Z</time></trkpt><trkpt lat="44.34962896235294" lon="7.7746395291969534"><ele>504.0</ele><time>2026-04-10T12:32:17.999Z</time></trkpt><trkpt lat="44.3495762167273" lon="7.774507007738618"><ele>504.0</ele><time>2026-04-10T12:32:18.999Z</time></trkpt><trkpt lat="44.34952390085428" lon="7.774377222026959"><ele>504.0</ele><time>2026-04-10T12:32:19.999Z</time></trkpt><trkpt lat="44.349470946414726" lon="7.774254389091648"><ele>505.0</ele><time>2026-04-10T12:32:20.999Z</time></trkpt><trkpt lat="44.34941464445642" lon="7.774127141248843"><ele>506.0</ele><time>2026-04-10T12:32:21.999Z</time></trkpt><trkpt lat="44.34935227676305" lon="7.77399249083251"><ele>507.0</ele><time>2026-04-10T12:32:22.999Z</time></trkpt><trkpt lat="44.34929225558993" lon="7.77385571785076"><ele>508.0</ele><time>2026-04-10T12:32:23.999Z</time></trkpt><trkpt lat="44.34922907637847" lon="7.773719717748547"><ele>508.0</ele><time>2026-04-10T12:32:24.999Z</time></trkpt><trkpt lat="44.34916575017693" lon="7.773578177259507"><ele>507.99999999999994</ele><time>2026-04-10T12:32:25.999Z</time></trkpt><trkpt lat="44.34910915490403" lon="7.773447287546967"><ele>507.99999999999994</ele><time>2026-04-10T12:32:26.999Z</time></trkpt><trkpt lat="44.34905539314112" lon="7.773321666132612"><ele>508.0</ele><time>2026-04-10T12:32:27.999Z</time></trkpt><trkpt lat="44.34900115539191" lon="7.773194204229561"><ele>508.0</ele><time>2026-04-10T12:32:28.999Z</time></trkpt><trkpt lat="44.348944485257675" lon="7.7730632219401326"><ele>508.0</ele><time>2026-04-10T12:32:29.999Z</time></trkpt><trkpt lat="44.348888614348915" lon="7.77293865956914"><ele>507.99999999999994</ele><time>2026-04-10T12:32:30.999Z</time></trkpt><trkpt lat="44.34882965376628" lon="7.772811052702654"><ele>507.99999999999994</ele><time>2026-04-10T12:32:31.999Z</time></trkpt><trkpt lat="44.34877699160844" lon="7.772696510116102"><ele>508.0</ele><time>2026-04-10T12:32:32.999Z</time></trkpt><trkpt lat="44.34872273805804" lon="7.772574877533695"><ele>508.0</ele><time>2026-04-10T12:32:33.999Z</time></trkpt><trkpt lat="44.34865874982016" lon="7.772439622354087"><ele>508.2</ele><time>2026-04-10T12:32:34.999Z</time></trkpt><trkpt lat="44.348594965455" lon="7.772315773839181"><ele>508.4</ele><time>2026-04-10T12:32:35.999Z</time></trkpt><trkpt lat="44.34853629679265" lon="7.772209327757743"><ele>508.59999999999997</ele><time>2026-04-10T12:32:36.999Z</time></trkpt><trkpt lat="44.348473493214776" lon="7.772103289300781"><ele>508.79999999999995</ele><time>2026-04-10T12:32:37.999Z</time></trkpt><trkpt lat="44.3484034467413" lon="7.771984931016363"><ele>509.0</ele><time>2026-04-10T12:32:38.999Z</time></trkpt><trkpt lat="44.348332602845886" lon="7.77187991972631"><ele>509.3333333333333</ele><time>2026-04-10T12:32:39.999Z</time></trkpt><trkpt lat="44.348270489584856" lon="7.771782710881422"><ele>509.66666666666663</ele><time>2026-04-10T12:32:40.999Z</time></trkpt><trkpt lat="44.34821546367936" lon="7.771694551768331"><ele>510.0</ele><time>2026-04-10T12:32:41.999Z</time></trkpt><trkpt lat="44.34816169194565" lon="7.771606056879913"><ele>510.33333333333337</ele><time>2026-04-10T12:32:42.999Z</time></trkpt><trkpt lat="44.34811581362047" lon="7.7715129078789"><ele>510.6666666666667</ele><time>2026-04-10T12:32:43.999Z</time></trkpt><trkpt lat="44.34808182660236" lon="7.771410426601444"><ele>511.0</ele><time>2026-04-10T12:32:44.999Z</time></trkpt><trkpt lat="44.34805051642131" lon="7.771320277954967"><ele>510.6</ele><time>2026-04-10T12:32:45.999Z</time></trkpt><trkpt lat="44.348011159054174" lon="7.771243187196683"><ele>510.20000000000005</ele><time>2026-04-10T12:32:46.999Z</time></trkpt><trkpt lat="44.347904736104354" lon="7.771183966500665"><ele>509.79999999999995</ele><time>2026-04-10T12:32:48.999Z</time></trkpt><trkpt lat="44.347799401116276" lon="7.771269054572279"><ele>509.4</ele><time>2026-04-10T12:32:50.999Z</time></trkpt><trkpt lat="44.34776642285753" lon="7.771356846906448"><ele>509.0</ele><time>2026-04-10T12:32:51.999Z</time></trkpt><trkpt lat="44.34774289692027" lon="7.771461320652022"><ele>509.0</ele><time>2026-04-10T12:32:52.999Z</time></trkpt><trkpt lat="44.34771541970918" lon="7.771580931323037"><ele>509.0</ele><time>2026-04-10T12:32:53.999Z</time></trkpt><trkpt lat="44.34767981892133" lon="7.771706654576117"><ele>509.0</ele><time>2026-04-10T12:32:54.998Z</time></trkpt><trkpt lat="44.34763572983986" lon="7.771833597969834"><ele>509.0</ele><time>2026-04-10T12:32:55.998Z</time></trkpt><trkpt lat="44.34759451351497" lon="7.771963819080523"><ele>509.0</ele><time>2026-04-10T12:32:56.998Z</time></trkpt><trkpt lat="44.34755904750376" lon="7.772094771766308"><ele>508.79999999999995</ele><time>2026-04-10T12:32:57.998Z</time></trkpt><trkpt lat="44.34752098238151" lon="7.772243718424808"><ele>508.59999999999997</ele><time>2026-04-10T12:32:58.998Z</time></trkpt><trkpt lat="44.34747814704192" lon="7.772389497945747"><ele>508.4</ele><time>2026-04-10T12:32:59.998Z</time></trkpt><trkpt lat="44.34744401739416" lon="7.772523508881821"><ele>508.2</ele><time>2026-04-10T12:33:00.998Z</time></trkpt><trkpt lat="44.34740846054347" lon="7.7726624582507595"><ele>508.0</ele><time>2026-04-10T12:33:01.998Z</time></trkpt><trkpt lat="44.347369902686516" lon="7.772808411619658"><ele>507.79999999999995</ele><time>2026-04-10T12:33:02.998Z</time></trkpt><trkpt lat="44.34733028334821" lon="7.772955503391609"><ele>507.59999999999997</ele><time>2026-04-10T12:33:04Z</time></trkpt><trkpt lat="44.347289760241914" lon="7.773093538136493"><ele>507.40000000000003</ele><time>2026-04-10T12:33:05Z</time></trkpt><trkpt lat="44.34725328535162" lon="7.773234371412873"><ele>507.20000000000005</ele><time>2026-04-10T12:33:06Z</time></trkpt><trkpt lat="44.34721578531137" lon="7.773374385781519"><ele>507.0</ele><time>2026-04-10T12:33:07Z</time></trkpt><trkpt lat="44.34717698083871" lon="7.773515657712668"><ele>507.5</ele><time>2026-04-10T12:33:08Z</time></trkpt><trkpt lat="44.347134948377104" lon="7.773661768795866"><ele>508.0</ele><time>2026-04-10T12:33:09Z</time></trkpt><trkpt lat="44.34709181778654" lon="7.773814512135108"><ele>508.5</ele><time>2026-04-10T12:33:10Z</time></trkpt><trkpt lat="44.34704484760921" lon="7.773971001311876"><ele>509.0</ele><time>2026-04-10T12:33:11Z</time></trkpt><trkpt lat="44.34700033371289" lon="7.774104055168943"><ele>509.0</ele><time>2026-04-10T12:33:12Z</time></trkpt><trkpt lat="44.34695027611415" lon="7.774225182312376"><ele>509.0</ele><time>2026-04-10T12:33:13Z</time></trkpt><trkpt lat="44.34689120161572" lon="7.774348824458739"><ele>509.0</ele><time>2026-04-10T12:33:14Z</time></trkpt><trkpt lat="44.34683178023568" lon="7.774478741942557"><ele>509.0</ele><time>2026-04-10T12:33:15Z</time></trkpt><trkpt lat="44.34676695951364" lon="7.774602711247232"><ele>509.0</ele><time>2026-04-10T12:33:16Z</time></trkpt><trkpt lat="44.346699351895886" lon="7.774718192347025"><ele>508.79999999999995</ele><time>2026-04-10T12:33:17Z</time></trkpt><trkpt lat="44.34663401257378" lon="7.77482258285009"><ele>508.59999999999997</ele><time>2026-04-10T12:33:18Z</time></trkpt><trkpt lat="44.34656837651558" lon="7.774935258969188"><ele>508.4</ele><time>2026-04-10T12:33:19Z</time></trkpt><trkpt lat="44.346499645426384" lon="7.775042251895957"><ele>508.2</ele><time>2026-04-10T12:33:20Z</time></trkpt><trkpt lat="44.346426276292405" lon="7.77514874208341"><ele>508.0</ele><time>2026-04-10T12:33:21Z</time></trkpt><trkpt lat="44.34635394794079" lon="7.775253387013287"><ele>508.0</ele><time>2026-04-10T12:33:22Z</time></trkpt><trkpt lat="44.346283057960754" lon="7.775343044658834"><ele>507.99999999999994</ele><time>2026-04-10T12:33:23Z</time></trkpt><trkpt lat="44.346207441758146" lon="7.775430060665698"><ele>507.99999999999994</ele><time>2026-04-10T12:33:24Z</time></trkpt><trkpt lat="44.34612815183895" lon="7.775523376169861"><ele>508.0</ele><time>2026-04-10T12:33:25Z</time></trkpt><trkpt lat="44.34604951514632" lon="7.775606185530998"><ele>508.0</ele><time>2026-04-10T12:33:26Z</time></trkpt><trkpt lat="44.34596363893238" lon="7.775695369448264"><ele>508.0</ele><time>2026-04-10T12:33:27Z</time></trkpt><trkpt lat="44.345870971863874" lon="7.775787532680007"><ele>507.99999999999994</ele><time>2026-04-10T12:33:28Z</time></trkpt><trkpt lat="44.34578406342574" lon="7.775869812018807"><ele>507.99999999999994</ele><time>2026-04-10T12:33:29Z</time></trkpt><trkpt lat="44.34568994679631" lon="7.775950001329228"><ele>508.0</ele><time>2026-04-10T12:33:30Z</time></trkpt><trkpt lat="44.345599157085715" lon="7.776032234819536"><ele>508.0</ele><time>2026-04-10T12:33:31Z</time></trkpt><trkpt lat="44.34550700256472" lon="7.776113235205939"><ele>507.59999999999997</ele><time>2026-04-10T12:33:32Z</time></trkpt><trkpt lat="44.34541515818259" lon="7.776194566565913"><ele>507.19999999999993</ele><time>2026-04-10T12:33:33Z</time></trkpt><trkpt lat="44.345317932451216" lon="7.776273005047025"><ele>506.8</ele><time>2026-04-10T12:33:34Z</time></trkpt><trkpt lat="44.34522246027849" lon="7.776352925398045"><ele>506.4</ele><time>2026-04-10T12:33:35Z</time></trkpt><trkpt lat="44.34512715263783" lon="7.776434124832448"><ele>506.0</ele><time>2026-04-10T12:33:36Z</time></trkpt><trkpt lat="44.3450324900161" lon="7.776508229409927"><ele>506.0</ele><time>2026-04-10T12:33:37Z</time></trkpt><trkpt lat="44.34493877860286" lon="7.776581162509304"><ele>506.0</ele><time>2026-04-10T12:33:38Z</time></trkpt><trkpt lat="44.3448478893783" lon="7.776652045428714"><ele>506.0</ele><time>2026-04-10T12:33:39Z</time></trkpt><trkpt lat="44.34475671188548" lon="7.776717688695563"><ele>506.0</ele><time>2026-04-10T12:33:40Z</time></trkpt><trkpt lat="44.344664235587594" lon="7.776788833053728"><ele>506.0</ele><time>2026-04-10T12:33:41Z</time></trkpt><trkpt lat="44.344569569753844" lon="7.776867611338717"><ele>504.4</ele><time>2026-04-10T12:33:42Z</time></trkpt><trkpt lat="44.344471946610305" lon="7.776929539522414"><ele>502.8</ele><time>2026-04-10T12:33:43Z</time></trkpt><trkpt lat="44.34437120452434" lon="7.776983873075262"><ele>501.19999999999993</ele><time>2026-04-10T12:33:44Z</time></trkpt><trkpt lat="44.34426231934523" lon="7.77705004147421"><ele>499.59999999999997</ele><time>2026-04-10T12:33:45Z</time></trkpt><trkpt lat="44.34415857563155" lon="7.7771106010881645"><ele>498.0</ele><time>2026-04-10T12:33:46Z</time></trkpt><trkpt lat="44.34405654471223" lon="7.777166427471704"><ele>498.0</ele><time>2026-04-10T12:33:47Z</time></trkpt><trkpt lat="44.343947615890585" lon="7.777213422614321"><ele>497.99999999999994</ele><time>2026-04-10T12:33:48Z</time></trkpt><trkpt lat="44.34384094158033" lon="7.777261650273933"><ele>497.99999999999994</ele><time>2026-04-10T12:33:49Z</time></trkpt><trkpt lat="44.34373597328177" lon="7.777301451764293"><ele>498.0</ele><time>2026-04-10T12:33:50Z</time></trkpt><trkpt lat="44.34362877266234" lon="7.77734223691788"><ele>498.0</ele><time>2026-04-10T12:33:51Z</time></trkpt><trkpt lat="44.34352300892443" lon="7.777366541036777"><ele>497.59999999999997</ele><time>2026-04-10T12:33:52Z</time></trkpt><trkpt lat="44.34342063508361" lon="7.777391470429812"><ele>497.19999999999993</ele><time>2026-04-10T12:33:53Z</time></trkpt><trkpt lat="44.34332192602684" lon="7.777412444640382"><ele>496.8</ele><time>2026-04-10T12:33:54Z</time></trkpt><trkpt lat="44.3432174542798" lon="7.777424191475993"><ele>496.4</ele><time>2026-04-10T12:33:54.999Z</time></trkpt><trkpt lat="44.343111428819014" lon="7.777444852893433"><ele>496.0</ele><time>2026-04-10T12:33:55.999Z</time></trkpt><trkpt lat="44.34300248130756" lon="7.7774660124659265"><ele>496.0</ele><time>2026-04-10T12:33:56.999Z</time></trkpt><trkpt lat="44.34289498186558" lon="7.777484595838807"><ele>496.0</ele><time>2026-04-10T12:33:57.999Z</time></trkpt><trkpt lat="44.34278292347533" lon="7.7775038953839895"><ele>496.0</ele><time>2026-04-10T12:33:58.999Z</time></trkpt><trkpt lat="44.34267453737732" lon="7.777513629613811"><ele>496.0</ele><time>2026-04-10T12:33:59.999Z</time></trkpt><trkpt lat="44.34256561720193" lon="7.777528235221667"><ele>496.0</ele><time>2026-04-10T12:34:00.999Z</time></trkpt><trkpt lat="44.34245830344321" lon="7.777537319101285"><ele>496.0</ele><time>2026-04-10T12:34:01.999Z</time></trkpt><trkpt lat="44.342341986531856" lon="7.777556474711708"><ele>496.0</ele><time>2026-04-10T12:34:02.999Z</time></trkpt><trkpt lat="44.342220788407325" lon="7.7775777270837425"><ele>496.0</ele><time>2026-04-10T12:34:03.999Z</time></trkpt><trkpt lat="44.342104799456784" lon="7.77759021046548"><ele>496.0</ele><time>2026-04-10T12:34:04.999Z</time></trkpt><trkpt lat="44.341993197510924" lon="7.777609491472723"><ele>495.4</ele><time>2026-04-10T12:34:05.999Z</time></trkpt><trkpt lat="44.34188230820981" lon="7.777624278480437"><ele>494.8</ele><time>2026-04-10T12:34:06.999Z</time></trkpt><trkpt lat="44.341766856134754" lon="7.777643489193186"><ele>494.19999999999993</ele><time>2026-04-10T12:34:07.999Z</time></trkpt><trkpt lat="44.341658826152326" lon="7.777662667958981"><ele>493.59999999999997</ele><time>2026-04-10T12:34:08.999Z</time></trkpt><trkpt lat="44.34155006413516" lon="7.777679461015617"><ele>493.0</ele><time>2026-04-10T12:34:09.999Z</time></trkpt><trkpt lat="44.341435730185054" lon="7.777697676731606"><ele>492.0</ele><time>2026-04-10T12:34:10.999Z</time></trkpt><trkpt lat="44.341323339871934" lon="7.777715548257029"><ele>491.0</ele><time>2026-04-10T12:34:11.999Z</time></trkpt><trkpt lat="44.34121129643778" lon="7.777730302820369"><ele>490.0</ele><time>2026-04-10T12:34:12.999Z</time></trkpt><trkpt lat="44.34109823073312" lon="7.777742426479057"><ele>489.0</ele><time>2026-04-10T12:34:13.999Z</time></trkpt><trkpt lat="44.3409876018346" lon="7.777762879447763"><ele>489.0</ele><time>2026-04-10T12:34:14.999Z</time></trkpt><trkpt lat="44.340875146802" lon="7.777777331306255"><ele>489.0</ele><time>2026-04-10T12:34:15.999Z</time></trkpt><trkpt lat="44.340766897563064" lon="7.777792492320355"><ele>489.0</ele><time>2026-04-10T12:34:16.999Z</time></trkpt><trkpt lat="44.34066210120431" lon="7.777812059032763"><ele>489.0</ele><time>2026-04-10T12:34:17.999Z</time></trkpt><trkpt lat="44.340561529588356" lon="7.777830214441928"><ele>489.0</ele><time>2026-04-10T12:34:18.999Z</time></trkpt><trkpt lat="44.340462954931105" lon="7.7778509358850325"><ele>489.5</ele><time>2026-04-10T12:34:19.999Z</time></trkpt><trkpt lat="44.3403647236172" lon="7.7778696819786814"><ele>490.0</ele><time>2026-04-10T12:34:20.999Z</time></trkpt><trkpt lat="44.340273075633185" lon="7.7778896910028035"><ele>490.5</ele><time>2026-04-10T12:34:21.999Z</time></trkpt><trkpt lat="44.340190316285515" lon="7.777906117724673"><ele>491.0</ele><time>2026-04-10T12:34:22.999Z</time></trkpt><trkpt lat="44.34010948241625" lon="7.7779188499580085"><ele>491.5</ele><time>2026-04-10T12:34:23.999Z</time></trkpt><trkpt lat="44.340027472679076" lon="7.777926970897485"><ele>492.0</ele><time>2026-04-10T12:34:24.999Z</time></trkpt><trkpt lat="44.33993514430737" lon="7.777937767166119"><ele>492.0</ele><time>2026-04-10T12:34:25.999Z</time></trkpt><trkpt lat="44.33983878368684" lon="7.777951190231993"><ele>492.00000000000006</ele><time>2026-04-10T12:34:26.999Z</time></trkpt><trkpt lat="44.339741305402924" lon="7.778006074066612"><ele>492.00000000000006</ele><time>2026-04-10T12:34:27.999Z</time></trkpt><trkpt lat="44.33964391028677" lon="7.778068998174711"><ele>492.0</ele><time>2026-04-10T12:34:28.999Z</time></trkpt><trkpt lat="44.33954566775273" lon="7.778138402619113"><ele>492.0</ele><time>2026-04-10T12:34:29.999Z</time></trkpt><trkpt lat="44.339444686590554" lon="7.778204667765329"><ele>492.25</ele><time>2026-04-10T12:34:30.999Z</time></trkpt><trkpt lat="44.33934264223723" lon="7.778273931723374"><ele>492.5</ele><time>2026-04-10T12:34:31.999Z</time></trkpt><trkpt lat="44.33923779973067" lon="7.778348244786581"><ele>492.75</ele><time>2026-04-10T12:34:32.999Z</time></trkpt><trkpt lat="44.33913507134946" lon="7.778426596460183"><ele>493.0</ele><time>2026-04-10T12:34:33.999Z</time></trkpt><trkpt lat="44.339031138957154" lon="7.778499324225539"><ele>493.75</ele><time>2026-04-10T12:34:34.999Z</time></trkpt><trkpt lat="44.33892785295263" lon="7.778579229449878"><ele>494.5</ele><time>2026-04-10T12:34:35.999Z</time></trkpt><trkpt lat="44.33882244461992" lon="7.778671188868952"><ele>495.25</ele><time>2026-04-10T12:34:36.999Z</time></trkpt><trkpt lat="44.33872695422279" lon="7.778744675281454"><ele>496.0</ele><time>2026-04-10T12:34:37.999Z</time></trkpt><trkpt lat="44.33863682150704" lon="7.778821072403702"><ele>497.20000000000005</ele><time>2026-04-10T12:34:38.999Z</time></trkpt><trkpt lat="44.338543804754785" lon="7.778896179004165"><ele>498.40000000000003</ele><time>2026-04-10T12:34:39.999Z</time></trkpt><trkpt lat="44.338453043963725" lon="7.778970831432197"><ele>499.6</ele><time>2026-04-10T12:34:40.999Z</time></trkpt><trkpt lat="44.33835907168667" lon="7.779046890604862"><ele>500.8</ele><time>2026-04-10T12:34:41.999Z</time></trkpt><trkpt lat="44.338268628408464" lon="7.779127589272778"><ele>502.0</ele><time>2026-04-10T12:34:42.999Z</time></trkpt><trkpt lat="44.33817458795977" lon="7.77921397689935"><ele>502.0</ele><time>2026-04-10T12:34:43.999Z</time></trkpt><trkpt lat="44.33808220961135" lon="7.779298345812241"><ele>502.00000000000006</ele><time>2026-04-10T12:34:44.999Z</time></trkpt><trkpt lat="44.3379878108837" lon="7.779372768203214"><ele>502.00000000000006</ele><time>2026-04-10T12:34:45.999Z</time></trkpt><trkpt lat="44.337892141439795" lon="7.7794482819691275"><ele>502.0</ele><time>2026-04-10T12:34:46.999Z</time></trkpt><trkpt lat="44.33779714213568" lon="7.779516521051122"><ele>502.0</ele><time>2026-04-10T12:34:47.999Z</time></trkpt><trkpt lat="44.33769714527667" lon="7.779581091512045"><ele>502.8</ele><time>2026-04-10T12:34:48.999Z</time></trkpt><trkpt lat="44.33759544112583" lon="7.7796458813796905"><ele>503.6</ele><time>2026-04-10T12:34:49.999Z</time></trkpt><trkpt lat="44.33749585698501" lon="7.779705857519615"><ele>504.40000000000003</ele><time>2026-04-10T12:34:50.999Z</time></trkpt><trkpt lat="44.33739607376637" lon="7.779765504130899"><ele>505.20000000000005</ele><time>2026-04-10T12:34:51.999Z</time></trkpt><trkpt lat="44.33729490537394" lon="7.779822691125461"><ele>506.0</ele><time>2026-04-10T12:34:52.999Z</time></trkpt><trkpt lat="44.33719039879876" lon="7.779872283452612"><ele>507.5</ele><time>2026-04-10T12:34:53.999Z</time></trkpt><trkpt lat="44.337086838614255" lon="7.779925247556532"><ele>509.0</ele><time>2026-04-10T12:34:54.999Z</time></trkpt><trkpt lat="44.33698057211994" lon="7.779963995816806"><ele>510.5</ele><time>2026-04-10T12:34:55.999Z</time></trkpt><trkpt lat="44.33686681634242" lon="7.780011041213888"><ele>512.0</ele><time>2026-04-10T12:34:56.999Z</time></trkpt><trkpt lat="44.33675322411417" lon="7.78006246126238"><ele>512.0</ele><time>2026-04-10T12:34:57.999Z</time></trkpt><trkpt lat="44.336642087046755" lon="7.780116818271314"><ele>512.0</ele><time>2026-04-10T12:34:58.999Z</time></trkpt><trkpt lat="44.33652874636211" lon="7.780176135747218"><ele>512.0</ele><time>2026-04-10T12:34:59.999Z</time></trkpt><trkpt lat="44.336406467247954" lon="7.780221163875355"><ele>512.0</ele><time>2026-04-10T12:35:00.999Z</time></trkpt><trkpt lat="44.336298766768095" lon="7.7803041440925735"><ele>512.0</ele><time>2026-04-10T12:35:01.999Z</time></trkpt><trkpt lat="44.3361856980437" lon="7.78034272937135"><ele>512.0</ele><time>2026-04-10T12:35:02.998Z</time></trkpt><trkpt lat="44.33607182832573" lon="7.780406337377747"><ele>512.0</ele><time>2026-04-10T12:35:03.998Z</time></trkpt><trkpt lat="44.33595754589242" lon="7.7804701759773245"><ele>512.0</ele><time>2026-04-10T12:35:04.998Z</time></trkpt><trkpt lat="44.33585619128831" lon="7.780530880563342"><ele>512.0</ele><time>2026-04-10T12:35:05.998Z</time></trkpt><trkpt lat="44.33575421950714" lon="7.7805933523882995"><ele>512.0</ele><time>2026-04-10T12:35:06.998Z</time></trkpt><trkpt lat="44.33565643461175" lon="7.780654378958164"><ele>512.0</ele><time>2026-04-10T12:35:07.998Z</time></trkpt><trkpt lat="44.33555751285612" lon="7.780715157708805"><ele>512.0</ele><time>2026-04-10T12:35:08.998Z</time></trkpt><trkpt lat="44.33545129233136" lon="7.780778302663664"><ele>512.0</ele><time>2026-04-10T12:35:10Z</time></trkpt><trkpt lat="44.33535767736646" lon="7.7808363983166196"><ele>512.0</ele><time>2026-04-10T12:35:11Z</time></trkpt><trkpt lat="44.335268329127736" lon="7.780893371373232"><ele>512.0</ele><time>2026-04-10T12:35:12Z</time></trkpt><trkpt lat="44.33517357545774" lon="7.780977142765229"><ele>512.0</ele><time>2026-04-10T12:35:13Z</time></trkpt><trkpt lat="44.33508464013711" lon="7.781038607287994"><ele>512.0</ele><time>2026-04-10T12:35:14Z</time></trkpt><trkpt lat="44.334991532737995" lon="7.7811057780671495"><ele>512.0</ele><time>2026-04-10T12:35:15Z</time></trkpt><trkpt lat="44.33489441461477" lon="7.781189813581163"><ele>512.0</ele><time>2026-04-10T12:35:16Z</time></trkpt><trkpt lat="44.33481052694321" lon="7.781292680651208"><ele>512.0</ele><time>2026-04-10T12:35:17Z</time></trkpt><trkpt lat="44.33470917660389" lon="7.781391278388196"><ele>512.0</ele><time>2026-04-10T12:35:18Z</time></trkpt><trkpt lat="44.334619237723075" lon="7.781505643799628"><ele>512.0</ele><time>2026-04-10T12:35:19Z</time></trkpt><trkpt lat="44.33453313495767" lon="7.781619688404127"><ele>512.75</ele><time>2026-04-10T12:35:20Z</time></trkpt><trkpt lat="44.334457488259524" lon="7.781746489829181"><ele>513.5</ele><time>2026-04-10T12:35:21Z</time></trkpt><trkpt lat="44.334372446725034" lon="7.781865505918165"><ele>514.25</ele><time>2026-04-10T12:35:22Z</time></trkpt><trkpt lat="44.33427832911962" lon="7.78198714840045"><ele>515.0</ele><time>2026-04-10T12:35:23Z</time></trkpt><trkpt lat="44.33417432704043" lon="7.782108762729733"><ele>515.0</ele><time>2026-04-10T12:35:24Z</time></trkpt><trkpt lat="44.3340601669242" lon="7.782234967369006"><ele>515.0</ele><time>2026-04-10T12:35:25Z</time></trkpt><trkpt lat="44.3339480075026" lon="7.782350291885329"><ele>515.0</ele><time>2026-04-10T12:35:26Z</time></trkpt><trkpt lat="44.33383019092921" lon="7.782472845164527"><ele>515.0</ele><time>2026-04-10T12:35:27Z</time></trkpt><trkpt lat="44.33371665119725" lon="7.782597906348624"><ele>515.75</ele><time>2026-04-10T12:35:28Z</time></trkpt><trkpt lat="44.33361540357933" lon="7.78272756830431"><ele>516.5</ele><time>2026-04-10T12:35:29Z</time></trkpt><trkpt lat="44.33351147657381" lon="7.782856688277896"><ele>517.25</ele><time>2026-04-10T12:35:30Z</time></trkpt><trkpt lat="44.333409776427686" lon="7.782988808907246"><ele>518.0</ele><time>2026-04-10T12:35:31Z</time></trkpt><trkpt lat="44.33331389079111" lon="7.783121458596215"><ele>518.0</ele><time>2026-04-10T12:35:32Z</time></trkpt><trkpt lat="44.333235490391914" lon="7.783246781375045"><ele>518.0</ele><time>2026-04-10T12:35:33Z</time></trkpt><trkpt lat="44.33314699507953" lon="7.783372421752152"><ele>518.0</ele><time>2026-04-10T12:35:34Z</time></trkpt><trkpt lat="44.33306544546658" lon="7.783504632733751"><ele>518.0</ele><time>2026-04-10T12:35:35Z</time></trkpt><trkpt lat="44.33298269390203" lon="7.783631347636415"><ele>518.6</ele><time>2026-04-10T12:35:36Z</time></trkpt><trkpt lat="44.3329068385176" lon="7.783756033793076"><ele>519.1999999999999</ele><time>2026-04-10T12:35:37Z</time></trkpt><trkpt lat="44.332840646105275" lon="7.783879250049173"><ele>519.8</ele><time>2026-04-10T12:35:38Z</time></trkpt><trkpt lat="44.33276985609894" lon="7.783993801702177"><ele>520.4</ele><time>2026-04-10T12:35:39Z</time></trkpt><trkpt lat="44.332700604442486" lon="7.784105409483668"><ele>521.0</ele><time>2026-04-10T12:35:40Z</time></trkpt><trkpt lat="44.33262658824778" lon="7.784226920090778"><ele>520.5</ele><time>2026-04-10T12:35:41Z</time></trkpt><trkpt lat="44.33255291367229" lon="7.784358015164031"><ele>520.0</ele><time>2026-04-10T12:35:42Z</time></trkpt><trkpt lat="44.33246969109421" lon="7.784491297564784"><ele>519.5</ele><time>2026-04-10T12:35:43Z</time></trkpt><trkpt lat="44.33237395977517" lon="7.78463324979455"><ele>519.0</ele><time>2026-04-10T12:35:44Z</time></trkpt><trkpt lat="44.332274417433794" lon="7.784764677167923"><ele>519.6666666666666</ele><time>2026-04-10T12:35:45Z</time></trkpt><trkpt lat="44.33216586282008" lon="7.78490994634236"><ele>520.3333333333333</ele><time>2026-04-10T12:35:46Z</time></trkpt><trkpt lat="44.332049074670614" lon="7.78505454820231"><ele>521.0</ele><time>2026-04-10T12:35:47Z</time></trkpt><trkpt lat="44.33192224563277" lon="7.785188344020882"><ele>521.0</ele><time>2026-04-10T12:35:48Z</time></trkpt><trkpt lat="44.33177949552543" lon="7.7853169100605575"><ele>521.0</ele><time>2026-04-10T12:35:49Z</time></trkpt><trkpt lat="44.331629001461906" lon="7.785440033165491"><ele>521.0</ele><time>2026-04-10T12:35:50Z</time></trkpt><trkpt lat="44.331476540068806" lon="7.785559655240876"><ele>523.3333333333333</ele><time>2026-04-10T12:35:51Z</time></trkpt><trkpt lat="44.33131492983811" lon="7.785668899349747"><ele>525.6666666666666</ele><time>2026-04-10T12:35:52Z</time></trkpt><trkpt lat="44.331149347027136" lon="7.78578359138209"><ele>528.0</ele><time>2026-04-10T12:35:53Z</time></trkpt><trkpt lat="44.330981430646865" lon="7.785900054329011"><ele>528.6666666666666</ele><time>2026-04-10T12:35:54Z</time></trkpt><trkpt lat="44.33081639471789" lon="7.786016241226254"><ele>529.3333333333333</ele><time>2026-04-10T12:35:55Z</time></trkpt><trkpt lat="44.33065937108382" lon="7.7861225954464635"><ele>530.0</ele><time>2026-04-10T12:35:56Z</time></trkpt><trkpt lat="44.330510122364416" lon="7.786221127081189"><ele>530.0</ele><time>2026-04-10T12:35:57Z</time></trkpt><trkpt lat="44.330358198318955" lon="7.786323787590536"><ele>530.0</ele><time>2026-04-10T12:35:58Z</time></trkpt><trkpt lat="44.33020559261864" lon="7.7864352521400155"><ele>530.0</ele><time>2026-04-10T12:35:59Z</time></trkpt><trkpt lat="44.33005998177827" lon="7.786555516359426"><ele>530.0</ele><time>2026-04-10T12:36:00Z</time></trkpt><trkpt lat="44.32991635467946" lon="7.786695562441909"><ele>530.0</ele><time>2026-04-10T12:36:00.999Z</time></trkpt><trkpt lat="44.32978211346652" lon="7.786863960514942"><ele>530.0</ele><time>2026-04-10T12:36:01.999Z</time></trkpt><trkpt lat="44.32965257723099" lon="7.787033998375949"><ele>535.3333333333333</ele><time>2026-04-10T12:36:02.999Z</time></trkpt><trkpt lat="44.32953381274429" lon="7.787208174140706"><ele>540.6666666666666</ele><time>2026-04-10T12:36:03.999Z</time></trkpt><trkpt lat="44.329414812267636" lon="7.787379475927635"><ele>546.0</ele><time>2026-04-10T12:36:04.999Z</time></trkpt><trkpt lat="44.329299652736516" lon="7.787548196075285"><ele>542.0</ele><time>2026-04-10T12:36:05.999Z</time></trkpt><trkpt lat="44.32919809942572" lon="7.787716182623628"><ele>538.0</ele><time>2026-04-10T12:36:06.999Z</time></trkpt><trkpt lat="44.32908747323399" lon="7.787919850452005"><ele>534.0</ele><time>2026-04-10T12:36:07.999Z</time></trkpt><trkpt lat="44.329005413828554" lon="7.7881161955268094"><ele>534.0</ele><time>2026-04-10T12:36:08.999Z</time></trkpt><trkpt lat="44.328928345309556" lon="7.788311377790834"><ele>534.0</ele><time>2026-04-10T12:36:09.999Z</time></trkpt><trkpt lat="44.32885518294619" lon="7.788496764003759"><ele>534.0</ele><time>2026-04-10T12:36:10.999Z</time></trkpt><trkpt lat="44.32878300310354" lon="7.78867727838612"><ele>533.75</ele><time>2026-04-10T12:36:11.999Z</time></trkpt><trkpt lat="44.32872013189354" lon="7.788834937406726"><ele>533.5</ele><time>2026-04-10T12:36:12.999Z</time></trkpt><trkpt lat="44.328665275922795" lon="7.789000999131092"><ele>533.25</ele><time>2026-04-10T12:36:13.999Z</time></trkpt><trkpt lat="44.32860357568805" lon="7.789159654650425"><ele>533.0</ele><time>2026-04-10T12:36:14.999Z</time></trkpt><trkpt lat="44.32859264754706" lon="7.789353711781529"><ele>533.0</ele><time>2026-04-10T12:36:15.999Z</time></trkpt><trkpt lat="44.32859133376516" lon="7.789545072381184"><ele>533.0</ele><time>2026-04-10T12:36:16.999Z</time></trkpt><trkpt lat="44.32857358774221" lon="7.78977191284015"><ele>533.0</ele><time>2026-04-10T12:36:17.999Z</time></trkpt><trkpt lat="44.32856747897964" lon="7.789972123902098"><ele>533.0</ele><time>2026-04-10T12:36:18.999Z</time></trkpt><trkpt lat="44.32855731581306" lon="7.790189062234936"><ele>533.5</ele><time>2026-04-10T12:36:19.999Z</time></trkpt><trkpt lat="44.32853960328205" lon="7.790362952327866"><ele>534.0</ele><time>2026-04-10T12:36:20.999Z</time></trkpt><trkpt lat="44.32850875923511" lon="7.790535568736508"><ele>534.5</ele><time>2026-04-10T12:36:21.999Z</time></trkpt><trkpt lat="44.3284607249417" lon="7.790700995104818"><ele>535.0</ele><time>2026-04-10T12:36:22.999Z</time></trkpt><trkpt lat="44.32840514945946" lon="7.790857201059965"><ele>535.0</ele><time>2026-04-10T12:36:23.999Z</time></trkpt><trkpt lat="44.32835395521507" lon="7.790996496818268"><ele>535.0</ele><time>2026-04-10T12:36:24.999Z</time></trkpt><trkpt lat="44.32829735159488" lon="7.7911440075309475"><ele>535.0</ele><time>2026-04-10T12:36:25.999Z</time></trkpt><trkpt lat="44.32824472902677" lon="7.79126842795457"><ele>535.0</ele><time>2026-04-10T12:36:26.999Z</time></trkpt><trkpt lat="44.328186622801724" lon="7.791397798487094"><ele>535.0</ele><time>2026-04-10T12:36:27.999Z</time></trkpt><trkpt lat="44.32813300356808" lon="7.791523188311508"><ele>535.2</ele><time>2026-04-10T12:36:28.999Z</time></trkpt><trkpt lat="44.328079939730685" lon="7.791653925744304"><ele>535.4</ele><time>2026-04-10T12:36:29.999Z</time></trkpt><trkpt lat="44.32802793517758" lon="7.79178136866132"><ele>535.6</ele><time>2026-04-10T12:36:30.999Z</time></trkpt><trkpt lat="44.32797795850189" lon="7.791903751669884"><ele>535.8</ele><time>2026-04-10T12:36:31.999Z</time></trkpt><trkpt lat="44.32792772268189" lon="7.792032598883518"><ele>536.0</ele><time>2026-04-10T12:36:32.999Z</time></trkpt><trkpt lat="44.32787434537482" lon="7.792154802770522"><ele>536.4</ele><time>2026-04-10T12:36:33.999Z</time></trkpt><trkpt lat="44.3278210337087" lon="7.792272955407904"><ele>536.8</ele><time>2026-04-10T12:36:34.999Z</time></trkpt><trkpt lat="44.327766664559576" lon="7.792398504852494"><ele>537.1999999999999</ele><time>2026-04-10T12:36:35.999Z</time></trkpt><trkpt lat="44.327711421443944" lon="7.792520239797821"><ele>537.6</ele><time>2026-04-10T12:36:36.999Z</time></trkpt><trkpt lat="44.327661686947515" lon="7.792640545896825"><ele>538.0</ele><time>2026-04-10T12:36:37.999Z</time></trkpt><trkpt lat="44.327606810797946" lon="7.792768232327805"><ele>538.8</ele><time>2026-04-10T12:36:38.999Z</time></trkpt><trkpt lat="44.32755545113639" lon="7.792900732934232"><ele>539.5999999999999</ele><time>2026-04-10T12:36:39.999Z</time></trkpt><trkpt lat="44.32750645979694" lon="7.793025832728136"><ele>540.4000000000001</ele><time>2026-04-10T12:36:40.999Z</time></trkpt><trkpt lat="44.32745609792681" lon="7.793165361961106"><ele>541.2</ele><time>2026-04-10T12:36:41.999Z</time></trkpt><trkpt lat="44.32740622200212" lon="7.793305865391307"><ele>542.0</ele><time>2026-04-10T12:36:42.999Z</time></trkpt><trkpt lat="44.32735794919575" lon="7.793446675143255"><ele>541.6</ele><time>2026-04-10T12:36:43.999Z</time></trkpt><trkpt lat="44.32731272909651" lon="7.793581096026421"><ele>541.2</ele><time>2026-04-10T12:36:44.999Z</time></trkpt><trkpt lat="44.32726439728688" lon="7.79371360566935"><ele>540.8</ele><time>2026-04-10T12:36:45.999Z</time></trkpt><trkpt lat="44.32722445576784" lon="7.793839027780479"><ele>540.4</ele><time>2026-04-10T12:36:46.999Z</time></trkpt><trkpt lat="44.32717493208664" lon="7.793975619541446"><ele>540.0</ele><time>2026-04-10T12:36:47.999Z</time></trkpt><trkpt lat="44.32712409130958" lon="7.794123969292364"><ele>540.0</ele><time>2026-04-10T12:36:48.999Z</time></trkpt><trkpt lat="44.32707300334793" lon="7.794270424820371"><ele>540.0</ele><time>2026-04-10T12:36:49.999Z</time></trkpt><trkpt lat="44.32701656932786" lon="7.794411069315456"><ele>540.0</ele><time>2026-04-10T12:36:50.999Z</time></trkpt><trkpt lat="44.32697119267796" lon="7.794539283633031"><ele>540.0</ele><time>2026-04-10T12:36:51.999Z</time></trkpt><trkpt lat="44.326932043397804" lon="7.79467488636096"><ele>540.0</ele><time>2026-04-10T12:36:52.999Z</time></trkpt><trkpt lat="44.32689566174844" lon="7.794817379015239"><ele>540.8</ele><time>2026-04-10T12:36:53.999Z</time></trkpt><trkpt lat="44.3268591811392" lon="7.794962956743951"><ele>541.6</ele><time>2026-04-10T12:36:54.999Z</time></trkpt><trkpt lat="44.326827532678024" lon="7.795106830334289"><ele>542.4</ele><time>2026-04-10T12:36:55.999Z</time></trkpt><trkpt lat="44.326802918643615" lon="7.7952508352528636"><ele>543.2</ele><time>2026-04-10T12:36:56.999Z</time></trkpt><trkpt lat="44.326771707296835" lon="7.795404985910653"><ele>544.0</ele><time>2026-04-10T12:36:57.999Z</time></trkpt><trkpt lat="44.32673530860536" lon="7.795555622119939"><ele>545.25</ele><time>2026-04-10T12:36:58.999Z</time></trkpt><trkpt lat="44.3266987988287" lon="7.795727699033661"><ele>546.5</ele><time>2026-04-10T12:36:59.999Z</time></trkpt><trkpt lat="44.326655409314405" lon="7.7959130821432225"><ele>547.75</ele><time>2026-04-10T12:37:00.999Z</time></trkpt><trkpt lat="44.326607187933334" lon="7.796109436331828"><ele>549.0</ele><time>2026-04-10T12:37:01.999Z</time></trkpt><trkpt lat="44.326562904150634" lon="7.796302068990086"><ele>551.3333333333334</ele><time>2026-04-10T12:37:02.999Z</time></trkpt><trkpt lat="44.3265168879116" lon="7.796490260249658"><ele>553.6666666666667</ele><time>2026-04-10T12:37:03.999Z</time></trkpt><trkpt lat="44.32646263919641" lon="7.796682587793427"><ele>556.0</ele><time>2026-04-10T12:37:04.999Z</time></trkpt><trkpt lat="44.326400204730945" lon="7.7968914223097086"><ele>552.6666666666667</ele><time>2026-04-10T12:37:05.999Z</time></trkpt><trkpt lat="44.326337731588886" lon="7.797107762110025"><ele>549.3333333333334</ele><time>2026-04-10T12:37:06.999Z</time></trkpt><trkpt lat="44.32627326483709" lon="7.797310096251602"><ele>546.0</ele><time>2026-04-10T12:37:07.998Z</time></trkpt><trkpt lat="44.32620836562996" lon="7.797512259062635"><ele>548.0</ele><time>2026-04-10T12:37:08.998Z</time></trkpt><trkpt lat="44.32613998928847" lon="7.797735718229138"><ele>550.0</ele><time>2026-04-10T12:37:09.998Z</time></trkpt><trkpt lat="44.326077541894236" lon="7.797940535490775"><ele>552.0</ele><time>2026-04-10T12:37:10.998Z</time></trkpt><trkpt lat="44.326011186925726" lon="7.798143524718179"><ele>552.0</ele><time>2026-04-10T12:37:11.998Z</time></trkpt><trkpt lat="44.325952588289894" lon="7.798318213653821"><ele>552.0</ele><time>2026-04-10T12:37:12.998Z</time></trkpt><trkpt lat="44.325893341220116" lon="7.798490726583767"><ele>552.0</ele><time>2026-04-10T12:37:13.998Z</time></trkpt><trkpt lat="44.32582517190519" lon="7.7986758584546045"><ele>552.0</ele><time>2026-04-10T12:37:14.998Z</time></trkpt><trkpt lat="44.32575298863854" lon="7.798847454932259"><ele>553.5</ele><time>2026-04-10T12:37:16Z</time></trkpt><trkpt lat="44.3256779239706" lon="7.799028018101361"><ele>555.0</ele><time>2026-04-10T12:37:17Z</time></trkpt><trkpt lat="44.32560105820176" lon="7.799190804126668"><ele>556.5</ele><time>2026-04-10T12:37:18Z</time></trkpt><trkpt lat="44.32553159668057" lon="7.799353245658178"><ele>558.0</ele><time>2026-04-10T12:37:19Z</time></trkpt><trkpt lat="44.32546211911593" lon="7.799509505015241"><ele>558.0</ele><time>2026-04-10T12:37:20Z</time></trkpt><trkpt lat="44.32539739474885" lon="7.7996581742302995"><ele>558.0</ele><time>2026-04-10T12:37:21Z</time></trkpt><trkpt lat="44.325325366898674" lon="7.799794232546252"><ele>558.0</ele><time>2026-04-10T12:37:22Z</time></trkpt><trkpt lat="44.32523538408366" lon="7.799921070958393"><ele>558.0</ele><time>2026-04-10T12:37:23Z</time></trkpt><trkpt lat="44.32513277453877" lon="7.8000316584909175"><ele>558.0</ele><time>2026-04-10T12:37:24Z</time></trkpt><trkpt lat="44.3250248088735" lon="7.800120689893321"><ele>558.0</ele><time>2026-04-10T12:37:25Z</time></trkpt><trkpt lat="44.324913817767325" lon="7.800214703079608"><ele>558.0</ele><time>2026-04-10T12:37:26Z</time></trkpt><trkpt lat="44.32479125218875" lon="7.800297819039673"><ele>558.0</ele><time>2026-04-10T12:37:27Z</time></trkpt><trkpt lat="44.32467511093115" lon="7.800372018149334"><ele>558.0</ele><time>2026-04-10T12:37:28Z</time></trkpt><trkpt lat="44.324565871312075" lon="7.800443430822124"><ele>558.0</ele><time>2026-04-10T12:37:29Z</time></trkpt><trkpt lat="44.32446273190084" lon="7.800517478866064"><ele>558.0</ele><time>2026-04-10T12:37:30Z</time></trkpt><trkpt lat="44.32436185398754" lon="7.800587593800495"><ele>558.0</ele><time>2026-04-10T12:37:31Z</time></trkpt><trkpt lat="44.3242722403702" lon="7.800687716429514"><ele>558.0</ele><time>2026-04-10T12:37:32Z</time></trkpt><trkpt lat="44.32419161001959" lon="7.800812265084051"><ele>558.0</ele><time>2026-04-10T12:37:33Z</time></trkpt><trkpt lat="44.324128852901296" lon="7.800931765438134"><ele>558.0</ele><time>2026-04-10T12:37:34Z</time></trkpt><trkpt lat="44.32407470179816" lon="7.801038226463787"><ele>558.0</ele><time>2026-04-10T12:37:35Z</time></trkpt><trkpt lat="44.324020624306186" lon="7.80113485592338"><ele>558.0</ele><time>2026-04-10T12:37:36Z</time></trkpt><trkpt lat="44.32397472394011" lon="7.801214192701806"><ele>558.1666666666666</ele><time>2026-04-10T12:37:37Z</time></trkpt><trkpt lat="44.323912909040146" lon="7.801278057463762"><ele>558.3333333333334</ele><time>2026-04-10T12:37:38Z</time></trkpt><trkpt lat="44.32384045128242" lon="7.8013086572471915"><ele>558.5</ele><time>2026-04-10T12:37:39Z</time></trkpt><trkpt lat="44.32376223818125" lon="7.801289661715804"><ele>558.6666666666667</ele><time>2026-04-10T12:37:40Z</time></trkpt><trkpt lat="44.32368515260783" lon="7.801247360417075"><ele>558.8333333333334</ele><time>2026-04-10T12:37:41Z</time></trkpt><trkpt lat="44.32360454684458" lon="7.801194688221494"><ele>559.0</ele><time>2026-04-10T12:37:42Z</time></trkpt><trkpt lat="44.32352144891854" lon="7.801131312235382"><ele>559.0</ele><time>2026-04-10T12:37:43Z</time></trkpt><trkpt lat="44.3234273160158" lon="7.801079419790816"><ele>559.0</ele><time>2026-04-10T12:37:44Z</time></trkpt><trkpt lat="44.3233326520305" lon="7.8010182962057195"><ele>559.0</ele><time>2026-04-10T12:37:45Z</time></trkpt><trkpt lat="44.3232483708813" lon="7.800973320418503"><ele>559.0</ele><time>2026-04-10T12:37:46Z</time></trkpt><trkpt lat="44.323159059579595" lon="7.800923878687097"><ele>559.0</ele><time>2026-04-10T12:37:47Z</time></trkpt><trkpt lat="44.32307081442945" lon="7.800876553513757"><ele>559.4</ele><time>2026-04-10T12:37:48Z</time></trkpt><trkpt lat="44.322974184603" lon="7.800826097563911"><ele>559.8</ele><time>2026-04-10T12:37:49Z</time></trkpt><trkpt lat="44.322877338111205" lon="7.800783746419397"><ele>560.2</ele><time>2026-04-10T12:37:50Z</time></trkpt><trkpt lat="44.32278822082485" lon="7.80072069273351"><ele>560.6</ele><time>2026-04-10T12:37:51Z</time></trkpt><trkpt lat="44.32268272010348" lon="7.800709352572771"><ele>561.0</ele><time>2026-04-10T12:37:52Z</time></trkpt><trkpt lat="44.32257206527642" lon="7.800702993720551"><ele>561.0</ele><time>2026-04-10T12:37:53Z</time></trkpt><trkpt lat="44.322458027062446" lon="7.800704467224326"><ele>561.0</ele><time>2026-04-10T12:37:54Z</time></trkpt><trkpt lat="44.322344128856834" lon="7.800707906701444"><ele>561.0</ele><time>2026-04-10T12:37:55Z</time></trkpt><trkpt lat="44.32222655460064" lon="7.800712636690426"><ele>561.0</ele><time>2026-04-10T12:37:56Z</time></trkpt><trkpt lat="44.322105401228455" lon="7.80071905001423"><ele>563.0</ele><time>2026-04-10T12:37:57Z</time></trkpt><trkpt lat="44.32198033988434" lon="7.80072754574725"><ele>565.0</ele><time>2026-04-10T12:37:58Z</time></trkpt><trkpt lat="44.32185419349621" lon="7.800739066266334"><ele>567.0</ele><time>2026-04-10T12:37:59Z</time></trkpt><trkpt lat="44.321730141457074" lon="7.800740091490942"><ele>569.0</ele><time>2026-04-10T12:38:00Z</time></trkpt><trkpt lat="44.321621020200666" lon="7.800744264177304"><ele>569.0</ele><time>2026-04-10T12:38:01Z</time></trkpt><trkpt lat="44.3215274265653" lon="7.800763313945061"><ele>569.0</ele><time>2026-04-10T12:38:02Z</time></trkpt><trkpt lat="44.32143481030006" lon="7.80079929278183"><ele>569.0</ele><time>2026-04-10T12:38:03Z</time></trkpt><trkpt lat="44.321346252837934" lon="7.800872219893681"><ele>569.0</ele><time>2026-04-10T12:38:04Z</time></trkpt><trkpt lat="44.32125836363389" lon="7.800966881414021"><ele>569.0</ele><time>2026-04-10T12:38:04.999Z</time></trkpt><trkpt lat="44.321170475063354" lon="7.801065911219815"><ele>570.5</ele><time>2026-04-10T12:38:05.999Z</time></trkpt><trkpt lat="44.32107658942277" lon="7.801169341828768"><ele>572.0</ele><time>2026-04-10T12:38:06.999Z</time></trkpt><trkpt lat="44.32098153340888" lon="7.801271077650565"><ele>573.5</ele><time>2026-04-10T12:38:07.999Z</time></trkpt><trkpt lat="44.320877816010096" lon="7.8013673084247195"><ele>575.0</ele><time>2026-04-10T12:38:08.999Z</time></trkpt><trkpt lat="44.32076641035985" lon="7.801461710457524"><ele>575.0</ele><time>2026-04-10T12:38:09.999Z</time></trkpt><trkpt lat="44.32064645067086" lon="7.801541697768628"><ele>575.0</ele><time>2026-04-10T12:38:10.999Z</time></trkpt><trkpt lat="44.320518003533856" lon="7.801614304020286"><ele>575.0</ele><time>2026-04-10T12:38:11.999Z</time></trkpt><trkpt lat="44.32037152920587" lon="7.80166687256293"><ele>575.0</ele><time>2026-04-10T12:38:12.999Z</time></trkpt><trkpt lat="44.320221622786654" lon="7.801707588449353"><ele>579.0</ele><time>2026-04-10T12:38:13.999Z</time></trkpt><trkpt lat="44.32008268615547" lon="7.801740741552445"><ele>583.0</ele><time>2026-04-10T12:38:14.999Z</time></trkpt><trkpt lat="44.31995029259337" lon="7.801745295852966"><ele>587.0</ele><time>2026-04-10T12:38:15.999Z</time></trkpt><trkpt lat="44.3198137568885" lon="7.801792029470766"><ele>591.0</ele><time>2026-04-10T12:38:16.999Z</time></trkpt><trkpt lat="44.319666567400425" lon="7.801798706981033"><ele>588.5</ele><time>2026-04-10T12:38:17.999Z</time></trkpt><trkpt lat="44.319529651042664" lon="7.801848932228202"><ele>586.0</ele><time>2026-04-10T12:38:18.999Z</time></trkpt><trkpt lat="44.31939594004914" lon="7.801890784484052"><ele>583.5</ele><time>2026-04-10T12:38:19.999Z</time></trkpt><trkpt lat="44.31926767550991" lon="7.801947009604529"><ele>581.0</ele><time>2026-04-10T12:38:20.999Z</time></trkpt><trkpt lat="44.31913892859598" lon="7.802006249261203"><ele>581.0</ele><time>2026-04-10T12:38:21.999Z</time></trkpt><trkpt lat="44.31901472557459" lon="7.802095805863054"><ele>581.0</ele><time>2026-04-10T12:38:22.999Z</time></trkpt><trkpt lat="44.31889548512533" lon="7.802198726171221"><ele>581.0</ele><time>2026-04-10T12:38:23.999Z</time></trkpt><trkpt lat="44.318792650322344" lon="7.802286893453432"><ele>581.0</ele><time>2026-04-10T12:38:24.999Z</time></trkpt><trkpt lat="44.31869340305883" lon="7.802372837830215"><ele>581.5</ele><time>2026-04-10T12:38:25.999Z</time></trkpt><trkpt lat="44.31859258480604" lon="7.802459952373157"><ele>582.0</ele><time>2026-04-10T12:38:26.999Z</time></trkpt><trkpt lat="44.31848546260965" lon="7.802550855062064"><ele>582.5</ele><time>2026-04-10T12:38:27.999Z</time></trkpt><trkpt lat="44.31838379420407" lon="7.802640981185463"><ele>583.0</ele><time>2026-04-10T12:38:28.999Z</time></trkpt><trkpt lat="44.31828227911161" lon="7.802727774588784"><ele>583.0</ele><time>2026-04-10T12:38:29.999Z</time></trkpt><trkpt lat="44.3181723353867" lon="7.802815764596082"><ele>583.0</ele><time>2026-04-10T12:38:30.999Z</time></trkpt><trkpt lat="44.31806229471734" lon="7.802899143704957"><ele>583.0</ele><time>2026-04-10T12:38:31.999Z</time></trkpt><trkpt lat="44.31794086613083" lon="7.802991195180867"><ele>583.0</ele><time>2026-04-10T12:38:32.999Z</time></trkpt><trkpt lat="44.317825261542694" lon="7.803068271423585"><ele>585.25</ele><time>2026-04-10T12:38:33.999Z</time></trkpt><trkpt lat="44.31769691914447" lon="7.803136255024727"><ele>587.5</ele><time>2026-04-10T12:38:34.999Z</time></trkpt><trkpt lat="44.317567129382674" lon="7.803195634664854"><ele>589.75</ele><time>2026-04-10T12:38:35.999Z</time></trkpt><trkpt lat="44.317435700146234" lon="7.803252287778478"><ele>592.0</ele><time>2026-04-10T12:38:36.999Z</time></trkpt><trkpt lat="44.31731714989763" lon="7.803291900770532"><ele>594.75</ele><time>2026-04-10T12:38:37.999Z</time></trkpt><trkpt lat="44.31719258281967" lon="7.803339853968525"><ele>597.5</ele><time>2026-04-10T12:38:38.999Z</time></trkpt><trkpt lat="44.3170699849579" lon="7.803386174210402"><ele>600.25</ele><time>2026-04-10T12:38:39.999Z</time></trkpt><trkpt lat="44.31694274820167" lon="7.8034254221850885"><ele>603.0</ele><time>2026-04-10T12:38:40.999Z</time></trkpt><trkpt lat="44.31681363363591" lon="7.803457139351753"><ele>603.0</ele><time>2026-04-10T12:38:41.999Z</time></trkpt><trkpt lat="44.31668686872824" lon="7.803496113950174"><ele>603.0</ele><time>2026-04-10T12:38:42.999Z</time></trkpt><trkpt lat="44.31655298797043" lon="7.803544096759046"><ele>603.0</ele><time>2026-04-10T12:38:43.999Z</time></trkpt><trkpt lat="44.31640895450822" lon="7.8035844678956385"><ele>603.0</ele><time>2026-04-10T12:38:44.999Z</time></trkpt><trkpt lat="44.31627263886214" lon="7.803605090949954"><ele>601.3333333333334</ele><time>2026-04-10T12:38:45.999Z</time></trkpt><trkpt lat="44.31612533781406" lon="7.80363104833029"><ele>599.6666666666667</ele><time>2026-04-10T12:38:46.999Z</time></trkpt><trkpt lat="44.315970544581226" lon="7.803650126149657"><ele>598.0</ele><time>2026-04-10T12:38:47.999Z</time></trkpt><trkpt lat="44.31581968220623" lon="7.8036624007119935"><ele>598.0</ele><time>2026-04-10T12:38:48.999Z</time></trkpt><trkpt lat="44.31565471478809" lon="7.803680062003512"><ele>598.0</ele><time>2026-04-10T12:38:49.999Z</time></trkpt><trkpt lat="44.315483360922364" lon="7.803698906140277"><ele>598.0</ele><time>2026-04-10T12:38:50.999Z</time></trkpt><trkpt lat="44.31530398367052" lon="7.803709450951243"><ele>598.0</ele><time>2026-04-10T12:38:51.999Z</time></trkpt><trkpt lat="44.315128817019975" lon="7.803709494014963"><ele>598.0</ele><time>2026-04-10T12:38:52.999Z</time></trkpt><trkpt lat="44.314944204583234" lon="7.803725394577069"><ele>598.0</ele><time>2026-04-10T12:38:53.999Z</time></trkpt><trkpt lat="44.31475559612325" lon="7.803742106377372"><ele>599.3333333333334</ele><time>2026-04-10T12:38:54.999Z</time></trkpt><trkpt lat="44.314566745642665" lon="7.803755316976059"><ele>600.6666666666666</ele><time>2026-04-10T12:38:55.999Z</time></trkpt><trkpt lat="44.31440097109515" lon="7.803756396831381"><ele>602.0</ele><time>2026-04-10T12:38:56.999Z</time></trkpt><trkpt lat="44.31423743599082" lon="7.803757866551162"><ele>602.0</ele><time>2026-04-10T12:38:57.999Z</time></trkpt><trkpt lat="44.31408942061757" lon="7.803749028376284"><ele>602.0</ele><time>2026-04-10T12:38:58.999Z</time></trkpt><trkpt lat="44.313954227638646" lon="7.80372655086995"><ele>602.0</ele><time>2026-04-10T12:38:59.999Z</time></trkpt><trkpt lat="44.31381944522352" lon="7.8036823627854"><ele>602.0</ele><time>2026-04-10T12:39:00.999Z</time></trkpt><trkpt lat="44.31367445842161" lon="7.803627384851066"><ele>601.6666666666666</ele><time>2026-04-10T12:39:01.999Z</time></trkpt><trkpt lat="44.31353146857848" lon="7.803557683496894"><ele>601.3333333333334</ele><time>2026-04-10T12:39:02.999Z</time></trkpt><trkpt lat="44.3133861442862" lon="7.80347091126639"><ele>601.0</ele><time>2026-04-10T12:39:03.999Z</time></trkpt><trkpt lat="44.31324945880729" lon="7.803366606671527"><ele>602.75</ele><time>2026-04-10T12:39:04.999Z</time></trkpt><trkpt lat="44.31311107920879" lon="7.803287956420445"><ele>604.5</ele><time>2026-04-10T12:39:05.999Z</time></trkpt><trkpt lat="44.31298812333482" lon="7.803191226025407"><ele>606.25</ele><time>2026-04-10T12:39:06.999Z</time></trkpt><trkpt lat="44.31285470004846" lon="7.80310044175619"><ele>608.0</ele><time>2026-04-10T12:39:07.999Z</time></trkpt><trkpt lat="44.31270856747612" lon="7.80301802199257"><ele>608.0</ele><time>2026-04-10T12:39:08.999Z</time></trkpt><trkpt lat="44.31255717511137" lon="7.802932833584509"><ele>608.0</ele><time>2026-04-10T12:39:09.999Z</time></trkpt><trkpt lat="44.312398386550356" lon="7.802857564908926"><ele>608.0</ele><time>2026-04-10T12:39:10.998Z</time></trkpt><trkpt lat="44.31223519414773" lon="7.802804143617968"><ele>608.3333333333333</ele><time>2026-04-10T12:39:11.998Z</time></trkpt><trkpt lat="44.31206093393727" lon="7.8027599659492966"><ele>608.6666666666666</ele><time>2026-04-10T12:39:12.998Z</time></trkpt><trkpt lat="44.31187529486327" lon="7.802704768289629"><ele>609.0</ele><time>2026-04-10T12:39:13.998Z</time></trkpt><trkpt lat="44.31169128769367" lon="7.80265577402679"><ele>615.3333333333334</ele><time>2026-04-10T12:39:14.998Z</time></trkpt><trkpt lat="44.31150156123471" lon="7.802620103813831"><ele>621.6666666666667</ele><time>2026-04-10T12:39:15.998Z</time></trkpt><trkpt lat="44.31131067251433" lon="7.802599155594567"><ele>628.0</ele><time>2026-04-10T12:39:16.998Z</time></trkpt><trkpt lat="44.31111325122221" lon="7.802557687238985"><ele>628.0</ele><time>2026-04-10T12:39:17.998Z</time></trkpt><trkpt lat="44.31090833606158" lon="7.802535336629227"><ele>628.0</ele><time>2026-04-10T12:39:18.998Z</time></trkpt><trkpt lat="44.310701424563895" lon="7.802518254898923"><ele>628.0</ele><time>2026-04-10T12:39:19.998Z</time></trkpt><trkpt lat="44.310484777697894" lon="7.802526049265795"><ele>628.0</ele><time>2026-04-10T12:39:20.998Z</time></trkpt><trkpt lat="44.310268793817826" lon="7.802508159543939"><ele>628.0</ele><time>2026-04-10T12:39:22Z</time></trkpt><trkpt lat="44.31005299629499" lon="7.802487874434255"><ele>628.0</ele><time>2026-04-10T12:39:23Z</time></trkpt><trkpt lat="44.3098701271778" lon="7.8024592537004605"><ele>626.6666666666667</ele><time>2026-04-10T12:39:24Z</time></trkpt><trkpt lat="44.30969985552529" lon="7.802433536748056"><ele>625.3333333333334</ele><time>2026-04-10T12:39:25Z</time></trkpt><trkpt lat="44.30955388425471" lon="7.802404167773601"><ele>624.0</ele><time>2026-04-10T12:39:26Z</time></trkpt><trkpt lat="44.30940824793757" lon="7.802374721996209"><ele>624.0</ele><time>2026-04-10T12:39:27Z</time></trkpt><trkpt lat="44.30928026265385" lon="7.802350898877343"><ele>624.0</ele><time>2026-04-10T12:39:28Z</time></trkpt><trkpt lat="44.30915235022096" lon="7.802331872144661"><ele>624.0</ele><time>2026-04-10T12:39:29Z</time></trkpt><trkpt lat="44.309031413180314" lon="7.802308928305096"><ele>624.0</ele><time>2026-04-10T12:39:30Z</time></trkpt><trkpt lat="44.30892359957909" lon="7.80228430049022"><ele>623.5</ele><time>2026-04-10T12:39:31Z</time></trkpt><trkpt lat="44.30880731520893" lon="7.802265761555989"><ele>623.0</ele><time>2026-04-10T12:39:32Z</time></trkpt><trkpt lat="44.30866976471416" lon="7.802277390146754"><ele>622.5</ele><time>2026-04-10T12:39:33Z</time></trkpt><trkpt lat="44.30856158678737" lon="7.802255343704658"><ele>622.0</ele><time>2026-04-10T12:39:34Z</time></trkpt><trkpt lat="44.30847268770653" lon="7.802221648775724"><ele>622.0</ele><time>2026-04-10T12:39:35Z</time></trkpt><trkpt lat="44.308363943007905" lon="7.802208384746458"><ele>622.0</ele><time>2026-04-10T12:39:36Z</time></trkpt><trkpt lat="44.308264330566956" lon="7.802189701626532"><ele>622.0</ele><time>2026-04-10T12:39:37Z</time></trkpt><trkpt lat="44.30815202946409" lon="7.802171746733061"><ele>622.0</ele><time>2026-04-10T12:39:38Z</time></trkpt><trkpt lat="44.30803580241574" lon="7.802151226633565"><ele>622.0</ele><time>2026-04-10T12:39:39Z</time></trkpt><trkpt lat="44.307924132069246" lon="7.8021132671480995"><ele>622.2</ele><time>2026-04-10T12:39:40Z</time></trkpt><trkpt lat="44.30782136739552" lon="7.802061870882941"><ele>622.4000000000001</ele><time>2026-04-10T12:39:41Z</time></trkpt><trkpt lat="44.3077208821842" lon="7.802004322210859"><ele>622.5999999999999</ele><time>2026-04-10T12:39:42Z</time></trkpt><trkpt lat="44.307631573136746" lon="7.801949224786126"><ele>622.8</ele><time>2026-04-10T12:39:43Z</time></trkpt><trkpt lat="44.3075400260957" lon="7.801901550284446"><ele>623.0</ele><time>2026-04-10T12:39:44Z</time></trkpt><trkpt lat="44.30744597446732" lon="7.801853135997266"><ele>625.1999999999999</ele><time>2026-04-10T12:39:45Z</time></trkpt><trkpt lat="44.307356210880755" lon="7.801804314056564"><ele>627.4</ele><time>2026-04-10T12:39:46Z</time></trkpt><trkpt lat="44.307274603278664" lon="7.801747923631068"><ele>629.5999999999999</ele><time>2026-04-10T12:39:47Z</time></trkpt><trkpt lat="44.307180789006686" lon="7.8016958931619635"><ele>631.8</ele><time>2026-04-10T12:39:48Z</time></trkpt><trkpt lat="44.307085598306195" lon="7.80164119170898"><ele>634.0</ele><time>2026-04-10T12:39:49Z</time></trkpt><trkpt lat="44.307005205535965" lon="7.8015668559471365"><ele>634.0</ele><time>2026-04-10T12:39:50Z</time></trkpt><trkpt lat="44.30690643635546" lon="7.801509828869408"><ele>634.0</ele><time>2026-04-10T12:39:51Z</time></trkpt><trkpt lat="44.306818870189325" lon="7.801445794446831"><ele>634.0</ele><time>2026-04-10T12:39:52Z</time></trkpt><trkpt lat="44.30672842025881" lon="7.801377186010375"><ele>634.0</ele><time>2026-04-10T12:39:53Z</time></trkpt><trkpt lat="44.30663938480794" lon="7.801313926301532"><ele>634.0</ele><time>2026-04-10T12:39:54Z</time></trkpt><trkpt lat="44.306547307344054" lon="7.801244745674401"><ele>634.0</ele><time>2026-04-10T12:39:55Z</time></trkpt><trkpt lat="44.306458271298936" lon="7.801172523940764"><ele>634.0</ele><time>2026-04-10T12:39:56Z</time></trkpt><trkpt lat="44.306365929359636" lon="7.801111812159368"><ele>634.0</ele><time>2026-04-10T12:39:57Z</time></trkpt><trkpt lat="44.30629470409353" lon="7.801017667730871"><ele>634.0</ele><time>2026-04-10T12:39:58Z</time></trkpt><trkpt lat="44.30620460063992" lon="7.800959699816011"><ele>634.0</ele><time>2026-04-10T12:39:59Z</time></trkpt><trkpt lat="44.306112462894724" lon="7.8009075804563315"><ele>636.6</ele><time>2026-04-10T12:40:00Z</time></trkpt><trkpt lat="44.30601089332702" lon="7.80086107144646"><ele>639.2</ele><time>2026-04-10T12:40:01Z</time></trkpt><trkpt lat="44.30591267308954" lon="7.800823286154454"><ele>641.8000000000001</ele><time>2026-04-10T12:40:02Z</time></trkpt><trkpt lat="44.30581756115362" lon="7.800789902299133"><ele>644.4</ele><time>2026-04-10T12:40:03Z</time></trkpt><trkpt lat="44.30572725630797" lon="7.800753599034137"><ele>647.0</ele><time>2026-04-10T12:40:04Z</time></trkpt><trkpt lat="44.30563478702343" lon="7.800722129971773"><ele>646.2</ele><time>2026-04-10T12:40:05Z</time></trkpt><trkpt lat="44.305541794685375" lon="7.800691070258312"><ele>645.4000000000001</ele><time>2026-04-10T12:40:06Z</time></trkpt><trkpt lat="44.30544751778222" lon="7.800660557555647"><ele>644.5999999999999</ele><time>2026-04-10T12:40:07Z</time></trkpt><trkpt lat="44.30534763817051" lon="7.800634338270313"><ele>643.8</ele><time>2026-04-10T12:40:08Z</time></trkpt><trkpt lat="44.305249504319434" lon="7.800599302297255"><ele>643.0</ele><time>2026-04-10T12:40:09Z</time></trkpt><trkpt lat="44.305141916159506" lon="7.800565683099597"><ele>643.0</ele><time>2026-04-10T12:40:09.999Z</time></trkpt><trkpt lat="44.305039076941206" lon="7.800531028167292"><ele>643.0</ele><time>2026-04-10T12:40:10.999Z</time></trkpt><trkpt lat="44.30494509405018" lon="7.80049050107548"><ele>643.0</ele><time>2026-04-10T12:40:11.999Z</time></trkpt><trkpt lat="44.30485012983329" lon="7.8004639409009435"><ele>643.0</ele><time>2026-04-10T12:40:12.999Z</time></trkpt><trkpt lat="44.304739562352324" lon="7.8004330055844155"><ele>643.0</ele><time>2026-04-10T12:40:13.999Z</time></trkpt><trkpt lat="44.30462522817531" lon="7.800418143345779"><ele>642.25</ele><time>2026-04-10T12:40:14.999Z</time></trkpt><trkpt lat="44.304506795718105" lon="7.800399002237888"><ele>641.5</ele><time>2026-04-10T12:40:15.999Z</time></trkpt><trkpt lat="44.304394711366264" lon="7.800371630598431"><ele>640.75</ele><time>2026-04-10T12:40:16.999Z</time></trkpt><trkpt lat="44.304282953538646" lon="7.800362160312703"><ele>640.0</ele><time>2026-04-10T12:40:17.999Z</time></trkpt><trkpt lat="44.304171212298186" lon="7.800348105140323"><ele>640.0</ele><time>2026-04-10T12:40:18.999Z</time></trkpt><trkpt lat="44.304062740156034" lon="7.8003259106113525"><ele>640.0</ele><time>2026-04-10T12:40:19.999Z</time></trkpt><trkpt lat="44.303958928699714" lon="7.800311675472845"><ele>640.0</ele><time>2026-04-10T12:40:20.999Z</time></trkpt><trkpt lat="44.30385045288498" lon="7.800301405472265"><ele>640.0</ele><time>2026-04-10T12:40:21.999Z</time></trkpt><trkpt lat="44.30373877539389" lon="7.800287604286871"><ele>640.0</ele><time>2026-04-10T12:40:22.999Z</time></trkpt><trkpt lat="44.303633315103305" lon="7.800278129190225"><ele>640.4</ele><time>2026-04-10T12:40:23.999Z</time></trkpt><trkpt lat="44.303532912564975" lon="7.800267025295579"><ele>640.8</ele><time>2026-04-10T12:40:24.999Z</time></trkpt><trkpt lat="44.303440540786745" lon="7.80023464523652"><ele>641.2</ele><time>2026-04-10T12:40:25.999Z</time></trkpt><trkpt lat="44.303331459861134" lon="7.8002259523313615"><ele>641.6</ele><time>2026-04-10T12:40:26.999Z</time></trkpt><trkpt lat="44.30323703939598" lon="7.800204272379124"><ele>642.0</ele><time>2026-04-10T12:40:27.999Z</time></trkpt><trkpt lat="44.30313987759967" lon="7.800175702273181"><ele>643.6</ele><time>2026-04-10T12:40:28.999Z</time></trkpt><trkpt lat="44.303055546084096" lon="7.800126318917415"><ele>645.2</ele><time>2026-04-10T12:40:29.999Z</time></trkpt><trkpt lat="44.302969402738995" lon="7.800065565205311"><ele>646.8</ele><time>2026-04-10T12:40:30.999Z</time></trkpt><trkpt lat="44.30288278310759" lon="7.799992567300312"><ele>648.4</ele><time>2026-04-10T12:40:31.999Z</time></trkpt><trkpt lat="44.30281412166071" lon="7.799897334793768"><ele>650.0</ele><time>2026-04-10T12:40:32.999Z</time></trkpt><trkpt lat="44.30276306295771" lon="7.7997851818125365"><ele>650.0</ele><time>2026-04-10T12:40:33.999Z</time></trkpt><trkpt lat="44.30271766036628" lon="7.799663900244132"><ele>650.0</ele><time>2026-04-10T12:40:34.999Z</time></trkpt><trkpt lat="44.302678830440385" lon="7.799532482460611"><ele>650.0</ele><time>2026-04-10T12:40:35.999Z</time></trkpt><trkpt lat="44.302639676367264" lon="7.799402759861326"><ele>650.0</ele><time>2026-04-10T12:40:36.999Z</time></trkpt><trkpt lat="44.30260131523119" lon="7.799266424063182"><ele>650.0</ele><time>2026-04-10T12:40:37.999Z</time></trkpt><trkpt lat="44.30257031256762" lon="7.799139966778312"><ele>650.2</ele><time>2026-04-10T12:40:38.999Z</time></trkpt><trkpt lat="44.302529353202864" lon="7.799010285902009"><ele>650.4</ele><time>2026-04-10T12:40:39.999Z</time></trkpt><trkpt lat="44.30248537021408" lon="7.798878478832211"><ele>650.5999999999999</ele><time>2026-04-10T12:40:40.999Z</time></trkpt><trkpt lat="44.30244971397161" lon="7.798740306724899"><ele>650.8</ele><time>2026-04-10T12:40:41.999Z</time></trkpt><trkpt lat="44.302410910369865" lon="7.798612527156983"><ele>651.0</ele><time>2026-04-10T12:40:42.999Z</time></trkpt><trkpt lat="44.30236942012495" lon="7.798474933740648"><ele>651.4</ele><time>2026-04-10T12:40:43.999Z</time></trkpt><trkpt lat="44.30232463800671" lon="7.798333946406575"><ele>651.8</ele><time>2026-04-10T12:40:44.999Z</time></trkpt><trkpt lat="44.30227540885015" lon="7.7982007941749725"><ele>652.1999999999999</ele><time>2026-04-10T12:40:45.999Z</time></trkpt><trkpt lat="44.30222716916817" lon="7.798075270344198"><ele>652.5999999999999</ele><time>2026-04-10T12:40:46.999Z</time></trkpt><trkpt lat="44.30217783176953" lon="7.7979610806515085"><ele>653.0</ele><time>2026-04-10T12:40:47.999Z</time></trkpt><trkpt lat="44.30210881434543" lon="7.797851270490974"><ele>654.4</ele><time>2026-04-10T12:40:48.999Z</time></trkpt><trkpt lat="44.30203991630383" lon="7.797747825100684"><ele>655.8</ele><time>2026-04-10T12:40:49.999Z</time></trkpt><trkpt lat="44.30196121702119" lon="7.79764718126495"><ele>657.2</ele><time>2026-04-10T12:40:50.999Z</time></trkpt><trkpt lat="44.301874894668664" lon="7.797560398659155"><ele>658.6</ele><time>2026-04-10T12:40:51.999Z</time></trkpt><trkpt lat="44.301786789367334" lon="7.797489113553435"><ele>660.0</ele><time>2026-04-10T12:40:52.999Z</time></trkpt><trkpt lat="44.301692129488885" lon="7.797426565288825"><ele>660.0</ele><time>2026-04-10T12:40:53.999Z</time></trkpt><trkpt lat="44.30159801559" lon="7.7973716186958875"><ele>660.0</ele><time>2026-04-10T12:40:54.999Z</time></trkpt><trkpt lat="44.30149675105136" lon="7.79732643937562"><ele>660.0</ele><time>2026-04-10T12:40:55.999Z</time></trkpt><trkpt lat="44.30139286443331" lon="7.797290316300428"><ele>660.0</ele><time>2026-04-10T12:40:56.999Z</time></trkpt><trkpt lat="44.301296774587215" lon="7.797254885954136"><ele>660.0</ele><time>2026-04-10T12:40:57.999Z</time></trkpt><trkpt lat="44.3012010097158" lon="7.797214839205966"><ele>660.8333333333334</ele><time>2026-04-10T12:40:58.999Z</time></trkpt><trkpt lat="44.30111250321783" lon="7.797160055381804"><ele>661.6666666666666</ele><time>2026-04-10T12:40:59.999Z</time></trkpt><trkpt lat="44.301029798331164" lon="7.797102002830612"><ele>662.5</ele><time>2026-04-10T12:41:00.999Z</time></trkpt><trkpt lat="44.300959117099914" lon="7.797039351459411"><ele>663.3333333333333</ele><time>2026-04-10T12:41:01.999Z</time></trkpt><trkpt lat="44.30089147176163" lon="7.796975580807273"><ele>664.1666666666666</ele><time>2026-04-10T12:41:02.999Z</time></trkpt><trkpt lat="44.30083200031945" lon="7.796924613812613"><ele>665.0</ele><time>2026-04-10T12:41:03.999Z</time></trkpt><trkpt lat="44.30077757752328" lon="7.796866357738116"><ele>664.6</ele><time>2026-04-10T12:41:04.999Z</time></trkpt><trkpt lat="44.300723796068276" lon="7.796812899023716"><ele>664.2</ele><time>2026-04-10T12:41:05.999Z</time></trkpt><trkpt lat="44.3006564066028" lon="7.796683523916381"><ele>663.8</ele><time>2026-04-10T12:41:07.999Z</time></trkpt><trkpt lat="44.300679945459656" lon="7.79650474767758"><ele>663.4</ele><time>2026-04-10T12:41:09.999Z</time></trkpt><trkpt lat="44.300695132335896" lon="7.796404305789608"><ele>663.0</ele><time>2026-04-10T12:41:10.999Z</time></trkpt><trkpt lat="44.30068275507611" lon="7.796285059131701"><ele>663.0</ele><time>2026-04-10T12:41:11.999Z</time></trkpt><trkpt lat="44.30064554723787" lon="7.796158424400067"><ele>663.0</ele><time>2026-04-10T12:41:12.999Z</time></trkpt><trkpt lat="44.30060418607565" lon="7.7960375488318014"><ele>663.0</ele><time>2026-04-10T12:41:13.999Z</time></trkpt><trkpt lat="44.30056967481041" lon="7.79590142689953"><ele>663.0</ele><time>2026-04-10T12:41:14.998Z</time></trkpt><trkpt lat="44.300540340803316" lon="7.795756187168173"><ele>663.0</ele><time>2026-04-10T12:41:15.998Z</time></trkpt><trkpt lat="44.30052957889738" lon="7.795630107570696"><ele>664.8333333333334</ele><time>2026-04-10T12:41:16.998Z</time></trkpt><trkpt lat="44.300522563429986" lon="7.795502892583949"><ele>666.6666666666666</ele><time>2026-04-10T12:41:17.998Z</time></trkpt><trkpt lat="44.30052907026251" lon="7.795363535458824"><ele>668.5</ele><time>2026-04-10T12:41:18.998Z</time></trkpt><trkpt lat="44.30053177188649" lon="7.795246847213076"><ele>670.3333333333333</ele><time>2026-04-10T12:41:19.998Z</time></trkpt><trkpt lat="44.30051844396351" lon="7.795125394480962"><ele>672.1666666666666</ele><time>2026-04-10T12:41:20.998Z</time></trkpt><trkpt lat="44.30050122281564" lon="7.795010204536936"><ele>674.0</ele><time>2026-04-10T12:41:21.998Z</time></trkpt><trkpt lat="44.30047604522255" lon="7.794903304373498"><ele>674.0</ele><time>2026-04-10T12:41:22.998Z</time></trkpt><trkpt lat="44.30042386448241" lon="7.794811597369419"><ele>674.0</ele><time>2026-04-10T12:41:23.998Z</time></trkpt><trkpt lat="44.300357097723264" lon="7.79472730871256"><ele>674.0</ele><time>2026-04-10T12:41:24.998Z</time></trkpt><trkpt lat="44.30028303481762" lon="7.794644982320875"><ele>674.0</ele><time>2026-04-10T12:41:25.998Z</time></trkpt><trkpt lat="44.30020436866872" lon="7.794569074001039"><ele>674.0</ele><time>2026-04-10T12:41:26.998Z</time></trkpt><trkpt lat="44.30013017352674" lon="7.794507343314284"><ele>674.0</ele><time>2026-04-10T12:41:28Z</time></trkpt><trkpt lat="44.30005378189392" lon="7.794461958583218"><ele>674.0</ele><time>2026-04-10T12:41:29Z</time></trkpt><trkpt lat="44.299979214742876" lon="7.794420169570362"><ele>674.0</ele><time>2026-04-10T12:41:30Z</time></trkpt><trkpt lat="44.29990284076034" lon="7.794374294689224"><ele>674.0</ele><time>2026-04-10T12:41:31Z</time></trkpt><trkpt lat="44.29981597637547" lon="7.794309686195186"><ele>674.0</ele><time>2026-04-10T12:41:32Z</time></trkpt><trkpt lat="44.29972721819187" lon="7.794249988044178"><ele>674.0</ele><time>2026-04-10T12:41:33Z</time></trkpt><trkpt lat="44.299642751667676" lon="7.794184702734363"><ele>674.4000000000001</ele><time>2026-04-10T12:41:34Z</time></trkpt><trkpt lat="44.29955692302999" lon="7.794097178409368"><ele>674.8</ele><time>2026-04-10T12:41:35Z</time></trkpt><trkpt lat="44.29949073627829" lon="7.794001092109351"><ele>675.2</ele><time>2026-04-10T12:41:36Z</time></trkpt><trkpt lat="44.29943107593422" lon="7.7938904092483146"><ele>675.5999999999999</ele><time>2026-04-10T12:41:37Z</time></trkpt><trkpt lat="44.29937801217525" lon="7.793780165720115"><ele>676.0</ele><time>2026-04-10T12:41:38Z</time></trkpt><trkpt lat="44.29931841691865" lon="7.793658769230265"><ele>676.0</ele><time>2026-04-10T12:41:39Z</time></trkpt><trkpt lat="44.299238626187005" lon="7.793544493290297"><ele>676.0</ele><time>2026-04-10T12:41:40Z</time></trkpt><trkpt lat="44.299150121961105" lon="7.793425032334243"><ele>676.0</ele><time>2026-04-10T12:41:41Z</time></trkpt><trkpt lat="44.29905669751218" lon="7.793332946386506"><ele>676.0</ele><time>2026-04-10T12:41:42Z</time></trkpt><trkpt lat="44.298957722403976" lon="7.793233796423306"><ele>678.75</ele><time>2026-04-10T12:41:43Z</time></trkpt><trkpt lat="44.29885065195929" lon="7.7931209080213435"><ele>681.5</ele><time>2026-04-10T12:41:44Z</time></trkpt><trkpt lat="44.29874316109432" lon="7.793010175076554"><ele>684.25</ele><time>2026-04-10T12:41:45Z</time></trkpt><trkpt lat="44.29863909108621" lon="7.792880434343082"><ele>687.0</ele><time>2026-04-10T12:41:46Z</time></trkpt><trkpt lat="44.29854480917423" lon="7.792743314909378"><ele>688.75</ele><time>2026-04-10T12:41:47Z</time></trkpt><trkpt lat="44.298454948100634" lon="7.792595389479178"><ele>690.5</ele><time>2026-04-10T12:41:48Z</time></trkpt><trkpt lat="44.29839163581437" lon="7.792430259611927"><ele>692.25</ele><time>2026-04-10T12:41:49Z</time></trkpt><trkpt lat="44.29834143134648" lon="7.792246075553515"><ele>694.0</ele><time>2026-04-10T12:41:50Z</time></trkpt><trkpt lat="44.2983008198079" lon="7.792057340624728"><ele>694.0</ele><time>2026-04-10T12:41:51Z</time></trkpt><trkpt lat="44.29826052758345" lon="7.7918631738151"><ele>694.0</ele><time>2026-04-10T12:41:52Z</time></trkpt><trkpt lat="44.298207689474204" lon="7.79167942021375"><ele>694.0</ele><time>2026-04-10T12:41:53Z</time></trkpt><trkpt lat="44.29814028876126" lon="7.79149377574844"><ele>694.0</ele><time>2026-04-10T12:41:54Z</time></trkpt><trkpt lat="44.298053434261234" lon="7.791309727406826"><ele>697.0</ele><time>2026-04-10T12:41:55Z</time></trkpt><trkpt lat="44.297949026742245" lon="7.791141023581805"><ele>700.0</ele><time>2026-04-10T12:41:56Z</time></trkpt><trkpt lat="44.2978254549017" lon="7.790977807079065"><ele>703.0</ele><time>2026-04-10T12:41:57Z</time></trkpt><trkpt lat="44.29769989594555" lon="7.790822489657284"><ele>704.6666666666667</ele><time>2026-04-10T12:41:58Z</time></trkpt><trkpt lat="44.29756873516577" lon="7.790661894229865"><ele>706.3333333333334</ele><time>2026-04-10T12:41:59Z</time></trkpt><trkpt lat="44.29742724167419" lon="7.790509025727575"><ele>708.0</ele><time>2026-04-10T12:42:00Z</time></trkpt><trkpt lat="44.29729496923077" lon="7.79036397712843"><ele>707.0</ele><time>2026-04-10T12:42:01Z</time></trkpt><trkpt lat="44.29716054839199" lon="7.79020279515661"><ele>706.0</ele><time>2026-04-10T12:42:02Z</time></trkpt><trkpt lat="44.29702683058554" lon="7.7900235959358195"><ele>705.0</ele><time>2026-04-10T12:42:03Z</time></trkpt><trkpt lat="44.29689517499978" lon="7.789847093626996"><ele>705.0</ele><time>2026-04-10T12:42:04Z</time></trkpt><trkpt lat="44.29677634373427" lon="7.789649418011483"><ele>705.0</ele><time>2026-04-10T12:42:05Z</time></trkpt><trkpt lat="44.29666405958248" lon="7.789457161774585"><ele>705.0</ele><time>2026-04-10T12:42:06Z</time></trkpt><trkpt lat="44.29655941373403" lon="7.789285124310597"><ele>705.5</ele><time>2026-04-10T12:42:07Z</time></trkpt><trkpt lat="44.29645676227066" lon="7.7891182311687945"><ele>706.0</ele><time>2026-04-10T12:42:08Z</time></trkpt><trkpt lat="44.29636753215653" lon="7.788970710425672"><ele>706.5</ele><time>2026-04-10T12:42:09Z</time></trkpt><trkpt lat="44.296280764003896" lon="7.788833146007174"><ele>707.0</ele><time>2026-04-10T12:42:10Z</time></trkpt><trkpt lat="44.2961996426669" lon="7.788714903642414"><ele>707.0</ele><time>2026-04-10T12:42:11Z</time></trkpt><trkpt lat="44.29609347350223" lon="7.788589679045825"><ele>707.0</ele><time>2026-04-10T12:42:12Z</time></trkpt><trkpt lat="44.29597784669202" lon="7.788480358940411"><ele>707.0</ele><time>2026-04-10T12:42:13Z</time></trkpt><trkpt lat="44.295852781202434" lon="7.788391598925355"><ele>707.0</ele><time>2026-04-10T12:42:13.999Z</time></trkpt><trkpt lat="44.29572573667582" lon="7.788312149081025"><ele>709.25</ele><time>2026-04-10T12:42:14.999Z</time></trkpt><trkpt lat="44.29559964625196" lon="7.788246672503118"><ele>711.5</ele><time>2026-04-10T12:42:15.999Z</time></trkpt><trkpt lat="44.295481948364554" lon="7.788174422569887"><ele>713.75</ele><time>2026-04-10T12:42:16.999Z</time></trkpt><trkpt lat="44.295376717282295" lon="7.788123681859609"><ele>716.0</ele><time>2026-04-10T12:42:17.999Z</time></trkpt><trkpt lat="44.29527552017458" lon="7.7880648016228236"><ele>716.0</ele><time>2026-04-10T12:42:18.999Z</time></trkpt><trkpt lat="44.29516479807019" lon="7.787986469365704"><ele>716.0</ele><time>2026-04-10T12:42:19.999Z</time></trkpt><trkpt lat="44.29505250669429" lon="7.787885607392952"><ele>716.0</ele><time>2026-04-10T12:42:20.999Z</time></trkpt><trkpt lat="44.2949443154358" lon="7.78778152908227"><ele>716.0</ele><time>2026-04-10T12:42:21.999Z</time></trkpt><trkpt lat="44.29482783077628" lon="7.787667464394721"><ele>721.75</ele><time>2026-04-10T12:42:22.999Z</time></trkpt><trkpt lat="44.29474578073944" lon="7.787511866704183"><ele>727.5</ele><time>2026-04-10T12:42:23.999Z</time></trkpt><trkpt lat="44.29466660131056" lon="7.787372047911274"><ele>733.25</ele><time>2026-04-10T12:42:24.999Z</time></trkpt><trkpt lat="44.29459192620658" lon="7.787231806215333"><ele>739.0</ele><time>2026-04-10T12:42:25.999Z</time></trkpt><trkpt lat="44.2945088160793" lon="7.787088281711438"><ele>739.0</ele><time>2026-04-10T12:42:26.999Z</time></trkpt><trkpt lat="44.29442773846765" lon="7.78694591039092"><ele>739.0</ele><time>2026-04-10T12:42:27.999Z</time></trkpt><trkpt lat="44.29434438737787" lon="7.786795549011484"><ele>739.0</ele><time>2026-04-10T12:42:28.999Z</time></trkpt><trkpt lat="44.29426273221906" lon="7.786658472530512"><ele>739.0</ele><time>2026-04-10T12:42:29.999Z</time></trkpt><trkpt lat="44.29416008159103" lon="7.786528425535524"><ele>739.5</ele><time>2026-04-10T12:42:30.999Z</time></trkpt><trkpt lat="44.29406396359741" lon="7.78640714857636"><ele>740.0</ele><time>2026-04-10T12:42:31.999Z</time></trkpt><trkpt lat="44.29396943608021" lon="7.786303768965527"><ele>740.5</ele><time>2026-04-10T12:42:32.999Z</time></trkpt><trkpt lat="44.293887116161024" lon="7.786194588083761"><ele>741.0</ele><time>2026-04-10T12:42:33.999Z</time></trkpt><trkpt lat="44.293816557923314" lon="7.786066287561736"><ele>747.25</ele><time>2026-04-10T12:42:34.999Z</time></trkpt><trkpt lat="44.293764818435704" lon="7.785924274120417"><ele>753.5</ele><time>2026-04-10T12:42:35.999Z</time></trkpt><trkpt lat="44.293743231750156" lon="7.78575500096974"><ele>759.75</ele><time>2026-04-10T12:42:36.999Z</time></trkpt><trkpt lat="44.29371606872002" lon="7.785589223827644"><ele>766.0</ele><time>2026-04-10T12:42:37.999Z</time></trkpt><trkpt lat="44.29373740302618" lon="7.785424829348339"><ele>766.0</ele><time>2026-04-10T12:42:38.999Z</time></trkpt><trkpt lat="44.29377171134184" lon="7.785268999989165"><ele>766.0</ele><time>2026-04-10T12:42:39.999Z</time></trkpt><trkpt lat="44.29382868722144" lon="7.785130749390734"><ele>766.0</ele><time>2026-04-10T12:42:40.999Z</time></trkpt><trkpt lat="44.29390707049905" lon="7.78501531381236"><ele>766.0</ele><time>2026-04-10T12:42:41.999Z</time></trkpt><trkpt lat="44.29400017113834" lon="7.784912244244977"><ele>764.1999999999999</ele><time>2026-04-10T12:42:42.999Z</time></trkpt><trkpt lat="44.29408090160407" lon="7.784783701676311"><ele>762.4</ele><time>2026-04-10T12:42:43.999Z</time></trkpt><trkpt lat="44.29414947221417" lon="7.784662683168506"><ele>760.6</ele><time>2026-04-10T12:42:44.999Z</time></trkpt><trkpt lat="44.29420556404023" lon="7.784544213255901"><ele>758.8</ele><time>2026-04-10T12:42:45.999Z</time></trkpt><trkpt lat="44.294251042653684" lon="7.784410409964918"><ele>757.0</ele><time>2026-04-10T12:42:46.999Z</time></trkpt><trkpt lat="44.29428354657572" lon="7.784268597634261"><ele>756.1666666666667</ele><time>2026-04-10T12:42:47.999Z</time></trkpt><trkpt lat="44.294304344672035" lon="7.784140538325618"><ele>755.3333333333334</ele><time>2026-04-10T12:42:48.999Z</time></trkpt><trkpt lat="44.29431982600461" lon="7.7840117528419155"><ele>754.5</ele><time>2026-04-10T12:42:49.999Z</time></trkpt><trkpt lat="44.29433285383117" lon="7.783904553864382"><ele>753.6666666666666</ele><time>2026-04-10T12:42:50.999Z</time></trkpt><trkpt lat="44.29433406362613" lon="7.78379254890054"><ele>752.8333333333333</ele><time>2026-04-10T12:42:51.999Z</time></trkpt><trkpt lat="44.294311241594706" lon="7.783702484188433"><ele>752.0</ele><time>2026-04-10T12:42:52.999Z</time></trkpt><trkpt lat="44.29426323157188" lon="7.783609040218209"><ele>752.0</ele><time>2026-04-10T12:42:53.999Z</time></trkpt><trkpt lat="44.294196825256286" lon="7.783530880290471"><ele>752.0</ele><time>2026-04-10T12:42:54.999Z</time></trkpt><trkpt lat="44.29411409543166" lon="7.783472144277405"><ele>752.0</ele><time>2026-04-10T12:42:55.999Z</time></trkpt><trkpt lat="44.29402059835518" lon="7.783426757347043"><ele>752.0</ele><time>2026-04-10T12:42:56.999Z</time></trkpt><trkpt lat="44.29392751285373" lon="7.7833875876087335"><ele>752.0</ele><time>2026-04-10T12:42:57.999Z</time></trkpt><trkpt lat="44.29382754462919" lon="7.783322782732469"><ele>756.2</ele><time>2026-04-10T12:42:58.999Z</time></trkpt><trkpt lat="44.29376036339385" lon="7.783238873739559"><ele>760.4000000000001</ele><time>2026-04-10T12:42:59.999Z</time></trkpt><trkpt lat="44.29370366433365" lon="7.783140874688732"><ele>764.5999999999999</ele><time>2026-04-10T12:43:00.999Z</time></trkpt><trkpt lat="44.29367829034187" lon="7.7830005953147"><ele>768.8</ele><time>2026-04-10T12:43:01.999Z</time></trkpt><trkpt lat="44.29366084797928" lon="7.782848210197804"><ele>773.0</ele><time>2026-04-10T12:43:02.999Z</time></trkpt><trkpt lat="44.29364134075294" lon="7.782693375376316"><ele>771.5</ele><time>2026-04-10T12:43:03.999Z</time></trkpt><trkpt lat="44.29362010615818" lon="7.782531032428522"><ele>770.0</ele><time>2026-04-10T12:43:04.999Z</time></trkpt><trkpt lat="44.29359640592366" lon="7.782366836834353"><ele>768.5</ele><time>2026-04-10T12:43:05.999Z</time></trkpt><trkpt lat="44.2935555963704" lon="7.782201316056256"><ele>767.0</ele><time>2026-04-10T12:43:06.999Z</time></trkpt><trkpt lat="44.293492528482936" lon="7.782026827447354"><ele>767.0</ele><time>2026-04-10T12:43:07.999Z</time></trkpt><trkpt lat="44.29340466114521" lon="7.781858988156799"><ele>767.0</ele><time>2026-04-10T12:43:08.999Z</time></trkpt><trkpt lat="44.29331542170998" lon="7.78170022187863"><ele>767.0</ele><time>2026-04-10T12:43:09.999Z</time></trkpt><trkpt lat="44.29321987146264" lon="7.781535410948989"><ele>767.0</ele><time>2026-04-10T12:43:10.999Z</time></trkpt><trkpt lat="44.293123784817" lon="7.781370754195554"><ele>766.5</ele><time>2026-04-10T12:43:11.999Z</time></trkpt><trkpt lat="44.29302917806529" lon="7.781211342694086"><ele>766.0</ele><time>2026-04-10T12:43:12.999Z</time></trkpt><trkpt lat="44.29293598526519" lon="7.781051733623607"><ele>765.5</ele><time>2026-04-10T12:43:13.999Z</time></trkpt><trkpt lat="44.2928516268668" lon="7.780907081455921"><ele>765.0</ele><time>2026-04-10T12:43:14.999Z</time></trkpt><trkpt lat="44.29277403337952" lon="7.780777270710507"><ele>765.0</ele><time>2026-04-10T12:43:15.999Z</time></trkpt><trkpt lat="44.2927068207909" lon="7.780650029409057"><ele>765.0</ele><time>2026-04-10T12:43:16.999Z</time></trkpt><trkpt lat="44.29264425007685" lon="7.780538448119519"><ele>765.0</ele><time>2026-04-10T12:43:17.999Z</time></trkpt><trkpt lat="44.292604320708136" lon="7.780382413188482"><ele>765.0</ele><time>2026-04-10T12:43:18.999Z</time></trkpt><trkpt lat="44.292595771162844" lon="7.780222861514327"><ele>765.0</ele><time>2026-04-10T12:43:19.998Z</time></trkpt><trkpt lat="44.292576237080596" lon="7.7800506606953235"><ele>766.75</ele><time>2026-04-10T12:43:20.998Z</time></trkpt><trkpt lat="44.292579632353245" lon="7.779847563663083"><ele>768.5</ele><time>2026-04-10T12:43:21.998Z</time></trkpt><trkpt lat="44.29256649972945" lon="7.779650503872127"><ele>770.25</ele><time>2026-04-10T12:43:22.998Z</time></trkpt><trkpt lat="44.29256062801368" lon="7.779450639145217"><ele>772.0</ele><time>2026-04-10T12:43:23.998Z</time></trkpt><trkpt lat="44.29255941176448" lon="7.7792536990304475"><ele>772.75</ele><time>2026-04-10T12:43:24.998Z</time></trkpt><trkpt lat="44.29256687560536" lon="7.779088724262894"><ele>773.5</ele><time>2026-04-10T12:43:25.998Z</time></trkpt><trkpt lat="44.2925707591847" lon="7.778912909452948"><ele>774.25</ele><time>2026-04-10T12:43:26.998Z</time></trkpt><trkpt lat="44.29259577094743" lon="7.778740879194554"><ele>775.0</ele><time>2026-04-10T12:43:27.998Z</time></trkpt><trkpt lat="44.29262232330425" lon="7.778580744504468"><ele>775.5</ele><time>2026-04-10T12:43:28.998Z</time></trkpt><trkpt lat="44.29263533033779" lon="7.778406605225296"><ele>776.0</ele><time>2026-04-10T12:43:29.998Z</time></trkpt><trkpt lat="44.29263590554518" lon="7.778231601476479"><ele>776.5</ele><time>2026-04-10T12:43:30.998Z</time></trkpt><trkpt lat="44.29263032282652" lon="7.778066978537845"><ele>777.0</ele><time>2026-04-10T12:43:31.998Z</time></trkpt><trkpt lat="44.29261756168712" lon="7.77791135624558"><ele>777.0</ele><time>2026-04-10T12:43:32.998Z</time></trkpt><trkpt lat="44.29260642118197" lon="7.777764745444942"><ele>777.0</ele><time>2026-04-10T12:43:34Z</time></trkpt><trkpt lat="44.292589067014156" lon="7.777610600284864"><ele>777.0</ele><time>2026-04-10T12:43:35Z</time></trkpt><trkpt lat="44.29256307467493" lon="7.777476451717953"><ele>777.0</ele><time>2026-04-10T12:43:36Z</time></trkpt><trkpt lat="44.29252728771257" lon="7.777335168238283"><ele>777.0</ele><time>2026-04-10T12:43:37Z</time></trkpt><trkpt lat="44.292489137124385" lon="7.777214158939548"><ele>778.4000000000001</ele><time>2026-04-10T12:43:38Z</time></trkpt><trkpt lat="44.2924432475875" lon="7.77708899999205"><ele>779.8000000000001</ele><time>2026-04-10T12:43:39Z</time></trkpt><trkpt lat="44.29238079951644" lon="7.776974763386597"><ele>781.2</ele><time>2026-04-10T12:43:40Z</time></trkpt><trkpt lat="44.29231086900798" lon="7.7768788633140415"><ele>782.6</ele><time>2026-04-10T12:43:41Z</time></trkpt><trkpt lat="44.2922093184684" lon="7.776820396271312"><ele>784.0</ele><time>2026-04-10T12:43:42Z</time></trkpt><trkpt lat="44.292105394061004" lon="7.776755339337126"><ele>784.5</ele><time>2026-04-10T12:43:43Z</time></trkpt><trkpt lat="44.29197951707409" lon="7.776717528645653"><ele>785.0</ele><time>2026-04-10T12:43:44Z</time></trkpt><trkpt lat="44.291854986759596" lon="7.776706905472905"><ele>785.5</ele><time>2026-04-10T12:43:45Z</time></trkpt><trkpt lat="44.29174149752361" lon="7.776696150071904"><ele>786.0</ele><time>2026-04-10T12:43:46Z</time></trkpt><trkpt lat="44.29164166969224" lon="7.7766729803678425"><ele>786.0</ele><time>2026-04-10T12:43:47Z</time></trkpt><trkpt lat="44.29155128266805" lon="7.776662005039911"><ele>786.0</ele><time>2026-04-10T12:43:48Z</time></trkpt><trkpt lat="44.29144771561596" lon="7.7766311644352735"><ele>786.0</ele><time>2026-04-10T12:43:49Z</time></trkpt><trkpt lat="44.2913568601066" lon="7.77658221948051"><ele>786.0</ele><time>2026-04-10T12:43:50Z</time></trkpt><trkpt lat="44.291273179450535" lon="7.776493423828881"><ele>786.0</ele><time>2026-04-10T12:43:51Z</time></trkpt><trkpt lat="44.2911768145313" lon="7.776402884811144"><ele>785.5</ele><time>2026-04-10T12:43:52Z</time></trkpt><trkpt lat="44.29109717409219" lon="7.7762855978775045"><ele>785.0</ele><time>2026-04-10T12:43:53Z</time></trkpt><trkpt lat="44.291003448099296" lon="7.7761900819643595"><ele>784.5</ele><time>2026-04-10T12:43:54Z</time></trkpt><trkpt lat="44.290917978288434" lon="7.776076269786281"><ele>784.0</ele><time>2026-04-10T12:43:55Z</time></trkpt><trkpt lat="44.29084766511097" lon="7.775965798843443"><ele>784.0</ele><time>2026-04-10T12:43:56Z</time></trkpt><trkpt lat="44.29076894795363" lon="7.77587516994991"><ele>784.0</ele><time>2026-04-10T12:43:57Z</time></trkpt><trkpt lat="44.29069840040768" lon="7.775775694953979"><ele>784.0</ele><time>2026-04-10T12:43:58Z</time></trkpt><trkpt lat="44.2906496470243" lon="7.775655741043708"><ele>784.0</ele><time>2026-04-10T12:43:59Z</time></trkpt><trkpt lat="44.290603239518276" lon="7.77553248553156"><ele>784.0</ele><time>2026-04-10T12:44:00Z</time></trkpt><trkpt lat="44.29055466317728" lon="7.775403208855143"><ele>785.8000000000001</ele><time>2026-04-10T12:44:01Z</time></trkpt><trkpt lat="44.29050159852543" lon="7.775282635675261"><ele>787.6</ele><time>2026-04-10T12:44:02Z</time></trkpt><trkpt lat="44.290447094804655" lon="7.775166061726438"><ele>789.4</ele><time>2026-04-10T12:44:03Z</time></trkpt><trkpt lat="44.29037815588961" lon="7.775058168857043"><ele>791.2</ele><time>2026-04-10T12:44:04Z</time></trkpt><trkpt lat="44.29030327160528" lon="7.774949449923216"><ele>793.0</ele><time>2026-04-10T12:44:05Z</time></trkpt><trkpt lat="44.290233607151826" lon="7.774845475791494"><ele>793.0</ele><time>2026-04-10T12:44:06Z</time></trkpt><trkpt lat="44.29016528991903" lon="7.774735421491489"><ele>793.0</ele><time>2026-04-10T12:44:07Z</time></trkpt><trkpt lat="44.29009503350964" lon="7.7746274830092235"><ele>793.0</ele><time>2026-04-10T12:44:08Z</time></trkpt><trkpt lat="44.29002612678714" lon="7.774524219890495"><ele>793.0</ele><time>2026-04-10T12:44:09Z</time></trkpt><trkpt lat="44.289957211685184" lon="7.774421723285268"><ele>793.0</ele><time>2026-04-10T12:44:10Z</time></trkpt><trkpt lat="44.28988347448522" lon="7.774317839214711"><ele>795.0</ele><time>2026-04-10T12:44:11Z</time></trkpt><trkpt lat="44.28979974623246" lon="7.77423546036174"><ele>797.0</ele><time>2026-04-10T12:44:12Z</time></trkpt><trkpt lat="44.289708355175335" lon="7.774153371085597"><ele>799.0</ele><time>2026-04-10T12:44:13Z</time></trkpt><trkpt lat="44.28960924811133" lon="7.77409631540346"><ele>801.0</ele><time>2026-04-10T12:44:14Z</time></trkpt><trkpt lat="44.289511097819236" lon="7.77404035183119"><ele>803.0</ele><time>2026-04-10T12:44:15Z</time></trkpt><trkpt lat="44.28940955654562" lon="7.773989346830308"><ele>803.5999999999999</ele><time>2026-04-10T12:44:16Z</time></trkpt><trkpt lat="44.28931629359826" lon="7.77394018603379"><ele>804.1999999999999</ele><time>2026-04-10T12:44:17Z</time></trkpt><trkpt lat="44.289225351634805" lon="7.773897720088669"><ele>804.8</ele><time>2026-04-10T12:44:18Z</time></trkpt><trkpt lat="44.289127903943275" lon="7.7738454141131"><ele>805.4</ele><time>2026-04-10T12:44:18.999Z</time></trkpt><trkpt lat="44.28903857255767" lon="7.773801611158083"><ele>806.0</ele><time>2026-04-10T12:44:19.999Z</time></trkpt><trkpt lat="44.28894632458565" lon="7.773749853093225"><ele>809.0</ele><time>2026-04-10T12:44:20.999Z</time></trkpt><trkpt lat="44.28885046120474" lon="7.773696631137552"><ele>812.0</ele><time>2026-04-10T12:44:21.999Z</time></trkpt><trkpt lat="44.288753268263115" lon="7.7736452154850335"><ele>815.0</ele><time>2026-04-10T12:44:22.999Z</time></trkpt><trkpt lat="44.28866141080526" lon="7.7736038689251865"><ele>818.0</ele><time>2026-04-10T12:44:23.999Z</time></trkpt><trkpt lat="44.288564695777" lon="7.7735652846141585"><ele>821.0</ele><time>2026-04-10T12:44:24.999Z</time></trkpt><trkpt lat="44.28847475001115" lon="7.7735226164116495"><ele>823.0</ele><time>2026-04-10T12:44:25.999Z</time></trkpt><trkpt lat="44.28838229984331" lon="7.773474154156626"><ele>825.0</ele><time>2026-04-10T12:44:26.999Z</time></trkpt><trkpt lat="44.28829010998279" lon="7.773414189054062"><ele>827.0</ele><time>2026-04-10T12:44:27.999Z</time></trkpt><trkpt lat="44.28820022091505" lon="7.773355396684776"><ele>829.0</ele><time>2026-04-10T12:44:28.999Z</time></trkpt><trkpt lat="44.288105200531085" lon="7.773290051526932"><ele>831.0</ele><time>2026-04-10T12:44:29.999Z</time></trkpt><trkpt lat="44.288006071949944" lon="7.773222286685437"><ele>831.0</ele><time>2026-04-10T12:44:30.999Z</time></trkpt><trkpt lat="44.287904458095" lon="7.773150945292159"><ele>831.0</ele><time>2026-04-10T12:44:31.999Z</time></trkpt><trkpt lat="44.28780851827785" lon="7.773081665480746"><ele>831.0</ele><time>2026-04-10T12:44:32.999Z</time></trkpt><trkpt lat="44.28771372089938" lon="7.7730080421489856"><ele>831.0</ele><time>2026-04-10T12:44:33.999Z</time></trkpt><trkpt lat="44.28760610087892" lon="7.772919159484058"><ele>831.0</ele><time>2026-04-10T12:44:34.999Z</time></trkpt><trkpt lat="44.287501727074414" lon="7.772843439947324"><ele>831.0</ele><time>2026-04-10T12:44:35.999Z</time></trkpt><trkpt lat="44.287393428040694" lon="7.772764314590841"><ele>831.0</ele><time>2026-04-10T12:44:36.999Z</time></trkpt><trkpt lat="44.28728969329112" lon="7.772705450524723"><ele>831.0</ele><time>2026-04-10T12:44:37.999Z</time></trkpt><trkpt lat="44.28718710458317" lon="7.7726421922174405"><ele>832.5</ele><time>2026-04-10T12:44:38.999Z</time></trkpt><trkpt lat="44.28709271610291" lon="7.772552998272755"><ele>834.0</ele><time>2026-04-10T12:44:39.999Z</time></trkpt><trkpt lat="44.28698965925345" lon="7.772487881971152"><ele>835.5</ele><time>2026-04-10T12:44:40.999Z</time></trkpt><trkpt lat="44.28689076527104" lon="7.772415669330228"><ele>837.0</ele><time>2026-04-10T12:44:41.999Z</time></trkpt><trkpt lat="44.286787565994395" lon="7.7723429151703485"><ele>837.0</ele><time>2026-04-10T12:44:42.999Z</time></trkpt><trkpt lat="44.28668914550119" lon="7.772269855119273"><ele>837.0</ele><time>2026-04-10T12:44:43.999Z</time></trkpt><trkpt lat="44.286586913595016" lon="7.7721966284647905"><ele>837.0</ele><time>2026-04-10T12:44:44.999Z</time></trkpt><trkpt lat="44.28648406869565" lon="7.772124810188884"><ele>837.0</ele><time>2026-04-10T12:44:45.999Z</time></trkpt><trkpt lat="44.28638416776137" lon="7.772056896047335"><ele>837.8</ele><time>2026-04-10T12:44:46.999Z</time></trkpt><trkpt lat="44.28628838318439" lon="7.771992431798724"><ele>838.6</ele><time>2026-04-10T12:44:47.999Z</time></trkpt><trkpt lat="44.28619026148815" lon="7.771921365755261"><ele>839.4</ele><time>2026-04-10T12:44:48.999Z</time></trkpt><trkpt lat="44.28609150452831" lon="7.7718500587861685"><ele>840.1999999999999</ele><time>2026-04-10T12:44:49.999Z</time></trkpt><trkpt lat="44.28599052604655" lon="7.771767093194273"><ele>841.0</ele><time>2026-04-10T12:44:50.999Z</time></trkpt><trkpt lat="44.285893094799114" lon="7.771677906850531"><ele>841.0</ele><time>2026-04-10T12:44:51.999Z</time></trkpt><trkpt lat="44.28581214228867" lon="7.771597957054082"><ele>841.0</ele><time>2026-04-10T12:44:52.999Z</time></trkpt><trkpt lat="44.28571827240146" lon="7.771507815073377"><ele>841.0</ele><time>2026-04-10T12:44:53.999Z</time></trkpt><trkpt lat="44.285616027685755" lon="7.771410885502419"><ele>841.0</ele><time>2026-04-10T12:44:54.999Z</time></trkpt><trkpt lat="44.285509241204274" lon="7.771312649197333"><ele>841.75</ele><time>2026-04-10T12:44:55.999Z</time></trkpt><trkpt lat="44.28538736129331" lon="7.771210045718757"><ele>842.5</ele><time>2026-04-10T12:44:56.999Z</time></trkpt><trkpt lat="44.2852581713518" lon="7.7711052718778575"><ele>843.25</ele><time>2026-04-10T12:44:57.999Z</time></trkpt><trkpt lat="44.28513021305852" lon="7.771008117602953"><ele>844.0</ele><time>2026-04-10T12:44:58.999Z</time></trkpt><trkpt lat="44.284992147855384" lon="7.7709031371791815"><ele>844.0</ele><time>2026-04-10T12:44:59.999Z</time></trkpt><trkpt lat="44.28485738619278" lon="7.770789106548625"><ele>844.0</ele><time>2026-04-10T12:45:00.999Z</time></trkpt><trkpt lat="44.284708770903514" lon="7.7706782223500825"><ele>844.0</ele><time>2026-04-10T12:45:01.999Z</time></trkpt><trkpt lat="44.28456258640316" lon="7.770570346772943"><ele>849.3333333333333</ele><time>2026-04-10T12:45:02.999Z</time></trkpt><trkpt lat="44.28440919775778" lon="7.770466342544562"><ele>854.6666666666667</ele><time>2026-04-10T12:45:03.999Z</time></trkpt><trkpt lat="44.28425944040793" lon="7.770383023202629"><ele>860.0</ele><time>2026-04-10T12:45:04.999Z</time></trkpt><trkpt lat="44.284101428705625" lon="7.770303296491439"><ele>860.0</ele><time>2026-04-10T12:45:05.999Z</time></trkpt><trkpt lat="44.28394084590283" lon="7.77022457575449"><ele>860.0</ele><time>2026-04-10T12:45:06.999Z</time></trkpt><trkpt lat="44.28377989023807" lon="7.770143306098026"><ele>860.0</ele><time>2026-04-10T12:45:07.999Z</time></trkpt><trkpt lat="44.283622214033386" lon="7.770067033185928"><ele>860.6666666666667</ele><time>2026-04-10T12:45:08.999Z</time></trkpt><trkpt lat="44.28346058283119" lon="7.769976631976695"><ele>861.3333333333333</ele><time>2026-04-10T12:45:09.999Z</time></trkpt><trkpt lat="44.28330133225066" lon="7.769882437366431"><ele>862.0</ele><time>2026-04-10T12:45:10.999Z</time></trkpt><trkpt lat="44.28313746041883" lon="7.769795699680009"><ele>870.3333333333333</ele><time>2026-04-10T12:45:11.999Z</time></trkpt><trkpt lat="44.282971892850476" lon="7.769712289152229"><ele>878.6666666666667</ele><time>2026-04-10T12:45:12.999Z</time></trkpt><trkpt lat="44.28279937336697" lon="7.769646226634676"><ele>887.0</ele><time>2026-04-10T12:45:13.999Z</time></trkpt><trkpt lat="44.28262896879515" lon="7.769580430234241"><ele>887.0</ele><time>2026-04-10T12:45:14.999Z</time></trkpt><trkpt lat="44.28246542291318" lon="7.769516942065588"><ele>887.0</ele><time>2026-04-10T12:45:15.999Z</time></trkpt><trkpt lat="44.28229674643031" lon="7.7694479492463095"><ele>887.0</ele><time>2026-04-10T12:45:16.999Z</time></trkpt><trkpt lat="44.28213432633921" lon="7.769380589207094"><ele>886.0</ele><time>2026-04-10T12:45:17.999Z</time></trkpt><trkpt lat="44.28197886103086" lon="7.769312713763731"><ele>885.0</ele><time>2026-04-10T12:45:18.999Z</time></trkpt><trkpt lat="44.2818283897735" lon="7.769238492590688"><ele>884.0</ele><time>2026-04-10T12:45:19.999Z</time></trkpt><trkpt lat="44.28168365536992" lon="7.769172361724186"><ele>884.0</ele><time>2026-04-10T12:45:20.999Z</time></trkpt><trkpt lat="44.2815417254781" lon="7.769120270375873"><ele>884.0</ele><time>2026-04-10T12:45:21.999Z</time></trkpt><trkpt lat="44.281398541158794" lon="7.7690596612984235"><ele>884.0</ele><time>2026-04-10T12:45:22.999Z</time></trkpt><trkpt lat="44.28125908091791" lon="7.768988781339536"><ele>884.0</ele><time>2026-04-10T12:45:23.999Z</time></trkpt><trkpt lat="44.281122940327386" lon="7.76891421597262"><ele>889.5</ele><time>2026-04-10T12:45:24.999Z</time></trkpt><trkpt lat="44.28099298528646" lon="7.768855107208821"><ele>895.0</ele><time>2026-04-10T12:45:25.998Z</time></trkpt><trkpt lat="44.280859116739634" lon="7.7687949202624065"><ele>900.5</ele><time>2026-04-10T12:45:26.998Z</time></trkpt><trkpt lat="44.28072137965459" lon="7.76873551761654"><ele>906.0</ele><time>2026-04-10T12:45:27.998Z</time></trkpt><trkpt lat="44.280578892625755" lon="7.768693751958499"><ele>904.5</ele><time>2026-04-10T12:45:28.998Z</time></trkpt><trkpt lat="44.28043477291353" lon="7.768642778997875"><ele>903.0</ele><time>2026-04-10T12:45:29.998Z</time></trkpt><trkpt lat="44.28029239817268" lon="7.768611407377276"><ele>901.5</ele><time>2026-04-10T12:45:30.998Z</time></trkpt><trkpt lat="44.28015740418551" lon="7.7685364058289"><ele>900.0</ele><time>2026-04-10T12:45:31.998Z</time></trkpt><trkpt lat="44.28004579675049" lon="7.768484239555068"><ele>900.0</ele><time>2026-04-10T12:45:32.998Z</time></trkpt><trkpt lat="44.27994877270864" lon="7.768416379367216"><ele>900.0</ele><time>2026-04-10T12:45:33.998Z</time></trkpt><trkpt lat="44.27985480254453" lon="7.76832618673657"><ele>900.0</ele><time>2026-04-10T12:45:34.998Z</time></trkpt><trkpt lat="44.279776707157275" lon="7.7682001890329655"><ele>900.0</ele><time>2026-04-10T12:45:35.998Z</time></trkpt><trkpt lat="44.2797136920516" lon="7.768065699497725"><ele>905.0</ele><time>2026-04-10T12:45:36.998Z</time></trkpt><trkpt lat="44.2796603777065" lon="7.767934536605606"><ele>910.0</ele><time>2026-04-10T12:45:37.998Z</time></trkpt><trkpt lat="44.27960200540916" lon="7.767785202437802"><ele>915.0</ele><time>2026-04-10T12:45:38.998Z</time></trkpt><trkpt lat="44.27953028911144" lon="7.767646124871446"><ele>920.0</ele><time>2026-04-10T12:45:40Z</time></trkpt><trkpt lat="44.27945776200788" lon="7.767507495754492"><ele>920.0</ele><time>2026-04-10T12:45:41Z</time></trkpt><trkpt lat="44.27938140242793" lon="7.767353282468807"><ele>920.0</ele><time>2026-04-10T12:45:42Z</time></trkpt><trkpt lat="44.279311757007534" lon="7.767194079840437"><ele>920.0</ele><time>2026-04-10T12:45:43Z</time></trkpt><trkpt lat="44.279243086377654" lon="7.767028816194484"><ele>920.0</ele><time>2026-04-10T12:45:44Z</time></trkpt><trkpt lat="44.27917242327182" lon="7.766878230787502"><ele>918.0</ele><time>2026-04-10T12:45:45Z</time></trkpt><trkpt lat="44.279095792472724" lon="7.76673944451049"><ele>916.0</ele><time>2026-04-10T12:45:46Z</time></trkpt><trkpt lat="44.27900886709562" lon="7.766617552821022"><ele>914.0</ele><time>2026-04-10T12:45:47Z</time></trkpt><trkpt lat="44.27891062917967" lon="7.766510455659383"><ele>912.0</ele><time>2026-04-10T12:45:48Z</time></trkpt><trkpt lat="44.27881351741748" lon="7.766395408649723"><ele>917.75</ele><time>2026-04-10T12:45:49Z</time></trkpt><trkpt lat="44.27871178018295" lon="7.766318347365025"><ele>923.5</ele><time>2026-04-10T12:45:50Z</time></trkpt><trkpt lat="44.27860108905084" lon="7.766258528205914"><ele>929.25</ele><time>2026-04-10T12:45:51Z</time></trkpt><trkpt lat="44.27847318105872" lon="7.766227343895923"><ele>935.0</ele><time>2026-04-10T12:45:52Z</time></trkpt><trkpt lat="44.27834411242048" lon="7.7662109539319255"><ele>935.0</ele><time>2026-04-10T12:45:53Z</time></trkpt><trkpt lat="44.27822073430398" lon="7.766206881465129"><ele>935.0</ele><time>2026-04-10T12:45:54Z</time></trkpt><trkpt lat="44.27811524061681" lon="7.766203294601908"><ele>935.0</ele><time>2026-04-10T12:45:55Z</time></trkpt><trkpt lat="44.27802115237073" lon="7.7662125086580645"><ele>935.0</ele><time>2026-04-10T12:45:56Z</time></trkpt><trkpt lat="44.27793395026448" lon="7.766193767377026"><ele>935.0</ele><time>2026-04-10T12:45:57Z</time></trkpt><trkpt lat="44.277858531728164" lon="7.766157320570025"><ele>935.8333333333334</ele><time>2026-04-10T12:45:58Z</time></trkpt><trkpt lat="44.27779304885346" lon="7.766129489954014"><ele>936.6666666666667</ele><time>2026-04-10T12:45:59Z</time></trkpt><trkpt lat="44.27767135574068" lon="7.766082228289094"><ele>937.5</ele><time>2026-04-10T12:46:01Z</time></trkpt><trkpt lat="44.277600148680065" lon="7.766119103541523"><ele>938.3333333333333</ele><time>2026-04-10T12:46:02Z</time></trkpt><trkpt lat="44.27754672448808" lon="7.766195015377812"><ele>939.1666666666666</ele><time>2026-04-10T12:46:03Z</time></trkpt><trkpt lat="44.27755277145803" lon="7.766294818350596"><ele>940.0</ele><time>2026-04-10T12:46:04Z</time></trkpt><trkpt lat="44.2775690501321" lon="7.766383388933241"><ele>940.0</ele><time>2026-04-10T12:46:05Z</time></trkpt><trkpt lat="44.27761411463872" lon="7.766453643120745"><ele>940.0</ele><time>2026-04-10T12:46:06Z</time></trkpt><trkpt lat="44.277685913857326" lon="7.766510190518251"><ele>940.0</ele><time>2026-04-10T12:46:07Z</time></trkpt><trkpt lat="44.277775708758455" lon="7.766543935453326"><ele>940.0</ele><time>2026-04-10T12:46:08Z</time></trkpt><trkpt lat="44.277877218109644" lon="7.766573716023924"><ele>940.0</ele><time>2026-04-10T12:46:09Z</time></trkpt><trkpt lat="44.278001754082254" lon="7.766593033949037"><ele>939.1666666666666</ele><time>2026-04-10T12:46:10Z</time></trkpt><trkpt lat="44.278114589891274" lon="7.766636848682404"><ele>938.3333333333333</ele><time>2026-04-10T12:46:11Z</time></trkpt><trkpt lat="44.278221567495194" lon="7.766664647856787"><ele>937.5</ele><time>2026-04-10T12:46:12Z</time></trkpt><trkpt lat="44.27830872540077" lon="7.766678663874535"><ele>936.6666666666667</ele><time>2026-04-10T12:46:13Z</time></trkpt><trkpt lat="44.27837133033241" lon="7.766709511194001"><ele>935.8333333333334</ele><time>2026-04-10T12:46:14Z</time></trkpt><trkpt lat="44.278432423396865" lon="7.76674324523361"><ele>935.0</ele><time>2026-04-10T12:46:15Z</time></trkpt><trkpt lat="44.27847956203069" lon="7.766802305074575"><ele>935.8333333333334</ele><time>2026-04-10T12:46:16Z</time></trkpt><trkpt lat="44.27848570212351" lon="7.766917981059576"><ele>936.6666666666667</ele><time>2026-04-10T12:46:18Z</time></trkpt><trkpt lat="44.278409348032696" lon="7.766971915666688"><ele>937.5</ele><time>2026-04-10T12:46:20Z</time></trkpt><trkpt lat="44.2783429780425" lon="7.766935992441074"><ele>938.3333333333333</ele><time>2026-04-10T12:46:21Z</time></trkpt><trkpt lat="44.27826994443566" lon="7.766898239250447"><ele>939.1666666666666</ele><time>2026-04-10T12:46:22Z</time></trkpt><trkpt lat="44.27818584432285" lon="7.766884710095833"><ele>940.0</ele><time>2026-04-10T12:46:23Z</time></trkpt><trkpt lat="44.27809438610718" lon="7.766849522314775"><ele>943.8</ele><time>2026-04-10T12:46:24Z</time></trkpt><trkpt lat="44.27799443819796" lon="7.766875135288132"><ele>947.6</ele><time>2026-04-10T12:46:25Z</time></trkpt><trkpt lat="44.27789846418343" lon="7.766891437267654"><ele>951.4000000000001</ele><time>2026-04-10T12:46:26Z</time></trkpt><trkpt lat="44.27779093908635" lon="7.766903366691934"><ele>955.2</ele><time>2026-04-10T12:46:26.999Z</time></trkpt><trkpt lat="44.27769140918517" lon="7.766978224814533"><ele>959.0</ele><time>2026-04-10T12:46:27.999Z</time></trkpt><trkpt lat="44.277589906499024" lon="7.767024165812249"><ele>959.0</ele><time>2026-04-10T12:46:28.999Z</time></trkpt><trkpt lat="44.27749017244662" lon="7.767125823482062"><ele>959.0</ele><time>2026-04-10T12:46:29.999Z</time></trkpt><trkpt lat="44.27740057223971" lon="7.767269142529653"><ele>959.0</ele><time>2026-04-10T12:46:30.999Z</time></trkpt><trkpt lat="44.27732556357687" lon="7.767407232629381"><ele>959.0</ele><time>2026-04-10T12:46:31.999Z</time></trkpt><trkpt lat="44.27725964740154" lon="7.767524893011434"><ele>959.3333333333334</ele><time>2026-04-10T12:46:32.999Z</time></trkpt><trkpt lat="44.27720298116056" lon="7.767626042260293"><ele>959.6666666666667</ele><time>2026-04-10T12:46:33.999Z</time></trkpt><trkpt lat="44.27715234795129" lon="7.767716422550695"><ele>960.0</ele><time>2026-04-10T12:46:34.999Z</time></trkpt><trkpt lat="44.27710754999832" lon="7.767800509629638"><ele>960.3333333333333</ele><time>2026-04-10T12:46:35.999Z</time></trkpt><trkpt lat="44.277031252324214" lon="7.767845602105209"><ele>960.6666666666666</ele><time>2026-04-10T12:46:36.999Z</time></trkpt><trkpt lat="44.276950161256536" lon="7.767845830507377"><ele>961.0</ele><time>2026-04-10T12:46:37.999Z</time></trkpt><trkpt lat="44.27688486876603" lon="7.767786698077458"><ele>961.0</ele><time>2026-04-10T12:46:38.999Z</time></trkpt><trkpt lat="44.276832899743894" lon="7.767690965395786"><ele>960.9999999999999</ele><time>2026-04-10T12:46:39.999Z</time></trkpt><trkpt lat="44.27679205270424" lon="7.767578103188965"><ele>960.9999999999999</ele><time>2026-04-10T12:46:40.999Z</time></trkpt><trkpt lat="44.27673404640429" lon="7.767480859045893"><ele>961.0</ele><time>2026-04-10T12:46:41.999Z</time></trkpt><trkpt lat="44.276660951259565" lon="7.7673957384237795"><ele>961.0</ele><time>2026-04-10T12:46:42.999Z</time></trkpt><trkpt lat="44.27657914171618" lon="7.7673286096604555"><ele>961.0</ele><time>2026-04-10T12:46:43.999Z</time></trkpt><trkpt lat="44.276491587730035" lon="7.767264645319679"><ele>960.9999999999999</ele><time>2026-04-10T12:46:44.999Z</time></trkpt><trkpt lat="44.27638768888838" lon="7.767219272500042"><ele>960.9999999999999</ele><time>2026-04-10T12:46:45.999Z</time></trkpt><trkpt lat="44.27627835128657" lon="7.767189510226284"><ele>961.0</ele><time>2026-04-10T12:46:46.999Z</time></trkpt><trkpt lat="44.27615978765964" lon="7.767175206878791"><ele>961.0</ele><time>2026-04-10T12:46:47.999Z</time></trkpt><trkpt lat="44.2760372961248" lon="7.767163674183348"><ele>966.25</ele><time>2026-04-10T12:46:48.999Z</time></trkpt><trkpt lat="44.27592096332388" lon="7.767152827845767"><ele>971.5</ele><time>2026-04-10T12:46:49.999Z</time></trkpt><trkpt lat="44.27580204101354" lon="7.767146929170929"><ele>976.75</ele><time>2026-04-10T12:46:50.999Z</time></trkpt><trkpt lat="44.27567523630894" lon="7.767139202395198"><ele>982.0</ele><time>2026-04-10T12:46:51.999Z</time></trkpt><trkpt lat="44.275568709635614" lon="7.7671407316631"><ele>982.6</ele><time>2026-04-10T12:46:52.999Z</time></trkpt><trkpt lat="44.275477495144045" lon="7.767144469680211"><ele>983.2</ele><time>2026-04-10T12:46:53.999Z</time></trkpt><trkpt lat="44.275376336998605" lon="7.767141836160084"><ele>983.8</ele><time>2026-04-10T12:46:54.999Z</time></trkpt><trkpt lat="44.27527421966178" lon="7.767163031027021"><ele>984.4</ele><time>2026-04-10T12:46:55.999Z</time></trkpt><trkpt lat="44.27517285104458" lon="7.767210973218965"><ele>985.0</ele><time>2026-04-10T12:46:56.999Z</time></trkpt><trkpt lat="44.27508334946695" lon="7.76725868670434"><ele>985.0</ele><time>2026-04-10T12:46:57.999Z</time></trkpt><trkpt lat="44.275002007673564" lon="7.767281807190472"><ele>985.0</ele><time>2026-04-10T12:46:58.999Z</time></trkpt><trkpt lat="44.27490966626873" lon="7.767289698489755"><ele>985.0</ele><time>2026-04-10T12:46:59.999Z</time></trkpt><trkpt lat="44.27481597811563" lon="7.767286774821825"><ele>985.0</ele><time>2026-04-10T12:47:00.999Z</time></trkpt><trkpt lat="44.27472044633032" lon="7.767303505881004"><ele>985.0</ele><time>2026-04-10T12:47:01.999Z</time></trkpt><trkpt lat="44.274623564980864" lon="7.767317898537309"><ele>985.0</ele><time>2026-04-10T12:47:02.999Z</time></trkpt><trkpt lat="44.27452227718069" lon="7.767352246148605"><ele>985.0</ele><time>2026-04-10T12:47:03.999Z</time></trkpt><trkpt lat="44.27443009829056" lon="7.767401276064432"><ele>985.0</ele><time>2026-04-10T12:47:04.999Z</time></trkpt><trkpt lat="44.274325723895885" lon="7.767466898906099"><ele>985.0</ele><time>2026-04-10T12:47:05.999Z</time></trkpt><trkpt lat="44.27421541526995" lon="7.767545838105245"><ele>985.0</ele><time>2026-04-10T12:47:06.999Z</time></trkpt><trkpt lat="44.27410593667206" lon="7.767634674150895"><ele>991.5</ele><time>2026-04-10T12:47:07.999Z</time></trkpt><trkpt lat="44.273993284994646" lon="7.767713494976006"><ele>998.0</ele><time>2026-04-10T12:47:08.999Z</time></trkpt><trkpt lat="44.2738641390142" lon="7.767778753426357"><ele>1004.5</ele><time>2026-04-10T12:47:09.999Z</time></trkpt><trkpt lat="44.27372633435698" lon="7.767815681390306"><ele>1011.0</ele><time>2026-04-10T12:47:10.999Z</time></trkpt><trkpt lat="44.27358358266594" lon="7.767841729571917"><ele>1011.0</ele><time>2026-04-10T12:47:11.999Z</time></trkpt><trkpt lat="44.273444822010816" lon="7.7678499129982495"><ele>1011.0</ele><time>2026-04-10T12:47:12.999Z</time></trkpt><trkpt lat="44.27330627896057" lon="7.767861032495097"><ele>1011.0</ele><time>2026-04-10T12:47:13.999Z</time></trkpt><trkpt lat="44.27318742201743" lon="7.767880826204827"><ele>1011.0</ele><time>2026-04-10T12:47:14.999Z</time></trkpt><trkpt lat="44.273055638835665" lon="7.767926491148399"><ele>1008.5</ele><time>2026-04-10T12:47:15.999Z</time></trkpt><trkpt lat="44.2729269189324" lon="7.768002944971107"><ele>1006.0</ele><time>2026-04-10T12:47:16.999Z</time></trkpt><trkpt lat="44.2727971602282" lon="7.7680821214035936"><ele>1003.5</ele><time>2026-04-10T12:47:17.999Z</time></trkpt><trkpt lat="44.27265830406183" lon="7.768170460444082"><ele>1001.0</ele><time>2026-04-10T12:47:18.999Z</time></trkpt><trkpt lat="44.27251571219426" lon="7.768262697590947"><ele>1001.0</ele><time>2026-04-10T12:47:19.999Z</time></trkpt><trkpt lat="44.272372591892974" lon="7.768353650651158"><ele>1001.0</ele><time>2026-04-10T12:47:20.999Z</time></trkpt><trkpt lat="44.27224856945458" lon="7.768454262033865"><ele>1001.0</ele><time>2026-04-10T12:47:21.999Z</time></trkpt><trkpt lat="44.272138417062905" lon="7.768550584937165"><ele>1001.0</ele><time>2026-04-10T12:47:22.999Z</time></trkpt><trkpt lat="44.27202152861585" lon="7.768625423841246"><ele>1006.25</ele><time>2026-04-10T12:47:23.999Z</time></trkpt><trkpt lat="44.27188331670219" lon="7.768667728309486"><ele>1011.5</ele><time>2026-04-10T12:47:24.999Z</time></trkpt><trkpt lat="44.27174191543389" lon="7.768703754126773"><ele>1016.75</ele><time>2026-04-10T12:47:25.999Z</time></trkpt><trkpt lat="44.27160021864505" lon="7.768734913251179"><ele>1022.0</ele><time>2026-04-10T12:47:26.999Z</time></trkpt><trkpt lat="44.27147229590893" lon="7.768776440467699"><ele>1020.75</ele><time>2026-04-10T12:47:27.999Z</time></trkpt><trkpt lat="44.271343380908995" lon="7.768845640250416"><ele>1019.5</ele><time>2026-04-10T12:47:28.999Z</time></trkpt><trkpt lat="44.271223810910236" lon="7.768947801072915"><ele>1018.25</ele><time>2026-04-10T12:47:29.999Z</time></trkpt><trkpt lat="44.2710973714617" lon="7.769066629583261"><ele>1017.0</ele><time>2026-04-10T12:47:30.999Z</time></trkpt><trkpt lat="44.27096241246328" lon="7.769172094105796"><ele>1017.0</ele><time>2026-04-10T12:47:31.999Z</time></trkpt><trkpt lat="44.270812436699714" lon="7.769279982623757"><ele>1017.0</ele><time>2026-04-10T12:47:32.999Z</time></trkpt><trkpt lat="44.27066228757611" lon="7.7693689096395255"><ele>1017.0</ele><time>2026-04-10T12:47:33.999Z</time></trkpt><trkpt lat="44.27051229094028" lon="7.769449204645292"><ele>1023.25</ele><time>2026-04-10T12:47:34.998Z</time></trkpt><trkpt lat="44.2703838257594" lon="7.769505669899089"><ele>1029.5</ele><time>2026-04-10T12:47:35.999Z</time></trkpt><trkpt lat="44.27025975756488" lon="7.7695546032397"><ele>1035.75</ele><time>2026-04-10T12:47:36.998Z</time></trkpt><trkpt lat="44.27013074804832" lon="7.769605980346011"><ele>1042.0</ele><time>2026-04-10T12:47:37.998Z</time></trkpt><trkpt lat="44.26999251124946" lon="7.769668254567269"><ele>1042.0</ele><time>2026-04-10T12:47:38.998Z</time></trkpt><trkpt lat="44.26986705497983" lon="7.769687049558129"><ele>1042.0</ele><time>2026-04-10T12:47:39.998Z</time></trkpt><trkpt lat="44.269724074210416" lon="7.769704724115676"><ele>1042.0</ele><time>2026-04-10T12:47:40.998Z</time></trkpt><trkpt lat="44.2695907555252" lon="7.769723552470287"><ele>1042.0</ele><time>2026-04-10T12:47:41.998Z</time></trkpt><trkpt lat="44.26944318301886" lon="7.7697456349631615"><ele>1043.5</ele><time>2026-04-10T12:47:42.998Z</time></trkpt><trkpt lat="44.26930326847324" lon="7.769774107716631"><ele>1045.0</ele><time>2026-04-10T12:47:43.998Z</time></trkpt><trkpt lat="44.26916329169516" lon="7.769817553429509"><ele>1046.5</ele><time>2026-04-10T12:47:44.998Z</time></trkpt><trkpt lat="44.26904040532328" lon="7.769828618938805"><ele>1048.0</ele><time>2026-04-10T12:47:46Z</time></trkpt><trkpt lat="44.268925726107575" lon="7.7698383448793775"><ele>1051.6</ele><time>2026-04-10T12:47:47Z</time></trkpt><trkpt lat="44.268821212699486" lon="7.769831153561348"><ele>1055.1999999999998</ele><time>2026-04-10T12:47:48Z</time></trkpt><trkpt lat="44.2687277982418" lon="7.769815998605434"><ele>1058.8</ele><time>2026-04-10T12:47:49Z</time></trkpt><trkpt lat="44.26862778595363" lon="7.769765742592035"><ele>1062.3999999999999</ele><time>2026-04-10T12:47:50Z</time></trkpt><trkpt lat="44.268532467565" lon="7.769698684126088"><ele>1066.0</ele><time>2026-04-10T12:47:51Z</time></trkpt><trkpt lat="44.26843527641924" lon="7.769632718998572"><ele>1066.0</ele><time>2026-04-10T12:47:52Z</time></trkpt><trkpt lat="44.26833131274815" lon="7.769555510818742"><ele>1066.0</ele><time>2026-04-10T12:47:53Z</time></trkpt><trkpt lat="44.268236702799356" lon="7.769476228450117"><ele>1066.0</ele><time>2026-04-10T12:47:54Z</time></trkpt><trkpt lat="44.26817272603727" lon="7.769401511490821"><ele>1066.0</ele><time>2026-04-10T12:47:55Z</time></trkpt><trkpt lat="44.26811365684872" lon="7.769306561398262"><ele>1066.0</ele><time>2026-04-10T12:47:56Z</time></trkpt><trkpt lat="44.268058761946875" lon="7.769204479871888"><ele>1067.8</ele><time>2026-04-10T12:47:57Z</time></trkpt><trkpt lat="44.268001344249974" lon="7.769096033046989"><ele>1069.6</ele><time>2026-04-10T12:47:58Z</time></trkpt><trkpt lat="44.26794331745295" lon="7.7689826063145615"><ele>1071.4</ele><time>2026-04-10T12:47:59Z</time></trkpt><trkpt lat="44.26788280388994" lon="7.76886636537997"><ele>1073.2</ele><time>2026-04-10T12:48:00Z</time></trkpt><trkpt lat="44.267810938482356" lon="7.768750375787006"><ele>1075.0</ele><time>2026-04-10T12:48:01Z</time></trkpt><trkpt lat="44.26773344880795" lon="7.768635425026668"><ele>1075.0</ele><time>2026-04-10T12:48:02Z</time></trkpt><trkpt lat="44.26765407865648" lon="7.768540422626547"><ele>1075.0</ele><time>2026-04-10T12:48:03Z</time></trkpt><trkpt lat="44.267566935127704" lon="7.768494627251321"><ele>1075.0</ele><time>2026-04-10T12:48:04Z</time></trkpt><trkpt lat="44.267459494297775" lon="7.768381779052285"><ele>1075.0</ele><time>2026-04-10T12:48:05Z</time></trkpt><trkpt lat="44.26735788458423" lon="7.768263468394183"><ele>1082.5</ele><time>2026-04-10T12:48:06Z</time></trkpt><trkpt lat="44.2672699695196" lon="7.768134565912078"><ele>1090.0</ele><time>2026-04-10T12:48:07Z</time></trkpt><trkpt lat="44.26720007598313" lon="7.767983284848361"><ele>1097.5</ele><time>2026-04-10T12:48:08Z</time></trkpt><trkpt lat="44.26715110356888" lon="7.767825393888548"><ele>1105.0</ele><time>2026-04-10T12:48:09Z</time></trkpt><trkpt lat="44.267116060865675" lon="7.767702407430679"><ele>1102.5</ele><time>2026-04-10T12:48:10Z</time></trkpt><trkpt lat="44.26708695595076" lon="7.767575267951054"><ele>1100.0</ele><time>2026-04-10T12:48:11Z</time></trkpt><trkpt lat="44.26708390429974" lon="7.767427909229875"><ele>1097.5</ele><time>2026-04-10T12:48:12Z</time></trkpt><trkpt lat="44.26707880500192" lon="7.767301560389037"><ele>1095.0</ele><time>2026-04-10T12:48:13Z</time></trkpt><trkpt lat="44.26707693345006" lon="7.7671881665842015"><ele>1092.5</ele><time>2026-04-10T12:48:14Z</time></trkpt><trkpt lat="44.26708114114672" lon="7.767091015276028"><ele>1090.0</ele><time>2026-04-10T12:48:15Z</time></trkpt><trkpt lat="44.267071934772304" lon="7.766919207894941"><ele>1090.2</ele><time>2026-04-10T12:48:17Z</time></trkpt><trkpt lat="44.267046341442196" lon="7.766836031581508"><ele>1090.4</ele><time>2026-04-10T12:48:18Z</time></trkpt><trkpt lat="44.26698386741992" lon="7.766783800643658"><ele>1090.6</ele><time>2026-04-10T12:48:19Z</time></trkpt><trkpt lat="44.26684993680907" lon="7.7667594933713024"><ele>1090.8</ele><time>2026-04-10T12:48:21Z</time></trkpt><trkpt lat="44.26675529694786" lon="7.766779992482093"><ele>1091.0</ele><time>2026-04-10T12:48:22Z</time></trkpt><trkpt lat="44.266654779331525" lon="7.766819473794752"><ele>1091.0</ele><time>2026-04-10T12:48:23Z</time></trkpt><trkpt lat="44.26656682567427" lon="7.766843557826242"><ele>1091.0</ele><time>2026-04-10T12:48:24Z</time></trkpt><trkpt lat="44.26647374446605" lon="7.766825990105189"><ele>1091.0</ele><time>2026-04-10T12:48:25Z</time></trkpt><trkpt lat="44.266377357900915" lon="7.766774967737281"><ele>1091.0</ele><time>2026-04-10T12:48:26Z</time></trkpt><trkpt lat="44.266285982089975" lon="7.766717861800241"><ele>1091.0</ele><time>2026-04-10T12:48:27Z</time></trkpt><trkpt lat="44.266191731338125" lon="7.766657242915473"><ele>1090.0</ele><time>2026-04-10T12:48:28Z</time></trkpt><trkpt lat="44.26608538890908" lon="7.766600935015446"><ele>1089.0</ele><time>2026-04-10T12:48:29Z</time></trkpt><trkpt lat="44.265977974536106" lon="7.766528149627837"><ele>1088.0</ele><time>2026-04-10T12:48:30Z</time></trkpt><trkpt lat="44.265865432580725" lon="7.7664538720392855"><ele>1087.0</ele><time>2026-04-10T12:48:31Z</time></trkpt><trkpt lat="44.265755548456134" lon="7.766376083771929"><ele>1087.0</ele><time>2026-04-10T12:48:32Z</time></trkpt><trkpt lat="44.26563786122655" lon="7.766306452067962"><ele>1087.0</ele><time>2026-04-10T12:48:33Z</time></trkpt><trkpt lat="44.26552195227247" lon="7.766227953396434"><ele>1087.0</ele><time>2026-04-10T12:48:34Z</time></trkpt><trkpt lat="44.26540273000205" lon="7.76614413635292"><ele>1087.0</ele><time>2026-04-10T12:48:34.999Z</time></trkpt><trkpt lat="44.26528303918661" lon="7.7660783890598974"><ele>1090.75</ele><time>2026-04-10T12:48:35.999Z</time></trkpt><trkpt lat="44.26516846462047" lon="7.766027100077314"><ele>1094.5</ele><time>2026-04-10T12:48:36.999Z</time></trkpt><trkpt lat="44.265042785509735" lon="7.766000591771418"><ele>1098.25</ele><time>2026-04-10T12:48:37.999Z</time></trkpt><trkpt lat="44.26491526661545" lon="7.765971794716337"><ele>1102.0</ele><time>2026-04-10T12:48:38.999Z</time></trkpt><trkpt lat="44.26478310525384" lon="7.765959866112407"><ele>1102.25</ele><time>2026-04-10T12:48:39.999Z</time></trkpt><trkpt lat="44.2646425620347" lon="7.7659731465298725"><ele>1102.5</ele><time>2026-04-10T12:48:40.999Z</time></trkpt><trkpt lat="44.26449863656195" lon="7.766005965699506"><ele>1102.75</ele><time>2026-04-10T12:48:41.999Z</time></trkpt><trkpt lat="44.264350180147744" lon="7.766015656697668"><ele>1103.0</ele><time>2026-04-10T12:48:42.999Z</time></trkpt><trkpt lat="44.2642033425335" lon="7.766003382422206"><ele>1103.0</ele><time>2026-04-10T12:48:43.999Z</time></trkpt><trkpt lat="44.26405613375949" lon="7.765985850352469"><ele>1103.0</ele><time>2026-04-10T12:48:44.999Z</time></trkpt><trkpt lat="44.26390253273682" lon="7.76599312186571"><ele>1103.0</ele><time>2026-04-10T12:48:45.999Z</time></trkpt><trkpt lat="44.2637705858552" lon="7.7660005704755894"><ele>1103.0</ele><time>2026-04-10T12:48:46.999Z</time></trkpt><trkpt lat="44.26364648939624" lon="7.766012606684132"><ele>1104.0</ele><time>2026-04-10T12:48:47.999Z</time></trkpt><trkpt lat="44.26353385858615" lon="7.766042216020108"><ele>1105.0</ele><time>2026-04-10T12:48:48.999Z</time></trkpt><trkpt lat="44.26343433344376" lon="7.766067696159255"><ele>1106.0</ele><time>2026-04-10T12:48:49.999Z</time></trkpt><trkpt lat="44.26334983966356" lon="7.766071339438444"><ele>1107.0</ele><time>2026-04-10T12:48:50.999Z</time></trkpt><trkpt lat="44.26325855274854" lon="7.766055243082378"><ele>1108.0</ele><time>2026-04-10T12:48:51.999Z</time></trkpt><trkpt lat="44.263173078198015" lon="7.765996493198334"><ele>1109.4</ele><time>2026-04-10T12:48:52.999Z</time></trkpt><trkpt lat="44.26309046718953" lon="7.765925494365658"><ele>1110.8</ele><time>2026-04-10T12:48:53.999Z</time></trkpt><trkpt lat="44.26301644366427" lon="7.76583350665986"><ele>1112.2</ele><time>2026-04-10T12:48:54.999Z</time></trkpt><trkpt lat="44.2629453134867" lon="7.765721313704257"><ele>1113.6</ele><time>2026-04-10T12:48:55.999Z</time></trkpt><trkpt lat="44.26286524619749" lon="7.765621056620084"><ele>1115.0</ele><time>2026-04-10T12:48:56.999Z</time></trkpt><trkpt lat="44.26278555196818" lon="7.765519415972523"><ele>1115.0</ele><time>2026-04-10T12:48:57.999Z</time></trkpt><trkpt lat="44.262698965775" lon="7.765421272414677"><ele>1115.0</ele><time>2026-04-10T12:48:58.999Z</time></trkpt><trkpt lat="44.26259627141634" lon="7.765343445891632"><ele>1115.0</ele><time>2026-04-10T12:48:59.999Z</time></trkpt><trkpt lat="44.262485043011665" lon="7.765277237080112"><ele>1115.0</ele><time>2026-04-10T12:49:00.999Z</time></trkpt><trkpt lat="44.26237046139157" lon="7.765226165595289"><ele>1120.5</ele><time>2026-04-10T12:49:01.999Z</time></trkpt><trkpt lat="44.262249735381445" lon="7.765181542956493"><ele>1126.0</ele><time>2026-04-10T12:49:02.999Z</time></trkpt><trkpt lat="44.26212480849271" lon="7.765157987945525"><ele>1131.5</ele><time>2026-04-10T12:49:03.999Z</time></trkpt><trkpt lat="44.2619943311839" lon="7.765152986342458"><ele>1137.0</ele><time>2026-04-10T12:49:04.999Z</time></trkpt><trkpt lat="44.26185866202878" lon="7.765173860329279"><ele>1137.0</ele><time>2026-04-10T12:49:05.999Z</time></trkpt><trkpt lat="44.26172183640885" lon="7.765193147765942"><ele>1137.0</ele><time>2026-04-10T12:49:06.999Z</time></trkpt><trkpt lat="44.26157567147014" lon="7.765209422013781"><ele>1137.0</ele><time>2026-04-10T12:49:07.999Z</time></trkpt><trkpt lat="44.261427968164654" lon="7.765221768783422"><ele>1137.0</ele><time>2026-04-10T12:49:08.999Z</time></trkpt><trkpt lat="44.261274440656784" lon="7.765231981134184"><ele>1137.6666666666667</ele><time>2026-04-10T12:49:09.999Z</time></trkpt><trkpt lat="44.26111620294959" lon="7.7652419961233825"><ele>1138.3333333333335</ele><time>2026-04-10T12:49:10.999Z</time></trkpt><trkpt lat="44.26097174517179" lon="7.765228986132261"><ele>1139.0</ele><time>2026-04-10T12:49:11.999Z</time></trkpt><trkpt lat="44.260825646948824" lon="7.765252430232307"><ele>1139.0</ele><time>2026-04-10T12:49:12.999Z</time></trkpt><trkpt lat="44.26070063020832" lon="7.765293993800813"><ele>1139.0</ele><time>2026-04-10T12:49:13.999Z</time></trkpt><trkpt lat="44.260566778739445" lon="7.765361860635655"><ele>1139.0</ele><time>2026-04-10T12:49:14.999Z</time></trkpt><trkpt lat="44.260443712018926" lon="7.7654414563857594"><ele>1139.0</ele><time>2026-04-10T12:49:15.999Z</time></trkpt><trkpt lat="44.260321014319395" lon="7.765520355749247"><ele>1140.0</ele><time>2026-04-10T12:49:16.999Z</time></trkpt><trkpt lat="44.26018585166364" lon="7.765588726586428"><ele>1141.0</ele><time>2026-04-10T12:49:17.999Z</time></trkpt><trkpt lat="44.26004650591933" lon="7.765636921924566"><ele>1142.0</ele><time>2026-04-10T12:49:18.999Z</time></trkpt><trkpt lat="44.259904819752656" lon="7.765687547385991"><ele>1143.0</ele><time>2026-04-10T12:49:19.999Z</time></trkpt><trkpt lat="44.25976544541046" lon="7.765743375920681"><ele>1144.75</ele><time>2026-04-10T12:49:20.999Z</time></trkpt><trkpt lat="44.259624996254125" lon="7.765805606822405"><ele>1146.5</ele><time>2026-04-10T12:49:21.999Z</time></trkpt><trkpt lat="44.259486242739285" lon="7.765873420272145"><ele>1148.25</ele><time>2026-04-10T12:49:22.999Z</time></trkpt><trkpt lat="44.25934981782012" lon="7.7659396126509135"><ele>1150.0</ele><time>2026-04-10T12:49:23.999Z</time></trkpt><trkpt lat="44.25922715714443" lon="7.765989990298387"><ele>1149.75</ele><time>2026-04-10T12:49:24.999Z</time></trkpt><trkpt lat="44.25909988289311" lon="7.766032707210341"><ele>1149.5</ele><time>2026-04-10T12:49:25.999Z</time></trkpt><trkpt lat="44.25896250852146" lon="7.766048676271786"><ele>1149.25</ele><time>2026-04-10T12:49:26.999Z</time></trkpt><trkpt lat="44.25882807326465" lon="7.7660435887078485"><ele>1149.0</ele><time>2026-04-10T12:49:27.999Z</time></trkpt><trkpt lat="44.25869840023264" lon="7.7660418205910915"><ele>1149.0</ele><time>2026-04-10T12:49:28.999Z</time></trkpt><trkpt lat="44.258561012392384" lon="7.7660573646509095"><ele>1149.0</ele><time>2026-04-10T12:49:29.999Z</time></trkpt><trkpt lat="44.2584271662363" lon="7.766049070600064"><ele>1149.0</ele><time>2026-04-10T12:49:30.999Z</time></trkpt><trkpt lat="44.25829237920014" lon="7.7660574884226135"><ele>1149.0</ele><time>2026-04-10T12:49:31.999Z</time></trkpt><trkpt lat="44.258163637701365" lon="7.766066906423917"><ele>1149.2</ele><time>2026-04-10T12:49:32.999Z</time></trkpt><trkpt lat="44.258050831368905" lon="7.7660708811791945"><ele>1149.4</ele><time>2026-04-10T12:49:33.999Z</time></trkpt><trkpt lat="44.25793215248946" lon="7.766097368072425"><ele>1149.6</ele><time>2026-04-10T12:49:34.999Z</time></trkpt><trkpt lat="44.25783140910217" lon="7.766109738406064"><ele>1149.8</ele><time>2026-04-10T12:49:35.999Z</time></trkpt><trkpt lat="44.257736227247555" lon="7.766122540200736"><ele>1150.0</ele><time>2026-04-10T12:49:36.999Z</time></trkpt><trkpt lat="44.25764288746012" lon="7.766137681672587"><ele>1150.0</ele><time>2026-04-10T12:49:37.999Z</time></trkpt><trkpt lat="44.257557911399644" lon="7.766149765067631"><ele>1150.0</ele><time>2026-04-10T12:49:38.999Z</time></trkpt><trkpt lat="44.25747949140065" lon="7.766160866923334"><ele>1150.0</ele><time>2026-04-10T12:49:39.999Z</time></trkpt><trkpt lat="44.257364534917684" lon="7.766164757799163"><ele>1150.0</ele><time>2026-04-10T12:49:41.999Z</time></trkpt><trkpt lat="44.2572635657143" lon="7.7662520219968965"><ele>1150.0</ele><time>2026-04-10T12:49:43.998Z</time></trkpt><trkpt lat="44.25722350248055" lon="7.766418067068193"><ele>1151.2</ele><time>2026-04-10T12:49:45.998Z</time></trkpt><trkpt lat="44.257222264536225" lon="7.766531900985421"><ele>1152.4</ele><time>2026-04-10T12:49:46.998Z</time></trkpt><trkpt lat="44.257229612975486" lon="7.766651667573669"><ele>1153.6</ele><time>2026-04-10T12:49:47.998Z</time></trkpt><trkpt lat="44.257237776166626" lon="7.766785680269479"><ele>1154.8</ele><time>2026-04-10T12:49:48.998Z</time></trkpt><trkpt lat="44.257258506641236" lon="7.7669131705973475"><ele>1156.0</ele><time>2026-04-10T12:49:49.998Z</time></trkpt><trkpt lat="44.25727378999001" lon="7.767040747198659"><ele>1158.0</ele><time>2026-04-10T12:49:50.998Z</time></trkpt><trkpt lat="44.25731684401993" lon="7.7671332815110485"><ele>1160.0</ele><time>2026-04-10T12:49:52Z</time></trkpt><trkpt lat="44.25737981522775" lon="7.767219295582471"><ele>1162.0</ele><time>2026-04-10T12:49:53Z</time></trkpt><trkpt lat="44.257463262462615" lon="7.767287741168606"><ele>1164.0</ele><time>2026-04-10T12:49:54Z</time></trkpt><trkpt lat="44.25757414285217" lon="7.7673066206464"><ele>1166.0</ele><time>2026-04-10T12:49:55Z</time></trkpt><trkpt lat="44.2576794775405" lon="7.767297664940929"><ele>1166.0</ele><time>2026-04-10T12:49:56Z</time></trkpt><trkpt lat="44.2577849339411" lon="7.767268835629106"><ele>1166.0</ele><time>2026-04-10T12:49:57Z</time></trkpt><trkpt lat="44.25790028439892" lon="7.767262394766904"><ele>1166.0</ele><time>2026-04-10T12:49:58Z</time></trkpt><trkpt lat="44.25802665927574" lon="7.76727867315419"><ele>1166.0</ele><time>2026-04-10T12:49:59Z</time></trkpt><trkpt lat="44.258154269120006" lon="7.767275035392883"><ele>1167.25</ele><time>2026-04-10T12:50:00Z</time></trkpt><trkpt lat="44.258295534873994" lon="7.767267775086679"><ele>1168.5</ele><time>2026-04-10T12:50:01Z</time></trkpt><trkpt lat="44.258430899745264" lon="7.767262095321932"><ele>1169.75</ele><time>2026-04-10T12:50:02Z</time></trkpt><trkpt lat="44.25858360650382" lon="7.767244967024949"><ele>1171.0</ele><time>2026-04-10T12:50:03Z</time></trkpt><trkpt lat="44.258727989605255" lon="7.767235840210103"><ele>1171.0</ele><time>2026-04-10T12:50:04Z</time></trkpt><trkpt lat="44.2588818447375" lon="7.767223726635967"><ele>1171.0</ele><time>2026-04-10T12:50:05Z</time></trkpt><trkpt lat="44.259047960283986" lon="7.767208092305879"><ele>1171.0</ele><time>2026-04-10T12:50:06Z</time></trkpt><trkpt lat="44.25921943176825" lon="7.767185569114106"><ele>1172.3333333333333</ele><time>2026-04-10T12:50:07Z</time></trkpt><trkpt lat="44.259404767964504" lon="7.767144739687345"><ele>1173.6666666666667</ele><time>2026-04-10T12:50:08Z</time></trkpt><trkpt lat="44.259583274775885" lon="7.767129559315903"><ele>1175.0</ele><time>2026-04-10T12:50:09Z</time></trkpt><trkpt lat="44.25976362403799" lon="7.767116849721537"><ele>1180.0</ele><time>2026-04-10T12:50:10Z</time></trkpt><trkpt lat="44.259919076071306" lon="7.767097979257524"><ele>1185.0</ele><time>2026-04-10T12:50:11Z</time></trkpt><trkpt lat="44.26004750577466" lon="7.7670704575920535"><ele>1190.0</ele><time>2026-04-10T12:50:12Z</time></trkpt><trkpt lat="44.26018598136606" lon="7.76704945236409"><ele>1195.0</ele><time>2026-04-10T12:50:13Z</time></trkpt><trkpt lat="44.26032221360517" lon="7.767034882821995"><ele>1195.0</ele><time>2026-04-10T12:50:14Z</time></trkpt><trkpt lat="44.26044087398317" lon="7.76701728715305"><ele>1195.0</ele><time>2026-04-10T12:50:15Z</time></trkpt><trkpt lat="44.26057484493733" lon="7.767009050123093"><ele>1195.0</ele><time>2026-04-10T12:50:16Z</time></trkpt><trkpt lat="44.260718301336965" lon="7.767029117107336"><ele>1195.0</ele><time>2026-04-10T12:50:17Z</time></trkpt><trkpt lat="44.260860267776344" lon="7.767059215735336"><ele>1197.5</ele><time>2026-04-10T12:50:18Z</time></trkpt><trkpt lat="44.26100279740989" lon="7.767108330361649"><ele>1200.0</ele><time>2026-04-10T12:50:19Z</time></trkpt><trkpt lat="44.26114643188052" lon="7.767157523253435"><ele>1202.5</ele><time>2026-04-10T12:50:20Z</time></trkpt><trkpt lat="44.26128838576733" lon="7.767205708266132"><ele>1205.0</ele><time>2026-04-10T12:50:21Z</time></trkpt><trkpt lat="44.261426450591905" lon="7.767263901100413"><ele>1203.75</ele><time>2026-04-10T12:50:22Z</time></trkpt><trkpt lat="44.2615595185351" lon="7.767321296084614"><ele>1202.5</ele><time>2026-04-10T12:50:23Z</time></trkpt><trkpt lat="44.26167096108819" lon="7.767386892415396"><ele>1201.25</ele><time>2026-04-10T12:50:24Z</time></trkpt><trkpt lat="44.261779661619784" lon="7.767448787961914"><ele>1200.0</ele><time>2026-04-10T12:50:25Z</time></trkpt><trkpt lat="44.26186970794479" lon="7.767502434294355"><ele>1200.0</ele><time>2026-04-10T12:50:26Z</time></trkpt><trkpt lat="44.26196028775577" lon="7.767586251756744"><ele>1200.0</ele><time>2026-04-10T12:50:27Z</time></trkpt><trkpt lat="44.262049192474215" lon="7.767684556365717"><ele>1200.0</ele><time>2026-04-10T12:50:28Z</time></trkpt><trkpt lat="44.262126346036595" lon="7.767778350972379"><ele>1200.0</ele><time>2026-04-10T12:50:29Z</time></trkpt><trkpt lat="44.26218219732976" lon="7.7678723733276565"><ele>1200.0</ele><time>2026-04-10T12:50:30Z</time></trkpt><trkpt lat="44.26222652546056" lon="7.767972663442366"><ele>1200.2</ele><time>2026-04-10T12:50:31Z</time></trkpt><trkpt lat="44.26225926833694" lon="7.76808880083184"><ele>1200.4</ele><time>2026-04-10T12:50:32Z</time></trkpt><trkpt lat="44.26228449056053" lon="7.768208743445025"><ele>1200.6</ele><time>2026-04-10T12:50:33Z</time></trkpt><trkpt lat="44.2622800095637" lon="7.768345036423819"><ele>1200.8</ele><time>2026-04-10T12:50:34Z</time></trkpt><trkpt lat="44.26228844850881" lon="7.768490387923456"><ele>1201.0</ele><time>2026-04-10T12:50:35Z</time></trkpt><trkpt lat="44.2623131342469" lon="7.768641843378948"><ele>1201.0</ele><time>2026-04-10T12:50:36Z</time></trkpt><trkpt lat="44.26230900169431" lon="7.768799137914748"><ele>1201.0</ele><time>2026-04-10T12:50:37Z</time></trkpt><trkpt lat="44.26231659564844" lon="7.7689479776623465"><ele>1201.0</ele><time>2026-04-10T12:50:38Z</time></trkpt><trkpt lat="44.26232706465081" lon="7.769098283129129"><ele>1201.0</ele><time>2026-04-10T12:50:39Z</time></trkpt><trkpt lat="44.26233490971637" lon="7.7692470167816445"><ele>1201.0</ele><time>2026-04-10T12:50:40Z</time></trkpt><trkpt lat="44.26232745502748" lon="7.769357113078522"><ele>1201.6</ele><time>2026-04-10T12:50:40.999Z</time></trkpt><trkpt lat="44.26233427965704" lon="7.769461110186724"><ele>1202.1999999999998</ele><time>2026-04-10T12:50:41.999Z</time></trkpt><trkpt lat="44.26232456560201" lon="7.769583231806987"><ele>1202.8000000000002</ele><time>2026-04-10T12:50:42.999Z</time></trkpt><trkpt lat="44.262311071307245" lon="7.769707816882311"><ele>1203.4</ele><time>2026-04-10T12:50:43.999Z</time></trkpt><trkpt lat="44.262295907411406" lon="7.769849904600805"><ele>1204.0</ele><time>2026-04-10T12:50:44.999Z</time></trkpt><trkpt lat="44.26227821748052" lon="7.769989687490749"><ele>1217.25</ele><time>2026-04-10T12:50:45.999Z</time></trkpt><trkpt lat="44.262262668084084" lon="7.770140836612263"><ele>1230.5</ele><time>2026-04-10T12:50:46.999Z</time></trkpt><trkpt lat="44.262250018835324" lon="7.7702955792549915"><ele>1243.75</ele><time>2026-04-10T12:50:47.999Z</time></trkpt><trkpt lat="44.26223202159506" lon="7.770460021849127"><ele>1257.0</ele><time>2026-04-10T12:50:48.999Z</time></trkpt><trkpt lat="44.2622132904586" lon="7.77061749363296"><ele>1257.0</ele><time>2026-04-10T12:50:49.999Z</time></trkpt><trkpt lat="44.26219608834439" lon="7.770753736705722"><ele>1257.0</ele><time>2026-04-10T12:50:50.999Z</time></trkpt><trkpt lat="44.26217810060687" lon="7.77089847387967"><ele>1257.0</ele><time>2026-04-10T12:50:51.999Z</time></trkpt><trkpt lat="44.26214754402433" lon="7.771056894402867"><ele>1257.0</ele><time>2026-04-10T12:50:52.999Z</time></trkpt><trkpt lat="44.26211123276852" lon="7.771205938041643"><ele>1257.0</ele><time>2026-04-10T12:50:53.999Z</time></trkpt><trkpt lat="44.26205757397647" lon="7.771366052413505"><ele>1253.75</ele><time>2026-04-10T12:50:54.999Z</time></trkpt><trkpt lat="44.26199974565758" lon="7.771527220378143"><ele>1250.5</ele><time>2026-04-10T12:50:55.999Z</time></trkpt><trkpt lat="44.26193683240967" lon="7.77169262605554"><ele>1247.25</ele><time>2026-04-10T12:50:56.999Z</time></trkpt><trkpt lat="44.26187443258648" lon="7.771839919783614"><ele>1244.0</ele><time>2026-04-10T12:50:57.999Z</time></trkpt><trkpt lat="44.26181300525638" lon="7.771961928922684"><ele>1240.2</ele><time>2026-04-10T12:50:58.999Z</time></trkpt><trkpt lat="44.26175937968767" lon="7.772091785597522"><ele>1236.4</ele><time>2026-04-10T12:50:59.999Z</time></trkpt><trkpt lat="44.2616959709205" lon="7.772189835438645"><ele>1232.6</ele><time>2026-04-10T12:51:00.999Z</time></trkpt><trkpt lat="44.26162449723007" lon="7.772301847264212"><ele>1228.8</ele><time>2026-04-10T12:51:01.999Z</time></trkpt><trkpt lat="44.26155441570629" lon="7.772391875581562"><ele>1225.0</ele><time>2026-04-10T12:51:02.999Z</time></trkpt><trkpt lat="44.2614984946382" lon="7.772490823260345"><ele>1231.5</ele><time>2026-04-10T12:51:03.999Z</time></trkpt><trkpt lat="44.261443885289644" lon="7.772556133074199"><ele>1238.0</ele><time>2026-04-10T12:51:04.999Z</time></trkpt><trkpt lat="44.26138969506882" lon="7.772621731396191"><ele>1244.5</ele><time>2026-04-10T12:51:05.999Z</time></trkpt><trkpt lat="44.261341633096826" lon="7.772705021386162"><ele>1251.0</ele><time>2026-04-10T12:51:06.999Z</time></trkpt><trkpt lat="44.2613116669954" lon="7.772815287602004"><ele>1257.5</ele><time>2026-04-10T12:51:07.999Z</time></trkpt><trkpt lat="44.26129263964527" lon="7.772919667049438"><ele>1264.0</ele><time>2026-04-10T12:51:08.999Z</time></trkpt><trkpt lat="44.261268152838205" lon="7.773051542455171"><ele>1264.0</ele><time>2026-04-10T12:51:09.999Z</time></trkpt><trkpt lat="44.2612938772519" lon="7.773180983631279"><ele>1264.0</ele><time>2026-04-10T12:51:10.999Z</time></trkpt><trkpt lat="44.261318740807745" lon="7.77331197264174"><ele>1264.0</ele><time>2026-04-10T12:51:11.999Z</time></trkpt><trkpt lat="44.261344130834125" lon="7.77342243031845"><ele>1264.0</ele><time>2026-04-10T12:51:12.999Z</time></trkpt><trkpt lat="44.26137721036112" lon="7.773552734011222"><ele>1264.0</ele><time>2026-04-10T12:51:13.999Z</time></trkpt><trkpt lat="44.26140675075922" lon="7.773682596464064"><ele>1257.25</ele><time>2026-04-10T12:51:14.999Z</time></trkpt><trkpt lat="44.261449624565294" lon="7.773827799167427"><ele>1250.5</ele><time>2026-04-10T12:51:15.999Z</time></trkpt><trkpt lat="44.26148438535899" lon="7.773981435926305"><ele>1243.75</ele><time>2026-04-10T12:51:16.999Z</time></trkpt><trkpt lat="44.261523028155835" lon="7.774137947478393"><ele>1237.0</ele><time>2026-04-10T12:51:17.999Z</time></trkpt><trkpt lat="44.26156864891015" lon="7.774298289849089"><ele>1239.75</ele><time>2026-04-10T12:51:18.999Z</time></trkpt><trkpt lat="44.26160562961042" lon="7.774461492439618"><ele>1242.5</ele><time>2026-04-10T12:51:19.999Z</time></trkpt><trkpt lat="44.26162758827831" lon="7.7746295671084855"><ele>1245.25</ele><time>2026-04-10T12:51:20.999Z</time></trkpt><trkpt lat="44.26162679766733" lon="7.774798536409862"><ele>1248.0</ele><time>2026-04-10T12:51:21.999Z</time></trkpt><trkpt lat="44.26163044161122" lon="7.774970515565451"><ele>1248.0</ele><time>2026-04-10T12:51:22.999Z</time></trkpt><trkpt lat="44.26162562078335" lon="7.775142520678835"><ele>1248.0</ele><time>2026-04-10T12:51:23.999Z</time></trkpt><trkpt lat="44.26162214500547" lon="7.775319246862576"><ele>1248.0</ele><time>2026-04-10T12:51:24.999Z</time></trkpt><trkpt lat="44.26163627400056" lon="7.775492653132537"><ele>1248.0</ele><time>2026-04-10T12:51:25.999Z</time></trkpt><trkpt lat="44.26165339097074" lon="7.775664484174807"><ele>1249.6</ele><time>2026-04-10T12:51:26.999Z</time></trkpt><trkpt lat="44.261684733145586" lon="7.775811286819879"><ele>1251.1999999999998</ele><time>2026-04-10T12:51:27.999Z</time></trkpt><trkpt lat="44.2617062737783" lon="7.775949709987361"><ele>1252.8</ele><time>2026-04-10T12:51:28.999Z</time></trkpt><trkpt lat="44.261723550151494" lon="7.776093745486057"><ele>1254.3999999999999</ele><time>2026-04-10T12:51:29.999Z</time></trkpt><trkpt lat="44.2617244755777" lon="7.7762324109543925"><ele>1256.0</ele><time>2026-04-10T12:51:30.999Z</time></trkpt><trkpt lat="44.261710681873886" lon="7.77638184871362"><ele>1256.75</ele><time>2026-04-10T12:51:31.999Z</time></trkpt><trkpt lat="44.26168466557756" lon="7.776535288548949"><ele>1257.5</ele><time>2026-04-10T12:51:32.999Z</time></trkpt><trkpt lat="44.26165259970019" lon="7.776692675470642"><ele>1258.25</ele><time>2026-04-10T12:51:33.999Z</time></trkpt><trkpt lat="44.26161548063409" lon="7.7768495064577925"><ele>1259.0</ele><time>2026-04-10T12:51:34.999Z</time></trkpt><trkpt lat="44.261580438381586" lon="7.777010149198972"><ele>1259.25</ele><time>2026-04-10T12:51:35.999Z</time></trkpt><trkpt lat="44.261544691850965" lon="7.77717716883936"><ele>1259.5</ele><time>2026-04-10T12:51:36.999Z</time></trkpt><trkpt lat="44.26151488716641" lon="7.77735023946019"><ele>1259.75</ele><time>2026-04-10T12:51:37.999Z</time></trkpt><trkpt lat="44.261474295775656" lon="7.777516273784613"><ele>1260.0</ele><time>2026-04-10T12:51:38.999Z</time></trkpt><trkpt lat="44.26144278470681" lon="7.777687559802047"><ele>1267.4</ele><time>2026-04-10T12:51:39.999Z</time></trkpt><trkpt lat="44.261421787608725" lon="7.777845204994277"><ele>1274.8</ele><time>2026-04-10T12:51:40.999Z</time></trkpt><trkpt lat="44.2614054823507" lon="7.777986488804516"><ele>1282.1999999999998</ele><time>2026-04-10T12:51:41.999Z</time></trkpt><trkpt lat="44.26139336172982" lon="7.7780956912123065"><ele>1289.6</ele><time>2026-04-10T12:51:42.999Z</time></trkpt><trkpt lat="44.261382816451324" lon="7.778184722012607"><ele>1297.0</ele><time>2026-04-10T12:51:43.999Z</time></trkpt><trkpt lat="44.26137227253539" lon="7.778334338510087"><ele>1297.0</ele><time>2026-04-10T12:51:45.999Z</time></trkpt><trkpt lat="44.261363679261706" lon="7.778445521169849"><ele>1297.0</ele><time>2026-04-10T12:51:47.998Z</time></trkpt><trkpt lat="44.261272596598054" lon="7.778504390029362"><ele>1297.0</ele><time>2026-04-10T12:51:49.998Z</time></trkpt><trkpt lat="44.26119773119196" lon="7.778398931204458"><ele>1297.0</ele><time>2026-04-10T12:51:51.998Z</time></trkpt><trkpt lat="44.26121527659157" lon="7.77821700606454"><ele>1297.0</ele><time>2026-04-10T12:51:53.998Z</time></trkpt><trkpt lat="44.26123895163637" lon="7.778115443804155"><ele>1297.0</ele><time>2026-04-10T12:51:54.998Z</time></trkpt><trkpt lat="44.2612559842832" lon="7.778002824765467"><ele>1297.0</ele><time>2026-04-10T12:51:55.998Z</time></trkpt><trkpt lat="44.26126388090553" lon="7.777865711595419"><ele>1297.0</ele><time>2026-04-10T12:51:56.998Z</time></trkpt><trkpt lat="44.261259124321725" lon="7.777715934897928"><ele>1297.0</ele><time>2026-04-10T12:51:58Z</time></trkpt><trkpt lat="44.261255087942374" lon="7.77757027898797"><ele>1297.0</ele><time>2026-04-10T12:51:59Z</time></trkpt><trkpt lat="44.26124358331432" lon="7.777402729710381"><ele>1297.0</ele><time>2026-04-10T12:52:00Z</time></trkpt><trkpt lat="44.26122679399894" lon="7.777222979283475"><ele>1297.0</ele><time>2026-04-10T12:52:01Z</time></trkpt><trkpt lat="44.26121046079469" lon="7.777022572370991"><ele>1297.0</ele><time>2026-04-10T12:52:02Z</time></trkpt><trkpt lat="44.26119094718622" lon="7.776832902575611"><ele>1297.0</ele><time>2026-04-10T12:52:03Z</time></trkpt><trkpt lat="44.26118371230815" lon="7.776629562117752"><ele>1296.8</ele><time>2026-04-10T12:52:04Z</time></trkpt><trkpt lat="44.26115985345635" lon="7.776462481657585"><ele>1296.6</ele><time>2026-04-10T12:52:05Z</time></trkpt><trkpt lat="44.26114861535993" lon="7.776313095332302"><ele>1296.3999999999999</ele><time>2026-04-10T12:52:06Z</time></trkpt><trkpt lat="44.261135609048885" lon="7.776174009047526"><ele>1296.1999999999998</ele><time>2026-04-10T12:52:07Z</time></trkpt><trkpt lat="44.26112388589604" lon="7.776038220085071"><ele>1296.0</ele><time>2026-04-10T12:52:08Z</time></trkpt><trkpt lat="44.26109865167546" lon="7.775911810140069"><ele>1295.0</ele><time>2026-04-10T12:52:09Z</time></trkpt><trkpt lat="44.261055337187805" lon="7.775788717136606"><ele>1294.0</ele><time>2026-04-10T12:52:10Z</time></trkpt><trkpt lat="44.26098533611984" lon="7.77567328505044"><ele>1293.0</ele><time>2026-04-10T12:52:11Z</time></trkpt><trkpt lat="44.2609062371562" lon="7.7755588435439265"><ele>1292.0</ele><time>2026-04-10T12:52:12Z</time></trkpt><trkpt lat="44.26081766440556" lon="7.77545412679708"><ele>1291.0</ele><time>2026-04-10T12:52:13Z</time></trkpt><trkpt lat="44.26072042857118" lon="7.77535094833422"><ele>1291.0</ele><time>2026-04-10T12:52:14Z</time></trkpt><trkpt lat="44.26063084518082" lon="7.775246504999197"><ele>1291.0</ele><time>2026-04-10T12:52:15Z</time></trkpt><trkpt lat="44.2605450222845" lon="7.775120252571129"><ele>1291.0</ele><time>2026-04-10T12:52:16Z</time></trkpt><trkpt lat="44.26047490783938" lon="7.775002126706633"><ele>1291.0</ele><time>2026-04-10T12:52:17Z</time></trkpt><trkpt lat="44.2604340622737" lon="7.774913756515412"><ele>1291.0</ele><time>2026-04-10T12:52:18Z</time></trkpt><trkpt lat="44.260397162568474" lon="7.774827682855609"><ele>1295.1666666666665</ele><time>2026-04-10T12:52:19Z</time></trkpt><trkpt lat="44.26033661052263" lon="7.774729314584955"><ele>1299.3333333333333</ele><time>2026-04-10T12:52:21Z</time></trkpt><trkpt lat="44.260285694999084" lon="7.774664542784885"><ele>1303.5</ele><time>2026-04-10T12:52:23Z</time></trkpt><trkpt lat="44.26020243248522" lon="7.774646512533887"><ele>1307.6666666666667</ele><time>2026-04-10T12:52:26Z</time></trkpt><trkpt lat="44.26013934974323" lon="7.774719663051057"><ele>1311.8333333333335</ele><time>2026-04-10T12:52:29Z</time></trkpt><trkpt lat="44.26012002383136" lon="7.774816592328469"><ele>1316.0</ele><time>2026-04-10T12:52:31Z</time></trkpt><trkpt lat="44.26013701368686" lon="7.774912472337099"><ele>1316.0</ele><time>2026-04-10T12:52:33Z</time></trkpt><trkpt lat="44.260183428246975" lon="7.7750547495522495"><ele>1316.0</ele><time>2026-04-10T12:52:35Z</time></trkpt><trkpt lat="44.26021099429952" lon="7.775143630795252"><ele>1316.0</ele><time>2026-04-10T12:52:36Z</time></trkpt><trkpt lat="44.260251999291484" lon="7.775228597551711"><ele>1316.0</ele><time>2026-04-10T12:52:37Z</time></trkpt><trkpt lat="44.260292975209325" lon="7.775336122716459"><ele>1316.0</ele><time>2026-04-10T12:52:38Z</time></trkpt><trkpt lat="44.26033344618775" lon="7.775446405179172"><ele>1316.0</ele><time>2026-04-10T12:52:39Z</time></trkpt><trkpt lat="44.26037271337146" lon="7.775553395150475"><ele>1318.1999999999998</ele><time>2026-04-10T12:52:40Z</time></trkpt><trkpt lat="44.260414450425976" lon="7.775672535316961"><ele>1320.3999999999999</ele><time>2026-04-10T12:52:41Z</time></trkpt><trkpt lat="44.26044401254208" lon="7.775791512315079"><ele>1322.6</ele><time>2026-04-10T12:52:42Z</time></trkpt><trkpt lat="44.26047444225712" lon="7.775902989522915"><ele>1324.8</ele><time>2026-04-10T12:52:43Z</time></trkpt><trkpt lat="44.26049380180402" lon="7.776027722821009"><ele>1327.0</ele><time>2026-04-10T12:52:44Z</time></trkpt><trkpt lat="44.26050044744331" lon="7.776161297368388"><ele>1328.3999999999999</ele><time>2026-04-10T12:52:44.999Z</time></trkpt><trkpt lat="44.26049430423808" lon="7.776302536376375"><ele>1329.8</ele><time>2026-04-10T12:52:45.999Z</time></trkpt><trkpt lat="44.26047417635452" lon="7.7764580621527175"><ele>1331.2</ele><time>2026-04-10T12:52:46.999Z</time></trkpt><trkpt lat="44.26046312844743" lon="7.776618711385405"><ele>1332.6</ele><time>2026-04-10T12:52:47.999Z</time></trkpt><trkpt lat="44.2604390972097" lon="7.776781367802466"><ele>1334.0</ele><time>2026-04-10T12:52:48.999Z</time></trkpt><trkpt lat="44.26041847500211" lon="7.77694390307151"><ele>1335.25</ele><time>2026-04-10T12:52:49.999Z</time></trkpt><trkpt lat="44.260400326668204" lon="7.777111980152496"><ele>1336.5</ele><time>2026-04-10T12:52:50.999Z</time></trkpt><trkpt lat="44.26036153161691" lon="7.777281051921929"><ele>1337.75</ele><time>2026-04-10T12:52:51.999Z</time></trkpt><trkpt lat="44.26035074849493" lon="7.777458182884069"><ele>1339.0</ele><time>2026-04-10T12:52:52.999Z</time></trkpt><trkpt lat="44.26034228929599" lon="7.777623427500307"><ele>1340.0</ele><time>2026-04-10T12:52:53.999Z</time></trkpt><trkpt lat="44.26033641676384" lon="7.777793487057985"><ele>1341.0</ele><time>2026-04-10T12:52:54.999Z</time></trkpt><trkpt lat="44.26032802572314" lon="7.777964209439306"><ele>1342.0</ele><time>2026-04-10T12:52:55.999Z</time></trkpt><trkpt lat="44.26032198034783" lon="7.778132960526139"><ele>1343.0</ele><time>2026-04-10T12:52:56.999Z</time></trkpt><trkpt lat="44.260305146648534" lon="7.778304009307726"><ele>1343.0</ele><time>2026-04-10T12:52:57.999Z</time></trkpt><trkpt lat="44.26028713831048" lon="7.778474064157838"><ele>1343.0</ele><time>2026-04-10T12:52:58.999Z</time></trkpt><trkpt lat="44.26026337069855" lon="7.778641570626391"><ele>1343.0</ele><time>2026-04-10T12:52:59.999Z</time></trkpt><trkpt lat="44.26022764109789" lon="7.778814419170554"><ele>1343.0</ele><time>2026-04-10T12:53:00.999Z</time></trkpt><trkpt lat="44.260194992499514" lon="7.778985597083821"><ele>1341.75</ele><time>2026-04-10T12:53:01.999Z</time></trkpt><trkpt lat="44.260169549128406" lon="7.779161917704851"><ele>1340.5</ele><time>2026-04-10T12:53:02.999Z</time></trkpt><trkpt lat="44.26015246568441" lon="7.779338105407599"><ele>1339.25</ele><time>2026-04-10T12:53:03.999Z</time></trkpt><trkpt lat="44.26013662639009" lon="7.779491482767062"><ele>1338.0</ele><time>2026-04-10T12:53:04.999Z</time></trkpt><trkpt lat="44.26011934017562" lon="7.779627556428337"><ele>1337.6000000000001</ele><time>2026-04-10T12:53:05.999Z</time></trkpt><trkpt lat="44.26010726786325" lon="7.77975077496931"><ele>1337.2</ele><time>2026-04-10T12:53:06.999Z</time></trkpt><trkpt lat="44.260100750574416" lon="7.779854870001502"><ele>1336.8</ele><time>2026-04-10T12:53:07.999Z</time></trkpt><trkpt lat="44.260092315647796" lon="7.780025288622222"><ele>1336.4</ele><time>2026-04-10T12:53:09.999Z</time></trkpt><trkpt lat="44.26007771939918" lon="7.780158963406396"><ele>1336.0</ele><time>2026-04-10T12:53:11.999Z</time></trkpt><trkpt lat="44.25999995771577" lon="7.780218711464238"><ele>1336.0</ele><time>2026-04-10T12:53:13.999Z</time></trkpt><trkpt lat="44.25992461878023" lon="7.7801394480194"><ele>1336.0</ele><time>2026-04-10T12:53:15.999Z</time></trkpt><trkpt lat="44.25991945583015" lon="7.779978005423741"><ele>1336.0</ele><time>2026-04-10T12:53:17.999Z</time></trkpt><trkpt lat="44.259932259170206" lon="7.779891928551079"><ele>1336.0</ele><time>2026-04-10T12:53:18.999Z</time></trkpt><trkpt lat="44.25995012894094" lon="7.779803189869261"><ele>1336.0</ele><time>2026-04-10T12:53:19.999Z</time></trkpt><trkpt lat="44.25996791246992" lon="7.779710451835186"><ele>1336.0</ele><time>2026-04-10T12:53:20.999Z</time></trkpt><trkpt lat="44.259979787537674" lon="7.779597634681461"><ele>1336.0</ele><time>2026-04-10T12:53:21.999Z</time></trkpt><trkpt lat="44.259977929533" lon="7.779470869491554"><ele>1336.0</ele><time>2026-04-10T12:53:22.999Z</time></trkpt><trkpt lat="44.25996640894783" lon="7.779339774605235"><ele>1336.0</ele><time>2026-04-10T12:53:23.999Z</time></trkpt><trkpt lat="44.25995364713393" lon="7.779191319651406"><ele>1336.0</ele><time>2026-04-10T12:53:24.999Z</time></trkpt><trkpt lat="44.25994050097893" lon="7.779069319937528"><ele>1336.0</ele><time>2026-04-10T12:53:25.999Z</time></trkpt><trkpt lat="44.259930789488" lon="7.77894017066728"><ele>1336.3333333333333</ele><time>2026-04-10T12:53:26.999Z</time></trkpt><trkpt lat="44.25992013633387" lon="7.77882829708261"><ele>1336.6666666666665</ele><time>2026-04-10T12:53:27.999Z</time></trkpt><trkpt lat="44.259909521168055" lon="7.778718478368797"><ele>1337.0</ele><time>2026-04-10T12:53:28.999Z</time></trkpt><trkpt lat="44.259894539818404" lon="7.778607528043105"><ele>1337.3333333333333</ele><time>2026-04-10T12:53:29.999Z</time></trkpt><trkpt lat="44.25987550654581" lon="7.778485886861008"><ele>1337.6666666666667</ele><time>2026-04-10T12:53:30.999Z</time></trkpt><trkpt lat="44.259858432830825" lon="7.778354374037647"><ele>1338.0</ele><time>2026-04-10T12:53:31.999Z</time></trkpt><trkpt lat="44.25984770076846" lon="7.778219567164051"><ele>1339.0</ele><time>2026-04-10T12:53:32.999Z</time></trkpt><trkpt lat="44.25982585403289" lon="7.778081712553911"><ele>1340.0</ele><time>2026-04-10T12:53:33.999Z</time></trkpt><trkpt lat="44.25980174141789" lon="7.777940137909864"><ele>1341.0</ele><time>2026-04-10T12:53:34.999Z</time></trkpt><trkpt lat="44.259780173224044" lon="7.777792814718225"><ele>1342.0</ele><time>2026-04-10T12:53:35.999Z</time></trkpt><trkpt lat="44.259749082698626" lon="7.77764862003937"><ele>1343.0</ele><time>2026-04-10T12:53:36.999Z</time></trkpt><trkpt lat="44.25971712263592" lon="7.777486030229886"><ele>1354.25</ele><time>2026-04-10T12:53:37.999Z</time></trkpt><trkpt lat="44.25969613674911" lon="7.77732049397388"><ele>1365.5</ele><time>2026-04-10T12:53:38.999Z</time></trkpt><trkpt lat="44.259655248706096" lon="7.777158253723829"><ele>1376.75</ele><time>2026-04-10T12:53:39.999Z</time></trkpt><trkpt lat="44.25961013317806" lon="7.776993659564217"><ele>1388.0</ele><time>2026-04-10T12:53:40.999Z</time></trkpt><trkpt lat="44.25956473314186" lon="7.776824878068602"><ele>1388.0</ele><time>2026-04-10T12:53:41.999Z</time></trkpt><trkpt lat="44.25952033474616" lon="7.776661598441639"><ele>1388.0</ele><time>2026-04-10T12:53:42.999Z</time></trkpt><trkpt lat="44.25947986352667" lon="7.776499249514799"><ele>1388.0</ele><time>2026-04-10T12:53:43.999Z</time></trkpt><trkpt lat="44.2594423575424" lon="7.776345383626796"><ele>1388.0</ele><time>2026-04-10T12:53:44.999Z</time></trkpt><trkpt lat="44.25940013254116" lon="7.776184023212184"><ele>1388.0</ele><time>2026-04-10T12:53:45.999Z</time></trkpt><trkpt lat="44.25935697625618" lon="7.77602390134911"><ele>1388.0</ele><time>2026-04-10T12:53:46.999Z</time></trkpt><trkpt lat="44.25931377845738" lon="7.775858487472804"><ele>1388.0</ele><time>2026-04-10T12:53:47.999Z</time></trkpt><trkpt lat="44.25927387446972" lon="7.7757089605982115"><ele>1388.0</ele><time>2026-04-10T12:53:48.999Z</time></trkpt><trkpt lat="44.25923292960184" lon="7.775559088132425"><ele>1386.4</ele><time>2026-04-10T12:53:49.999Z</time></trkpt><trkpt lat="44.25920411947237" lon="7.7753982079723665"><ele>1384.8000000000002</ele><time>2026-04-10T12:53:50.998Z</time></trkpt><trkpt lat="44.259168859088064" lon="7.775258157162581"><ele>1383.2</ele><time>2026-04-10T12:53:51.998Z</time></trkpt><trkpt lat="44.259131613046776" lon="7.775111585311568"><ele>1381.6</ele><time>2026-04-10T12:53:52.998Z</time></trkpt><trkpt lat="44.25909435302494" lon="7.774964621621354"><ele>1380.0</ele><time>2026-04-10T12:53:53.998Z</time></trkpt><trkpt lat="44.259062781524875" lon="7.774816186386609"><ele>1378.0</ele><time>2026-04-10T12:53:54.998Z</time></trkpt><trkpt lat="44.259026652615766" lon="7.774673838881079"><ele>1376.0</ele><time>2026-04-10T12:53:55.998Z</time></trkpt><trkpt lat="44.25897613785072" lon="7.774549285967081"><ele>1374.0</ele><time>2026-04-10T12:53:56.998Z</time></trkpt><trkpt lat="44.258913319397664" lon="7.774427940529923"><ele>1372.0</ele><time>2026-04-10T12:53:57.998Z</time></trkpt><trkpt lat="44.25885145410423" lon="7.774310840453913"><ele>1370.0</ele><time>2026-04-10T12:53:58.998Z</time></trkpt><trkpt lat="44.25878311454306" lon="7.774188336605492"><ele>1375.4</ele><time>2026-04-10T12:53:59.998Z</time></trkpt><trkpt lat="44.25872298151596" lon="7.7740801047947565"><ele>1380.8</ele><time>2026-04-10T12:54:00.998Z</time></trkpt><trkpt lat="44.2586686719217" lon="7.773977673595704"><ele>1386.1999999999998</ele><time>2026-04-10T12:54:01.998Z</time></trkpt><trkpt lat="44.258610590948656" lon="7.773862934441844"><ele>1391.6</ele><time>2026-04-10T12:54:02.998Z</time></trkpt><trkpt lat="44.25856774268491" lon="7.773740707177854"><ele>1397.0</ele><time>2026-04-10T12:54:04Z</time></trkpt><trkpt lat="44.25856882597597" lon="7.77360964419578"><ele>1394.3999999999999</ele><time>2026-04-10T12:54:05Z</time></trkpt><trkpt lat="44.258575910671446" lon="7.7734735858379205"><ele>1391.8</ele><time>2026-04-10T12:54:06Z</time></trkpt><trkpt lat="44.25858864372634" lon="7.7733330892697925"><ele>1389.2</ele><time>2026-04-10T12:54:07Z</time></trkpt><trkpt lat="44.25861647092907" lon="7.773191429109896"><ele>1386.6</ele><time>2026-04-10T12:54:08Z</time></trkpt><trkpt lat="44.25865852047765" lon="7.773059149824614"><ele>1384.0</ele><time>2026-04-10T12:54:09Z</time></trkpt><trkpt lat="44.258699297625576" lon="7.772927040266902"><ele>1384.0</ele><time>2026-04-10T12:54:10Z</time></trkpt><trkpt lat="44.25873219786845" lon="7.7728042297114985"><ele>1384.0</ele><time>2026-04-10T12:54:11Z</time></trkpt><trkpt lat="44.25875619551959" lon="7.7727041434598085"><ele>1384.0</ele><time>2026-04-10T12:54:12Z</time></trkpt><trkpt lat="44.25878340964471" lon="7.772604120806154"><ele>1384.0</ele><time>2026-04-10T12:54:13Z</time></trkpt><trkpt lat="44.258800375135216" lon="7.772512718775133"><ele>1384.0</ele><time>2026-04-10T12:54:14Z</time></trkpt><trkpt lat="44.258792366526016" lon="7.772351958820814"><ele>1384.0</ele><time>2026-04-10T12:54:16Z</time></trkpt><trkpt lat="44.258730674559466" lon="7.772234473074321"><ele>1382.1666666666665</ele><time>2026-04-10T12:54:18Z</time></trkpt><trkpt lat="44.258627247296445" lon="7.772230067574432"><ele>1380.3333333333333</ele><time>2026-04-10T12:54:20Z</time></trkpt><trkpt lat="44.258566581604235" lon="7.772284073168739"><ele>1378.5</ele><time>2026-04-10T12:54:21Z</time></trkpt><trkpt lat="44.25850727819653" lon="7.772358266718637"><ele>1376.6666666666667</ele><time>2026-04-10T12:54:22Z</time></trkpt><trkpt lat="44.258445870514684" lon="7.772439955264492"><ele>1374.8333333333335</ele><time>2026-04-10T12:54:23Z</time></trkpt><trkpt lat="44.25838730307083" lon="7.772528569669538"><ele>1373.0</ele><time>2026-04-10T12:54:24Z</time></trkpt><trkpt lat="44.258328984606045" lon="7.772633377410534"><ele>1375.2</ele><time>2026-04-10T12:54:25Z</time></trkpt><trkpt lat="44.258290191599336" lon="7.772749103259238"><ele>1377.4</ele><time>2026-04-10T12:54:26Z</time></trkpt><trkpt lat="44.25828167213773" lon="7.772883766709669"><ele>1379.6000000000001</ele><time>2026-04-10T12:54:27Z</time></trkpt><trkpt lat="44.25826366679608" lon="7.773014601228341"><ele>1381.8000000000002</ele><time>2026-04-10T12:54:28Z</time></trkpt><trkpt lat="44.25824849622049" lon="7.773155355341921"><ele>1384.0</ele><time>2026-04-10T12:54:29Z</time></trkpt><trkpt lat="44.25823314656905" lon="7.773300861179593"><ele>1384.0</ele><time>2026-04-10T12:54:30Z</time></trkpt><trkpt lat="44.258221333637344" lon="7.77344963946592"><ele>1384.0</ele><time>2026-04-10T12:54:31Z</time></trkpt><trkpt lat="44.25820607397402" lon="7.773581429665254"><ele>1384.0</ele><time>2026-04-10T12:54:32Z</time></trkpt><trkpt lat="44.258200692055674" lon="7.7737001426466"><ele>1384.0</ele><time>2026-04-10T12:54:33Z</time></trkpt><trkpt lat="44.25819452400996" lon="7.773819693651949"><ele>1384.0</ele><time>2026-04-10T12:54:34Z</time></trkpt><trkpt lat="44.25819805085607" lon="7.773943010712884"><ele>1386.6</ele><time>2026-04-10T12:54:35Z</time></trkpt><trkpt lat="44.25818965768905" lon="7.774069423827007"><ele>1389.2</ele><time>2026-04-10T12:54:36Z</time></trkpt><trkpt lat="44.258215160488" lon="7.774198241915192"><ele>1391.8</ele><time>2026-04-10T12:54:37Z</time></trkpt><trkpt lat="44.25826917850954" lon="7.774307341215515"><ele>1394.3999999999999</ele><time>2026-04-10T12:54:38Z</time></trkpt><trkpt lat="44.258303357364596" lon="7.77445846885985"><ele>1397.0</ele><time>2026-04-10T12:54:39Z</time></trkpt><trkpt lat="44.25834530488029" lon="7.774577171274239"><ele>1400.6</ele><time>2026-04-10T12:54:40Z</time></trkpt><trkpt lat="44.25838392785833" lon="7.7746993839889"><ele>1404.1999999999998</ele><time>2026-04-10T12:54:41Z</time></trkpt><trkpt lat="44.25841580149052" lon="7.77483705340151"><ele>1407.8</ele><time>2026-04-10T12:54:42Z</time></trkpt><trkpt lat="44.258448412372196" lon="7.774976809406778"><ele>1411.4</ele><time>2026-04-10T12:54:43Z</time></trkpt><trkpt lat="44.25847567499454" lon="7.775120868109221"><ele>1415.0</ele><time>2026-04-10T12:54:44Z</time></trkpt><trkpt lat="44.2585037547924" lon="7.775250234038286"><ele>1417.5</ele><time>2026-04-10T12:54:45Z</time></trkpt><trkpt lat="44.25851783766158" lon="7.77537606577517"><ele>1420.0</ele><time>2026-04-10T12:54:46Z</time></trkpt><trkpt lat="44.25853876687282" lon="7.775494577393826"><ele>1422.5</ele><time>2026-04-10T12:54:47Z</time></trkpt><trkpt lat="44.25855355733532" lon="7.775590428447107"><ele>1425.0</ele><time>2026-04-10T12:54:48Z</time></trkpt><trkpt lat="44.25858641653528" lon="7.775748975990532"><ele>1427.5</ele><time>2026-04-10T12:54:50Z</time></trkpt><trkpt lat="44.25858797469966" lon="7.775845294143158"><ele>1430.0</ele><time>2026-04-10T12:54:52Z</time></trkpt><trkpt lat="44.25853298478974" lon="7.775902743403583"><ele>1430.0</ele><time>2026-04-10T12:54:53.999Z</time></trkpt><trkpt lat="44.25846755269153" lon="7.775859604888105"><ele>1430.0</ele><time>2026-04-10T12:54:55.999Z</time></trkpt><trkpt lat="44.25844256614399" lon="7.77572475071398"><ele>1430.0</ele><time>2026-04-10T12:54:57.999Z</time></trkpt><trkpt lat="44.258440440606954" lon="7.7756311056221845"><ele>1430.0</ele><time>2026-04-10T12:54:58.999Z</time></trkpt><trkpt lat="44.25840683240547" lon="7.775441486847151"><ele>1430.0</ele><time>2026-04-10T12:55:00.999Z</time></trkpt><trkpt lat="44.2584012180711" lon="7.775332987201186"><ele>1430.0</ele><time>2026-04-10T12:55:01.999Z</time></trkpt><trkpt lat="44.25836232570987" lon="7.775215092193023"><ele>1430.0</ele><time>2026-04-10T12:55:02.999Z</time></trkpt><trkpt lat="44.258338031044985" lon="7.7751197113373625"><ele>1430.0</ele><time>2026-04-10T12:55:03.999Z</time></trkpt><trkpt lat="44.25830507152934" lon="7.7750281459827315"><ele>1430.0</ele><time>2026-04-10T12:55:04.999Z</time></trkpt><trkpt lat="44.25825765533189" lon="7.774926854220153"><ele>1430.0</ele><time>2026-04-10T12:55:05.999Z</time></trkpt><trkpt lat="44.258188418866816" lon="7.774823938298483"><ele>1430.0</ele><time>2026-04-10T12:55:06.999Z</time></trkpt><trkpt lat="44.258115957240335" lon="7.774742999854356"><ele>1429.8333333333335</ele><time>2026-04-10T12:55:07.999Z</time></trkpt><trkpt lat="44.25804052297605" lon="7.774678093789858"><ele>1429.6666666666667</ele><time>2026-04-10T12:55:08.999Z</time></trkpt><trkpt lat="44.25795386103227" lon="7.774622894934305"><ele>1429.5</ele><time>2026-04-10T12:55:09.999Z</time></trkpt><trkpt lat="44.25789497122841" lon="7.7745811576894255"><ele>1429.3333333333333</ele><time>2026-04-10T12:55:10.999Z</time></trkpt><trkpt lat="44.257786160770706" lon="7.7745277083118935"><ele>1429.1666666666665</ele><time>2026-04-10T12:55:12.999Z</time></trkpt><trkpt lat="44.25771007212237" lon="7.77450857582823"><ele>1429.0</ele><time>2026-04-10T12:55:13.999Z</time></trkpt><trkpt lat="44.25763937533272" lon="7.774534251565188"><ele>1429.0</ele><time>2026-04-10T12:55:14.999Z</time></trkpt><trkpt lat="44.25756915207818" lon="7.774588808415737"><ele>1429.0</ele><time>2026-04-10T12:55:15.999Z</time></trkpt><trkpt lat="44.257505572665394" lon="7.774678322083536"><ele>1429.0</ele><time>2026-04-10T12:55:16.999Z</time></trkpt><trkpt lat="44.25746154301741" lon="7.774792198468553"><ele>1429.0</ele><time>2026-04-10T12:55:17.999Z</time></trkpt><trkpt lat="44.2574063887698" lon="7.774891076328699"><ele>1429.0</ele><time>2026-04-10T12:55:18.999Z</time></trkpt><trkpt lat="44.25734095645514" lon="7.774996776956202"><ele>1430.8000000000002</ele><time>2026-04-10T12:55:19.999Z</time></trkpt><trkpt lat="44.257275463044884" lon="7.775117256512891"><ele>1432.6000000000001</ele><time>2026-04-10T12:55:20.999Z</time></trkpt><trkpt lat="44.257208404974094" lon="7.775222848551185"><ele>1434.4</ele><time>2026-04-10T12:55:21.999Z</time></trkpt><trkpt lat="44.257151152399864" lon="7.7753260243904165"><ele>1436.2</ele><time>2026-04-10T12:55:22.999Z</time></trkpt><trkpt lat="44.25709870710477" lon="7.775420536982002"><ele>1438.0</ele><time>2026-04-10T12:55:23.999Z</time></trkpt><trkpt lat="44.25705965384885" lon="7.775525866405307"><ele>1439.0</ele><time>2026-04-10T12:55:24.999Z</time></trkpt><trkpt lat="44.25699974521422" lon="7.77560889998372"><ele>1440.0</ele><time>2026-04-10T12:55:25.999Z</time></trkpt><trkpt lat="44.256947303887465" lon="7.7757054403256145"><ele>1441.0</ele><time>2026-04-10T12:55:26.999Z</time></trkpt><trkpt lat="44.25690977766113" lon="7.775797745656298"><ele>1442.0</ele><time>2026-04-10T12:55:27.999Z</time></trkpt><trkpt lat="44.256875751612235" lon="7.775884331418851"><ele>1443.0</ele><time>2026-04-10T12:55:28.999Z</time></trkpt><trkpt lat="44.256835485700705" lon="7.7760219045447965"><ele>1444.0</ele><time>2026-04-10T12:55:30.999Z</time></trkpt><trkpt lat="44.256864244676294" lon="7.776139318005506"><ele>1444.0</ele><time>2026-04-10T12:55:32.999Z</time></trkpt><trkpt lat="44.25695382723091" lon="7.776186878173718"><ele>1444.0</ele><time>2026-04-10T12:55:34.999Z</time></trkpt><trkpt lat="44.25705721370629" lon="7.776105113377833"><ele>1444.0</ele><time>2026-04-10T12:55:36.999Z</time></trkpt><trkpt lat="44.25711213753151" lon="7.776041200565629"><ele>1444.0</ele><time>2026-04-10T12:55:37.999Z</time></trkpt><trkpt lat="44.25717924145197" lon="7.775965465087577"><ele>1444.0</ele><time>2026-04-10T12:55:38.999Z</time></trkpt><trkpt lat="44.25725466043276" lon="7.775885930358519"><ele>1444.0</ele><time>2026-04-10T12:55:39.999Z</time></trkpt><trkpt lat="44.257338938405944" lon="7.775801701891215"><ele>1444.0</ele><time>2026-04-10T12:55:40.999Z</time></trkpt><trkpt lat="44.2574239827131" lon="7.775723239150507"><ele>1444.0</ele><time>2026-04-10T12:55:41.999Z</time></trkpt><trkpt lat="44.25751156843495" lon="7.775636870458084"><ele>1444.0</ele><time>2026-04-10T12:55:42.999Z</time></trkpt><trkpt lat="44.25757861782908" lon="7.775573208663408"><ele>1444.0</ele><time>2026-04-10T12:55:43.999Z</time></trkpt><trkpt lat="44.25763561024336" lon="7.775517156626931"><ele>1444.0</ele><time>2026-04-10T12:55:44.999Z</time></trkpt><trkpt lat="44.25771928283967" lon="7.7754620692594285"><ele>1444.0</ele><time>2026-04-10T12:55:46.999Z</time></trkpt><trkpt lat="44.2577944983861" lon="7.775524226980321"><ele>1444.0</ele><time>2026-04-10T12:55:48.999Z</time></trkpt><trkpt lat="44.25780111881877" lon="7.775669906081886"><ele>1444.0</ele><time>2026-04-10T12:55:50.999Z</time></trkpt><trkpt lat="44.25775614513526" lon="7.7757496936176125"><ele>1444.0</ele><time>2026-04-10T12:55:51.999Z</time></trkpt><trkpt lat="44.25771992411935" lon="7.77582784870939"><ele>1444.0</ele><time>2026-04-10T12:55:52.999Z</time></trkpt><trkpt lat="44.25768178488661" lon="7.775917499914066"><ele>1444.0</ele><time>2026-04-10T12:55:53.999Z</time></trkpt><trkpt lat="44.25763074000998" lon="7.776019474271049"><ele>1444.0</ele><time>2026-04-10T12:55:54.999Z</time></trkpt><trkpt lat="44.25757755981969" lon="7.77613494412075"><ele>1444.0</ele><time>2026-04-10T12:55:55.999Z</time></trkpt><trkpt lat="44.25752435086661" lon="7.776244807424108"><ele>1444.0</ele><time>2026-04-10T12:55:56.999Z</time></trkpt><trkpt lat="44.25745993931721" lon="7.776350339833094"><ele>1444.0</ele><time>2026-04-10T12:55:57.998Z</time></trkpt><trkpt lat="44.257393753584786" lon="7.776465636946036"><ele>1446.75</ele><time>2026-04-10T12:55:58.998Z</time></trkpt><trkpt lat="44.25731458201438" lon="7.776594832199137"><ele>1449.5</ele><time>2026-04-10T12:55:59.998Z</time></trkpt><trkpt lat="44.25724038860234" lon="7.776710888691785"><ele>1452.25</ele><time>2026-04-10T12:56:00.998Z</time></trkpt><trkpt lat="44.257157369753216" lon="7.776837038419568"><ele>1455.0</ele><time>2026-04-10T12:56:01.998Z</time></trkpt><trkpt lat="44.25706487003978" lon="7.7769675780034655"><ele>1457.3333333333333</ele><time>2026-04-10T12:56:02.998Z</time></trkpt><trkpt lat="44.25699922644887" lon="7.777062845391458"><ele>1459.6666666666667</ele><time>2026-04-10T12:56:03.998Z</time></trkpt><trkpt lat="44.25693282563156" lon="7.7771600916840296"><ele>1462.0</ele><time>2026-04-10T12:56:04.998Z</time></trkpt><trkpt lat="44.25687257773145" lon="7.77723096959782"><ele>1464.3333333333335</ele><time>2026-04-10T12:56:05.998Z</time></trkpt><trkpt lat="44.256804543173814" lon="7.777312851591829"><ele>1466.6666666666667</ele><time>2026-04-10T12:56:06.998Z</time></trkpt><trkpt lat="44.25674668254639" lon="7.777394227423001"><ele>1469.0</ele><time>2026-04-10T12:56:07.998Z</time></trkpt><trkpt lat="44.256690554556705" lon="7.777520861061974"><ele>1469.0</ele><time>2026-04-10T12:56:08.998Z</time></trkpt><trkpt lat="44.25666194194907" lon="7.777622962885992"><ele>1469.0</ele><time>2026-04-10T12:56:10Z</time></trkpt><trkpt lat="44.25662764817432" lon="7.7777448333926635"><ele>1469.0</ele><time>2026-04-10T12:56:11Z</time></trkpt><trkpt lat="44.256606037908284" lon="7.777872445140172"><ele>1469.0</ele><time>2026-04-10T12:56:12Z</time></trkpt><trkpt lat="44.25660563882054" lon="7.778011733678633"><ele>1469.0</ele><time>2026-04-10T12:56:13Z</time></trkpt><trkpt lat="44.256604624403835" lon="7.7781592897182135"><ele>1469.6666666666667</ele><time>2026-04-10T12:56:14Z</time></trkpt><trkpt lat="44.25661185907482" lon="7.778294929524761"><ele>1470.3333333333335</ele><time>2026-04-10T12:56:15Z</time></trkpt><trkpt lat="44.25662302406713" lon="7.778415515918496"><ele>1471.0</ele><time>2026-04-10T12:56:16Z</time></trkpt><trkpt lat="44.256637818679394" lon="7.778535838396946"><ele>1471.6666666666667</ele><time>2026-04-10T12:56:17Z</time></trkpt><trkpt lat="44.25665443030809" lon="7.778657528657635"><ele>1472.3333333333333</ele><time>2026-04-10T12:56:18Z</time></trkpt><trkpt lat="44.25666658411534" lon="7.778760647650478"><ele>1473.0</ele><time>2026-04-10T12:56:19Z</time></trkpt><trkpt lat="44.256678224919995" lon="7.7788580546758554"><ele>1473.0</ele><time>2026-04-10T12:56:20Z</time></trkpt><trkpt lat="44.25668280756373" lon="7.778949195105679"><ele>1473.0</ele><time>2026-04-10T12:56:21Z</time></trkpt><trkpt lat="44.256669241941594" lon="7.779089491680475"><ele>1473.0</ele><time>2026-04-10T12:56:23Z</time></trkpt><trkpt lat="44.25658320307565" lon="7.779094705752632"><ele>1473.0</ele><time>2026-04-10T12:56:26Z</time></trkpt><trkpt lat="44.25647889742599" lon="7.779103145917057"><ele>1473.0</ele><time>2026-04-10T12:56:28Z</time></trkpt><trkpt lat="44.25636781480657" lon="7.7790565169990415"><ele>1473.1666666666667</ele><time>2026-04-10T12:56:30Z</time></trkpt><trkpt lat="44.25630030951675" lon="7.779053978766327"><ele>1473.3333333333333</ele><time>2026-04-10T12:56:31Z</time></trkpt><trkpt lat="44.25623334599825" lon="7.779045337433618"><ele>1473.5</ele><time>2026-04-10T12:56:32Z</time></trkpt><trkpt lat="44.25616895441325" lon="7.779035767908123"><ele>1473.6666666666665</ele><time>2026-04-10T12:56:33Z</time></trkpt><trkpt lat="44.25604798600532" lon="7.779024542117279"><ele>1473.8333333333333</ele><time>2026-04-10T12:56:35Z</time></trkpt><trkpt lat="44.25598470344055" lon="7.779015700821466"><ele>1474.0</ele><time>2026-04-10T12:56:36Z</time></trkpt><trkpt lat="44.25591685006269" lon="7.779004150885573"><ele>1474.0</ele><time>2026-04-10T12:56:37Z</time></trkpt><trkpt lat="44.25578758521169" lon="7.77899123849512"><ele>1474.0</ele><time>2026-04-10T12:56:39Z</time></trkpt><trkpt lat="44.25571359896614" lon="7.778998030414915"><ele>1474.0</ele><time>2026-04-10T12:56:40Z</time></trkpt><trkpt lat="44.255635728403874" lon="7.779014169701869"><ele>1474.0</ele><time>2026-04-10T12:56:41Z</time></trkpt><trkpt lat="44.25555820448958" lon="7.779037796759404"><ele>1474.0</ele><time>2026-04-10T12:56:42Z</time></trkpt><trkpt lat="44.255489702774824" lon="7.779050849366194"><ele>1474.0</ele><time>2026-04-10T12:56:43Z</time></trkpt><trkpt lat="44.255408060353474" lon="7.779073162569805"><ele>1475.6</ele><time>2026-04-10T12:56:44Z</time></trkpt><trkpt lat="44.25531711521608" lon="7.779101840554332"><ele>1477.2</ele><time>2026-04-10T12:56:45Z</time></trkpt><trkpt lat="44.255226142063165" lon="7.7791306699490415"><ele>1478.8</ele><time>2026-04-10T12:56:46Z</time></trkpt><trkpt lat="44.25512658351118" lon="7.779169082148134"><ele>1480.3999999999999</ele><time>2026-04-10T12:56:47Z</time></trkpt><trkpt lat="44.25503301483091" lon="7.779194924711503"><ele>1482.0</ele><time>2026-04-10T12:56:48Z</time></trkpt><trkpt lat="44.254947002820124" lon="7.779220750927078"><ele>1482.0</ele><time>2026-04-10T12:56:49Z</time></trkpt><trkpt lat="44.25486273062153" lon="7.779253186628338"><ele>1482.0</ele><time>2026-04-10T12:56:50Z</time></trkpt><trkpt lat="44.25478641423999" lon="7.779279110756592"><ele>1482.0</ele><time>2026-04-10T12:56:51Z</time></trkpt><trkpt lat="44.254691830768614" lon="7.779301481975151"><ele>1482.0</ele><time>2026-04-10T12:56:52Z</time></trkpt><trkpt lat="44.254611684223725" lon="7.779311649005505"><ele>1482.0</ele><time>2026-04-10T12:56:53Z</time></trkpt><trkpt lat="44.254533033815115" lon="7.779328785180128"><ele>1482.0</ele><time>2026-04-10T12:56:54Z</time></trkpt><trkpt lat="44.25444965927153" lon="7.77935019958492"><ele>1479.8333333333333</ele><time>2026-04-10T12:56:55Z</time></trkpt><trkpt lat="44.25437692826726" lon="7.779397164351085"><ele>1477.6666666666667</ele><time>2026-04-10T12:56:56Z</time></trkpt><trkpt lat="44.254304861097296" lon="7.779468327905564"><ele>1475.5</ele><time>2026-04-10T12:56:57Z</time></trkpt><trkpt lat="44.254229074689626" lon="7.779546105233902"><ele>1473.3333333333335</ele><time>2026-04-10T12:56:58Z</time></trkpt><trkpt lat="44.254177037863734" lon="7.779608743302723"><ele>1471.1666666666667</ele><time>2026-04-10T12:56:59Z</time></trkpt><trkpt lat="44.254127837023645" lon="7.779677023584113"><ele>1469.0</ele><time>2026-04-10T12:56:59.999Z</time></trkpt><trkpt lat="44.254037068649936" lon="7.779787586163986"><ele>1471.8000000000002</ele><time>2026-04-10T12:57:01.999Z</time></trkpt><trkpt lat="44.2539355550111" lon="7.77988957016657"><ele>1474.6000000000001</ele><time>2026-04-10T12:57:03.999Z</time></trkpt><trkpt lat="44.25386083790095" lon="7.779908041103441"><ele>1477.4</ele><time>2026-04-10T12:57:04.999Z</time></trkpt><trkpt lat="44.25375090087751" lon="7.779944810580064"><ele>1480.2</ele><time>2026-04-10T12:57:06.999Z</time></trkpt><trkpt lat="44.25368745078971" lon="7.779978052014489"><ele>1483.0</ele><time>2026-04-10T12:57:07.999Z</time></trkpt><trkpt lat="44.25360650837497" lon="7.779989466163408"><ele>1483.0</ele><time>2026-04-10T12:57:08.999Z</time></trkpt><trkpt lat="44.253532952316114" lon="7.7799839161611555"><ele>1483.0</ele><time>2026-04-10T12:57:09.999Z</time></trkpt><trkpt lat="44.253456264036" lon="7.779991995756023"><ele>1483.0</ele><time>2026-04-10T12:57:10.999Z</time></trkpt><trkpt lat="44.253391772296446" lon="7.780000241014278"><ele>1483.0</ele><time>2026-04-10T12:57:11.999Z</time></trkpt><trkpt lat="44.25326151057786" lon="7.780025749310309"><ele>1483.0</ele><time>2026-04-10T12:57:13.999Z</time></trkpt><trkpt lat="44.25319089147903" lon="7.780045226461324"><ele>1483.0</ele><time>2026-04-10T12:57:14.999Z</time></trkpt><trkpt lat="44.25311475206269" lon="7.780053916139338"><ele>1483.6666666666665</ele><time>2026-04-10T12:57:15.999Z</time></trkpt><trkpt lat="44.25305018144203" lon="7.780091738493677"><ele>1484.3333333333333</ele><time>2026-04-10T12:57:16.999Z</time></trkpt><trkpt lat="44.25299040096996" lon="7.780136763937131"><ele>1485.0</ele><time>2026-04-10T12:57:17.999Z</time></trkpt><trkpt lat="44.25294117811936" lon="7.780207115838795"><ele>1485.6666666666667</ele><time>2026-04-10T12:57:18.999Z</time></trkpt><trkpt lat="44.252837387724" lon="7.7803049526490815"><ele>1486.3333333333335</ele><time>2026-04-10T12:57:20.999Z</time></trkpt><trkpt lat="44.25278776153538" lon="7.780359127918024"><ele>1487.0</ele><time>2026-04-10T12:57:21.999Z</time></trkpt><trkpt lat="44.252733083411584" lon="7.780419148131382"><ele>1487.0</ele><time>2026-04-10T12:57:22.999Z</time></trkpt><trkpt lat="44.252678104474434" lon="7.7804811656125485"><ele>1487.0</ele><time>2026-04-10T12:57:23.999Z</time></trkpt><trkpt lat="44.25261614885042" lon="7.780561634739727"><ele>1487.0</ele><time>2026-04-10T12:57:24.999Z</time></trkpt><trkpt lat="44.25256444246976" lon="7.780640546529232"><ele>1487.0</ele><time>2026-04-10T12:57:25.999Z</time></trkpt><trkpt lat="44.25250732056434" lon="7.780717685155381"><ele>1487.0</ele><time>2026-04-10T12:57:26.999Z</time></trkpt><trkpt lat="44.25245117801829" lon="7.780802710211457"><ele>1487.0</ele><time>2026-04-10T12:57:27.999Z</time></trkpt><trkpt lat="44.25239653867026" lon="7.78089058850801"><ele>1487.0</ele><time>2026-04-10T12:57:28.999Z</time></trkpt><trkpt lat="44.2523422039451" lon="7.780987277373461"><ele>1487.0</ele><time>2026-04-10T12:57:29.999Z</time></trkpt><trkpt lat="44.252288678868105" lon="7.781076871242627"><ele>1487.0</ele><time>2026-04-10T12:57:30.999Z</time></trkpt><trkpt lat="44.2522376212133" lon="7.781168542948755"><ele>1487.0</ele><time>2026-04-10T12:57:31.999Z</time></trkpt><trkpt lat="44.25219890257052" lon="7.78125959083726"><ele>1487.0</ele><time>2026-04-10T12:57:32.999Z</time></trkpt><trkpt lat="44.252162230430756" lon="7.781349276738383"><ele>1487.0</ele><time>2026-04-10T12:57:33.999Z</time></trkpt><trkpt lat="44.25213319323963" lon="7.781446756566637"><ele>1485.8333333333335</ele><time>2026-04-10T12:57:34.999Z</time></trkpt><trkpt lat="44.25210622047317" lon="7.7815501534933595"><ele>1484.6666666666667</ele><time>2026-04-10T12:57:35.999Z</time></trkpt><trkpt lat="44.252088228797795" lon="7.78164304499077"><ele>1483.5</ele><time>2026-04-10T12:57:36.999Z</time></trkpt><trkpt lat="44.25205307016173" lon="7.7817896341611394"><ele>1482.3333333333333</ele><time>2026-04-10T12:57:38.999Z</time></trkpt><trkpt lat="44.25203223438843" lon="7.781873109797003"><ele>1481.1666666666665</ele><time>2026-04-10T12:57:40.999Z</time></trkpt><trkpt lat="44.25200810738594" lon="7.781961448849751"><ele>1480.0</ele><time>2026-04-10T12:57:43.999Z</time></trkpt><trkpt lat="44.25196256079338" lon="7.782095385948855"><ele>1482.6666666666665</ele><time>2026-04-10T12:57:45.999Z</time></trkpt><trkpt lat="44.25192698846374" lon="7.782172427505279"><ele>1485.3333333333333</ele><time>2026-04-10T12:57:46.999Z</time></trkpt><trkpt lat="44.25188620394834" lon="7.782250543394381"><ele>1488.0</ele><time>2026-04-10T12:57:47.999Z</time></trkpt><trkpt lat="44.2518317419624" lon="7.782315144821573"><ele>1490.6666666666667</ele><time>2026-04-10T12:57:48.999Z</time></trkpt><trkpt lat="44.251749311933885" lon="7.782406797185308"><ele>1493.3333333333335</ele><time>2026-04-10T12:57:50.999Z</time></trkpt><trkpt lat="44.25167070869512" lon="7.782497081469304"><ele>1496.0</ele><time>2026-04-10T12:57:52.999Z</time></trkpt><trkpt lat="44.25160748885552" lon="7.782606982844278"><ele>1496.0</ele><time>2026-04-10T12:57:54.999Z</time></trkpt><trkpt lat="44.251549708567744" lon="7.782691080715399"><ele>1496.0</ele><time>2026-04-10T12:57:57.999Z</time></trkpt><trkpt lat="44.25160206933889" lon="7.782595821945299"><ele>1496.0</ele><time>2026-04-10T12:58:25Z</time></trkpt><trkpt lat="44.25166520272712" lon="7.782505035055593"><ele>1496.0</ele><time>2026-04-10T12:58:27Z</time></trkpt><trkpt lat="44.25175108887964" lon="7.782406650760669"><ele>1496.0</ele><time>2026-04-10T12:58:29Z</time></trkpt><trkpt lat="44.25182589936451" lon="7.78231145250657"><ele>1496.0</ele><time>2026-04-10T12:58:31Z</time></trkpt><trkpt lat="44.2518896020895" lon="7.782221810858541"><ele>1496.0</ele><time>2026-04-10T12:58:33Z</time></trkpt><trkpt lat="44.25197682890523" lon="7.782113573499954"><ele>1496.0</ele><time>2026-04-10T12:58:35Z</time></trkpt><trkpt lat="44.25200777055425" lon="7.782027192874921"><ele>1496.0</ele><time>2026-04-10T12:58:36Z</time></trkpt><trkpt lat="44.25203516968628" lon="7.781932092708652"><ele>1496.0</ele><time>2026-04-10T12:58:37Z</time></trkpt><trkpt lat="44.25203943352217" lon="7.781833443940104"><ele>1496.0</ele><time>2026-04-10T12:58:38Z</time></trkpt><trkpt lat="44.252055274280025" lon="7.78174183029715"><ele>1492.8</ele><time>2026-04-10T12:58:39Z</time></trkpt><trkpt lat="44.25209242200873" lon="7.7815620029129935"><ele>1489.6</ele><time>2026-04-10T12:58:41Z</time></trkpt><trkpt lat="44.252123135405085" lon="7.781413323517706"><ele>1486.4</ele><time>2026-04-10T12:58:43Z</time></trkpt><trkpt lat="44.25215632875905" lon="7.781252638996446"><ele>1483.2</ele><time>2026-04-10T12:58:45Z</time></trkpt><trkpt lat="44.25219561474451" lon="7.781168391180111"><ele>1480.0</ele><time>2026-04-10T12:58:46Z</time></trkpt><trkpt lat="44.252240172818134" lon="7.781079856682625"><ele>1481.4</ele><time>2026-04-10T12:58:47Z</time></trkpt><trkpt lat="44.252281199012614" lon="7.781012481190928"><ele>1482.8</ele><time>2026-04-10T12:58:48Z</time></trkpt><trkpt lat="44.25231663348159" lon="7.780935739554081"><ele>1484.1999999999998</ele><time>2026-04-10T12:58:49Z</time></trkpt><trkpt lat="44.25237657534214" lon="7.780857479587255"><ele>1485.6</ele><time>2026-04-10T12:58:50Z</time></trkpt><trkpt lat="44.252415939897745" lon="7.780775144740492"><ele>1487.0</ele><time>2026-04-10T12:58:51Z</time></trkpt><trkpt lat="44.25277723968621" lon="7.781058886599004"><ele>1487.0</ele><time>2026-04-10T12:58:52Z</time></trkpt><trkpt lat="44.25280837166155" lon="7.780365638355523"><ele>1487.0</ele><time>2026-04-10T12:58:57Z</time></trkpt><trkpt lat="44.25288566638373" lon="7.7802743773235346"><ele>1487.0</ele><time>2026-04-10T12:58:59Z</time></trkpt><trkpt lat="44.25293612940772" lon="7.780217239189122"><ele>1487.0</ele><time>2026-04-10T12:59:00Z</time></trkpt><trkpt lat="44.25303718486187" lon="7.780148951497709"><ele>1487.0</ele><time>2026-04-10T12:59:02Z</time></trkpt><trkpt lat="44.253145919715585" lon="7.780081601536812"><ele>1487.0</ele><time>2026-04-10T12:59:04Z</time></trkpt><trkpt lat="44.25321041681542" lon="7.780049667384808"><ele>1486.1999999999998</ele><time>2026-04-10T12:59:05Z</time></trkpt><trkpt lat="44.25333453484118" lon="7.78003713929704"><ele>1485.4</ele><time>2026-04-10T12:59:06.999Z</time></trkpt><trkpt lat="44.253417296176394" lon="7.780028738267275"><ele>1484.6</ele><time>2026-04-10T12:59:07.999Z</time></trkpt><trkpt lat="44.25348829970868" lon="7.780019309462253"><ele>1483.8000000000002</ele><time>2026-04-10T12:59:08.999Z</time></trkpt><trkpt lat="44.25359992850964" lon="7.780005064669869"><ele>1483.0</ele><time>2026-04-10T12:59:10.999Z</time></trkpt><trkpt lat="44.25366899312341" lon="7.779999558148543"><ele>1483.0</ele><time>2026-04-10T12:59:11.999Z</time></trkpt><trkpt lat="44.253738159880754" lon="7.779991342212785"><ele>1483.0</ele><time>2026-04-10T12:59:12.999Z</time></trkpt><trkpt lat="44.25380933959956" lon="7.779970950127273"><ele>1483.0</ele><time>2026-04-10T12:59:13.999Z</time></trkpt><trkpt lat="44.25392804239451" lon="7.779917003555923"><ele>1483.0</ele><time>2026-04-10T12:59:15.999Z</time></trkpt><trkpt lat="44.253995960787194" lon="7.779852941801619"><ele>1483.0</ele><time>2026-04-10T12:59:16.999Z</time></trkpt><trkpt lat="44.25407200004024" lon="7.779780303528525"><ele>1483.0</ele><time>2026-04-10T12:59:17.999Z</time></trkpt><trkpt lat="44.2541551549435" lon="7.77968375840975"><ele>1480.2</ele><time>2026-04-10T12:59:18.999Z</time></trkpt><trkpt lat="44.25423305630718" lon="7.779586746419857"><ele>1477.4</ele><time>2026-04-10T12:59:19.999Z</time></trkpt><trkpt lat="44.25429885493018" lon="7.779509136551486"><ele>1474.6000000000001</ele><time>2026-04-10T12:59:20.999Z</time></trkpt><trkpt lat="44.254370146360586" lon="7.779444566173423"><ele>1471.8000000000002</ele><time>2026-04-10T12:59:21.999Z</time></trkpt><trkpt lat="44.25446111566096" lon="7.77939039293729"><ele>1469.0</ele><time>2026-04-10T12:59:22.999Z</time></trkpt><trkpt lat="44.254546633605585" lon="7.779367920644126"><ele>1471.6</ele><time>2026-04-10T12:59:23.999Z</time></trkpt><trkpt lat="44.25463802133405" lon="7.779346122985875"><ele>1474.2</ele><time>2026-04-10T12:59:24.999Z</time></trkpt><trkpt lat="44.25474009278735" lon="7.779321695917728"><ele>1476.8</ele><time>2026-04-10T12:59:25.999Z</time></trkpt><trkpt lat="44.25485155255451" lon="7.779298523920816"><ele>1479.3999999999999</ele><time>2026-04-10T12:59:26.999Z</time></trkpt><trkpt lat="44.25496478629204" lon="7.779264119648645"><ele>1482.0</ele><time>2026-04-10T12:59:27.999Z</time></trkpt><trkpt lat="44.25505748014743" lon="7.779239108674425"><ele>1482.0</ele><time>2026-04-10T12:59:28.999Z</time></trkpt><trkpt lat="44.25514618846112" lon="7.779206314908168"><ele>1482.0</ele><time>2026-04-10T12:59:29.999Z</time></trkpt><trkpt lat="44.25522442361379" lon="7.779175594484084"><ele>1482.0</ele><time>2026-04-10T12:59:30.999Z</time></trkpt><trkpt lat="44.25530268701245" lon="7.779157071021912"><ele>1482.0</ele><time>2026-04-10T12:59:31.999Z</time></trkpt><trkpt lat="44.25537261179571" lon="7.779136663074055"><ele>1482.0</ele><time>2026-04-10T12:59:32.999Z</time></trkpt><trkpt lat="44.25544681377084" lon="7.7791188184660935"><ele>1482.0</ele><time>2026-04-10T12:59:33.999Z</time></trkpt><trkpt lat="44.25552595274945" lon="7.779107146959454"><ele>1482.0</ele><time>2026-04-10T12:59:34.999Z</time></trkpt><trkpt lat="44.25560149469623" lon="7.779088065039476"><ele>1482.0</ele><time>2026-04-10T12:59:35.999Z</time></trkpt><trkpt lat="44.255669348899076" lon="7.779072977862387"><ele>1482.0</ele><time>2026-04-10T12:59:36.999Z</time></trkpt><trkpt lat="44.25573909087552" lon="7.779067661727501"><ele>1482.0</ele><time>2026-04-10T12:59:37.999Z</time></trkpt><trkpt lat="44.25585239142267" lon="7.779087410974223"><ele>1482.0</ele><time>2026-04-10T12:59:39.999Z</time></trkpt><trkpt lat="44.255954985670115" lon="7.7790876634445425"><ele>1482.0</ele><time>2026-04-10T12:59:41.999Z</time></trkpt><trkpt lat="44.256019005887865" lon="7.779146961709933"><ele>1480.857142857143</ele><time>2026-04-10T12:59:43.999Z</time></trkpt><trkpt lat="44.256096651595016" lon="7.779164359546716"><ele>1479.7142857142858</ele><time>2026-04-10T12:59:48.999Z</time></trkpt><trkpt lat="44.25615773322722" lon="7.779083832948312"><ele>1478.5714285714287</ele><time>2026-04-10T12:59:52.999Z</time></trkpt><trkpt lat="44.25611631793841" lon="7.779016025843802"><ele>1477.4285714285716</ele><time>2026-04-10T12:59:56.999Z</time></trkpt><trkpt lat="44.25604730926441" lon="7.779008791717339"><ele>1476.2857142857142</ele><time>2026-04-10T12:59:58.999Z</time></trkpt><trkpt lat="44.255980105630556" lon="7.779052573668569"><ele>1475.1428571428573</ele><time>2026-04-10T13:00:00.999Z</time></trkpt><trkpt lat="44.25592954852966" lon="7.779110636306059"><ele>1474.0</ele><time>2026-04-10T13:00:03.999Z</time></trkpt><trkpt lat="44.255998806286996" lon="7.7791345145966515"><ele>1474.0</ele><time>2026-04-10T13:02:02.999Z</time></trkpt><trkpt lat="44.25609937268198" lon="7.779133649780313"><ele>1474.0</ele><time>2026-04-10T13:02:04.999Z</time></trkpt><trkpt lat="44.25619510760903" lon="7.779173492845865"><ele>1474.0</ele><time>2026-04-10T13:02:06.999Z</time></trkpt><trkpt lat="44.2563049515948" lon="7.779259360527421"><ele>1474.0</ele><time>2026-04-10T13:02:08.999Z</time></trkpt><trkpt lat="44.25640217490311" lon="7.779325373009667"><ele>1474.0</ele><time>2026-04-10T13:02:10.998Z</time></trkpt><trkpt lat="44.25648820171317" lon="7.77931271375363"><ele>1473.8333333333333</ele><time>2026-04-10T13:02:12.998Z</time></trkpt><trkpt lat="44.25655250716897" lon="7.779243019669359"><ele>1473.6666666666665</ele><time>2026-04-10T13:02:15.998Z</time></trkpt><trkpt lat="44.25661517600701" lon="7.779202840672665"><ele>1473.5</ele><time>2026-04-10T13:02:18.998Z</time></trkpt><trkpt lat="44.256680770504126" lon="7.779160716426429"><ele>1473.3333333333333</ele><time>2026-04-10T13:02:20.998Z</time></trkpt><trkpt lat="44.25672043865422" lon="7.779024613476848"><ele>1473.1666666666667</ele><time>2026-04-10T13:02:22.998Z</time></trkpt><trkpt lat="44.25672120296938" lon="7.778872976803659"><ele>1473.0</ele><time>2026-04-10T13:02:24.998Z</time></trkpt><trkpt lat="44.25670037521823" lon="7.778694398411943"><ele>1473.0</ele><time>2026-04-10T13:02:26.998Z</time></trkpt><trkpt lat="44.25668319384236" lon="7.778519106772301"><ele>1473.0</ele><time>2026-04-10T13:02:29Z</time></trkpt><trkpt lat="44.25666057439129" lon="7.7784263870630586"><ele>1473.0</ele><time>2026-04-10T13:02:30Z</time></trkpt><trkpt lat="44.256651533850246" lon="7.77832148177912"><ele>1473.0</ele><time>2026-04-10T13:02:31Z</time></trkpt><trkpt lat="44.256646168044924" lon="7.778232562540718"><ele>1473.0</ele><time>2026-04-10T13:02:32Z</time></trkpt><trkpt lat="44.256655985591244" lon="7.77812257926464"><ele>1473.0</ele><time>2026-04-10T13:02:33Z</time></trkpt><trkpt lat="44.25665264420701" lon="7.778025675590963"><ele>1473.6000000000001</ele><time>2026-04-10T13:02:34Z</time></trkpt><trkpt lat="44.2566597241301" lon="7.777848961569446"><ele>1474.2</ele><time>2026-04-10T13:02:36Z</time></trkpt><trkpt lat="44.25666905720134" lon="7.777755112939413"><ele>1474.8</ele><time>2026-04-10T13:02:37Z</time></trkpt><trkpt lat="44.25669382802309" lon="7.777654863622881"><ele>1475.4</ele><time>2026-04-10T13:02:38Z</time></trkpt><trkpt lat="44.25671403218393" lon="7.777568195313652"><ele>1476.0</ele><time>2026-04-10T13:02:39Z</time></trkpt><trkpt lat="44.2567865734414" lon="7.777395858793969"><ele>1474.6</ele><time>2026-04-10T13:02:41Z</time></trkpt><trkpt lat="44.256856044158944" lon="7.7773173836365554"><ele>1473.1999999999998</ele><time>2026-04-10T13:02:42Z</time></trkpt><trkpt lat="44.25693596746435" lon="7.777221841874512"><ele>1471.8000000000002</ele><time>2026-04-10T13:02:43Z</time></trkpt><trkpt lat="44.25701320283019" lon="7.777130807893899"><ele>1470.4</ele><time>2026-04-10T13:02:44Z</time></trkpt><trkpt lat="44.25708392588186" lon="7.777037789072049"><ele>1469.0</ele><time>2026-04-10T13:02:45Z</time></trkpt><trkpt lat="44.25715545065829" lon="7.776935505184991"><ele>1467.5</ele><time>2026-04-10T13:02:46Z</time></trkpt><trkpt lat="44.25721125231027" lon="7.776852167072119"><ele>1466.0</ele><time>2026-04-10T13:02:47Z</time></trkpt><trkpt lat="44.257255810673946" lon="7.776748399857787"><ele>1464.5</ele><time>2026-04-10T13:02:48Z</time></trkpt><trkpt lat="44.257307456948496" lon="7.776667906831517"><ele>1463.0</ele><time>2026-04-10T13:02:49Z</time></trkpt><trkpt lat="44.25736254751206" lon="7.77661413288641"><ele>1461.5</ele><time>2026-04-10T13:02:50Z</time></trkpt><trkpt lat="44.25741379010081" lon="7.776533240965446"><ele>1460.0</ele><time>2026-04-10T13:02:51Z</time></trkpt><trkpt lat="44.25747130520955" lon="7.776438371609123"><ele>1460.0</ele><time>2026-04-10T13:02:52Z</time></trkpt><trkpt lat="44.25750837440058" lon="7.776341910218944"><ele>1460.0</ele><time>2026-04-10T13:02:53Z</time></trkpt><trkpt lat="44.257560278476426" lon="7.776269931602072"><ele>1460.0</ele><time>2026-04-10T13:02:54Z</time></trkpt><trkpt lat="44.25761298680468" lon="7.776173694863118"><ele>1460.0</ele><time>2026-04-10T13:02:55Z</time></trkpt><trkpt lat="44.25766087737386" lon="7.776076461935938"><ele>1460.0</ele><time>2026-04-10T13:02:56Z</time></trkpt><trkpt lat="44.25771107296236" lon="7.775993593748301"><ele>1460.0</ele><time>2026-04-10T13:02:57Z</time></trkpt><trkpt lat="44.25777761393922" lon="7.7758396244118"><ele>1456.8</ele><time>2026-04-10T13:02:59Z</time></trkpt><trkpt lat="44.25782379797169" lon="7.775731316553118"><ele>1453.6</ele><time>2026-04-10T13:03:01Z</time></trkpt><trkpt lat="44.25785575702283" lon="7.77560613605484"><ele>1450.4</ele><time>2026-04-10T13:03:03Z</time></trkpt><trkpt lat="44.257862707376134" lon="7.775481735347042"><ele>1447.2</ele><time>2026-04-10T13:03:05Z</time></trkpt><trkpt lat="44.25777165782804" lon="7.775424839849927"><ele>1444.0</ele><time>2026-04-10T13:03:06.999Z</time></trkpt><trkpt lat="44.257662411621205" lon="7.775436852748193"><ele>1444.0</ele><time>2026-04-10T13:03:08.999Z</time></trkpt><trkpt lat="44.25759276396755" lon="7.775512812779836"><ele>1444.0</ele><time>2026-04-10T13:03:09.999Z</time></trkpt><trkpt lat="44.25753312655361" lon="7.77554933345786"><ele>1444.0</ele><time>2026-04-10T13:03:10.999Z</time></trkpt><trkpt lat="44.25747238695777" lon="7.775611814668419"><ele>1444.0</ele><time>2026-04-10T13:03:11.999Z</time></trkpt><trkpt lat="44.257415751153765" lon="7.77566789620147"><ele>1444.0</ele><time>2026-04-10T13:03:12.999Z</time></trkpt><trkpt lat="44.2573205422237" lon="7.775790683640578"><ele>1444.0</ele><time>2026-04-10T13:03:14.999Z</time></trkpt><trkpt lat="44.25726136733723" lon="7.7758520968754485"><ele>1444.0</ele><time>2026-04-10T13:03:15.999Z</time></trkpt><trkpt lat="44.2571475431639" lon="7.775955976700511"><ele>1444.0</ele><time>2026-04-10T13:03:17.999Z</time></trkpt><trkpt lat="44.25710639932169" lon="7.7760244536621075"><ele>1444.0</ele><time>2026-04-10T13:03:18.999Z</time></trkpt><trkpt lat="44.25703757177058" lon="7.776117193429809"><ele>1444.0</ele><time>2026-04-10T13:03:20.999Z</time></trkpt><trkpt lat="44.256975281269774" lon="7.7761703078277264"><ele>1444.0</ele><time>2026-04-10T13:03:22.999Z</time></trkpt><trkpt lat="44.25690031868477" lon="7.776128596084002"><ele>1444.0</ele><time>2026-04-10T13:03:24.999Z</time></trkpt><trkpt lat="44.25685288594743" lon="7.776009279020091"><ele>1444.0</ele><time>2026-04-10T13:03:26.999Z</time></trkpt><trkpt lat="44.2569050116007" lon="7.775864107994296"><ele>1444.0</ele><time>2026-04-10T13:03:28.999Z</time></trkpt><trkpt lat="44.25695745725529" lon="7.775781933297169"><ele>1444.0</ele><time>2026-04-10T13:03:29.999Z</time></trkpt><trkpt lat="44.25700345040848" lon="7.775682796041054"><ele>1444.0</ele><time>2026-04-10T13:03:30.999Z</time></trkpt><trkpt lat="44.2570654022543" lon="7.775558483027543"><ele>1444.0</ele><time>2026-04-10T13:03:31.999Z</time></trkpt><trkpt lat="44.25711577293905" lon="7.77546557758563"><ele>1444.0</ele><time>2026-04-10T13:03:32.999Z</time></trkpt><trkpt lat="44.25716705610783" lon="7.775353556333943"><ele>1444.0</ele><time>2026-04-10T13:03:33.999Z</time></trkpt><trkpt lat="44.25722263914386" lon="7.775259672055897"><ele>1444.0</ele><time>2026-04-10T13:03:34.999Z</time></trkpt><trkpt lat="44.25728911210255" lon="7.775138414412433"><ele>1444.0</ele><time>2026-04-10T13:03:35.999Z</time></trkpt><trkpt lat="44.25734698842883" lon="7.77504888241728"><ele>1444.0</ele><time>2026-04-10T13:03:36.999Z</time></trkpt><trkpt lat="44.2574066388128" lon="7.77494529714713"><ele>1441.5</ele><time>2026-04-10T13:03:37.999Z</time></trkpt><trkpt lat="44.2574516469674" lon="7.774869527823703"><ele>1439.0</ele><time>2026-04-10T13:03:38.999Z</time></trkpt><trkpt lat="44.25748850203403" lon="7.774793874892932"><ele>1436.5</ele><time>2026-04-10T13:03:39.999Z</time></trkpt><trkpt lat="44.257529052543354" lon="7.774717906027981"><ele>1434.0</ele><time>2026-04-10T13:03:40.999Z</time></trkpt><trkpt lat="44.257598686443124" lon="7.774620065941839"><ele>1431.5</ele><time>2026-04-10T13:03:42.999Z</time></trkpt><trkpt lat="44.257681447264616" lon="7.774539041721463"><ele>1429.0</ele><time>2026-04-10T13:03:44.999Z</time></trkpt><trkpt lat="44.25774847230339" lon="7.774541766308155"><ele>1429.0</ele><time>2026-04-10T13:03:45.999Z</time></trkpt><trkpt lat="44.257851622993016" lon="7.774585939244265"><ele>1429.0</ele><time>2026-04-10T13:03:47.999Z</time></trkpt><trkpt lat="44.257982045269905" lon="7.774699051356945"><ele>1429.0</ele><time>2026-04-10T13:03:49.999Z</time></trkpt><trkpt lat="44.25804370361385" lon="7.774745899188268"><ele>1429.0</ele><time>2026-04-10T13:03:50.999Z</time></trkpt><trkpt lat="44.258114232939654" lon="7.774819524033224"><ele>1429.0</ele><time>2026-04-10T13:03:51.999Z</time></trkpt><trkpt lat="44.258181600770435" lon="7.77486594169988"><ele>1429.2</ele><time>2026-04-10T13:03:52.999Z</time></trkpt><trkpt lat="44.2582480939305" lon="7.774998484585959"><ele>1429.4</ele><time>2026-04-10T13:03:54.999Z</time></trkpt><trkpt lat="44.258278922511565" lon="7.7750997017995305"><ele>1429.6</ele><time>2026-04-10T13:03:55.999Z</time></trkpt><trkpt lat="44.258318348924995" lon="7.775235424476436"><ele>1429.8</ele><time>2026-04-10T13:03:57.999Z</time></trkpt><trkpt lat="44.25835801420114" lon="7.775382544818749"><ele>1430.0</ele><time>2026-04-10T13:03:59.999Z</time></trkpt><trkpt lat="44.25836651809177" lon="7.775513129893741"><ele>1430.0</ele><time>2026-04-10T13:04:01.999Z</time></trkpt><trkpt lat="44.25838880608682" lon="7.77564115898475"><ele>1430.0</ele><time>2026-04-10T13:04:03.999Z</time></trkpt><trkpt lat="44.25841246177666" lon="7.775759423054195"><ele>1430.0</ele><time>2026-04-10T13:04:05.999Z</time></trkpt><trkpt lat="44.258424217467464" lon="7.775883860429093"><ele>1430.0</ele><time>2026-04-10T13:04:07.999Z</time></trkpt><trkpt lat="44.258468560748014" lon="7.775964033553248"><ele>1430.0</ele><time>2026-04-10T13:04:09.998Z</time></trkpt><trkpt lat="44.25855529517449" lon="7.775964088064522"><ele>1430.0</ele><time>2026-04-10T13:04:12.998Z</time></trkpt><trkpt lat="44.258609842688095" lon="7.775860153499097"><ele>1430.0</ele><time>2026-04-10T13:04:14.998Z</time></trkpt><trkpt lat="44.258590600440904" lon="7.775748232181789"><ele>1430.0</ele><time>2026-04-10T13:04:16.998Z</time></trkpt><trkpt lat="44.25855934822095" lon="7.7755743690090116"><ele>1430.0</ele><time>2026-04-10T13:04:18.998Z</time></trkpt><trkpt lat="44.2585312801112" lon="7.775484388616694"><ele>1430.0</ele><time>2026-04-10T13:04:19.998Z</time></trkpt><trkpt lat="44.25855738882752" lon="7.775374639151908"><ele>1430.0</ele><time>2026-04-10T13:04:20.998Z</time></trkpt><trkpt lat="44.258543413929566" lon="7.775280232468676"><ele>1430.0</ele><time>2026-04-10T13:04:21.998Z</time></trkpt><trkpt lat="44.258516238260576" lon="7.775192213531796"><ele>1427.5</ele><time>2026-04-10T13:04:22.998Z</time></trkpt><trkpt lat="44.258497524332405" lon="7.77507780993603"><ele>1425.0</ele><time>2026-04-10T13:04:23.998Z</time></trkpt><trkpt lat="44.258490919435175" lon="7.774960530877784"><ele>1422.5</ele><time>2026-04-10T13:04:24.998Z</time></trkpt><trkpt lat="44.25846312897683" lon="7.774864665297568"><ele>1420.0</ele><time>2026-04-10T13:04:25.998Z</time></trkpt><trkpt lat="44.25842892783366" lon="7.774745365504279"><ele>1417.5</ele><time>2026-04-10T13:04:26.998Z</time></trkpt><trkpt lat="44.258408025111045" lon="7.774630613309242"><ele>1415.0</ele><time>2026-04-10T13:04:27.998Z</time></trkpt><trkpt lat="44.25836916978897" lon="7.77452002095431"><ele>1415.0</ele><time>2026-04-10T13:04:28.998Z</time></trkpt><trkpt lat="44.25833401501321" lon="7.774425624605893"><ele>1415.0</ele><time>2026-04-10T13:04:29.998Z</time></trkpt><trkpt lat="44.25828494503777" lon="7.774339320178715"><ele>1415.0</ele><time>2026-04-10T13:04:30.998Z</time></trkpt><trkpt lat="44.2582575051722" lon="7.774239106540367"><ele>1415.0</ele><time>2026-04-10T13:04:31.998Z</time></trkpt><trkpt lat="44.25823399125168" lon="7.774136944575232"><ele>1415.0</ele><time>2026-04-10T13:04:32.998Z</time></trkpt><trkpt lat="44.25821198779666" lon="7.774027442531523"><ele>1415.0</ele><time>2026-04-10T13:04:34Z</time></trkpt><trkpt lat="44.25821685018349" lon="7.773908569716831"><ele>1412.0</ele><time>2026-04-10T13:04:35Z</time></trkpt><trkpt lat="44.2582078307618" lon="7.773805900131816"><ele>1409.0</ele><time>2026-04-10T13:04:36Z</time></trkpt><trkpt lat="44.258216110936125" lon="7.773677375911618"><ele>1406.0</ele><time>2026-04-10T13:04:37Z</time></trkpt><trkpt lat="44.258227860483544" lon="7.773560752679392"><ele>1403.0</ele><time>2026-04-10T13:04:38Z</time></trkpt><trkpt lat="44.25823699290804" lon="7.7734482147214266"><ele>1400.0</ele><time>2026-04-10T13:04:39Z</time></trkpt><trkpt lat="44.2582493008574" lon="7.773315336709075"><ele>1397.0</ele><time>2026-04-10T13:04:40Z</time></trkpt><trkpt lat="44.258262227819635" lon="7.773200789078888"><ele>1394.8333333333335</ele><time>2026-04-10T13:04:41Z</time></trkpt><trkpt lat="44.25826942673624" lon="7.773091795836828"><ele>1392.6666666666667</ele><time>2026-04-10T13:04:42Z</time></trkpt><trkpt lat="44.25827932613851" lon="7.772979441839026"><ele>1390.5</ele><time>2026-04-10T13:04:43Z</time></trkpt><trkpt lat="44.25829948635341" lon="7.772871017667478"><ele>1388.3333333333333</ele><time>2026-04-10T13:04:44Z</time></trkpt><trkpt lat="44.25832353027828" lon="7.7727734724220925"><ele>1386.1666666666665</ele><time>2026-04-10T13:04:45Z</time></trkpt><trkpt lat="44.25834437672489" lon="7.772681400013604"><ele>1384.0</ele><time>2026-04-10T13:04:46Z</time></trkpt><trkpt lat="44.258381720743124" lon="7.772583247413587"><ele>1382.1666666666665</ele><time>2026-04-10T13:04:47Z</time></trkpt><trkpt lat="44.258423304679305" lon="7.772516560352998"><ele>1380.3333333333333</ele><time>2026-04-10T13:04:48Z</time></trkpt><trkpt lat="44.25847055275204" lon="7.772437094961425"><ele>1378.5</ele><time>2026-04-10T13:04:49Z</time></trkpt><trkpt lat="44.25851737188811" lon="7.772363621892364"><ele>1376.6666666666667</ele><time>2026-04-10T13:04:50Z</time></trkpt><trkpt lat="44.25859149680842" lon="7.77227689146091"><ele>1374.8333333333335</ele><time>2026-04-10T13:04:52Z</time></trkpt><trkpt lat="44.25866941154526" lon="7.772281643698894"><ele>1373.0</ele><time>2026-04-10T13:04:54Z</time></trkpt><trkpt lat="44.25874607521851" lon="7.7723277007574945"><ele>1373.0</ele><time>2026-04-10T13:04:56Z</time></trkpt><trkpt lat="44.25874895245118" lon="7.772444898933636"><ele>1373.0</ele><time>2026-04-10T13:04:57Z</time></trkpt><trkpt lat="44.25873037047091" lon="7.772632848087492"><ele>1373.0</ele><time>2026-04-10T13:04:59Z</time></trkpt><trkpt lat="44.25871018399985" lon="7.772744213683077"><ele>1373.0</ele><time>2026-04-10T13:05:00Z</time></trkpt><trkpt lat="44.2586749024814" lon="7.772819207741235"><ele>1373.0</ele><time>2026-04-10T13:05:01Z</time></trkpt><trkpt lat="44.25864985868026" lon="7.772907206990187"><ele>1373.0</ele><time>2026-04-10T13:05:02Z</time></trkpt><trkpt lat="44.258607614169115" lon="7.773021626254797"><ele>1374.5714285714287</ele><time>2026-04-10T13:05:03Z</time></trkpt><trkpt lat="44.258597803751194" lon="7.773117682941039"><ele>1376.142857142857</ele><time>2026-04-10T13:05:04Z</time></trkpt><trkpt lat="44.25857508039584" lon="7.7732021605336"><ele>1377.7142857142858</ele><time>2026-04-10T13:05:05Z</time></trkpt><trkpt lat="44.258553687393785" lon="7.773299560422643"><ele>1379.2857142857142</ele><time>2026-04-10T13:05:06Z</time></trkpt><trkpt lat="44.25852244442409" lon="7.773381670731887"><ele>1380.857142857143</ele><time>2026-04-10T13:05:07Z</time></trkpt><trkpt lat="44.25851578344176" lon="7.773481313222428"><ele>1382.4285714285713</ele><time>2026-04-10T13:05:08Z</time></trkpt><trkpt lat="44.258522114910924" lon="7.773591905288936"><ele>1384.0</ele><time>2026-04-10T13:05:09Z</time></trkpt><trkpt lat="44.258537184210596" lon="7.7737096693587"><ele>1386.1666666666665</ele><time>2026-04-10T13:05:10Z</time></trkpt><trkpt lat="44.258557207079534" lon="7.773805341462189"><ele>1388.3333333333333</ele><time>2026-04-10T13:05:11Z</time></trkpt><trkpt lat="44.25860999790042" lon="7.7739596772546635"><ele>1390.5</ele><time>2026-04-10T13:05:13Z</time></trkpt><trkpt lat="44.258645600843224" lon="7.774040454495301"><ele>1392.6666666666667</ele><time>2026-04-10T13:05:14Z</time></trkpt><trkpt lat="44.25869824941756" lon="7.774100294100725"><ele>1394.8333333333335</ele><time>2026-04-10T13:05:15Z</time></trkpt><trkpt lat="44.25877242845217" lon="7.774215851444032"><ele>1397.0</ele><time>2026-04-10T13:05:17Z</time></trkpt><trkpt lat="44.25883999831264" lon="7.774334562897338"><ele>1400.0</ele><time>2026-04-10T13:05:18.999Z</time></trkpt><trkpt lat="44.25888381761441" lon="7.7744017819389795"><ele>1403.0</ele><time>2026-04-10T13:05:19.999Z</time></trkpt><trkpt lat="44.25892057329503" lon="7.774491597431904"><ele>1406.0</ele><time>2026-04-10T13:05:20.999Z</time></trkpt><trkpt lat="44.258985803719064" lon="7.77461214122075"><ele>1409.0</ele><time>2026-04-10T13:05:22.999Z</time></trkpt><trkpt lat="44.259020072058405" lon="7.774717922617048"><ele>1412.0</ele><time>2026-04-10T13:05:23.999Z</time></trkpt><trkpt lat="44.25904063165963" lon="7.77484084722486"><ele>1415.0</ele><time>2026-04-10T13:05:24.999Z</time></trkpt><trkpt lat="44.25906583818314" lon="7.774965261158778"><ele>1409.1666666666667</ele><time>2026-04-10T13:05:25.999Z</time></trkpt><trkpt lat="44.259093324914566" lon="7.775068117889877"><ele>1403.3333333333335</ele><time>2026-04-10T13:05:26.999Z</time></trkpt><trkpt lat="44.25911518702397" lon="7.775173660896255"><ele>1397.5</ele><time>2026-04-10T13:05:27.999Z</time></trkpt><trkpt lat="44.259128569239834" lon="7.77529116343644"><ele>1391.6666666666667</ele><time>2026-04-10T13:05:28.999Z</time></trkpt><trkpt lat="44.25915793938386" lon="7.775399743298385"><ele>1385.8333333333333</ele><time>2026-04-10T13:05:29.999Z</time></trkpt><trkpt lat="44.25918333985795" lon="7.7755034805974095"><ele>1380.0</ele><time>2026-04-10T13:05:30.999Z</time></trkpt><trkpt lat="44.25920464132571" lon="7.775603907220187"><ele>1380.0</ele><time>2026-04-10T13:05:31.999Z</time></trkpt><trkpt lat="44.259228342448466" lon="7.7757058975191695"><ele>1380.0</ele><time>2026-04-10T13:05:32.999Z</time></trkpt><trkpt lat="44.259259503619056" lon="7.775792351385954"><ele>1380.0</ele><time>2026-04-10T13:05:33.999Z</time></trkpt><trkpt lat="44.25926531611418" lon="7.7758814942247465"><ele>1380.0</ele><time>2026-04-10T13:05:34.999Z</time></trkpt><trkpt lat="44.259302848649874" lon="7.775981639982694"><ele>1380.0</ele><time>2026-04-10T13:05:35.999Z</time></trkpt><trkpt lat="44.259325870525714" lon="7.776082866042645"><ele>1380.0</ele><time>2026-04-10T13:05:36.999Z</time></trkpt><trkpt lat="44.25935498392506" lon="7.7761912295474955"><ele>1381.6</ele><time>2026-04-10T13:05:37.999Z</time></trkpt><trkpt lat="44.259397623379975" lon="7.776345000979153"><ele>1383.2</ele><time>2026-04-10T13:05:39.999Z</time></trkpt><trkpt lat="44.25941938664462" lon="7.776434725132339"><ele>1384.8000000000002</ele><time>2026-04-10T13:05:40.999Z</time></trkpt><trkpt lat="44.259441894070385" lon="7.776596755822301"><ele>1386.4</ele><time>2026-04-10T13:05:42.999Z</time></trkpt><trkpt lat="44.259499392835146" lon="7.776754989741145"><ele>1388.0</ele><time>2026-04-10T13:05:44.999Z</time></trkpt><trkpt lat="44.25952124622945" lon="7.776848774039374"><ele>1389.4</ele><time>2026-04-10T13:05:45.999Z</time></trkpt><trkpt lat="44.259540919555434" lon="7.776934924889751"><ele>1390.8000000000002</ele><time>2026-04-10T13:05:46.999Z</time></trkpt><trkpt lat="44.25956842967889" lon="7.777023223438104"><ele>1392.2</ele><time>2026-04-10T13:05:47.999Z</time></trkpt><trkpt lat="44.25959554287998" lon="7.777110545285247"><ele>1393.6</ele><time>2026-04-10T13:05:48.999Z</time></trkpt><trkpt lat="44.259646052397386" lon="7.777263803240387"><ele>1395.0</ele><time>2026-04-10T13:05:50.999Z</time></trkpt><trkpt lat="44.25968980834834" lon="7.777440076178501"><ele>1395.0</ele><time>2026-04-10T13:05:52.999Z</time></trkpt><trkpt lat="44.25971288209637" lon="7.77754427841528"><ele>1395.0</ele><time>2026-04-10T13:05:53.999Z</time></trkpt><trkpt lat="44.259732354933234" lon="7.777652619386129"><ele>1395.0</ele><time>2026-04-10T13:05:54.999Z</time></trkpt><trkpt lat="44.259753704404275" lon="7.7777643577859985"><ele>1395.0</ele><time>2026-04-10T13:05:55.999Z</time></trkpt><trkpt lat="44.259776491611035" lon="7.777864205991639"><ele>1395.0</ele><time>2026-04-10T13:05:56.999Z</time></trkpt><trkpt lat="44.259793644393625" lon="7.777966988208023"><ele>1395.0</ele><time>2026-04-10T13:05:57.999Z</time></trkpt><trkpt lat="44.25981050738779" lon="7.77806911650485"><ele>1386.3333333333333</ele><time>2026-04-10T13:05:58.999Z</time></trkpt><trkpt lat="44.25981044940983" lon="7.778175149558129"><ele>1377.6666666666667</ele><time>2026-04-10T13:05:59.999Z</time></trkpt><trkpt lat="44.25983946135512" lon="7.778276502204575"><ele>1369.0</ele><time>2026-04-10T13:06:00.999Z</time></trkpt><trkpt lat="44.25985015665209" lon="7.778384469227141"><ele>1360.3333333333335</ele><time>2026-04-10T13:06:01.999Z</time></trkpt><trkpt lat="44.25986201548587" lon="7.7784826848559385"><ele>1351.6666666666667</ele><time>2026-04-10T13:06:02.999Z</time></trkpt><trkpt lat="44.25987241137891" lon="7.7785866492453755"><ele>1343.0</ele><time>2026-04-10T13:06:03.999Z</time></trkpt><trkpt lat="44.2598798307768" lon="7.778691172111319"><ele>1342.1666666666667</ele><time>2026-04-10T13:06:04.999Z</time></trkpt><trkpt lat="44.25989504544948" lon="7.778797203258636"><ele>1341.3333333333335</ele><time>2026-04-10T13:06:05.999Z</time></trkpt><trkpt lat="44.259890360194156" lon="7.778893262558783"><ele>1340.5</ele><time>2026-04-10T13:06:06.999Z</time></trkpt><trkpt lat="44.25989842953785" lon="7.778990495341102"><ele>1339.6666666666667</ele><time>2026-04-10T13:06:07.999Z</time></trkpt><trkpt lat="44.259911391687616" lon="7.779142856079672"><ele>1338.8333333333333</ele><time>2026-04-10T13:06:09.999Z</time></trkpt><trkpt lat="44.25992785405518" lon="7.779299655409025"><ele>1338.0</ele><time>2026-04-10T13:06:11.999Z</time></trkpt><trkpt lat="44.2599403506428" lon="7.779446929081442"><ele>1337.6666666666667</ele><time>2026-04-10T13:06:13.999Z</time></trkpt><trkpt lat="44.25994430007207" lon="7.779599457296712"><ele>1337.3333333333333</ele><time>2026-04-10T13:06:15.999Z</time></trkpt><trkpt lat="44.25993444824107" lon="7.779740190733757"><ele>1337.0</ele><time>2026-04-10T13:06:17.999Z</time></trkpt><trkpt lat="44.25991561502094" lon="7.779839365360437"><ele>1336.6666666666665</ele><time>2026-04-10T13:06:19.999Z</time></trkpt><trkpt lat="44.259898259529244" lon="7.779929036644441"><ele>1336.3333333333333</ele><time>2026-04-10T13:06:21.998Z</time></trkpt><trkpt lat="44.259888267072405" lon="7.780032967625328"><ele>1336.0</ele><time>2026-04-10T13:06:23.998Z</time></trkpt><trkpt lat="44.25990036554568" lon="7.780139891818651"><ele>1336.0</ele><time>2026-04-10T13:06:25.998Z</time></trkpt><trkpt lat="44.25993910612645" lon="7.780245633834913"><ele>1336.0</ele><time>2026-04-10T13:06:27.998Z</time></trkpt><trkpt lat="44.2600116136867" lon="7.7802819618072085"><ele>1336.0</ele><time>2026-04-10T13:06:29.998Z</time></trkpt><trkpt lat="44.26008353856072" lon="7.780242995310576"><ele>1336.0</ele><time>2026-04-10T13:06:31.998Z</time></trkpt><trkpt lat="44.26011171484911" lon="7.780143387010385"><ele>1336.0</ele><time>2026-04-10T13:06:33.998Z</time></trkpt><trkpt lat="44.26011282621817" lon="7.7800158712015035"><ele>1336.0</ele><time>2026-04-10T13:06:35.998Z</time></trkpt><trkpt lat="44.26011083602152" lon="7.77988785507678"><ele>1336.0</ele><time>2026-04-10T13:06:37.998Z</time></trkpt><trkpt lat="44.26013200786367" lon="7.779736390999459"><ele>1336.0</ele><time>2026-04-10T13:06:40Z</time></trkpt><trkpt lat="44.26014043335155" lon="7.77960495238356"><ele>1336.0</ele><time>2026-04-10T13:06:42Z</time></trkpt><trkpt lat="44.260165584931194" lon="7.779455029039125"><ele>1336.0</ele><time>2026-04-10T13:06:44Z</time></trkpt><trkpt lat="44.26017859033646" lon="7.779330011756953"><ele>1336.0</ele><time>2026-04-10T13:06:45Z</time></trkpt><trkpt lat="44.26019105707148" lon="7.779222726543248"><ele>1336.3333333333333</ele><time>2026-04-10T13:06:46Z</time></trkpt><trkpt lat="44.26020470187237" lon="7.779118124986461"><ele>1336.6666666666665</ele><time>2026-04-10T13:06:47Z</time></trkpt><trkpt lat="44.26022258951512" lon="7.7790084089813565"><ele>1337.0</ele><time>2026-04-10T13:06:48Z</time></trkpt><trkpt lat="44.26024610715201" lon="7.778891919445583"><ele>1337.3333333333333</ele><time>2026-04-10T13:06:49Z</time></trkpt><trkpt lat="44.26027310577611" lon="7.778761369706863"><ele>1337.6666666666667</ele><time>2026-04-10T13:06:50Z</time></trkpt><trkpt lat="44.26029562816478" lon="7.778649121650588"><ele>1338.0</ele><time>2026-04-10T13:06:51Z</time></trkpt><trkpt lat="44.26031980448689" lon="7.778528630721708"><ele>1338.8333333333333</ele><time>2026-04-10T13:06:52Z</time></trkpt><trkpt lat="44.260339623246686" lon="7.778406344906929"><ele>1339.6666666666667</ele><time>2026-04-10T13:06:53Z</time></trkpt><trkpt lat="44.2603540113996" lon="7.778288368375037"><ele>1340.5</ele><time>2026-04-10T13:06:54Z</time></trkpt><trkpt lat="44.26036590382098" lon="7.778169857052615"><ele>1341.3333333333335</ele><time>2026-04-10T13:06:55Z</time></trkpt><trkpt lat="44.260373148940786" lon="7.778050695081822"><ele>1342.1666666666667</ele><time>2026-04-10T13:06:56Z</time></trkpt><trkpt lat="44.26037797017835" lon="7.777925128036694"><ele>1343.0</ele><time>2026-04-10T13:06:57Z</time></trkpt><trkpt lat="44.26036640951899" lon="7.777791781514757"><ele>1342.2</ele><time>2026-04-10T13:06:58Z</time></trkpt><trkpt lat="44.26037315572769" lon="7.7776623134925105"><ele>1341.4</ele><time>2026-04-10T13:06:59Z</time></trkpt><trkpt lat="44.26038900240552" lon="7.777539825348625"><ele>1340.6000000000001</ele><time>2026-04-10T13:07:00Z</time></trkpt><trkpt lat="44.26037908152733" lon="7.777407646407819"><ele>1339.8000000000002</ele><time>2026-04-10T13:07:01Z</time></trkpt><trkpt lat="44.260384033535715" lon="7.777280489919324"><ele>1339.0</ele><time>2026-04-10T13:07:02Z</time></trkpt><trkpt lat="44.26039890515929" lon="7.77713659411242"><ele>1339.0</ele><time>2026-04-10T13:07:03Z</time></trkpt><trkpt lat="44.2604297470489" lon="7.777022922031666"><ele>1339.0</ele><time>2026-04-10T13:07:04Z</time></trkpt><trkpt lat="44.26044862907693" lon="7.776882860789164"><ele>1339.0</ele><time>2026-04-10T13:07:05Z</time></trkpt><trkpt lat="44.260450086273075" lon="7.776751126158054"><ele>1339.0</ele><time>2026-04-10T13:07:06Z</time></trkpt><trkpt lat="44.26048149216857" lon="7.776635733931886"><ele>1339.0</ele><time>2026-04-10T13:07:07Z</time></trkpt><trkpt lat="44.26049583655173" lon="7.776523433778041"><ele>1338.1666666666665</ele><time>2026-04-10T13:07:08Z</time></trkpt><trkpt lat="44.26051192703153" lon="7.776396141020826"><ele>1337.3333333333333</ele><time>2026-04-10T13:07:09Z</time></trkpt><trkpt lat="44.260508695002514" lon="7.776276790880902"><ele>1336.5</ele><time>2026-04-10T13:07:10Z</time></trkpt><trkpt lat="44.26053301814123" lon="7.776164769246732"><ele>1335.6666666666667</ele><time>2026-04-10T13:07:11Z</time></trkpt><trkpt lat="44.26053414567863" lon="7.776059925380744"><ele>1334.8333333333335</ele><time>2026-04-10T13:07:12Z</time></trkpt><trkpt lat="44.26052448042156" lon="7.7759522087898505"><ele>1334.0</ele><time>2026-04-10T13:07:13Z</time></trkpt><trkpt lat="44.260504350456976" lon="7.775831453933202"><ele>1332.8333333333335</ele><time>2026-04-10T13:07:14Z</time></trkpt><trkpt lat="44.26047454376461" lon="7.7757230063230836"><ele>1331.6666666666667</ele><time>2026-04-10T13:07:15Z</time></trkpt><trkpt lat="44.26043866458823" lon="7.775616436958303"><ele>1330.5</ele><time>2026-04-10T13:07:16Z</time></trkpt><trkpt lat="44.260400220493516" lon="7.77552657649661"><ele>1329.3333333333333</ele><time>2026-04-10T13:07:17Z</time></trkpt><trkpt lat="44.260361355685575" lon="7.775434569848549"><ele>1328.1666666666665</ele><time>2026-04-10T13:07:18Z</time></trkpt><trkpt lat="44.26031996775975" lon="7.775363088141967"><ele>1327.0</ele><time>2026-04-10T13:07:19Z</time></trkpt><trkpt lat="44.26030421793167" lon="7.775257676024463"><ele>1325.1666666666665</ele><time>2026-04-10T13:07:20Z</time></trkpt><trkpt lat="44.26026800539763" lon="7.775147309911237"><ele>1323.3333333333333</ele><time>2026-04-10T13:07:22Z</time></trkpt><trkpt lat="44.26022460771778" lon="7.7750423328791145"><ele>1321.5</ele><time>2026-04-10T13:07:25Z</time></trkpt><trkpt lat="44.260176013563196" lon="7.774931530505478"><ele>1319.6666666666667</ele><time>2026-04-10T13:07:27.999Z</time></trkpt><trkpt lat="44.26015119703987" lon="7.774835842731401"><ele>1317.8333333333335</ele><time>2026-04-10T13:07:30.999Z</time></trkpt><trkpt lat="44.2601671592225" lon="7.774727948188275"><ele>1316.0</ele><time>2026-04-10T13:07:34.999Z</time></trkpt><trkpt lat="44.26020347770057" lon="7.7746541070573425"><ele>1316.0</ele><time>2026-04-10T13:07:42.999Z</time></trkpt><trkpt lat="44.26036827380735" lon="7.774887623069401"><ele>1316.0</ele><time>2026-04-10T13:07:45.999Z</time></trkpt><trkpt lat="44.260419163755614" lon="7.775002130656334"><ele>1316.0</ele><time>2026-04-10T13:07:46.999Z</time></trkpt><trkpt lat="44.26048459958974" lon="7.775130326204323"><ele>1316.0</ele><time>2026-04-10T13:07:48.999Z</time></trkpt><trkpt lat="44.26052731902661" lon="7.775196550381813"><ele>1317.5714285714287</ele><time>2026-04-10T13:07:49.999Z</time></trkpt><trkpt lat="44.26057820074687" lon="7.775265361917086"><ele>1319.142857142857</ele><time>2026-04-10T13:07:50.999Z</time></trkpt><trkpt lat="44.260651496820465" lon="7.775329023075293"><ele>1320.7142857142858</ele><time>2026-04-10T13:07:51.999Z</time></trkpt><trkpt lat="44.26071079810999" lon="7.775401689854567"><ele>1322.2857142857142</ele><time>2026-04-10T13:07:52.999Z</time></trkpt><trkpt lat="44.260769844735506" lon="7.775465366886062"><ele>1323.857142857143</ele><time>2026-04-10T13:07:53.999Z</time></trkpt><trkpt lat="44.2608288202712" lon="7.775516752051481"><ele>1325.4285714285716</ele><time>2026-04-10T13:07:54.999Z</time></trkpt><trkpt lat="44.260881317379116" lon="7.775573184168814"><ele>1327.0</ele><time>2026-04-10T13:07:55.999Z</time></trkpt><trkpt lat="44.26095486565134" lon="7.775694423009399"><ele>1321.8333333333333</ele><time>2026-04-10T13:07:57.999Z</time></trkpt><trkpt lat="44.260986883727945" lon="7.775770794277703"><ele>1316.6666666666665</ele><time>2026-04-10T13:07:58.999Z</time></trkpt><trkpt lat="44.26102347210259" lon="7.775848579584328"><ele>1311.5</ele><time>2026-04-10T13:07:59.999Z</time></trkpt><trkpt lat="44.26105551492584" lon="7.775935949613511"><ele>1306.3333333333333</ele><time>2026-04-10T13:08:00.999Z</time></trkpt><trkpt lat="44.26107884097413" lon="7.7760329938132795"><ele>1301.1666666666667</ele><time>2026-04-10T13:08:01.999Z</time></trkpt><trkpt lat="44.26110188258019" lon="7.77614953705177"><ele>1296.0</ele><time>2026-04-10T13:08:02.999Z</time></trkpt><trkpt lat="44.26111200060965" lon="7.776311085473053"><ele>1296.0</ele><time>2026-04-10T13:08:03.999Z</time></trkpt><trkpt lat="44.26112735141018" lon="7.776462273353545"><ele>1296.0</ele><time>2026-04-10T13:08:04.999Z</time></trkpt><trkpt lat="44.26114252998878" lon="7.776603568566964"><ele>1296.0</ele><time>2026-04-10T13:08:05.999Z</time></trkpt><trkpt lat="44.261155356662336" lon="7.776734329105363"><ele>1296.0</ele><time>2026-04-10T13:08:06.999Z</time></trkpt><trkpt lat="44.26116359310476" lon="7.776877124945153"><ele>1296.0</ele><time>2026-04-10T13:08:07.999Z</time></trkpt><trkpt lat="44.26116944625267" lon="7.777006497046244"><ele>1296.142857142857</ele><time>2026-04-10T13:08:08.999Z</time></trkpt><trkpt lat="44.26118191470616" lon="7.777118581096692"><ele>1296.2857142857142</ele><time>2026-04-10T13:08:09.999Z</time></trkpt><trkpt lat="44.261195975856566" lon="7.777225610302755"><ele>1296.4285714285716</ele><time>2026-04-10T13:08:10.999Z</time></trkpt><trkpt lat="44.26120496426831" lon="7.777322496475677"><ele>1296.5714285714284</ele><time>2026-04-10T13:08:11.999Z</time></trkpt><trkpt lat="44.26121089481847" lon="7.777424230496771"><ele>1296.7142857142856</ele><time>2026-04-10T13:08:12.999Z</time></trkpt><trkpt lat="44.26120761051823" lon="7.7775202300506345"><ele>1296.857142857143</ele><time>2026-04-10T13:08:13.999Z</time></trkpt><trkpt lat="44.261220302428" lon="7.777617472457693"><ele>1297.0</ele><time>2026-04-10T13:08:14.999Z</time></trkpt><trkpt lat="44.261214306767954" lon="7.7777179507645"><ele>1297.0</ele><time>2026-04-10T13:08:15.999Z</time></trkpt><trkpt lat="44.26121972348776" lon="7.777813966585316"><ele>1297.0</ele><time>2026-04-10T13:08:16.999Z</time></trkpt><trkpt lat="44.261216619318915" lon="7.777904479554575"><ele>1297.0</ele><time>2026-04-10T13:08:17.999Z</time></trkpt><trkpt lat="44.26120294594426" lon="7.777996780509927"><ele>1297.0</ele><time>2026-04-10T13:08:18.999Z</time></trkpt><trkpt lat="44.26119833436069" lon="7.778089156221642"><ele>1297.0</ele><time>2026-04-10T13:08:19.999Z</time></trkpt><trkpt lat="44.26117827928333" lon="7.778246207960609"><ele>1297.0</ele><time>2026-04-10T13:08:21.999Z</time></trkpt><trkpt lat="44.26117002663993" lon="7.778383448021258"><ele>1297.0</ele><time>2026-04-10T13:08:23.999Z</time></trkpt><trkpt lat="44.26119218441448" lon="7.778487562743499"><ele>1297.0</ele><time>2026-04-10T13:08:25.999Z</time></trkpt><trkpt lat="44.26126872149171" lon="7.778586384888185"><ele>1297.0</ele><time>2026-04-10T13:08:27.999Z</time></trkpt><trkpt lat="44.2613608332351" lon="7.7785373850123385"><ele>1297.0</ele><time>2026-04-10T13:08:29.998Z</time></trkpt><trkpt lat="44.26140869027853" lon="7.7784546663411875"><ele>1297.0</ele><time>2026-04-10T13:08:30.998Z</time></trkpt><trkpt lat="44.261396229256874" lon="7.7783061477962745"><ele>1297.0</ele><time>2026-04-10T13:08:31.998Z</time></trkpt><trkpt lat="44.261407296592104" lon="7.778175680503665"><ele>1297.0</ele><time>2026-04-10T13:08:32.998Z</time></trkpt><trkpt lat="44.26142456476283" lon="7.778000816989938"><ele>1297.0</ele><time>2026-04-10T13:08:33.998Z</time></trkpt><trkpt lat="44.261445200678104" lon="7.777831854802072"><ele>1297.0</ele><time>2026-04-10T13:08:34.998Z</time></trkpt><trkpt lat="44.261486478863965" lon="7.777645613631088"><ele>1287.75</ele><time>2026-04-10T13:08:35.998Z</time></trkpt><trkpt lat="44.26152309427823" lon="7.77745661025299"><ele>1278.5</ele><time>2026-04-10T13:08:36.998Z</time></trkpt><trkpt lat="44.261566093259965" lon="7.777258336103617"><ele>1269.25</ele><time>2026-04-10T13:08:37.998Z</time></trkpt><trkpt lat="44.2616065713185" lon="7.7770814264394295"><ele>1260.0</ele><time>2026-04-10T13:08:38.998Z</time></trkpt><trkpt lat="44.26164411426629" lon="7.776921736971909"><ele>1259.8</ele><time>2026-04-10T13:08:39.998Z</time></trkpt><trkpt lat="44.26167883822833" lon="7.776779108658179"><ele>1259.6</ele><time>2026-04-10T13:08:40.998Z</time></trkpt><trkpt lat="44.261712171665785" lon="7.776635673097242"><ele>1259.4</ele><time>2026-04-10T13:08:41.998Z</time></trkpt><trkpt lat="44.26173127012649" lon="7.776533485926505"><ele>1259.2</ele><time>2026-04-10T13:08:42.998Z</time></trkpt><trkpt lat="44.26174946154078" lon="7.77641027435329"><ele>1259.0</ele><time>2026-04-10T13:08:43.998Z</time></trkpt><trkpt lat="44.26176411660136" lon="7.776276737580841"><ele>1259.0</ele><time>2026-04-10T13:08:44.998Z</time></trkpt><trkpt lat="44.261765545832205" lon="7.776108963344459"><ele>1259.0</ele><time>2026-04-10T13:08:46Z</time></trkpt><trkpt lat="44.261734159009436" lon="7.775898374721783"><ele>1259.0</ele><time>2026-04-10T13:08:47Z</time></trkpt><trkpt lat="44.261697075167234" lon="7.7756842710666705"><ele>1259.0</ele><time>2026-04-10T13:08:48Z</time></trkpt><trkpt lat="44.261667874229495" lon="7.775499103982729"><ele>1258.4</ele><time>2026-04-10T13:08:49Z</time></trkpt><trkpt lat="44.26165047830502" lon="7.775350009490603"><ele>1257.8000000000002</ele><time>2026-04-10T13:08:50Z</time></trkpt><trkpt lat="44.261644545848505" lon="7.775212074023802"><ele>1257.1999999999998</ele><time>2026-04-10T13:08:51Z</time></trkpt><trkpt lat="44.26164990768549" lon="7.775071309760393"><ele>1256.6</ele><time>2026-04-10T13:08:52Z</time></trkpt><trkpt lat="44.2616589720539" lon="7.77492259762262"><ele>1256.0</ele><time>2026-04-10T13:08:53Z</time></trkpt><trkpt lat="44.261663551363995" lon="7.774779612659529"><ele>1254.0</ele><time>2026-04-10T13:08:54Z</time></trkpt><trkpt lat="44.2616602271533" lon="7.774605196007508"><ele>1252.0</ele><time>2026-04-10T13:08:55Z</time></trkpt><trkpt lat="44.261621793049436" lon="7.7743904057275035"><ele>1250.0</ele><time>2026-04-10T13:08:56Z</time></trkpt><trkpt lat="44.261576054355764" lon="7.774205747984724"><ele>1248.0</ele><time>2026-04-10T13:08:57Z</time></trkpt><trkpt lat="44.26152485285791" lon="7.774021062082164"><ele>1245.8</ele><time>2026-04-10T13:08:58Z</time></trkpt><trkpt lat="44.26148816471245" lon="7.773833380770869"><ele>1243.6</ele><time>2026-04-10T13:08:59Z</time></trkpt><trkpt lat="44.26144553247071" lon="7.773710693251903"><ele>1241.4</ele><time>2026-04-10T13:09:00Z</time></trkpt><trkpt lat="44.261408898781866" lon="7.773596974030947"><ele>1239.2</ele><time>2026-04-10T13:09:01Z</time></trkpt><trkpt lat="44.26137695110378" lon="7.773450078772439"><ele>1237.0</ele><time>2026-04-10T13:09:02Z</time></trkpt><trkpt lat="44.261353757869394" lon="7.773319258625887"><ele>1241.5</ele><time>2026-04-10T13:09:03Z</time></trkpt><trkpt lat="44.2613250060363" lon="7.773213435025157"><ele>1246.0</ele><time>2026-04-10T13:09:04Z</time></trkpt><trkpt lat="44.261301757030985" lon="7.773110761593077"><ele>1250.5</ele><time>2026-04-10T13:09:05Z</time></trkpt><trkpt lat="44.261300129726294" lon="7.773003030171079"><ele>1255.0</ele><time>2026-04-10T13:09:06Z</time></trkpt><trkpt lat="44.26130696111351" lon="7.772889895240389"><ele>1259.5</ele><time>2026-04-10T13:09:07Z</time></trkpt><trkpt lat="44.26134880215437" lon="7.772754479555222"><ele>1264.0</ele><time>2026-04-10T13:09:08Z</time></trkpt><trkpt lat="44.26140142883735" lon="7.7726514225614105"><ele>1254.25</ele><time>2026-04-10T13:09:09Z</time></trkpt><trkpt lat="44.261483253142686" lon="7.772556659763852"><ele>1244.5</ele><time>2026-04-10T13:09:10Z</time></trkpt><trkpt lat="44.261564805109074" lon="7.772449344947572"><ele>1234.75</ele><time>2026-04-10T13:09:11Z</time></trkpt><trkpt lat="44.26164822570713" lon="7.772338873989772"><ele>1225.0</ele><time>2026-04-10T13:09:12Z</time></trkpt><trkpt lat="44.26172829843372" lon="7.772219097570846"><ele>1225.0</ele><time>2026-04-10T13:09:13Z</time></trkpt><trkpt lat="44.26179884673882" lon="7.77204636340893"><ele>1225.0</ele><time>2026-04-10T13:09:14Z</time></trkpt><trkpt lat="44.26187175141121" lon="7.771903564598377"><ele>1225.0</ele><time>2026-04-10T13:09:15Z</time></trkpt><trkpt lat="44.26193066392161" lon="7.771760429979238"><ele>1225.0</ele><time>2026-04-10T13:09:16Z</time></trkpt><trkpt lat="44.26198585426095" lon="7.771634202673641"><ele>1228.8</ele><time>2026-04-10T13:09:17Z</time></trkpt><trkpt lat="44.26205068776683" lon="7.771527336517165"><ele>1232.6</ele><time>2026-04-10T13:09:18Z</time></trkpt><trkpt lat="44.2620959562827" lon="7.771407480235346"><ele>1236.4</ele><time>2026-04-10T13:09:19Z</time></trkpt><trkpt lat="44.26212395591874" lon="7.771270077989344"><ele>1240.2</ele><time>2026-04-10T13:09:20Z</time></trkpt><trkpt lat="44.2621742905022" lon="7.771146088460078"><ele>1244.0</ele><time>2026-04-10T13:09:21Z</time></trkpt><trkpt lat="44.262206437245894" lon="7.770989103291405"><ele>1247.25</ele><time>2026-04-10T13:09:22Z</time></trkpt><trkpt lat="44.26223406092353" lon="7.77078988860703"><ele>1250.5</ele><time>2026-04-10T13:09:23Z</time></trkpt><trkpt lat="44.2622543083366" lon="7.770612300948473"><ele>1253.75</ele><time>2026-04-10T13:09:24Z</time></trkpt><trkpt lat="44.26226407615413" lon="7.770447552362405"><ele>1257.0</ele><time>2026-04-10T13:09:25Z</time></trkpt><trkpt lat="44.26229764073491" lon="7.770295434296915"><ele>1246.4</ele><time>2026-04-10T13:09:26Z</time></trkpt><trkpt lat="44.262314392158615" lon="7.770139658944189"><ele>1235.8000000000002</ele><time>2026-04-10T13:09:27Z</time></trkpt><trkpt lat="44.26233066809191" lon="7.769988304878318"><ele>1225.2</ele><time>2026-04-10T13:09:28Z</time></trkpt><trkpt lat="44.26234684287395" lon="7.769838180894828"><ele>1214.6000000000001</ele><time>2026-04-10T13:09:29Z</time></trkpt><trkpt lat="44.262360791254935" lon="7.769702025041462"><ele>1204.0</ele><time>2026-04-10T13:09:30Z</time></trkpt><trkpt lat="44.2623747759421" lon="7.769565514107195"><ele>1204.0</ele><time>2026-04-10T13:09:31Z</time></trkpt><trkpt lat="44.26238609410293" lon="7.7694305530545416"><ele>1204.0</ele><time>2026-04-10T13:09:32Z</time></trkpt><trkpt lat="44.26239094594609" lon="7.769300481350191"><ele>1204.0</ele><time>2026-04-10T13:09:32.999Z</time></trkpt><trkpt lat="44.26238551754727" lon="7.7691430447109"><ele>1204.0</ele><time>2026-04-10T13:09:33.999Z</time></trkpt><trkpt lat="44.262357781258785" lon="7.768966860518068"><ele>1204.0</ele><time>2026-04-10T13:09:34.999Z</time></trkpt><trkpt lat="44.26234567432696" lon="7.768813539462245"><ele>1203.5</ele><time>2026-04-10T13:09:35.999Z</time></trkpt><trkpt lat="44.26233543555899" lon="7.768669541593704"><ele>1203.0</ele><time>2026-04-10T13:09:36.999Z</time></trkpt><trkpt lat="44.26230962166768" lon="7.768549678063463"><ele>1202.5</ele><time>2026-04-10T13:09:37.999Z</time></trkpt><trkpt lat="44.26230622706502" lon="7.768425552044107"><ele>1202.0</ele><time>2026-04-10T13:09:38.999Z</time></trkpt><trkpt lat="44.26230397013564" lon="7.768306357353718"><ele>1201.5</ele><time>2026-04-10T13:09:39.999Z</time></trkpt><trkpt lat="44.262306300329115" lon="7.76821201391027"><ele>1201.0</ele><time>2026-04-10T13:09:40.999Z</time></trkpt><trkpt lat="44.26228934987832" lon="7.768090733382131"><ele>1200.8</ele><time>2026-04-10T13:09:41.999Z</time></trkpt><trkpt lat="44.26224851631564" lon="7.767981574786444"><ele>1200.6</ele><time>2026-04-10T13:09:42.999Z</time></trkpt><trkpt lat="44.26221876660547" lon="7.767865400554101"><ele>1200.4</ele><time>2026-04-10T13:09:43.999Z</time></trkpt><trkpt lat="44.26215425982114" lon="7.767754760632118"><ele>1200.2</ele><time>2026-04-10T13:09:44.999Z</time></trkpt><trkpt lat="44.262095621118654" lon="7.767672054352693"><ele>1200.0</ele><time>2026-04-10T13:09:45.999Z</time></trkpt><trkpt lat="44.26203278087474" lon="7.767580950287265"><ele>1200.0</ele><time>2026-04-10T13:09:46.999Z</time></trkpt><trkpt lat="44.26193757293636" lon="7.7674964427548145"><ele>1200.0</ele><time>2026-04-10T13:09:47.999Z</time></trkpt><trkpt lat="44.26185153745746" lon="7.76740876530101"><ele>1200.0</ele><time>2026-04-10T13:09:48.999Z</time></trkpt><trkpt lat="44.261753667857754" lon="7.767345922547317"><ele>1200.0</ele><time>2026-04-10T13:09:49.999Z</time></trkpt><trkpt lat="44.26162783611057" lon="7.7673100292663095"><ele>1200.0</ele><time>2026-04-10T13:09:50.999Z</time></trkpt><trkpt lat="44.26152312359742" lon="7.767262335792667"><ele>1200.0</ele><time>2026-04-10T13:09:51.999Z</time></trkpt><trkpt lat="44.261436556298584" lon="7.767215930617261"><ele>1200.0</ele><time>2026-04-10T13:09:52.999Z</time></trkpt><trkpt lat="44.26133663741686" lon="7.767172362885704"><ele>1200.0</ele><time>2026-04-10T13:09:53.999Z</time></trkpt><trkpt lat="44.26124051692929" lon="7.767122594653731"><ele>1200.0</ele><time>2026-04-10T13:09:54.999Z</time></trkpt><trkpt lat="44.26116034961281" lon="7.767091508901919"><ele>1201.0</ele><time>2026-04-10T13:09:55.999Z</time></trkpt><trkpt lat="44.261064157772" lon="7.767051471702556"><ele>1202.0</ele><time>2026-04-10T13:09:56.999Z</time></trkpt><trkpt lat="44.260969973260664" lon="7.767022793516592"><ele>1203.0</ele><time>2026-04-10T13:09:57.999Z</time></trkpt><trkpt lat="44.26088396191013" lon="7.767004351675745"><ele>1204.0</ele><time>2026-04-10T13:09:58.999Z</time></trkpt><trkpt lat="44.26080298521894" lon="7.766978625712859"><ele>1205.0</ele><time>2026-04-10T13:09:59.999Z</time></trkpt><trkpt lat="44.26068750281004" lon="7.766965714230321"><ele>1203.0</ele><time>2026-04-10T13:10:01.999Z</time></trkpt><trkpt lat="44.260563932607674" lon="7.766973582563229"><ele>1201.0</ele><time>2026-04-10T13:10:03.999Z</time></trkpt><trkpt lat="44.260497466969504" lon="7.766979029471999"><ele>1199.0</ele><time>2026-04-10T13:10:04.999Z</time></trkpt><trkpt lat="44.26042684530463" lon="7.766989712600596"><ele>1197.0</ele><time>2026-04-10T13:10:05.999Z</time></trkpt><trkpt lat="44.260319404258944" lon="7.766989899046149"><ele>1195.0</ele><time>2026-04-10T13:10:06.999Z</time></trkpt><trkpt lat="44.260198646095326" lon="7.766995335523616"><ele>1195.0</ele><time>2026-04-10T13:10:07.999Z</time></trkpt><trkpt lat="44.260078730550816" lon="7.7670045364613305"><ele>1195.0</ele><time>2026-04-10T13:10:08.999Z</time></trkpt><trkpt lat="44.259954289025025" lon="7.767018980890725"><ele>1195.0</ele><time>2026-04-10T13:10:09.999Z</time></trkpt><trkpt lat="44.25983806967453" lon="7.767031825174152"><ele>1195.0</ele><time>2026-04-10T13:10:10.999Z</time></trkpt><trkpt lat="44.25971718555684" lon="7.76704773227331"><ele>1191.0</ele><time>2026-04-10T13:10:11.999Z</time></trkpt><trkpt lat="44.25961233179453" lon="7.767069428820322"><ele>1187.0</ele><time>2026-04-10T13:10:12.999Z</time></trkpt><trkpt lat="44.25950363753431" lon="7.767080313081914"><ele>1183.0</ele><time>2026-04-10T13:10:13.999Z</time></trkpt><trkpt lat="44.2593855773515" lon="7.767089971233223"><ele>1179.0</ele><time>2026-04-10T13:10:14.999Z</time></trkpt><trkpt lat="44.2592797532226" lon="7.767104656326934"><ele>1175.0</ele><time>2026-04-10T13:10:15.999Z</time></trkpt><trkpt lat="44.259171709668045" lon="7.767120763049272"><ele>1175.0</ele><time>2026-04-10T13:10:16.999Z</time></trkpt><trkpt lat="44.25907015725484" lon="7.767138648084001"><ele>1175.0</ele><time>2026-04-10T13:10:17.999Z</time></trkpt><trkpt lat="44.25896277898982" lon="7.767143732090569"><ele>1175.0</ele><time>2026-04-10T13:10:18.999Z</time></trkpt><trkpt lat="44.25885525217797" lon="7.767153681116109"><ele>1175.0</ele><time>2026-04-10T13:10:19.999Z</time></trkpt><trkpt lat="44.25875199589202" lon="7.767173170770184"><ele>1175.0</ele><time>2026-04-10T13:10:20.999Z</time></trkpt><trkpt lat="44.25864837663558" lon="7.7671784510916115"><ele>1174.2</ele><time>2026-04-10T13:10:21.999Z</time></trkpt><trkpt lat="44.25854279400939" lon="7.76718946221443"><ele>1173.4</ele><time>2026-04-10T13:10:22.999Z</time></trkpt><trkpt lat="44.258439005983334" lon="7.767202872426426"><ele>1172.6</ele><time>2026-04-10T13:10:23.999Z</time></trkpt><trkpt lat="44.25833057099347" lon="7.767199412360046"><ele>1171.8</ele><time>2026-04-10T13:10:24.999Z</time></trkpt><trkpt lat="44.258224459535796" lon="7.76721010457604"><ele>1171.0</ele><time>2026-04-10T13:10:25.999Z</time></trkpt><trkpt lat="44.25812262206588" lon="7.767217076090785"><ele>1170.1666666666665</ele><time>2026-04-10T13:10:26.999Z</time></trkpt><trkpt lat="44.258021496168716" lon="7.767213721205259"><ele>1169.3333333333333</ele><time>2026-04-10T13:10:27.999Z</time></trkpt><trkpt lat="44.25792935472836" lon="7.767218871337383"><ele>1168.5</ele><time>2026-04-10T13:10:28.999Z</time></trkpt><trkpt lat="44.25784104276651" lon="7.767222701932989"><ele>1167.6666666666667</ele><time>2026-04-10T13:10:29.999Z</time></trkpt><trkpt lat="44.257757673003184" lon="7.767229576553937"><ele>1166.8333333333335</ele><time>2026-04-10T13:10:30.999Z</time></trkpt><trkpt lat="44.25769477662593" lon="7.767223792159374"><ele>1166.0</ele><time>2026-04-10T13:10:31.999Z</time></trkpt><trkpt lat="44.25757764011086" lon="7.767235113888302"><ele>1166.0</ele><time>2026-04-10T13:10:33.999Z</time></trkpt><trkpt lat="44.25745988189586" lon="7.767192225102821"><ele>1166.0</ele><time>2026-04-10T13:10:35.998Z</time></trkpt><trkpt lat="44.257393003882875" lon="7.767154691518419"><ele>1166.0</ele><time>2026-04-10T13:10:36.998Z</time></trkpt><trkpt lat="44.2573499864552" lon="7.767071229026761"><ele>1166.0</ele><time>2026-04-10T13:10:37.998Z</time></trkpt><trkpt lat="44.2573145137961" lon="7.766992671399884"><ele>1166.0</ele><time>2026-04-10T13:10:38.998Z</time></trkpt><trkpt lat="44.25728046534856" lon="7.766870828660686"><ele>1166.0</ele><time>2026-04-10T13:10:39.998Z</time></trkpt><trkpt lat="44.257253219239935" lon="7.7667621314705215"><ele>1164.3333333333335</ele><time>2026-04-10T13:10:40.998Z</time></trkpt><trkpt lat="44.25724905461743" lon="7.766654630326356"><ele>1162.6666666666667</ele><time>2026-04-10T13:10:41.998Z</time></trkpt><trkpt lat="44.257240505426545" lon="7.766555434289641"><ele>1161.0</ele><time>2026-04-10T13:10:42.998Z</time></trkpt><trkpt lat="44.25723033436027" lon="7.766465669352047"><ele>1159.3333333333333</ele><time>2026-04-10T13:10:43.998Z</time></trkpt><trkpt lat="44.25723891784669" lon="7.766328094559746"><ele>1157.6666666666665</ele><time>2026-04-10T13:10:45.998Z</time></trkpt><trkpt lat="44.2573051240098" lon="7.766239753257513"><ele>1156.0</ele><time>2026-04-10T13:10:47.998Z</time></trkpt><trkpt lat="44.25741703989291" lon="7.766170948231355"><ele>1154.8</ele><time>2026-04-10T13:10:49.998Z</time></trkpt><trkpt lat="44.25750587189382" lon="7.766163640832308"><ele>1153.6</ele><time>2026-04-10T13:10:50.998Z</time></trkpt><trkpt lat="44.257589080522784" lon="7.766149946691554"><ele>1152.4</ele><time>2026-04-10T13:10:52Z</time></trkpt><trkpt lat="44.2577336526518" lon="7.766157933186297"><ele>1151.2</ele><time>2026-04-10T13:10:53Z</time></trkpt><trkpt lat="44.25783681605402" lon="7.766132320779014"><ele>1150.0</ele><time>2026-04-10T13:10:54Z</time></trkpt><trkpt lat="44.257948240276264" lon="7.766104380832915"><ele>1150.0</ele><time>2026-04-10T13:10:55Z</time></trkpt><trkpt lat="44.25807162084739" lon="7.766099046085894"><ele>1150.0</ele><time>2026-04-10T13:10:56Z</time></trkpt><trkpt lat="44.25816827955181" lon="7.766084889066214"><ele>1150.0</ele><time>2026-04-10T13:10:57Z</time></trkpt><trkpt lat="44.25826630498853" lon="7.766093729350404"><ele>1150.0</ele><time>2026-04-10T13:10:58Z</time></trkpt><trkpt lat="44.25839354771035" lon="7.766088970090862"><ele>1150.0</ele><time>2026-04-10T13:10:59Z</time></trkpt><trkpt lat="44.25851794441815" lon="7.766084331025074"><ele>1149.75</ele><time>2026-04-10T13:11:00Z</time></trkpt><trkpt lat="44.25864947914205" lon="7.766070030457271"><ele>1149.5</ele><time>2026-04-10T13:11:01Z</time></trkpt><trkpt lat="44.25876574995408" lon="7.766062556500285"><ele>1149.25</ele><time>2026-04-10T13:11:02Z</time></trkpt><trkpt lat="44.258863931618215" lon="7.766056592532165"><ele>1149.0</ele><time>2026-04-10T13:11:03Z</time></trkpt><trkpt lat="44.25897032726988" lon="7.7660491019699975"><ele>1149.25</ele><time>2026-04-10T13:11:04Z</time></trkpt><trkpt lat="44.25907623854443" lon="7.766065895157633"><ele>1149.5</ele><time>2026-04-10T13:11:05Z</time></trkpt><trkpt lat="44.25921278254501" lon="7.766031672555179"><ele>1149.75</ele><time>2026-04-10T13:11:06Z</time></trkpt><trkpt lat="44.25937369528698" lon="7.76596573400855"><ele>1150.0</ele><time>2026-04-10T13:11:07Z</time></trkpt><trkpt lat="44.25950338399183" lon="7.765897208868765"><ele>1150.0</ele><time>2026-04-10T13:11:08Z</time></trkpt><trkpt lat="44.25965028070249" lon="7.7658417948328236"><ele>1150.0</ele><time>2026-04-10T13:11:09Z</time></trkpt><trkpt lat="44.25977578913464" lon="7.765766404384777"><ele>1150.0</ele><time>2026-04-10T13:11:10Z</time></trkpt><trkpt lat="44.25988138998291" lon="7.765711640016264"><ele>1150.0</ele><time>2026-04-10T13:11:11Z</time></trkpt><trkpt lat="44.259988318526126" lon="7.7656788821422635"><ele>1148.8333333333333</ele><time>2026-04-10T13:11:12Z</time></trkpt><trkpt lat="44.260067030881146" lon="7.765659595486513"><ele>1147.6666666666665</ele><time>2026-04-10T13:11:13Z</time></trkpt><trkpt lat="44.260135474180416" lon="7.765647244471372"><ele>1146.5</ele><time>2026-04-10T13:11:14Z</time></trkpt><trkpt lat="44.260221753287524" lon="7.7656193692098965"><ele>1145.3333333333333</ele><time>2026-04-10T13:11:17Z</time></trkpt><trkpt lat="44.26028528992244" lon="7.765589738339952"><ele>1144.1666666666667</ele><time>2026-04-10T13:11:20Z</time></trkpt><trkpt lat="44.260349531613" lon="7.765585620717"><ele>1143.0</ele><time>2026-04-10T13:11:26Z</time></trkpt><trkpt lat="44.26045317269263" lon="7.7655504387497984"><ele>1143.0</ele><time>2026-04-10T13:11:45.999Z</time></trkpt><trkpt lat="44.26049545256507" lon="7.765476142694262"><ele>1143.0</ele><time>2026-04-10T13:11:53.999Z</time></trkpt><trkpt lat="44.26055126546491" lon="7.7654081026405795"><ele>1143.0</ele><time>2026-04-10T13:12:05.999Z</time></trkpt><trkpt lat="44.26056025613214" lon="7.765319336372942"><ele>1143.0</ele><time>2026-04-10T13:12:13.999Z</time></trkpt><trkpt lat="44.26061500293783" lon="7.765240262643706"><ele>1143.0</ele><time>2026-04-10T13:12:16.999Z</time></trkpt><trkpt lat="44.26066710814488" lon="7.765188593708856"><ele>1143.0</ele><time>2026-04-10T13:12:17.999Z</time></trkpt><trkpt lat="44.260773723725066" lon="7.765167199192381"><ele>1142.3333333333333</ele><time>2026-04-10T13:12:19.999Z</time></trkpt><trkpt lat="44.26087253707604" lon="7.765198329244051"><ele>1141.6666666666667</ele><time>2026-04-10T13:12:20.999Z</time></trkpt><trkpt lat="44.26093858939903" lon="7.7652106494446365"><ele>1141.0</ele><time>2026-04-10T13:12:21.999Z</time></trkpt><trkpt lat="44.26099697882996" lon="7.765252279142495"><ele>1140.3333333333335</ele><time>2026-04-10T13:12:22.999Z</time></trkpt><trkpt lat="44.26108553772445" lon="7.765250623510069"><ele>1139.6666666666667</ele><time>2026-04-10T13:12:23.999Z</time></trkpt><trkpt lat="44.26116295659214" lon="7.765253529458189"><ele>1139.0</ele><time>2026-04-10T13:12:24.999Z</time></trkpt><trkpt lat="44.261259951230926" lon="7.765254767445877"><ele>1139.0</ele><time>2026-04-10T13:12:25.999Z</time></trkpt><trkpt lat="44.26135993610008" lon="7.76523239329977"><ele>1139.0</ele><time>2026-04-10T13:12:26.999Z</time></trkpt><trkpt lat="44.261482620422164" lon="7.765223798148171"><ele>1139.0</ele><time>2026-04-10T13:12:27.999Z</time></trkpt><trkpt lat="44.26158026658281" lon="7.7652188427998565"><ele>1139.0</ele><time>2026-04-10T13:12:28.999Z</time></trkpt><trkpt lat="44.26168866074129" lon="7.765203129008427"><ele>1139.0</ele><time>2026-04-10T13:12:29.999Z</time></trkpt><trkpt lat="44.261791396442575" lon="7.765188599859124"><ele>1138.5</ele><time>2026-04-10T13:12:30.999Z</time></trkpt><trkpt lat="44.26191354351717" lon="7.765190989664362"><ele>1138.0</ele><time>2026-04-10T13:12:31.999Z</time></trkpt><trkpt lat="44.262031761835175" lon="7.765171209965001"><ele>1137.5</ele><time>2026-04-10T13:12:32.999Z</time></trkpt><trkpt lat="44.26216998721038" lon="7.765186122277642"><ele>1137.0</ele><time>2026-04-10T13:12:34.999Z</time></trkpt><trkpt lat="44.26224246312789" lon="7.765208831673357"><ele>1132.6</ele><time>2026-04-10T13:12:35.999Z</time></trkpt><trkpt lat="44.262332474863484" lon="7.765225207970319"><ele>1128.2</ele><time>2026-04-10T13:12:36.999Z</time></trkpt><trkpt lat="44.262421524027616" lon="7.765282690455548"><ele>1123.8</ele><time>2026-04-10T13:12:37.999Z</time></trkpt><trkpt lat="44.26249205792663" lon="7.7653369513497426"><ele>1119.4</ele><time>2026-04-10T13:12:38.998Z</time></trkpt><trkpt lat="44.2625736532527" lon="7.7654067264875195"><ele>1115.0</ele><time>2026-04-10T13:12:39.998Z</time></trkpt><trkpt lat="44.262666874301914" lon="7.765464373786377"><ele>1115.0</ele><time>2026-04-10T13:12:40.998Z</time></trkpt><trkpt lat="44.26274294441624" lon="7.765532740323184"><ele>1115.0</ele><time>2026-04-10T13:12:41.998Z</time></trkpt><trkpt lat="44.26279596225877" lon="7.765614937904273"><ele>1115.0</ele><time>2026-04-10T13:12:42.998Z</time></trkpt><trkpt lat="44.262869947155494" lon="7.765686665947191"><ele>1115.0</ele><time>2026-04-10T13:12:43.998Z</time></trkpt><trkpt lat="44.26293408792903" lon="7.765768755587669"><ele>1115.0</ele><time>2026-04-10T13:12:44.998Z</time></trkpt><trkpt lat="44.2629785516309" lon="7.765839954098629"><ele>1115.0</ele><time>2026-04-10T13:12:45.998Z</time></trkpt><trkpt lat="44.26302354738251" lon="7.76590984145061"><ele>1115.0</ele><time>2026-04-10T13:12:46.998Z</time></trkpt><trkpt lat="44.26307386434893" lon="7.765976285751961"><ele>1115.0</ele><time>2026-04-10T13:12:47.998Z</time></trkpt><trkpt lat="44.263128190803656" lon="7.76604417703359"><ele>1115.0</ele><time>2026-04-10T13:12:48.998Z</time></trkpt><trkpt lat="44.263186335045724" lon="7.766096917819829"><ele>1115.0</ele><time>2026-04-10T13:12:49.998Z</time></trkpt><trkpt lat="44.26324689002399" lon="7.76615256695118"><ele>1115.0</ele><time>2026-04-10T13:12:50.998Z</time></trkpt><trkpt lat="44.26331408820929" lon="7.766166452447825"><ele>1115.0</ele><time>2026-04-10T13:12:51.998Z</time></trkpt><trkpt lat="44.26340651339649" lon="7.766157520867257"><ele>1115.0</ele><time>2026-04-10T13:12:52.998Z</time></trkpt><trkpt lat="44.26349194427129" lon="7.766133207636544"><ele>1114.0</ele><time>2026-04-10T13:12:53.998Z</time></trkpt><trkpt lat="44.26362257168305" lon="7.76610260541767"><ele>1113.0</ele><time>2026-04-10T13:12:54.998Z</time></trkpt><trkpt lat="44.2637583261655" lon="7.7660687075884045"><ele>1112.0</ele><time>2026-04-10T13:12:55.998Z</time></trkpt><trkpt lat="44.263886437438295" lon="7.766054496750407"><ele>1111.0</ele><time>2026-04-10T13:12:56.998Z</time></trkpt><trkpt lat="44.26401556838517" lon="7.766042899278256"><ele>1109.3999999999999</ele><time>2026-04-10T13:12:58Z</time></trkpt><trkpt lat="44.264113776988" lon="7.766038699901391"><ele>1107.8</ele><time>2026-04-10T13:12:59Z</time></trkpt><trkpt lat="44.26421083830811" lon="7.766035046644771"><ele>1106.1999999999998</ele><time>2026-04-10T13:13:00Z</time></trkpt><trkpt lat="44.264303534101515" lon="7.766040945750784"><ele>1104.6</ele><time>2026-04-10T13:13:01Z</time></trkpt><trkpt lat="44.26441275831567" lon="7.766024542062137"><ele>1103.0</ele><time>2026-04-10T13:13:02Z</time></trkpt><trkpt lat="44.26452186471439" lon="7.766005437124404"><ele>1103.0</ele><time>2026-04-10T13:13:03Z</time></trkpt><trkpt lat="44.264630381160266" lon="7.765994946528602"><ele>1103.0</ele><time>2026-04-10T13:13:04Z</time></trkpt><trkpt lat="44.26473071337196" lon="7.765998502772946"><ele>1103.0</ele><time>2026-04-10T13:13:05Z</time></trkpt><trkpt lat="44.264838472385335" lon="7.765997323345936"><ele>1103.0</ele><time>2026-04-10T13:13:06Z</time></trkpt><trkpt lat="44.264950802698465" lon="7.766001228575345"><ele>1103.0</ele><time>2026-04-10T13:13:07Z</time></trkpt><trkpt lat="44.265063906394005" lon="7.766026086496187"><ele>1099.0</ele><time>2026-04-10T13:13:08Z</time></trkpt><trkpt lat="44.26517470587705" lon="7.766079649705753"><ele>1095.0</ele><time>2026-04-10T13:13:09Z</time></trkpt><trkpt lat="44.26528611215113" lon="7.766108255760257"><ele>1091.0</ele><time>2026-04-10T13:13:10Z</time></trkpt><trkpt lat="44.26538287846058" lon="7.7661586746032505"><ele>1087.0</ele><time>2026-04-10T13:13:11Z</time></trkpt><trkpt lat="44.26552396692422" lon="7.766265878563627"><ele>1087.0</ele><time>2026-04-10T13:13:12Z</time></trkpt><trkpt lat="44.265631619800516" lon="7.766332485872361"><ele>1087.0</ele><time>2026-04-10T13:13:13Z</time></trkpt><trkpt lat="44.26573096871984" lon="7.766406208594626"><ele>1087.0</ele><time>2026-04-10T13:13:14Z</time></trkpt><trkpt lat="44.265831835870095" lon="7.766459993396015"><ele>1087.0</ele><time>2026-04-10T13:13:15Z</time></trkpt><trkpt lat="44.2659088494734" lon="7.76651738102068"><ele>1087.0</ele><time>2026-04-10T13:13:16Z</time></trkpt><trkpt lat="44.265979441956176" lon="7.766574165118595"><ele>1087.0</ele><time>2026-04-10T13:13:17Z</time></trkpt><trkpt lat="44.26606483306699" lon="7.766637612498143"><ele>1087.0</ele><time>2026-04-10T13:13:18Z</time></trkpt><trkpt lat="44.2661337449797" lon="7.766700901897468"><ele>1087.0</ele><time>2026-04-10T13:13:19Z</time></trkpt><trkpt lat="44.2662051359649" lon="7.7667350666183"><ele>1087.0</ele><time>2026-04-10T13:13:20Z</time></trkpt><trkpt lat="44.26627435102288" lon="7.766785436906382"><ele>1087.0</ele><time>2026-04-10T13:13:21Z</time></trkpt><trkpt lat="44.26634766371771" lon="7.766830880348237"><ele>1087.0</ele><time>2026-04-10T13:13:22Z</time></trkpt><trkpt lat="44.266422572560984" lon="7.766862338149131"><ele>1087.5</ele><time>2026-04-10T13:13:23Z</time></trkpt><trkpt lat="44.26650342135931" lon="7.7669023888218085"><ele>1088.0</ele><time>2026-04-10T13:13:24Z</time></trkpt><trkpt lat="44.26658962893282" lon="7.766926015642502"><ele>1088.5</ele><time>2026-04-10T13:13:25Z</time></trkpt><trkpt lat="44.266685451631425" lon="7.766890796475152"><ele>1089.0</ele><time>2026-04-10T13:13:26Z</time></trkpt><trkpt lat="44.26676641721545" lon="7.766844407216417"><ele>1089.5</ele><time>2026-04-10T13:13:27Z</time></trkpt><trkpt lat="44.266836645205466" lon="7.7668068085353985"><ele>1090.0</ele><time>2026-04-10T13:13:28Z</time></trkpt><trkpt lat="44.26695171913739" lon="7.76681031820713"><ele>1090.0</ele><time>2026-04-10T13:13:30Z</time></trkpt><trkpt lat="44.267031392934285" lon="7.766958181684707"><ele>1090.0</ele><time>2026-04-10T13:13:32Z</time></trkpt><trkpt lat="44.267040577454196" lon="7.767050523181198"><ele>1090.0</ele><time>2026-04-10T13:13:33Z</time></trkpt><trkpt lat="44.26702208821078" lon="7.767158666056006"><ele>1090.0</ele><time>2026-04-10T13:13:34Z</time></trkpt><trkpt lat="44.267021943241026" lon="7.767260365852124"><ele>1090.0</ele><time>2026-04-10T13:13:35Z</time></trkpt><trkpt lat="44.267036926242554" lon="7.767384095197471"><ele>1090.0</ele><time>2026-04-10T13:13:36Z</time></trkpt><trkpt lat="44.2670308878731" lon="7.7674925949539535"><ele>1090.0</ele><time>2026-04-10T13:13:37Z</time></trkpt><trkpt lat="44.267043696269994" lon="7.767599359719034"><ele>1090.0</ele><time>2026-04-10T13:13:38Z</time></trkpt><trkpt lat="44.26707452056378" lon="7.767729272589305"><ele>1090.0</ele><time>2026-04-10T13:13:39Z</time></trkpt><trkpt lat="44.26710719336088" lon="7.767860120151758"><ele>1090.0</ele><time>2026-04-10T13:13:40Z</time></trkpt><trkpt lat="44.26714937501793" lon="7.767982632563433"><ele>1090.0</ele><time>2026-04-10T13:13:41Z</time></trkpt><trkpt lat="44.267199948116094" lon="7.76808611621759"><ele>1093.0</ele><time>2026-04-10T13:13:42Z</time></trkpt><trkpt lat="44.26723645287492" lon="7.768158432410814"><ele>1096.0</ele><time>2026-04-10T13:13:42.999Z</time></trkpt><trkpt lat="44.26730414074568" lon="7.76826167852976"><ele>1099.0</ele><time>2026-04-10T13:13:43.999Z</time></trkpt><trkpt lat="44.267375074577544" lon="7.7683612053125195"><ele>1102.0</ele><time>2026-04-10T13:13:44.999Z</time></trkpt><trkpt lat="44.26744510163072" lon="7.768469474041717"><ele>1105.0</ele><time>2026-04-10T13:13:45.999Z</time></trkpt><trkpt lat="44.26753767527072" lon="7.768536672770553"><ele>1100.0</ele><time>2026-04-10T13:13:46.999Z</time></trkpt><trkpt lat="44.267616547942545" lon="7.768604293470417"><ele>1095.0</ele><time>2026-04-10T13:13:47.999Z</time></trkpt><trkpt lat="44.26769225818502" lon="7.768674031791725"><ele>1090.0</ele><time>2026-04-10T13:13:48.999Z</time></trkpt><trkpt lat="44.26776853218124" lon="7.768772557286394"><ele>1085.0</ele><time>2026-04-10T13:13:49.999Z</time></trkpt><trkpt lat="44.26781826418043" lon="7.768853922090838"><ele>1080.0</ele><time>2026-04-10T13:13:50.999Z</time></trkpt><trkpt lat="44.26787337413118" lon="7.768940554592171"><ele>1075.0</ele><time>2026-04-10T13:13:51.999Z</time></trkpt><trkpt lat="44.26792890239922" lon="7.7690282697386595"><ele>1075.0</ele><time>2026-04-10T13:13:53.016Z</time></trkpt><trkpt lat="44.26798262139644" lon="7.769119104129432"><ele>1075.0</ele><time>2026-04-10T13:13:54.014Z</time></trkpt><trkpt lat="44.26803104529422" lon="7.769212628776838"><ele>1075.0</ele><time>2026-04-10T13:13:55.013Z</time></trkpt><trkpt lat="44.2680797591867" lon="7.769310012929694"><ele>1075.0</ele><time>2026-04-10T13:13:56.015Z</time></trkpt><trkpt lat="44.268132194971884" lon="7.769404549867208"><ele>1075.0</ele><time>2026-04-10T13:13:57.017Z</time></trkpt><trkpt lat="44.26863586534212" lon="7.769546387724364"><ele>1075.0</ele><time>2026-04-10T13:14:01.999Z</time></trkpt><trkpt lat="44.268082983357" lon="7.769167570870071"><ele>1063.0</ele><time>2026-04-10T13:14:02.999Z</time></trkpt><trkpt lat="44.2683729167226" lon="7.769184047981552"><ele>1051.0</ele><time>2026-04-10T13:14:06.999Z</time></trkpt><trkpt lat="44.268570212764445" lon="7.769178463195079"><ele>1051.0</ele><time>2026-04-10T13:14:07.999Z</time></trkpt><trkpt lat="44.26866554803201" lon="7.769184034998676"><ele>1051.0</ele><time>2026-04-10T13:14:08.999Z</time></trkpt><trkpt lat="44.26888230462971" lon="7.769216538617464"><ele>1051.0</ele><time>2026-04-10T13:14:10.999Z</time></trkpt><trkpt lat="44.2692400551523" lon="7.769202876441997"><ele>1049.5</ele><time>2026-04-10T13:14:12.999Z</time></trkpt><trkpt lat="44.26947107591269" lon="7.769482920951918"><ele>1048.0</ele><time>2026-04-10T13:14:13.999Z</time></trkpt><trkpt lat="44.26959531258135" lon="7.769773688078113"><ele>1048.0</ele><time>2026-04-10T13:14:14.999Z</time></trkpt><trkpt lat="44.26969900322354" lon="7.769756434707082"><ele>1048.0</ele><time>2026-04-10T13:14:15.999Z</time></trkpt><trkpt lat="44.269897815289916" lon="7.7697224474216435"><ele>1048.0</ele><time>2026-04-10T13:14:16.999Z</time></trkpt><trkpt lat="44.26999436891404" lon="7.769683740045048"><ele>1048.0</ele><time>2026-04-10T13:14:17.999Z</time></trkpt><trkpt lat="44.270087142486524" lon="7.769664044080243"><ele>1046.5</ele><time>2026-04-10T13:14:18.999Z</time></trkpt><trkpt lat="44.27021150096496" lon="7.769618161181771"><ele>1045.0</ele><time>2026-04-10T13:14:19.999Z</time></trkpt><trkpt lat="44.27031154884082" lon="7.769551580155524"><ele>1043.5</ele><time>2026-04-10T13:14:20.999Z</time></trkpt><trkpt lat="44.2704558225033" lon="7.769505974978523"><ele>1042.0</ele><time>2026-04-10T13:14:21.999Z</time></trkpt><trkpt lat="44.27058745217938" lon="7.7694300272195935"><ele>1044.0</ele><time>2026-04-10T13:14:22.999Z</time></trkpt><trkpt lat="44.27072878026521" lon="7.769359030579386"><ele>1046.0</ele><time>2026-04-10T13:14:23.999Z</time></trkpt><trkpt lat="44.27084512408799" lon="7.769292495384834"><ele>1048.0</ele><time>2026-04-10T13:14:24.999Z</time></trkpt><trkpt lat="44.27096709628653" lon="7.769231138690196"><ele>1050.0</ele><time>2026-04-10T13:14:25.999Z</time></trkpt><trkpt lat="44.27107240734969" lon="7.769148824622421"><ele>1043.0</ele><time>2026-04-10T13:14:26.999Z</time></trkpt><trkpt lat="44.27118272022521" lon="7.769062771849518"><ele>1036.0</ele><time>2026-04-10T13:14:27.999Z</time></trkpt><trkpt lat="44.271279662205366" lon="7.768987950523758"><ele>1029.0</ele><time>2026-04-10T13:14:28.999Z</time></trkpt><trkpt lat="44.271371561798226" lon="7.768883782472127"><ele>1022.0</ele><time>2026-04-10T13:14:29.999Z</time></trkpt><trkpt lat="44.27146339968189" lon="7.7688427457790645"><ele>1022.0</ele><time>2026-04-10T13:14:30.999Z</time></trkpt><trkpt lat="44.27153851068448" lon="7.76877136065435"><ele>1022.0</ele><time>2026-04-10T13:14:31.999Z</time></trkpt><trkpt lat="44.27164162589548" lon="7.768752855166561"><ele>1022.0</ele><time>2026-04-10T13:14:32.999Z</time></trkpt><trkpt lat="44.2717393686583" lon="7.768740293421858"><ele>1022.0</ele><time>2026-04-10T13:14:33.999Z</time></trkpt><trkpt lat="44.271837953159405" lon="7.7687274649164335"><ele>1022.0</ele><time>2026-04-10T13:14:34.999Z</time></trkpt><trkpt lat="44.27194746576745" lon="7.768703718812122"><ele>1022.0</ele><time>2026-04-10T13:14:35.999Z</time></trkpt><trkpt lat="44.27205257739172" lon="7.768670512766621"><ele>1022.0</ele><time>2026-04-10T13:14:36.999Z</time></trkpt><trkpt lat="44.27213619255909" lon="7.7686410739541705"><ele>1022.0</ele><time>2026-04-10T13:14:37.999Z</time></trkpt><trkpt lat="44.272226998218876" lon="7.768551328700647"><ele>1022.0</ele><time>2026-04-10T13:14:38.999Z</time></trkpt><trkpt lat="44.27233582438801" lon="7.768477928129034"><ele>1022.0</ele><time>2026-04-10T13:14:39.999Z</time></trkpt><trkpt lat="44.272426727037754" lon="7.768372777084704"><ele>1016.75</ele><time>2026-04-10T13:14:40.999Z</time></trkpt><trkpt lat="44.27255815466983" lon="7.768324219225263"><ele>1011.5</ele><time>2026-04-10T13:14:41.999Z</time></trkpt><trkpt lat="44.272653826134096" lon="7.768253664477402"><ele>1006.25</ele><time>2026-04-10T13:14:42.999Z</time></trkpt><trkpt lat="44.27275596079012" lon="7.768188751444843"><ele>1001.0</ele><time>2026-04-10T13:14:43.998Z</time></trkpt><trkpt lat="44.27287172842717" lon="7.768134716660466"><ele>1001.0</ele><time>2026-04-10T13:14:44.998Z</time></trkpt><trkpt lat="44.272963620937375" lon="7.768058417455153"><ele>1000.9999999999999</ele><time>2026-04-10T13:14:45.998Z</time></trkpt><trkpt lat="44.27305857337312" lon="7.768006281014568"><ele>1000.9999999999999</ele><time>2026-04-10T13:14:46.998Z</time></trkpt><trkpt lat="44.27314732810813" lon="7.767953746880669"><ele>1001.0</ele><time>2026-04-10T13:14:47.998Z</time></trkpt><trkpt lat="44.27325965066744" lon="7.767921548184938"><ele>1001.0</ele><time>2026-04-10T13:14:48.998Z</time></trkpt><trkpt lat="44.27337366517147" lon="7.767895033406327"><ele>1003.0</ele><time>2026-04-10T13:14:49.998Z</time></trkpt><trkpt lat="44.273479665688775" lon="7.767872606042262"><ele>1004.9999999999999</ele><time>2026-04-10T13:14:50.998Z</time></trkpt><trkpt lat="44.27357600301792" lon="7.767882744305773"><ele>1006.9999999999999</ele><time>2026-04-10T13:14:51.998Z</time></trkpt><trkpt lat="44.273672217210894" lon="7.7678947822624345"><ele>1009.0</ele><time>2026-04-10T13:14:52.998Z</time></trkpt><trkpt lat="44.2737721285817" lon="7.767882483159878"><ele>1011.0</ele><time>2026-04-10T13:14:53.998Z</time></trkpt><trkpt lat="44.273866441733446" lon="7.7678679533412325"><ele>1011.8</ele><time>2026-04-10T13:14:54.998Z</time></trkpt><trkpt lat="44.27396923831804" lon="7.767797625683697"><ele>1012.5999999999999</ele><time>2026-04-10T13:14:55.998Z</time></trkpt><trkpt lat="44.27405512434727" lon="7.767750257721189"><ele>1013.4</ele><time>2026-04-10T13:14:56.998Z</time></trkpt><trkpt lat="44.274146912428385" lon="7.767664838717393"><ele>1014.2</ele><time>2026-04-10T13:14:57.998Z</time></trkpt><trkpt lat="44.27423823098566" lon="7.767589855349223"><ele>1015.0</ele><time>2026-04-10T13:14:58.998Z</time></trkpt><trkpt lat="44.27431292298065" lon="7.767529733199208"><ele>1009.9999999999999</ele><time>2026-04-10T13:14:59.998Z</time></trkpt><trkpt lat="44.274379367954005" lon="7.7674812511612075"><ele>1005.0</ele><time>2026-04-10T13:15:00.998Z</time></trkpt><trkpt lat="44.27449022526515" lon="7.767443434088531"><ele>1000.0</ele><time>2026-04-10T13:15:02.998Z</time></trkpt><trkpt lat="44.274563355735204" lon="7.767423552251082"><ele>995.0</ele><time>2026-04-10T13:15:04Z</time></trkpt><trkpt lat="44.274641821877275" lon="7.767409971305308"><ele>989.9999999999999</ele><time>2026-04-10T13:15:05Z</time></trkpt><trkpt lat="44.274711593274475" lon="7.767385362901191"><ele>985.0</ele><time>2026-04-10T13:15:06Z</time></trkpt><trkpt lat="44.2747810462131" lon="7.7673766722639"><ele>984.9999999999999</ele><time>2026-04-10T13:15:07Z</time></trkpt><trkpt lat="44.27485749167902" lon="7.76736554239652"><ele>985.0</ele><time>2026-04-10T13:15:08Z</time></trkpt><trkpt lat="44.27493044173694" lon="7.7673624186137795"><ele>985.0</ele><time>2026-04-10T13:15:09Z</time></trkpt><trkpt lat="44.275008379052586" lon="7.767321403045732"><ele>985.0</ele><time>2026-04-10T13:15:10Z</time></trkpt><trkpt lat="44.2750731802402" lon="7.767311947185513"><ele>984.9999999999999</ele><time>2026-04-10T13:15:11Z</time></trkpt><trkpt lat="44.27514545191953" lon="7.767251193694169"><ele>985.0</ele><time>2026-04-10T13:15:12Z</time></trkpt><trkpt lat="44.27524556822057" lon="7.767195357265791"><ele>985.0</ele><time>2026-04-10T13:15:13Z</time></trkpt><trkpt lat="44.27532854319922" lon="7.767177765769777"><ele>985.0</ele><time>2026-04-10T13:15:14Z</time></trkpt><trkpt lat="44.275421917747394" lon="7.767152089138817"><ele>985.0</ele><time>2026-04-10T13:15:15Z</time></trkpt><trkpt lat="44.275520891301966" lon="7.767179419648265"><ele>985.0</ele><time>2026-04-10T13:15:16Z</time></trkpt><trkpt lat="44.27562367699366" lon="7.767189736714054"><ele>985.0</ele><time>2026-04-10T13:15:17Z</time></trkpt><trkpt lat="44.27571838010696" lon="7.767199242503113"><ele>984.25</ele><time>2026-04-10T13:15:18Z</time></trkpt><trkpt lat="44.27583285223805" lon="7.767208940897414"><ele>983.5</ele><time>2026-04-10T13:15:19Z</time></trkpt><trkpt lat="44.27595579482926" lon="7.767217032407945"><ele>982.75</ele><time>2026-04-10T13:15:20Z</time></trkpt><trkpt lat="44.276079946205584" lon="7.767225203476663"><ele>982.0</ele><time>2026-04-10T13:15:21Z</time></trkpt><trkpt lat="44.27617415244669" lon="7.767210029138483"><ele>981.9999999999999</ele><time>2026-04-10T13:15:22Z</time></trkpt><trkpt lat="44.27627483998022" lon="7.7672231388954165"><ele>982.0</ele><time>2026-04-10T13:15:23Z</time></trkpt><trkpt lat="44.27634833041967" lon="7.767255608999938"><ele>982.0</ele><time>2026-04-10T13:15:24Z</time></trkpt><trkpt lat="44.276429084464425" lon="7.7672821065947195"><ele>982.0</ele><time>2026-04-10T13:15:25Z</time></trkpt><trkpt lat="44.27651137019942" lon="7.767315811605438"><ele>981.9999999999999</ele><time>2026-04-10T13:15:26Z</time></trkpt><trkpt lat="44.27657830905309" lon="7.767368961621928"><ele>982.0</ele><time>2026-04-10T13:15:27Z</time></trkpt><trkpt lat="44.27665779595779" lon="7.7674325501071175"><ele>980.6</ele><time>2026-04-10T13:15:28Z</time></trkpt><trkpt lat="44.276730003296294" lon="7.767547846405632"><ele>979.2</ele><time>2026-04-10T13:15:30Z</time></trkpt><trkpt lat="44.276769900669784" lon="7.7676527002004585"><ele>977.8</ele><time>2026-04-10T13:15:31Z</time></trkpt><trkpt lat="44.276826319304284" lon="7.7677841209764384"><ele>976.4</ele><time>2026-04-10T13:15:33Z</time></trkpt><trkpt lat="44.27689843898544" lon="7.767899917021808"><ele>975.0</ele><time>2026-04-10T13:15:35Z</time></trkpt><trkpt lat="44.27704699144129" lon="7.767924470173301"><ele>975.0</ele><time>2026-04-10T13:15:37Z</time></trkpt><trkpt lat="44.2771370631919" lon="7.7678566977076136"><ele>975.0</ele><time>2026-04-10T13:15:38Z</time></trkpt><trkpt lat="44.27718973240657" lon="7.767769453784407"><ele>975.0</ele><time>2026-04-10T13:15:39Z</time></trkpt><trkpt lat="44.27724391612049" lon="7.767685824344448"><ele>975.0</ele><time>2026-04-10T13:15:40Z</time></trkpt><trkpt lat="44.277310695775355" lon="7.767562492209896"><ele>975.0</ele><time>2026-04-10T13:15:41Z</time></trkpt><trkpt lat="44.27738095757067" lon="7.767462996080772"><ele>971.8</ele><time>2026-04-10T13:15:42Z</time></trkpt><trkpt lat="44.277407232592545" lon="7.767305240653354"><ele>968.6</ele><time>2026-04-10T13:15:43Z</time></trkpt><trkpt lat="44.27746194151019" lon="7.767212808473516"><ele>965.4000000000001</ele><time>2026-04-10T13:15:44Z</time></trkpt><trkpt lat="44.2775350508623" lon="7.767116886727806"><ele>962.2</ele><time>2026-04-10T13:15:45Z</time></trkpt><trkpt lat="44.27759901126724" lon="7.767045813369921"><ele>959.0</ele><time>2026-04-10T13:15:46Z</time></trkpt><trkpt lat="44.27767963905879" lon="7.767011896317645"><ele>959.0000000000001</ele><time>2026-04-10T13:15:47Z</time></trkpt><trkpt lat="44.277767676745874" lon="7.766957823790658"><ele>959.0</ele><time>2026-04-10T13:15:48Z</time></trkpt><trkpt lat="44.27785099662341" lon="7.766908171656416"><ele>959.0</ele><time>2026-04-10T13:15:49Z</time></trkpt><trkpt lat="44.27794535335489" lon="7.766907638527914"><ele>959.0</ele><time>2026-04-10T13:15:49.999Z</time></trkpt><trkpt lat="44.27802538647452" lon="7.766896288836144"><ele>959.0000000000001</ele><time>2026-04-10T13:15:50.999Z</time></trkpt><trkpt lat="44.278101909520075" lon="7.766893914024015"><ele>959.0</ele><time>2026-04-10T13:15:51.999Z</time></trkpt><trkpt lat="44.278175978253614" lon="7.7668965850159"><ele>959.6</ele><time>2026-04-10T13:15:52.999Z</time></trkpt><trkpt lat="44.27823958995013" lon="7.766906646519239"><ele>960.2</ele><time>2026-04-10T13:15:53.999Z</time></trkpt><trkpt lat="44.278355163459516" lon="7.766969894393107"><ele>960.8000000000001</ele><time>2026-04-10T13:15:55.999Z</time></trkpt><trkpt lat="44.278466977783175" lon="7.766996979787134"><ele>961.4000000000001</ele><time>2026-04-10T13:15:57.999Z</time></trkpt><trkpt lat="44.27852568692176" lon="7.766949206294411"><ele>962.0</ele><time>2026-04-10T13:15:59.999Z</time></trkpt><trkpt lat="44.27854245313933" lon="7.766796170089825"><ele>958.3333333333334</ele><time>2026-04-10T13:16:00.999Z</time></trkpt><trkpt lat="44.27849808430662" lon="7.76672865801656"><ele>954.6666666666667</ele><time>2026-04-10T13:16:01.999Z</time></trkpt><trkpt lat="44.278431652719235" lon="7.766699370649568"><ele>951.0</ele><time>2026-04-10T13:16:02.999Z</time></trkpt><trkpt lat="44.27836683360857" lon="7.766658556826104"><ele>947.3333333333333</ele><time>2026-04-10T13:16:03.999Z</time></trkpt><trkpt lat="44.27828682451033" lon="7.76662564638531"><ele>943.6666666666666</ele><time>2026-04-10T13:16:04.999Z</time></trkpt><trkpt lat="44.27817249874411" lon="7.766593132046814"><ele>940.0</ele><time>2026-04-10T13:16:05.999Z</time></trkpt><trkpt lat="44.27807041237443" lon="7.766580010283174"><ele>940.0</ele><time>2026-04-10T13:16:06.999Z</time></trkpt><trkpt lat="44.27796801868813" lon="7.766562019610325"><ele>940.0</ele><time>2026-04-10T13:16:07.999Z</time></trkpt><trkpt lat="44.2778772253262" lon="7.7665198246896425"><ele>940.0</ele><time>2026-04-10T13:16:08.999Z</time></trkpt><trkpt lat="44.277799659455674" lon="7.766493374020975"><ele>940.0</ele><time>2026-04-10T13:16:09.999Z</time></trkpt><trkpt lat="44.277736488105575" lon="7.766472466931695"><ele>940.0</ele><time>2026-04-10T13:16:10.999Z</time></trkpt><trkpt lat="44.277638982263255" lon="7.766399170799305"><ele>940.0</ele><time>2026-04-10T13:16:12.999Z</time></trkpt><trkpt lat="44.27758116766222" lon="7.766307810272212"><ele>940.0</ele><time>2026-04-10T13:16:14.999Z</time></trkpt><trkpt lat="44.27762666944602" lon="7.7661665652765715"><ele>940.0</ele><time>2026-04-10T13:16:17.999Z</time></trkpt><trkpt lat="44.27767711476852" lon="7.766111350373831"><ele>940.0</ele><time>2026-04-10T13:16:18.999Z</time></trkpt><trkpt lat="44.27784113812901" lon="7.766187316999811"><ele>940.0</ele><time>2026-04-10T13:16:20.999Z</time></trkpt><trkpt lat="44.27795402429831" lon="7.766241777774173"><ele>940.0</ele><time>2026-04-10T13:16:21.999Z</time></trkpt><trkpt lat="44.27807062106681" lon="7.766265732783033"><ele>940.0</ele><time>2026-04-10T13:16:22.999Z</time></trkpt><trkpt lat="44.27818466025802" lon="7.76626171501194"><ele>940.0</ele><time>2026-04-10T13:16:23.999Z</time></trkpt><trkpt lat="44.27829132659893" lon="7.766266185696199"><ele>940.0</ele><time>2026-04-10T13:16:24.999Z</time></trkpt><trkpt lat="44.278394564649226" lon="7.766266802570269"><ele>940.0</ele><time>2026-04-10T13:16:25.999Z</time></trkpt><trkpt lat="44.27848347249149" lon="7.766274422542294"><ele>939.0</ele><time>2026-04-10T13:16:26.999Z</time></trkpt><trkpt lat="44.27857198952081" lon="7.766284229295889"><ele>938.0</ele><time>2026-04-10T13:16:27.999Z</time></trkpt><trkpt lat="44.27865299518205" lon="7.7663322845308524"><ele>937.0</ele><time>2026-04-10T13:16:28.999Z</time></trkpt><trkpt lat="44.27873801855664" lon="7.7663898230442046"><ele>936.0</ele><time>2026-04-10T13:16:29.999Z</time></trkpt><trkpt lat="44.27883557600293" lon="7.766444316980125"><ele>935.0</ele><time>2026-04-10T13:16:30.999Z</time></trkpt><trkpt lat="44.278916072825886" lon="7.76653662731655"><ele>932.0</ele><time>2026-04-10T13:16:31.999Z</time></trkpt><trkpt lat="44.278987929979046" lon="7.766623546610227"><ele>929.0</ele><time>2026-04-10T13:16:32.999Z</time></trkpt><trkpt lat="44.27905047089635" lon="7.76670877273274"><ele>926.0</ele><time>2026-04-10T13:16:33.999Z</time></trkpt><trkpt lat="44.2791002827919" lon="7.7668119811210214"><ele>923.0</ele><time>2026-04-10T13:16:34.999Z</time></trkpt><trkpt lat="44.27915866076026" lon="7.766924183713659"><ele>920.0</ele><time>2026-04-10T13:16:35.999Z</time></trkpt><trkpt lat="44.27923587344891" lon="7.767065176836855"><ele>920.0</ele><time>2026-04-10T13:16:36.999Z</time></trkpt><trkpt lat="44.27929386161043" lon="7.7672037201473545"><ele>920.0</ele><time>2026-04-10T13:16:37.999Z</time></trkpt><trkpt lat="44.279341759839426" lon="7.767312764089001"><ele>920.0</ele><time>2026-04-10T13:16:38.999Z</time></trkpt><trkpt lat="44.27939425058502" lon="7.767439041822474"><ele>920.0</ele><time>2026-04-10T13:16:39.999Z</time></trkpt><trkpt lat="44.279445565536065" lon="7.7675583449115395"><ele>920.0</ele><time>2026-04-10T13:16:40.999Z</time></trkpt><trkpt lat="44.27950330765353" lon="7.767677250740694"><ele>922.4</ele><time>2026-04-10T13:16:41.999Z</time></trkpt><trkpt lat="44.2795651958566" lon="7.767809561802803"><ele>924.8</ele><time>2026-04-10T13:16:42.999Z</time></trkpt><trkpt lat="44.27962679517923" lon="7.767930920932991"><ele>927.2</ele><time>2026-04-10T13:16:43.999Z</time></trkpt><trkpt lat="44.279664991588724" lon="7.768056496476145"><ele>929.6</ele><time>2026-04-10T13:16:44.999Z</time></trkpt><trkpt lat="44.279711681114094" lon="7.768163990977895"><ele>932.0</ele><time>2026-04-10T13:16:45.999Z</time></trkpt><trkpt lat="44.27977281493251" lon="7.768253471814153"><ele>930.8</ele><time>2026-04-10T13:16:46.999Z</time></trkpt><trkpt lat="44.27981954171479" lon="7.76833609339473"><ele>929.6</ele><time>2026-04-10T13:16:47.999Z</time></trkpt><trkpt lat="44.27988368033849" lon="7.768430210196439"><ele>928.3999999999999</ele><time>2026-04-10T13:16:48.999Z</time></trkpt><trkpt lat="44.27995462819342" lon="7.76849955999758"><ele>927.1999999999999</ele><time>2026-04-10T13:16:49.999Z</time></trkpt><trkpt lat="44.28003521459184" lon="7.768560135762947"><ele>926.0</ele><time>2026-04-10T13:16:50.999Z</time></trkpt><trkpt lat="44.280147193505904" lon="7.76861109761359"><ele>926.0</ele><time>2026-04-10T13:16:51.998Z</time></trkpt><trkpt lat="44.28027235869384" lon="7.768655220184799"><ele>926.0</ele><time>2026-04-10T13:16:52.998Z</time></trkpt><trkpt lat="44.28039317364311" lon="7.768709444030389"><ele>926.0</ele><time>2026-04-10T13:16:53.998Z</time></trkpt><trkpt lat="44.28051330660289" lon="7.768764731991281"><ele>926.0</ele><time>2026-04-10T13:16:54.998Z</time></trkpt><trkpt lat="44.28067979450667" lon="7.768792696870576"><ele>921.0</ele><time>2026-04-10T13:16:55.998Z</time></trkpt><trkpt lat="44.28079626304309" lon="7.768829554188275"><ele>916.0</ele><time>2026-04-10T13:16:56.998Z</time></trkpt><trkpt lat="44.28092246037793" lon="7.768871925241715"><ele>911.0</ele><time>2026-04-10T13:16:57.998Z</time></trkpt><trkpt lat="44.28103141981548" lon="7.7689326899255855"><ele>906.0</ele><time>2026-04-10T13:16:58.998Z</time></trkpt><trkpt lat="44.28113818372092" lon="7.768987191249049"><ele>906.0</ele><time>2026-04-10T13:16:59.998Z</time></trkpt><trkpt lat="44.28124463188771" lon="7.769047027549239"><ele>905.9999999999999</ele><time>2026-04-10T13:17:00.998Z</time></trkpt><trkpt lat="44.28135463366387" lon="7.769093284189444"><ele>905.9999999999999</ele><time>2026-04-10T13:17:01.998Z</time></trkpt><trkpt lat="44.28143986364162" lon="7.7691308820359"><ele>906.0</ele><time>2026-04-10T13:17:02.998Z</time></trkpt><trkpt lat="44.28155454145797" lon="7.76917822903324"><ele>906.0</ele><time>2026-04-10T13:17:03.998Z</time></trkpt><trkpt lat="44.281656449569475" lon="7.769217062078192"><ele>907.4</ele><time>2026-04-10T13:17:04.998Z</time></trkpt><trkpt lat="44.281763099695844" lon="7.769259240789292"><ele>908.8</ele><time>2026-04-10T13:17:05.998Z</time></trkpt><trkpt lat="44.281881423568755" lon="7.769309344380838"><ele>910.1999999999999</ele><time>2026-04-10T13:17:06.998Z</time></trkpt><trkpt lat="44.281977218019435" lon="7.769357265193508"><ele>911.5999999999999</ele><time>2026-04-10T13:17:07.998Z</time></trkpt><trkpt lat="44.2820561098835" lon="7.769415648483074"><ele>913.0</ele><time>2026-04-10T13:17:08.998Z</time></trkpt><trkpt lat="44.282182731827305" lon="7.769474839355391"><ele>913.0</ele><time>2026-04-10T13:17:10Z</time></trkpt><trkpt lat="44.2822585407932" lon="7.769508210355772"><ele>913.0</ele><time>2026-04-10T13:17:11Z</time></trkpt><trkpt lat="44.282355713138884" lon="7.769548734174301"><ele>913.0</ele><time>2026-04-10T13:17:12Z</time></trkpt><trkpt lat="44.28245052833181" lon="7.769599082685328"><ele>913.0</ele><time>2026-04-10T13:17:13Z</time></trkpt><trkpt lat="44.28256685035167" lon="7.7696404926343225"><ele>913.0</ele><time>2026-04-10T13:17:14Z</time></trkpt><trkpt lat="44.28267584111367" lon="7.769675182577175"><ele>906.5</ele><time>2026-04-10T13:17:15Z</time></trkpt><trkpt lat="44.28276750547753" lon="7.769702084056982"><ele>900.0</ele><time>2026-04-10T13:17:16Z</time></trkpt><trkpt lat="44.28288821286489" lon="7.769743740866043"><ele>893.5</ele><time>2026-04-10T13:17:17Z</time></trkpt><trkpt lat="44.28300384374576" lon="7.769782964559018"><ele>887.0</ele><time>2026-04-10T13:17:18Z</time></trkpt><trkpt lat="44.2831613423091" lon="7.769853219656451"><ele>878.6666666666667</ele><time>2026-04-10T13:17:19Z</time></trkpt><trkpt lat="44.28330899796537" lon="7.769939197181943"><ele>870.3333333333333</ele><time>2026-04-10T13:17:20Z</time></trkpt><trkpt lat="44.28345771079348" lon="7.770026967851066"><ele>862.0</ele><time>2026-04-10T13:17:21Z</time></trkpt><trkpt lat="44.283610393888836" lon="7.770093223083098"><ele>862.0</ele><time>2026-04-10T13:17:22Z</time></trkpt><trkpt lat="44.283738303320334" lon="7.770186578668355"><ele>862.0</ele><time>2026-04-10T13:17:23Z</time></trkpt><trkpt lat="44.28387138764512" lon="7.77028877383226"><ele>862.0</ele><time>2026-04-10T13:17:24Z</time></trkpt><trkpt lat="44.28393366782216" lon="7.770321533264498"><ele>862.0</ele><time>2026-04-10T13:17:25Z</time></trkpt><trkpt lat="44.284057477393844" lon="7.770370743139053"><ele>861.5</ele><time>2026-04-10T13:17:26Z</time></trkpt><trkpt lat="44.284171765395186" lon="7.770429845122091"><ele>861.0</ele><time>2026-04-10T13:17:27Z</time></trkpt><trkpt lat="44.28425945807685" lon="7.770482263130197"><ele>860.5</ele><time>2026-04-10T13:17:28Z</time></trkpt><trkpt lat="44.28437129105136" lon="7.77052338567601"><ele>860.0</ele><time>2026-04-10T13:17:29Z</time></trkpt><trkpt lat="44.284481881292386" lon="7.770591664116018"><ele>860.0</ele><time>2026-04-10T13:17:30Z</time></trkpt><trkpt lat="44.28458064421634" lon="7.770658960585502"><ele>860.0</ele><time>2026-04-10T13:17:31Z</time></trkpt><trkpt lat="44.284663773371236" lon="7.770745322302327"><ele>860.0</ele><time>2026-04-10T13:17:32Z</time></trkpt><trkpt lat="44.284760166388395" lon="7.770812445548489"><ele>860.0</ele><time>2026-04-10T13:17:33Z</time></trkpt><trkpt lat="44.284866756707935" lon="7.770885514651562"><ele>860.0</ele><time>2026-04-10T13:17:34Z</time></trkpt><trkpt lat="44.28497402108426" lon="7.770956924635468"><ele>861.2</ele><time>2026-04-10T13:17:35Z</time></trkpt><trkpt lat="44.285062523824614" lon="7.771028006180747"><ele>862.4</ele><time>2026-04-10T13:17:36Z</time></trkpt><trkpt lat="44.28515640751868" lon="7.771104408381573"><ele>863.5999999999999</ele><time>2026-04-10T13:17:37Z</time></trkpt><trkpt lat="44.285243348567676" lon="7.771170134528554"><ele>864.8</ele><time>2026-04-10T13:17:38Z</time></trkpt><trkpt lat="44.28534504497157" lon="7.77123746547038"><ele>866.0</ele><time>2026-04-10T13:17:39Z</time></trkpt><trkpt lat="44.28543487596179" lon="7.771327254629104"><ele>866.0</ele><time>2026-04-10T13:17:40Z</time></trkpt><trkpt lat="44.28551760560215" lon="7.77140936511686"><ele>865.9999999999999</ele><time>2026-04-10T13:17:41Z</time></trkpt><trkpt lat="44.28560167573397" lon="7.7714906477870285"><ele>865.9999999999999</ele><time>2026-04-10T13:17:42Z</time></trkpt><trkpt lat="44.2856994911109" lon="7.771573788082095"><ele>866.0</ele><time>2026-04-10T13:17:43Z</time></trkpt><trkpt lat="44.2857917767742" lon="7.771650754798619"><ele>866.0</ele><time>2026-04-10T13:17:44Z</time></trkpt><trkpt lat="44.285877077146736" lon="7.771729769085586"><ele>866.1999999999999</ele><time>2026-04-10T13:17:45Z</time></trkpt><trkpt lat="44.285970656400195" lon="7.771805569866327"><ele>866.3999999999999</ele><time>2026-04-10T13:17:46Z</time></trkpt><trkpt lat="44.286073503943214" lon="7.771876924289175"><ele>866.6</ele><time>2026-04-10T13:17:47Z</time></trkpt><trkpt lat="44.28614438063677" lon="7.771944543032636"><ele>866.8</ele><time>2026-04-10T13:17:48Z</time></trkpt><trkpt lat="44.2862309966516" lon="7.771999932948932"><ele>867.0</ele><time>2026-04-10T13:17:49Z</time></trkpt><trkpt lat="44.286301646298305" lon="7.772067287243041"><ele>867.0</ele><time>2026-04-10T13:17:50Z</time></trkpt><trkpt lat="44.28638751524894" lon="7.772119942251318"><ele>867.0</ele><time>2026-04-10T13:17:51Z</time></trkpt><trkpt lat="44.28647785036627" lon="7.772176000814754"><ele>867.0</ele><time>2026-04-10T13:17:52Z</time></trkpt><trkpt lat="44.28655410262963" lon="7.77223183719335"><ele>867.0</ele><time>2026-04-10T13:17:53Z</time></trkpt><trkpt lat="44.28664050131095" lon="7.772290503614134"><ele>867.0</ele><time>2026-04-10T13:17:54Z</time></trkpt><trkpt lat="44.286723044127434" lon="7.772357380302852"><ele>861.0</ele><time>2026-04-10T13:17:54.999Z</time></trkpt><trkpt lat="44.28680431539139" lon="7.772411011626647"><ele>855.0</ele><time>2026-04-10T13:17:55.999Z</time></trkpt><trkpt lat="44.28688708049556" lon="7.772469235522151"><ele>849.0</ele><time>2026-04-10T13:17:56.999Z</time></trkpt><trkpt lat="44.28696871890807" lon="7.77253078436289"><ele>843.0</ele><time>2026-04-10T13:17:57.999Z</time></trkpt><trkpt lat="44.28706902970267" lon="7.772578554306287"><ele>837.0</ele><time>2026-04-10T13:17:58.999Z</time></trkpt><trkpt lat="44.28714380329374" lon="7.772639113497535"><ele>835.8</ele><time>2026-04-10T13:17:59.999Z</time></trkpt><trkpt lat="44.287217302386644" lon="7.772700661762024"><ele>834.6</ele><time>2026-04-10T13:18:00.999Z</time></trkpt><trkpt lat="44.2873085473332" lon="7.772755637796441"><ele>833.4</ele><time>2026-04-10T13:18:01.999Z</time></trkpt><trkpt lat="44.287387896330856" lon="7.772816298566231"><ele>832.1999999999999</ele><time>2026-04-10T13:18:02.999Z</time></trkpt><trkpt lat="44.287477237746515" lon="7.772867388903423"><ele>831.0</ele><time>2026-04-10T13:18:03.999Z</time></trkpt><trkpt lat="44.287566504073865" lon="7.772931719139044"><ele>831.0</ele><time>2026-04-10T13:18:04.999Z</time></trkpt><trkpt lat="44.287643287286" lon="7.77298229832828"><ele>831.0</ele><time>2026-04-10T13:18:05.999Z</time></trkpt><trkpt lat="44.2877253790499" lon="7.773035522393968"><ele>831.0</ele><time>2026-04-10T13:18:06.999Z</time></trkpt><trkpt lat="44.28780003203575" lon="7.77309707585095"><ele>831.0</ele><time>2026-04-10T13:18:07.999Z</time></trkpt><trkpt lat="44.28788133264805" lon="7.773178001691504"><ele>831.0</ele><time>2026-04-10T13:18:08.999Z</time></trkpt><trkpt lat="44.2879522890096" lon="7.773231579592534"><ele>831.0</ele><time>2026-04-10T13:18:09.999Z</time></trkpt><trkpt lat="44.288019814115344" lon="7.773282184942813"><ele>829.3333333333334</ele><time>2026-04-10T13:18:10.999Z</time></trkpt><trkpt lat="44.288093809533905" lon="7.773336711093869"><ele>827.6666666666667</ele><time>2026-04-10T13:18:11.999Z</time></trkpt><trkpt lat="44.288170606161756" lon="7.7733901987002305"><ele>826.0</ele><time>2026-04-10T13:18:12.999Z</time></trkpt><trkpt lat="44.28825774399313" lon="7.773417408223384"><ele>824.3333333333334</ele><time>2026-04-10T13:18:13.999Z</time></trkpt><trkpt lat="44.2883318645881" lon="7.773469288425614"><ele>822.6666666666667</ele><time>2026-04-10T13:18:14.999Z</time></trkpt><trkpt lat="44.288410962648484" lon="7.773509325610472"><ele>821.0</ele><time>2026-04-10T13:18:15.999Z</time></trkpt><trkpt lat="44.288498892717676" lon="7.773553026495699"><ele>821.0</ele><time>2026-04-10T13:18:16.999Z</time></trkpt><trkpt lat="44.288588359830264" lon="7.773596625904998"><ele>821.0</ele><time>2026-04-10T13:18:17.999Z</time></trkpt><trkpt lat="44.288674440156086" lon="7.773644143269497"><ele>821.0</ele><time>2026-04-10T13:18:18.999Z</time></trkpt><trkpt lat="44.288768798027185" lon="7.773693582385994"><ele>821.0</ele><time>2026-04-10T13:18:19.999Z</time></trkpt><trkpt lat="44.28884097249676" lon="7.773735448640794"><ele>821.0</ele><time>2026-04-10T13:18:20.999Z</time></trkpt><trkpt lat="44.28893414878407" lon="7.773779177571379"><ele>818.0</ele><time>2026-04-10T13:18:21.999Z</time></trkpt><trkpt lat="44.28901884630336" lon="7.773821119441044"><ele>815.0</ele><time>2026-04-10T13:18:22.999Z</time></trkpt><trkpt lat="44.289090152682526" lon="7.773863027443812"><ele>812.0</ele><time>2026-04-10T13:18:23.999Z</time></trkpt><trkpt lat="44.28917066014428" lon="7.773909490803495"><ele>809.0</ele><time>2026-04-10T13:18:24.999Z</time></trkpt><trkpt lat="44.28927372107596" lon="7.773951652167017"><ele>806.0</ele><time>2026-04-10T13:18:25.999Z</time></trkpt><trkpt lat="44.2893701801484" lon="7.774002482672532"><ele>806.0000000000001</ele><time>2026-04-10T13:18:26.999Z</time></trkpt><trkpt lat="44.28945501817775" lon="7.774040588111607"><ele>806.0</ele><time>2026-04-10T13:18:27.999Z</time></trkpt><trkpt lat="44.28953920251192" lon="7.774081249727523"><ele>806.0</ele><time>2026-04-10T13:18:28.999Z</time></trkpt><trkpt lat="44.28961887573152" lon="7.774130673956633"><ele>806.0</ele><time>2026-04-10T13:18:29.999Z</time></trkpt><trkpt lat="44.28969143752049" lon="7.774174098416343"><ele>806.0000000000001</ele><time>2026-04-10T13:18:30.999Z</time></trkpt><trkpt lat="44.28975988826793" lon="7.7742265449026045"><ele>806.0</ele><time>2026-04-10T13:18:31.999Z</time></trkpt><trkpt lat="44.28982587945506" lon="7.774299172296334"><ele>803.8333333333334</ele><time>2026-04-10T13:18:32.999Z</time></trkpt><trkpt lat="44.28988445554315" lon="7.7743873692909995"><ele>801.6666666666667</ele><time>2026-04-10T13:18:33.999Z</time></trkpt><trkpt lat="44.28993811848605" lon="7.774460880943932"><ele>799.5</ele><time>2026-04-10T13:18:34.999Z</time></trkpt><trkpt lat="44.28999200610462" lon="7.774532188191527"><ele>797.3333333333333</ele><time>2026-04-10T13:18:35.999Z</time></trkpt><trkpt lat="44.29003638852266" lon="7.774629001404507"><ele>795.1666666666666</ele><time>2026-04-10T13:18:36.999Z</time></trkpt><trkpt lat="44.290094802962386" lon="7.7747072106467074"><ele>793.0</ele><time>2026-04-10T13:18:37.999Z</time></trkpt><trkpt lat="44.290143443468565" lon="7.774785715294624"><ele>792.9999999999999</ele><time>2026-04-10T13:18:38.999Z</time></trkpt><trkpt lat="44.29020132943439" lon="7.774867716144431"><ele>793.0</ele><time>2026-04-10T13:18:39.999Z</time></trkpt><trkpt lat="44.2902661814248" lon="7.774969917877035"><ele>793.0</ele><time>2026-04-10T13:18:40.999Z</time></trkpt><trkpt lat="44.29033334461928" lon="7.775056750287206"><ele>793.0</ele><time>2026-04-10T13:18:41.999Z</time></trkpt><trkpt lat="44.29037878239194" lon="7.7751596519665"><ele>792.9999999999999</ele><time>2026-04-10T13:18:42.999Z</time></trkpt><trkpt lat="44.29043097544944" lon="7.775255927737616"><ele>793.0</ele><time>2026-04-10T13:18:43.999Z</time></trkpt><trkpt lat="44.29050044990649" lon="7.775371180776954"><ele>794.8</ele><time>2026-04-10T13:18:44.999Z</time></trkpt><trkpt lat="44.29054480122607" lon="7.775506318362883"><ele>796.5999999999999</ele><time>2026-04-10T13:18:45.999Z</time></trkpt><trkpt lat="44.290586357669206" lon="7.775626565835754"><ele>798.4000000000001</ele><time>2026-04-10T13:18:46.999Z</time></trkpt><trkpt lat="44.29062658208668" lon="7.775731439408172"><ele>800.2</ele><time>2026-04-10T13:18:47.999Z</time></trkpt><trkpt lat="44.29067933079393" lon="7.775829979135513"><ele>802.0</ele><time>2026-04-10T13:18:48.999Z</time></trkpt><trkpt lat="44.29074954280745" lon="7.775953678240706"><ele>799.4000000000001</ele><time>2026-04-10T13:18:49.999Z</time></trkpt><trkpt lat="44.290833372996595" lon="7.776060398221476"><ele>796.8000000000001</ele><time>2026-04-10T13:18:50.999Z</time></trkpt><trkpt lat="44.29092360064582" lon="7.776145870190071"><ele>794.2</ele><time>2026-04-10T13:18:51.999Z</time></trkpt><trkpt lat="44.291007052716935" lon="7.776223146850266"><ele>791.6</ele><time>2026-04-10T13:18:52.999Z</time></trkpt><trkpt lat="44.291082948575465" lon="7.77632707200815"><ele>789.0</ele><time>2026-04-10T13:18:53.999Z</time></trkpt><trkpt lat="44.29114659326732" lon="7.776398916611103"><ele>789.0</ele><time>2026-04-10T13:18:54.998Z</time></trkpt><trkpt lat="44.2912008926593" lon="7.7764665364754295"><ele>789.0</ele><time>2026-04-10T13:18:55.998Z</time></trkpt><trkpt lat="44.29127006565486" lon="7.776550625482332"><ele>789.0</ele><time>2026-04-10T13:18:56.998Z</time></trkpt><trkpt lat="44.29135558545548" lon="7.776614116082439"><ele>789.0</ele><time>2026-04-10T13:18:57.998Z</time></trkpt><trkpt lat="44.2914573603395" lon="7.776671132982689"><ele>789.0</ele><time>2026-04-10T13:18:58.998Z</time></trkpt><trkpt lat="44.29157862075889" lon="7.776703747865291"><ele>788.4000000000001</ele><time>2026-04-10T13:18:59.998Z</time></trkpt><trkpt lat="44.291688744236616" lon="7.776722375813112"><ele>787.8</ele><time>2026-04-10T13:19:00.998Z</time></trkpt><trkpt lat="44.29180864260616" lon="7.77671305937404"><ele>787.2</ele><time>2026-04-10T13:19:01.998Z</time></trkpt><trkpt lat="44.291915923150874" lon="7.776730716699687"><ele>786.5999999999999</ele><time>2026-04-10T13:19:02.998Z</time></trkpt><trkpt lat="44.29200429171812" lon="7.776746125956044"><ele>786.0</ele><time>2026-04-10T13:19:03.998Z</time></trkpt><trkpt lat="44.29206892614599" lon="7.776761326604356"><ele>785.5999999999999</ele><time>2026-04-10T13:19:04.998Z</time></trkpt><trkpt lat="44.29216716004467" lon="7.776863437209298"><ele>785.2</ele><time>2026-04-10T13:19:06.998Z</time></trkpt><trkpt lat="44.29223064683404" lon="7.77688984864737"><ele>784.8</ele><time>2026-04-10T13:19:07.998Z</time></trkpt><trkpt lat="44.2923252425055" lon="7.776987450628284"><ele>784.4000000000001</ele><time>2026-04-10T13:19:09.998Z</time></trkpt><trkpt lat="44.292392958601795" lon="7.777100752770007"><ele>784.0</ele><time>2026-04-10T13:19:11.998Z</time></trkpt><trkpt lat="44.29243061767101" lon="7.7771868958201775"><ele>784.0</ele><time>2026-04-10T13:19:13.998Z</time></trkpt><trkpt lat="44.292459936358355" lon="7.777273697883635"><ele>784.0</ele><time>2026-04-10T13:19:18Z</time></trkpt><trkpt lat="44.29237958722231" lon="7.77735324018292"><ele>784.0</ele><time>2026-04-10T13:19:28Z</time></trkpt><trkpt lat="44.29238722571643" lon="7.777443023598256"><ele>784.0</ele><time>2026-04-10T13:19:33Z</time></trkpt><trkpt lat="44.292328832091115" lon="7.777482261192328"><ele>784.0</ele><time>2026-04-10T13:20:24.999Z</time></trkpt><trkpt lat="44.292399885357504" lon="7.77748175987039"><ele>784.0</ele><time>2026-04-10T13:21:05.998Z</time></trkpt><trkpt lat="44.29247322437414" lon="7.777453818617312"><ele>784.0</ele><time>2026-04-10T13:21:10.998Z</time></trkpt><trkpt lat="44.292402936341865" lon="7.777468841539213"><ele>784.0</ele><time>2026-04-10T13:21:26Z</time></trkpt><trkpt lat="44.2924634520586" lon="7.777495344908017"><ele>784.0</ele><time>2026-04-10T13:22:43.999Z</time></trkpt><trkpt lat="44.2924206580876" lon="7.777430801654758"><ele>784.0</ele><time>2026-04-10T13:23:44Z</time></trkpt><trkpt lat="44.29248910919906" lon="7.777423390322689"><ele>784.0</ele><time>2026-04-10T13:24:17.999Z</time></trkpt><trkpt lat="44.29253006115739" lon="7.777350011660891"><ele>784.0</ele><time>2026-04-10T13:24:29.999Z</time></trkpt><trkpt lat="44.29246797877113" lon="7.7774271179613335"><ele>784.0</ele><time>2026-04-10T13:24:50.999Z</time></trkpt><trkpt lat="44.292414918369" lon="7.777477417560859"><ele>784.0</ele><time>2026-04-10T13:26:55.999Z</time></trkpt><trkpt lat="44.29248014058741" lon="7.7774376015791775"><ele>784.0</ele><time>2026-04-10T13:27:22.998Z</time></trkpt><trkpt lat="44.29248847953105" lon="7.777534329399137"><ele>784.0</ele><time>2026-04-10T13:27:26.998Z</time></trkpt><trkpt lat="44.29252872623722" lon="7.777609980763487"><ele>784.0</ele><time>2026-04-10T13:27:31.998Z</time></trkpt><trkpt lat="44.29257717606827" lon="7.777687988667026"><ele>784.0</ele><time>2026-04-10T13:27:41Z</time></trkpt><trkpt lat="44.2925930976594" lon="7.7778406245738925"><ele>784.0</ele><time>2026-04-10T13:27:43Z</time></trkpt><trkpt lat="44.292600081403776" lon="7.7780364802884066"><ele>782.8333333333333</ele><time>2026-04-10T13:27:45Z</time></trkpt><trkpt lat="44.292604312116175" lon="7.778127946630554"><ele>781.6666666666666</ele><time>2026-04-10T13:27:46Z</time></trkpt><trkpt lat="44.29260529083731" lon="7.778238866070161"><ele>780.5</ele><time>2026-04-10T13:27:47Z</time></trkpt><trkpt lat="44.29260128975525" lon="7.778335387573316"><ele>779.3333333333333</ele><time>2026-04-10T13:27:48Z</time></trkpt><trkpt lat="44.29259354925308" lon="7.778459350095037"><ele>778.1666666666666</ele><time>2026-04-10T13:27:49Z</time></trkpt><trkpt lat="44.29258017352849" lon="7.778582845191886"><ele>777.0</ele><time>2026-04-10T13:27:50Z</time></trkpt><trkpt lat="44.29256828686789" lon="7.778694495239711"><ele>776.6666666666666</ele><time>2026-04-10T13:27:51Z</time></trkpt><trkpt lat="44.292559092411345" lon="7.778795588829941"><ele>776.3333333333333</ele><time>2026-04-10T13:27:52Z</time></trkpt><trkpt lat="44.292534450624544" lon="7.778904538439549"><ele>776.0</ele><time>2026-04-10T13:27:53Z</time></trkpt><trkpt lat="44.2925237122591" lon="7.7790054861744595"><ele>775.6666666666666</ele><time>2026-04-10T13:27:54Z</time></trkpt><trkpt lat="44.29250832045739" lon="7.779121563773474"><ele>775.3333333333333</ele><time>2026-04-10T13:27:55Z</time></trkpt><trkpt lat="44.29249721191683" lon="7.779243649498687"><ele>775.0</ele><time>2026-04-10T13:27:56Z</time></trkpt><trkpt lat="44.29249808965304" lon="7.779372951747694"><ele>774.4999999999999</ele><time>2026-04-10T13:27:57Z</time></trkpt><trkpt lat="44.29250294068095" lon="7.779504534106767"><ele>774.0</ele><time>2026-04-10T13:27:58Z</time></trkpt><trkpt lat="44.292508028433986" lon="7.779647167981846"><ele>773.5</ele><time>2026-04-10T13:27:59Z</time></trkpt><trkpt lat="44.29251156810068" lon="7.7797575066131746"><ele>773.0</ele><time>2026-04-10T13:28:00Z</time></trkpt><trkpt lat="44.292510484737015" lon="7.779901654833484"><ele>772.4999999999999</ele><time>2026-04-10T13:28:01Z</time></trkpt><trkpt lat="44.292517062813715" lon="7.779995340919348"><ele>772.0</ele><time>2026-04-10T13:28:02Z</time></trkpt><trkpt lat="44.2925189855951" lon="7.780133919383354"><ele>770.8333333333333</ele><time>2026-04-10T13:28:03Z</time></trkpt><trkpt lat="44.29252573552015" lon="7.7802519437469195"><ele>769.6666666666666</ele><time>2026-04-10T13:28:04Z</time></trkpt><trkpt lat="44.29253693348622" lon="7.7803620679290875"><ele>768.5</ele><time>2026-04-10T13:28:05Z</time></trkpt><trkpt lat="44.292552357438076" lon="7.780482583709129"><ele>767.3333333333333</ele><time>2026-04-10T13:28:06Z</time></trkpt><trkpt lat="44.29258498442088" lon="7.780574479909882"><ele>766.1666666666666</ele><time>2026-04-10T13:28:07Z</time></trkpt><trkpt lat="44.29262696215697" lon="7.780651665174464"><ele>765.0</ele><time>2026-04-10T13:28:08Z</time></trkpt><trkpt lat="44.292676230977875" lon="7.780757388222448"><ele>765.0</ele><time>2026-04-10T13:28:09Z</time></trkpt><trkpt lat="44.29273099490232" lon="7.780833883253267"><ele>765.0</ele><time>2026-04-10T13:28:10Z</time></trkpt><trkpt lat="44.29282070641724" lon="7.780981850535865"><ele>765.0</ele><time>2026-04-10T13:28:11Z</time></trkpt><trkpt lat="44.292912119546294" lon="7.781145184906387"><ele>765.0</ele><time>2026-04-10T13:28:12Z</time></trkpt><trkpt lat="44.29298539910227" lon="7.781278074064239"><ele>766.0</ele><time>2026-04-10T13:28:13Z</time></trkpt><trkpt lat="44.293047919188346" lon="7.781382966986322"><ele>767.0</ele><time>2026-04-10T13:28:14Z</time></trkpt><trkpt lat="44.293116148511565" lon="7.781499204317595"><ele>768.0</ele><time>2026-04-10T13:28:15Z</time></trkpt><trkpt lat="44.29318027175365" lon="7.781612206230225"><ele>769.0</ele><time>2026-04-10T13:28:16Z</time></trkpt><trkpt lat="44.293244849821185" lon="7.781729869209451"><ele>770.0</ele><time>2026-04-10T13:28:16.999Z</time></trkpt><trkpt lat="44.293307170818444" lon="7.781831217955665"><ele>769.5000000000001</ele><time>2026-04-10T13:28:17.999Z</time></trkpt><trkpt lat="44.293354673877836" lon="7.781915351006411"><ele>769.0</ele><time>2026-04-10T13:28:18.999Z</time></trkpt><trkpt lat="44.293403140428424" lon="7.782006919024044"><ele>768.5</ele><time>2026-04-10T13:28:19.999Z</time></trkpt><trkpt lat="44.293448103147774" lon="7.782085818313731"><ele>768.0</ele><time>2026-04-10T13:28:20.999Z</time></trkpt><trkpt lat="44.29348963814976" lon="7.782186936265933"><ele>767.5</ele><time>2026-04-10T13:28:21.999Z</time></trkpt><trkpt lat="44.293524755132495" lon="7.782285935072323"><ele>767.0</ele><time>2026-04-10T13:28:22.999Z</time></trkpt><trkpt lat="44.29355420166395" lon="7.782400044474529"><ele>767.0</ele><time>2026-04-10T13:28:23.999Z</time></trkpt><trkpt lat="44.29357480894653" lon="7.782527688907774"><ele>767.0</ele><time>2026-04-10T13:28:24.999Z</time></trkpt><trkpt lat="44.29357977948043" lon="7.782626084448522"><ele>767.0</ele><time>2026-04-10T13:28:25.999Z</time></trkpt><trkpt lat="44.29358903169947" lon="7.782734950691499"><ele>767.0</ele><time>2026-04-10T13:28:26.999Z</time></trkpt><trkpt lat="44.29359789113041" lon="7.782833588822072"><ele>767.0</ele><time>2026-04-10T13:28:27.999Z</time></trkpt><trkpt lat="44.2936049279332" lon="7.782931776035639"><ele>767.0</ele><time>2026-04-10T13:28:28.999Z</time></trkpt><trkpt lat="44.2936255501519" lon="7.7830817635577185"><ele>768.0</ele><time>2026-04-10T13:28:30.999Z</time></trkpt><trkpt lat="44.29366392212493" lon="7.7832342664414895"><ele>769.0</ele><time>2026-04-10T13:28:32.999Z</time></trkpt><trkpt lat="44.293705284994076" lon="7.783306314226375"><ele>770.0</ele><time>2026-04-10T13:28:33.999Z</time></trkpt><trkpt lat="44.293772763759705" lon="7.7833806327720865"><ele>771.0</ele><time>2026-04-10T13:28:34.999Z</time></trkpt><trkpt lat="44.29384757283353" lon="7.783426092249744"><ele>772.0000000000001</ele><time>2026-04-10T13:28:35.999Z</time></trkpt><trkpt lat="44.29392134390392" lon="7.783442911261914"><ele>773.0</ele><time>2026-04-10T13:28:36.999Z</time></trkpt><trkpt lat="44.29398642296207" lon="7.7834807117564475"><ele>768.8</ele><time>2026-04-10T13:28:37.999Z</time></trkpt><trkpt lat="44.29404468183197" lon="7.783517428139068"><ele>764.5999999999999</ele><time>2026-04-10T13:28:38.999Z</time></trkpt><trkpt lat="44.29410920901599" lon="7.783552727003739"><ele>760.4000000000001</ele><time>2026-04-10T13:28:39.999Z</time></trkpt><trkpt lat="44.2942259385122" lon="7.7836455056515765"><ele>756.2</ele><time>2026-04-10T13:28:41.999Z</time></trkpt><trkpt lat="44.29427848541635" lon="7.7838077082792"><ele>752.0</ele><time>2026-04-10T13:28:43.999Z</time></trkpt><trkpt lat="44.29427453477606" lon="7.783903467674962"><ele>752.0</ele><time>2026-04-10T13:28:44.999Z</time></trkpt><trkpt lat="44.29427095170478" lon="7.784015112020623"><ele>752.0</ele><time>2026-04-10T13:28:45.999Z</time></trkpt><trkpt lat="44.29426838027672" lon="7.784139486577415"><ele>752.0</ele><time>2026-04-10T13:28:46.999Z</time></trkpt><trkpt lat="44.294263390679795" lon="7.784240094754016"><ele>752.0</ele><time>2026-04-10T13:28:47.999Z</time></trkpt><trkpt lat="44.294225386426206" lon="7.784343868378505"><ele>752.0</ele><time>2026-04-10T13:28:48.999Z</time></trkpt><trkpt lat="44.29419596359701" lon="7.784451630723857"><ele>752.0</ele><time>2026-04-10T13:28:49.999Z</time></trkpt><trkpt lat="44.29414382237847" lon="7.784600550086604"><ele>753.0</ele><time>2026-04-10T13:28:50.999Z</time></trkpt><trkpt lat="44.2940640809697" lon="7.784716466741013"><ele>754.0</ele><time>2026-04-10T13:28:51.999Z</time></trkpt><trkpt lat="44.29399545692881" lon="7.784824057120753"><ele>755.0</ele><time>2026-04-10T13:28:52.999Z</time></trkpt><trkpt lat="44.293929368232085" lon="7.784924123179436"><ele>756.0</ele><time>2026-04-10T13:28:53.999Z</time></trkpt><trkpt lat="44.293864355216385" lon="7.78501877150704"><ele>757.0</ele><time>2026-04-10T13:28:54.999Z</time></trkpt><trkpt lat="44.293786187190456" lon="7.7851375048548555"><ele>758.5</ele><time>2026-04-10T13:28:56.999Z</time></trkpt><trkpt lat="44.2937416855799" lon="7.785218299132586"><ele>760.0</ele><time>2026-04-10T13:28:57.999Z</time></trkpt><trkpt lat="44.293712875895075" lon="7.7853180294358175"><ele>761.5</ele><time>2026-04-10T13:28:58.999Z</time></trkpt><trkpt lat="44.293684576195794" lon="7.785415743057864"><ele>763.0</ele><time>2026-04-10T13:28:59.999Z</time></trkpt><trkpt lat="44.29366461316934" lon="7.78553094683368"><ele>764.5</ele><time>2026-04-10T13:29:00.999Z</time></trkpt><trkpt lat="44.2936579679537" lon="7.785661398482415"><ele>766.0</ele><time>2026-04-10T13:29:01.999Z</time></trkpt><trkpt lat="44.293662890693604" lon="7.785772434272392"><ele>766.0</ele><time>2026-04-10T13:29:02.999Z</time></trkpt><trkpt lat="44.29367106081569" lon="7.785891809144952"><ele>766.0</ele><time>2026-04-10T13:29:03.999Z</time></trkpt><trkpt lat="44.293689625076766" lon="7.785994286537076"><ele>766.0</ele><time>2026-04-10T13:29:04.999Z</time></trkpt><trkpt lat="44.29372048834812" lon="7.786089905452521"><ele>766.0</ele><time>2026-04-10T13:29:05.999Z</time></trkpt><trkpt lat="44.29379815067108" lon="7.786187441632684"><ele>766.0</ele><time>2026-04-10T13:29:06.999Z</time></trkpt><trkpt lat="44.293903901361254" lon="7.786324967894825"><ele>759.75</ele><time>2026-04-10T13:29:07.999Z</time></trkpt><trkpt lat="44.29399973267262" lon="7.7864267029025385"><ele>753.5</ele><time>2026-04-10T13:29:08.999Z</time></trkpt><trkpt lat="44.29412633586634" lon="7.786566905563239"><ele>747.25</ele><time>2026-04-10T13:29:09.999Z</time></trkpt><trkpt lat="44.294222060197164" lon="7.786720353323011"><ele>741.0</ele><time>2026-04-10T13:29:10.999Z</time></trkpt><trkpt lat="44.294319410484405" lon="7.786852345857322"><ele>740.5</ele><time>2026-04-10T13:29:11.999Z</time></trkpt><trkpt lat="44.29438861364817" lon="7.786989009763433"><ele>740.0</ele><time>2026-04-10T13:29:12.999Z</time></trkpt><trkpt lat="44.29445402105562" lon="7.787112779054071"><ele>739.5</ele><time>2026-04-10T13:29:13.999Z</time></trkpt><trkpt lat="44.294527828846135" lon="7.787252536874452"><ele>739.0</ele><time>2026-04-10T13:29:14.999Z</time></trkpt><trkpt lat="44.294597118192506" lon="7.7873741925115265"><ele>739.0</ele><time>2026-04-10T13:29:15.999Z</time></trkpt><trkpt lat="44.29465849944214" lon="7.787478081800639"><ele>739.0</ele><time>2026-04-10T13:29:16.999Z</time></trkpt><trkpt lat="44.294717216139404" lon="7.787595550186794"><ele>739.0</ele><time>2026-04-10T13:29:17.999Z</time></trkpt><trkpt lat="44.29478367969089" lon="7.787710257769763"><ele>739.0</ele><time>2026-04-10T13:29:18.999Z</time></trkpt><trkpt lat="44.29485708516909" lon="7.787822839664925"><ele>739.0</ele><time>2026-04-10T13:29:19.999Z</time></trkpt><trkpt lat="44.294927472279504" lon="7.787910753199865"><ele>734.4000000000001</ele><time>2026-04-10T13:29:20.999Z</time></trkpt><trkpt lat="44.29501565701218" lon="7.787984565934637"><ele>729.8</ele><time>2026-04-10T13:29:21.999Z</time></trkpt><trkpt lat="44.29511841618533" lon="7.788071752340923"><ele>725.2</ele><time>2026-04-10T13:29:22.999Z</time></trkpt><trkpt lat="44.29522178799052" lon="7.788144748360818"><ele>720.5999999999999</ele><time>2026-04-10T13:29:23.999Z</time></trkpt><trkpt lat="44.29531759482976" lon="7.788203391433839"><ele>716.0</ele><time>2026-04-10T13:29:24.999Z</time></trkpt><trkpt lat="44.29543594523531" lon="7.788262258870985"><ele>716.0</ele><time>2026-04-10T13:29:25.999Z</time></trkpt><trkpt lat="44.295528862065936" lon="7.788295998557903"><ele>716.0</ele><time>2026-04-10T13:29:26.999Z</time></trkpt><trkpt lat="44.2956280031923" lon="7.788328999046623"><ele>716.0</ele><time>2026-04-10T13:29:27.998Z</time></trkpt><trkpt lat="44.295727258035136" lon="7.78836116097941"><ele>716.0</ele><time>2026-04-10T13:29:28.998Z</time></trkpt><trkpt lat="44.295827779434035" lon="7.788435506507781"><ele>716.0</ele><time>2026-04-10T13:29:29.998Z</time></trkpt><trkpt lat="44.295923058288835" lon="7.788505963080033"><ele>713.75</ele><time>2026-04-10T13:29:30.998Z</time></trkpt><trkpt lat="44.29602864641907" lon="7.788602227604746"><ele>711.5</ele><time>2026-04-10T13:29:31.998Z</time></trkpt><trkpt lat="44.296119497649286" lon="7.788713476252555"><ele>709.25</ele><time>2026-04-10T13:29:32.998Z</time></trkpt><trkpt lat="44.29623632047026" lon="7.78886514048893"><ele>707.0</ele><time>2026-04-10T13:29:33.998Z</time></trkpt><trkpt lat="44.29632400503829" lon="7.78901108929352"><ele>706.3333333333333</ele><time>2026-04-10T13:29:34.998Z</time></trkpt><trkpt lat="44.29644075828193" lon="7.789171917697496"><ele>705.6666666666666</ele><time>2026-04-10T13:29:35.998Z</time></trkpt><trkpt lat="44.29653064965411" lon="7.789341071410799"><ele>705.0</ele><time>2026-04-10T13:29:36.998Z</time></trkpt><trkpt lat="44.29661807836663" lon="7.789493779523762"><ele>705.0</ele><time>2026-04-10T13:29:37.998Z</time></trkpt><trkpt lat="44.2967058330232" lon="7.789652436966955"><ele>705.0</ele><time>2026-04-10T13:29:38.998Z</time></trkpt><trkpt lat="44.29679227190735" lon="7.7898066596090505"><ele>705.0</ele><time>2026-04-10T13:29:39.998Z</time></trkpt><trkpt lat="44.29689292370401" lon="7.7899727785329"><ele>705.0</ele><time>2026-04-10T13:29:40.998Z</time></trkpt><trkpt lat="44.29701484951068" lon="7.790127051266249"><ele>706.0</ele><time>2026-04-10T13:29:41.998Z</time></trkpt><trkpt lat="44.29713075534842" lon="7.790256990416932"><ele>707.0</ele><time>2026-04-10T13:29:42.998Z</time></trkpt><trkpt lat="44.2972500057997" lon="7.790399755023344"><ele>708.0</ele><time>2026-04-10T13:29:43.998Z</time></trkpt><trkpt lat="44.2973618246317" lon="7.790539591803563"><ele>708.0</ele><time>2026-04-10T13:29:44.998Z</time></trkpt><trkpt lat="44.297470258544784" lon="7.7906737037174265"><ele>708.0</ele><time>2026-04-10T13:29:46Z</time></trkpt><trkpt lat="44.297579259371474" lon="7.790779906675615"><ele>708.0</ele><time>2026-04-10T13:29:47Z</time></trkpt><trkpt lat="44.297680089468436" lon="7.790885594785401"><ele>708.0</ele><time>2026-04-10T13:29:48Z</time></trkpt><trkpt lat="44.29777292452466" lon="7.791001849547446"><ele>707.5999999999999</ele><time>2026-04-10T13:29:49Z</time></trkpt><trkpt lat="44.29784225145443" lon="7.791098516434912"><ele>707.1999999999999</ele><time>2026-04-10T13:29:50Z</time></trkpt><trkpt lat="44.297937225891644" lon="7.79122063748504"><ele>706.8</ele><time>2026-04-10T13:29:51Z</time></trkpt><trkpt lat="44.29799634193122" lon="7.791331973903223"><ele>706.4</ele><time>2026-04-10T13:29:52Z</time></trkpt><trkpt lat="44.29805930826541" lon="7.7914513492393755"><ele>706.0</ele><time>2026-04-10T13:29:53Z</time></trkpt><trkpt lat="44.29812262553236" lon="7.791583984623606"><ele>706.0</ele><time>2026-04-10T13:29:54Z</time></trkpt><trkpt lat="44.29818491315021" lon="7.791740138066832"><ele>706.0</ele><time>2026-04-10T13:29:55Z</time></trkpt><trkpt lat="44.29820278790483" lon="7.7919166467388745"><ele>706.0</ele><time>2026-04-10T13:29:56Z</time></trkpt><trkpt lat="44.29823341445374" lon="7.792055088660625"><ele>706.0</ele><time>2026-04-10T13:29:57Z</time></trkpt><trkpt lat="44.29826487557982" lon="7.792196675468898"><ele>703.5999999999999</ele><time>2026-04-10T13:29:58Z</time></trkpt><trkpt lat="44.29830069922466" lon="7.792326118131207"><ele>701.2</ele><time>2026-04-10T13:29:59Z</time></trkpt><trkpt lat="44.29833714441011" lon="7.792466329930333"><ele>698.8</ele><time>2026-04-10T13:30:00Z</time></trkpt><trkpt lat="44.29838391113592" lon="7.792582827833588"><ele>696.4000000000001</ele><time>2026-04-10T13:30:01Z</time></trkpt><trkpt lat="44.2984505718853" lon="7.792714048741697"><ele>694.0</ele><time>2026-04-10T13:30:02Z</time></trkpt><trkpt lat="44.29853702985622" lon="7.792838594359596"><ele>692.25</ele><time>2026-04-10T13:30:03Z</time></trkpt><trkpt lat="44.29862587901091" lon="7.792949137788778"><ele>690.5</ele><time>2026-04-10T13:30:04Z</time></trkpt><trkpt lat="44.298718650295434" lon="7.79304862037732"><ele>688.75</ele><time>2026-04-10T13:30:05Z</time></trkpt><trkpt lat="44.29880877029618" lon="7.793145910161846"><ele>687.0</ele><time>2026-04-10T13:30:06Z</time></trkpt><trkpt lat="44.29890557443293" lon="7.793243531383145"><ele>687.4000000000001</ele><time>2026-04-10T13:30:07Z</time></trkpt><trkpt lat="44.298993178693905" lon="7.7933390629761945"><ele>687.8000000000001</ele><time>2026-04-10T13:30:08Z</time></trkpt><trkpt lat="44.29906549170167" lon="7.793412718336098"><ele>688.2</ele><time>2026-04-10T13:30:09Z</time></trkpt><trkpt lat="44.29914478393558" lon="7.793477944290513"><ele>688.6</ele><time>2026-04-10T13:30:10Z</time></trkpt><trkpt lat="44.29922167068615" lon="7.793561070706721"><ele>689.0</ele><time>2026-04-10T13:30:11Z</time></trkpt><trkpt lat="44.299280361168876" lon="7.793668357910411"><ele>686.4000000000001</ele><time>2026-04-10T13:30:12Z</time></trkpt><trkpt lat="44.299335248201345" lon="7.793779336038186"><ele>683.8</ele><time>2026-04-10T13:30:13Z</time></trkpt><trkpt lat="44.29939408458864" lon="7.79389018949648"><ele>681.2</ele><time>2026-04-10T13:30:14Z</time></trkpt><trkpt lat="44.29945564026569" lon="7.793993295536688"><ele>678.5999999999999</ele><time>2026-04-10T13:30:15Z</time></trkpt><trkpt lat="44.299516142009296" lon="7.794077450940562"><ele>676.0</ele><time>2026-04-10T13:30:16Z</time></trkpt><trkpt lat="44.299588799187546" lon="7.794172425519993"><ele>676.0</ele><time>2026-04-10T13:30:17Z</time></trkpt><trkpt lat="44.29967551217485" lon="7.794246080355016"><ele>676.0</ele><time>2026-04-10T13:30:18Z</time></trkpt><trkpt lat="44.29976407819786" lon="7.794315704807392"><ele>676.0</ele><time>2026-04-10T13:30:19Z</time></trkpt><trkpt lat="44.299850018393855" lon="7.794377060081748"><ele>676.0</ele><time>2026-04-10T13:30:20Z</time></trkpt><trkpt lat="44.29993416332319" lon="7.7944433843294005"><ele>676.0</ele><time>2026-04-10T13:30:21Z</time></trkpt><trkpt lat="44.300014675353374" lon="7.794499199921537"><ele>675.6666666666667</ele><time>2026-04-10T13:30:22Z</time></trkpt><trkpt lat="44.30009827549727" lon="7.794558370135262"><ele>675.3333333333334</ele><time>2026-04-10T13:30:23Z</time></trkpt><trkpt lat="44.3001787757657" lon="7.794627246366126"><ele>675.0</ele><time>2026-04-10T13:30:24Z</time></trkpt><trkpt lat="44.300260850729785" lon="7.79470383125379"><ele>674.6666666666666</ele><time>2026-04-10T13:30:25Z</time></trkpt><trkpt lat="44.300327770354826" lon="7.794776205350023"><ele>674.3333333333333</ele><time>2026-04-10T13:30:26Z</time></trkpt><trkpt lat="44.300378390322706" lon="7.794845590353347"><ele>674.0</ele><time>2026-04-10T13:30:27Z</time></trkpt><trkpt lat="44.30042186425578" lon="7.794924661745889"><ele>674.0</ele><time>2026-04-10T13:30:28Z</time></trkpt><trkpt lat="44.300456275931616" lon="7.79503597527302"><ele>674.0</ele><time>2026-04-10T13:30:28.999Z</time></trkpt><trkpt lat="44.30048516100166" lon="7.795168545439922"><ele>674.0</ele><time>2026-04-10T13:30:29.999Z</time></trkpt><trkpt lat="44.30049883288816" lon="7.7952998055500515"><ele>674.0</ele><time>2026-04-10T13:30:30.999Z</time></trkpt><trkpt lat="44.300487137497" lon="7.79541902944162"><ele>674.0</ele><time>2026-04-10T13:30:31.999Z</time></trkpt><trkpt lat="44.30048340577382" lon="7.795541057458989"><ele>675.6</ele><time>2026-04-10T13:30:32.999Z</time></trkpt><trkpt lat="44.300479864000245" lon="7.7956601319896786"><ele>677.2</ele><time>2026-04-10T13:30:33.999Z</time></trkpt><trkpt lat="44.30048748719224" lon="7.795793535903956"><ele>678.8000000000001</ele><time>2026-04-10T13:30:34.999Z</time></trkpt><trkpt lat="44.300525186207814" lon="7.7959385683845"><ele>680.4000000000001</ele><time>2026-04-10T13:30:35.999Z</time></trkpt><trkpt lat="44.30057017402431" lon="7.796092117526362"><ele>682.0</ele><time>2026-04-10T13:30:36.999Z</time></trkpt><trkpt lat="44.30060828051489" lon="7.796229239961668"><ele>683.4000000000001</ele><time>2026-04-10T13:30:37.999Z</time></trkpt><trkpt lat="44.30062931181104" lon="7.796332730625767"><ele>684.8000000000001</ele><time>2026-04-10T13:30:38.999Z</time></trkpt><trkpt lat="44.30064016834373" lon="7.796496196191074"><ele>686.2</ele><time>2026-04-10T13:30:40.999Z</time></trkpt><trkpt lat="44.30059378482622" lon="7.796642436671804"><ele>687.6</ele><time>2026-04-10T13:30:42.999Z</time></trkpt><trkpt lat="44.300560021014036" lon="7.796746211762491"><ele>689.0</ele><time>2026-04-10T13:30:44.999Z</time></trkpt><trkpt lat="44.300620490164334" lon="7.796846298377566"><ele>685.0</ele><time>2026-04-10T13:30:46.999Z</time></trkpt><trkpt lat="44.30068572079451" lon="7.796886645657022"><ele>681.0</ele><time>2026-04-10T13:30:47.999Z</time></trkpt><trkpt lat="44.30075174135975" lon="7.796906361192315"><ele>677.0</ele><time>2026-04-10T13:30:48.999Z</time></trkpt><trkpt lat="44.30082394744006" lon="7.796964959844518"><ele>673.0</ele><time>2026-04-10T13:30:49.999Z</time></trkpt><trkpt lat="44.300912986849305" lon="7.797040554909156"><ele>669.0</ele><time>2026-04-10T13:30:50.999Z</time></trkpt><trkpt lat="44.30098148580291" lon="7.79709397863907"><ele>665.0</ele><time>2026-04-10T13:30:51.999Z</time></trkpt><trkpt lat="44.301050447828686" lon="7.797153560455476"><ele>665.0</ele><time>2026-04-10T13:30:52.999Z</time></trkpt><trkpt lat="44.30114525202004" lon="7.797230058966083"><ele>665.0</ele><time>2026-04-10T13:30:53.999Z</time></trkpt><trkpt lat="44.30124406610743" lon="7.797296168325244"><ele>665.0</ele><time>2026-04-10T13:30:54.999Z</time></trkpt><trkpt lat="44.30135114696329" lon="7.797353557203551"><ele>665.0</ele><time>2026-04-10T13:30:55.999Z</time></trkpt><trkpt lat="44.30145543528421" lon="7.797370171834064"><ele>665.0</ele><time>2026-04-10T13:30:56.999Z</time></trkpt><trkpt lat="44.30155246797299" lon="7.797409527211952"><ele>665.0</ele><time>2026-04-10T13:30:57.999Z</time></trkpt><trkpt lat="44.30165022141765" lon="7.797455817044676"><ele>665.0</ele><time>2026-04-10T13:30:58.999Z</time></trkpt><trkpt lat="44.30173960049022" lon="7.797503193090081"><ele>665.0</ele><time>2026-04-10T13:30:59.999Z</time></trkpt><trkpt lat="44.301830714859975" lon="7.797567130572651"><ele>665.0</ele><time>2026-04-10T13:31:00.999Z</time></trkpt><trkpt lat="44.30190582914259" lon="7.797647416890236"><ele>665.0</ele><time>2026-04-10T13:31:01.999Z</time></trkpt><trkpt lat="44.30197137608437" lon="7.797729967386764"><ele>665.0</ele><time>2026-04-10T13:31:02.999Z</time></trkpt><trkpt lat="44.30204772179365" lon="7.797823180427403"><ele>665.0</ele><time>2026-04-10T13:31:03.999Z</time></trkpt><trkpt lat="44.30211684218651" lon="7.797918252607642"><ele>665.0</ele><time>2026-04-10T13:31:04.999Z</time></trkpt><trkpt lat="44.30216456137861" lon="7.79801641774766"><ele>665.0</ele><time>2026-04-10T13:31:05.999Z</time></trkpt><trkpt lat="44.30221865117406" lon="7.79815746867526"><ele>665.0</ele><time>2026-04-10T13:31:06.999Z</time></trkpt><trkpt lat="44.30227216006546" lon="7.798277748629397"><ele>662.6</ele><time>2026-04-10T13:31:07.999Z</time></trkpt><trkpt lat="44.30231623906469" lon="7.7984065346461415"><ele>660.2</ele><time>2026-04-10T13:31:08.999Z</time></trkpt><trkpt lat="44.30234908488776" lon="7.7985378965158825"><ele>657.8</ele><time>2026-04-10T13:31:09.999Z</time></trkpt><trkpt lat="44.3023893712101" lon="7.798674523737409"><ele>655.4</ele><time>2026-04-10T13:31:10.999Z</time></trkpt><trkpt lat="44.30242952647623" lon="7.798822138071694"><ele>653.0</ele><time>2026-04-10T13:31:11.999Z</time></trkpt><trkpt lat="44.30246973713733" lon="7.798962543174398"><ele>652.5999999999999</ele><time>2026-04-10T13:31:12.999Z</time></trkpt><trkpt lat="44.30250448247164" lon="7.799083057062381"><ele>652.1999999999999</ele><time>2026-04-10T13:31:13.999Z</time></trkpt><trkpt lat="44.302555483949874" lon="7.7992352281389"><ele>651.8</ele><time>2026-04-10T13:31:14.999Z</time></trkpt><trkpt lat="44.3025953086504" lon="7.7993783836669595"><ele>651.4</ele><time>2026-04-10T13:31:15.999Z</time></trkpt><trkpt lat="44.302630877975794" lon="7.799510708811371"><ele>651.0</ele><time>2026-04-10T13:31:16.999Z</time></trkpt><trkpt lat="44.3026754238339" lon="7.799639990146942"><ele>650.8</ele><time>2026-04-10T13:31:17.999Z</time></trkpt><trkpt lat="44.30271518406187" lon="7.7997626719216475"><ele>650.5999999999999</ele><time>2026-04-10T13:31:18.999Z</time></trkpt><trkpt lat="44.30275892529442" lon="7.799868901728688"><ele>650.4</ele><time>2026-04-10T13:31:19.999Z</time></trkpt><trkpt lat="44.30282284358779" lon="7.799979945959886"><ele>650.2</ele><time>2026-04-10T13:31:20.999Z</time></trkpt><trkpt lat="44.30287940401038" lon="7.800062808207865"><ele>650.0</ele><time>2026-04-10T13:31:21.999Z</time></trkpt><trkpt lat="44.30296950126382" lon="7.800125321490947"><ele>649.4</ele><time>2026-04-10T13:31:22.999Z</time></trkpt><trkpt lat="44.303056699936086" lon="7.800206586921973"><ele>648.8</ele><time>2026-04-10T13:31:23.999Z</time></trkpt><trkpt lat="44.303152110186346" lon="7.800257488313046"><ele>648.2</ele><time>2026-04-10T13:31:24.999Z</time></trkpt><trkpt lat="44.303263491536434" lon="7.8002756138550735"><ele>647.6</ele><time>2026-04-10T13:31:25.999Z</time></trkpt><trkpt lat="44.30336365502218" lon="7.8002687835984705"><ele>647.0</ele><time>2026-04-10T13:31:26.999Z</time></trkpt><trkpt lat="44.30345950990107" lon="7.800291028173809"><ele>646.0</ele><time>2026-04-10T13:31:27.999Z</time></trkpt><trkpt lat="44.303550406621426" lon="7.800304145122847"><ele>645.0</ele><time>2026-04-10T13:31:28.999Z</time></trkpt><trkpt lat="44.3036494314539" lon="7.800324622778181"><ele>644.0</ele><time>2026-04-10T13:31:29.999Z</time></trkpt><trkpt lat="44.30375646054593" lon="7.800346606430963"><ele>643.0</ele><time>2026-04-10T13:31:30.999Z</time></trkpt><trkpt lat="44.303857170200686" lon="7.8003684709487615"><ele>642.0</ele><time>2026-04-10T13:31:31.999Z</time></trkpt><trkpt lat="44.30394811129001" lon="7.800378007592408"><ele>641.6</ele><time>2026-04-10T13:31:32.999Z</time></trkpt><trkpt lat="44.30403493530597" lon="7.800382975047059"><ele>641.2</ele><time>2026-04-10T13:31:33.999Z</time></trkpt><trkpt lat="44.30414376004321" lon="7.800392699901686"><ele>640.8</ele><time>2026-04-10T13:31:34.999Z</time></trkpt><trkpt lat="44.304244993711954" lon="7.800401436327133"><ele>640.4</ele><time>2026-04-10T13:31:35.999Z</time></trkpt><trkpt lat="44.30433905505859" lon="7.800413695674441"><ele>640.0</ele><time>2026-04-10T13:31:36.999Z</time></trkpt><trkpt lat="44.304428399383156" lon="7.800427353712903"><ele>640.0</ele><time>2026-04-10T13:31:37.999Z</time></trkpt><trkpt lat="44.30452409739914" lon="7.800447653944556"><ele>640.0</ele><time>2026-04-10T13:31:38.999Z</time></trkpt><trkpt lat="44.30461777229259" lon="7.8004544002737415"><ele>640.0</ele><time>2026-04-10T13:31:39.999Z</time></trkpt><trkpt lat="44.30471048859202" lon="7.800472529436047"><ele>640.0</ele><time>2026-04-10T13:31:40.999Z</time></trkpt><trkpt lat="44.30480610974473" lon="7.8004984067623315"><ele>640.0</ele><time>2026-04-10T13:31:41.999Z</time></trkpt><trkpt lat="44.30490995733133" lon="7.800529497946634"><ele>640.6</ele><time>2026-04-10T13:31:42.998Z</time></trkpt><trkpt lat="44.30500983354098" lon="7.800569146372079"><ele>641.2</ele><time>2026-04-10T13:31:43.998Z</time></trkpt><trkpt lat="44.3050948205454" lon="7.800588498366158"><ele>641.8</ele><time>2026-04-10T13:31:44.998Z</time></trkpt><trkpt lat="44.30518335228027" lon="7.800648812678757"><ele>642.4</ele><time>2026-04-10T13:31:45.998Z</time></trkpt><trkpt lat="44.30527614958313" lon="7.800679495862151"><ele>643.0</ele><time>2026-04-10T13:31:46.998Z</time></trkpt><trkpt lat="44.30536613453034" lon="7.8007105051643615"><ele>643.0</ele><time>2026-04-10T13:31:47.998Z</time></trkpt><trkpt lat="44.305465104224865" lon="7.800744229163491"><ele>643.0</ele><time>2026-04-10T13:31:48.998Z</time></trkpt><trkpt lat="44.30556227036424" lon="7.800776425689882"><ele>643.0</ele><time>2026-04-10T13:31:49.998Z</time></trkpt><trkpt lat="44.30565797570971" lon="7.800805665476394"><ele>643.0</ele><time>2026-04-10T13:31:50.998Z</time></trkpt><trkpt lat="44.3057656761716" lon="7.800842094502601"><ele>643.0</ele><time>2026-04-10T13:31:52Z</time></trkpt><trkpt lat="44.305871643893845" lon="7.800880384278852"><ele>643.8</ele><time>2026-04-10T13:31:53Z</time></trkpt><trkpt lat="44.30597878912" lon="7.800925177861237"><ele>644.5999999999999</ele><time>2026-04-10T13:31:54Z</time></trkpt><trkpt lat="44.30607963501125" lon="7.800974912743683"><ele>645.4000000000001</ele><time>2026-04-10T13:31:55Z</time></trkpt><trkpt lat="44.30618356378559" lon="7.801029051596237"><ele>646.2</ele><time>2026-04-10T13:31:56Z</time></trkpt><trkpt lat="44.30628409029319" lon="7.801100239461736"><ele>647.0</ele><time>2026-04-10T13:31:57Z</time></trkpt><trkpt lat="44.306386762385515" lon="7.801170974896346"><ele>643.75</ele><time>2026-04-10T13:31:58Z</time></trkpt><trkpt lat="44.30649384144693" lon="7.8012449767379755"><ele>640.5</ele><time>2026-04-10T13:31:59Z</time></trkpt><trkpt lat="44.30659107716699" lon="7.801321553446222"><ele>637.25</ele><time>2026-04-10T13:32:00Z</time></trkpt><trkpt lat="44.306687827446545" lon="7.80141292563814"><ele>634.0</ele><time>2026-04-10T13:32:01Z</time></trkpt><trkpt lat="44.306786131283204" lon="7.80149783213827"><ele>634.0</ele><time>2026-04-10T13:32:02Z</time></trkpt><trkpt lat="44.30688509484244" lon="7.801578748458946"><ele>634.0</ele><time>2026-04-10T13:32:03Z</time></trkpt><trkpt lat="44.30699111675409" lon="7.8016663198173255"><ele>634.0</ele><time>2026-04-10T13:32:04Z</time></trkpt><trkpt lat="44.307100962792155" lon="7.801748793528941"><ele>634.0</ele><time>2026-04-10T13:32:05Z</time></trkpt><trkpt lat="44.307214554869624" lon="7.801821706702484"><ele>631.25</ele><time>2026-04-10T13:32:06Z</time></trkpt><trkpt lat="44.30733028634682" lon="7.801888537784553"><ele>628.5</ele><time>2026-04-10T13:32:07Z</time></trkpt><trkpt lat="44.307447898207016" lon="7.801953901037633"><ele>625.75</ele><time>2026-04-10T13:32:08Z</time></trkpt><trkpt lat="44.30756622318872" lon="7.802016511740497"><ele>623.0</ele><time>2026-04-10T13:32:09Z</time></trkpt><trkpt lat="44.30768316950991" lon="7.8020724182886045"><ele>623.0</ele><time>2026-04-10T13:32:10Z</time></trkpt><trkpt lat="44.30780535663742" lon="7.802125838958507"><ele>623.0</ele><time>2026-04-10T13:32:11Z</time></trkpt><trkpt lat="44.30792220236319" lon="7.802175782803302"><ele>623.0</ele><time>2026-04-10T13:32:12Z</time></trkpt><trkpt lat="44.30804212709368" lon="7.802211534229436"><ele>623.0</ele><time>2026-04-10T13:32:13Z</time></trkpt><trkpt lat="44.30815020464055" lon="7.802243334373372"><ele>622.75</ele><time>2026-04-10T13:32:14Z</time></trkpt><trkpt lat="44.30825833349687" lon="7.802265235957502"><ele>622.5</ele><time>2026-04-10T13:32:15Z</time></trkpt><trkpt lat="44.3083716824503" lon="7.802276996227151"><ele>622.25</ele><time>2026-04-10T13:32:16Z</time></trkpt><trkpt lat="44.30847886951426" lon="7.80228955143679"><ele>622.0</ele><time>2026-04-10T13:32:17Z</time></trkpt><trkpt lat="44.3086049343023" lon="7.802310254871917"><ele>622.0</ele><time>2026-04-10T13:32:18Z</time></trkpt><trkpt lat="44.30872411370307" lon="7.802328820496583"><ele>622.0</ele><time>2026-04-10T13:32:19Z</time></trkpt><trkpt lat="44.308841641447565" lon="7.802347194592972"><ele>622.0</ele><time>2026-04-10T13:32:20Z</time></trkpt><trkpt lat="44.308961616355674" lon="7.802365241411505"><ele>622.0</ele><time>2026-04-10T13:32:21Z</time></trkpt><trkpt lat="44.30906646976107" lon="7.802388297824819"><ele>622.5</ele><time>2026-04-10T13:32:22Z</time></trkpt><trkpt lat="44.30918567837289" lon="7.802401480685183"><ele>623.0</ele><time>2026-04-10T13:32:23Z</time></trkpt><trkpt lat="44.30929817457415" lon="7.8024103149399116"><ele>623.5</ele><time>2026-04-10T13:32:24Z</time></trkpt><trkpt lat="44.3094195846593" lon="7.802427185102284"><ele>624.0</ele><time>2026-04-10T13:32:25Z</time></trkpt><trkpt lat="44.309543757227466" lon="7.802445260667688"><ele>624.0</ele><time>2026-04-10T13:32:26Z</time></trkpt><trkpt lat="44.30966528895361" lon="7.802466539185371"><ele>624.0</ele><time>2026-04-10T13:32:27Z</time></trkpt><trkpt lat="44.309793636904125" lon="7.802487379918329"><ele>624.0</ele><time>2026-04-10T13:32:28Z</time></trkpt><trkpt lat="44.309938723882254" lon="7.802491174924515"><ele>624.0</ele><time>2026-04-10T13:32:29Z</time></trkpt><trkpt lat="44.310085911598605" lon="7.802494083999305"><ele>625.3333333333334</ele><time>2026-04-10T13:32:30Z</time></trkpt><trkpt lat="44.310250349707" lon="7.802516082901404"><ele>626.6666666666667</ele><time>2026-04-10T13:32:31Z</time></trkpt><trkpt lat="44.310401336593095" lon="7.802533447366782"><ele>628.0</ele><time>2026-04-10T13:32:32Z</time></trkpt><trkpt lat="44.310545862219556" lon="7.802555946205903"><ele>628.0</ele><time>2026-04-10T13:32:33Z</time></trkpt><trkpt lat="44.31071061974453" lon="7.802562256604381"><ele>628.0</ele><time>2026-04-10T13:32:34Z</time></trkpt><trkpt lat="44.3108779023945" lon="7.802576258374573"><ele>628.0</ele><time>2026-04-10T13:32:35Z</time></trkpt><trkpt lat="44.311038421142925" lon="7.802583295510054"><ele>628.0</ele><time>2026-04-10T13:32:36Z</time></trkpt><trkpt lat="44.311207077512265" lon="7.802599509512738"><ele>628.0</ele><time>2026-04-10T13:32:37Z</time></trkpt><trkpt lat="44.31136265872477" lon="7.802622214798688"><ele>628.0</ele><time>2026-04-10T13:32:38Z</time></trkpt><trkpt lat="44.31151043365408" lon="7.8026626960909065"><ele>621.6666666666667</ele><time>2026-04-10T13:32:39Z</time></trkpt><trkpt lat="44.3116675640739" lon="7.802702149073786"><ele>615.3333333333334</ele><time>2026-04-10T13:32:39.999Z</time></trkpt><trkpt lat="44.31182191354525" lon="7.802742399019635"><ele>609.0</ele><time>2026-04-10T13:32:40.999Z</time></trkpt><trkpt lat="44.311967786091074" lon="7.8027896417175935"><ele>609.0</ele><time>2026-04-10T13:32:41.999Z</time></trkpt><trkpt lat="44.312110034138065" lon="7.8028283674438565"><ele>609.0</ele><time>2026-04-10T13:32:42.999Z</time></trkpt><trkpt lat="44.312245805665796" lon="7.802879311495153"><ele>609.0</ele><time>2026-04-10T13:32:43.999Z</time></trkpt><trkpt lat="44.31239586720639" lon="7.802928693564942"><ele>609.0</ele><time>2026-04-10T13:32:44.999Z</time></trkpt><trkpt lat="44.312547813935986" lon="7.803010808366692"><ele>608.75</ele><time>2026-04-10T13:32:45.999Z</time></trkpt><trkpt lat="44.31269635123363" lon="7.803079070581708"><ele>608.5</ele><time>2026-04-10T13:32:46.999Z</time></trkpt><trkpt lat="44.31283849425673" lon="7.803150288658022"><ele>608.25</ele><time>2026-04-10T13:32:47.999Z</time></trkpt><trkpt lat="44.312968588779746" lon="7.803227550685974"><ele>608.0</ele><time>2026-04-10T13:32:48.999Z</time></trkpt><trkpt lat="44.31306604947127" lon="7.803324807642723"><ele>606.25</ele><time>2026-04-10T13:32:49.999Z</time></trkpt><trkpt lat="44.31316505210264" lon="7.803397741396182"><ele>604.5</ele><time>2026-04-10T13:32:50.999Z</time></trkpt><trkpt lat="44.31326544132594" lon="7.8034717163812255"><ele>602.75</ele><time>2026-04-10T13:32:51.999Z</time></trkpt><trkpt lat="44.31337753620308" lon="7.803533726619981"><ele>601.0</ele><time>2026-04-10T13:32:52.999Z</time></trkpt><trkpt lat="44.31346990870848" lon="7.803635502973129"><ele>601.0</ele><time>2026-04-10T13:32:53.999Z</time></trkpt><trkpt lat="44.31358346953478" lon="7.803702567801445"><ele>601.0</ele><time>2026-04-10T13:32:54.999Z</time></trkpt><trkpt lat="44.31369362520841" lon="7.803747296865877"><ele>601.0</ele><time>2026-04-10T13:32:55.999Z</time></trkpt><trkpt lat="44.313805116153404" lon="7.803784642782937"><ele>601.0</ele><time>2026-04-10T13:32:56.999Z</time></trkpt><trkpt lat="44.313932091704814" lon="7.803809775777109"><ele>601.25</ele><time>2026-04-10T13:32:57.999Z</time></trkpt><trkpt lat="44.3140620323331" lon="7.803831406130232"><ele>601.5</ele><time>2026-04-10T13:32:58.999Z</time></trkpt><trkpt lat="44.3141890918287" lon="7.803834227071229"><ele>601.75</ele><time>2026-04-10T13:32:59.999Z</time></trkpt><trkpt lat="44.31430821769179" lon="7.8038238333345324"><ele>602.0</ele><time>2026-04-10T13:33:00.999Z</time></trkpt><trkpt lat="44.31444189504259" lon="7.803815957271926"><ele>602.0</ele><time>2026-04-10T13:33:01.999Z</time></trkpt><trkpt lat="44.314557943882065" lon="7.803819145676588"><ele>602.0</ele><time>2026-04-10T13:33:02.999Z</time></trkpt><trkpt lat="44.31467056568688" lon="7.803801764766433"><ele>602.0</ele><time>2026-04-10T13:33:03.999Z</time></trkpt><trkpt lat="44.31478262477245" lon="7.803793391843137"><ele>602.0</ele><time>2026-04-10T13:33:04.999Z</time></trkpt><trkpt lat="44.31489842206815" lon="7.803784001118171"><ele>601.2</ele><time>2026-04-10T13:33:05.999Z</time></trkpt><trkpt lat="44.31501213277306" lon="7.803770849199712"><ele>600.4000000000001</ele><time>2026-04-10T13:33:06.999Z</time></trkpt><trkpt lat="44.315131729698855" lon="7.803764568267821"><ele>599.5999999999999</ele><time>2026-04-10T13:33:07.999Z</time></trkpt><trkpt lat="44.31523291463769" lon="7.803747211954087"><ele>598.8</ele><time>2026-04-10T13:33:08.999Z</time></trkpt><trkpt lat="44.315341357629926" lon="7.803770988472866"><ele>598.0</ele><time>2026-04-10T13:33:09.999Z</time></trkpt><trkpt lat="44.315448953122754" lon="7.803764024303435"><ele>598.0</ele><time>2026-04-10T13:33:10.999Z</time></trkpt><trkpt lat="44.31554438969959" lon="7.803758313843227"><ele>598.0</ele><time>2026-04-10T13:33:11.999Z</time></trkpt><trkpt lat="44.31564309982186" lon="7.80374371373121"><ele>598.0</ele><time>2026-04-10T13:33:12.999Z</time></trkpt><trkpt lat="44.31574266693333" lon="7.803736177428757"><ele>598.0</ele><time>2026-04-10T13:33:13.999Z</time></trkpt><trkpt lat="44.31584150171307" lon="7.8037300007655706"><ele>598.0</ele><time>2026-04-10T13:33:14.999Z</time></trkpt><trkpt lat="44.31594719102934" lon="7.803720039023242"><ele>598.0</ele><time>2026-04-10T13:33:15.999Z</time></trkpt><trkpt lat="44.31605663346089" lon="7.8037091288844405"><ele>598.0</ele><time>2026-04-10T13:33:16.999Z</time></trkpt><trkpt lat="44.31616546491475" lon="7.803693213960716"><ele>598.0</ele><time>2026-04-10T13:33:17.999Z</time></trkpt><trkpt lat="44.31628017440501" lon="7.803672404712524"><ele>598.0</ele><time>2026-04-10T13:33:18.999Z</time></trkpt><trkpt lat="44.31638627152432" lon="7.80364582984771"><ele>598.0</ele><time>2026-04-10T13:33:19.999Z</time></trkpt><trkpt lat="44.31649459507788" lon="7.803620475327989"><ele>599.0</ele><time>2026-04-10T13:33:20.999Z</time></trkpt><trkpt lat="44.316603712589725" lon="7.803587637100864"><ele>600.0</ele><time>2026-04-10T13:33:21.999Z</time></trkpt><trkpt lat="44.31670566379035" lon="7.803551924346645"><ele>601.0</ele><time>2026-04-10T13:33:22.999Z</time></trkpt><trkpt lat="44.316802110243685" lon="7.80351434498493"><ele>602.0</ele><time>2026-04-10T13:33:23.999Z</time></trkpt><trkpt lat="44.316898008056306" lon="7.803476874046408"><ele>603.0</ele><time>2026-04-10T13:33:24.999Z</time></trkpt><trkpt lat="44.316999209516375" lon="7.803445508805811"><ele>603.0</ele><time>2026-04-10T13:33:25.999Z</time></trkpt><trkpt lat="44.317088893313546" lon="7.80341069884926"><ele>603.0</ele><time>2026-04-10T13:33:26.999Z</time></trkpt><trkpt lat="44.31719572984601" lon="7.8033829912995945"><ele>603.0</ele><time>2026-04-10T13:33:27.999Z</time></trkpt><trkpt lat="44.31727958847295" lon="7.803344077255415"><ele>603.0</ele><time>2026-04-10T13:33:28.999Z</time></trkpt><trkpt lat="44.31737619155928" lon="7.803306081223706"><ele>603.0</ele><time>2026-04-10T13:33:29.999Z</time></trkpt><trkpt lat="44.31747406830552" lon="7.8032668347568706"><ele>600.8</ele><time>2026-04-10T13:33:30.999Z</time></trkpt><trkpt lat="44.3175670366362" lon="7.803230693353925"><ele>598.5999999999999</ele><time>2026-04-10T13:33:31.999Z</time></trkpt><trkpt lat="44.31766226886608" lon="7.803200951514759"><ele>596.4000000000001</ele><time>2026-04-10T13:33:32.999Z</time></trkpt><trkpt lat="44.31774929335348" lon="7.803154296578404"><ele>594.2</ele><time>2026-04-10T13:33:33.999Z</time></trkpt><trkpt lat="44.317848755101025" lon="7.803098468816039"><ele>592.0</ele><time>2026-04-10T13:33:34.999Z</time></trkpt><trkpt lat="44.31793371438638" lon="7.803033169962855"><ele>592.0</ele><time>2026-04-10T13:33:35.999Z</time></trkpt><trkpt lat="44.31804088450566" lon="7.802979434169848"><ele>592.0</ele><time>2026-04-10T13:33:36.999Z</time></trkpt><trkpt lat="44.31814046088817" lon="7.802878586033906"><ele>592.0</ele><time>2026-04-10T13:33:37.999Z</time></trkpt><trkpt lat="44.31826885746574" lon="7.8027950762978415"><ele>592.0</ele><time>2026-04-10T13:33:38.999Z</time></trkpt><trkpt lat="44.31838992469484" lon="7.802688477800163"><ele>592.5</ele><time>2026-04-10T13:33:39.999Z</time></trkpt><trkpt lat="44.318502540241916" lon="7.802588688222014"><ele>593.0</ele><time>2026-04-10T13:33:40.999Z</time></trkpt><trkpt lat="44.31861310381478" lon="7.802490528670285"><ele>593.5</ele><time>2026-04-10T13:33:41.999Z</time></trkpt><trkpt lat="44.31872025440902" lon="7.802396391978167"><ele>594.0</ele><time>2026-04-10T13:33:42.999Z</time></trkpt><trkpt lat="44.318826954902185" lon="7.802305848277396"><ele>590.75</ele><time>2026-04-10T13:33:43.999Z</time></trkpt><trkpt lat="44.318928740175785" lon="7.802216823009905"><ele>587.5</ele><time>2026-04-10T13:33:44.999Z</time></trkpt><trkpt lat="44.3190372399627" lon="7.802131137535521"><ele>584.25</ele><time>2026-04-10T13:33:45.999Z</time></trkpt><trkpt lat="44.31914332008837" lon="7.802058146134832"><ele>581.0</ele><time>2026-04-10T13:33:46.999Z</time></trkpt><trkpt lat="44.31925706517668" lon="7.801991163316191"><ele>581.0</ele><time>2026-04-10T13:33:47.999Z</time></trkpt><trkpt lat="44.31937709220546" lon="7.801934914394229"><ele>581.0</ele><time>2026-04-10T13:33:48.999Z</time></trkpt><trkpt lat="44.31950701835823" lon="7.801890462574773"><ele>581.0</ele><time>2026-04-10T13:33:49.999Z</time></trkpt><trkpt lat="44.31964310082438" lon="7.801847306586343"><ele>581.0</ele><time>2026-04-10T13:33:50.999Z</time></trkpt><trkpt lat="44.319773254636175" lon="7.8018112839579175"><ele>583.5</ele><time>2026-04-10T13:33:51.999Z</time></trkpt><trkpt lat="44.3199027456026" lon="7.801783222069501"><ele>586.0</ele><time>2026-04-10T13:33:52.999Z</time></trkpt><trkpt lat="44.32001523650245" lon="7.801761455251752"><ele>588.5</ele><time>2026-04-10T13:33:53.999Z</time></trkpt><trkpt lat="44.3201280574864" lon="7.8017724503017565"><ele>591.0</ele><time>2026-04-10T13:33:54.998Z</time></trkpt><trkpt lat="44.32023686740544" lon="7.8017473184821675"><ele>591.0</ele><time>2026-04-10T13:33:55.998Z</time></trkpt><trkpt lat="44.320342627203786" lon="7.801726097504578"><ele>591.0</ele><time>2026-04-10T13:33:56.998Z</time></trkpt><trkpt lat="44.320438794202936" lon="7.801702279163623"><ele>591.0</ele><time>2026-04-10T13:33:58Z</time></trkpt><trkpt lat="44.32053486128276" lon="7.801668110684676"><ele>591.0</ele><time>2026-04-10T13:33:59Z</time></trkpt><trkpt lat="44.3206216963163" lon="7.801633738803867"><ele>591.0</ele><time>2026-04-10T13:34:00Z</time></trkpt><trkpt lat="44.32071776875121" lon="7.801584577394984"><ele>587.8</ele><time>2026-04-10T13:34:01Z</time></trkpt><trkpt lat="44.32081508020093" lon="7.8015142959197705"><ele>584.6</ele><time>2026-04-10T13:34:02Z</time></trkpt><trkpt lat="44.320906068350894" lon="7.80143126896239"><ele>581.4</ele><time>2026-04-10T13:34:03Z</time></trkpt><trkpt lat="44.32099860370068" lon="7.801353001059816"><ele>578.2</ele><time>2026-04-10T13:34:04Z</time></trkpt><trkpt lat="44.32107267485601" lon="7.801257371484029"><ele>575.0</ele><time>2026-04-10T13:34:05Z</time></trkpt><trkpt lat="44.321151108341006" lon="7.801167870878151"><ele>575.0</ele><time>2026-04-10T13:34:06Z</time></trkpt><trkpt lat="44.32122413163976" lon="7.801075455180126"><ele>575.0</ele><time>2026-04-10T13:34:07Z</time></trkpt><trkpt lat="44.321279814757126" lon="7.801002511016712"><ele>575.0</ele><time>2026-04-10T13:34:08Z</time></trkpt><trkpt lat="44.321345711135685" lon="7.800935182627912"><ele>575.0</ele><time>2026-04-10T13:34:09Z</time></trkpt><trkpt lat="44.321406800044215" lon="7.800874611871972"><ele>575.0</ele><time>2026-04-10T13:34:10Z</time></trkpt><trkpt lat="44.32148569897587" lon="7.80083383547139"><ele>575.0</ele><time>2026-04-10T13:34:11Z</time></trkpt><trkpt lat="44.321564021284814" lon="7.800806755412868"><ele>573.8</ele><time>2026-04-10T13:34:12Z</time></trkpt><trkpt lat="44.32165583992311" lon="7.8007962218637905"><ele>572.6</ele><time>2026-04-10T13:34:13Z</time></trkpt><trkpt lat="44.32175130680871" lon="7.80078913123869"><ele>571.4</ele><time>2026-04-10T13:34:14Z</time></trkpt><trkpt lat="44.32184401785973" lon="7.800785891721352"><ele>570.2</ele><time>2026-04-10T13:34:15Z</time></trkpt><trkpt lat="44.32193587813917" lon="7.800784539767009"><ele>569.0</ele><time>2026-04-10T13:34:16Z</time></trkpt><trkpt lat="44.322022734053235" lon="7.800779518748112"><ele>569.0</ele><time>2026-04-10T13:34:17Z</time></trkpt><trkpt lat="44.322107502937044" lon="7.8007702974124955"><ele>569.0</ele><time>2026-04-10T13:34:18Z</time></trkpt><trkpt lat="44.32219067770305" lon="7.800768190118352"><ele>569.0</ele><time>2026-04-10T13:34:19Z</time></trkpt><trkpt lat="44.32227728123451" lon="7.800765517104234"><ele>569.0</ele><time>2026-04-10T13:34:20Z</time></trkpt><trkpt lat="44.32235645356074" lon="7.800755823659236"><ele>569.0</ele><time>2026-04-10T13:34:21Z</time></trkpt><trkpt lat="44.32243588507368" lon="7.80076884994533"><ele>569.0</ele><time>2026-04-10T13:34:22Z</time></trkpt><trkpt lat="44.322525596499055" lon="7.800766788178695"><ele>567.6666666666666</ele><time>2026-04-10T13:34:23Z</time></trkpt><trkpt lat="44.3226127194676" lon="7.800768081552082"><ele>566.3333333333333</ele><time>2026-04-10T13:34:24Z</time></trkpt><trkpt lat="44.322688860985814" lon="7.800771324532443"><ele>565.0</ele><time>2026-04-10T13:34:25Z</time></trkpt><trkpt lat="44.322772899253955" lon="7.800782562505414"><ele>563.6666666666666</ele><time>2026-04-10T13:34:26Z</time></trkpt><trkpt lat="44.32285800656673" lon="7.800808535679797"><ele>562.3333333333334</ele><time>2026-04-10T13:34:27Z</time></trkpt><trkpt lat="44.32292917457822" lon="7.800846317641892"><ele>561.0</ele><time>2026-04-10T13:34:28Z</time></trkpt><trkpt lat="44.32300841424837" lon="7.800891231600133"><ele>560.6</ele><time>2026-04-10T13:34:29Z</time></trkpt><trkpt lat="44.32308957132422" lon="7.800938920410791"><ele>560.2</ele><time>2026-04-10T13:34:30Z</time></trkpt><trkpt lat="44.32317058859567" lon="7.800986527074737"><ele>559.8</ele><time>2026-04-10T13:34:31Z</time></trkpt><trkpt lat="44.323249302294606" lon="7.801032780209313"><ele>559.4</ele><time>2026-04-10T13:34:32Z</time></trkpt><trkpt lat="44.32334674749854" lon="7.801090040005653"><ele>559.0</ele><time>2026-04-10T13:34:33Z</time></trkpt><trkpt lat="44.32342758713503" lon="7.80113754230995"><ele>559.0</ele><time>2026-04-10T13:34:34Z</time></trkpt><trkpt lat="44.32351271728674" lon="7.801187565668299"><ele>559.0</ele><time>2026-04-10T13:34:35Z</time></trkpt><trkpt lat="44.32360789743847" lon="7.801243083449423"><ele>559.0</ele><time>2026-04-10T13:34:36Z</time></trkpt><trkpt lat="44.323697944322994" lon="7.801283932304047"><ele>559.0</ele><time>2026-04-10T13:34:37Z</time></trkpt><trkpt lat="44.32376947234612" lon="7.801324352847773"><ele>559.0</ele><time>2026-04-10T13:34:38Z</time></trkpt><trkpt lat="44.32383666246635" lon="7.801340120728428"><ele>559.0</ele><time>2026-04-10T13:34:39Z</time></trkpt><trkpt lat="44.32392773556553" lon="7.801323525569537"><ele>558.8</ele><time>2026-04-10T13:34:40Z</time></trkpt><trkpt lat="44.3240097751334" lon="7.801275226107827"><ele>558.5999999999999</ele><time>2026-04-10T13:34:41Z</time></trkpt><trkpt lat="44.324063474091055" lon="7.801166344413498"><ele>558.4</ele><time>2026-04-10T13:34:42Z</time></trkpt><trkpt lat="44.3241001037881" lon="7.80101862467429"><ele>558.1999999999999</ele><time>2026-04-10T13:34:43Z</time></trkpt><trkpt lat="44.324164618644275" lon="7.800899154073979"><ele>558.0</ele><time>2026-04-10T13:34:44Z</time></trkpt><trkpt lat="44.32423450881202" lon="7.8007992211613715"><ele>558.0</ele><time>2026-04-10T13:34:45Z</time></trkpt><trkpt lat="44.32430917834335" lon="7.800692783878293"><ele>558.0</ele><time>2026-04-10T13:34:46Z</time></trkpt><trkpt lat="44.324394178495446" lon="7.800621210362567"><ele>558.0</ele><time>2026-04-10T13:34:47Z</time></trkpt><trkpt lat="44.3244939028355" lon="7.800538583730578"><ele>558.0</ele><time>2026-04-10T13:34:48Z</time></trkpt><trkpt lat="44.32460446731076" lon="7.800464976732809"><ele>558.0</ele><time>2026-04-10T13:34:49Z</time></trkpt><trkpt lat="44.324696650257486" lon="7.800343439943038"><ele>558.0</ele><time>2026-04-10T13:34:50Z</time></trkpt><trkpt lat="44.32480798800888" lon="7.800276369923749"><ele>558.0</ele><time>2026-04-10T13:34:51Z</time></trkpt><trkpt lat="44.324940286751385" lon="7.800209332671419"><ele>558.0</ele><time>2026-04-10T13:34:51.999Z</time></trkpt><trkpt lat="44.32505103873701" lon="7.8001725932712125"><ele>558.0</ele><time>2026-04-10T13:34:52.999Z</time></trkpt><trkpt lat="44.32514186121569" lon="7.8001136878068325"><ele>558.0</ele><time>2026-04-10T13:34:53.999Z</time></trkpt><trkpt lat="44.32522795906328" lon="7.8000413129694115"><ele>558.0</ele><time>2026-04-10T13:34:54.999Z</time></trkpt><trkpt lat="44.3253116363316" lon="7.799950300974764"><ele>558.0</ele><time>2026-04-10T13:34:55.999Z</time></trkpt><trkpt lat="44.32539679884591" lon="7.799835643692556"><ele>558.0</ele><time>2026-04-10T13:34:56.999Z</time></trkpt><trkpt lat="44.32546757434258" lon="7.7996988804930805"><ele>558.0</ele><time>2026-04-10T13:34:57.999Z</time></trkpt><trkpt lat="44.325534597503584" lon="7.79954683010668"><ele>558.25</ele><time>2026-04-10T13:34:58.999Z</time></trkpt><trkpt lat="44.325601449096865" lon="7.799406412040679"><ele>558.5</ele><time>2026-04-10T13:34:59.999Z</time></trkpt><trkpt lat="44.32565696357102" lon="7.799281756389656"><ele>558.75</ele><time>2026-04-10T13:35:00.999Z</time></trkpt><trkpt lat="44.32572319658929" lon="7.799138284490304"><ele>559.0</ele><time>2026-04-10T13:35:01.999Z</time></trkpt><trkpt lat="44.325783716553275" lon="7.798985854520395"><ele>559.0</ele><time>2026-04-10T13:35:02.999Z</time></trkpt><trkpt lat="44.325843078552225" lon="7.7988530130786575"><ele>559.0</ele><time>2026-04-10T13:35:03.999Z</time></trkpt><trkpt lat="44.325882441859285" lon="7.798746021247313"><ele>559.0</ele><time>2026-04-10T13:35:04.999Z</time></trkpt><trkpt lat="44.32593388996937" lon="7.79863514367148"><ele>559.0</ele><time>2026-04-10T13:35:05.999Z</time></trkpt><trkpt lat="44.32598613248876" lon="7.79849090410482"><ele>559.0</ele><time>2026-04-10T13:35:06.999Z</time></trkpt><trkpt lat="44.326033250602016" lon="7.798334336475027"><ele>557.6</ele><time>2026-04-10T13:35:07.999Z</time></trkpt><trkpt lat="44.32608280643729" lon="7.798186762110422"><ele>556.2</ele><time>2026-04-10T13:35:08.999Z</time></trkpt><trkpt lat="44.32613367065425" lon="7.798036522559563"><ele>554.8000000000001</ele><time>2026-04-10T13:35:09.999Z</time></trkpt><trkpt lat="44.326178394137685" lon="7.797901126539701"><ele>553.4</ele><time>2026-04-10T13:35:10.999Z</time></trkpt><trkpt lat="44.32622193175458" lon="7.79777806259845"><ele>552.0</ele><time>2026-04-10T13:35:11.999Z</time></trkpt><trkpt lat="44.32625443806232" lon="7.797616664254226"><ele>550.5</ele><time>2026-04-10T13:35:12.999Z</time></trkpt><trkpt lat="44.32632388274731" lon="7.797463786351445"><ele>549.0</ele><time>2026-04-10T13:35:13.999Z</time></trkpt><trkpt lat="44.326360131691004" lon="7.7973281613507925"><ele>547.5</ele><time>2026-04-10T13:35:14.999Z</time></trkpt><trkpt lat="44.3264073740663" lon="7.797174468118729"><ele>546.0</ele><time>2026-04-10T13:35:15.999Z</time></trkpt><trkpt lat="44.32645819810243" lon="7.797002564148745"><ele>548.0</ele><time>2026-04-10T13:35:16.999Z</time></trkpt><trkpt lat="44.32650688695047" lon="7.796839904693491"><ele>550.0</ele><time>2026-04-10T13:35:17.999Z</time></trkpt><trkpt lat="44.32651169846923" lon="7.79674939360002"><ele>552.0</ele><time>2026-04-10T13:35:18.999Z</time></trkpt><trkpt lat="44.326537315479705" lon="7.796643744664508"><ele>554.0</ele><time>2026-04-10T13:35:19.999Z</time></trkpt><trkpt lat="44.32657586313543" lon="7.7965369484829985"><ele>556.0</ele><time>2026-04-10T13:35:20.999Z</time></trkpt><trkpt lat="44.326618498656615" lon="7.796395867476825"><ele>556.0</ele><time>2026-04-10T13:35:21.999Z</time></trkpt><trkpt lat="44.32665363874329" lon="7.796269979343075"><ele>556.0</ele><time>2026-04-10T13:35:22.999Z</time></trkpt><trkpt lat="44.3266678184247" lon="7.796148514111154"><ele>556.0</ele><time>2026-04-10T13:35:23.999Z</time></trkpt><trkpt lat="44.32670008134747" lon="7.7960287583627945"><ele>556.0</ele><time>2026-04-10T13:35:24.999Z</time></trkpt><trkpt lat="44.32672579807515" lon="7.79587632316716"><ele>556.0</ele><time>2026-04-10T13:35:25.999Z</time></trkpt><trkpt lat="44.32675864788824" lon="7.795732862793094"><ele>554.6</ele><time>2026-04-10T13:35:26.999Z</time></trkpt><trkpt lat="44.32679601953693" lon="7.795595752512774"><ele>553.2</ele><time>2026-04-10T13:35:27.999Z</time></trkpt><trkpt lat="44.326828602625866" lon="7.795440211454101"><ele>551.8</ele><time>2026-04-10T13:35:28.999Z</time></trkpt><trkpt lat="44.326854041855505" lon="7.795291543124673"><ele>550.4</ele><time>2026-04-10T13:35:29.999Z</time></trkpt><trkpt lat="44.32689066230432" lon="7.795166680990339"><ele>549.0</ele><time>2026-04-10T13:35:30.999Z</time></trkpt><trkpt lat="44.326912176406985" lon="7.795033704781289"><ele>548.0</ele><time>2026-04-10T13:35:31.999Z</time></trkpt><trkpt lat="44.32693184693767" lon="7.794912350835821"><ele>547.0</ele><time>2026-04-10T13:35:32.999Z</time></trkpt><trkpt lat="44.32699112613204" lon="7.794771588144497"><ele>546.0</ele><time>2026-04-10T13:35:33.999Z</time></trkpt><trkpt lat="44.327012840536526" lon="7.794647828109024"><ele>545.0</ele><time>2026-04-10T13:35:34.999Z</time></trkpt><trkpt lat="44.32704496564044" lon="7.7945199560303084"><ele>544.0</ele><time>2026-04-10T13:35:35.999Z</time></trkpt><trkpt lat="44.32709572129751" lon="7.79438203234397"><ele>544.2</ele><time>2026-04-10T13:35:36.999Z</time></trkpt><trkpt lat="44.32713255536838" lon="7.794257812233682"><ele>544.4</ele><time>2026-04-10T13:35:37.999Z</time></trkpt><trkpt lat="44.327180114401266" lon="7.794141980545873"><ele>544.6</ele><time>2026-04-10T13:35:38.999Z</time></trkpt><trkpt lat="44.327227174622514" lon="7.794004698340515"><ele>544.8</ele><time>2026-04-10T13:35:39.999Z</time></trkpt><trkpt lat="44.32726846822856" lon="7.793890089470479"><ele>545.0</ele><time>2026-04-10T13:35:40.999Z</time></trkpt><trkpt lat="44.32731805107577" lon="7.793748068697038"><ele>545.0</ele><time>2026-04-10T13:35:41.999Z</time></trkpt><trkpt lat="44.3273611335663" lon="7.793600972614892"><ele>545.0</ele><time>2026-04-10T13:35:42.999Z</time></trkpt><trkpt lat="44.32740676067629" lon="7.7934921355333655"><ele>545.0</ele><time>2026-04-10T13:35:43.999Z</time></trkpt><trkpt lat="44.32746783561956" lon="7.7933513665224385"><ele>545.0</ele><time>2026-04-10T13:35:44.999Z</time></trkpt><trkpt lat="44.32752072639989" lon="7.793185771597633"><ele>544.4</ele><time>2026-04-10T13:35:45.999Z</time></trkpt><trkpt lat="44.32756554091069" lon="7.793043598228958"><ele>543.8</ele><time>2026-04-10T13:35:46.999Z</time></trkpt><trkpt lat="44.32762052782611" lon="7.792916940465038"><ele>543.2</ele><time>2026-04-10T13:35:47.999Z</time></trkpt><trkpt lat="44.32766583259456" lon="7.792798379978772"><ele>542.6</ele><time>2026-04-10T13:35:48.999Z</time></trkpt><trkpt lat="44.32771547519612" lon="7.792671662905742"><ele>542.0</ele><time>2026-04-10T13:35:49.999Z</time></trkpt><trkpt lat="44.32777080342417" lon="7.792541980858669"><ele>541.2</ele><time>2026-04-10T13:35:50.999Z</time></trkpt><trkpt lat="44.32782575429131" lon="7.7924382033164905"><ele>540.4000000000001</ele><time>2026-04-10T13:35:51.999Z</time></trkpt><trkpt lat="44.327879827424645" lon="7.792330075639943"><ele>539.5999999999999</ele><time>2026-04-10T13:35:52.999Z</time></trkpt><trkpt lat="44.327937232277236" lon="7.792195020535908"><ele>538.8</ele><time>2026-04-10T13:35:53.999Z</time></trkpt><trkpt lat="44.32799797711854" lon="7.792034260292735"><ele>538.0</ele><time>2026-04-10T13:35:54.999Z</time></trkpt><trkpt lat="44.32805465009979" lon="7.791899797997728"><ele>537.5</ele><time>2026-04-10T13:35:55.999Z</time></trkpt><trkpt lat="44.32811309096894" lon="7.7917425295087615"><ele>537.0</ele><time>2026-04-10T13:35:56.999Z</time></trkpt><trkpt lat="44.32816112423111" lon="7.79159479450512"><ele>536.5</ele><time>2026-04-10T13:35:57.999Z</time></trkpt><trkpt lat="44.32822236722801" lon="7.791461020040934"><ele>536.0</ele><time>2026-04-10T13:35:58.999Z</time></trkpt><trkpt lat="44.32828065182048" lon="7.791329836891093"><ele>536.0</ele><time>2026-04-10T13:35:59.999Z</time></trkpt><trkpt lat="44.328333939590316" lon="7.7911965721012955"><ele>536.0</ele><time>2026-04-10T13:36:00.999Z</time></trkpt><trkpt lat="44.328398019772095" lon="7.791055234080888"><ele>536.0</ele><time>2026-04-10T13:36:01.999Z</time></trkpt><trkpt lat="44.32845034554267" lon="7.790913820791915"><ele>536.0</ele><time>2026-04-10T13:36:02.999Z</time></trkpt><trkpt lat="44.328501440538204" lon="7.790782628172636"><ele>535.8</ele><time>2026-04-10T13:36:04Z</time></trkpt><trkpt lat="44.32854581159834" lon="7.790638259930002"><ele>535.6</ele><time>2026-04-10T13:36:05Z</time></trkpt><trkpt lat="44.3285796671883" lon="7.790492101705495"><ele>535.4</ele><time>2026-04-10T13:36:06Z</time></trkpt><trkpt lat="44.328600848193446" lon="7.790339941853286"><ele>535.2</ele><time>2026-04-10T13:36:07Z</time></trkpt><trkpt lat="44.32861166069471" lon="7.7901858016147"><ele>535.0</ele><time>2026-04-10T13:36:08Z</time></trkpt><trkpt lat="44.328633024679476" lon="7.790014524789463"><ele>534.5</ele><time>2026-04-10T13:36:09Z</time></trkpt><trkpt lat="44.32863746261924" lon="7.789826573519996"><ele>534.0</ele><time>2026-04-10T13:36:10Z</time></trkpt><trkpt lat="44.32863177913926" lon="7.789658024254474"><ele>533.5</ele><time>2026-04-10T13:36:11Z</time></trkpt><trkpt lat="44.32863174160407" lon="7.789499135642214"><ele>533.0</ele><time>2026-04-10T13:36:12Z</time></trkpt><trkpt lat="44.32862861609873" lon="7.789366891953228"><ele>534.8</ele><time>2026-04-10T13:36:13Z</time></trkpt><trkpt lat="44.32863897491258" lon="7.7892400443576895"><ele>536.5999999999999</ele><time>2026-04-10T13:36:14Z</time></trkpt><trkpt lat="44.32866951238922" lon="7.789112693293648"><ele>538.4000000000001</ele><time>2026-04-10T13:36:15Z</time></trkpt><trkpt lat="44.32870594026207" lon="7.788981747119257"><ele>540.2</ele><time>2026-04-10T13:36:16Z</time></trkpt><trkpt lat="44.32876658003104" lon="7.788838949991517"><ele>542.0</ele><time>2026-04-10T13:36:17Z</time></trkpt><trkpt lat="44.32883017173714" lon="7.788689466200867"><ele>542.0</ele><time>2026-04-10T13:36:18Z</time></trkpt><trkpt lat="44.32888854450771" lon="7.788527255147526"><ele>542.0</ele><time>2026-04-10T13:36:19Z</time></trkpt><trkpt lat="44.32895101706135" lon="7.788364973410006"><ele>542.0</ele><time>2026-04-10T13:36:20Z</time></trkpt><trkpt lat="44.32900740723974" lon="7.788225554519264"><ele>542.0</ele><time>2026-04-10T13:36:21Z</time></trkpt><trkpt lat="44.32905690341692" lon="7.788077018431343"><ele>543.0</ele><time>2026-04-10T13:36:22Z</time></trkpt><trkpt lat="44.32913332070304" lon="7.7879196222487375"><ele>544.0</ele><time>2026-04-10T13:36:23Z</time></trkpt><trkpt lat="44.3292040081843" lon="7.787773162353095"><ele>545.0</ele><time>2026-04-10T13:36:24Z</time></trkpt><trkpt lat="44.32928747284986" lon="7.787628814849066"><ele>546.0</ele><time>2026-04-10T13:36:25Z</time></trkpt><trkpt lat="44.32939070965064" lon="7.787483974684464"><ele>546.0</ele><time>2026-04-10T13:36:26Z</time></trkpt><trkpt lat="44.32950149786908" lon="7.787328487792502"><ele>546.0</ele><time>2026-04-10T13:36:27Z</time></trkpt><trkpt lat="44.329623058876926" lon="7.787158197456898"><ele>546.0</ele><time>2026-04-10T13:36:28Z</time></trkpt><trkpt lat="44.329743843488835" lon="7.786994624457049"><ele>540.6666666666666</ele><time>2026-04-10T13:36:29Z</time></trkpt><trkpt lat="44.32986260402776" lon="7.786837847857889"><ele>535.3333333333333</ele><time>2026-04-10T13:36:30Z</time></trkpt><trkpt lat="44.330002902477155" lon="7.786685253599985"><ele>530.0</ele><time>2026-04-10T13:36:31Z</time></trkpt><trkpt lat="44.33014524304846" lon="7.786539086721061"><ele>530.0</ele><time>2026-04-10T13:36:32Z</time></trkpt><trkpt lat="44.33029068889076" lon="7.786410172380851"><ele>530.0</ele><time>2026-04-10T13:36:33Z</time></trkpt><trkpt lat="44.330434489027276" lon="7.786316325320605"><ele>530.0</ele><time>2026-04-10T13:36:34Z</time></trkpt><trkpt lat="44.330560971081304" lon="7.78622932933694"><ele>529.3333333333333</ele><time>2026-04-10T13:36:35Z</time></trkpt><trkpt lat="44.33070109082613" lon="7.786135246367917"><ele>528.6666666666666</ele><time>2026-04-10T13:36:36Z</time></trkpt><trkpt lat="44.33083617332079" lon="7.786042597677527"><ele>528.0</ele><time>2026-04-10T13:36:37Z</time></trkpt><trkpt lat="44.330969058988856" lon="7.785930908637554"><ele>528.0</ele><time>2026-04-10T13:36:38Z</time></trkpt><trkpt lat="44.33110459421805" lon="7.785850208679868"><ele>528.0</ele><time>2026-04-10T13:36:39Z</time></trkpt><trkpt lat="44.33121369234814" lon="7.785774833791439"><ele>528.0</ele><time>2026-04-10T13:36:40Z</time></trkpt><trkpt lat="44.33132863670192" lon="7.7856888899354555"><ele>528.0</ele><time>2026-04-10T13:36:41Z</time></trkpt><trkpt lat="44.33144882101737" lon="7.785598437553835"><ele>526.25</ele><time>2026-04-10T13:36:42Z</time></trkpt><trkpt lat="44.331573970074516" lon="7.785510539469616"><ele>524.5</ele><time>2026-04-10T13:36:43Z</time></trkpt><trkpt lat="44.33169567425069" lon="7.785421249610358"><ele>522.75</ele><time>2026-04-10T13:36:44Z</time></trkpt><trkpt lat="44.331807663453056" lon="7.785330278504548"><ele>521.0</ele><time>2026-04-10T13:36:45Z</time></trkpt><trkpt lat="44.33191995102109" lon="7.785242469584463"><ele>521.5</ele><time>2026-04-10T13:36:46Z</time></trkpt><trkpt lat="44.33204497047231" lon="7.78515784590767"><ele>522.0</ele><time>2026-04-10T13:36:47Z</time></trkpt><trkpt lat="44.33214846762127" lon="7.785051711587608"><ele>522.5</ele><time>2026-04-10T13:36:48Z</time></trkpt><trkpt lat="44.33224874436923" lon="7.784931204437797"><ele>523.0</ele><time>2026-04-10T13:36:49Z</time></trkpt><trkpt lat="44.33234577534324" lon="7.784787712704877"><ele>522.5</ele><time>2026-04-10T13:36:50Z</time></trkpt><trkpt lat="44.332447935879486" lon="7.784640523692562"><ele>522.0</ele><time>2026-04-10T13:36:51Z</time></trkpt><trkpt lat="44.332551925695384" lon="7.784478529057021"><ele>521.5</ele><time>2026-04-10T13:36:52Z</time></trkpt><trkpt lat="44.33264677341084" lon="7.784325831865867"><ele>521.0</ele><time>2026-04-10T13:36:53Z</time></trkpt><trkpt lat="44.33272365622884" lon="7.784167843327131"><ele>521.0</ele><time>2026-04-10T13:36:54Z</time></trkpt><trkpt lat="44.33280026901011" lon="7.784028869461185"><ele>521.0</ele><time>2026-04-10T13:36:55Z</time></trkpt><trkpt lat="44.33290750222401" lon="7.783882888956007"><ele>521.0</ele><time>2026-04-10T13:36:56Z</time></trkpt><trkpt lat="44.33299066709159" lon="7.783746368758092"><ele>521.0</ele><time>2026-04-10T13:36:57Z</time></trkpt><trkpt lat="44.33307336059237" lon="7.783614722674761"><ele>520.25</ele><time>2026-04-10T13:36:57.999Z</time></trkpt><trkpt lat="44.33315252829189" lon="7.783490546936141"><ele>519.5</ele><time>2026-04-10T13:36:58.999Z</time></trkpt><trkpt lat="44.333230851093" lon="7.783370622600339"><ele>518.75</ele><time>2026-04-10T13:36:59.999Z</time></trkpt><trkpt lat="44.33331561346059" lon="7.783245489644936"><ele>518.0</ele><time>2026-04-10T13:37:00.999Z</time></trkpt><trkpt lat="44.333392130211266" lon="7.783130671628976"><ele>518.0</ele><time>2026-04-10T13:37:01.999Z</time></trkpt><trkpt lat="44.333474492248044" lon="7.783012245275277"><ele>518.0</ele><time>2026-04-10T13:37:02.999Z</time></trkpt><trkpt lat="44.33356424468935" lon="7.7828960679501815"><ele>518.0</ele><time>2026-04-10T13:37:03.999Z</time></trkpt><trkpt lat="44.333649038325795" lon="7.782786858136406"><ele>518.0</ele><time>2026-04-10T13:37:04.999Z</time></trkpt><trkpt lat="44.33373201736612" lon="7.782682099056359"><ele>517.25</ele><time>2026-04-10T13:37:05.999Z</time></trkpt><trkpt lat="44.33381574914456" lon="7.782578426996063"><ele>516.5</ele><time>2026-04-10T13:37:06.999Z</time></trkpt><trkpt lat="44.33390265756254" lon="7.782478052126376"><ele>515.75</ele><time>2026-04-10T13:37:07.999Z</time></trkpt><trkpt lat="44.333993422569144" lon="7.7823805919305"><ele>515.0</ele><time>2026-04-10T13:37:08.999Z</time></trkpt><trkpt lat="44.33408881481734" lon="7.78227711631868"><ele>515.0</ele><time>2026-04-10T13:37:09.999Z</time></trkpt><trkpt lat="44.33418359502186" lon="7.7821726594955"><ele>515.0</ele><time>2026-04-10T13:37:10.999Z</time></trkpt><trkpt lat="44.33427184988852" lon="7.782070873861757"><ele>515.0</ele><time>2026-04-10T13:37:11.999Z</time></trkpt><trkpt lat="44.33436763214285" lon="7.78196767681309"><ele>515.0</ele><time>2026-04-10T13:37:12.999Z</time></trkpt><trkpt lat="44.33445446711409" lon="7.781849087974298"><ele>514.25</ele><time>2026-04-10T13:37:13.999Z</time></trkpt><trkpt lat="44.3345367408513" lon="7.781725990577545"><ele>513.5</ele><time>2026-04-10T13:37:14.999Z</time></trkpt><trkpt lat="44.33462051824869" lon="7.781610272644847"><ele>512.75</ele><time>2026-04-10T13:37:15.999Z</time></trkpt><trkpt lat="44.3347017468048" lon="7.781486303988914"><ele>512.0</ele><time>2026-04-10T13:37:16.999Z</time></trkpt><trkpt lat="44.33478351832081" lon="7.78137483476127"><ele>512.0</ele><time>2026-04-10T13:37:17.999Z</time></trkpt><trkpt lat="44.334871106783275" lon="7.781267063018688"><ele>512.0</ele><time>2026-04-10T13:37:18.999Z</time></trkpt><trkpt lat="44.33497014314231" lon="7.781169198270134"><ele>512.0</ele><time>2026-04-10T13:37:19.999Z</time></trkpt><trkpt lat="44.33506384226144" lon="7.781086359580682"><ele>512.0</ele><time>2026-04-10T13:37:20.999Z</time></trkpt><trkpt lat="44.335163555508" lon="7.781005648910318"><ele>512.0</ele><time>2026-04-10T13:37:21.999Z</time></trkpt><trkpt lat="44.335264734727026" lon="7.780936314050849"><ele>512.0</ele><time>2026-04-10T13:37:22.999Z</time></trkpt><trkpt lat="44.33536891204217" lon="7.780874139151659"><ele>512.0</ele><time>2026-04-10T13:37:23.999Z</time></trkpt><trkpt lat="44.335471956430915" lon="7.780814332487995"><ele>512.0</ele><time>2026-04-10T13:37:24.999Z</time></trkpt><trkpt lat="44.33557466748017" lon="7.780750323255352"><ele>512.0</ele><time>2026-04-10T13:37:25.999Z</time></trkpt><trkpt lat="44.33567905844277" lon="7.780691783731563"><ele>512.0</ele><time>2026-04-10T13:37:26.999Z</time></trkpt><trkpt lat="44.33577155603104" lon="7.780630356313659"><ele>512.0</ele><time>2026-04-10T13:37:27.999Z</time></trkpt><trkpt lat="44.335879563588136" lon="7.780568247311592"><ele>512.0</ele><time>2026-04-10T13:37:28.999Z</time></trkpt><trkpt lat="44.33598197040582" lon="7.780508455046449"><ele>512.0</ele><time>2026-04-10T13:37:29.999Z</time></trkpt><trkpt lat="44.33608572318377" lon="7.780442432313421"><ele>512.0</ele><time>2026-04-10T13:37:30.999Z</time></trkpt><trkpt lat="44.33619162771531" lon="7.78038468244091"><ele>512.0</ele><time>2026-04-10T13:37:31.999Z</time></trkpt><trkpt lat="44.33629599505265" lon="7.780333256618299"><ele>512.0</ele><time>2026-04-10T13:37:32.999Z</time></trkpt><trkpt lat="44.3363960079113" lon="7.780282200277751"><ele>512.0</ele><time>2026-04-10T13:37:33.999Z</time></trkpt><trkpt lat="44.33650437022603" lon="7.780228465883031"><ele>512.0</ele><time>2026-04-10T13:37:34.999Z</time></trkpt><trkpt lat="44.336609685097294" lon="7.780176123690198"><ele>512.0</ele><time>2026-04-10T13:37:35.999Z</time></trkpt><trkpt lat="44.33670950810065" lon="7.780128143937338"><ele>512.0</ele><time>2026-04-10T13:37:36.999Z</time></trkpt><trkpt lat="44.33681221310175" lon="7.780081934394019"><ele>512.0</ele><time>2026-04-10T13:37:37.999Z</time></trkpt><trkpt lat="44.336921521282385" lon="7.7800367264970545"><ele>512.0</ele><time>2026-04-10T13:37:38.999Z</time></trkpt><trkpt lat="44.33702290213423" lon="7.77999637265535"><ele>512.0</ele><time>2026-04-10T13:37:39.999Z</time></trkpt><trkpt lat="44.3371174439946" lon="7.779955683451917"><ele>510.8</ele><time>2026-04-10T13:37:40.999Z</time></trkpt><trkpt lat="44.33722383124616" lon="7.779911527963884"><ele>509.6</ele><time>2026-04-10T13:37:41.999Z</time></trkpt><trkpt lat="44.33732040859587" lon="7.779866480084314"><ele>508.40000000000003</ele><time>2026-04-10T13:37:42.999Z</time></trkpt><trkpt lat="44.337411959633236" lon="7.779816026794757"><ele>507.20000000000005</ele><time>2026-04-10T13:37:43.999Z</time></trkpt><trkpt lat="44.3375096299976" lon="7.779761199057355"><ele>506.0</ele><time>2026-04-10T13:37:44.999Z</time></trkpt><trkpt lat="44.33760810616635" lon="7.779703019027642"><ele>506.0</ele><time>2026-04-10T13:37:45.999Z</time></trkpt><trkpt lat="44.33771273289256" lon="7.779639601834802"><ele>506.0</ele><time>2026-04-10T13:37:46.999Z</time></trkpt><trkpt lat="44.33781548364413" lon="7.779573207773009"><ele>506.0</ele><time>2026-04-10T13:37:47.999Z</time></trkpt><trkpt lat="44.337908750906216" lon="7.779503435501158"><ele>506.0</ele><time>2026-04-10T13:37:48.999Z</time></trkpt><trkpt lat="44.337999231681415" lon="7.779432723948861"><ele>506.0</ele><time>2026-04-10T13:37:49.999Z</time></trkpt><trkpt lat="44.33809370736518" lon="7.779364056422085"><ele>505.20000000000005</ele><time>2026-04-10T13:37:50.999Z</time></trkpt><trkpt lat="44.33817759042824" lon="7.779286706031777"><ele>504.40000000000003</ele><time>2026-04-10T13:37:51.999Z</time></trkpt><trkpt lat="44.33827016232938" lon="7.779207516727531"><ele>503.6</ele><time>2026-04-10T13:37:52.999Z</time></trkpt><trkpt lat="44.3383643031717" lon="7.77912932049713"><ele>502.8</ele><time>2026-04-10T13:37:53.999Z</time></trkpt><trkpt lat="44.33846484469631" lon="7.7790511071410045"><ele>502.0</ele><time>2026-04-10T13:37:54.999Z</time></trkpt><trkpt lat="44.3385592243637" lon="7.778973038261657"><ele>502.0</ele><time>2026-04-10T13:37:55.999Z</time></trkpt><trkpt lat="44.338661202296585" lon="7.77889931710034"><ele>502.0</ele><time>2026-04-10T13:37:56.999Z</time></trkpt><trkpt lat="44.33875844656866" lon="7.778812967225032"><ele>502.0</ele><time>2026-04-10T13:37:57.999Z</time></trkpt><trkpt lat="44.33885905625111" lon="7.778736904562288"><ele>502.0</ele><time>2026-04-10T13:37:58.999Z</time></trkpt><trkpt lat="44.33896183890747" lon="7.778665655641699"><ele>500.8</ele><time>2026-04-10T13:37:59.999Z</time></trkpt><trkpt lat="44.33905684784726" lon="7.778594210818542"><ele>499.6</ele><time>2026-04-10T13:38:00.999Z</time></trkpt><trkpt lat="44.33915197029514" lon="7.778525675139674"><ele>498.40000000000003</ele><time>2026-04-10T13:38:01.999Z</time></trkpt><trkpt lat="44.33924261807068" lon="7.778458979845587"><ele>497.20000000000005</ele><time>2026-04-10T13:38:02.999Z</time></trkpt><trkpt lat="44.33933018260695" lon="7.778396208613431"><ele>496.0</ele><time>2026-04-10T13:38:03.999Z</time></trkpt><trkpt lat="44.33941368191034" lon="7.778346606247104"><ele>495.50000000000006</ele><time>2026-04-10T13:38:04.999Z</time></trkpt><trkpt lat="44.33948992928016" lon="7.778308386343146"><ele>495.0</ele><time>2026-04-10T13:38:05.999Z</time></trkpt><trkpt lat="44.3395646880698" lon="7.778285815447015"><ele>494.5</ele><time>2026-04-10T13:38:06.999Z</time></trkpt><trkpt lat="44.339642577633825" lon="7.778281887794385"><ele>494.0</ele><time>2026-04-10T13:38:07.998Z</time></trkpt><trkpt lat="44.339720401470835" lon="7.778291770266481"><ele>493.50000000000006</ele><time>2026-04-10T13:38:08.998Z</time></trkpt><trkpt lat="44.33979246256963" lon="7.778303719923622"><ele>493.0</ele><time>2026-04-10T13:38:10Z</time></trkpt><trkpt lat="44.339858973905834" lon="7.778295029282294"><ele>492.79999999999995</ele><time>2026-04-10T13:38:11Z</time></trkpt><trkpt lat="44.33996003656515" lon="7.778222287993534"><ele>492.59999999999997</ele><time>2026-04-10T13:38:13Z</time></trkpt><trkpt lat="44.3399935937916" lon="7.778085620247701"><ele>492.40000000000003</ele><time>2026-04-10T13:38:15Z</time></trkpt><trkpt lat="44.33992026538765" lon="7.777949731657849"><ele>492.20000000000005</ele><time>2026-04-10T13:38:17Z</time></trkpt><trkpt lat="44.339858418094565" lon="7.77791555127757"><ele>492.0</ele><time>2026-04-10T13:38:18Z</time></trkpt><trkpt lat="44.33978019582543" lon="7.777887813976447"><ele>492.20000000000005</ele><time>2026-04-10T13:38:19Z</time></trkpt><trkpt lat="44.33970413577009" lon="7.777827756191145"><ele>492.40000000000003</ele><time>2026-04-10T13:38:20Z</time></trkpt><trkpt lat="44.33963917480963" lon="7.777730912217224"><ele>492.59999999999997</ele><time>2026-04-10T13:38:21Z</time></trkpt><trkpt lat="44.33956709648922" lon="7.777621934822194"><ele>492.79999999999995</ele><time>2026-04-10T13:38:22Z</time></trkpt><trkpt lat="44.33949185106907" lon="7.777490103899364"><ele>493.0</ele><time>2026-04-10T13:38:23Z</time></trkpt><trkpt lat="44.33942262218963" lon="7.777329854626812"><ele>493.0</ele><time>2026-04-10T13:38:24Z</time></trkpt><trkpt lat="44.339374608403" lon="7.77718061037974"><ele>493.0</ele><time>2026-04-10T13:38:25Z</time></trkpt><trkpt lat="44.33932911327932" lon="7.777042354416421"><ele>493.0</ele><time>2026-04-10T13:38:26Z</time></trkpt><trkpt lat="44.339287308972054" lon="7.776897944497697"><ele>493.0</ele><time>2026-04-10T13:38:27Z</time></trkpt><trkpt lat="44.33924689735799" lon="7.776725611830648"><ele>493.25</ele><time>2026-04-10T13:38:28Z</time></trkpt><trkpt lat="44.339191177064215" lon="7.776579187187131"><ele>493.5</ele><time>2026-04-10T13:38:29Z</time></trkpt><trkpt lat="44.33913831375581" lon="7.776417834493922"><ele>493.75</ele><time>2026-04-10T13:38:30Z</time></trkpt><trkpt lat="44.339084991707786" lon="7.776281268297204"><ele>494.0</ele><time>2026-04-10T13:38:31Z</time></trkpt><trkpt lat="44.339038861019255" lon="7.776159340888065"><ele>494.0</ele><time>2026-04-10T13:38:32Z</time></trkpt><trkpt lat="44.33899993303266" lon="7.7760372488500575"><ele>494.0</ele><time>2026-04-10T13:38:33Z</time></trkpt><trkpt lat="44.33896364647178" lon="7.7759161161975445"><ele>494.0</ele><time>2026-04-10T13:38:34Z</time></trkpt><trkpt lat="44.33891716790654" lon="7.775798946113999"><ele>494.0</ele><time>2026-04-10T13:38:35Z</time></trkpt><trkpt lat="44.33885986991499" lon="7.775678063623631"><ele>494.0</ele><time>2026-04-10T13:38:36Z</time></trkpt><trkpt lat="44.33877684173754" lon="7.775576377672601"><ele>494.5</ele><time>2026-04-10T13:38:37Z</time></trkpt><trkpt lat="44.3386721771461" lon="7.775487039698753"><ele>495.0</ele><time>2026-04-10T13:38:38Z</time></trkpt><trkpt lat="44.33855234900953" lon="7.775407982712029"><ele>495.5</ele><time>2026-04-10T13:38:39Z</time></trkpt><trkpt lat="44.33843295998787" lon="7.775341486890991"><ele>496.0</ele><time>2026-04-10T13:38:40Z</time></trkpt><trkpt lat="44.338297986008314" lon="7.7752745194626876"><ele>496.0</ele><time>2026-04-10T13:38:41Z</time></trkpt><trkpt lat="44.33816285510442" lon="7.775196265285277"><ele>496.0</ele><time>2026-04-10T13:38:42Z</time></trkpt><trkpt lat="44.3380235409562" lon="7.775118531730792"><ele>496.0</ele><time>2026-04-10T13:38:43Z</time></trkpt><trkpt lat="44.3378871786652" lon="7.7750435888407115"><ele>496.0</ele><time>2026-04-10T13:38:44Z</time></trkpt><trkpt lat="44.33774089977281" lon="7.774942231833494"><ele>497.5</ele><time>2026-04-10T13:38:45Z</time></trkpt><trkpt lat="44.33761543719427" lon="7.774865363766531"><ele>499.0</ele><time>2026-04-10T13:38:46Z</time></trkpt><trkpt lat="44.3375060166877" lon="7.774805600616054"><ele>500.5</ele><time>2026-04-10T13:38:47Z</time></trkpt><trkpt lat="44.337398414519036" lon="7.7747490356295"><ele>502.0</ele><time>2026-04-10T13:38:48Z</time></trkpt><trkpt lat="44.337299389618614" lon="7.77470386892083"><ele>503.1666666666667</ele><time>2026-04-10T13:38:49Z</time></trkpt><trkpt lat="44.337218203457304" lon="7.774667334367619"><ele>504.33333333333337</ele><time>2026-04-10T13:38:50Z</time></trkpt><trkpt lat="44.33713944577458" lon="7.774624117533195"><ele>505.5</ele><time>2026-04-10T13:38:51Z</time></trkpt><trkpt lat="44.33707240686669" lon="7.774593017345813"><ele>506.66666666666663</ele><time>2026-04-10T13:38:52Z</time></trkpt><trkpt lat="44.337003615241436" lon="7.7745623894336875"><ele>507.8333333333333</ele><time>2026-04-10T13:38:53Z</time></trkpt><trkpt lat="44.33690652885266" lon="7.7745569713939755"><ele>509.0</ele><time>2026-04-10T13:38:55Z</time></trkpt><trkpt lat="44.33678920899826" lon="7.77463099623155"><ele>509.0</ele><time>2026-04-10T13:38:57Z</time></trkpt><trkpt lat="44.336751302534644" lon="7.774725660770405"><ele>509.0</ele><time>2026-04-10T13:38:58Z</time></trkpt><trkpt lat="44.33668204130604" lon="7.7748333040641295"><ele>509.0</ele><time>2026-04-10T13:39:00Z</time></trkpt><trkpt lat="44.336578921626696" lon="7.774772850388299"><ele>509.0</ele><time>2026-04-10T13:39:02Z</time></trkpt><trkpt lat="44.33654770749001" lon="7.774663069709262"><ele>509.0</ele><time>2026-04-10T13:39:02.999Z</time></trkpt><trkpt lat="44.33646270512409" lon="7.774540148716369"><ele>510.25</ele><time>2026-04-10T13:39:03.999Z</time></trkpt><trkpt lat="44.336359402453134" lon="7.7744895380390515"><ele>511.5</ele><time>2026-04-10T13:39:04.999Z</time></trkpt><trkpt lat="44.33623821080209" lon="7.774413945742798"><ele>512.75</ele><time>2026-04-10T13:39:05.999Z</time></trkpt><trkpt lat="44.33611178271416" lon="7.774370999793372"><ele>514.0</ele><time>2026-04-10T13:39:06.999Z</time></trkpt><trkpt lat="44.335987536557845" lon="7.7743252024305365"><ele>514.0</ele><time>2026-04-10T13:39:07.999Z</time></trkpt><trkpt lat="44.33585784630615" lon="7.774242342563737"><ele>514.0</ele><time>2026-04-10T13:39:08.999Z</time></trkpt><trkpt lat="44.3357270472449" lon="7.7741306422364485"><ele>514.0</ele><time>2026-04-10T13:39:09.999Z</time></trkpt><trkpt lat="44.33561172248427" lon="7.774017782562318"><ele>514.0</ele><time>2026-04-10T13:39:10.999Z</time></trkpt><trkpt lat="44.33549603083633" lon="7.7738844747138245"><ele>516.75</ele><time>2026-04-10T13:39:11.999Z</time></trkpt><trkpt lat="44.33539514240461" lon="7.773743410462484"><ele>519.5</ele><time>2026-04-10T13:39:12.999Z</time></trkpt><trkpt lat="44.33530704682113" lon="7.773611677767757"><ele>522.25</ele><time>2026-04-10T13:39:13.999Z</time></trkpt><trkpt lat="44.33522247343848" lon="7.773466142746201"><ele>525.0</ele><time>2026-04-10T13:39:14.999Z</time></trkpt><trkpt lat="44.33514429007665" lon="7.77330293089967"><ele>525.0</ele><time>2026-04-10T13:39:15.999Z</time></trkpt><trkpt lat="44.33507315503534" lon="7.773141845049858"><ele>525.0</ele><time>2026-04-10T13:39:16.999Z</time></trkpt><trkpt lat="44.3349984175193" lon="7.772944466790214"><ele>525.0</ele><time>2026-04-10T13:39:17.999Z</time></trkpt><trkpt lat="44.334925539699704" lon="7.772741032129782"><ele>522.3333333333334</ele><time>2026-04-10T13:39:18.999Z</time></trkpt><trkpt lat="44.33485293975833" lon="7.772524570928489"><ele>519.6666666666667</ele><time>2026-04-10T13:39:19.999Z</time></trkpt><trkpt lat="44.33477569875455" lon="7.772341260283117"><ele>517.0</ele><time>2026-04-10T13:39:20.999Z</time></trkpt><trkpt lat="44.3347007449882" lon="7.772136576124848"><ele>521.0</ele><time>2026-04-10T13:39:21.999Z</time></trkpt><trkpt lat="44.3346242354366" lon="7.7719181450015675"><ele>525.0</ele><time>2026-04-10T13:39:22.999Z</time></trkpt><trkpt lat="44.33454074830811" lon="7.771721949304743"><ele>529.0</ele><time>2026-04-10T13:39:23.999Z</time></trkpt><trkpt lat="44.334451743047936" lon="7.7715012516512525"><ele>529.0</ele><time>2026-04-10T13:39:24.999Z</time></trkpt><trkpt lat="44.33435487946994" lon="7.771301328826712"><ele>529.0</ele><time>2026-04-10T13:39:25.999Z</time></trkpt><trkpt lat="44.33426622928317" lon="7.771115752535167"><ele>529.0</ele><time>2026-04-10T13:39:26.999Z</time></trkpt><trkpt lat="44.33420268341992" lon="7.770941459372337"><ele>526.5</ele><time>2026-04-10T13:39:27.999Z</time></trkpt><trkpt lat="44.334142235216895" lon="7.770786611561543"><ele>524.0</ele><time>2026-04-10T13:39:28.999Z</time></trkpt><trkpt lat="44.33409505447363" lon="7.770633466962728"><ele>521.5</ele><time>2026-04-10T13:39:29.999Z</time></trkpt><trkpt lat="44.33405157277175" lon="7.770494404776129"><ele>519.0</ele><time>2026-04-10T13:39:30.999Z</time></trkpt><trkpt lat="44.33401820100407" lon="7.7703595035487325"><ele>519.0</ele><time>2026-04-10T13:39:31.999Z</time></trkpt><trkpt lat="44.33398411854335" lon="7.770234134645517"><ele>519.0</ele><time>2026-04-10T13:39:32.999Z</time></trkpt><trkpt lat="44.33394967697086" lon="7.770105309417266"><ele>519.0</ele><time>2026-04-10T13:39:33.999Z</time></trkpt><trkpt lat="44.33391243294436" lon="7.769975499164699"><ele>519.0</ele><time>2026-04-10T13:39:34.999Z</time></trkpt><trkpt lat="44.33385728406375" lon="7.769877373792899"><ele>519.0</ele><time>2026-04-10T13:39:35.999Z</time></trkpt><trkpt lat="44.3337871080094" lon="7.769804331277968"><ele>521.5</ele><time>2026-04-10T13:39:36.999Z</time></trkpt><trkpt lat="44.333695393429394" lon="7.7697452517253325"><ele>524.0</ele><time>2026-04-10T13:39:37.999Z</time></trkpt><trkpt lat="44.333587244943" lon="7.7697203116486735"><ele>526.5</ele><time>2026-04-10T13:39:38.999Z</time></trkpt><trkpt lat="44.3334691664369" lon="7.769690210600855"><ele>529.0</ele><time>2026-04-10T13:39:39.999Z</time></trkpt><trkpt lat="44.33333482667883" lon="7.769649913508621"><ele>529.0</ele><time>2026-04-10T13:39:40.999Z</time></trkpt><trkpt lat="44.33319731211046" lon="7.76960592267686"><ele>529.0</ele><time>2026-04-10T13:39:41.999Z</time></trkpt><trkpt lat="44.33306545431453" lon="7.7695606698068636"><ele>529.0</ele><time>2026-04-10T13:39:42.999Z</time></trkpt><trkpt lat="44.33294314400951" lon="7.769514402682623"><ele>529.0</ele><time>2026-04-10T13:39:43.999Z</time></trkpt><trkpt lat="44.332830974891884" lon="7.769501148755951"><ele>529.0</ele><time>2026-04-10T13:39:44.999Z</time></trkpt><trkpt lat="44.33272814326827" lon="7.769497726538143"><ele>529.0</ele><time>2026-04-10T13:39:45.999Z</time></trkpt><trkpt lat="44.332648559810735" lon="7.769497820934262"><ele>529.0</ele><time>2026-04-10T13:39:46.999Z</time></trkpt><trkpt lat="44.33258943454125" lon="7.769465397766304"><ele>529.0</ele><time>2026-04-10T13:39:47.999Z</time></trkpt><trkpt lat="44.332493561537945" lon="7.769389565838064"><ele>529.0</ele><time>2026-04-10T13:39:49.999Z</time></trkpt><trkpt lat="44.33247837217436" lon="7.769283528879603"><ele>529.0</ele><time>2026-04-10T13:39:50.999Z</time></trkpt><trkpt lat="44.33247699066653" lon="7.769169689887168"><ele>527.8</ele><time>2026-04-10T13:39:51.999Z</time></trkpt><trkpt lat="44.33248452063519" lon="7.769042221436954"><ele>526.5999999999999</ele><time>2026-04-10T13:39:52.999Z</time></trkpt><trkpt lat="44.33251464660167" lon="7.768907054406601"><ele>525.4</ele><time>2026-04-10T13:39:53.999Z</time></trkpt><trkpt lat="44.33255428138009" lon="7.768784512886657"><ele>524.1999999999999</ele><time>2026-04-10T13:39:54.999Z</time></trkpt><trkpt lat="44.33263944807165" lon="7.768679046242844"><ele>523.0</ele><time>2026-04-10T13:39:55.999Z</time></trkpt><trkpt lat="44.33274782180988" lon="7.768592048157282"><ele>522.0</ele><time>2026-04-10T13:39:56.999Z</time></trkpt><trkpt lat="44.332861404822395" lon="7.768508043833087"><ele>521.0</ele><time>2026-04-10T13:39:57.999Z</time></trkpt><trkpt lat="44.332973814683676" lon="7.768413826399719"><ele>520.0</ele><time>2026-04-10T13:39:58.999Z</time></trkpt><trkpt lat="44.333063162937265" lon="7.768325623309546"><ele>519.0</ele><time>2026-04-10T13:39:59.999Z</time></trkpt><trkpt lat="44.333136159655176" lon="7.768225783291479"><ele>519.0</ele><time>2026-04-10T13:40:00.999Z</time></trkpt><trkpt lat="44.333209222576926" lon="7.768122711643094"><ele>519.0</ele><time>2026-04-10T13:40:01.999Z</time></trkpt><trkpt lat="44.333284818728934" lon="7.767981064380184"><ele>519.0</ele><time>2026-04-10T13:40:02.999Z</time></trkpt><trkpt lat="44.3333485759602" lon="7.767809785808621"><ele>519.0</ele><time>2026-04-10T13:40:03.999Z</time></trkpt><trkpt lat="44.33341402743138" lon="7.767640090077035"><ele>522.0</ele><time>2026-04-10T13:40:04.999Z</time></trkpt><trkpt lat="44.33348102058442" lon="7.767455675201595"><ele>525.0</ele><time>2026-04-10T13:40:05.999Z</time></trkpt><trkpt lat="44.33354954934703" lon="7.767291579296455"><ele>528.0</ele><time>2026-04-10T13:40:06.999Z</time></trkpt><trkpt lat="44.33360846824616" lon="7.767136879042915"><ele>531.0</ele><time>2026-04-10T13:40:07.999Z</time></trkpt><trkpt lat="44.33365775596277" lon="7.76698275786983"><ele>534.8</ele><time>2026-04-10T13:40:08.999Z</time></trkpt><trkpt lat="44.3337003600394" lon="7.7668296912403525"><ele>538.6</ele><time>2026-04-10T13:40:09.999Z</time></trkpt><trkpt lat="44.333739862237884" lon="7.7666835386097155"><ele>542.4</ele><time>2026-04-10T13:40:10.998Z</time></trkpt><trkpt lat="44.33377828431439" lon="7.766551668784569"><ele>546.2</ele><time>2026-04-10T13:40:11.998Z</time></trkpt><trkpt lat="44.33380201085369" lon="7.766421091704962"><ele>550.0</ele><time>2026-04-10T13:40:12.998Z</time></trkpt><trkpt lat="44.33381850355372" lon="7.766268354924064"><ele>550.0</ele><time>2026-04-10T13:40:13.998Z</time></trkpt><trkpt lat="44.33381502932114" lon="7.766109531825527"><ele>550.0</ele><time>2026-04-10T13:40:14.998Z</time></trkpt><trkpt lat="44.333796319469954" lon="7.765954293081524"><ele>550.0</ele><time>2026-04-10T13:40:16Z</time></trkpt><trkpt lat="44.33374790779071" lon="7.765792010354775"><ele>550.0</ele><time>2026-04-10T13:40:17Z</time></trkpt><trkpt lat="44.333682197660224" lon="7.765631712823664"><ele>550.25</ele><time>2026-04-10T13:40:18Z</time></trkpt><trkpt lat="44.333604403171044" lon="7.765476635354872"><ele>550.5</ele><time>2026-04-10T13:40:19Z</time></trkpt><trkpt lat="44.33352142497042" lon="7.7653201248574"><ele>550.75</ele><time>2026-04-10T13:40:20Z</time></trkpt><trkpt lat="44.33343482391629" lon="7.765159157677942"><ele>551.0</ele><time>2026-04-10T13:40:21Z</time></trkpt><trkpt lat="44.33333539936422" lon="7.7650212392152325"><ele>556.3333333333333</ele><time>2026-04-10T13:40:22Z</time></trkpt><trkpt lat="44.333224060617205" lon="7.764865021699872"><ele>561.6666666666666</ele><time>2026-04-10T13:40:23Z</time></trkpt><trkpt lat="44.3331124097572" lon="7.764726535305194"><ele>567.0</ele><time>2026-04-10T13:40:24Z</time></trkpt><trkpt lat="44.33299502187704" lon="7.764584189896994"><ele>567.0</ele><time>2026-04-10T13:40:25Z</time></trkpt><trkpt lat="44.3328877749222" lon="7.764415649820453"><ele>567.0</ele><time>2026-04-10T13:40:26Z</time></trkpt><trkpt lat="44.332773685697326" lon="7.764248184001039"><ele>567.0</ele><time>2026-04-10T13:40:27Z</time></trkpt><trkpt lat="44.33267915634238" lon="7.764081889345875"><ele>558.0</ele><time>2026-04-10T13:40:28Z</time></trkpt><trkpt lat="44.33258118815998" lon="7.763917614025666"><ele>549.0</ele><time>2026-04-10T13:40:29Z</time></trkpt><trkpt lat="44.33246206241569" lon="7.763767019698805"><ele>540.0</ele><time>2026-04-10T13:40:30Z</time></trkpt><trkpt lat="44.33235011752677" lon="7.763625141691538"><ele>542.25</ele><time>2026-04-10T13:40:31Z</time></trkpt><trkpt lat="44.33225313552059" lon="7.763478380850365"><ele>544.5</ele><time>2026-04-10T13:40:32Z</time></trkpt><trkpt lat="44.33215884961855" lon="7.763344531896215"><ele>546.75</ele><time>2026-04-10T13:40:33Z</time></trkpt><trkpt lat="44.3320460168485" lon="7.763226619801856"><ele>549.0</ele><time>2026-04-10T13:40:34Z</time></trkpt><trkpt lat="44.331917570892784" lon="7.763123646022623"><ele>549.0</ele><time>2026-04-10T13:40:35Z</time></trkpt><trkpt lat="44.331779501459" lon="7.7630352799808975"><ele>549.0</ele><time>2026-04-10T13:40:36Z</time></trkpt><trkpt lat="44.33164717757495" lon="7.762923909933749"><ele>549.0</ele><time>2026-04-10T13:40:37Z</time></trkpt><trkpt lat="44.33150706481264" lon="7.7627765892361245"><ele>550.3333333333334</ele><time>2026-04-10T13:40:38Z</time></trkpt><trkpt lat="44.331367492201814" lon="7.7626272665314495"><ele>551.6666666666667</ele><time>2026-04-10T13:40:39Z</time></trkpt><trkpt lat="44.33122290998775" lon="7.7625065111827105"><ele>553.0</ele><time>2026-04-10T13:40:40Z</time></trkpt><trkpt lat="44.331062130650295" lon="7.7623733637020065"><ele>553.0</ele><time>2026-04-10T13:40:41Z</time></trkpt><trkpt lat="44.330903760904995" lon="7.762244399351579"><ele>553.0</ele><time>2026-04-10T13:40:42Z</time></trkpt><trkpt lat="44.33075529785842" lon="7.7620881080987605"><ele>553.0</ele><time>2026-04-10T13:40:43Z</time></trkpt><trkpt lat="44.33060565089613" lon="7.761921437542775"><ele>554.6666666666667</ele><time>2026-04-10T13:40:44Z</time></trkpt><trkpt lat="44.330457416588445" lon="7.761760323775482"><ele>556.3333333333334</ele><time>2026-04-10T13:40:45Z</time></trkpt><trkpt lat="44.33031966439915" lon="7.761574206191145"><ele>558.0</ele><time>2026-04-10T13:40:46Z</time></trkpt><trkpt lat="44.33018630580029" lon="7.761385588220747"><ele>558.0</ele><time>2026-04-10T13:40:47Z</time></trkpt><trkpt lat="44.33006065908012" lon="7.761203092037216"><ele>558.0</ele><time>2026-04-10T13:40:48Z</time></trkpt><trkpt lat="44.329944734067595" lon="7.761015506579258"><ele>558.0</ele><time>2026-04-10T13:40:49Z</time></trkpt><trkpt lat="44.329826655395955" lon="7.760833619206461"><ele>565.6666666666666</ele><time>2026-04-10T13:40:50Z</time></trkpt><trkpt lat="44.32970485207842" lon="7.760635915134921"><ele>573.3333333333333</ele><time>2026-04-10T13:40:51Z</time></trkpt><trkpt lat="44.32956626230817" lon="7.7604760663630215"><ele>581.0</ele><time>2026-04-10T13:40:52Z</time></trkpt><trkpt lat="44.32945649683763" lon="7.76032161231849"><ele>571.6666666666666</ele><time>2026-04-10T13:40:53Z</time></trkpt><trkpt lat="44.3293536509907" lon="7.7601582342941064"><ele>562.3333333333334</ele><time>2026-04-10T13:40:54Z</time></trkpt><trkpt lat="44.32923383834447" lon="7.760007457453388"><ele>553.0</ele><time>2026-04-10T13:40:55Z</time></trkpt><trkpt lat="44.329093558316124" lon="7.759863556826249"><ele>553.0</ele><time>2026-04-10T13:40:56Z</time></trkpt><trkpt lat="44.32895506406861" lon="7.759722063507475"><ele>553.0</ele><time>2026-04-10T13:40:57Z</time></trkpt><trkpt lat="44.32881227884756" lon="7.759574477654139"><ele>553.0</ele><time>2026-04-10T13:40:58Z</time></trkpt><trkpt lat="44.32868238417665" lon="7.75945517102083"><ele>552.25</ele><time>2026-04-10T13:40:59Z</time></trkpt><trkpt lat="44.32856793644792" lon="7.759330821656392"><ele>551.5</ele><time>2026-04-10T13:41:00Z</time></trkpt><trkpt lat="44.32846545960486" lon="7.759221259936303"><ele>550.75</ele><time>2026-04-10T13:41:01Z</time></trkpt><trkpt lat="44.32835528102201" lon="7.759138287530554"><ele>550.0</ele><time>2026-04-10T13:41:02Z</time></trkpt><trkpt lat="44.32823112856197" lon="7.759063886758835"><ele>550.0</ele><time>2026-04-10T13:41:03Z</time></trkpt><trkpt lat="44.32809529820387" lon="7.759000069569685"><ele>550.0</ele><time>2026-04-10T13:41:04Z</time></trkpt><trkpt lat="44.32797432742625" lon="7.758911680034719"><ele>550.0</ele><time>2026-04-10T13:41:05Z</time></trkpt><trkpt lat="44.32784679578627" lon="7.758810903101462"><ele>550.0</ele><time>2026-04-10T13:41:05.999Z</time></trkpt><trkpt lat="44.32772223321701" lon="7.758696335739078"><ele>548.25</ele><time>2026-04-10T13:41:06.999Z</time></trkpt><trkpt lat="44.32760325039904" lon="7.758598599663296"><ele>546.5</ele><time>2026-04-10T13:41:07.999Z</time></trkpt><trkpt lat="44.327477094831494" lon="7.758505653590651"><ele>544.75</ele><time>2026-04-10T13:41:08.999Z</time></trkpt><trkpt lat="44.32735236069291" lon="7.758425885737642"><ele>543.0</ele><time>2026-04-10T13:41:09.999Z</time></trkpt><trkpt lat="44.32723086940937" lon="7.758353979091937"><ele>547.25</ele><time>2026-04-10T13:41:10.999Z</time></trkpt><trkpt lat="44.3271002609094" lon="7.758288740137188"><ele>551.5</ele><time>2026-04-10T13:41:11.999Z</time></trkpt><trkpt lat="44.326965642246385" lon="7.758227996488452"><ele>555.75</ele><time>2026-04-10T13:41:12.999Z</time></trkpt><trkpt lat="44.32683465376383" lon="7.758159883473483"><ele>560.0</ele><time>2026-04-10T13:41:13.999Z</time></trkpt><trkpt lat="44.32672278813662" lon="7.758067357127667"><ele>560.0</ele><time>2026-04-10T13:41:14.999Z</time></trkpt><trkpt lat="44.32661071079671" lon="7.757961005735258"><ele>560.0</ele><time>2026-04-10T13:41:15.999Z</time></trkpt><trkpt lat="44.32652249163879" lon="7.757820487186506"><ele>560.0</ele><time>2026-04-10T13:41:16.999Z</time></trkpt><trkpt lat="44.32644306992873" lon="7.757690119055676"><ele>560.0</ele><time>2026-04-10T13:41:17.999Z</time></trkpt><trkpt lat="44.32637348147811" lon="7.757589167960483"><ele>560.25</ele><time>2026-04-10T13:41:18.999Z</time></trkpt><trkpt lat="44.32628929895785" lon="7.7574803366919385"><ele>560.5</ele><time>2026-04-10T13:41:19.999Z</time></trkpt><trkpt lat="44.32618603707631" lon="7.757372612263038"><ele>560.75</ele><time>2026-04-10T13:41:20.999Z</time></trkpt><trkpt lat="44.32607424078213" lon="7.757300110668356"><ele>561.0</ele><time>2026-04-10T13:41:21.999Z</time></trkpt><trkpt lat="44.325943028558676" lon="7.757221290221505"><ele>561.0</ele><time>2026-04-10T13:41:22.999Z</time></trkpt><trkpt lat="44.3258079878242" lon="7.7571682174535095"><ele>561.0</ele><time>2026-04-10T13:41:23.999Z</time></trkpt><trkpt lat="44.32566302828502" lon="7.757130058867698"><ele>561.0</ele><time>2026-04-10T13:41:24.999Z</time></trkpt><trkpt lat="44.3255451498112" lon="7.757017839761021"><ele>561.0</ele><time>2026-04-10T13:41:25.999Z</time></trkpt><trkpt lat="44.32540107289698" lon="7.756904714565171"><ele>561.0</ele><time>2026-04-10T13:41:26.999Z</time></trkpt><trkpt lat="44.325282057464605" lon="7.756775301502348"><ele>561.0</ele><time>2026-04-10T13:41:27.999Z</time></trkpt><trkpt lat="44.32515586020511" lon="7.7566466050127545"><ele>561.0</ele><time>2026-04-10T13:41:28.999Z</time></trkpt><trkpt lat="44.325022326407755" lon="7.756518018155478"><ele>561.0</ele><time>2026-04-10T13:41:29.999Z</time></trkpt><trkpt lat="44.32488508907911" lon="7.756418887894244"><ele>561.0</ele><time>2026-04-10T13:41:30.999Z</time></trkpt><trkpt lat="44.32475757024937" lon="7.7562982994692"><ele>561.0</ele><time>2026-04-10T13:41:31.999Z</time></trkpt><trkpt lat="44.32462159308472" lon="7.756226809585166"><ele>560.6</ele><time>2026-04-10T13:41:32.999Z</time></trkpt><trkpt lat="44.32449466725658" lon="7.75612922198046"><ele>560.2</ele><time>2026-04-10T13:41:33.999Z</time></trkpt><trkpt lat="44.32439119403192" lon="7.756040134822006"><ele>559.8</ele><time>2026-04-10T13:41:34.999Z</time></trkpt><trkpt lat="44.32430151763312" lon="7.755984049681953"><ele>559.4</ele><time>2026-04-10T13:41:35.999Z</time></trkpt><trkpt lat="44.324232673418564" lon="7.7559513685111074"><ele>559.0</ele><time>2026-04-10T13:41:36.999Z</time></trkpt><trkpt lat="44.3241438523522" lon="7.755891502049467"><ele>559.0</ele><time>2026-04-10T13:41:37.999Z</time></trkpt><trkpt lat="44.324046355907015" lon="7.7558283347584425"><ele>559.0</ele><time>2026-04-10T13:41:38.999Z</time></trkpt><trkpt lat="44.32399043234968" lon="7.755781451707017"><ele>559.0</ele><time>2026-04-10T13:41:39.999Z</time></trkpt><trkpt lat="44.323906210365266" lon="7.755715286648452"><ele>559.0</ele><time>2026-04-10T13:41:40.999Z</time></trkpt><trkpt lat="44.323836539760045" lon="7.75564573383118"><ele>559.0</ele><time>2026-04-10T13:41:41.999Z</time></trkpt><trkpt lat="44.32375847572904" lon="7.75557494810883"><ele>559.0</ele><time>2026-04-10T13:41:42.999Z</time></trkpt><trkpt lat="44.32367179786751" lon="7.755490860136206"><ele>559.8</ele><time>2026-04-10T13:41:43.999Z</time></trkpt><trkpt lat="44.32358950566836" lon="7.755413374488036"><ele>560.5999999999999</ele><time>2026-04-10T13:41:44.999Z</time></trkpt><trkpt lat="44.32350259736279" lon="7.7553248630294584"><ele>561.4</ele><time>2026-04-10T13:41:45.999Z</time></trkpt><trkpt lat="44.32344098275416" lon="7.7552603010380174"><ele>562.1999999999999</ele><time>2026-04-10T13:41:46.999Z</time></trkpt><trkpt lat="44.323372030833234" lon="7.755184568543963"><ele>563.0</ele><time>2026-04-10T13:41:47.999Z</time></trkpt><trkpt lat="44.323297085457476" lon="7.755081917409539"><ele>563.0</ele><time>2026-04-10T13:41:48.999Z</time></trkpt><trkpt lat="44.32322956525136" lon="7.754985379565372"><ele>563.0</ele><time>2026-04-10T13:41:49.999Z</time></trkpt><trkpt lat="44.32315588348964" lon="7.7548881689257385"><ele>563.0</ele><time>2026-04-10T13:41:50.999Z</time></trkpt><trkpt lat="44.32308525841388" lon="7.754786658546061"><ele>563.0</ele><time>2026-04-10T13:41:51.999Z</time></trkpt><trkpt lat="44.32301186726531" lon="7.754686101798605"><ele>563.0</ele><time>2026-04-10T13:41:52.999Z</time></trkpt><trkpt lat="44.322940139693635" lon="7.75458612385336"><ele>564.1999999999999</ele><time>2026-04-10T13:41:53.999Z</time></trkpt><trkpt lat="44.32287430490134" lon="7.754481611649944"><ele>565.4</ele><time>2026-04-10T13:41:54.999Z</time></trkpt><trkpt lat="44.32281200871043" lon="7.754385082140289"><ele>566.5999999999999</ele><time>2026-04-10T13:41:55.999Z</time></trkpt><trkpt lat="44.32275125335812" lon="7.7542949396009595"><ele>567.8</ele><time>2026-04-10T13:41:56.999Z</time></trkpt><trkpt lat="44.3226753635473" lon="7.754178781228482"><ele>569.0</ele><time>2026-04-10T13:41:57.999Z</time></trkpt><trkpt lat="44.32258108676179" lon="7.754062293483019"><ele>569.0</ele><time>2026-04-10T13:41:58.999Z</time></trkpt><trkpt lat="44.322492651320275" lon="7.753956369262505"><ele>569.0</ele><time>2026-04-10T13:41:59.999Z</time></trkpt><trkpt lat="44.32241070999612" lon="7.753858792880704"><ele>569.0</ele><time>2026-04-10T13:42:00.999Z</time></trkpt><trkpt lat="44.32231735762496" lon="7.753776175143735"><ele>569.0</ele><time>2026-04-10T13:42:01.999Z</time></trkpt><trkpt lat="44.32223258804919" lon="7.753689370966209"><ele>569.0</ele><time>2026-04-10T13:42:02.999Z</time></trkpt><trkpt lat="44.3221544119447" lon="7.753614142199064"><ele>570.2</ele><time>2026-04-10T13:42:03.999Z</time></trkpt><trkpt lat="44.32207570145059" lon="7.753540644682058"><ele>571.4</ele><time>2026-04-10T13:42:04.999Z</time></trkpt><trkpt lat="44.32198868465716" lon="7.753456280754495"><ele>572.6</ele><time>2026-04-10T13:42:05.999Z</time></trkpt><trkpt lat="44.32190153176422" lon="7.753384671975308"><ele>573.8</ele><time>2026-04-10T13:42:06.999Z</time></trkpt><trkpt lat="44.32181044427101" lon="7.753312485624721"><ele>575.0</ele><time>2026-04-10T13:42:07.999Z</time></trkpt><trkpt lat="44.32172103958224" lon="7.753254351176859"><ele>575.0</ele><time>2026-04-10T13:42:08.999Z</time></trkpt><trkpt lat="44.32163304717437" lon="7.753191936385505"><ele>575.0</ele><time>2026-04-10T13:42:09.999Z</time></trkpt><trkpt lat="44.32154092099142" lon="7.7531330413425685"><ele>575.0</ele><time>2026-04-10T13:42:10.999Z</time></trkpt><trkpt lat="44.32144623422043" lon="7.7530789463493495"><ele>575.0</ele><time>2026-04-10T13:42:11.998Z</time></trkpt><trkpt lat="44.32135603514456" lon="7.753011759481506"><ele>575.0</ele><time>2026-04-10T13:42:12.998Z</time></trkpt><trkpt lat="44.32126433360758" lon="7.752953552941792"><ele>576.4</ele><time>2026-04-10T13:42:13.998Z</time></trkpt><trkpt lat="44.32117050321763" lon="7.752901944874394"><ele>577.8</ele><time>2026-04-10T13:42:14.998Z</time></trkpt><trkpt lat="44.321073390808294" lon="7.75284435121596"><ele>579.2</ele><time>2026-04-10T13:42:15.998Z</time></trkpt><trkpt lat="44.32097811527275" lon="7.7527976656460575"><ele>580.6</ele><time>2026-04-10T13:42:16.998Z</time></trkpt><trkpt lat="44.32088187082955" lon="7.752743462388388"><ele>582.0</ele><time>2026-04-10T13:42:17.998Z</time></trkpt><trkpt lat="44.32079689602352" lon="7.752700384723529"><ele>581.8000000000001</ele><time>2026-04-10T13:42:18.998Z</time></trkpt><trkpt lat="44.32071396077677" lon="7.752653741653353"><ele>581.6</ele><time>2026-04-10T13:42:19.998Z</time></trkpt><trkpt lat="44.32063464608561" lon="7.7526040044944216"><ele>581.4000000000001</ele><time>2026-04-10T13:42:20.998Z</time></trkpt><trkpt lat="44.32054929646484" lon="7.752559318539953"><ele>581.2</ele><time>2026-04-10T13:42:22Z</time></trkpt><trkpt lat="44.32045324220616" lon="7.752514534736175"><ele>581.0</ele><time>2026-04-10T13:42:23Z</time></trkpt><trkpt lat="44.32035803350058" lon="7.752470933121645"><ele>581.0</ele><time>2026-04-10T13:42:24Z</time></trkpt><trkpt lat="44.320272672106725" lon="7.752439671937624"><ele>581.0</ele><time>2026-04-10T13:42:25Z</time></trkpt><trkpt lat="44.32018322219682" lon="7.752403438256324"><ele>581.0</ele><time>2026-04-10T13:42:26Z</time></trkpt><trkpt lat="44.32010159192694" lon="7.75234927291808"><ele>581.0</ele><time>2026-04-10T13:42:27Z</time></trkpt><trkpt lat="44.32002370326717" lon="7.752280268455722"><ele>581.0</ele><time>2026-04-10T13:42:28Z</time></trkpt><trkpt lat="44.31994246574389" lon="7.752199652646973"><ele>581.0</ele><time>2026-04-10T13:42:29Z</time></trkpt><trkpt lat="44.31987920696872" lon="7.7521104293606315"><ele>581.0</ele><time>2026-04-10T13:42:30Z</time></trkpt><trkpt lat="44.31981636734981" lon="7.75199015494494"><ele>581.0</ele><time>2026-04-10T13:42:31Z</time></trkpt><trkpt lat="44.319758236715366" lon="7.751819381190175"><ele>581.0</ele><time>2026-04-10T13:42:32Z</time></trkpt><trkpt lat="44.3196771780988" lon="7.751704860588588"><ele>581.0</ele><time>2026-04-10T13:42:33Z</time></trkpt><trkpt lat="44.3196167769042" lon="7.751579909138622"><ele>583.6</ele><time>2026-04-10T13:42:34Z</time></trkpt><trkpt lat="44.31954202623779" lon="7.751478059921667"><ele>586.2</ele><time>2026-04-10T13:42:35Z</time></trkpt><trkpt lat="44.319457858618975" lon="7.751368649844997"><ele>588.8</ele><time>2026-04-10T13:42:36Z</time></trkpt><trkpt lat="44.319379644201305" lon="7.751261154945931"><ele>591.4</ele><time>2026-04-10T13:42:37Z</time></trkpt><trkpt lat="44.31931190895363" lon="7.7511635327655"><ele>594.0</ele><time>2026-04-10T13:42:38Z</time></trkpt><trkpt lat="44.319232133829644" lon="7.751092101015659"><ele>591.4</ele><time>2026-04-10T13:42:39Z</time></trkpt><trkpt lat="44.31915637551581" lon="7.751016906737009"><ele>588.8</ele><time>2026-04-10T13:42:40Z</time></trkpt><trkpt lat="44.31907566608388" lon="7.750978431076477"><ele>586.2</ele><time>2026-04-10T13:42:41Z</time></trkpt><trkpt lat="44.31898858953033" lon="7.750942452059942"><ele>583.6</ele><time>2026-04-10T13:42:42Z</time></trkpt><trkpt lat="44.3188916958085" lon="7.750886698329958"><ele>581.0</ele><time>2026-04-10T13:42:43Z</time></trkpt><trkpt lat="44.318795964511374" lon="7.75082286532602"><ele>581.0</ele><time>2026-04-10T13:42:44Z</time></trkpt><trkpt lat="44.31871877387958" lon="7.7507912592275465"><ele>581.0</ele><time>2026-04-10T13:42:45Z</time></trkpt><trkpt lat="44.318638000865015" lon="7.750732169353139"><ele>581.0</ele><time>2026-04-10T13:42:46Z</time></trkpt><trkpt lat="44.31856350795575" lon="7.750650928938213"><ele>581.0</ele><time>2026-04-10T13:42:47Z</time></trkpt><trkpt lat="44.31850564410662" lon="7.750546258439518"><ele>581.0</ele><time>2026-04-10T13:42:48Z</time></trkpt><trkpt lat="44.318454559297045" lon="7.750423446126341"><ele>581.0</ele><time>2026-04-10T13:42:49Z</time></trkpt><trkpt lat="44.318413669416316" lon="7.750283784261055"><ele>581.0</ele><time>2026-04-10T13:42:50Z</time></trkpt><trkpt lat="44.318357581231425" lon="7.7501289537450555"><ele>581.0</ele><time>2026-04-10T13:42:51Z</time></trkpt><trkpt lat="44.31830099757199" lon="7.7499878466789935"><ele>581.0</ele><time>2026-04-10T13:42:52Z</time></trkpt><trkpt lat="44.31824980504651" lon="7.749861582375628"><ele>581.0</ele><time>2026-04-10T13:42:53Z</time></trkpt><trkpt lat="44.318204020503785" lon="7.7497393858141175"><ele>581.0</ele><time>2026-04-10T13:42:54Z</time></trkpt><trkpt lat="44.31815811042727" lon="7.749640454301264"><ele>581.0</ele><time>2026-04-10T13:42:55Z</time></trkpt><trkpt lat="44.31810473678639" lon="7.749552958018801"><ele>581.0</ele><time>2026-04-10T13:42:56Z</time></trkpt><trkpt lat="44.31802380065649" lon="7.749457272267471"><ele>581.0</ele><time>2026-04-10T13:42:57Z</time></trkpt><trkpt lat="44.3179530747414" lon="7.749379662323765"><ele>579.5</ele><time>2026-04-10T13:42:58Z</time></trkpt><trkpt lat="44.317881951260894" lon="7.749314353815892"><ele>578.0</ele><time>2026-04-10T13:42:59Z</time></trkpt><trkpt lat="44.317817445440646" lon="7.749246095646138"><ele>576.5</ele><time>2026-04-10T13:43:00Z</time></trkpt><trkpt lat="44.31775502229751" lon="7.749174576281796"><ele>575.0</ele><time>2026-04-10T13:43:01Z</time></trkpt><trkpt lat="44.31770987194473" lon="7.749082915835804"><ele>573.5</ele><time>2026-04-10T13:43:02Z</time></trkpt><trkpt lat="44.31768197816569" lon="7.748970263721364"><ele>572.0</ele><time>2026-04-10T13:43:03Z</time></trkpt><trkpt lat="44.31767513614247" lon="7.748837796405616"><ele>572.0</ele><time>2026-04-10T13:43:04Z</time></trkpt><trkpt lat="44.31768865275643" lon="7.748700575652277"><ele>572.0</ele><time>2026-04-10T13:43:05Z</time></trkpt><trkpt lat="44.3177008073563" lon="7.748586308861905"><ele>572.0</ele><time>2026-04-10T13:43:06Z</time></trkpt><trkpt lat="44.31771492502206" lon="7.748465846857637"><ele>572.0</ele><time>2026-04-10T13:43:07Z</time></trkpt><trkpt lat="44.31772828163487" lon="7.748337600284467"><ele>572.0</ele><time>2026-04-10T13:43:08Z</time></trkpt><trkpt lat="44.31774302838448" lon="7.7482116675684365"><ele>572.1666666666666</ele><time>2026-04-10T13:43:09Z</time></trkpt><trkpt lat="44.31775402983226" lon="7.7480964373289165"><ele>572.3333333333333</ele><time>2026-04-10T13:43:09.999Z</time></trkpt><trkpt lat="44.31777202964966" lon="7.747989438076451"><ele>572.5</ele><time>2026-04-10T13:43:10.999Z</time></trkpt><trkpt lat="44.31778785464461" lon="7.74787750476931"><ele>572.6666666666666</ele><time>2026-04-10T13:43:11.999Z</time></trkpt><trkpt lat="44.31780465991783" lon="7.747766579794601"><ele>572.8333333333334</ele><time>2026-04-10T13:43:12.999Z</time></trkpt><trkpt lat="44.317821872029" lon="7.747668098781567"><ele>573.0</ele><time>2026-04-10T13:43:13.999Z</time></trkpt><trkpt lat="44.317834016779535" lon="7.74757634703585"><ele>573.1666666666666</ele><time>2026-04-10T13:43:14.999Z</time></trkpt><trkpt lat="44.31784705383457" lon="7.747488624743349"><ele>573.3333333333334</ele><time>2026-04-10T13:43:15.999Z</time></trkpt><trkpt lat="44.31787881975693" lon="7.747332383776242"><ele>573.5</ele><time>2026-04-10T13:43:17.999Z</time></trkpt><trkpt lat="44.31792822109524" lon="7.747224117396311"><ele>573.6666666666667</ele><time>2026-04-10T13:43:19.999Z</time></trkpt><trkpt lat="44.31796505384613" lon="7.74713045504705"><ele>573.8333333333334</ele><time>2026-04-10T13:43:21.999Z</time></trkpt><trkpt lat="44.318010679268795" lon="7.7470230581529655"><ele>574.0</ele><time>2026-04-10T13:43:23.999Z</time></trkpt><trkpt lat="44.318067967941595" lon="7.746853154561261"><ele>574.3333333333334</ele><time>2026-04-10T13:43:25.999Z</time></trkpt><trkpt lat="44.31809766959868" lon="7.746757575311764"><ele>574.6666666666667</ele><time>2026-04-10T13:43:26.999Z</time></trkpt><trkpt lat="44.31812720597216" lon="7.746667409087707"><ele>575.0</ele><time>2026-04-10T13:43:27.999Z</time></trkpt><trkpt lat="44.318162302449934" lon="7.746558121103217"><ele>575.3333333333334</ele><time>2026-04-10T13:43:28.999Z</time></trkpt><trkpt lat="44.318213105337094" lon="7.746432262302534"><ele>575.6666666666666</ele><time>2026-04-10T13:43:29.999Z</time></trkpt><trkpt lat="44.31824774014987" lon="7.74633748645673"><ele>576.0</ele><time>2026-04-10T13:43:30.999Z</time></trkpt><trkpt lat="44.318275042930395" lon="7.746220070951267"><ele>576.0</ele><time>2026-04-10T13:43:31.999Z</time></trkpt><trkpt lat="44.318312909192464" lon="7.746125578176352"><ele>576.0</ele><time>2026-04-10T13:43:32.999Z</time></trkpt><trkpt lat="44.3183666709541" lon="7.745976457388619"><ele>576.0</ele><time>2026-04-10T13:43:34.999Z</time></trkpt><trkpt lat="44.318368699968275" lon="7.745884522113046"><ele>576.0</ele><time>2026-04-10T13:43:36.999Z</time></trkpt><trkpt lat="44.318368488287106" lon="7.745755891928168"><ele>576.0</ele><time>2026-04-10T13:43:40.999Z</time></trkpt><trkpt lat="44.31837067294502" lon="7.745555773603316"><ele>576.0</ele><time>2026-04-10T13:43:42.999Z</time></trkpt><trkpt lat="44.31837192692069" lon="7.745348560337787"><ele>576.0</ele><time>2026-04-10T13:43:44.999Z</time></trkpt><trkpt lat="44.31844557537627" lon="7.745178481698983"><ele>576.0</ele><time>2026-04-10T13:43:45.999Z</time></trkpt><trkpt lat="44.318466885069334" lon="7.745054953636833"><ele>576.0</ele><time>2026-04-10T13:43:46.999Z</time></trkpt><trkpt lat="44.31850764940157" lon="7.744930001782892"><ele>576.0</ele><time>2026-04-10T13:43:47.999Z</time></trkpt><trkpt lat="44.318545978389984" lon="7.7447817106374055"><ele>576.0</ele><time>2026-04-10T13:43:48.999Z</time></trkpt><trkpt lat="44.31856464249032" lon="7.74464432026488"><ele>576.0</ele><time>2026-04-10T13:43:49.999Z</time></trkpt><trkpt lat="44.31856241157285" lon="7.7445162254062865"><ele>576.0</ele><time>2026-04-10T13:43:50.999Z</time></trkpt><trkpt lat="44.31855752974072" lon="7.744396867560239"><ele>576.0</ele><time>2026-04-10T13:43:51.999Z</time></trkpt><trkpt lat="44.318548858071566" lon="7.7442534223176"><ele>576.0</ele><time>2026-04-10T13:43:52.999Z</time></trkpt><trkpt lat="44.31854006869237" lon="7.744139735690957"><ele>576.0</ele><time>2026-04-10T13:43:53.999Z</time></trkpt><trkpt lat="44.318530515931656" lon="7.744023580388023"><ele>576.0</ele><time>2026-04-10T13:43:54.999Z</time></trkpt><trkpt lat="44.31851914683993" lon="7.7439086548051135"><ele>576.0</ele><time>2026-04-10T13:43:55.999Z</time></trkpt><trkpt lat="44.31851867515182" lon="7.743801011971084"><ele>576.0</ele><time>2026-04-10T13:43:56.999Z</time></trkpt><trkpt lat="44.31849758452557" lon="7.7437000851584195"><ele>576.0</ele><time>2026-04-10T13:43:57.999Z</time></trkpt><trkpt lat="44.3184831980874" lon="7.743579826088711"><ele>576.0000000000001</ele><time>2026-04-10T13:43:58.999Z</time></trkpt><trkpt lat="44.31848721656491" lon="7.7434827511552085"><ele>576.0</ele><time>2026-04-10T13:43:59.999Z</time></trkpt><trkpt lat="44.318460882908596" lon="7.743386997894774"><ele>576.0</ele><time>2026-04-10T13:44:00.999Z</time></trkpt><trkpt lat="44.3184519702257" lon="7.743292886645901"><ele>576.0</ele><time>2026-04-10T13:44:01.999Z</time></trkpt><trkpt lat="44.3184434154661" lon="7.743176787727014"><ele>576.0</ele><time>2026-04-10T13:44:03.999Z</time></trkpt><trkpt lat="44.3184512631935" lon="7.743055812430614"><ele>576.0000000000001</ele><time>2026-04-10T13:44:14.999Z</time></trkpt><trkpt lat="44.318415719868966" lon="7.742977219137497"><ele>576.0</ele><time>2026-04-10T13:44:15.998Z</time></trkpt><trkpt lat="44.318365272054656" lon="7.742900312425101"><ele>576.0</ele><time>2026-04-10T13:44:16.998Z</time></trkpt><trkpt lat="44.31832009404319" lon="7.742824290676318"><ele>576.0</ele><time>2026-04-10T13:44:17.998Z</time></trkpt><trkpt lat="44.31823036107778" lon="7.742772035502143"><ele>576.0</ele><time>2026-04-10T13:44:18.998Z</time></trkpt><trkpt lat="44.318167248563206" lon="7.742656027344125"><ele>576.0</ele><time>2026-04-10T13:44:19.998Z</time></trkpt><trkpt lat="44.31808027203031" lon="7.742542941546396"><ele>576.0</ele><time>2026-04-10T13:44:20.998Z</time></trkpt><trkpt lat="44.31800234666392" lon="7.742407900312687"><ele>576.25</ele><time>2026-04-10T13:44:21.998Z</time></trkpt><trkpt lat="44.31793457491764" lon="7.742253590732307"><ele>576.5</ele><time>2026-04-10T13:44:22.998Z</time></trkpt><trkpt lat="44.317862249137555" lon="7.7420932390967865"><ele>576.75</ele><time>2026-04-10T13:44:23.998Z</time></trkpt><trkpt lat="44.31778229838472" lon="7.741919220080348"><ele>577.0</ele><time>2026-04-10T13:44:24.998Z</time></trkpt><trkpt lat="44.31771812763661" lon="7.741742593130831"><ele>577.5</ele><time>2026-04-10T13:44:25.998Z</time></trkpt><trkpt lat="44.31767107738245" lon="7.741576145607888"><ele>578.0</ele><time>2026-04-10T13:44:26.998Z</time></trkpt><trkpt lat="44.317634458330296" lon="7.741420950117181"><ele>578.5</ele><time>2026-04-10T13:44:28Z</time></trkpt><trkpt lat="44.317595348644595" lon="7.741280005104642"><ele>579.0</ele><time>2026-04-10T13:44:29Z</time></trkpt><trkpt lat="44.31755945375938" lon="7.741144363965094"><ele>578.8</ele><time>2026-04-10T13:44:30Z</time></trkpt><trkpt lat="44.317516977093334" lon="7.741005804948643"><ele>578.5999999999999</ele><time>2026-04-10T13:44:31Z</time></trkpt><trkpt lat="44.31748555484248" lon="7.74086148447704"><ele>578.4</ele><time>2026-04-10T13:44:32Z</time></trkpt><trkpt lat="44.31744713353765" lon="7.74071382172715"><ele>578.1999999999999</ele><time>2026-04-10T13:44:33Z</time></trkpt><trkpt lat="44.31740851909328" lon="7.740568760276548"><ele>578.0</ele><time>2026-04-10T13:44:34Z</time></trkpt><trkpt lat="44.31737203800935" lon="7.740435767530929"><ele>578.0</ele><time>2026-04-10T13:44:35Z</time></trkpt><trkpt lat="44.317341360143296" lon="7.740293018767395"><ele>578.0</ele><time>2026-04-10T13:44:36Z</time></trkpt><trkpt lat="44.31730456107516" lon="7.74015036816182"><ele>578.0</ele><time>2026-04-10T13:44:37Z</time></trkpt><trkpt lat="44.31726489653361" lon="7.740000791932448"><ele>578.0</ele><time>2026-04-10T13:44:38Z</time></trkpt><trkpt lat="44.31722413697782" lon="7.739858262000029"><ele>578.0</ele><time>2026-04-10T13:44:39Z</time></trkpt><trkpt lat="44.31718623977859" lon="7.7397035700232415"><ele>578.0</ele><time>2026-04-10T13:44:40Z</time></trkpt><trkpt lat="44.31714405892541" lon="7.73955461440405"><ele>578.0</ele><time>2026-04-10T13:44:41Z</time></trkpt><trkpt lat="44.31710185640144" lon="7.7393974591803065"><ele>578.0</ele><time>2026-04-10T13:44:42Z</time></trkpt><trkpt lat="44.317065524348884" lon="7.7392490370662665"><ele>578.0</ele><time>2026-04-10T13:44:43Z</time></trkpt><trkpt lat="44.317023186783516" lon="7.739099737636729"><ele>578.0</ele><time>2026-04-10T13:44:44Z</time></trkpt><trkpt lat="44.31698583739583" lon="7.738950199483301"><ele>578.0</ele><time>2026-04-10T13:44:45Z</time></trkpt><trkpt lat="44.31694919857567" lon="7.7388169028799565"><ele>578.0</ele><time>2026-04-10T13:44:46Z</time></trkpt><trkpt lat="44.3169148840041" lon="7.738689451916079"><ele>578.0</ele><time>2026-04-10T13:44:47Z</time></trkpt><trkpt lat="44.31688298816757" lon="7.738565204443194"><ele>578.0</ele><time>2026-04-10T13:44:48Z</time></trkpt><trkpt lat="44.31685444821885" lon="7.73845515372091"><ele>578.4</ele><time>2026-04-10T13:44:49Z</time></trkpt><trkpt lat="44.316826270736094" lon="7.738358198288998"><ele>578.8</ele><time>2026-04-10T13:44:50Z</time></trkpt><trkpt lat="44.316799373473174" lon="7.738274616448813"><ele>579.2</ele><time>2026-04-10T13:44:51Z</time></trkpt><trkpt lat="44.3167665942019" lon="7.7381518273574805"><ele>579.6</ele><time>2026-04-10T13:44:53Z</time></trkpt><trkpt lat="44.31679099851424" lon="7.738062183029772"><ele>580.0</ele><time>2026-04-10T13:44:56Z</time></trkpt><trkpt lat="44.316963032873424" lon="7.737999785005867"><ele>580.0</ele><time>2026-04-10T13:45:02Z</time></trkpt><trkpt lat="44.31703736212992" lon="7.738074925327004"><ele>580.0</ele><time>2026-04-10T13:45:09Z</time></trkpt><trkpt lat="44.317071537220684" lon="7.738164992862954"><ele>580.0</ele><time>2026-04-10T13:49:23Z</time></trkpt><trkpt lat="44.317051561698726" lon="7.738058758127104"><ele>580.0</ele><time>2026-04-10T13:51:27Z</time></trkpt><trkpt lat="44.31699283309736" lon="7.738012782060834"><ele>580.0</ele><time>2026-04-10T13:51:31Z</time></trkpt><trkpt lat="44.31693305990218" lon="7.738054653729849"><ele>580.0</ele><time>2026-04-10T13:51:35.999Z</time></trkpt><trkpt lat="44.3168640127556" lon="7.7380812926562115"><ele>580.0</ele><time>2026-04-10T13:51:40.999Z</time></trkpt><trkpt lat="44.31678806580901" lon="7.738056683459978"><ele>580.0</ele><time>2026-04-10T13:51:47.999Z</time></trkpt><trkpt lat="44.3167502014107" lon="7.738135575072065"><ele>580.0</ele><time>2026-04-10T13:51:53.999Z</time></trkpt><trkpt lat="44.31672465526773" lon="7.7382375459088735"><ele>580.0</ele><time>2026-04-10T13:51:59.999Z</time></trkpt><trkpt lat="44.316748228172" lon="7.738339246760454"><ele>580.0</ele><time>2026-04-10T13:52:05.999Z</time></trkpt><trkpt lat="44.316765743470256" lon="7.738428629943085"><ele>580.0</ele><time>2026-04-10T13:52:10.999Z</time></trkpt><trkpt lat="44.31678948607025" lon="7.73851421522188"><ele>580.0</ele><time>2026-04-10T13:52:15.999Z</time></trkpt><trkpt lat="44.31681087825382" lon="7.738600827295451"><ele>580.0</ele><time>2026-04-10T13:52:20.999Z</time></trkpt><trkpt lat="44.31683527422499" lon="7.738682629421491"><ele>579.7142857142858</ele><time>2026-04-10T13:52:26.999Z</time></trkpt><trkpt lat="44.31685745226362" lon="7.738790966131714"><ele>579.4285714285714</ele><time>2026-04-10T13:52:32.999Z</time></trkpt><trkpt lat="44.31687622769238" lon="7.738876220377549"><ele>579.1428571428571</ele><time>2026-04-10T13:52:37.998Z</time></trkpt><trkpt lat="44.31690427984392" lon="7.738970744567645"><ele>578.8571428571429</ele><time>2026-04-10T13:52:42.998Z</time></trkpt><trkpt lat="44.31692678972974" lon="7.739058349076813"><ele>578.5714285714286</ele><time>2026-04-10T13:52:48.998Z</time></trkpt><trkpt lat="44.31693072197539" lon="7.73915780547197"><ele>578.2857142857143</ele><time>2026-04-10T13:52:55Z</time></trkpt><trkpt lat="44.31695277983662" lon="7.739241273442371"><ele>578.0</ele><time>2026-04-10T13:53:00Z</time></trkpt><trkpt lat="44.31697690411628" lon="7.739329355612209"><ele>578.1428571428571</ele><time>2026-04-10T13:53:05Z</time></trkpt><trkpt lat="44.31699859440406" lon="7.739421472301554"><ele>578.2857142857142</ele><time>2026-04-10T13:53:10Z</time></trkpt><trkpt lat="44.31701949839235" lon="7.73950679510287"><ele>578.4285714285713</ele><time>2026-04-10T13:53:15Z</time></trkpt><trkpt lat="44.31704532541244" lon="7.7395906188480526"><ele>578.5714285714286</ele><time>2026-04-10T13:53:20Z</time></trkpt><trkpt lat="44.317054327894446" lon="7.739685946101033"><ele>578.7142857142857</ele><time>2026-04-10T13:53:25Z</time></trkpt><trkpt lat="44.31707934157891" lon="7.739780819970943"><ele>578.8571428571428</ele><time>2026-04-10T13:53:31Z</time></trkpt><trkpt lat="44.317101043926954" lon="7.739869499830416"><ele>579.0</ele><time>2026-04-10T13:53:35.999Z</time></trkpt><trkpt lat="44.31711764367099" lon="7.73996743755976"><ele>578.9999999999999</ele><time>2026-04-10T13:53:40.999Z</time></trkpt><trkpt lat="44.31713796702667" lon="7.7400532293412585"><ele>579.0</ele><time>2026-04-10T13:53:45.999Z</time></trkpt><trkpt lat="44.317164078690354" lon="7.740142172513601"><ele>579.0</ele><time>2026-04-10T13:53:50.999Z</time></trkpt><trkpt lat="44.317202526577766" lon="7.740217260058941"><ele>579.0</ele><time>2026-04-10T13:53:55.999Z</time></trkpt><trkpt lat="44.317233897369235" lon="7.740306556722733"><ele>579.0</ele><time>2026-04-10T13:54:01.999Z</time></trkpt><trkpt lat="44.31724652442912" lon="7.740394652232362"><ele>578.9999999999999</ele><time>2026-04-10T13:54:05.999Z</time></trkpt><trkpt lat="44.317266399364435" lon="7.740497625752052"><ele>579.0</ele><time>2026-04-10T13:54:10.999Z</time></trkpt><trkpt lat="44.31728552385921" lon="7.740588543994236"><ele>578.9999999999999</ele><time>2026-04-10T13:54:15.999Z</time></trkpt><trkpt lat="44.3173065451686" lon="7.740686623123472"><ele>579.0</ele><time>2026-04-10T13:54:20.999Z</time></trkpt><trkpt lat="44.317328214205865" lon="7.74077092568555"><ele>579.0</ele><time>2026-04-10T13:54:25.999Z</time></trkpt><trkpt lat="44.31735089863618" lon="7.740862580295152"><ele>579.0</ele><time>2026-04-10T13:54:30.999Z</time></trkpt><trkpt lat="44.317390096757734" lon="7.740950279975521"><ele>579.0</ele><time>2026-04-10T13:54:37.999Z</time></trkpt><trkpt lat="44.31740983502358" lon="7.741041582506408"><ele>578.9999999999999</ele><time>2026-04-10T13:54:44.998Z</time></trkpt><trkpt lat="44.31743117925944" lon="7.741126035376782"><ele>579.0</ele><time>2026-04-10T13:54:50.998Z</time></trkpt><trkpt lat="44.31746565202997" lon="7.741213324303563"><ele>578.9999999999999</ele><time>2026-04-10T13:54:56.998Z</time></trkpt><trkpt lat="44.317485055538576" lon="7.741298512921164"><ele>579.0</ele><time>2026-04-10T13:55:02Z</time></trkpt><trkpt lat="44.31751603538238" lon="7.741385812611079"><ele>579.0</ele><time>2026-04-10T13:55:08Z</time></trkpt><trkpt lat="44.31754023328881" lon="7.74148607372452"><ele>579.0</ele><time>2026-04-10T13:55:14Z</time></trkpt><trkpt lat="44.31756526781138" lon="7.741579357295155"><ele>579.0</ele><time>2026-04-10T13:55:20Z</time></trkpt><trkpt lat="44.317589477678254" lon="7.741660992759105"><ele>578.9999999999999</ele><time>2026-04-10T13:55:25Z</time></trkpt><trkpt lat="44.31760565362234" lon="7.741770113703837"><ele>579.0</ele><time>2026-04-10T13:55:30Z</time></trkpt><trkpt lat="44.31764291525783" lon="7.741853449841239"><ele>578.7142857142857</ele><time>2026-04-10T13:55:35Z</time></trkpt><trkpt lat="44.317663622225865" lon="7.741943265118011"><ele>578.4285714285714</ele><time>2026-04-10T13:55:40Z</time></trkpt><trkpt lat="44.317699914334256" lon="7.742030744456658"><ele>578.1428571428571</ele><time>2026-04-10T13:55:45.999Z</time></trkpt><trkpt lat="44.31773465349667" lon="7.742123780604375"><ele>577.8571428571429</ele><time>2026-04-10T13:55:51.999Z</time></trkpt><trkpt lat="44.317748965668414" lon="7.7422121577768985"><ele>577.5714285714286</ele><time>2026-04-10T13:55:56.999Z</time></trkpt><trkpt lat="44.31778458407498" lon="7.742310859562029"><ele>577.2857142857142</ele><time>2026-04-10T13:56:02.999Z</time></trkpt><trkpt lat="44.31781300328173" lon="7.74239273151341"><ele>577.0</ele><time>2026-04-10T13:56:06.999Z</time></trkpt><trkpt lat="44.317816462681606" lon="7.742485704872497"><ele>577.0</ele><time>2026-04-10T13:56:12.999Z</time></trkpt><trkpt lat="44.31778146009897" lon="7.7425638735395985"><ele>577.0</ele><time>2026-04-10T13:56:17.999Z</time></trkpt><trkpt lat="44.317759135136654" lon="7.742654098188503"><ele>577.0</ele><time>2026-04-10T13:56:22.999Z</time></trkpt><trkpt lat="44.31778361489773" lon="7.742746008271494"><ele>577.0</ele><time>2026-04-10T13:56:27.999Z</time></trkpt><trkpt lat="44.31783817878387" lon="7.742800234561275"><ele>577.0</ele><time>2026-04-10T13:56:33.999Z</time></trkpt><trkpt lat="44.31790254732414" lon="7.742751836551108"><ele>577.0</ele><time>2026-04-10T13:56:39.999Z</time></trkpt><trkpt lat="44.3179666714304" lon="7.742752571397374"><ele>577.0</ele><time>2026-04-10T13:56:45.999Z</time></trkpt><trkpt lat="44.31803035020214" lon="7.742808604252627"><ele>576.8571428571429</ele><time>2026-04-10T13:56:49.998Z</time></trkpt><trkpt lat="44.31808049792654" lon="7.742864883054457"><ele>576.7142857142858</ele><time>2026-04-10T13:56:52.998Z</time></trkpt><trkpt lat="44.31814648086833" lon="7.742902236115034"><ele>576.5714285714287</ele><time>2026-04-10T13:56:58.998Z</time></trkpt><trkpt lat="44.318190270131176" lon="7.742974807861011"><ele>576.4285714285714</ele><time>2026-04-10T13:57:05Z</time></trkpt><trkpt lat="44.31822908295783" lon="7.743048231465913"><ele>576.2857142857143</ele><time>2026-04-10T13:57:11Z</time></trkpt><trkpt lat="44.31830537746404" lon="7.7431154957872"><ele>576.1428571428572</ele><time>2026-04-10T13:57:20Z</time></trkpt><trkpt lat="44.31836071192555" lon="7.743177439648475"><ele>576.0</ele><time>2026-04-10T13:57:27Z</time></trkpt><trkpt lat="44.31838964002011" lon="7.743278614008843"><ele>576.0</ele><time>2026-04-10T13:57:32Z</time></trkpt><trkpt lat="44.31836922013739" lon="7.743447969348491"><ele>576.0</ele><time>2026-04-10T13:57:35Z</time></trkpt><trkpt lat="44.318407625267234" lon="7.743531009098118"><ele>576.0</ele><time>2026-04-10T13:57:40Z</time></trkpt><trkpt lat="44.31842659219247" lon="7.74362143522079"><ele>576.0</ele><time>2026-04-10T13:57:45Z</time></trkpt><trkpt lat="44.31842792864862" lon="7.743732833049093"><ele>576.0</ele><time>2026-04-10T13:57:51.999Z</time></trkpt><trkpt lat="44.31845047994045" lon="7.743817522496254"><ele>576.0</ele><time>2026-04-10T13:57:56.999Z</time></trkpt><trkpt lat="44.31842416381235" lon="7.743913407833445"><ele>576.0000000000001</ele><time>2026-04-10T13:58:01.999Z</time></trkpt><trkpt lat="44.31841469518179" lon="7.744019465215273"><ele>576.0</ele><time>2026-04-10T13:58:07.999Z</time></trkpt><trkpt lat="44.31843438022079" lon="7.744108405896325"><ele>576.0</ele><time>2026-04-10T13:58:10.999Z</time></trkpt><trkpt lat="44.31846227603496" lon="7.744204598444072"><ele>576.0</ele><time>2026-04-10T13:58:14.999Z</time></trkpt><trkpt lat="44.31848461715112" lon="7.74429936364805"><ele>576.0</ele><time>2026-04-10T13:58:19.999Z</time></trkpt><trkpt lat="44.31849494359971" lon="7.744386321874185"><ele>576.0000000000001</ele><time>2026-04-10T13:58:23.999Z</time></trkpt><trkpt lat="44.318527800192385" lon="7.744477069403136"><ele>576.0</ele><time>2026-04-10T13:58:29.999Z</time></trkpt><trkpt lat="44.318539144188954" lon="7.744573188923685"><ele>576.0</ele><time>2026-04-10T13:58:34.999Z</time></trkpt><trkpt lat="44.318520178718984" lon="7.744673191117732"><ele>576.0</ele><time>2026-04-10T13:58:38.999Z</time></trkpt><trkpt lat="44.31848597010365" lon="7.7447696911651285"><ele>576.0</ele><time>2026-04-10T13:58:43.999Z</time></trkpt><trkpt lat="44.318469863373394" lon="7.744881293261968"><ele>576.0</ele><time>2026-04-10T13:58:50.999Z</time></trkpt><trkpt lat="44.3184350147009" lon="7.744989400261119"><ele>576.0</ele><time>2026-04-10T13:58:53.999Z</time></trkpt><trkpt lat="44.31839907550727" lon="7.745087453996534"><ele>576.0</ele><time>2026-04-10T13:58:59.998Z</time></trkpt><trkpt lat="44.31836658902177" lon="7.7451775080952405"><ele>575.8571428571429</ele><time>2026-04-10T13:59:03.998Z</time></trkpt><trkpt lat="44.31835975923443" lon="7.745266624052513"><ele>575.7142857142858</ele><time>2026-04-10T13:59:07.998Z</time></trkpt><trkpt lat="44.31835781934342" lon="7.745383055839773"><ele>575.5714285714286</ele><time>2026-04-10T13:59:11Z</time></trkpt><trkpt lat="44.318322279482565" lon="7.745456138890686"><ele>575.4285714285714</ele><time>2026-04-10T13:59:17Z</time></trkpt><trkpt lat="44.31828764546974" lon="7.745529621691647"><ele>575.2857142857142</ele><time>2026-04-10T13:59:21Z</time></trkpt><trkpt lat="44.31828681240571" lon="7.745625804387849"><ele>575.1428571428571</ele><time>2026-04-10T13:59:27Z</time></trkpt><trkpt lat="44.31828651787816" lon="7.7457178456119244"><ele>575.0</ele><time>2026-04-10T13:59:32Z</time></trkpt><trkpt lat="44.31831132897842" lon="7.7458077412189725"><ele>575.0</ele><time>2026-04-10T13:59:38Z</time></trkpt><trkpt lat="44.318321255606335" lon="7.745912956105655"><ele>575.0</ele><time>2026-04-10T13:59:43Z</time></trkpt><trkpt lat="44.31828077689466" lon="7.745988578266366"><ele>575.0</ele><time>2026-04-10T13:59:47Z</time></trkpt><trkpt lat="44.318269042771725" lon="7.746076642565602"><ele>575.0</ele><time>2026-04-10T13:59:51Z</time></trkpt><trkpt lat="44.31822075127332" lon="7.746137470714634"><ele>575.0</ele><time>2026-04-10T13:59:55Z</time></trkpt><trkpt lat="44.318179983401315" lon="7.746206999343432"><ele>575.0</ele><time>2026-04-10T14:00:01.999Z</time></trkpt><trkpt lat="44.318173687190246" lon="7.746299763644468"><ele>575.0</ele><time>2026-04-10T14:00:05.999Z</time></trkpt><trkpt lat="44.31816906280194" lon="7.746399257345726"><ele>575.1428571428571</ele><time>2026-04-10T14:00:08.999Z</time></trkpt><trkpt lat="44.318183776227954" lon="7.746497335366897"><ele>575.2857142857142</ele><time>2026-04-10T14:00:11.999Z</time></trkpt><trkpt lat="44.318162631961776" lon="7.746593559455422"><ele>575.4285714285714</ele><time>2026-04-10T14:00:22.999Z</time></trkpt><trkpt lat="44.31809687273277" lon="7.746643511062773"><ele>575.5714285714286</ele><time>2026-04-10T14:00:25.999Z</time></trkpt><trkpt lat="44.3180590054332" lon="7.746727226448838"><ele>575.7142857142858</ele><time>2026-04-10T14:00:32.999Z</time></trkpt><trkpt lat="44.31802937438118" lon="7.746809572060708"><ele>575.8571428571429</ele><time>2026-04-10T14:00:36.999Z</time></trkpt><trkpt lat="44.31800431634678" lon="7.746899042436365"><ele>576.0</ele><time>2026-04-10T14:00:43.999Z</time></trkpt><trkpt lat="44.318015906776274" lon="7.74700309550367"><ele>575.7142857142858</ele><time>2026-04-10T14:00:48.999Z</time></trkpt><trkpt lat="44.317990486926725" lon="7.747103656071017"><ele>575.4285714285714</ele><time>2026-04-10T14:00:54.999Z</time></trkpt><trkpt lat="44.31792610305723" lon="7.74715618763952"><ele>575.1428571428571</ele><time>2026-04-10T14:01:01.999Z</time></trkpt><trkpt lat="44.31788217040028" lon="7.747246020715082"><ele>574.8571428571429</ele><time>2026-04-10T14:01:08.998Z</time></trkpt><trkpt lat="44.3178471287512" lon="7.747331725528605"><ele>574.5714285714286</ele><time>2026-04-10T14:01:13.998Z</time></trkpt><trkpt lat="44.31783392636694" lon="7.747422879241023"><ele>574.2857142857143</ele><time>2026-04-10T14:01:20Z</time></trkpt><trkpt lat="44.317818520216825" lon="7.747525243049283"><ele>574.0</ele><time>2026-04-10T14:01:27Z</time></trkpt><trkpt lat="44.31779081186626" lon="7.747627468281268"><ele>573.8571428571429</ele><time>2026-04-10T14:01:33Z</time></trkpt><trkpt lat="44.31778419201492" lon="7.747720933612639"><ele>573.7142857142858</ele><time>2026-04-10T14:01:38Z</time></trkpt><trkpt lat="44.3177660422958" lon="7.74781416676573"><ele>573.5714285714286</ele><time>2026-04-10T14:01:43Z</time></trkpt><trkpt lat="44.31776509942155" lon="7.747905966884768"><ele>573.4285714285714</ele><time>2026-04-10T14:01:48Z</time></trkpt><trkpt lat="44.31775665404779" lon="7.747997040433717"><ele>573.2857142857143</ele><time>2026-04-10T14:01:54Z</time></trkpt><trkpt lat="44.3177544428407" lon="7.748097500696733"><ele>573.1428571428571</ele><time>2026-04-10T14:02:01Z</time></trkpt><trkpt lat="44.31774037136235" lon="7.748186679856115"><ele>573.0</ele><time>2026-04-10T14:02:04.999Z</time></trkpt><trkpt lat="44.31772543345135" lon="7.748279317446931"><ele>573.0</ele><time>2026-04-10T14:02:09.999Z</time></trkpt><trkpt lat="44.31771132525842" lon="7.748367134136749"><ele>573.0</ele><time>2026-04-10T14:02:14.999Z</time></trkpt><trkpt lat="44.31767334210208" lon="7.748453720472491"><ele>573.0</ele><time>2026-04-10T14:02:20.999Z</time></trkpt><trkpt lat="44.31766306484707" lon="7.748545821843083"><ele>573.0</ele><time>2026-04-10T14:02:24.999Z</time></trkpt><trkpt lat="44.31765638135963" lon="7.748637439680717"><ele>573.0</ele><time>2026-04-10T14:02:29.999Z</time></trkpt><trkpt lat="44.317644260730404" lon="7.748738027562344"><ele>573.0</ele><time>2026-04-10T14:02:36.999Z</time></trkpt><trkpt lat="44.317582221234076" lon="7.748754207245533"><ele>573.0</ele><time>2026-04-10T14:02:42.999Z</time></trkpt><trkpt lat="44.31757923644669" lon="7.7488670463116325"><ele>572.8</ele><time>2026-04-10T14:02:57.999Z</time></trkpt><trkpt lat="44.31747973467671" lon="7.748914005145196"><ele>572.5999999999999</ele><time>2026-04-10T14:03:04.999Z</time></trkpt><trkpt lat="44.317395096711316" lon="7.748903022757731"><ele>572.4000000000001</ele><time>2026-04-10T14:03:07.999Z</time></trkpt><trkpt lat="44.317323917033704" lon="7.748959831914171"><ele>572.2</ele><time>2026-04-10T14:26:00.999Z</time></trkpt><trkpt lat="44.317378500809625" lon="7.748911428954238"><ele>572.0</ele><time>2026-04-10T14:26:07.998Z</time></trkpt><trkpt lat="44.31752217340082" lon="7.748583082619166"><ele>572.0</ele><time>2026-04-10T14:26:38.452Z</time></trkpt><trkpt lat="44.31737333572283" lon="7.748829750655706"><ele>572.0</ele><time>2026-04-10T14:27:01.998Z</time></trkpt><trkpt lat="44.31737838556924" lon="7.748946864895003"><ele>572.0</ele><time>2026-04-10T14:27:02.998Z</time></trkpt><trkpt lat="44.31745087663082" lon="7.748998177191436"><ele>572.0</ele><time>2026-04-10T14:27:08Z</time></trkpt><trkpt lat="44.31751558044401" lon="7.748946515492034"><ele>571.9999999999999</ele><time>2026-04-10T14:27:14Z</time></trkpt><trkpt lat="44.31757778600578" lon="7.748929476028392"><ele>572.0</ele><time>2026-04-10T14:27:19Z</time></trkpt><trkpt lat="44.31763926860563" lon="7.748895268813342"><ele>572.0</ele><time>2026-04-10T14:27:24Z</time></trkpt><trkpt lat="44.31761991283043" lon="7.748788697380112"><ele>572.0</ele><time>2026-04-10T14:27:29Z</time></trkpt><trkpt lat="44.31765960136479" lon="7.748717190149669"><ele>572.0</ele><time>2026-04-10T14:27:33Z</time></trkpt><trkpt lat="44.31771068041967" lon="7.7486291617981005"><ele>571.9999999999999</ele><time>2026-04-10T14:27:38Z</time></trkpt><trkpt lat="44.317700051542104" lon="7.748505194635293"><ele>572.0</ele><time>2026-04-10T14:27:47.999Z</time></trkpt><trkpt lat="44.31773549239163" lon="7.748423542626534"><ele>572.1428571428571</ele><time>2026-04-10T14:27:52.999Z</time></trkpt><trkpt lat="44.31772656596281" lon="7.748329484300523"><ele>572.2857142857142</ele><time>2026-04-10T14:27:57.999Z</time></trkpt><trkpt lat="44.31775513282101" lon="7.748250261375747"><ele>572.4285714285714</ele><time>2026-04-10T14:28:02.999Z</time></trkpt><trkpt lat="44.31776529169987" lon="7.748157880619391"><ele>572.5714285714286</ele><time>2026-04-10T14:28:08.999Z</time></trkpt><trkpt lat="44.31779868987383" lon="7.748073626097216"><ele>572.7142857142858</ele><time>2026-04-10T14:28:13.999Z</time></trkpt><trkpt lat="44.3178277650345" lon="7.747993366184839"><ele>572.8571428571429</ele><time>2026-04-10T14:28:17.999Z</time></trkpt><trkpt lat="44.31783516641016" lon="7.747883479526721"><ele>573.0</ele><time>2026-04-10T14:28:23.999Z</time></trkpt><trkpt lat="44.31782007398982" lon="7.747781744847033"><ele>573.1428571428571</ele><time>2026-04-10T14:28:28.999Z</time></trkpt><trkpt lat="44.3178132695816" lon="7.747677884977642"><ele>573.2857142857143</ele><time>2026-04-10T14:28:35.999Z</time></trkpt><trkpt lat="44.31781455399966" lon="7.747576177026667"><ele>573.4285714285714</ele><time>2026-04-10T14:28:40.999Z</time></trkpt><trkpt lat="44.31781186196644" lon="7.747473250243542"><ele>573.5714285714286</ele><time>2026-04-10T14:28:45.999Z</time></trkpt><trkpt lat="44.317822844720986" lon="7.747385375721601"><ele>573.7142857142858</ele><time>2026-04-10T14:28:51.998Z</time></trkpt><trkpt lat="44.31785536692147" lon="7.747300254570852"><ele>573.8571428571429</ele><time>2026-04-10T14:28:57.998Z</time></trkpt><trkpt lat="44.31789140941624" lon="7.747227692011995"><ele>574.0</ele><time>2026-04-10T14:29:02.998Z</time></trkpt><trkpt lat="44.317942370028675" lon="7.747169604465068"><ele>574.0</ele><time>2026-04-10T14:29:07.998Z</time></trkpt><trkpt lat="44.31799091527509" lon="7.747110482154004"><ele>574.0</ele><time>2026-04-10T14:29:14Z</time></trkpt><trkpt lat="44.31800602705208" lon="7.747010151444437"><ele>574.0</ele><time>2026-04-10T14:29:20Z</time></trkpt><trkpt lat="44.31801168057869" lon="7.746878090658126"><ele>574.0</ele><time>2026-04-10T14:29:29Z</time></trkpt><trkpt lat="44.318056874325244" lon="7.746813250047428"><ele>574.0</ele><time>2026-04-10T14:29:35Z</time></trkpt><trkpt lat="44.31810990305006" lon="7.746731218547235"><ele>574.0</ele><time>2026-04-10T14:29:40Z</time></trkpt><trkpt lat="44.318137857956" lon="7.746649127145688"><ele>574.0</ele><time>2026-04-10T14:29:45Z</time></trkpt><trkpt lat="44.31812526546798" lon="7.746558755232484"><ele>574.1428571428571</ele><time>2026-04-10T14:29:49Z</time></trkpt><trkpt lat="44.31813007669048" lon="7.746463348626175"><ele>574.2857142857142</ele><time>2026-04-10T14:29:54.999Z</time></trkpt><trkpt lat="44.3182072347957" lon="7.746449858612035"><ele>574.4285714285714</ele><time>2026-04-10T14:29:57.999Z</time></trkpt><trkpt lat="44.3182140391836" lon="7.746354670678923"><ele>574.5714285714286</ele><time>2026-04-10T14:30:02.999Z</time></trkpt><trkpt lat="44.31826499541827" lon="7.746273090168393"><ele>574.7142857142857</ele><time>2026-04-10T14:30:07.999Z</time></trkpt><trkpt lat="44.31829136835777" lon="7.746176771102211"><ele>574.8571428571429</ele><time>2026-04-10T14:30:12.999Z</time></trkpt><trkpt lat="44.318304748927964" lon="7.746078526059451"><ele>575.0</ele><time>2026-04-10T14:30:17.999Z</time></trkpt><trkpt lat="44.31832093027812" lon="7.745989414319705"><ele>575.0</ele><time>2026-04-10T14:30:28.999Z</time></trkpt><trkpt lat="44.31833722537055" lon="7.745904071122139"><ele>575.0</ele><time>2026-04-10T14:30:36.999Z</time></trkpt><trkpt lat="44.31836104684248" lon="7.745754027475196"><ele>575.0</ele><time>2026-04-10T14:30:41.999Z</time></trkpt><trkpt lat="44.318325267091254" lon="7.745679951156037"><ele>575.0</ele><time>2026-04-10T14:30:46.999Z</time></trkpt><trkpt lat="44.31831501406705" lon="7.74557424560489"><ele>575.0</ele><time>2026-04-10T14:30:52.999Z</time></trkpt><trkpt lat="44.318315111677784" lon="7.7454795474239555"><ele>575.0</ele><time>2026-04-10T14:30:57.998Z</time></trkpt><trkpt lat="44.31832574681665" lon="7.745389754665586"><ele>575.0</ele><time>2026-04-10T14:31:02.998Z</time></trkpt><trkpt lat="44.31836476979423" lon="7.745302269951412"><ele>575.0</ele><time>2026-04-10T14:31:07.998Z</time></trkpt><trkpt lat="44.31838594146558" lon="7.745219282929106"><ele>575.0</ele><time>2026-04-10T14:31:12.998Z</time></trkpt><trkpt lat="44.31841816029071" lon="7.745140036557777"><ele>575.0</ele><time>2026-04-10T14:31:18Z</time></trkpt><trkpt lat="44.31844441437069" lon="7.7450442519768865"><ele>575.0</ele><time>2026-04-10T14:31:24Z</time></trkpt><trkpt lat="44.31846039069951" lon="7.7449477845244346"><ele>575.0</ele><time>2026-04-10T14:31:30Z</time></trkpt><trkpt lat="44.31848812442394" lon="7.744852833502525"><ele>575.0</ele><time>2026-04-10T14:31:36Z</time></trkpt><trkpt lat="44.318484883922515" lon="7.744758660137278"><ele>575.0</ele><time>2026-04-10T14:31:41Z</time></trkpt><trkpt lat="44.3184946221246" lon="7.744661295507599"><ele>575.1428571428571</ele><time>2026-04-10T14:31:47Z</time></trkpt><trkpt lat="44.31853392884232" lon="7.744578618635749"><ele>575.2857142857142</ele><time>2026-04-10T14:31:52Z</time></trkpt><trkpt lat="44.31854697101444" lon="7.744486095793908"><ele>575.4285714285714</ele><time>2026-04-10T14:31:57Z</time></trkpt><trkpt lat="44.31856615768958" lon="7.744393446495954"><ele>575.5714285714286</ele><time>2026-04-10T14:32:02.999Z</time></trkpt><trkpt lat="44.31854532245979" lon="7.744292663918507"><ele>575.7142857142858</ele><time>2026-04-10T14:32:07.999Z</time></trkpt><trkpt lat="44.3185273025351" lon="7.744187361007096"><ele>575.8571428571429</ele><time>2026-04-10T14:32:14.999Z</time></trkpt><trkpt lat="44.318492954534705" lon="7.744106282043965"><ele>576.0</ele><time>2026-04-10T14:32:20.999Z</time></trkpt><trkpt lat="44.318506422539556" lon="7.744019170088721"><ele>576.0000000000001</ele><time>2026-04-10T14:32:24.999Z</time></trkpt><trkpt lat="44.318485637762244" lon="7.743925911566154"><ele>576.0</ele><time>2026-04-10T14:32:29.999Z</time></trkpt><trkpt lat="44.31848773678066" lon="7.743819024943678"><ele>576.0</ele><time>2026-04-10T14:32:35.999Z</time></trkpt><trkpt lat="44.318474984775605" lon="7.743714139652273"><ele>576.0</ele><time>2026-04-10T14:32:41.999Z</time></trkpt><trkpt lat="44.318466340869286" lon="7.7436265577228784"><ele>576.0</ele><time>2026-04-10T14:32:46.999Z</time></trkpt><trkpt lat="44.31845775703035" lon="7.74351780511954"><ele>576.0000000000001</ele><time>2026-04-10T14:32:52.999Z</time></trkpt><trkpt lat="44.31843671608618" lon="7.743433941863044"><ele>576.0</ele><time>2026-04-10T14:32:57.999Z</time></trkpt><trkpt lat="44.31842188207355" lon="7.743331027916899"><ele>576.0000000000001</ele><time>2026-04-10T14:33:03.998Z</time></trkpt><trkpt lat="44.31839711419275" lon="7.7432369960793315"><ele>576.0</ele><time>2026-04-10T14:33:09.998Z</time></trkpt><trkpt lat="44.31836892882607" lon="7.7431496347730375"><ele>576.0</ele><time>2026-04-10T14:33:14.998Z</time></trkpt><trkpt lat="44.318325107174985" lon="7.743066929902461"><ele>576.0</ele><time>2026-04-10T14:33:20.998Z</time></trkpt><trkpt lat="44.318310500129485" lon="7.74297764199548"><ele>576.0</ele><time>2026-04-10T14:33:27Z</time></trkpt><trkpt lat="44.31828312541173" lon="7.742887499908875"><ele>576.0000000000001</ele><time>2026-04-10T14:33:33Z</time></trkpt><trkpt lat="44.31821508317292" lon="7.742849798448382"><ele>576.0</ele><time>2026-04-10T14:33:37Z</time></trkpt><trkpt lat="44.31813961334245" lon="7.7428081743905075"><ele>576.0000000000001</ele><time>2026-04-10T14:33:41Z</time></trkpt><trkpt lat="44.31808084728652" lon="7.742773994831101"><ele>576.0</ele><time>2026-04-10T14:33:46Z</time></trkpt><trkpt lat="44.31801473292262" lon="7.742728555916898"><ele>576.0</ele><time>2026-04-10T14:33:51Z</time></trkpt><trkpt lat="44.31795471013836" lon="7.74269355542594"><ele>576.0</ele><time>2026-04-10T14:33:56Z</time></trkpt><trkpt lat="44.31790599116915" lon="7.742616770424216"><ele>576.0</ele><time>2026-04-10T14:34:02Z</time></trkpt><trkpt lat="44.31786187744439" lon="7.742547435992665"><ele>576.0000000000001</ele><time>2026-04-10T14:34:05.999Z</time></trkpt><trkpt lat="44.3178244536329" lon="7.7424758746888305"><ele>576.0</ele><time>2026-04-10T14:34:10.999Z</time></trkpt><trkpt lat="44.31782660680694" lon="7.742371166785474"><ele>576.1428571428572</ele><time>2026-04-10T14:34:17.999Z</time></trkpt><trkpt lat="44.31780961397964" lon="7.742276701017214"><ele>576.2857142857143</ele><time>2026-04-10T14:34:23.999Z</time></trkpt><trkpt lat="44.31777980115111" lon="7.742184954804779"><ele>576.4285714285714</ele><time>2026-04-10T14:34:31.999Z</time></trkpt><trkpt lat="44.31775609690432" lon="7.742102225184306"><ele>576.5714285714287</ele><time>2026-04-10T14:34:38.999Z</time></trkpt><trkpt lat="44.317748978536265" lon="7.742013408978573"><ele>576.7142857142858</ele><time>2026-04-10T14:34:45.999Z</time></trkpt><trkpt lat="44.31768829800582" lon="7.741965201331672"><ele>576.8571428571429</ele><time>2026-04-10T14:34:51.999Z</time></trkpt><trkpt lat="44.317643406758926" lon="7.741876045886655"><ele>577.0</ele><time>2026-04-10T14:34:55.999Z</time></trkpt><trkpt lat="44.31762189779871" lon="7.741792666522301"><ele>577.2857142857142</ele><time>2026-04-10T14:35:01.999Z</time></trkpt><trkpt lat="44.31759963623849" lon="7.74170224122223"><ele>577.5714285714286</ele><time>2026-04-10T14:35:07.998Z</time></trkpt><trkpt lat="44.317560240941624" lon="7.741619685519297"><ele>577.8571428571429</ele><time>2026-04-10T14:35:12.998Z</time></trkpt><trkpt lat="44.31755171906507" lon="7.741531464965642"><ele>578.1428571428571</ele><time>2026-04-10T14:35:17.998Z</time></trkpt><trkpt lat="44.317519159585025" lon="7.741446514927583"><ele>578.4285714285714</ele><time>2026-04-10T14:35:22.998Z</time></trkpt><trkpt lat="44.317498495540555" lon="7.741354270668865"><ele>578.7142857142857</ele><time>2026-04-10T14:35:30Z</time></trkpt><trkpt lat="44.317461059224925" lon="7.741269604991846"><ele>579.0</ele><time>2026-04-10T14:35:35Z</time></trkpt><trkpt lat="44.31743785548517" lon="7.741165963000662"><ele>578.9999999999999</ele><time>2026-04-10T14:35:42Z</time></trkpt><trkpt lat="44.31742314985406" lon="7.741074081650563"><ele>579.0</ele><time>2026-04-10T14:35:47Z</time></trkpt><trkpt lat="44.31738304800067" lon="7.741002906233109"><ele>579.0</ele><time>2026-04-10T14:35:52Z</time></trkpt><trkpt lat="44.31735321695188" lon="7.740912127268271"><ele>579.0</ele><time>2026-04-10T14:35:58Z</time></trkpt><trkpt lat="44.317363561029204" lon="7.740807070113512"><ele>579.0</ele><time>2026-04-10T14:36:04Z</time></trkpt><trkpt lat="44.31734542223866" lon="7.740715501307358"><ele>578.9999999999999</ele><time>2026-04-10T14:36:08Z</time></trkpt><trkpt lat="44.31732143242192" lon="7.74062075658994"><ele>579.0</ele><time>2026-04-10T14:36:12.999Z</time></trkpt><trkpt lat="44.31729598394099" lon="7.740539082535072"><ele>578.9999999999999</ele><time>2026-04-10T14:36:16.999Z</time></trkpt><trkpt lat="44.31726522307324" lon="7.740448409696598"><ele>579.0</ele><time>2026-04-10T14:36:20.999Z</time></trkpt><trkpt lat="44.317243763577366" lon="7.740359169677931"><ele>579.0</ele><time>2026-04-10T14:36:24.999Z</time></trkpt><trkpt lat="44.317216085730884" lon="7.740270642021099"><ele>579.0</ele><time>2026-04-10T14:36:29.999Z</time></trkpt><trkpt lat="44.31718332032213" lon="7.740170557561668"><ele>579.0</ele><time>2026-04-10T14:36:34.999Z</time></trkpt><trkpt lat="44.31715604573923" lon="7.740062790828269"><ele>578.9999999999999</ele><time>2026-04-10T14:36:41.999Z</time></trkpt><trkpt lat="44.31713665405641" lon="7.739974640963889"><ele>579.0</ele><time>2026-04-10T14:36:47.999Z</time></trkpt><trkpt lat="44.31711176196171" lon="7.73988046228737"><ele>578.9999999999999</ele><time>2026-04-10T14:36:53.999Z</time></trkpt><trkpt lat="44.31708861967134" lon="7.739797705790965"><ele>579.0</ele><time>2026-04-10T14:36:57.999Z</time></trkpt><trkpt lat="44.317067506610734" lon="7.739707535251935"><ele>579.0</ele><time>2026-04-10T14:37:02.999Z</time></trkpt><trkpt lat="44.317034189263424" lon="7.739611902488938"><ele>579.0</ele><time>2026-04-10T14:37:07.999Z</time></trkpt><trkpt lat="44.31699577891007" lon="7.739520066391375"><ele>579.0</ele><time>2026-04-10T14:37:13.998Z</time></trkpt><trkpt lat="44.31697638795714" lon="7.7394347929064855"><ele>578.9999999999999</ele><time>2026-04-10T14:37:18.998Z</time></trkpt><trkpt lat="44.31696151660623" lon="7.739340237905454"><ele>579.0</ele><time>2026-04-10T14:37:23.998Z</time></trkpt><trkpt lat="44.31693760321512" lon="7.73923552160454"><ele>578.8571428571428</ele><time>2026-04-10T14:37:29.998Z</time></trkpt><trkpt lat="44.31691839791105" lon="7.739128063516954"><ele>578.7142857142857</ele><time>2026-04-10T14:37:36Z</time></trkpt><trkpt lat="44.316938249691596" lon="7.739028549876927"><ele>578.5714285714286</ele><time>2026-04-10T14:37:41Z</time></trkpt><trkpt lat="44.316940138721584" lon="7.738930515672835"><ele>578.4285714285713</ele><time>2026-04-10T14:37:46Z</time></trkpt><trkpt lat="44.316915710317886" lon="7.738848215389741"><ele>578.2857142857142</ele><time>2026-04-10T14:37:51Z</time></trkpt><trkpt lat="44.316893278283935" lon="7.738760939333051"><ele>578.1428571428571</ele><time>2026-04-10T14:37:57Z</time></trkpt><trkpt lat="44.31686822065352" lon="7.738660767118846"><ele>578.0</ele><time>2026-04-10T14:38:04Z</time></trkpt><trkpt lat="44.31685536357356" lon="7.738562469503933"><ele>578.2857142857143</ele><time>2026-04-10T14:38:10Z</time></trkpt><trkpt lat="44.316821741213175" lon="7.738477976370636"><ele>578.5714285714286</ele><time>2026-04-10T14:38:15Z</time></trkpt><trkpt lat="44.3167947186651" lon="7.738390863357626"><ele>578.8571428571429</ele><time>2026-04-10T14:38:19.999Z</time></trkpt><trkpt lat="44.31677364679238" lon="7.738299434868999"><ele>579.1428571428571</ele><time>2026-04-10T14:38:24.999Z</time></trkpt><trkpt lat="44.3167642484799" lon="7.7382015416678405"><ele>579.4285714285714</ele><time>2026-04-10T14:38:29.999Z</time></trkpt><trkpt lat="44.31674758819823" lon="7.738107285590841"><ele>579.7142857142858</ele><time>2026-04-10T14:38:34.999Z</time></trkpt><trkpt lat="44.31681052329279" lon="7.7380821847217724"><ele>580.0</ele><time>2026-04-10T14:38:41.999Z</time></trkpt><trkpt lat="44.31687631556831" lon="7.738129671715846"><ele>580.0</ele><time>2026-04-10T14:38:53.999Z</time></trkpt><trkpt lat="44.31695215183548" lon="7.7380498590220155"><ele>580.0</ele><time>2026-04-10T14:40:18Z</time></trkpt><trkpt lat="44.31691416195326" lon="7.737964299774354"><ele>580.0</ele><time>2026-04-10T14:40:19Z</time></trkpt><trkpt lat="44.316903010539754" lon="7.7380551035854745"><ele>580.0</ele><time>2026-04-10T14:40:35.999Z</time></trkpt><trkpt lat="44.31688232592166" lon="7.737924381645062"><ele>580.0</ele><time>2026-04-10T14:43:33.998Z</time></trkpt><trkpt lat="44.31682593817604" lon="7.738024909627967"><ele>580.0</ele><time>2026-04-10T14:44:00Z</time></trkpt><trkpt lat="44.31684058158383" lon="7.73785696779724"><ele>580.0</ele><time>2026-04-10T14:50:10Z</time></trkpt><trkpt lat="44.316894841824165" lon="7.737951090162201"><ele>580.0</ele><time>2026-04-10T14:53:33.999Z</time></trkpt><trkpt lat="44.316863678275546" lon="7.738068549247001"><ele>580.0</ele><time>2026-04-10T15:12:52.998Z</time></trkpt><trkpt lat="44.3169205585482" lon="7.738002901409711"><ele>580.0</ele><time>2026-04-10T15:24:09Z</time></trkpt><trkpt lat="44.316584751982774" lon="7.737700184814387"><ele>580.0</ele><time>2026-04-10T15:27:43.998Z</time></trkpt><trkpt lat="44.31675804783085" lon="7.738052727661782"><ele>580.0</ele><time>2026-04-10T15:27:49.998Z</time></trkpt><trkpt lat="44.3170242707941" lon="7.7380349628223"><ele>580.0</ele><time>2026-04-10T15:28:16Z</time></trkpt><trkpt lat="44.31696121183821" lon="7.738010858966911"><ele>580.0</ele><time>2026-04-10T15:28:33Z</time></trkpt><trkpt lat="44.316944644778026" lon="7.738105255934649"><ele>580.0</ele><time>2026-04-10T15:28:47.999Z</time></trkpt><trkpt lat="44.31700421017772" lon="7.7380748732031535"><ele>580.0</ele><time>2026-04-10T15:28:51.999Z</time></trkpt><trkpt lat="44.31705901264512" lon="7.738131055480814"><ele>580.0</ele><time>2026-04-10T15:28:57.999Z</time></trkpt><trkpt lat="44.31707583349059" lon="7.738244601924239"><ele>580.0</ele><time>2026-04-10T15:29:17.999Z</time></trkpt><trkpt lat="44.317016520332515" lon="7.7381807535668825"><ele>580.0</ele><time>2026-04-10T15:29:34.999Z</time></trkpt><trkpt lat="44.3169679475639" lon="7.73811958353966"><ele>580.0</ele><time>2026-04-10T15:30:04Z</time></trkpt><trkpt lat="44.316950110743456" lon="7.738024661080512"><ele>580.0</ele><time>2026-04-10T15:30:07Z</time></trkpt><trkpt lat="44.31686250680926" lon="7.738067958506256"><ele>580.0</ele><time>2026-04-10T15:30:10Z</time></trkpt><trkpt lat="44.3168023254997" lon="7.738101350048389"><ele>580.0</ele><time>2026-04-10T15:30:12Z</time></trkpt><trkpt lat="44.31671443731256" lon="7.738105952916912"><ele>580.0</ele><time>2026-04-10T15:30:15Z</time></trkpt><trkpt lat="44.31671976835813" lon="7.7382088432359035"><ele>580.0</ele><time>2026-04-10T15:30:32Z</time></trkpt><trkpt lat="44.31673173580008" lon="7.738299963698432"><ele>580.0</ele><time>2026-04-10T15:30:33Z</time></trkpt><trkpt lat="44.31678574767146" lon="7.738454033940479"><ele>580.0</ele><time>2026-04-10T15:30:35Z</time></trkpt><trkpt lat="44.316806820060464" lon="7.738561250787214"><ele>580.0</ele><time>2026-04-10T15:30:36Z</time></trkpt><trkpt lat="44.31684511914809" lon="7.738686877270967"><ele>580.0</ele><time>2026-04-10T15:30:37Z</time></trkpt><trkpt lat="44.31687928517524" lon="7.738814434999994"><ele>580.0</ele><time>2026-04-10T15:30:38Z</time></trkpt><trkpt lat="44.31691775062664" lon="7.738954060824943"><ele>579.8</ele><time>2026-04-10T15:30:39Z</time></trkpt><trkpt lat="44.31693579975504" lon="7.739089897480904"><ele>579.6</ele><time>2026-04-10T15:30:40Z</time></trkpt><trkpt lat="44.316971713815725" lon="7.739209859925014"><ele>579.4</ele><time>2026-04-10T15:30:41Z</time></trkpt><trkpt lat="44.317010906297305" lon="7.739333246281302"><ele>579.2</ele><time>2026-04-10T15:30:42Z</time></trkpt><trkpt lat="44.31704563736633" lon="7.739467348771602"><ele>579.0</ele><time>2026-04-10T15:30:43Z</time></trkpt><trkpt lat="44.31707897647993" lon="7.739610201378048"><ele>579.0</ele><time>2026-04-10T15:30:44Z</time></trkpt><trkpt lat="44.317110843676744" lon="7.7397421646329505"><ele>579.0</ele><time>2026-04-10T15:30:44.999Z</time></trkpt><trkpt lat="44.317151127373776" lon="7.739873184124522"><ele>579.0</ele><time>2026-04-10T15:30:45.999Z</time></trkpt><trkpt lat="44.31718245734474" lon="7.740017341433301"><ele>579.0</ele><time>2026-04-10T15:30:46.999Z</time></trkpt><trkpt lat="44.31722328555511" lon="7.740166066476983"><ele>579.0</ele><time>2026-04-10T15:30:47.999Z</time></trkpt><trkpt lat="44.31726458041998" lon="7.740309646694909"><ele>578.8</ele><time>2026-04-10T15:30:48.999Z</time></trkpt><trkpt lat="44.317300435284245" lon="7.740450950496238"><ele>578.5999999999999</ele><time>2026-04-10T15:30:49.999Z</time></trkpt><trkpt lat="44.31734021686227" lon="7.740593012924182"><ele>578.4</ele><time>2026-04-10T15:30:50.999Z</time></trkpt><trkpt lat="44.31738439504246" lon="7.740734900024225"><ele>578.1999999999999</ele><time>2026-04-10T15:30:51.999Z</time></trkpt><trkpt lat="44.31742518934985" lon="7.740885239151728"><ele>578.0</ele><time>2026-04-10T15:30:52.999Z</time></trkpt><trkpt lat="44.31746652391963" lon="7.741018478018232"><ele>578.1999999999999</ele><time>2026-04-10T15:30:53.999Z</time></trkpt><trkpt lat="44.31750678282536" lon="7.741152546528369"><ele>578.4</ele><time>2026-04-10T15:30:54.999Z</time></trkpt><trkpt lat="44.31754299146188" lon="7.741284705708798"><ele>578.5999999999999</ele><time>2026-04-10T15:30:55.999Z</time></trkpt><trkpt lat="44.317580228940656" lon="7.741419741512493"><ele>578.8</ele><time>2026-04-10T15:30:56.999Z</time></trkpt><trkpt lat="44.317614379002165" lon="7.741557567667385"><ele>579.0</ele><time>2026-04-10T15:30:57.999Z</time></trkpt><trkpt lat="44.317652996963915" lon="7.7416919302453"><ele>579.0</ele><time>2026-04-10T15:30:58.999Z</time></trkpt><trkpt lat="44.317693881096744" lon="7.741829498095869"><ele>579.0</ele><time>2026-04-10T15:30:59.999Z</time></trkpt><trkpt lat="44.31773106686044" lon="7.7419563415005355"><ele>579.0</ele><time>2026-04-10T15:31:00.999Z</time></trkpt><trkpt lat="44.3177694290354" lon="7.742069800327902"><ele>579.0</ele><time>2026-04-10T15:31:01.999Z</time></trkpt><trkpt lat="44.317809224359316" lon="7.742174507025253"><ele>579.0</ele><time>2026-04-10T15:31:02.999Z</time></trkpt><trkpt lat="44.31784443402745" lon="7.7422794277522575"><ele>578.8</ele><time>2026-04-10T15:31:03.999Z</time></trkpt><trkpt lat="44.31786929626658" lon="7.7423846328253"><ele>578.5999999999999</ele><time>2026-04-10T15:31:04.999Z</time></trkpt><trkpt lat="44.31789227141263" lon="7.742481802347932"><ele>578.4</ele><time>2026-04-10T15:31:05.999Z</time></trkpt><trkpt lat="44.317920315831124" lon="7.742579929533571"><ele>578.1999999999999</ele><time>2026-04-10T15:31:06.999Z</time></trkpt><trkpt lat="44.31800966044997" lon="7.742726024309238"><ele>578.0</ele><time>2026-04-10T15:31:08.999Z</time></trkpt><trkpt lat="44.31808762087298" lon="7.742792660597465"><ele>577.6</ele><time>2026-04-10T15:31:09.999Z</time></trkpt><trkpt lat="44.31817569682091" lon="7.74285829346734"><ele>577.1999999999999</ele><time>2026-04-10T15:31:10.999Z</time></trkpt><trkpt lat="44.31826978959975" lon="7.7429303495728075"><ele>576.8</ele><time>2026-04-10T15:31:11.999Z</time></trkpt><trkpt lat="44.318357447492986" lon="7.742995269976301"><ele>576.4</ele><time>2026-04-10T15:31:12.999Z</time></trkpt><trkpt lat="44.318444437247635" lon="7.7430592294772"><ele>576.0</ele><time>2026-04-10T15:31:13.999Z</time></trkpt><trkpt lat="44.31854077275979" lon="7.7431295872767345"><ele>576.0</ele><time>2026-04-10T15:31:14.999Z</time></trkpt><trkpt lat="44.318636094107106" lon="7.7431962367369795"><ele>576.0</ele><time>2026-04-10T15:31:15.999Z</time></trkpt><trkpt lat="44.31873961797112" lon="7.7432647625089315"><ele>576.0</ele><time>2026-04-10T15:31:16.999Z</time></trkpt><trkpt lat="44.3188428137757" lon="7.743338598554833"><ele>576.0</ele><time>2026-04-10T15:31:17.999Z</time></trkpt><trkpt lat="44.31895039621759" lon="7.743418975412732"><ele>575.25</ele><time>2026-04-10T15:31:18.999Z</time></trkpt><trkpt lat="44.31904795842025" lon="7.743497469380384"><ele>574.5</ele><time>2026-04-10T15:31:19.999Z</time></trkpt><trkpt lat="44.31916706344959" lon="7.743584780437538"><ele>573.75</ele><time>2026-04-10T15:31:20.999Z</time></trkpt><trkpt lat="44.31928132165561" lon="7.743666605428636"><ele>573.0</ele><time>2026-04-10T15:31:21.999Z</time></trkpt><trkpt lat="44.31940454813976" lon="7.743754257704036"><ele>572.75</ele><time>2026-04-10T15:31:22.999Z</time></trkpt><trkpt lat="44.31953563647091" lon="7.7438521157417375"><ele>572.5</ele><time>2026-04-10T15:31:23.999Z</time></trkpt><trkpt lat="44.31964967163213" lon="7.7439389221659685"><ele>572.25</ele><time>2026-04-10T15:31:24.999Z</time></trkpt><trkpt lat="44.31976416566401" lon="7.744025359308938"><ele>572.0</ele><time>2026-04-10T15:31:25.999Z</time></trkpt><trkpt lat="44.31989525212717" lon="7.744115834259211"><ele>571.25</ele><time>2026-04-10T15:31:26.999Z</time></trkpt><trkpt lat="44.32000132807514" lon="7.744202407063474"><ele>570.5</ele><time>2026-04-10T15:31:27.999Z</time></trkpt><trkpt lat="44.32012400318719" lon="7.744292621421439"><ele>569.75</ele><time>2026-04-10T15:31:28.999Z</time></trkpt><trkpt lat="44.32024933697947" lon="7.744384202725667"><ele>569.0</ele><time>2026-04-10T15:31:29.999Z</time></trkpt><trkpt lat="44.320367938864976" lon="7.744474828144322"><ele>569.0</ele><time>2026-04-10T15:31:30.999Z</time></trkpt><trkpt lat="44.32048849026931" lon="7.744565385230926"><ele>569.0</ele><time>2026-04-10T15:31:31.999Z</time></trkpt><trkpt lat="44.320617677118626" lon="7.74466171243996"><ele>569.0</ele><time>2026-04-10T15:31:32.999Z</time></trkpt><trkpt lat="44.3207439912663" lon="7.744754943593594"><ele>569.0</ele><time>2026-04-10T15:31:33.999Z</time></trkpt><trkpt lat="44.32086276911173" lon="7.744844532823787"><ele>568.5</ele><time>2026-04-10T15:31:34.999Z</time></trkpt><trkpt lat="44.32097717734859" lon="7.744930418275636"><ele>568.0</ele><time>2026-04-10T15:31:35.999Z</time></trkpt><trkpt lat="44.32110444174676" lon="7.745025702797805"><ele>567.5</ele><time>2026-04-10T15:31:36.999Z</time></trkpt><trkpt lat="44.32122648792886" lon="7.745113736544889"><ele>567.0</ele><time>2026-04-10T15:31:37.999Z</time></trkpt><trkpt lat="44.32135006712641" lon="7.745202686845097"><ele>566.5</ele><time>2026-04-10T15:31:38.999Z</time></trkpt><trkpt lat="44.321467716546124" lon="7.7452894093919795"><ele>566.0</ele><time>2026-04-10T15:31:39.999Z</time></trkpt><trkpt lat="44.321581812568375" lon="7.745375731274733"><ele>565.5</ele><time>2026-04-10T15:31:40.999Z</time></trkpt><trkpt lat="44.321707520378354" lon="7.745470345224593"><ele>565.0</ele><time>2026-04-10T15:31:41.998Z</time></trkpt><trkpt lat="44.32182421959134" lon="7.745556038297982"><ele>565.0</ele><time>2026-04-10T15:31:42.998Z</time></trkpt><trkpt lat="44.321944697253855" lon="7.7456457270358205"><ele>565.0</ele><time>2026-04-10T15:31:43.998Z</time></trkpt><trkpt lat="44.322064218208645" lon="7.745738905630927"><ele>565.0</ele><time>2026-04-10T15:31:44.998Z</time></trkpt><trkpt lat="44.32218519383564" lon="7.745826558008338"><ele>565.0</ele><time>2026-04-10T15:31:45.998Z</time></trkpt><trkpt lat="44.32230799027239" lon="7.74591550687924"><ele>564.75</ele><time>2026-04-10T15:31:46.998Z</time></trkpt><trkpt lat="44.32243167245523" lon="7.746004692872515"><ele>564.5</ele><time>2026-04-10T15:31:47.998Z</time></trkpt><trkpt lat="44.32255407728692" lon="7.746095147375557"><ele>564.25</ele><time>2026-04-10T15:31:48.998Z</time></trkpt><trkpt lat="44.322679608988956" lon="7.746186394019915"><ele>564.0</ele><time>2026-04-10T15:31:49.998Z</time></trkpt><trkpt lat="44.32281018179624" lon="7.746282960800422"><ele>563.5</ele><time>2026-04-10T15:31:50.998Z</time></trkpt><trkpt lat="44.32293925580979" lon="7.746377537256967"><ele>563.0</ele><time>2026-04-10T15:31:51.998Z</time></trkpt><trkpt lat="44.32307162935855" lon="7.746475600859984"><ele>562.5</ele><time>2026-04-10T15:31:52.998Z</time></trkpt><trkpt lat="44.323207552768096" lon="7.746575163144579"><ele>562.0</ele><time>2026-04-10T15:31:53.998Z</time></trkpt><trkpt lat="44.32334574839613" lon="7.746679797451724"><ele>561.6666666666667</ele><time>2026-04-10T15:31:54.998Z</time></trkpt><trkpt lat="44.32348623566867" lon="7.746783962535154"><ele>561.3333333333334</ele><time>2026-04-10T15:31:55.998Z</time></trkpt><trkpt lat="44.323632790062284" lon="7.746893720148491"><ele>561.0</ele><time>2026-04-10T15:31:56.998Z</time></trkpt><trkpt lat="44.32378247776141" lon="7.7470072192780055"><ele>559.3333333333334</ele><time>2026-04-10T15:31:57.998Z</time></trkpt><trkpt lat="44.32393567804884" lon="7.747120496497026"><ele>557.6666666666667</ele><time>2026-04-10T15:31:58.998Z</time></trkpt><trkpt lat="44.32408734489296" lon="7.747231797221489"><ele>556.0</ele><time>2026-04-10T15:31:59.998Z</time></trkpt><trkpt lat="44.32424623824343" lon="7.747350544992011"><ele>556.0</ele><time>2026-04-10T15:32:00.998Z</time></trkpt><trkpt lat="44.32441646401132" lon="7.7474592392007375"><ele>556.0</ele><time>2026-04-10T15:32:01.998Z</time></trkpt><trkpt lat="44.3245769119608" lon="7.747603084260477"><ele>556.0</ele><time>2026-04-10T15:32:02.998Z</time></trkpt><trkpt lat="44.32476070455369" lon="7.747714961860828"><ele>555.6666666666667</ele><time>2026-04-10T15:32:03.998Z</time></trkpt><trkpt lat="44.32491878234734" lon="7.747845311116208"><ele>555.3333333333334</ele><time>2026-04-10T15:32:04.998Z</time></trkpt><trkpt lat="44.32507936985287" lon="7.747966633474423"><ele>555.0</ele><time>2026-04-10T15:32:05.998Z</time></trkpt><trkpt lat="44.32524025162804" lon="7.7480895209902165"><ele>555.0</ele><time>2026-04-10T15:32:06.998Z</time></trkpt><trkpt lat="44.32539847258127" lon="7.748205918350892"><ele>555.0</ele><time>2026-04-10T15:32:07.998Z</time></trkpt><trkpt lat="44.325556906476294" lon="7.748321578374282"><ele>555.0</ele><time>2026-04-10T15:32:08.998Z</time></trkpt><trkpt lat="44.325714241923414" lon="7.748437866260742"><ele>554.0</ele><time>2026-04-10T15:32:10Z</time></trkpt><trkpt lat="44.32587005021466" lon="7.7485557453123555"><ele>553.0</ele><time>2026-04-10T15:32:11Z</time></trkpt><trkpt lat="44.3260242575101" lon="7.748671876549666"><ele>552.0</ele><time>2026-04-10T15:32:12Z</time></trkpt><trkpt lat="44.32617866245839" lon="7.748788900270387"><ele>552.0</ele><time>2026-04-10T15:32:13Z</time></trkpt><trkpt lat="44.32633432145766" lon="7.748907927851959"><ele>552.0</ele><time>2026-04-10T15:32:14Z</time></trkpt><trkpt lat="44.326488590752874" lon="7.749027791142634"><ele>552.0</ele><time>2026-04-10T15:32:15Z</time></trkpt><trkpt lat="44.32664284913955" lon="7.749151432151597"><ele>551.0</ele><time>2026-04-10T15:32:16Z</time></trkpt><trkpt lat="44.3267969944049" lon="7.749282419373304"><ele>550.0</ele><time>2026-04-10T15:32:17Z</time></trkpt><trkpt lat="44.32693929731205" lon="7.7494056976199275"><ele>549.0</ele><time>2026-04-10T15:32:18Z</time></trkpt><trkpt lat="44.3270817731459" lon="7.749533120299498"><ele>549.0</ele><time>2026-04-10T15:32:19Z</time></trkpt><trkpt lat="44.32722348782128" lon="7.74966317844007"><ele>549.0</ele><time>2026-04-10T15:32:20Z</time></trkpt><trkpt lat="44.327364520617635" lon="7.749795634620357"><ele>549.0</ele><time>2026-04-10T15:32:21Z</time></trkpt><trkpt lat="44.32750329582096" lon="7.749929559175469"><ele>548.6666666666666</ele><time>2026-04-10T15:32:22Z</time></trkpt><trkpt lat="44.32764142099952" lon="7.750064896950799"><ele>548.3333333333333</ele><time>2026-04-10T15:32:23Z</time></trkpt><trkpt lat="44.32778227896023" lon="7.750209208770408"><ele>548.0</ele><time>2026-04-10T15:32:24Z</time></trkpt><trkpt lat="44.32792095745021" lon="7.750353323696069"><ele>546.3333333333333</ele><time>2026-04-10T15:32:25Z</time></trkpt><trkpt lat="44.32806025173792" lon="7.750499355757319"><ele>544.6666666666666</ele><time>2026-04-10T15:32:26Z</time></trkpt><trkpt lat="44.328197772238454" lon="7.75064515321693"><ele>543.0</ele><time>2026-04-10T15:32:27Z</time></trkpt><trkpt lat="44.32834069069864" lon="7.75079908471812"><ele>543.0</ele><time>2026-04-10T15:32:28Z</time></trkpt><trkpt lat="44.32848038306115" lon="7.750951311022688"><ele>543.0</ele><time>2026-04-10T15:32:29Z</time></trkpt><trkpt lat="44.32862063467567" lon="7.7511056565041585"><ele>543.0</ele><time>2026-04-10T15:32:30Z</time></trkpt><trkpt lat="44.32876010610523" lon="7.751260673808031"><ele>542.3333333333334</ele><time>2026-04-10T15:32:31Z</time></trkpt><trkpt lat="44.328898082231305" lon="7.751410405374673"><ele>541.6666666666667</ele><time>2026-04-10T15:32:32Z</time></trkpt><trkpt lat="44.32902690668689" lon="7.751548472670589"><ele>541.0</ele><time>2026-04-10T15:32:33Z</time></trkpt><trkpt lat="44.32915039822828" lon="7.751686202026238"><ele>541.0</ele><time>2026-04-10T15:32:34Z</time></trkpt><trkpt lat="44.32927902360829" lon="7.751824531368132"><ele>541.0</ele><time>2026-04-10T15:32:35Z</time></trkpt><trkpt lat="44.32941622174287" lon="7.751965968604414"><ele>541.0</ele><time>2026-04-10T15:32:36Z</time></trkpt><trkpt lat="44.32954763924342" lon="7.752110977739232"><ele>540.0</ele><time>2026-04-10T15:32:37Z</time></trkpt><trkpt lat="44.329691427565194" lon="7.752258646771696"><ele>539.0</ele><time>2026-04-10T15:32:38Z</time></trkpt><trkpt lat="44.329830371264045" lon="7.752411002006706"><ele>538.0</ele><time>2026-04-10T15:32:39Z</time></trkpt><trkpt lat="44.329971992946625" lon="7.752563138847456"><ele>535.6666666666667</ele><time>2026-04-10T15:32:40Z</time></trkpt><trkpt lat="44.330115507179464" lon="7.7527196891969465"><ele>533.3333333333334</ele><time>2026-04-10T15:32:41Z</time></trkpt><trkpt lat="44.33025901943526" lon="7.752873090177906"><ele>531.0</ele><time>2026-04-10T15:32:42Z</time></trkpt><trkpt lat="44.33040221754058" lon="7.753027725849369"><ele>531.0</ele><time>2026-04-10T15:32:43Z</time></trkpt><trkpt lat="44.3305475085587" lon="7.753182158771333"><ele>531.0</ele><time>2026-04-10T15:32:44Z</time></trkpt><trkpt lat="44.330691687492745" lon="7.753337730455803"><ele>531.0</ele><time>2026-04-10T15:32:45Z</time></trkpt><trkpt lat="44.33083655340862" lon="7.753492971714891"><ele>531.0</ele><time>2026-04-10T15:32:46Z</time></trkpt><trkpt lat="44.33098153787445" lon="7.753652466488973"><ele>531.0</ele><time>2026-04-10T15:32:47Z</time></trkpt><trkpt lat="44.33112490389008" lon="7.75381423988304"><ele>531.0</ele><time>2026-04-10T15:32:47.999Z</time></trkpt><trkpt lat="44.33126397704756" lon="7.753967475837524"><ele>530.3333333333334</ele><time>2026-04-10T15:32:48.999Z</time></trkpt><trkpt lat="44.33140992150343" lon="7.754121940591449"><ele>529.6666666666667</ele><time>2026-04-10T15:32:49.999Z</time></trkpt><trkpt lat="44.33155169318005" lon="7.754273507702194"><ele>529.0</ele><time>2026-04-10T15:32:50.999Z</time></trkpt><trkpt lat="44.33168828713239" lon="7.754424042255405"><ele>529.0</ele><time>2026-04-10T15:32:51.999Z</time></trkpt><trkpt lat="44.331824104152105" lon="7.754572930596863"><ele>529.0</ele><time>2026-04-10T15:32:52.999Z</time></trkpt><trkpt lat="44.33195843982424" lon="7.754723484177571"><ele>529.0</ele><time>2026-04-10T15:32:53.999Z</time></trkpt><trkpt lat="44.33208611101821" lon="7.754872526823595"><ele>529.0</ele><time>2026-04-10T15:32:54.999Z</time></trkpt><trkpt lat="44.332213325763355" lon="7.755021688041781"><ele>529.0</ele><time>2026-04-10T15:32:55.999Z</time></trkpt><trkpt lat="44.33234263383087" lon="7.755173884809441"><ele>529.0</ele><time>2026-04-10T15:32:56.999Z</time></trkpt><trkpt lat="44.33247456595486" lon="7.755332013235433"><ele>529.3333333333334</ele><time>2026-04-10T15:32:57.999Z</time></trkpt><trkpt lat="44.33261059223073" lon="7.755495369944544"><ele>529.6666666666666</ele><time>2026-04-10T15:32:58.999Z</time></trkpt><trkpt lat="44.332751121484435" lon="7.755662178039523"><ele>530.0</ele><time>2026-04-10T15:32:59.999Z</time></trkpt><trkpt lat="44.33289557669283" lon="7.755831096350772"><ele>530.0</ele><time>2026-04-10T15:33:00.999Z</time></trkpt><trkpt lat="44.333042819133375" lon="7.7560022552600705"><ele>530.0</ele><time>2026-04-10T15:33:01.999Z</time></trkpt><trkpt lat="44.33319179108358" lon="7.756176095418774"><ele>530.0</ele><time>2026-04-10T15:33:02.999Z</time></trkpt><trkpt lat="44.33333253529075" lon="7.756373885199457"><ele>529.6666666666666</ele><time>2026-04-10T15:33:03.999Z</time></trkpt><trkpt lat="44.333482417891226" lon="7.756555740129834"><ele>529.3333333333334</ele><time>2026-04-10T15:33:04.999Z</time></trkpt><trkpt lat="44.33362444469299" lon="7.756728106900661"><ele>529.0</ele><time>2026-04-10T15:33:05.999Z</time></trkpt><trkpt lat="44.33377092954445" lon="7.756901344871804"><ele>528.3333333333334</ele><time>2026-04-10T15:33:06.999Z</time></trkpt><trkpt lat="44.33393042008804" lon="7.75704747834979"><ele>527.6666666666666</ele><time>2026-04-10T15:33:07.999Z</time></trkpt><trkpt lat="44.33407764713645" lon="7.757219919110809"><ele>527.0</ele><time>2026-04-10T15:33:08.999Z</time></trkpt><trkpt lat="44.33423918830076" lon="7.757367842621703"><ele>527.0</ele><time>2026-04-10T15:33:09.999Z</time></trkpt><trkpt lat="44.334401743186035" lon="7.757519708271885"><ele>527.0</ele><time>2026-04-10T15:33:10.999Z</time></trkpt><trkpt lat="44.33456808324366" lon="7.757675110282178"><ele>527.0</ele><time>2026-04-10T15:33:11.999Z</time></trkpt><trkpt lat="44.33473514883243" lon="7.757831773169583"><ele>525.3333333333333</ele><time>2026-04-10T15:33:12.999Z</time></trkpt><trkpt lat="44.33490140209896" lon="7.757988106506978"><ele>523.6666666666666</ele><time>2026-04-10T15:33:13.999Z</time></trkpt><trkpt lat="44.335077196299814" lon="7.758128347680479"><ele>522.0</ele><time>2026-04-10T15:33:14.999Z</time></trkpt><trkpt lat="44.33524259169157" lon="7.758287381323889"><ele>522.0</ele><time>2026-04-10T15:33:15.999Z</time></trkpt><trkpt lat="44.335398901885064" lon="7.758431737897487"><ele>522.0</ele><time>2026-04-10T15:33:16.999Z</time></trkpt><trkpt lat="44.33554898783732" lon="7.758572838873719"><ele>522.0</ele><time>2026-04-10T15:33:17.999Z</time></trkpt><trkpt lat="44.33570217482529" lon="7.758726083696118"><ele>521.6666666666666</ele><time>2026-04-10T15:33:18.999Z</time></trkpt><trkpt lat="44.33585043179928" lon="7.758873664001305"><ele>521.3333333333333</ele><time>2026-04-10T15:33:19.999Z</time></trkpt><trkpt lat="44.33598875958137" lon="7.759041427297899"><ele>521.0</ele><time>2026-04-10T15:33:20.999Z</time></trkpt><trkpt lat="44.33609769121068" lon="7.759256479652924"><ele>520.3333333333333</ele><time>2026-04-10T15:33:21.999Z</time></trkpt><trkpt lat="44.33619998992084" lon="7.75946686500318"><ele>519.6666666666666</ele><time>2026-04-10T15:33:22.999Z</time></trkpt><trkpt lat="44.336295463166834" lon="7.759682062629644"><ele>519.0</ele><time>2026-04-10T15:33:23.999Z</time></trkpt><trkpt lat="44.336383506172126" lon="7.759884372470182"><ele>519.0</ele><time>2026-04-10T15:33:24.999Z</time></trkpt><trkpt lat="44.336480512997674" lon="7.760075711644351"><ele>519.0</ele><time>2026-04-10T15:33:25.999Z</time></trkpt><trkpt lat="44.33658709760999" lon="7.7602612307538035"><ele>519.0</ele><time>2026-04-10T15:33:26.999Z</time></trkpt><trkpt lat="44.33671245032121" lon="7.760426012999973"><ele>519.0</ele><time>2026-04-10T15:33:27.999Z</time></trkpt><trkpt lat="44.33685895492315" lon="7.760550569941565"><ele>519.0</ele><time>2026-04-10T15:33:28.999Z</time></trkpt><trkpt lat="44.337005981382475" lon="7.760675842338892"><ele>519.0</ele><time>2026-04-10T15:33:29.999Z</time></trkpt><trkpt lat="44.33715882692071" lon="7.760793382669061"><ele>519.6666666666666</ele><time>2026-04-10T15:33:30.999Z</time></trkpt><trkpt lat="44.33730312123196" lon="7.760903162825529"><ele>520.3333333333333</ele><time>2026-04-10T15:33:31.999Z</time></trkpt><trkpt lat="44.3374437556998" lon="7.761008310705689"><ele>521.0</ele><time>2026-04-10T15:33:32.999Z</time></trkpt><trkpt lat="44.337588638299984" lon="7.761112218444222"><ele>521.0</ele><time>2026-04-10T15:33:33.999Z</time></trkpt><trkpt lat="44.337724816199476" lon="7.761215807313563"><ele>521.0</ele><time>2026-04-10T15:33:34.999Z</time></trkpt><trkpt lat="44.33786235522632" lon="7.761320591384591"><ele>521.0</ele><time>2026-04-10T15:33:35.999Z</time></trkpt><trkpt lat="44.33799669998625" lon="7.761417426119799"><ele>522.6666666666666</ele><time>2026-04-10T15:33:36.999Z</time></trkpt><trkpt lat="44.33813030201409" lon="7.76151314414785"><ele>524.3333333333334</ele><time>2026-04-10T15:33:37.999Z</time></trkpt><trkpt lat="44.338265310538276" lon="7.761609090237176"><ele>526.0</ele><time>2026-04-10T15:33:38.999Z</time></trkpt><trkpt lat="44.33839727964935" lon="7.761705732229517"><ele>526.0</ele><time>2026-04-10T15:33:39.999Z</time></trkpt><trkpt lat="44.33851816763546" lon="7.761793974446088"><ele>526.0</ele><time>2026-04-10T15:33:40.999Z</time></trkpt><trkpt lat="44.33864430895157" lon="7.761884374627657"><ele>526.0</ele><time>2026-04-10T15:33:41.999Z</time></trkpt><trkpt lat="44.33877120744162" lon="7.761973638742742"><ele>526.0</ele><time>2026-04-10T15:33:42.999Z</time></trkpt><trkpt lat="44.33889252010163" lon="7.762060219615487"><ele>525.0</ele><time>2026-04-10T15:33:43.999Z</time></trkpt><trkpt lat="44.339006324521" lon="7.762142624440319"><ele>524.0</ele><time>2026-04-10T15:33:44.999Z</time></trkpt><trkpt lat="44.33911608682819" lon="7.7622236359659835"><ele>523.0</ele><time>2026-04-10T15:33:45.999Z</time></trkpt><trkpt lat="44.33922518056501" lon="7.762301672964263"><ele>522.0</ele><time>2026-04-10T15:33:46.998Z</time></trkpt><trkpt lat="44.33933184666678" lon="7.762378864148193"><ele>522.0</ele><time>2026-04-10T15:33:47.998Z</time></trkpt><trkpt lat="44.339427308457324" lon="7.762449287116669"><ele>522.0</ele><time>2026-04-10T15:33:48.998Z</time></trkpt><trkpt lat="44.339533146965046" lon="7.762525433847636"><ele>522.0</ele><time>2026-04-10T15:33:49.998Z</time></trkpt><trkpt lat="44.339637332090724" lon="7.762601593525043"><ele>522.0</ele><time>2026-04-10T15:33:50.998Z</time></trkpt><trkpt lat="44.33972793399157" lon="7.762674421672451"><ele>522.0</ele><time>2026-04-10T15:33:51.998Z</time></trkpt><trkpt lat="44.33982706107695" lon="7.762746178573487"><ele>520.6</ele><time>2026-04-10T15:33:52.998Z</time></trkpt><trkpt lat="44.33992473798654" lon="7.762813871201118"><ele>519.2</ele><time>2026-04-10T15:33:53.998Z</time></trkpt><trkpt lat="44.3400169732949" lon="7.762880304681002"><ele>517.8</ele><time>2026-04-10T15:33:54.998Z</time></trkpt><trkpt lat="44.34011375174919" lon="7.762946689966399"><ele>516.4</ele><time>2026-04-10T15:33:55.998Z</time></trkpt><trkpt lat="44.340212869057495" lon="7.763017243165011"><ele>515.0</ele><time>2026-04-10T15:33:56.998Z</time></trkpt><trkpt lat="44.34030285494383" lon="7.7630891857397435"><ele>515.0</ele><time>2026-04-10T15:33:57.998Z</time></trkpt><trkpt lat="44.34039620841725" lon="7.763165752442098"><ele>515.0</ele><time>2026-04-10T15:33:58.998Z</time></trkpt><trkpt lat="44.34049258190454" lon="7.763243566796327"><ele>515.0</ele><time>2026-04-10T15:33:59.998Z</time></trkpt><trkpt lat="44.34058862128694" lon="7.763322342149805"><ele>515.0</ele><time>2026-04-10T15:34:00.998Z</time></trkpt><trkpt lat="44.34068616889666" lon="7.763406484516271"><ele>515.0</ele><time>2026-04-10T15:34:01.998Z</time></trkpt><trkpt lat="44.34077932263507" lon="7.763491277756788"><ele>515.0</ele><time>2026-04-10T15:34:02.998Z</time></trkpt><trkpt lat="44.340876917885446" lon="7.76357826982247"><ele>515.0</ele><time>2026-04-10T15:34:03.998Z</time></trkpt><trkpt lat="44.34096742498987" lon="7.763663696330028"><ele>515.0</ele><time>2026-04-10T15:34:04.998Z</time></trkpt><trkpt lat="44.34106169018111" lon="7.763753751534997"><ele>515.0</ele><time>2026-04-10T15:34:05.998Z</time></trkpt><trkpt lat="44.341152192114" lon="7.76384874934936"><ele>515.0</ele><time>2026-04-10T15:34:06.998Z</time></trkpt><trkpt lat="44.34124527488147" lon="7.763942748986075"><ele>515.0</ele><time>2026-04-10T15:34:07.998Z</time></trkpt><trkpt lat="44.341340702172026" lon="7.764036379094147"><ele>515.0</ele><time>2026-04-10T15:34:08.998Z</time></trkpt><trkpt lat="44.341433893139815" lon="7.764133969268883"><ele>515.0</ele><time>2026-04-10T15:34:09.998Z</time></trkpt><trkpt lat="44.34152554395743" lon="7.764235234125437"><ele>515.25</ele><time>2026-04-10T15:34:10.998Z</time></trkpt><trkpt lat="44.34161833313912" lon="7.764342205978811"><ele>515.5</ele><time>2026-04-10T15:34:11.998Z</time></trkpt><trkpt lat="44.341707900437896" lon="7.7644494122284025"><ele>515.75</ele><time>2026-04-10T15:34:12.998Z</time></trkpt><trkpt lat="44.341797269052684" lon="7.764559769410057"><ele>516.0</ele><time>2026-04-10T15:34:13.998Z</time></trkpt><trkpt lat="44.341883029133406" lon="7.764671868510443"><ele>516.0</ele><time>2026-04-10T15:34:14.998Z</time></trkpt><trkpt lat="44.34196015687058" lon="7.764779969744387"><ele>516.0</ele><time>2026-04-10T15:34:16Z</time></trkpt><trkpt lat="44.3420354462384" lon="7.764889893041072"><ele>516.0</ele><time>2026-04-10T15:34:17Z</time></trkpt><trkpt lat="44.34211210854495" lon="7.7650051331161185"><ele>516.0</ele><time>2026-04-10T15:34:18Z</time></trkpt><trkpt lat="44.342188722704215" lon="7.765125789801404"><ele>516.0</ele><time>2026-04-10T15:34:19Z</time></trkpt><trkpt lat="44.34226557745553" lon="7.765249540946847"><ele>516.5</ele><time>2026-04-10T15:34:20Z</time></trkpt><trkpt lat="44.34234006382837" lon="7.765376900958344"><ele>517.0</ele><time>2026-04-10T15:34:21Z</time></trkpt><trkpt lat="44.34241568879736" lon="7.765504870812034"><ele>517.5</ele><time>2026-04-10T15:34:22Z</time></trkpt><trkpt lat="44.342492088414076" lon="7.765635634801376"><ele>518.0</ele><time>2026-04-10T15:34:23Z</time></trkpt><trkpt lat="44.34256534518928" lon="7.765772860701803"><ele>518.0</ele><time>2026-04-10T15:34:24Z</time></trkpt><trkpt lat="44.3426423656471" lon="7.765901679609901"><ele>518.0</ele><time>2026-04-10T15:34:25Z</time></trkpt><trkpt lat="44.34271893482184" lon="7.766028459947273"><ele>518.0</ele><time>2026-04-10T15:34:26Z</time></trkpt><trkpt lat="44.34279691570091" lon="7.766154434905341"><ele>518.0</ele><time>2026-04-10T15:34:27Z</time></trkpt><trkpt lat="44.342870451367006" lon="7.766273681005148"><ele>518.5</ele><time>2026-04-10T15:34:28Z</time></trkpt><trkpt lat="44.34294939162823" lon="7.766390437437086"><ele>519.0</ele><time>2026-04-10T15:34:29Z</time></trkpt><trkpt lat="44.343032546506656" lon="7.7664943209891035"><ele>519.5</ele><time>2026-04-10T15:34:30Z</time></trkpt><trkpt lat="44.34312206455722" lon="7.766591165435709"><ele>520.0</ele><time>2026-04-10T15:34:31Z</time></trkpt><trkpt lat="44.34321926509064" lon="7.766672324582219"><ele>520.0</ele><time>2026-04-10T15:34:32Z</time></trkpt><trkpt lat="44.3433191567098" lon="7.766738377868044"><ele>520.0</ele><time>2026-04-10T15:34:33Z</time></trkpt><trkpt lat="44.3434242170782" lon="7.766786649515864"><ele>520.0</ele><time>2026-04-10T15:34:34Z</time></trkpt><trkpt lat="44.343535971575164" lon="7.766821994971731"><ele>520.0</ele><time>2026-04-10T15:34:35Z</time></trkpt><trkpt lat="44.34364667352409" lon="7.766833825146547"><ele>520.0</ele><time>2026-04-10T15:34:36Z</time></trkpt><trkpt lat="44.34375971917219" lon="7.766833858673392"><ele>520.0</ele><time>2026-04-10T15:34:37Z</time></trkpt><trkpt lat="44.34387599228692" lon="7.7668342303009705"><ele>520.0</ele><time>2026-04-10T15:34:38Z</time></trkpt><trkpt lat="44.34399222014091" lon="7.7668385370988124"><ele>520.0</ele><time>2026-04-10T15:34:39Z</time></trkpt><trkpt lat="44.34410921398362" lon="7.766836306425268"><ele>520.0</ele><time>2026-04-10T15:34:40Z</time></trkpt><trkpt lat="44.34422867818038" lon="7.766825413443404"><ele>520.5</ele><time>2026-04-10T15:34:41Z</time></trkpt><trkpt lat="44.344353690464565" lon="7.766815095744896"><ele>521.0</ele><time>2026-04-10T15:34:42Z</time></trkpt><trkpt lat="44.34447046938848" lon="7.76680701218631"><ele>521.5</ele><time>2026-04-10T15:34:43Z</time></trkpt><trkpt lat="44.34458196111452" lon="7.76679473798908"><ele>522.0</ele><time>2026-04-10T15:34:44Z</time></trkpt><trkpt lat="44.344704447029436" lon="7.766783862241691"><ele>522.25</ele><time>2026-04-10T15:34:45Z</time></trkpt><trkpt lat="44.344825779719045" lon="7.766774461549024"><ele>522.5</ele><time>2026-04-10T15:34:46Z</time></trkpt><trkpt lat="44.344943256167774" lon="7.766768478608081"><ele>522.75</ele><time>2026-04-10T15:34:47Z</time></trkpt><trkpt lat="44.345061155616115" lon="7.766762529281599"><ele>523.0</ele><time>2026-04-10T15:34:48Z</time></trkpt><trkpt lat="44.34517320032429" lon="7.766760647940682"><ele>523.0</ele><time>2026-04-10T15:34:49Z</time></trkpt><trkpt lat="44.345284882008286" lon="7.766761881070057"><ele>523.0</ele><time>2026-04-10T15:34:50Z</time></trkpt><trkpt lat="44.345397383574245" lon="7.766773417872066"><ele>523.0</ele><time>2026-04-10T15:34:51Z</time></trkpt><trkpt lat="44.34550629767884" lon="7.766793222337366"><ele>523.0</ele><time>2026-04-10T15:34:52Z</time></trkpt><trkpt lat="44.34561291421654" lon="7.766830052926011"><ele>523.0</ele><time>2026-04-10T15:34:53Z</time></trkpt><trkpt lat="44.34571805043213" lon="7.766890091614291"><ele>522.8</ele><time>2026-04-10T15:34:54Z</time></trkpt><trkpt lat="44.345818047426484" lon="7.76695987541378"><ele>522.5999999999999</ele><time>2026-04-10T15:34:54.999Z</time></trkpt><trkpt lat="44.34591212431531" lon="7.767035451261901"><ele>522.4000000000001</ele><time>2026-04-10T15:34:55.999Z</time></trkpt><trkpt lat="44.34600035930697" lon="7.767122266187225"><ele>522.2</ele><time>2026-04-10T15:34:56.999Z</time></trkpt><trkpt lat="44.346077458728644" lon="7.767214841943045"><ele>522.0</ele><time>2026-04-10T15:34:57.999Z</time></trkpt><trkpt lat="44.346147698235804" lon="7.767315670189933"><ele>522.0</ele><time>2026-04-10T15:34:58.999Z</time></trkpt><trkpt lat="44.346213369577576" lon="7.767425816298139"><ele>522.0</ele><time>2026-04-10T15:34:59.999Z</time></trkpt><trkpt lat="44.346274775617296" lon="7.767541749337761"><ele>522.0</ele><time>2026-04-10T15:35:00.999Z</time></trkpt><trkpt lat="44.346337686934866" lon="7.767662077429433"><ele>522.0</ele><time>2026-04-10T15:35:01.999Z</time></trkpt><trkpt lat="44.34639883617338" lon="7.76778973645905"><ele>522.0</ele><time>2026-04-10T15:35:02.999Z</time></trkpt><trkpt lat="44.346459517105686" lon="7.767918887512877"><ele>521.8000000000001</ele><time>2026-04-10T15:35:03.999Z</time></trkpt><trkpt lat="44.346524208388956" lon="7.768052259009979"><ele>521.6</ele><time>2026-04-10T15:35:04.999Z</time></trkpt><trkpt lat="44.346580386596266" lon="7.768177736221957"><ele>521.4000000000001</ele><time>2026-04-10T15:35:05.999Z</time></trkpt><trkpt lat="44.34663324617933" lon="7.768303453617511"><ele>521.2</ele><time>2026-04-10T15:35:06.999Z</time></trkpt><trkpt lat="44.34668803052972" lon="7.768427889136279"><ele>521.0</ele><time>2026-04-10T15:35:07.999Z</time></trkpt><trkpt lat="44.346744230631984" lon="7.768551144965319"><ele>520.4</ele><time>2026-04-10T15:35:08.999Z</time></trkpt><trkpt lat="44.34679985295349" lon="7.768672494900439"><ele>519.8</ele><time>2026-04-10T15:35:09.999Z</time></trkpt><trkpt lat="44.34685911333745" lon="7.768796693530897"><ele>519.1999999999999</ele><time>2026-04-10T15:35:10.999Z</time></trkpt><trkpt lat="44.34691612797759" lon="7.768921501404429"><ele>518.6</ele><time>2026-04-10T15:35:11.999Z</time></trkpt><trkpt lat="44.34697313601271" lon="7.769044513278368"><ele>518.0</ele><time>2026-04-10T15:35:12.999Z</time></trkpt><trkpt lat="44.34702579573298" lon="7.769169259819473"><ele>518.0</ele><time>2026-04-10T15:35:13.999Z</time></trkpt><trkpt lat="44.347074770149646" lon="7.769288844007773"><ele>518.0</ele><time>2026-04-10T15:35:14.999Z</time></trkpt><trkpt lat="44.34712036733746" lon="7.769406412105352"><ele>518.0</ele><time>2026-04-10T15:35:15.999Z</time></trkpt><trkpt lat="44.347171655739785" lon="7.769511756473206"><ele>518.0</ele><time>2026-04-10T15:35:16.999Z</time></trkpt><trkpt lat="44.34722245418128" lon="7.769614947861592"><ele>518.0</ele><time>2026-04-10T15:35:17.999Z</time></trkpt><trkpt lat="44.34726800090185" lon="7.769715109773919"><ele>517.7142857142857</ele><time>2026-04-10T15:35:18.999Z</time></trkpt><trkpt lat="44.34731304376139" lon="7.769810125495992"><ele>517.4285714285714</ele><time>2026-04-10T15:35:19.999Z</time></trkpt><trkpt lat="44.3473532469265" lon="7.769903532033427"><ele>517.1428571428571</ele><time>2026-04-10T15:35:20.999Z</time></trkpt><trkpt lat="44.34738894700881" lon="7.769992776361059"><ele>516.8571428571429</ele><time>2026-04-10T15:35:21.999Z</time></trkpt><trkpt lat="44.34742007368275" lon="7.770074946251756"><ele>516.5714285714286</ele><time>2026-04-10T15:35:22.999Z</time></trkpt><trkpt lat="44.34744530285278" lon="7.7701691672739965"><ele>516.2857142857142</ele><time>2026-04-10T15:35:23.999Z</time></trkpt><trkpt lat="44.347463403495986" lon="7.770270207331205"><ele>516.0</ele><time>2026-04-10T15:35:24.999Z</time></trkpt><trkpt lat="44.347493234404844" lon="7.770358127709913"><ele>515.5</ele><time>2026-04-10T15:35:25.999Z</time></trkpt><trkpt lat="44.347534969063176" lon="7.770449422872587"><ele>515.0</ele><time>2026-04-10T15:35:26.999Z</time></trkpt><trkpt lat="44.347594395282165" lon="7.770549405490208"><ele>514.5</ele><time>2026-04-10T15:35:27.999Z</time></trkpt><trkpt lat="44.34765307858797" lon="7.770643889770601"><ele>514.0</ele><time>2026-04-10T15:35:28.999Z</time></trkpt><trkpt lat="44.34769534608031" lon="7.770746314639018"><ele>513.5</ele><time>2026-04-10T15:35:29.999Z</time></trkpt><trkpt lat="44.34773015104311" lon="7.770851495792928"><ele>513.0</ele><time>2026-04-10T15:35:30.999Z</time></trkpt><trkpt lat="44.347756923970515" lon="7.770951322137498"><ele>512.3333333333334</ele><time>2026-04-10T15:35:31.999Z</time></trkpt><trkpt lat="44.34777531393974" lon="7.771050616179952"><ele>511.66666666666663</ele><time>2026-04-10T15:35:32.999Z</time></trkpt><trkpt lat="44.34777676689854" lon="7.771143548065313"><ele>511.0</ele><time>2026-04-10T15:35:33.999Z</time></trkpt><trkpt lat="44.34777668294195" lon="7.771241742578038"><ele>510.3333333333333</ele><time>2026-04-10T15:35:34.999Z</time></trkpt><trkpt lat="44.347775626263534" lon="7.771337769683473"><ele>509.66666666666663</ele><time>2026-04-10T15:35:35.999Z</time></trkpt><trkpt lat="44.34781455459777" lon="7.7715209186380205"><ele>509.0</ele><time>2026-04-10T15:35:37.999Z</time></trkpt><trkpt lat="44.347871080592434" lon="7.771597588163015"><ele>509.0</ele><time>2026-04-10T15:35:38.999Z</time></trkpt><trkpt lat="44.3479788979366" lon="7.771614667747313"><ele>509.0</ele><time>2026-04-10T15:35:39.999Z</time></trkpt><trkpt lat="44.34805654830567" lon="7.77166641558284"><ele>509.0</ele><time>2026-04-10T15:35:40.999Z</time></trkpt><trkpt lat="44.3481314064605" lon="7.771726281198569"><ele>509.0</ele><time>2026-04-10T15:35:41.999Z</time></trkpt><trkpt lat="44.348196569901816" lon="7.771812478232159"><ele>509.0</ele><time>2026-04-10T15:35:42.999Z</time></trkpt><trkpt lat="44.3482573328685" lon="7.771891658512857"><ele>508.99999999999994</ele><time>2026-04-10T15:35:43.999Z</time></trkpt><trkpt lat="44.34831409787015" lon="7.771965140667347"><ele>509.0</ele><time>2026-04-10T15:35:44.999Z</time></trkpt><trkpt lat="44.34837252722792" lon="7.77204551785817"><ele>509.0</ele><time>2026-04-10T15:35:45.999Z</time></trkpt><trkpt lat="44.348432493989925" lon="7.772136703384863"><ele>509.0</ele><time>2026-04-10T15:35:46.999Z</time></trkpt><trkpt lat="44.34849206008363" lon="7.772234838393453"><ele>508.99999999999994</ele><time>2026-04-10T15:35:47.999Z</time></trkpt><trkpt lat="44.34854430309434" lon="7.772326374015503"><ele>509.0</ele><time>2026-04-10T15:35:48.999Z</time></trkpt><trkpt lat="44.34859328561898" lon="7.772416708610986"><ele>508.99999999999994</ele><time>2026-04-10T15:35:49.999Z</time></trkpt><trkpt lat="44.34864427369997" lon="7.772514896877542"><ele>509.0</ele><time>2026-04-10T15:35:50.999Z</time></trkpt><trkpt lat="44.34869620345875" lon="7.772617777314358"><ele>509.0</ele><time>2026-04-10T15:35:51.999Z</time></trkpt><trkpt lat="44.34874538807235" lon="7.772728207600011"><ele>509.0</ele><time>2026-04-10T15:35:52.999Z</time></trkpt><trkpt lat="44.34879456673451" lon="7.772835977826824"><ele>508.99999999999994</ele><time>2026-04-10T15:35:53.999Z</time></trkpt><trkpt lat="44.34883753217123" lon="7.772936727709158"><ele>509.0</ele><time>2026-04-10T15:35:54.998Z</time></trkpt><trkpt lat="44.34888346549573" lon="7.773047265087665"><ele>509.2</ele><time>2026-04-10T15:35:55.998Z</time></trkpt><trkpt lat="44.34892976674578" lon="7.773160390548443"><ele>509.4</ele><time>2026-04-10T15:35:56.998Z</time></trkpt><trkpt lat="44.34897905172739" lon="7.773278816726848"><ele>509.6</ele><time>2026-04-10T15:35:57.998Z</time></trkpt><trkpt lat="44.34902936991838" lon="7.773392912605544"><ele>509.8</ele><time>2026-04-10T15:35:58.998Z</time></trkpt><trkpt lat="44.349083047307964" lon="7.7735042731450985"><ele>510.0</ele><time>2026-04-10T15:35:59.998Z</time></trkpt><trkpt lat="44.34913861315657" lon="7.773623560814214"><ele>509.6666666666667</ele><time>2026-04-10T15:36:00.998Z</time></trkpt><trkpt lat="44.349193787414826" lon="7.773735617444297"><ele>509.33333333333337</ele><time>2026-04-10T15:36:01.998Z</time></trkpt><trkpt lat="44.349239015891825" lon="7.773845239798114"><ele>509.0</ele><time>2026-04-10T15:36:02.998Z</time></trkpt><trkpt lat="44.34927568565958" lon="7.7739589668391424"><ele>508.6666666666667</ele><time>2026-04-10T15:36:03.998Z</time></trkpt><trkpt lat="44.34931666816291" lon="7.774053186077662"><ele>508.33333333333337</ele><time>2026-04-10T15:36:04.998Z</time></trkpt><trkpt lat="44.3493536780995" lon="7.774138272249321"><ele>508.0</ele><time>2026-04-10T15:36:05.998Z</time></trkpt><trkpt lat="44.34938820320789" lon="7.77421764568434"><ele>508.0</ele><time>2026-04-10T15:36:06.998Z</time></trkpt><trkpt lat="44.34944608124757" lon="7.7743507077732055"><ele>507.99999999999994</ele><time>2026-04-10T15:36:08.998Z</time></trkpt><trkpt lat="44.34950648096173" lon="7.774447887589445"><ele>507.99999999999994</ele><time>2026-04-10T15:36:10.998Z</time></trkpt><trkpt lat="44.34954755292212" lon="7.774548971640211"><ele>508.0</ele><time>2026-04-10T15:36:12.998Z</time></trkpt><trkpt lat="44.34961375806982" lon="7.774699632765293"><ele>508.0</ele><time>2026-04-10T15:36:14.998Z</time></trkpt><trkpt lat="44.34965060455536" lon="7.774790331529939"><ele>507.79999999999995</ele><time>2026-04-10T15:36:15.998Z</time></trkpt><trkpt lat="44.349697370230295" lon="7.774898177343938"><ele>507.59999999999997</ele><time>2026-04-10T15:36:16.998Z</time></trkpt><trkpt lat="44.34974412496394" lon="7.775014926373307"><ele>507.40000000000003</ele><time>2026-04-10T15:36:17.998Z</time></trkpt><trkpt lat="44.349805815702354" lon="7.775151442627723"><ele>507.20000000000005</ele><time>2026-04-10T15:36:18.998Z</time></trkpt><trkpt lat="44.34986578899504" lon="7.7752916699143935"><ele>507.0</ele><time>2026-04-10T15:36:19.998Z</time></trkpt><trkpt lat="44.349921014079676" lon="7.775417614895974"><ele>506.6</ele><time>2026-04-10T15:36:20.998Z</time></trkpt><trkpt lat="44.34997884831217" lon="7.775546723082453"><ele>506.20000000000005</ele><time>2026-04-10T15:36:22Z</time></trkpt><trkpt lat="44.35004030582031" lon="7.775682582095373"><ele>505.8</ele><time>2026-04-10T15:36:23Z</time></trkpt><trkpt lat="44.35009539786749" lon="7.775811160469989"><ele>505.4</ele><time>2026-04-10T15:36:24Z</time></trkpt><trkpt lat="44.35014888182995" lon="7.775933602359985"><ele>505.0</ele><time>2026-04-10T15:36:25Z</time></trkpt><trkpt lat="44.35020123427505" lon="7.7760577864048175"><ele>505.0</ele><time>2026-04-10T15:36:26Z</time></trkpt><trkpt lat="44.350254653383274" lon="7.776182615220194"><ele>505.0</ele><time>2026-04-10T15:36:27Z</time></trkpt><trkpt lat="44.350312029730986" lon="7.776304607891193"><ele>505.0</ele><time>2026-04-10T15:36:28Z</time></trkpt><trkpt lat="44.35036802873517" lon="7.776433679641528"><ele>505.0</ele><time>2026-04-10T15:36:29Z</time></trkpt><trkpt lat="44.350427499274275" lon="7.776569503772432"><ele>505.0</ele><time>2026-04-10T15:36:30Z</time></trkpt><trkpt lat="44.35048731501866" lon="7.776709265410404"><ele>505.0</ele><time>2026-04-10T15:36:31Z</time></trkpt><trkpt lat="44.35054441122" lon="7.77683923556013"><ele>505.0</ele><time>2026-04-10T15:36:32Z</time></trkpt><trkpt lat="44.35060556225865" lon="7.7769695559074625"><ele>505.0</ele><time>2026-04-10T15:36:33Z</time></trkpt><trkpt lat="44.350666615153095" lon="7.777099662773168"><ele>505.0</ele><time>2026-04-10T15:36:34Z</time></trkpt><trkpt lat="44.350725850536826" lon="7.77723807846837"><ele>505.0</ele><time>2026-04-10T15:36:35Z</time></trkpt><trkpt lat="44.350790203427074" lon="7.777376273777751"><ele>504.4</ele><time>2026-04-10T15:36:36Z</time></trkpt><trkpt lat="44.35084995347271" lon="7.7775108407583184"><ele>503.8</ele><time>2026-04-10T15:36:37Z</time></trkpt><trkpt lat="44.35090431834249" lon="7.777638384274674"><ele>503.20000000000005</ele><time>2026-04-10T15:36:38Z</time></trkpt><trkpt lat="44.350962509435824" lon="7.777771017273905"><ele>502.6</ele><time>2026-04-10T15:36:39Z</time></trkpt><trkpt lat="44.35101980036161" lon="7.777900412017975"><ele>502.0</ele><time>2026-04-10T15:36:40Z</time></trkpt><trkpt lat="44.351078845638725" lon="7.778041143071348"><ele>501.40000000000003</ele><time>2026-04-10T15:36:41Z</time></trkpt><trkpt lat="44.35113090530866" lon="7.778164818285297"><ele>500.80000000000007</ele><time>2026-04-10T15:36:42Z</time></trkpt><trkpt lat="44.35118461882858" lon="7.778289427828265"><ele>500.2</ele><time>2026-04-10T15:36:43Z</time></trkpt><trkpt lat="44.35123601301347" lon="7.778416621225572"><ele>499.6</ele><time>2026-04-10T15:36:44Z</time></trkpt><trkpt lat="44.35129008369541" lon="7.778545291422607"><ele>499.0</ele><time>2026-04-10T15:36:45Z</time></trkpt><trkpt lat="44.35135134039384" lon="7.778677577452483"><ele>499.2</ele><time>2026-04-10T15:36:46Z</time></trkpt><trkpt lat="44.35141298241726" lon="7.778806968749095"><ele>499.4</ele><time>2026-04-10T15:36:47Z</time></trkpt><trkpt lat="44.35148108539714" lon="7.778930040805777"><ele>499.6</ele><time>2026-04-10T15:36:48Z</time></trkpt><trkpt lat="44.35152498764261" lon="7.779066690548062"><ele>499.8</ele><time>2026-04-10T15:36:49Z</time></trkpt><trkpt lat="44.351580240708245" lon="7.779190980981636"><ele>500.0</ele><time>2026-04-10T15:36:50Z</time></trkpt><trkpt lat="44.351647198210465" lon="7.779302167487013"><ele>499.6</ele><time>2026-04-10T15:36:51Z</time></trkpt><trkpt lat="44.35169905237262" lon="7.779433053141491"><ele>499.2</ele><time>2026-04-10T15:36:52Z</time></trkpt><trkpt lat="44.35175381005217" lon="7.77956632344371"><ele>498.79999999999995</ele><time>2026-04-10T15:36:53Z</time></trkpt><trkpt lat="44.35180748312936" lon="7.779690723885388"><ele>498.4</ele><time>2026-04-10T15:36:54Z</time></trkpt><trkpt lat="44.351866386391514" lon="7.779815406902804"><ele>498.0</ele><time>2026-04-10T15:36:55Z</time></trkpt><trkpt lat="44.35192521939809" lon="7.779944637091745"><ele>498.0</ele><time>2026-04-10T15:36:56Z</time></trkpt><trkpt lat="44.35198082810108" lon="7.780084094489114"><ele>497.99999999999994</ele><time>2026-04-10T15:36:57Z</time></trkpt><trkpt lat="44.35203541628516" lon="7.780210354918448"><ele>497.99999999999994</ele><time>2026-04-10T15:36:58Z</time></trkpt><trkpt lat="44.35209340285981" lon="7.780336679334679"><ele>498.0</ele><time>2026-04-10T15:36:59Z</time></trkpt><trkpt lat="44.352147076641984" lon="7.780462156567105"><ele>498.0</ele><time>2026-04-10T15:37:00Z</time></trkpt><trkpt lat="44.35220777619962" lon="7.780594634350387"><ele>498.0</ele><time>2026-04-10T15:37:01Z</time></trkpt><trkpt lat="44.35226689581255" lon="7.7807257835489665"><ele>497.99999999999994</ele><time>2026-04-10T15:37:02Z</time></trkpt><trkpt lat="44.352324587359455" lon="7.780859514971583"><ele>497.99999999999994</ele><time>2026-04-10T15:37:03Z</time></trkpt><trkpt lat="44.35237878515772" lon="7.7809920692601935"><ele>498.0</ele><time>2026-04-10T15:37:04Z</time></trkpt><trkpt lat="44.35243435941323" lon="7.781119991366709"><ele>498.0</ele><time>2026-04-10T15:37:04.999Z</time></trkpt><trkpt lat="44.352491479812464" lon="7.781260851793227"><ele>498.2</ele><time>2026-04-10T15:37:05.999Z</time></trkpt><trkpt lat="44.35254869916598" lon="7.781387201679315"><ele>498.4</ele><time>2026-04-10T15:37:06.999Z</time></trkpt><trkpt lat="44.35261188307608" lon="7.7815141513993025"><ele>498.59999999999997</ele><time>2026-04-10T15:37:07.999Z</time></trkpt><trkpt lat="44.35267043100935" lon="7.781638690516005"><ele>498.79999999999995</ele><time>2026-04-10T15:37:08.999Z</time></trkpt><trkpt lat="44.35272896877899" lon="7.7817631894260115"><ele>499.0</ele><time>2026-04-10T15:37:09.999Z</time></trkpt><trkpt lat="44.352784418702065" lon="7.781891415145889"><ele>499.0</ele><time>2026-04-10T15:37:10.999Z</time></trkpt><trkpt lat="44.352843670634726" lon="7.782021379853624"><ele>499.0</ele><time>2026-04-10T15:37:11.999Z</time></trkpt><trkpt lat="44.3528991289375" lon="7.782148861130513"><ele>499.0</ele><time>2026-04-10T15:37:12.999Z</time></trkpt><trkpt lat="44.35295447870574" lon="7.782274281254193"><ele>499.0</ele><time>2026-04-10T15:37:13.999Z</time></trkpt><trkpt lat="44.353012163892004" lon="7.782405323222352"><ele>499.0</ele><time>2026-04-10T15:37:14.999Z</time></trkpt><trkpt lat="44.35306894184545" lon="7.7825384252782035"><ele>498.79999999999995</ele><time>2026-04-10T15:37:15.999Z</time></trkpt><trkpt lat="44.353126200156204" lon="7.782668925227697"><ele>498.59999999999997</ele><time>2026-04-10T15:37:16.999Z</time></trkpt><trkpt lat="44.35318195501342" lon="7.782798357658326"><ele>498.4</ele><time>2026-04-10T15:37:17.999Z</time></trkpt><trkpt lat="44.353240911666546" lon="7.782928517665066"><ele>498.2</ele><time>2026-04-10T15:37:18.999Z</time></trkpt><trkpt lat="44.353302484730385" lon="7.7830570976766404"><ele>498.0</ele><time>2026-04-10T15:37:19.999Z</time></trkpt><trkpt lat="44.353362438135605" lon="7.783184313990227"><ele>497.79999999999995</ele><time>2026-04-10T15:37:20.999Z</time></trkpt><trkpt lat="44.353421356696174" lon="7.783311710959816"><ele>497.59999999999997</ele><time>2026-04-10T15:37:21.999Z</time></trkpt><trkpt lat="44.35347909613148" lon="7.783443483094489"><ele>497.40000000000003</ele><time>2026-04-10T15:37:22.999Z</time></trkpt><trkpt lat="44.353544455072196" lon="7.783572893575645"><ele>497.20000000000005</ele><time>2026-04-10T15:37:23.999Z</time></trkpt><trkpt lat="44.35360675982627" lon="7.783702827398124"><ele>497.0</ele><time>2026-04-10T15:37:24.999Z</time></trkpt><trkpt lat="44.35366799803636" lon="7.783824898693659"><ele>497.20000000000005</ele><time>2026-04-10T15:37:25.999Z</time></trkpt><trkpt lat="44.35372077739775" lon="7.783948122252699"><ele>497.40000000000003</ele><time>2026-04-10T15:37:26.999Z</time></trkpt><trkpt lat="44.35378164208233" lon="7.784071795248432"><ele>497.59999999999997</ele><time>2026-04-10T15:37:27.999Z</time></trkpt><trkpt lat="44.35384135219319" lon="7.78419238845705"><ele>497.79999999999995</ele><time>2026-04-10T15:37:28.999Z</time></trkpt><trkpt lat="44.35389717798176" lon="7.784313483487978"><ele>498.0</ele><time>2026-04-10T15:37:29.999Z</time></trkpt><trkpt lat="44.35395284247491" lon="7.784426071963792"><ele>497.4</ele><time>2026-04-10T15:37:30.999Z</time></trkpt><trkpt lat="44.35401259824209" lon="7.78453874399148"><ele>496.79999999999995</ele><time>2026-04-10T15:37:31.999Z</time></trkpt><trkpt lat="44.354067424264" lon="7.7846527995395505"><ele>496.2</ele><time>2026-04-10T15:37:32.999Z</time></trkpt><trkpt lat="44.35412167424988" lon="7.784768704749671"><ele>495.6</ele><time>2026-04-10T15:37:33.999Z</time></trkpt><trkpt lat="44.354175516632026" lon="7.784882248162901"><ele>495.0</ele><time>2026-04-10T15:37:34.999Z</time></trkpt><trkpt lat="44.35421995618003" lon="7.784985858443566"><ele>495.0</ele><time>2026-04-10T15:37:35.999Z</time></trkpt><trkpt lat="44.35426655504262" lon="7.785090359408532"><ele>495.0</ele><time>2026-04-10T15:37:36.999Z</time></trkpt><trkpt lat="44.35431441494109" lon="7.785199613144872"><ele>495.0</ele><time>2026-04-10T15:37:37.999Z</time></trkpt><trkpt lat="44.35436547064491" lon="7.785300002421216"><ele>495.0</ele><time>2026-04-10T15:37:38.999Z</time></trkpt><trkpt lat="44.35440688467788" lon="7.785393774113454"><ele>495.0</ele><time>2026-04-10T15:37:39.999Z</time></trkpt><trkpt lat="44.35444456534118" lon="7.7854826696647335"><ele>495.0</ele><time>2026-04-10T15:37:40.999Z</time></trkpt><trkpt lat="44.35449274054358" lon="7.785621269283372"><ele>494.6</ele><time>2026-04-10T15:37:42.999Z</time></trkpt><trkpt lat="44.354525358877204" lon="7.785715369331028"><ele>494.2</ele><time>2026-04-10T15:37:43.999Z</time></trkpt><trkpt lat="44.35458427061003" lon="7.785801007859911"><ele>493.79999999999995</ele><time>2026-04-10T15:37:44.999Z</time></trkpt><trkpt lat="44.35466645698635" lon="7.785875156622596"><ele>493.4</ele><time>2026-04-10T15:37:45.999Z</time></trkpt><trkpt lat="44.35475033999059" lon="7.785949346540112"><ele>493.0</ele><time>2026-04-10T15:37:46.999Z</time></trkpt><trkpt lat="44.354839601726205" lon="7.786041707886446"><ele>492.5</ele><time>2026-04-10T15:37:47.999Z</time></trkpt><trkpt lat="44.35493664881637" lon="7.786137829511681"><ele>492.0</ele><time>2026-04-10T15:37:48.999Z</time></trkpt><trkpt lat="44.3550488562717" lon="7.786244352966598"><ele>491.5</ele><time>2026-04-10T15:37:49.999Z</time></trkpt><trkpt lat="44.355163566934614" lon="7.786354819262014"><ele>491.0</ele><time>2026-04-10T15:37:50.999Z</time></trkpt><trkpt lat="44.3552918692194" lon="7.786469003815713"><ele>491.0</ele><time>2026-04-10T15:37:51.999Z</time></trkpt><trkpt lat="44.35541958588147" lon="7.786591504565016"><ele>491.0</ele><time>2026-04-10T15:37:52.999Z</time></trkpt><trkpt lat="44.35553789728965" lon="7.78672013531276"><ele>491.0</ele><time>2026-04-10T15:37:53.999Z</time></trkpt><trkpt lat="44.35565352371363" lon="7.786827815785834"><ele>491.0</ele><time>2026-04-10T15:37:54.999Z</time></trkpt><trkpt lat="44.35576877413068" lon="7.78693971346676"><ele>490.0</ele><time>2026-04-10T15:37:55.999Z</time></trkpt><trkpt lat="44.355886450770136" lon="7.787048312552642"><ele>489.0</ele><time>2026-04-10T15:37:56.999Z</time></trkpt><trkpt lat="44.355997746756856" lon="7.787150090735017"><ele>488.0</ele><time>2026-04-10T15:37:57.999Z</time></trkpt><trkpt lat="44.35610554518907" lon="7.787254597213062"><ele>487.0</ele><time>2026-04-10T15:37:58.999Z</time></trkpt><trkpt lat="44.35621639442594" lon="7.7873574855226275"><ele>487.0</ele><time>2026-04-10T15:37:59.999Z</time></trkpt><trkpt lat="44.35631826067401" lon="7.787456690265425"><ele>487.0</ele><time>2026-04-10T15:38:00.999Z</time></trkpt><trkpt lat="44.35641631245566" lon="7.7875487894237185"><ele>487.0</ele><time>2026-04-10T15:38:01.999Z</time></trkpt><trkpt lat="44.35651362405131" lon="7.787632908127121"><ele>487.0</ele><time>2026-04-10T15:38:02.999Z</time></trkpt><trkpt lat="44.35660182729923" lon="7.787722274296628"><ele>486.8</ele><time>2026-04-10T15:38:03.999Z</time></trkpt><trkpt lat="44.35668022857813" lon="7.787802924317497"><ele>486.6</ele><time>2026-04-10T15:38:04.998Z</time></trkpt><trkpt lat="44.35675177486987" lon="7.787890234011911"><ele>486.40000000000003</ele><time>2026-04-10T15:38:05.998Z</time></trkpt><trkpt lat="44.35681227269914" lon="7.787982227419723"><ele>486.20000000000005</ele><time>2026-04-10T15:38:06.998Z</time></trkpt><trkpt lat="44.35686407343437" lon="7.788085996764198"><ele>486.0</ele><time>2026-04-10T15:38:07.998Z</time></trkpt><trkpt lat="44.35691027471261" lon="7.788177709458881"><ele>486.0</ele><time>2026-04-10T15:38:08.998Z</time></trkpt><trkpt lat="44.3569650273266" lon="7.788248581893966"><ele>486.0</ele><time>2026-04-10T15:38:09.998Z</time></trkpt><trkpt lat="44.35704957911627" lon="7.788302686629725"><ele>486.0</ele><time>2026-04-10T15:38:10.998Z</time></trkpt><trkpt lat="44.35715585105615" lon="7.788333993457039"><ele>486.0</ele><time>2026-04-10T15:38:11.998Z</time></trkpt><trkpt lat="44.35727020556152" lon="7.788368857036572"><ele>486.0</ele><time>2026-04-10T15:38:12.998Z</time></trkpt><trkpt lat="44.357389971808594" lon="7.788454942349005"><ele>485.33333333333337</ele><time>2026-04-10T15:38:13.998Z</time></trkpt><trkpt lat="44.3575123319229" lon="7.788556410697445"><ele>484.6666666666667</ele><time>2026-04-10T15:38:14.998Z</time></trkpt><trkpt lat="44.35763878629705" lon="7.788675524542493"><ele>484.0</ele><time>2026-04-10T15:38:15.998Z</time></trkpt><trkpt lat="44.357772034678206" lon="7.788800991895913"><ele>484.0</ele><time>2026-04-10T15:38:16.998Z</time></trkpt><trkpt lat="44.35791600383435" lon="7.788936182406129"><ele>484.0</ele><time>2026-04-10T15:38:17.998Z</time></trkpt><trkpt lat="44.358057660353495" lon="7.789076371318506"><ele>484.0</ele><time>2026-04-10T15:38:18.998Z</time></trkpt><trkpt lat="44.358209809878396" lon="7.789219311303429"><ele>483.33333333333337</ele><time>2026-04-10T15:38:19.998Z</time></trkpt><trkpt lat="44.358366786259914" lon="7.789369544056545"><ele>482.66666666666663</ele><time>2026-04-10T15:38:20.998Z</time></trkpt><trkpt lat="44.358529061277885" lon="7.7895236414912805"><ele>482.0</ele><time>2026-04-10T15:38:21.998Z</time></trkpt><trkpt lat="44.358692813252624" lon="7.789681214702797"><ele>482.0</ele><time>2026-04-10T15:38:22.998Z</time></trkpt><trkpt lat="44.35885913266689" lon="7.789840720953057"><ele>482.0</ele><time>2026-04-10T15:38:23.998Z</time></trkpt><trkpt lat="44.35903295555636" lon="7.790003596074364"><ele>482.0</ele><time>2026-04-10T15:38:24.998Z</time></trkpt><trkpt lat="44.35921292980396" lon="7.790170228561431"><ele>482.0</ele><time>2026-04-10T15:38:25.998Z</time></trkpt><trkpt lat="44.3593948659368" lon="7.790336303303958"><ele>482.0</ele><time>2026-04-10T15:38:26.998Z</time></trkpt><trkpt lat="44.35957544369722" lon="7.790501732018262"><ele>482.0</ele><time>2026-04-10T15:38:28Z</time></trkpt><trkpt lat="44.359752988154305" lon="7.790668226789923"><ele>482.0</ele><time>2026-04-10T15:38:29Z</time></trkpt><trkpt lat="44.359931058447685" lon="7.790835356823296"><ele>482.0</ele><time>2026-04-10T15:38:30Z</time></trkpt><trkpt lat="44.360111995581" lon="7.791003554354039"><ele>482.0</ele><time>2026-04-10T15:38:31Z</time></trkpt><trkpt lat="44.360291574859296" lon="7.791173051356497"><ele>482.3333333333333</ele><time>2026-04-10T15:38:32Z</time></trkpt><trkpt lat="44.36046473235483" lon="7.791337664729674"><ele>482.66666666666663</ele><time>2026-04-10T15:38:33Z</time></trkpt><trkpt lat="44.360628921215124" lon="7.791494068523715"><ele>483.0</ele><time>2026-04-10T15:38:34Z</time></trkpt><trkpt lat="44.36078433261403" lon="7.791640787566841"><ele>482.66666666666663</ele><time>2026-04-10T15:38:35Z</time></trkpt><trkpt lat="44.36093354346195" lon="7.791783969720859"><ele>482.3333333333333</ele><time>2026-04-10T15:38:36Z</time></trkpt><trkpt lat="44.36108375679493" lon="7.791927459236187"><ele>482.0</ele><time>2026-04-10T15:38:37Z</time></trkpt><trkpt lat="44.361234514827174" lon="7.792066206568489"><ele>482.0</ele><time>2026-04-10T15:38:38Z</time></trkpt><trkpt lat="44.361385945010845" lon="7.792202562508178"><ele>482.0</ele><time>2026-04-10T15:38:39Z</time></trkpt><trkpt lat="44.361543637281365" lon="7.792344707185598"><ele>482.0</ele><time>2026-04-10T15:38:40Z</time></trkpt><trkpt lat="44.36170229069663" lon="7.7924933399415846"><ele>482.0</ele><time>2026-04-10T15:38:41Z</time></trkpt><trkpt lat="44.36186257448431" lon="7.792642688328019"><ele>482.0</ele><time>2026-04-10T15:38:42Z</time></trkpt><trkpt lat="44.3620251931815" lon="7.79279478820176"><ele>482.0</ele><time>2026-04-10T15:38:43Z</time></trkpt><trkpt lat="44.362189163931994" lon="7.792951965971147"><ele>481.66666666666663</ele><time>2026-04-10T15:38:44Z</time></trkpt><trkpt lat="44.36235526381954" lon="7.793109939591926"><ele>481.33333333333337</ele><time>2026-04-10T15:38:45Z</time></trkpt><trkpt lat="44.36252501566797" lon="7.793267129161695"><ele>481.0</ele><time>2026-04-10T15:38:46Z</time></trkpt><trkpt lat="44.362694557277926" lon="7.793426701566006"><ele>480.33333333333337</ele><time>2026-04-10T15:38:47Z</time></trkpt><trkpt lat="44.36286542060058" lon="7.793589988579298"><ele>479.66666666666663</ele><time>2026-04-10T15:38:48Z</time></trkpt><trkpt lat="44.36303867045458" lon="7.79375278749263"><ele>479.0</ele><time>2026-04-10T15:38:49Z</time></trkpt><trkpt lat="44.36321470711677" lon="7.793913955354848"><ele>479.0</ele><time>2026-04-10T15:38:50Z</time></trkpt><trkpt lat="44.36338667521695" lon="7.794073930470502"><ele>479.0</ele><time>2026-04-10T15:38:51Z</time></trkpt><trkpt lat="44.363557188412635" lon="7.7942380571083945"><ele>479.0</ele><time>2026-04-10T15:38:52Z</time></trkpt><trkpt lat="44.3637230423722" lon="7.794398791390987"><ele>478.0</ele><time>2026-04-10T15:38:53Z</time></trkpt><trkpt lat="44.36388998552551" lon="7.79455822492869"><ele>477.0</ele><time>2026-04-10T15:38:54Z</time></trkpt><trkpt lat="44.364059468638786" lon="7.794716754391924"><ele>476.0</ele><time>2026-04-10T15:38:55Z</time></trkpt><trkpt lat="44.36422741396509" lon="7.794871560819242"><ele>476.0</ele><time>2026-04-10T15:38:56Z</time></trkpt><trkpt lat="44.36439183723756" lon="7.795026880107018"><ele>476.0</ele><time>2026-04-10T15:38:57Z</time></trkpt><trkpt lat="44.364553528205754" lon="7.795176666013742"><ele>476.0</ele><time>2026-04-10T15:38:58Z</time></trkpt><trkpt lat="44.36470801616098" lon="7.795320381948075"><ele>476.3333333333333</ele><time>2026-04-10T15:38:59Z</time></trkpt><trkpt lat="44.36485896110334" lon="7.795463772985085"><ele>476.66666666666663</ele><time>2026-04-10T15:39:00Z</time></trkpt><trkpt lat="44.36500204904298" lon="7.795597448130156"><ele>477.0</ele><time>2026-04-10T15:39:01Z</time></trkpt><trkpt lat="44.36514117211385" lon="7.795728666421268"><ele>477.0</ele><time>2026-04-10T15:39:02Z</time></trkpt><trkpt lat="44.36527326552609" lon="7.795858705228677"><ele>477.0</ele><time>2026-04-10T15:39:03Z</time></trkpt><trkpt lat="44.365403553174986" lon="7.795984282039084"><ele>477.0</ele><time>2026-04-10T15:39:04Z</time></trkpt><trkpt lat="44.36553551562356" lon="7.79610568290891"><ele>476.66666666666663</ele><time>2026-04-10T15:39:05Z</time></trkpt><trkpt lat="44.365667545154615" lon="7.796230577197864"><ele>476.3333333333333</ele><time>2026-04-10T15:39:06Z</time></trkpt><trkpt lat="44.36579993550607" lon="7.7963583439429005"><ele>476.0</ele><time>2026-04-10T15:39:07Z</time></trkpt><trkpt lat="44.36593297101289" lon="7.796476100708461"><ele>476.0</ele><time>2026-04-10T15:39:08Z</time></trkpt><trkpt lat="44.36605713552608" lon="7.796592863943986"><ele>476.0</ele><time>2026-04-10T15:39:09Z</time></trkpt><trkpt lat="44.36617903262523" lon="7.796708180479933"><ele>476.0</ele><time>2026-04-10T15:39:10Z</time></trkpt><trkpt lat="44.36630525182049" lon="7.796822421011407"><ele>476.0</ele><time>2026-04-10T15:39:11Z</time></trkpt><trkpt lat="44.36642349708" lon="7.796931438142886"><ele>475.5</ele><time>2026-04-10T15:39:11.999Z</time></trkpt><trkpt lat="44.36653773100168" lon="7.7970410048628676"><ele>475.0</ele><time>2026-04-10T15:39:12.999Z</time></trkpt><trkpt lat="44.36664522813696" lon="7.79714358404782"><ele>474.5</ele><time>2026-04-10T15:39:13.999Z</time></trkpt><trkpt lat="44.3667486830975" lon="7.797245863813444"><ele>474.0</ele><time>2026-04-10T15:39:14.999Z</time></trkpt><trkpt lat="44.3668486695835" lon="7.797339721968063"><ele>474.0</ele><time>2026-04-10T15:39:15.999Z</time></trkpt><trkpt lat="44.366948125591364" lon="7.79743127773902"><ele>474.0</ele><time>2026-04-10T15:39:16.999Z</time></trkpt><trkpt lat="44.36703957478238" lon="7.797518830679767"><ele>474.0</ele><time>2026-04-10T15:39:17.999Z</time></trkpt><trkpt lat="44.36712485140514" lon="7.797605884795411"><ele>474.0</ele><time>2026-04-10T15:39:18.999Z</time></trkpt><trkpt lat="44.367203501816306" lon="7.797694201388339"><ele>474.0</ele><time>2026-04-10T15:39:19.999Z</time></trkpt><trkpt lat="44.36726493548131" lon="7.797770099584464"><ele>473.6666666666667</ele><time>2026-04-10T15:39:20.999Z</time></trkpt><trkpt lat="44.36731924577575" lon="7.79785596525571"><ele>473.33333333333337</ele><time>2026-04-10T15:39:21.999Z</time></trkpt><trkpt lat="44.36735730032528" lon="7.797951070368291"><ele>473.0</ele><time>2026-04-10T15:39:22.999Z</time></trkpt><trkpt lat="44.36737280135225" lon="7.798069474783651"><ele>472.6666666666667</ele><time>2026-04-10T15:39:23.999Z</time></trkpt><trkpt lat="44.36738107146174" lon="7.798198948044906"><ele>472.33333333333337</ele><time>2026-04-10T15:39:24.999Z</time></trkpt><trkpt lat="44.36739361669419" lon="7.798325702132728"><ele>472.0</ele><time>2026-04-10T15:39:25.999Z</time></trkpt><trkpt lat="44.3674147368563" lon="7.7984394849504275"><ele>471.40000000000003</ele><time>2026-04-10T15:39:26.999Z</time></trkpt><trkpt lat="44.36745608243811" lon="7.798537253900462"><ele>470.80000000000007</ele><time>2026-04-10T15:39:27.999Z</time></trkpt><trkpt lat="44.36752016077361" lon="7.798623884361581"><ele>470.2</ele><time>2026-04-10T15:39:28.999Z</time></trkpt><trkpt lat="44.367598878047644" lon="7.798680713748349"><ele>469.6</ele><time>2026-04-10T15:39:29.999Z</time></trkpt><trkpt lat="44.36769237008987" lon="7.798709799167289"><ele>469.0</ele><time>2026-04-10T15:39:30.999Z</time></trkpt><trkpt lat="44.36779282754184" lon="7.79870610582444"><ele>469.0</ele><time>2026-04-10T15:39:31.999Z</time></trkpt><trkpt lat="44.36789580056123" lon="7.798672358937145"><ele>469.0</ele><time>2026-04-10T15:39:32.999Z</time></trkpt><trkpt lat="44.36799729953219" lon="7.798631573937584"><ele>469.0</ele><time>2026-04-10T15:39:33.999Z</time></trkpt><trkpt lat="44.36809395256812" lon="7.798626822140429"><ele>469.0</ele><time>2026-04-10T15:39:34.999Z</time></trkpt><trkpt lat="44.36820099812795" lon="7.798661842095698"><ele>469.0</ele><time>2026-04-10T15:39:35.999Z</time></trkpt><trkpt lat="44.3683136529814" lon="7.798734747674962"><ele>469.25</ele><time>2026-04-10T15:39:36.999Z</time></trkpt><trkpt lat="44.36841926952148" lon="7.79882463720408"><ele>469.5</ele><time>2026-04-10T15:39:37.999Z</time></trkpt><trkpt lat="44.36853488540122" lon="7.798932529314294"><ele>469.75</ele><time>2026-04-10T15:39:38.999Z</time></trkpt><trkpt lat="44.36865233279934" lon="7.799052668150998"><ele>470.0</ele><time>2026-04-10T15:39:39.999Z</time></trkpt><trkpt lat="44.3687769836561" lon="7.799183990862184"><ele>470.0</ele><time>2026-04-10T15:39:40.999Z</time></trkpt><trkpt lat="44.36891206007333" lon="7.799321918117876"><ele>470.0</ele><time>2026-04-10T15:39:41.999Z</time></trkpt><trkpt lat="44.3690458523097" lon="7.799460981602395"><ele>470.0</ele><time>2026-04-10T15:39:42.999Z</time></trkpt><trkpt lat="44.369185979787815" lon="7.799604651150611"><ele>469.66666666666663</ele><time>2026-04-10T15:39:43.999Z</time></trkpt><trkpt lat="44.369336141306995" lon="7.799758031453177"><ele>469.33333333333337</ele><time>2026-04-10T15:39:44.999Z</time></trkpt><trkpt lat="44.36948821721673" lon="7.799917564979831"><ele>469.0</ele><time>2026-04-10T15:39:45.999Z</time></trkpt><trkpt lat="44.36963495301665" lon="7.8000755898416365"><ele>468.6666666666667</ele><time>2026-04-10T15:39:46.999Z</time></trkpt><trkpt lat="44.36978849388829" lon="7.800236460632233"><ele>468.33333333333337</ele><time>2026-04-10T15:39:47.999Z</time></trkpt><trkpt lat="44.36994833900891" lon="7.800405329555904"><ele>468.0</ele><time>2026-04-10T15:39:48.999Z</time></trkpt><trkpt lat="44.37009061343482" lon="7.800558240147781"><ele>468.0</ele><time>2026-04-10T15:39:49.999Z</time></trkpt><trkpt lat="44.3702305966548" lon="7.8007082703349635"><ele>468.0</ele><time>2026-04-10T15:39:50.999Z</time></trkpt><trkpt lat="44.37035936597436" lon="7.80085449579761"><ele>468.0</ele><time>2026-04-10T15:39:51.999Z</time></trkpt><trkpt lat="44.37047812637053" lon="7.800999378586158"><ele>467.33333333333337</ele><time>2026-04-10T15:39:52.999Z</time></trkpt><trkpt lat="44.37059722677941" lon="7.80115006591113"><ele>466.6666666666667</ele><time>2026-04-10T15:39:53.999Z</time></trkpt><trkpt lat="44.370710280714015" lon="7.801316936461442"><ele>466.0</ele><time>2026-04-10T15:39:54.999Z</time></trkpt><trkpt lat="44.37081901866177" lon="7.801484325260876"><ele>466.0</ele><time>2026-04-10T15:39:55.999Z</time></trkpt><trkpt lat="44.37092164602681" lon="7.80165788207441"><ele>466.0</ele><time>2026-04-10T15:39:56.999Z</time></trkpt><trkpt lat="44.37101805684956" lon="7.801839627398536"><ele>466.0</ele><time>2026-04-10T15:39:57.999Z</time></trkpt><trkpt lat="44.37111208083869" lon="7.802026821480432"><ele>466.0</ele><time>2026-04-10T15:39:58.999Z</time></trkpt><trkpt lat="44.37120266235222" lon="7.802214992985754"><ele>466.0</ele><time>2026-04-10T15:39:59.999Z</time></trkpt><trkpt lat="44.37129001690901" lon="7.802418086949872"><ele>466.0</ele><time>2026-04-10T15:40:00.999Z</time></trkpt><trkpt lat="44.37137368253019" lon="7.802626325666663"><ele>465.6666666666667</ele><time>2026-04-10T15:40:01.999Z</time></trkpt><trkpt lat="44.371439899697315" lon="7.802847961378115"><ele>465.33333333333337</ele><time>2026-04-10T15:40:02.999Z</time></trkpt><trkpt lat="44.37151694637693" lon="7.803065362358341"><ele>465.0</ele><time>2026-04-10T15:40:03.999Z</time></trkpt><trkpt lat="44.37160859103319" lon="7.803271772247343"><ele>465.0</ele><time>2026-04-10T15:40:04.999Z</time></trkpt><trkpt lat="44.37168005156226" lon="7.803488677342378"><ele>465.0</ele><time>2026-04-10T15:40:05.999Z</time></trkpt><trkpt lat="44.37173533124038" lon="7.80371518212664"><ele>465.0</ele><time>2026-04-10T15:40:06.999Z</time></trkpt><trkpt lat="44.37180248496965" lon="7.803935835386323"><ele>463.66666666666663</ele><time>2026-04-10T15:40:07.999Z</time></trkpt><trkpt lat="44.37187021002057" lon="7.804164706223007"><ele>462.3333333333333</ele><time>2026-04-10T15:40:08.999Z</time></trkpt><trkpt lat="44.37193230092518" lon="7.804387969436988"><ele>461.0</ele><time>2026-04-10T15:40:09.999Z</time></trkpt><trkpt lat="44.371992976492" lon="7.8046027617549285"><ele>461.0</ele><time>2026-04-10T15:40:10.999Z</time></trkpt><trkpt lat="44.37205183863384" lon="7.8048119266255345"><ele>461.0</ele><time>2026-04-10T15:40:11.998Z</time></trkpt><trkpt lat="44.3721097019931" lon="7.8050175423467385"><ele>461.0</ele><time>2026-04-10T15:40:12.998Z</time></trkpt><trkpt lat="44.37216958314746" lon="7.805225225719428"><ele>459.25</ele><time>2026-04-10T15:40:13.998Z</time></trkpt><trkpt lat="44.372223701172636" lon="7.805407463240207"><ele>457.5</ele><time>2026-04-10T15:40:14.998Z</time></trkpt><trkpt lat="44.372281876690224" lon="7.805590454711873"><ele>455.75</ele><time>2026-04-10T15:40:15.998Z</time></trkpt><trkpt lat="44.372342818765354" lon="7.805760104282373"><ele>454.0</ele><time>2026-04-10T15:40:16.998Z</time></trkpt><trkpt lat="44.372420062402604" lon="7.805929490063745"><ele>452.0</ele><time>2026-04-10T15:40:17.998Z</time></trkpt><trkpt lat="44.37252686979442" lon="7.806073424401615"><ele>450.0</ele><time>2026-04-10T15:40:18.998Z</time></trkpt><trkpt lat="44.37263275872737" lon="7.8062241455922186"><ele>448.0</ele><time>2026-04-10T15:40:19.998Z</time></trkpt><trkpt lat="44.372756681273444" lon="7.806361102927493"><ele>448.0</ele><time>2026-04-10T15:40:20.998Z</time></trkpt><trkpt lat="44.3728960864925" lon="7.806487997542578"><ele>448.0</ele><time>2026-04-10T15:40:21.998Z</time></trkpt><trkpt lat="44.37305217373186" lon="7.806594678767579"><ele>448.0</ele><time>2026-04-10T15:40:22.998Z</time></trkpt><trkpt lat="44.37322260461707" lon="7.806696638175122"><ele>447.6666666666667</ele><time>2026-04-10T15:40:23.998Z</time></trkpt><trkpt lat="44.37339590329796" lon="7.8067917449536"><ele>447.33333333333337</ele><time>2026-04-10T15:40:24.998Z</time></trkpt><trkpt lat="44.37357749364093" lon="7.806890013648316"><ele>447.0</ele><time>2026-04-10T15:40:25.998Z</time></trkpt><trkpt lat="44.37376820743401" lon="7.806992594504132"><ele>445.0</ele><time>2026-04-10T15:40:26.998Z</time></trkpt><trkpt lat="44.3739633432038" lon="7.8071025773159"><ele>443.0</ele><time>2026-04-10T15:40:27.998Z</time></trkpt><trkpt lat="44.374163164995004" lon="7.807216986137086"><ele>441.0</ele><time>2026-04-10T15:40:28.998Z</time></trkpt><trkpt lat="44.374369011344555" lon="7.807332697152991"><ele>441.0</ele><time>2026-04-10T15:40:29.998Z</time></trkpt><trkpt lat="44.37457958287467" lon="7.8074497449951314"><ele>441.0</ele><time>2026-04-10T15:40:30.998Z</time></trkpt><trkpt lat="44.37478453701085" lon="7.807562413948247"><ele>441.0</ele><time>2026-04-10T15:40:31.998Z</time></trkpt><trkpt lat="44.374976097608915" lon="7.807667249946437"><ele>440.66666666666663</ele><time>2026-04-10T15:40:32.998Z</time></trkpt><trkpt lat="44.375155843609726" lon="7.80776401112305"><ele>440.3333333333333</ele><time>2026-04-10T15:40:34Z</time></trkpt><trkpt lat="44.37532671970318" lon="7.807855940076183"><ele>440.0</ele><time>2026-04-10T15:40:35Z</time></trkpt><trkpt lat="44.375495003595006" lon="7.80794710826936"><ele>439.66666666666663</ele><time>2026-04-10T15:40:36Z</time></trkpt><trkpt lat="44.37566017057002" lon="7.80803939989291"><ele>439.33333333333337</ele><time>2026-04-10T15:40:37Z</time></trkpt><trkpt lat="44.37582064347526" lon="7.808132545853491"><ele>439.0</ele><time>2026-04-10T15:40:38Z</time></trkpt><trkpt lat="44.375980028939395" lon="7.808223895415536"><ele>439.0</ele><time>2026-04-10T15:40:39Z</time></trkpt><trkpt lat="44.37612716090959" lon="7.808306928136024"><ele>439.0</ele><time>2026-04-10T15:40:40Z</time></trkpt><trkpt lat="44.37626424609818" lon="7.808385802761777"><ele>439.0</ele><time>2026-04-10T15:40:41Z</time></trkpt><trkpt lat="44.376390370030464" lon="7.808462941387452"><ele>439.0</ele><time>2026-04-10T15:40:42Z</time></trkpt><trkpt lat="44.37651367151304" lon="7.808542950565459"><ele>438.75</ele><time>2026-04-10T15:40:43Z</time></trkpt><trkpt lat="44.37662178502587" lon="7.80862014400596"><ele>438.5</ele><time>2026-04-10T15:40:44Z</time></trkpt><trkpt lat="44.37672214778116" lon="7.808702779967083"><ele>438.25</ele><time>2026-04-10T15:40:45Z</time></trkpt><trkpt lat="44.37682671685921" lon="7.808796419955734"><ele>438.0</ele><time>2026-04-10T15:40:46Z</time></trkpt><trkpt lat="44.37692824171886" lon="7.808888090420019"><ele>438.0</ele><time>2026-04-10T15:40:47Z</time></trkpt><trkpt lat="44.37702660146302" lon="7.8089776658685235"><ele>438.0</ele><time>2026-04-10T15:40:48Z</time></trkpt><trkpt lat="44.377126719082554" lon="7.809067518744497"><ele>438.0</ele><time>2026-04-10T15:40:49Z</time></trkpt><trkpt lat="44.37722354423882" lon="7.809156818354554"><ele>438.0</ele><time>2026-04-10T15:40:50Z</time></trkpt><trkpt lat="44.37731713113926" lon="7.809242606314326"><ele>437.5</ele><time>2026-04-10T15:40:51Z</time></trkpt><trkpt lat="44.37741245757917" lon="7.809331000016312"><ele>437.0</ele><time>2026-04-10T15:40:52Z</time></trkpt><trkpt lat="44.37750605532449" lon="7.80941608639234"><ele>436.5</ele><time>2026-04-10T15:40:53Z</time></trkpt><trkpt lat="44.377600987629634" lon="7.809501499104375"><ele>436.0</ele><time>2026-04-10T15:40:54Z</time></trkpt><trkpt lat="44.37769437580792" lon="7.809586490533191"><ele>436.0</ele><time>2026-04-10T15:40:55Z</time></trkpt><trkpt lat="44.37778858213902" lon="7.809669562375032"><ele>436.0</ele><time>2026-04-10T15:40:56Z</time></trkpt><trkpt lat="44.377884870542154" lon="7.809753945723085"><ele>436.0</ele><time>2026-04-10T15:40:57Z</time></trkpt><trkpt lat="44.37797924947204" lon="7.809841257879049"><ele>436.0</ele><time>2026-04-10T15:40:58Z</time></trkpt><trkpt lat="44.37807245458524" lon="7.809923391772574"><ele>436.0</ele><time>2026-04-10T15:40:59Z</time></trkpt><trkpt lat="44.378164515465706" lon="7.810006448814186"><ele>435.8</ele><time>2026-04-10T15:41:00Z</time></trkpt><trkpt lat="44.37825916079134" lon="7.810090724369399"><ele>435.6</ele><time>2026-04-10T15:41:01Z</time></trkpt><trkpt lat="44.37835289355818" lon="7.810175154822891"><ele>435.4</ele><time>2026-04-10T15:41:02Z</time></trkpt><trkpt lat="44.378446686752625" lon="7.81026051626147"><ele>435.2</ele><time>2026-04-10T15:41:03Z</time></trkpt><trkpt lat="44.37853960014651" lon="7.810348663789866"><ele>435.0</ele><time>2026-04-10T15:41:04Z</time></trkpt><trkpt lat="44.37863155819279" lon="7.810434263524973"><ele>435.0</ele><time>2026-04-10T15:41:05Z</time></trkpt><trkpt lat="44.37872495255227" lon="7.810519183689254"><ele>435.0</ele><time>2026-04-10T15:41:06Z</time></trkpt><trkpt lat="44.378818092587" lon="7.810602798537824"><ele>435.0</ele><time>2026-04-10T15:41:07Z</time></trkpt><trkpt lat="44.37891108649333" lon="7.810687632238604"><ele>435.0</ele><time>2026-04-10T15:41:08Z</time></trkpt><trkpt lat="44.37900464300125" lon="7.810772285792723"><ele>435.0</ele><time>2026-04-10T15:41:09Z</time></trkpt><trkpt lat="44.37909603076405" lon="7.810855318168782"><ele>435.0</ele><time>2026-04-10T15:41:10Z</time></trkpt><trkpt lat="44.37918902550739" lon="7.810941125068337"><ele>435.0</ele><time>2026-04-10T15:41:11Z</time></trkpt><trkpt lat="44.37928332790902" lon="7.811025844296362"><ele>435.0</ele><time>2026-04-10T15:41:12Z</time></trkpt><trkpt lat="44.37937806184749" lon="7.8111091387520775"><ele>435.0</ele><time>2026-04-10T15:41:13Z</time></trkpt><trkpt lat="44.37947303089607" lon="7.811194970858864"><ele>435.0</ele><time>2026-04-10T15:41:14Z</time></trkpt><trkpt lat="44.37956927530615" lon="7.8112764565415835"><ele>434.25</ele><time>2026-04-10T15:41:15Z</time></trkpt><trkpt lat="44.37966652229724" lon="7.811361293723963"><ele>433.5</ele><time>2026-04-10T15:41:16Z</time></trkpt><trkpt lat="44.379762973405825" lon="7.81144616934958"><ele>432.75</ele><time>2026-04-10T15:41:17Z</time></trkpt><trkpt lat="44.379859154574454" lon="7.811532523558233"><ele>432.0</ele><time>2026-04-10T15:41:18Z</time></trkpt><trkpt lat="44.37995336219368" lon="7.811618834222578"><ele>432.0</ele><time>2026-04-10T15:41:18.999Z</time></trkpt><trkpt lat="44.380048993671615" lon="7.811708029324932"><ele>432.0</ele><time>2026-04-10T15:41:19.999Z</time></trkpt><trkpt lat="44.38014533800026" lon="7.8117935626635235"><ele>432.0</ele><time>2026-04-10T15:41:20.999Z</time></trkpt><trkpt lat="44.38024232358282" lon="7.811880389342774"><ele>432.0</ele><time>2026-04-10T15:41:21.999Z</time></trkpt><trkpt lat="44.380339668017506" lon="7.811966048868292"><ele>432.0</ele><time>2026-04-10T15:41:22.999Z</time></trkpt><trkpt lat="44.38043203830808" lon="7.812048708148479"><ele>432.00000000000006</ele><time>2026-04-10T15:41:23.999Z</time></trkpt><trkpt lat="44.38052342841983" lon="7.812132316408533"><ele>432.00000000000006</ele><time>2026-04-10T15:41:24.999Z</time></trkpt><trkpt lat="44.38061651488739" lon="7.812213622093514"><ele>432.0</ele><time>2026-04-10T15:41:25.999Z</time></trkpt><trkpt lat="44.38070873598002" lon="7.812296323079689"><ele>432.0</ele><time>2026-04-10T15:41:26.999Z</time></trkpt><trkpt lat="44.380801997557114" lon="7.812382538100248"><ele>431.75</ele><time>2026-04-10T15:41:27.999Z</time></trkpt><trkpt lat="44.38089755938822" lon="7.812466395010307"><ele>431.5</ele><time>2026-04-10T15:41:28.999Z</time></trkpt><trkpt lat="44.380993929646245" lon="7.8125522681640875"><ele>431.25</ele><time>2026-04-10T15:41:29.999Z</time></trkpt><trkpt lat="44.38109094622484" lon="7.812634771794426"><ele>431.0</ele><time>2026-04-10T15:41:30.999Z</time></trkpt><trkpt lat="44.38118455826048" lon="7.81271801444951"><ele>431.0</ele><time>2026-04-10T15:41:31.999Z</time></trkpt><trkpt lat="44.38127865889414" lon="7.8128021681446915"><ele>431.0</ele><time>2026-04-10T15:41:32.999Z</time></trkpt><trkpt lat="44.38137436737676" lon="7.812885717967167"><ele>431.0</ele><time>2026-04-10T15:41:33.999Z</time></trkpt><trkpt lat="44.381469321931526" lon="7.812969693681959"><ele>431.0</ele><time>2026-04-10T15:41:34.999Z</time></trkpt><trkpt lat="44.38156164984697" lon="7.813054832136729"><ele>431.0</ele><time>2026-04-10T15:41:35.999Z</time></trkpt><trkpt lat="44.38165871397642" lon="7.813139798823381"><ele>431.75</ele><time>2026-04-10T15:41:36.999Z</time></trkpt><trkpt lat="44.38175463154994" lon="7.813224743288162"><ele>432.5</ele><time>2026-04-10T15:41:37.999Z</time></trkpt><trkpt lat="44.38185194934603" lon="7.813311148019457"><ele>433.25</ele><time>2026-04-10T15:41:38.999Z</time></trkpt><trkpt lat="44.38195056041552" lon="7.813397095419026"><ele>434.0</ele><time>2026-04-10T15:41:39.999Z</time></trkpt><trkpt lat="44.3820487841553" lon="7.8134862964620275"><ele>433.6</ele><time>2026-04-10T15:41:40.999Z</time></trkpt><trkpt lat="44.382146250070825" lon="7.813573617040503"><ele>433.2</ele><time>2026-04-10T15:41:41.999Z</time></trkpt><trkpt lat="44.38223658130673" lon="7.813653032603746"><ele>432.80000000000007</ele><time>2026-04-10T15:41:42.999Z</time></trkpt><trkpt lat="44.38232463103549" lon="7.813735670236281"><ele>432.40000000000003</ele><time>2026-04-10T15:41:43.999Z</time></trkpt><trkpt lat="44.382412483005275" lon="7.813817243552891"><ele>432.0</ele><time>2026-04-10T15:41:44.999Z</time></trkpt><trkpt lat="44.38250399681936" lon="7.813896524074386"><ele>432.0</ele><time>2026-04-10T15:41:45.999Z</time></trkpt><trkpt lat="44.38259638543207" lon="7.813979357673545"><ele>432.0</ele><time>2026-04-10T15:41:46.999Z</time></trkpt><trkpt lat="44.382692208843565" lon="7.81406010317571"><ele>432.0</ele><time>2026-04-10T15:41:47.999Z</time></trkpt><trkpt lat="44.38278986213097" lon="7.814144015007476"><ele>432.0</ele><time>2026-04-10T15:41:48.999Z</time></trkpt><trkpt lat="44.382888013858" lon="7.814227822820058"><ele>432.0</ele><time>2026-04-10T15:41:49.999Z</time></trkpt><trkpt lat="44.382980250425305" lon="7.814309647443763"><ele>432.00000000000006</ele><time>2026-04-10T15:41:50.999Z</time></trkpt><trkpt lat="44.38307026093378" lon="7.814389999108823"><ele>432.00000000000006</ele><time>2026-04-10T15:41:51.999Z</time></trkpt><trkpt lat="44.38315789674268" lon="7.81447388001644"><ele>432.0</ele><time>2026-04-10T15:41:52.999Z</time></trkpt><trkpt lat="44.38324816521623" lon="7.814555332869485"><ele>432.0</ele><time>2026-04-10T15:41:53.999Z</time></trkpt><trkpt lat="44.38333335737075" lon="7.814631393312485"><ele>431.8</ele><time>2026-04-10T15:41:54.999Z</time></trkpt><trkpt lat="44.38341750276432" lon="7.814702259834754"><ele>431.6</ele><time>2026-04-10T15:41:55.999Z</time></trkpt><trkpt lat="44.38349961011577" lon="7.814771400239576"><ele>431.40000000000003</ele><time>2026-04-10T15:41:56.999Z</time></trkpt><trkpt lat="44.38357472014646" lon="7.8148357678070255"><ele>431.20000000000005</ele><time>2026-04-10T15:41:57.999Z</time></trkpt><trkpt lat="44.38365844985109" lon="7.814904179658866"><ele>431.0</ele><time>2026-04-10T15:41:58.999Z</time></trkpt><trkpt lat="44.38375598774819" lon="7.814977645283178"><ele>430.6</ele><time>2026-04-10T15:41:59.999Z</time></trkpt><trkpt lat="44.38385346020384" lon="7.815058402496777"><ele>430.20000000000005</ele><time>2026-04-10T15:42:00.999Z</time></trkpt><trkpt lat="44.38394220307784" lon="7.815139743123151"><ele>429.79999999999995</ele><time>2026-04-10T15:42:01.999Z</time></trkpt><trkpt lat="44.384031284718446" lon="7.815228472539858"><ele>429.4</ele><time>2026-04-10T15:42:02.999Z</time></trkpt><trkpt lat="44.38412977049048" lon="7.815320729566973"><ele>429.0</ele><time>2026-04-10T15:42:03.999Z</time></trkpt><trkpt lat="44.38422529456027" lon="7.8154054242895175"><ele>429.0</ele><time>2026-04-10T15:42:04.999Z</time></trkpt><trkpt lat="44.384315059249914" lon="7.815483657620791"><ele>429.0</ele><time>2026-04-10T15:42:05.999Z</time></trkpt><trkpt lat="44.3843989848435" lon="7.815564496695825"><ele>429.0</ele><time>2026-04-10T15:42:06.999Z</time></trkpt><trkpt lat="44.384481522229876" lon="7.815640616423536"><ele>429.0</ele><time>2026-04-10T15:42:07.999Z</time></trkpt><trkpt lat="44.38455967604277" lon="7.81571077504147"><ele>429.0</ele><time>2026-04-10T15:42:08.999Z</time></trkpt><trkpt lat="44.38464063419651" lon="7.815788351378464"><ele>428.6</ele><time>2026-04-10T15:42:09.999Z</time></trkpt><trkpt lat="44.384733553562505" lon="7.815878023788733"><ele>428.2</ele><time>2026-04-10T15:42:10.999Z</time></trkpt><trkpt lat="44.38481853917528" lon="7.8159581962238"><ele>427.80000000000007</ele><time>2026-04-10T15:42:11.999Z</time></trkpt><trkpt lat="44.38489543991645" lon="7.81603551909742"><ele>427.40000000000003</ele><time>2026-04-10T15:42:12.999Z</time></trkpt><trkpt lat="44.384976733925384" lon="7.816099548870072"><ele>427.0</ele><time>2026-04-10T15:42:13.999Z</time></trkpt><trkpt lat="44.38503770245788" lon="7.816155089832674"><ele>426.1666666666667</ele><time>2026-04-10T15:42:14.999Z</time></trkpt><trkpt lat="44.385105132451265" lon="7.816214297642246"><ele>425.33333333333337</ele><time>2026-04-10T15:42:15.999Z</time></trkpt><trkpt lat="44.3851660921417" lon="7.816269772280997"><ele>424.5</ele><time>2026-04-10T15:42:16.999Z</time></trkpt><trkpt lat="44.38522233967602" lon="7.816323329216659"><ele>423.66666666666663</ele><time>2026-04-10T15:42:17.998Z</time></trkpt><trkpt lat="44.38531468090761" lon="7.816411839609219"><ele>422.8333333333333</ele><time>2026-04-10T15:42:19.998Z</time></trkpt><trkpt lat="44.385380403564064" lon="7.816481059049192"><ele>422.0</ele><time>2026-04-10T15:42:21.998Z</time></trkpt><trkpt lat="44.38543330654469" lon="7.8165394331229985"><ele>421.99999999999994</ele><time>2026-04-10T15:42:23.998Z</time></trkpt><trkpt lat="44.385474327427005" lon="7.8166125017750225"><ele>422.0</ele><time>2026-04-10T15:42:25.998Z</time></trkpt><trkpt lat="44.38547872670326" lon="7.816764146807323"><ele>422.0</ele><time>2026-04-10T15:42:27.998Z</time></trkpt><trkpt lat="44.385448344766395" lon="7.8168595001635355"><ele>422.0</ele><time>2026-04-10T15:42:28.998Z</time></trkpt><trkpt lat="44.385408369834735" lon="7.816966332734905"><ele>421.99999999999994</ele><time>2026-04-10T15:42:29.998Z</time></trkpt><trkpt lat="44.38535867365449" lon="7.817065636373109"><ele>422.0</ele><time>2026-04-10T15:42:30.998Z</time></trkpt><trkpt lat="44.38530426014581" lon="7.817170126764521"><ele>420.66666666666663</ele><time>2026-04-10T15:42:31.998Z</time></trkpt><trkpt lat="44.38524940010207" lon="7.817282059705994"><ele>419.3333333333333</ele><time>2026-04-10T15:42:32.998Z</time></trkpt><trkpt lat="44.38519834139055" lon="7.817395390920841"><ele>418.0</ele><time>2026-04-10T15:42:33.998Z</time></trkpt><trkpt lat="44.385156144869924" lon="7.81750270563031"><ele>416.66666666666663</ele><time>2026-04-10T15:42:34.998Z</time></trkpt><trkpt lat="44.38511218877082" lon="7.8175870795434"><ele>415.3333333333333</ele><time>2026-04-10T15:42:35.998Z</time></trkpt><trkpt lat="44.38508788506313" lon="7.817684879718436"><ele>414.0</ele><time>2026-04-10T15:42:36.998Z</time></trkpt><trkpt lat="44.38506916192796" lon="7.8177692418069"><ele>413.1666666666667</ele><time>2026-04-10T15:42:37.998Z</time></trkpt><trkpt lat="44.385062041612635" lon="7.817876956111861"><ele>412.33333333333337</ele><time>2026-04-10T15:42:38.998Z</time></trkpt><trkpt lat="44.38504438068726" lon="7.81796874390204"><ele>411.5</ele><time>2026-04-10T15:42:40Z</time></trkpt><trkpt lat="44.3850273876975" lon="7.818063873205406"><ele>410.6666666666667</ele><time>2026-04-10T15:42:41Z</time></trkpt><trkpt lat="44.38499555940441" lon="7.818148391078474"><ele>409.83333333333337</ele><time>2026-04-10T15:42:42Z</time></trkpt><trkpt lat="44.38496642092525" lon="7.818330592612933"><ele>409.0</ele><time>2026-04-10T15:42:44Z</time></trkpt><trkpt lat="44.38494106252372" lon="7.818487245575123"><ele>408.6</ele><time>2026-04-10T15:42:46Z</time></trkpt><trkpt lat="44.384916848877" lon="7.818636942939071"><ele>408.2</ele><time>2026-04-10T15:42:48Z</time></trkpt><trkpt lat="44.38490369579097" lon="7.818781943710145"><ele>407.8</ele><time>2026-04-10T15:42:50Z</time></trkpt><trkpt lat="44.384876096460545" lon="7.818925161901668"><ele>407.40000000000003</ele><time>2026-04-10T15:42:52Z</time></trkpt><trkpt lat="44.384852012187245" lon="7.819082579287913"><ele>407.0</ele><time>2026-04-10T15:42:54Z</time></trkpt><trkpt lat="44.384837574715455" lon="7.819214186305573"><ele>407.00000000000006</ele><time>2026-04-10T15:42:56Z</time></trkpt><trkpt lat="44.384806647201486" lon="7.819309194190495"><ele>407.0</ele><time>2026-04-10T15:42:58Z</time></trkpt><trkpt lat="44.38478735541274" lon="7.819423114398525"><ele>407.0</ele><time>2026-04-10T15:43:00Z</time></trkpt><trkpt lat="44.38476574644383" lon="7.819545878878388"><ele>407.0</ele><time>2026-04-10T15:43:02Z</time></trkpt><trkpt lat="44.384750531656884" lon="7.819631510402312"><ele>407.0</ele><time>2026-04-10T15:43:04Z</time></trkpt><trkpt lat="44.38473351856111" lon="7.819722444996797"><ele>407.00000000000006</ele><time>2026-04-10T15:43:07Z</time></trkpt><trkpt lat="44.384717376509975" lon="7.819807839207902"><ele>407.0</ele><time>2026-04-10T15:43:12Z</time></trkpt><trkpt lat="44.384704428340385" lon="7.819898318551858"><ele>406.0</ele><time>2026-04-10T15:43:15Z</time></trkpt><trkpt lat="44.38469346557637" lon="7.819996946711706"><ele>405.0</ele><time>2026-04-10T15:43:20Z</time></trkpt><trkpt lat="44.3847504097977" lon="7.820104948531277"><ele>404.0</ele><time>2026-04-10T15:43:22.999Z</time></trkpt><trkpt lat="44.38483079473731" lon="7.8201553234988355"><ele>403.0</ele><time>2026-04-10T15:43:24.999Z</time></trkpt><trkpt lat="44.38492833222176" lon="7.8201850952125875"><ele>402.0</ele><time>2026-04-10T15:43:26.999Z</time></trkpt><trkpt lat="44.38503569818112" lon="7.820178280769286"><ele>402.0</ele><time>2026-04-10T15:43:28.999Z</time></trkpt><trkpt lat="44.38513243527188" lon="7.820136666228323"><ele>402.0</ele><time>2026-04-10T15:43:30.999Z</time></trkpt><trkpt lat="44.38519372193287" lon="7.820110120915954"><ele>402.0</ele><time>2026-04-10T15:43:31.999Z</time></trkpt><trkpt lat="44.385271758532056" lon="7.820073188929476"><ele>402.0</ele><time>2026-04-10T15:43:32.999Z</time></trkpt><trkpt lat="44.38535075496539" lon="7.820026273340124"><ele>402.0</ele><time>2026-04-10T15:43:33.999Z</time></trkpt><trkpt lat="44.38541802506188" lon="7.819973094194779"><ele>402.0</ele><time>2026-04-10T15:43:34.999Z</time></trkpt><trkpt lat="44.385485748360004" lon="7.819910045133293"><ele>401.5</ele><time>2026-04-10T15:43:35.999Z</time></trkpt><trkpt lat="44.38555529477509" lon="7.819847169895999"><ele>401.0</ele><time>2026-04-10T15:43:36.999Z</time></trkpt><trkpt lat="44.38564730279768" lon="7.8197531409519465"><ele>400.5</ele><time>2026-04-10T15:43:38.999Z</time></trkpt><trkpt lat="44.38573520283314" lon="7.819722608688631"><ele>400.0</ele><time>2026-04-10T15:43:40.999Z</time></trkpt><trkpt lat="44.38579607040601" lon="7.819759889790031"><ele>399.5</ele><time>2026-04-10T15:43:41.999Z</time></trkpt><trkpt lat="44.3858384451965" lon="7.8198465254954"><ele>399.0</ele><time>2026-04-10T15:43:42.999Z</time></trkpt><trkpt lat="44.38589054133434" lon="7.819899384500249"><ele>399.0</ele><time>2026-04-10T15:43:43.999Z</time></trkpt><trkpt lat="44.385978647805395" lon="7.81998869173454"><ele>399.0</ele><time>2026-04-10T15:43:45.999Z</time></trkpt><trkpt lat="44.38605165191943" lon="7.820036580044011"><ele>399.0</ele><time>2026-04-10T15:43:47.999Z</time></trkpt><trkpt lat="44.38611166780204" lon="7.820114187379142"><ele>399.0</ele><time>2026-04-10T15:43:50.999Z</time></trkpt><trkpt lat="44.38616781505244" lon="7.820167198154791"><ele>399.0</ele><time>2026-04-10T15:43:55.999Z</time></trkpt><trkpt lat="44.38622706049837" lon="7.820275136573351"><ele>399.0</ele><time>2026-04-10T15:43:59.999Z</time></trkpt><trkpt lat="44.38630227895007" lon="7.8202779095007795"><ele>399.0</ele><time>2026-04-10T15:44:01.999Z</time></trkpt><trkpt lat="44.3863811899014" lon="7.820238516493988"><ele>399.0</ele><time>2026-04-10T15:44:03.999Z</time></trkpt><trkpt lat="44.38645395119298" lon="7.820186949207382"><ele>399.0</ele><time>2026-04-10T15:44:05.999Z</time></trkpt><trkpt lat="44.38652380311526" lon="7.820156647788463"><ele>399.0</ele><time>2026-04-10T15:44:08.999Z</time></trkpt><trkpt lat="44.38659818067294" lon="7.820133512565158"><ele>399.0</ele><time>2026-04-10T15:44:11.999Z</time></trkpt><trkpt lat="44.38666073569493" lon="7.820114054759318"><ele>399.0</ele><time>2026-04-10T15:44:14.999Z</time></trkpt><trkpt lat="44.386735279936794" lon="7.820092328524023"><ele>399.0</ele><time>2026-04-10T15:44:18.999Z</time></trkpt><trkpt lat="44.38680585893789" lon="7.820060492343612"><ele>399.0</ele><time>2026-04-10T15:44:20.999Z</time></trkpt><trkpt lat="44.38690030454102" lon="7.820064373461601"><ele>399.0</ele><time>2026-04-10T15:44:23.998Z</time></trkpt><trkpt lat="44.3869705510839" lon="7.820073445956902"><ele>399.0</ele><time>2026-04-10T15:44:25.998Z</time></trkpt><trkpt lat="44.38704148197443" lon="7.820077050033359"><ele>399.0</ele><time>2026-04-10T15:44:27.998Z</time></trkpt><trkpt lat="44.38710710743501" lon="7.820062508875378"><ele>399.0</ele><time>2026-04-10T15:44:29.998Z</time></trkpt><trkpt lat="44.3871836337339" lon="7.820064225232782"><ele>399.0</ele><time>2026-04-10T15:44:31.998Z</time></trkpt><trkpt lat="44.38728514227071" lon="7.820049230306549"><ele>399.0</ele><time>2026-04-10T15:44:33.998Z</time></trkpt><trkpt lat="44.387378434074876" lon="7.820048349335129"><ele>399.0</ele><time>2026-04-10T15:44:35.998Z</time></trkpt><trkpt lat="44.387443770994295" lon="7.820079391640425"><ele>399.0</ele><time>2026-04-10T15:44:37.998Z</time></trkpt><trkpt lat="44.387511609474934" lon="7.820107585845513"><ele>399.0</ele><time>2026-04-10T15:44:38.998Z</time></trkpt><trkpt lat="44.387561583167994" lon="7.82016318459106"><ele>399.0</ele><time>2026-04-10T15:44:41.998Z</time></trkpt><trkpt lat="44.38762995137542" lon="7.820212772680663"><ele>399.5</ele><time>2026-04-10T15:44:47Z</time></trkpt><trkpt lat="44.38771312529788" lon="7.820276657529441"><ele>400.0</ele><time>2026-04-10T15:44:49Z</time></trkpt><trkpt lat="44.38778339814366" lon="7.820324640555181"><ele>400.5</ele><time>2026-04-10T15:44:51Z</time></trkpt><trkpt lat="44.38787136457622" lon="7.820387801076771"><ele>401.0</ele><time>2026-04-10T15:44:53Z</time></trkpt><trkpt lat="44.38794406594954" lon="7.8204393060503525"><ele>401.5</ele><time>2026-04-10T15:44:55Z</time></trkpt><trkpt lat="44.38802879660606" lon="7.820488041415126"><ele>402.0</ele><time>2026-04-10T15:44:57Z</time></trkpt><trkpt lat="44.388108746615366" lon="7.820519805547873"><ele>402.0</ele><time>2026-04-10T15:44:59Z</time></trkpt><trkpt lat="44.38820188710742" lon="7.8205489650973155"><ele>402.0</ele><time>2026-04-10T15:45:01Z</time></trkpt><trkpt lat="44.38830229913766" lon="7.8205531396376715"><ele>402.0</ele><time>2026-04-10T15:45:03Z</time></trkpt><trkpt lat="44.38837699440943" lon="7.820541434912199"><ele>402.0</ele><time>2026-04-10T15:45:04Z</time></trkpt><trkpt lat="44.388441045188095" lon="7.820525802426497"><ele>402.0</ele><time>2026-04-10T15:45:05Z</time></trkpt><trkpt lat="44.38855166272482" lon="7.820507743063625"><ele>402.0</ele><time>2026-04-10T15:45:07Z</time></trkpt><trkpt lat="44.38865958406809" lon="7.820531713700915"><ele>402.0</ele><time>2026-04-10T15:45:09Z</time></trkpt><trkpt lat="44.38875477835643" lon="7.820501643356702"><ele>402.0</ele><time>2026-04-10T15:45:11Z</time></trkpt><trkpt lat="44.388810366639625" lon="7.8204549745469665"><ele>402.0</ele><time>2026-04-10T15:45:13Z</time></trkpt><trkpt lat="44.38886111322482" lon="7.820401758502407"><ele>402.0</ele><time>2026-04-10T15:45:17Z</time></trkpt><trkpt lat="44.38894583652894" lon="7.8203642457907865"><ele>402.0</ele><time>2026-04-10T15:45:20Z</time></trkpt><trkpt lat="44.389035225817565" lon="7.820339020603829"><ele>402.0</ele><time>2026-04-10T15:45:23Z</time></trkpt><trkpt lat="44.389125679977774" lon="7.8203008342208875"><ele>401.5</ele><time>2026-04-10T15:45:26Z</time></trkpt><trkpt lat="44.38923662245815" lon="7.820296373095875"><ele>401.0</ele><time>2026-04-10T15:45:28Z</time></trkpt><trkpt lat="44.38931241418817" lon="7.820292975996493"><ele>400.5</ele><time>2026-04-10T15:45:35.999Z</time></trkpt><trkpt lat="44.38938303516406" lon="7.820305707234269"><ele>400.0</ele><time>2026-04-10T15:45:37.999Z</time></trkpt><trkpt lat="44.389450398149236" lon="7.82032504179698"><ele>399.5</ele><time>2026-04-10T15:45:40.999Z</time></trkpt><trkpt lat="44.38954197147905" lon="7.8203549034502835"><ele>399.0</ele><time>2026-04-10T15:45:43.999Z</time></trkpt><trkpt lat="44.389606290913555" lon="7.820381645634183"><ele>398.1666666666667</ele><time>2026-04-10T15:45:53.999Z</time></trkpt><trkpt lat="44.3897074107703" lon="7.82043393318029"><ele>397.33333333333337</ele><time>2026-04-10T15:45:56.999Z</time></trkpt><trkpt lat="44.38979316290554" lon="7.820494824310334"><ele>396.5</ele><time>2026-04-10T15:45:58.999Z</time></trkpt><trkpt lat="44.389849845881535" lon="7.820533761719692"><ele>395.6666666666667</ele><time>2026-04-10T15:46:00.999Z</time></trkpt><trkpt lat="44.38989807218911" lon="7.82060214758242"><ele>394.83333333333337</ele><time>2026-04-10T15:46:04.999Z</time></trkpt><trkpt lat="44.38997466573802" lon="7.820651248887842"><ele>394.0</ele><time>2026-04-10T15:46:07.999Z</time></trkpt><trkpt lat="44.39004670547624" lon="7.820668213825522"><ele>394.0</ele><time>2026-04-10T15:46:09.999Z</time></trkpt><trkpt lat="44.39011667638815" lon="7.820695599294927"><ele>394.0</ele><time>2026-04-10T15:46:12.999Z</time></trkpt><trkpt lat="44.39022816234806" lon="7.820740395908124"><ele>394.0</ele><time>2026-04-10T15:46:14.999Z</time></trkpt><trkpt lat="44.39029367090899" lon="7.820746595095378"><ele>394.0</ele><time>2026-04-10T15:46:15.999Z</time></trkpt><trkpt lat="44.39040484352323" lon="7.820740932393965"><ele>394.0</ele><time>2026-04-10T15:46:17.999Z</time></trkpt><trkpt lat="44.390533478074296" lon="7.820737049524275"><ele>393.6</ele><time>2026-04-10T15:46:19.999Z</time></trkpt><trkpt lat="44.39063046561623" lon="7.82072831887268"><ele>393.2</ele><time>2026-04-10T15:46:21.999Z</time></trkpt><trkpt lat="44.39073617751491" lon="7.820716442191117"><ele>392.8</ele><time>2026-04-10T15:46:23.999Z</time></trkpt><trkpt lat="44.39084864617423" lon="7.820712985285208"><ele>392.40000000000003</ele><time>2026-04-10T15:46:25.999Z</time></trkpt><trkpt lat="44.390966862060665" lon="7.8206942362367435"><ele>392.0</ele><time>2026-04-10T15:46:27.999Z</time></trkpt><trkpt lat="44.391035854955966" lon="7.820683218173403"><ele>391.99999999999994</ele><time>2026-04-10T15:46:28.998Z</time></trkpt><trkpt lat="44.39110806024399" lon="7.8206726078840925"><ele>392.0</ele><time>2026-04-10T15:46:29.998Z</time></trkpt><trkpt lat="44.39117117066122" lon="7.820660685726394"><ele>392.0</ele><time>2026-04-10T15:46:30.998Z</time></trkpt><trkpt lat="44.39126794979664" lon="7.820647517569389"><ele>392.0</ele><time>2026-04-10T15:46:32.998Z</time></trkpt><trkpt lat="44.39136995377195" lon="7.820646324769357"><ele>391.99999999999994</ele><time>2026-04-10T15:46:34.998Z</time></trkpt><trkpt lat="44.39147870976513" lon="7.820639304164755"><ele>392.0</ele><time>2026-04-10T15:46:36.998Z</time></trkpt><trkpt lat="44.39159122823463" lon="7.8206233073362945"><ele>391.49999999999994</ele><time>2026-04-10T15:46:38.998Z</time></trkpt><trkpt lat="44.3917077204847" lon="7.820614947684521"><ele>391.0</ele><time>2026-04-10T15:46:40.998Z</time></trkpt><trkpt lat="44.39177263081006" lon="7.82061326133004"><ele>390.5</ele><time>2026-04-10T15:46:41.998Z</time></trkpt><trkpt lat="44.391842140290706" lon="7.820607506661988"><ele>390.0</ele><time>2026-04-10T15:46:42.998Z</time></trkpt><trkpt lat="44.391921660965" lon="7.820606291722735"><ele>389.49999999999994</ele><time>2026-04-10T15:46:43.998Z</time></trkpt><trkpt lat="44.39200415190069" lon="7.820612005551257"><ele>389.0</ele><time>2026-04-10T15:46:44.998Z</time></trkpt><trkpt lat="44.392084822267186" lon="7.820614092345657"><ele>388.99999999999994</ele><time>2026-04-10T15:46:45.998Z</time></trkpt><trkpt lat="44.39215932705454" lon="7.820609557978617"><ele>389.0</ele><time>2026-04-10T15:46:46.998Z</time></trkpt><trkpt lat="44.392232575542835" lon="7.820603124229178"><ele>389.0</ele><time>2026-04-10T15:46:47.998Z</time></trkpt><trkpt lat="44.39231390650136" lon="7.8205913092042625"><ele>389.0</ele><time>2026-04-10T15:46:48.998Z</time></trkpt><trkpt lat="44.39241434611104" lon="7.8205648539576105"><ele>388.99999999999994</ele><time>2026-04-10T15:46:49.998Z</time></trkpt><trkpt lat="44.392510217355614" lon="7.820556715424421"><ele>389.0</ele><time>2026-04-10T15:46:50.998Z</time></trkpt><trkpt lat="44.39259951025774" lon="7.820564179202216"><ele>388.79999999999995</ele><time>2026-04-10T15:46:52Z</time></trkpt><trkpt lat="44.39268186301114" lon="7.82055813363132"><ele>388.59999999999997</ele><time>2026-04-10T15:46:53Z</time></trkpt><trkpt lat="44.39274856962707" lon="7.820556772750503"><ele>388.4</ele><time>2026-04-10T15:46:54Z</time></trkpt><trkpt lat="44.392817039485664" lon="7.820585894079244"><ele>388.2</ele><time>2026-04-10T15:46:55Z</time></trkpt><trkpt lat="44.39288901452648" lon="7.820687426742697"><ele>388.0</ele><time>2026-04-10T15:46:57Z</time></trkpt><trkpt lat="44.39296381069463" lon="7.820863713486231"><ele>388.00000000000006</ele><time>2026-04-10T15:46:59Z</time></trkpt><trkpt lat="44.39302133952454" lon="7.820960695408813"><ele>388.0</ele><time>2026-04-10T15:47:00Z</time></trkpt><trkpt lat="44.39305685242707" lon="7.821056419332605"><ele>388.0</ele><time>2026-04-10T15:47:01Z</time></trkpt><trkpt lat="44.39304526370626" lon="7.821161621172661"><ele>388.0</ele><time>2026-04-10T15:47:02Z</time></trkpt><trkpt lat="44.393046099904566" lon="7.821289797330419"><ele>388.00000000000006</ele><time>2026-04-10T15:47:03Z</time></trkpt><trkpt lat="44.393044426966306" lon="7.821420315023713"><ele>388.0</ele><time>2026-04-10T15:47:04Z</time></trkpt><trkpt lat="44.39305698904606" lon="7.821561731063713"><ele>387.4</ele><time>2026-04-10T15:47:05Z</time></trkpt><trkpt lat="44.393047228458" lon="7.821690831210618"><ele>386.79999999999995</ele><time>2026-04-10T15:47:06Z</time></trkpt><trkpt lat="44.39304178034159" lon="7.8218008472276175"><ele>386.2</ele><time>2026-04-10T15:47:07Z</time></trkpt><trkpt lat="44.393077780480496" lon="7.821977074629894"><ele>385.6</ele><time>2026-04-10T15:47:09Z</time></trkpt><trkpt lat="44.39312890862336" lon="7.822061664752516"><ele>385.0</ele><time>2026-04-10T15:47:10Z</time></trkpt><trkpt lat="44.39320072185203" lon="7.822150781070754"><ele>384.4</ele><time>2026-04-10T15:47:11Z</time></trkpt><trkpt lat="44.39326600731318" lon="7.822234704552812"><ele>383.8</ele><time>2026-04-10T15:47:12Z</time></trkpt><trkpt lat="44.39333143175949" lon="7.822319196220182"><ele>383.20000000000005</ele><time>2026-04-10T15:47:13Z</time></trkpt><trkpt lat="44.39340684686685" lon="7.822392952191871"><ele>382.6</ele><time>2026-04-10T15:47:14Z</time></trkpt><trkpt lat="44.393490125417664" lon="7.822460872656738"><ele>382.0</ele><time>2026-04-10T15:47:15Z</time></trkpt><trkpt lat="44.39357840938136" lon="7.8225381345028895"><ele>382.0</ele><time>2026-04-10T15:47:16Z</time></trkpt><trkpt lat="44.39366415375566" lon="7.822623031982702"><ele>382.0</ele><time>2026-04-10T15:47:17Z</time></trkpt><trkpt lat="44.393741981976845" lon="7.822704718589664"><ele>382.0</ele><time>2026-04-10T15:47:18Z</time></trkpt><trkpt lat="44.3938129237648" lon="7.822784708906019"><ele>382.0</ele><time>2026-04-10T15:47:19Z</time></trkpt><trkpt lat="44.3938931848788" lon="7.822865288057194"><ele>382.0</ele><time>2026-04-10T15:47:20Z</time></trkpt><trkpt lat="44.39397455937114" lon="7.822945619337813"><ele>381.40000000000003</ele><time>2026-04-10T15:47:21Z</time></trkpt><trkpt lat="44.394056719602304" lon="7.8230214601501045"><ele>380.8</ele><time>2026-04-10T15:47:22Z</time></trkpt><trkpt lat="44.39413301611478" lon="7.823088228904478"><ele>380.2</ele><time>2026-04-10T15:47:23Z</time></trkpt><trkpt lat="44.394211230720806" lon="7.823153456199074"><ele>379.6</ele><time>2026-04-10T15:47:24Z</time></trkpt><trkpt lat="44.39428943834849" lon="7.823215932597156"><ele>379.0</ele><time>2026-04-10T15:47:25Z</time></trkpt><trkpt lat="44.39437180384039" lon="7.823282259045802"><ele>379.0</ele><time>2026-04-10T15:47:26Z</time></trkpt><trkpt lat="44.394461095321525" lon="7.8233512049275475"><ele>379.0</ele><time>2026-04-10T15:47:27Z</time></trkpt><trkpt lat="44.394548970077146" lon="7.823421646239232"><ele>379.0</ele><time>2026-04-10T15:47:28Z</time></trkpt><trkpt lat="44.3946366718599" lon="7.823496545542284"><ele>379.0</ele><time>2026-04-10T15:47:29Z</time></trkpt><trkpt lat="44.394721507952056" lon="7.8235730047183"><ele>379.0</ele><time>2026-04-10T15:47:30Z</time></trkpt><trkpt lat="44.394794252511645" lon="7.8236447483973315"><ele>379.3333333333333</ele><time>2026-04-10T15:47:31Z</time></trkpt><trkpt lat="44.39485494739775" lon="7.823705942906178"><ele>379.66666666666663</ele><time>2026-04-10T15:47:32Z</time></trkpt><trkpt lat="44.39494068122408" lon="7.823800923191447"><ele>380.0</ele><time>2026-04-10T15:47:33.999Z</time></trkpt><trkpt lat="44.39499103319231" lon="7.8238646062658646"><ele>380.3333333333333</ele><time>2026-04-10T15:47:37.999Z</time></trkpt><trkpt lat="44.39504056825555" lon="7.823957705691832"><ele>380.6666666666667</ele><time>2026-04-10T15:47:39.999Z</time></trkpt><trkpt lat="44.39509117916465" lon="7.824096770134223"><ele>381.0</ele><time>2026-04-10T15:47:41.999Z</time></trkpt><trkpt lat="44.395185628506795" lon="7.824112576879737"><ele>381.0</ele><time>2026-04-10T15:47:43.999Z</time></trkpt><trkpt lat="44.39525286859126" lon="7.824106101245621"><ele>381.0</ele><time>2026-04-10T15:47:44.999Z</time></trkpt><trkpt lat="44.39532944916285" lon="7.824125193362737"><ele>381.0</ele><time>2026-04-10T15:47:45.999Z</time></trkpt><trkpt lat="44.395415914525515" lon="7.8241745036160655"><ele>381.0</ele><time>2026-04-10T15:47:46.999Z</time></trkpt><trkpt lat="44.39549433738907" lon="7.824231738701194"><ele>381.0</ele><time>2026-04-10T15:47:47.999Z</time></trkpt><trkpt lat="44.39558660065803" lon="7.824295128634832"><ele>381.0</ele><time>2026-04-10T15:47:48.999Z</time></trkpt><trkpt lat="44.39568469443645" lon="7.824360459454018"><ele>380.8</ele><time>2026-04-10T15:47:49.999Z</time></trkpt><trkpt lat="44.39577741500159" lon="7.82441440150121"><ele>380.6</ele><time>2026-04-10T15:47:50.999Z</time></trkpt><trkpt lat="44.395877561369964" lon="7.824456780993558"><ele>380.4</ele><time>2026-04-10T15:47:51.999Z</time></trkpt><trkpt lat="44.39598361921562" lon="7.824497473378652"><ele>380.2</ele><time>2026-04-10T15:47:52.999Z</time></trkpt><trkpt lat="44.39608697409468" lon="7.824537779310349"><ele>380.0</ele><time>2026-04-10T15:47:53.999Z</time></trkpt><trkpt lat="44.39619505510362" lon="7.824569348471909"><ele>380.0</ele><time>2026-04-10T15:47:54.999Z</time></trkpt><trkpt lat="44.396308125707776" lon="7.824598203089277"><ele>380.0</ele><time>2026-04-10T15:47:55.999Z</time></trkpt><trkpt lat="44.39642511305442" lon="7.824625571574386"><ele>380.0</ele><time>2026-04-10T15:47:56.999Z</time></trkpt><trkpt lat="44.39654128692631" lon="7.8246408075266345"><ele>380.0</ele><time>2026-04-10T15:47:57.999Z</time></trkpt><trkpt lat="44.39665635476308" lon="7.824651122575369"><ele>382.75</ele><time>2026-04-10T15:47:58.999Z</time></trkpt><trkpt lat="44.39677354572952" lon="7.824652492503423"><ele>385.5</ele><time>2026-04-10T15:47:59.999Z</time></trkpt><trkpt lat="44.396895255961404" lon="7.824646819019386"><ele>388.25</ele><time>2026-04-10T15:48:00.999Z</time></trkpt><trkpt lat="44.39701868470741" lon="7.824629213400723"><ele>391.0</ele><time>2026-04-10T15:48:01.999Z</time></trkpt><trkpt lat="44.3971503608013" lon="7.824605305703135"><ele>392.5</ele><time>2026-04-10T15:48:02.999Z</time></trkpt><trkpt lat="44.39727781010388" lon="7.824594650213642"><ele>394.0</ele><time>2026-04-10T15:48:03.999Z</time></trkpt><trkpt lat="44.39739146441149" lon="7.824598314973875"><ele>395.5</ele><time>2026-04-10T15:48:04.999Z</time></trkpt><trkpt lat="44.39749875390334" lon="7.824622897433072"><ele>397.0</ele><time>2026-04-10T15:48:05.999Z</time></trkpt><trkpt lat="44.39761056403304" lon="7.824675535167007"><ele>397.0</ele><time>2026-04-10T15:48:06.999Z</time></trkpt><trkpt lat="44.39772078996602" lon="7.824732688137363"><ele>397.0</ele><time>2026-04-10T15:48:07.999Z</time></trkpt><trkpt lat="44.39781232998035" lon="7.824794496204262"><ele>397.0</ele><time>2026-04-10T15:48:08.999Z</time></trkpt><trkpt lat="44.39788765795125" lon="7.824845936168364"><ele>397.0</ele><time>2026-04-10T15:48:09.999Z</time></trkpt><trkpt lat="44.39795750803677" lon="7.824890514369927"><ele>397.0</ele><time>2026-04-10T15:48:10.999Z</time></trkpt><trkpt lat="44.39806377734028" lon="7.824946911407854"><ele>398.20000000000005</ele><time>2026-04-10T15:48:12.999Z</time></trkpt><trkpt lat="44.398132256466425" lon="7.824978375023838"><ele>399.4</ele><time>2026-04-10T15:48:14.999Z</time></trkpt><trkpt lat="44.39824617715437" lon="7.825014127132356"><ele>400.6</ele><time>2026-04-10T15:48:17.999Z</time></trkpt><trkpt lat="44.398323997512016" lon="7.825008364198077"><ele>401.79999999999995</ele><time>2026-04-10T15:48:18.999Z</time></trkpt><trkpt lat="44.39841149691675" lon="7.825025030507159"><ele>403.0</ele><time>2026-04-10T15:48:19.999Z</time></trkpt><trkpt lat="44.39849117110331" lon="7.825164044608131"><ele>402.0</ele><time>2026-04-10T15:48:20.999Z</time></trkpt><trkpt lat="44.398599571178494" lon="7.825257459839512"><ele>401.0</ele><time>2026-04-10T15:48:21.999Z</time></trkpt><trkpt lat="44.39871020276652" lon="7.825357408701287"><ele>400.0</ele><time>2026-04-10T15:48:22.999Z</time></trkpt><trkpt lat="44.39880440239698" lon="7.825448360981117"><ele>399.0</ele><time>2026-04-10T15:48:23.999Z</time></trkpt><trkpt lat="44.398894158448904" lon="7.825543889544902"><ele>399.0</ele><time>2026-04-10T15:48:24.999Z</time></trkpt><trkpt lat="44.398991897721324" lon="7.8256388923981675"><ele>399.0</ele><time>2026-04-10T15:48:25.999Z</time></trkpt><trkpt lat="44.399091271788876" lon="7.825730252029828"><ele>399.0</ele><time>2026-04-10T15:48:26.999Z</time></trkpt><trkpt lat="44.399184771542416" lon="7.825825396361375"><ele>399.0</ele><time>2026-04-10T15:48:27.999Z</time></trkpt><trkpt lat="44.399281616673704" lon="7.825916152730944"><ele>398.0</ele><time>2026-04-10T15:48:28.999Z</time></trkpt><trkpt lat="44.399379840830896" lon="7.8260057451255145"><ele>397.0</ele><time>2026-04-10T15:48:29.999Z</time></trkpt><trkpt lat="44.3994760163474" lon="7.826099287559478"><ele>396.0</ele><time>2026-04-10T15:48:30.999Z</time></trkpt><trkpt lat="44.39957517535352" lon="7.826186959996193"><ele>395.0</ele><time>2026-04-10T15:48:31.999Z</time></trkpt><trkpt lat="44.399675501288115" lon="7.8262720256168645"><ele>395.0</ele><time>2026-04-10T15:48:32.999Z</time></trkpt><trkpt lat="44.39977781818967" lon="7.826358567744124"><ele>395.0</ele><time>2026-04-10T15:48:33.999Z</time></trkpt><trkpt lat="44.39989270250358" lon="7.8264214140231045"><ele>395.0</ele><time>2026-04-10T15:48:34.998Z</time></trkpt><trkpt lat="44.400016272574035" lon="7.826480929577967"><ele>395.0</ele><time>2026-04-10T15:48:35.998Z</time></trkpt><trkpt lat="44.40012207350025" lon="7.826527439096726"><ele>395.0</ele><time>2026-04-10T15:48:36.998Z</time></trkpt><trkpt lat="44.400239927725586" lon="7.826580656173164"><ele>395.0</ele><time>2026-04-10T15:48:37.998Z</time></trkpt><trkpt lat="44.40035891163628" lon="7.826631031828444"><ele>395.0</ele><time>2026-04-10T15:48:38.998Z</time></trkpt><trkpt lat="44.40047203392125" lon="7.826682620881354"><ele>395.0</ele><time>2026-04-10T15:48:39.998Z</time></trkpt><trkpt lat="44.400574667023996" lon="7.826748666444493"><ele>393.75</ele><time>2026-04-10T15:48:40.998Z</time></trkpt><trkpt lat="44.40067751522564" lon="7.826823072154007"><ele>392.5</ele><time>2026-04-10T15:48:41.998Z</time></trkpt><trkpt lat="44.400770222329655" lon="7.826911118450606"><ele>391.25</ele><time>2026-04-10T15:48:42.998Z</time></trkpt><trkpt lat="44.400862240680716" lon="7.8270021931826825"><ele>390.0</ele><time>2026-04-10T15:48:43.998Z</time></trkpt><trkpt lat="44.400958695726494" lon="7.827098303869791"><ele>390.0</ele><time>2026-04-10T15:48:44.998Z</time></trkpt><trkpt lat="44.40104797460296" lon="7.82718982029312"><ele>390.0</ele><time>2026-04-10T15:48:45.998Z</time></trkpt><trkpt lat="44.40114236915705" lon="7.827284187940646"><ele>390.0</ele><time>2026-04-10T15:48:46.998Z</time></trkpt><trkpt lat="44.40123281555892" lon="7.827376885254346"><ele>390.0</ele><time>2026-04-10T15:48:47.998Z</time></trkpt><trkpt lat="44.40132771120446" lon="7.827473117668611"><ele>390.8</ele><time>2026-04-10T15:48:48.998Z</time></trkpt><trkpt lat="44.40141411024784" lon="7.827568813134783"><ele>391.6</ele><time>2026-04-10T15:48:49.998Z</time></trkpt><trkpt lat="44.40150927992543" lon="7.827664217223793"><ele>392.4</ele><time>2026-04-10T15:48:50.998Z</time></trkpt><trkpt lat="44.4016056295631" lon="7.827760427238433"><ele>393.2</ele><time>2026-04-10T15:48:51.998Z</time></trkpt><trkpt lat="44.40168744269723" lon="7.827846216327598"><ele>394.0</ele><time>2026-04-10T15:48:52.998Z</time></trkpt><trkpt lat="44.401765313428285" lon="7.8279262879741465"><ele>394.0</ele><time>2026-04-10T15:48:53.998Z</time></trkpt><trkpt lat="44.40184706969224" lon="7.828009871274539"><ele>394.0</ele><time>2026-04-10T15:48:54.998Z</time></trkpt><trkpt lat="44.40193060602874" lon="7.82809702261123"><ele>394.0</ele><time>2026-04-10T15:48:55.998Z</time></trkpt><trkpt lat="44.402019218792844" lon="7.828180881651419"><ele>394.0</ele><time>2026-04-10T15:48:56.998Z</time></trkpt><trkpt lat="44.4021129360185" lon="7.828270928348144"><ele>394.0</ele><time>2026-04-10T15:48:58Z</time></trkpt><trkpt lat="44.40219917105651" lon="7.828358938750026"><ele>394.4</ele><time>2026-04-10T15:48:59Z</time></trkpt><trkpt lat="44.40228811553226" lon="7.828446071245419"><ele>394.79999999999995</ele><time>2026-04-10T15:49:00Z</time></trkpt><trkpt lat="44.402377959621454" lon="7.8285399146528265"><ele>395.20000000000005</ele><time>2026-04-10T15:49:01Z</time></trkpt><trkpt lat="44.40245890918276" lon="7.828624188004783"><ele>395.6</ele><time>2026-04-10T15:49:02Z</time></trkpt><trkpt lat="44.402551692051986" lon="7.828717818451021"><ele>396.0</ele><time>2026-04-10T15:49:03Z</time></trkpt><trkpt lat="44.40264283918253" lon="7.828811685312304"><ele>396.0</ele><time>2026-04-10T15:49:04Z</time></trkpt><trkpt lat="44.4027270162657" lon="7.82889505510359"><ele>396.0</ele><time>2026-04-10T15:49:05Z</time></trkpt><trkpt lat="44.40280094785619" lon="7.828968082125487"><ele>396.0</ele><time>2026-04-10T15:49:06Z</time></trkpt><trkpt lat="44.40288008168718" lon="7.829047132471779"><ele>396.0</ele><time>2026-04-10T15:49:07Z</time></trkpt><trkpt lat="44.40294686206522" lon="7.8291131863257615"><ele>396.0</ele><time>2026-04-10T15:49:08Z</time></trkpt><trkpt lat="44.403012741244844" lon="7.829178923145287"><ele>396.4</ele><time>2026-04-10T15:49:09Z</time></trkpt><trkpt lat="44.40307263907893" lon="7.829237754177295"><ele>396.8</ele><time>2026-04-10T15:49:10Z</time></trkpt><trkpt lat="44.40313335389609" lon="7.829298342619737"><ele>397.2</ele><time>2026-04-10T15:49:11Z</time></trkpt><trkpt lat="44.40320577020859" lon="7.829378423118397"><ele>397.59999999999997</ele><time>2026-04-10T15:49:12Z</time></trkpt><trkpt lat="44.403289599478356" lon="7.829459567166174"><ele>398.0</ele><time>2026-04-10T15:49:13Z</time></trkpt><trkpt lat="44.403377570905" lon="7.8295605419669885"><ele>398.0</ele><time>2026-04-10T15:49:14Z</time></trkpt><trkpt lat="44.40346169360036" lon="7.8296583773610315"><ele>398.0</ele><time>2026-04-10T15:49:15Z</time></trkpt><trkpt lat="44.40354685643384" lon="7.829753317893606"><ele>398.0</ele><time>2026-04-10T15:49:16Z</time></trkpt><trkpt lat="44.4036378065869" lon="7.829835315627001"><ele>398.0</ele><time>2026-04-10T15:49:17Z</time></trkpt><trkpt lat="44.40371485492099" lon="7.829918958886096"><ele>398.0</ele><time>2026-04-10T15:49:18Z</time></trkpt><trkpt lat="44.403797868820504" lon="7.830005144877596"><ele>397.8333333333333</ele><time>2026-04-10T15:49:19Z</time></trkpt><trkpt lat="44.40387846932419" lon="7.8300854073309445"><ele>397.66666666666663</ele><time>2026-04-10T15:49:20Z</time></trkpt><trkpt lat="44.40395442378474" lon="7.830161954687836"><ele>397.5</ele><time>2026-04-10T15:49:21Z</time></trkpt><trkpt lat="44.404013114139225" lon="7.830220502917286"><ele>397.33333333333337</ele><time>2026-04-10T15:49:22Z</time></trkpt><trkpt lat="44.40406339363398" lon="7.830274799363212"><ele>397.1666666666667</ele><time>2026-04-10T15:49:23Z</time></trkpt><trkpt lat="44.40413581339939" lon="7.830343006561129"><ele>397.0</ele><time>2026-04-10T15:49:25Z</time></trkpt><trkpt lat="44.40419712075138" lon="7.8303758237691"><ele>396.8</ele><time>2026-04-10T15:49:30Z</time></trkpt><trkpt lat="44.404270179635766" lon="7.8304653579455685"><ele>396.6</ele><time>2026-04-10T15:49:34Z</time></trkpt><trkpt lat="44.404337631446445" lon="7.830551700465593"><ele>396.40000000000003</ele><time>2026-04-10T15:49:37Z</time></trkpt><trkpt lat="44.404431044228936" lon="7.8306471831200595"><ele>396.20000000000005</ele><time>2026-04-10T15:49:39Z</time></trkpt><trkpt lat="44.404504770616256" lon="7.830697458805244"><ele>396.0</ele><time>2026-04-10T15:49:40Z</time></trkpt><trkpt lat="44.404579323695586" lon="7.830779253076767"><ele>396.0</ele><time>2026-04-10T15:49:40.999Z</time></trkpt><trkpt lat="44.40465592189914" lon="7.830865452191732"><ele>396.0</ele><time>2026-04-10T15:49:41.999Z</time></trkpt><trkpt lat="44.404748873063625" lon="7.830962727763273"><ele>396.0</ele><time>2026-04-10T15:49:42.999Z</time></trkpt><trkpt lat="44.40485082868094" lon="7.8310718646513955"><ele>396.0</ele><time>2026-04-10T15:49:43.999Z</time></trkpt><trkpt lat="44.40494087851857" lon="7.831172535438567"><ele>396.0</ele><time>2026-04-10T15:49:44.999Z</time></trkpt><trkpt lat="44.405030183828245" lon="7.831260606295473"><ele>396.0</ele><time>2026-04-10T15:49:45.999Z</time></trkpt><trkpt lat="44.40511381303951" lon="7.831332551194585"><ele>396.0</ele><time>2026-04-10T15:49:46.999Z</time></trkpt><trkpt lat="44.40519181411759" lon="7.831406674294932"><ele>396.0</ele><time>2026-04-10T15:49:47.999Z</time></trkpt><trkpt lat="44.4052587175677" lon="7.831471830808582"><ele>396.0</ele><time>2026-04-10T15:49:48.999Z</time></trkpt><trkpt lat="44.405320399498294" lon="7.831531052722246"><ele>396.0</ele><time>2026-04-10T15:49:49.999Z</time></trkpt><trkpt lat="44.40538303181521" lon="7.831612875183302"><ele>396.0</ele><time>2026-04-10T15:49:50.999Z</time></trkpt><trkpt lat="44.40544294471546" lon="7.831719775837615"><ele>396.0</ele><time>2026-04-10T15:49:51.999Z</time></trkpt><trkpt lat="44.40550282421034" lon="7.831845285455006"><ele>396.0</ele><time>2026-04-10T15:49:52.999Z</time></trkpt><trkpt lat="44.40556364722972" lon="7.831986628699841"><ele>396.0</ele><time>2026-04-10T15:49:53.999Z</time></trkpt><trkpt lat="44.40561967051538" lon="7.832147867813764"><ele>396.5</ele><time>2026-04-10T15:49:54.999Z</time></trkpt><trkpt lat="44.405678171831354" lon="7.832324496398038"><ele>397.0</ele><time>2026-04-10T15:49:55.999Z</time></trkpt><trkpt lat="44.40574367669248" lon="7.832510154146455"><ele>397.5</ele><time>2026-04-10T15:49:56.999Z</time></trkpt><trkpt lat="44.40580352035483" lon="7.832696411608605"><ele>398.0</ele><time>2026-04-10T15:49:57.999Z</time></trkpt><trkpt lat="44.40585398829132" lon="7.832893816818835"><ele>396.0</ele><time>2026-04-10T15:49:58.999Z</time></trkpt><trkpt lat="44.40590227506362" lon="7.833100873597552"><ele>394.0</ele><time>2026-04-10T15:49:59.999Z</time></trkpt><trkpt lat="44.40595274306596" lon="7.833320685272153"><ele>392.0</ele><time>2026-04-10T15:50:00.999Z</time></trkpt><trkpt lat="44.40599027277935" lon="7.83352915075679"><ele>392.0</ele><time>2026-04-10T15:50:01.999Z</time></trkpt><trkpt lat="44.406028972334866" lon="7.833714868342848"><ele>392.0</ele><time>2026-04-10T15:50:02.999Z</time></trkpt><trkpt lat="44.40608512200388" lon="7.833911679931992"><ele>392.0</ele><time>2026-04-10T15:50:03.999Z</time></trkpt><trkpt lat="44.40614328590106" lon="7.834115800120706"><ele>392.0</ele><time>2026-04-10T15:50:04.999Z</time></trkpt><trkpt lat="44.406236754713404" lon="7.8342907804256345"><ele>394.0</ele><time>2026-04-10T15:50:05.999Z</time></trkpt><trkpt lat="44.406344708754425" lon="7.834471842916946"><ele>396.0</ele><time>2026-04-10T15:50:06.999Z</time></trkpt><trkpt lat="44.40647084059135" lon="7.834634716553963"><ele>398.0</ele><time>2026-04-10T15:50:07.999Z</time></trkpt><trkpt lat="44.4066028360155" lon="7.834804191226461"><ele>398.0</ele><time>2026-04-10T15:50:08.999Z</time></trkpt><trkpt lat="44.40674259306819" lon="7.8349846945315855"><ele>398.0</ele><time>2026-04-10T15:50:09.999Z</time></trkpt><trkpt lat="44.40687499918596" lon="7.835149953476207"><ele>398.0</ele><time>2026-04-10T15:50:10.999Z</time></trkpt><trkpt lat="44.40699905544305" lon="7.835308146352649"><ele>397.66666666666663</ele><time>2026-04-10T15:50:11.999Z</time></trkpt><trkpt lat="44.40712456808099" lon="7.835462433216558"><ele>397.33333333333337</ele><time>2026-04-10T15:50:12.999Z</time></trkpt><trkpt lat="44.40724971675397" lon="7.835616347428269"><ele>397.0</ele><time>2026-04-10T15:50:13.999Z</time></trkpt><trkpt lat="44.40737795343576" lon="7.835774645508871"><ele>397.0</ele><time>2026-04-10T15:50:14.999Z</time></trkpt><trkpt lat="44.40750009028306" lon="7.835919792071478"><ele>397.0</ele><time>2026-04-10T15:50:15.999Z</time></trkpt><trkpt lat="44.40762775563785" lon="7.836069282313028"><ele>397.0</ele><time>2026-04-10T15:50:16.999Z</time></trkpt><trkpt lat="44.407748567480176" lon="7.836217322395137"><ele>397.0</ele><time>2026-04-10T15:50:17.999Z</time></trkpt><trkpt lat="44.407867070879036" lon="7.836370712499243"><ele>397.0</ele><time>2026-04-10T15:50:18.999Z</time></trkpt><trkpt lat="44.407988147650414" lon="7.836522704286518"><ele>397.0</ele><time>2026-04-10T15:50:19.999Z</time></trkpt><trkpt lat="44.408110725722906" lon="7.836675670786751"><ele>397.0</ele><time>2026-04-10T15:50:20.999Z</time></trkpt><trkpt lat="44.408230651472" lon="7.83682270348013"><ele>397.0</ele><time>2026-04-10T15:50:21.999Z</time></trkpt><trkpt lat="44.40834727379355" lon="7.8369672175467056"><ele>397.0</ele><time>2026-04-10T15:50:22.999Z</time></trkpt><trkpt lat="44.408466195060015" lon="7.837112646798694"><ele>397.0</ele><time>2026-04-10T15:50:23.999Z</time></trkpt><trkpt lat="44.40858782797753" lon="7.837252999175334"><ele>397.0</ele><time>2026-04-10T15:50:24.999Z</time></trkpt><trkpt lat="44.40870892115806" lon="7.837396317272486"><ele>397.0</ele><time>2026-04-10T15:50:25.999Z</time></trkpt><trkpt lat="44.40882968483374" lon="7.83754094433236"><ele>397.0</ele><time>2026-04-10T15:50:26.999Z</time></trkpt><trkpt lat="44.408952273019516" lon="7.8376820655248665"><ele>397.0</ele><time>2026-04-10T15:50:27.999Z</time></trkpt><trkpt lat="44.40907514753624" lon="7.837827375457452"><ele>397.0</ele><time>2026-04-10T15:50:28.999Z</time></trkpt><trkpt lat="44.40919795897666" lon="7.8379707687210916"><ele>397.0</ele><time>2026-04-10T15:50:29.999Z</time></trkpt><trkpt lat="44.40931400081333" lon="7.8381186036784225"><ele>397.0</ele><time>2026-04-10T15:50:30.999Z</time></trkpt><trkpt lat="44.40943359139872" lon="7.838273674411003"><ele>397.0</ele><time>2026-04-10T15:50:31.999Z</time></trkpt><trkpt lat="44.409552928735636" lon="7.838420730116418"><ele>396.33333333333337</ele><time>2026-04-10T15:50:32.999Z</time></trkpt><trkpt lat="44.40967413827716" lon="7.838574009565968"><ele>395.66666666666663</ele><time>2026-04-10T15:50:33.999Z</time></trkpt><trkpt lat="44.409794287135384" lon="7.838723966740925"><ele>395.0</ele><time>2026-04-10T15:50:34.999Z</time></trkpt><trkpt lat="44.40991372049553" lon="7.838870705223112"><ele>395.0</ele><time>2026-04-10T15:50:35.999Z</time></trkpt><trkpt lat="44.41003555859511" lon="7.839020379650784"><ele>395.0</ele><time>2026-04-10T15:50:36.999Z</time></trkpt><trkpt lat="44.410159075804785" lon="7.839167832548575"><ele>395.0</ele><time>2026-04-10T15:50:37.999Z</time></trkpt><trkpt lat="44.4102860594811" lon="7.839317147305269"><ele>394.3333333333333</ele><time>2026-04-10T15:50:38.999Z</time></trkpt><trkpt lat="44.41041822160737" lon="7.8394712391051575"><ele>393.66666666666663</ele><time>2026-04-10T15:50:39.999Z</time></trkpt><trkpt lat="44.41054686115997" lon="7.839627540393926"><ele>393.0</ele><time>2026-04-10T15:50:40.999Z</time></trkpt><trkpt lat="44.41067039871" lon="7.8397827979299635"><ele>392.66666666666663</ele><time>2026-04-10T15:50:41.998Z</time></trkpt><trkpt lat="44.41079636833012" lon="7.8399417416360055"><ele>392.3333333333333</ele><time>2026-04-10T15:50:42.998Z</time></trkpt><trkpt lat="44.41092860612016" lon="7.8401058968437916"><ele>392.0</ele><time>2026-04-10T15:50:43.998Z</time></trkpt><trkpt lat="44.41106345710196" lon="7.8402765676874795"><ele>392.0</ele><time>2026-04-10T15:50:44.998Z</time></trkpt><trkpt lat="44.41120094920925" lon="7.840448120952853"><ele>392.0</ele><time>2026-04-10T15:50:45.998Z</time></trkpt><trkpt lat="44.41134546397242" lon="7.8406233344156755"><ele>392.0</ele><time>2026-04-10T15:50:46.998Z</time></trkpt><trkpt lat="44.411478638057496" lon="7.840787613975446"><ele>392.0</ele><time>2026-04-10T15:50:47.998Z</time></trkpt><trkpt lat="44.411604734193" lon="7.8409373496509644"><ele>392.0</ele><time>2026-04-10T15:50:48.998Z</time></trkpt><trkpt lat="44.41173061304393" lon="7.841081654963984"><ele>392.0</ele><time>2026-04-10T15:50:49.998Z</time></trkpt><trkpt lat="44.411843585941746" lon="7.841225084078631"><ele>392.0</ele><time>2026-04-10T15:50:50.998Z</time></trkpt><trkpt lat="44.41194907638113" lon="7.841350789702929"><ele>392.0</ele><time>2026-04-10T15:50:51.998Z</time></trkpt><trkpt lat="44.412038328415484" lon="7.84146080212714"><ele>392.0</ele><time>2026-04-10T15:50:52.998Z</time></trkpt><trkpt lat="44.4121152906897" lon="7.841559106052267"><ele>392.0</ele><time>2026-04-10T15:50:53.998Z</time></trkpt><trkpt lat="44.41217795986077" lon="7.841661351224781"><ele>392.16666666666663</ele><time>2026-04-10T15:50:54.998Z</time></trkpt><trkpt lat="44.412228124677114" lon="7.841771280505838"><ele>392.3333333333333</ele><time>2026-04-10T15:50:55.998Z</time></trkpt><trkpt lat="44.4122711304222" lon="7.841877889275785"><ele>392.5</ele><time>2026-04-10T15:50:56.998Z</time></trkpt><trkpt lat="44.41229514508502" lon="7.841990299573642"><ele>392.66666666666663</ele><time>2026-04-10T15:50:57.998Z</time></trkpt><trkpt lat="44.41229955974012" lon="7.8421103821535345"><ele>392.8333333333333</ele><time>2026-04-10T15:50:58.998Z</time></trkpt><trkpt lat="44.41229892473355" lon="7.842220743081316"><ele>393.0</ele><time>2026-04-10T15:50:59.998Z</time></trkpt><trkpt lat="44.412300272354955" lon="7.842312032946696"><ele>392.6666666666667</ele><time>2026-04-10T15:51:00.998Z</time></trkpt><trkpt lat="44.41235607671349" lon="7.842459972829237"><ele>392.33333333333337</ele><time>2026-04-10T15:51:02.998Z</time></trkpt><trkpt lat="44.412424077149204" lon="7.842514615603653"><ele>392.0</ele><time>2026-04-10T15:51:04Z</time></trkpt><trkpt lat="44.41247976840195" lon="7.842560812204714"><ele>391.6666666666667</ele><time>2026-04-10T15:51:05Z</time></trkpt><trkpt lat="44.41256451908708" lon="7.842495376145648"><ele>391.33333333333337</ele><time>2026-04-10T15:51:06Z</time></trkpt><trkpt lat="44.4126327680169" lon="7.842425774328061"><ele>391.0</ele><time>2026-04-10T15:51:07Z</time></trkpt><trkpt lat="44.41269665510956" lon="7.842327964612674"><ele>391.0</ele><time>2026-04-10T15:51:08Z</time></trkpt><trkpt lat="44.412728220822444" lon="7.8422193239796165"><ele>391.0</ele><time>2026-04-10T15:51:09Z</time></trkpt><trkpt lat="44.41283375143048" lon="7.842206159123549"><ele>391.0</ele><time>2026-04-10T15:51:10Z</time></trkpt><trkpt lat="44.41292352618629" lon="7.842221354840524"><ele>391.0</ele><time>2026-04-10T15:51:11Z</time></trkpt><trkpt lat="44.41302074675036" lon="7.842221117319461"><ele>391.0</ele><time>2026-04-10T15:51:12Z</time></trkpt><trkpt lat="44.41312546965578" lon="7.842287008722616"><ele>391.0</ele><time>2026-04-10T15:51:13Z</time></trkpt><trkpt lat="44.41324034244958" lon="7.842359531191962"><ele>391.0</ele><time>2026-04-10T15:51:14Z</time></trkpt><trkpt lat="44.41335709049361" lon="7.84242889093689"><ele>391.0</ele><time>2026-04-10T15:51:15Z</time></trkpt><trkpt lat="44.413491991312306" lon="7.84250769289663"><ele>391.0</ele><time>2026-04-10T15:51:16Z</time></trkpt><trkpt lat="44.41363093983657" lon="7.842596328712796"><ele>391.0</ele><time>2026-04-10T15:51:17Z</time></trkpt><trkpt lat="44.413769002017574" lon="7.842685612345029"><ele>391.0</ele><time>2026-04-10T15:51:18Z</time></trkpt><trkpt lat="44.41391933565859" lon="7.842778386836833"><ele>391.0</ele><time>2026-04-10T15:51:19Z</time></trkpt><trkpt lat="44.41407791130125" lon="7.842873444642687"><ele>391.0</ele><time>2026-04-10T15:51:20Z</time></trkpt><trkpt lat="44.41423717736082" lon="7.842967642081692"><ele>391.0</ele><time>2026-04-10T15:51:21Z</time></trkpt><trkpt lat="44.41440247451423" lon="7.843063952350446"><ele>391.0</ele><time>2026-04-10T15:51:22Z</time></trkpt><trkpt lat="44.4145710398255" lon="7.84316452243408"><ele>391.0</ele><time>2026-04-10T15:51:23Z</time></trkpt><trkpt lat="44.41474581098512" lon="7.843270425927567"><ele>391.0</ele><time>2026-04-10T15:51:24Z</time></trkpt><trkpt lat="44.414923838989026" lon="7.843380404461285"><ele>391.0</ele><time>2026-04-10T15:51:25Z</time></trkpt><trkpt lat="44.415090748606275" lon="7.843484775637273"><ele>391.0</ele><time>2026-04-10T15:51:26Z</time></trkpt><trkpt lat="44.41525169181016" lon="7.8435860312431585"><ele>391.0</ele><time>2026-04-10T15:51:27Z</time></trkpt><trkpt lat="44.41541439314625" lon="7.843693315303101"><ele>391.0</ele><time>2026-04-10T15:51:28Z</time></trkpt><trkpt lat="44.415578590876116" lon="7.843805616825558"><ele>391.0</ele><time>2026-04-10T15:51:29Z</time></trkpt><trkpt lat="44.41573745968007" lon="7.8439314530150925"><ele>391.0</ele><time>2026-04-10T15:51:30Z</time></trkpt><trkpt lat="44.41589291024285" lon="7.8440528767389255"><ele>391.0</ele><time>2026-04-10T15:51:31Z</time></trkpt><trkpt lat="44.41602956278175" lon="7.844203267034354"><ele>390.33333333333337</ele><time>2026-04-10T15:51:32Z</time></trkpt><trkpt lat="44.41618058013529" lon="7.844311774375704"><ele>389.66666666666663</ele><time>2026-04-10T15:51:33Z</time></trkpt><trkpt lat="44.41631691009944" lon="7.844436926806896"><ele>389.0</ele><time>2026-04-10T15:51:34Z</time></trkpt><trkpt lat="44.41644235213889" lon="7.844554229936937"><ele>389.0</ele><time>2026-04-10T15:51:35Z</time></trkpt><trkpt lat="44.41657147217081" lon="7.844674469328909"><ele>389.0</ele><time>2026-04-10T15:51:36Z</time></trkpt><trkpt lat="44.41669599291406" lon="7.8447958086702805"><ele>389.0</ele><time>2026-04-10T15:51:37Z</time></trkpt><trkpt lat="44.41682515110227" lon="7.844911815512796"><ele>389.0</ele><time>2026-04-10T15:51:38Z</time></trkpt><trkpt lat="44.41695511957577" lon="7.845025827939273"><ele>389.0</ele><time>2026-04-10T15:51:39Z</time></trkpt><trkpt lat="44.41707649933097" lon="7.845132696374914"><ele>389.0</ele><time>2026-04-10T15:51:40Z</time></trkpt><trkpt lat="44.417194786219085" lon="7.845238950023901"><ele>389.0</ele><time>2026-04-10T15:51:41Z</time></trkpt><trkpt lat="44.41731760896445" lon="7.84534831904957"><ele>389.5</ele><time>2026-04-10T15:51:42Z</time></trkpt><trkpt lat="44.417444067095374" lon="7.8454563423565595"><ele>390.0</ele><time>2026-04-10T15:51:43Z</time></trkpt><trkpt lat="44.41756817969773" lon="7.845559080265086"><ele>390.5</ele><time>2026-04-10T15:51:44Z</time></trkpt><trkpt lat="44.41769305649009" lon="7.845664961693857"><ele>391.0</ele><time>2026-04-10T15:51:45Z</time></trkpt><trkpt lat="44.417818873483036" lon="7.845769325908129"><ele>391.0</ele><time>2026-04-10T15:51:46Z</time></trkpt><trkpt lat="44.41794458409023" lon="7.8458752202180415"><ele>391.0</ele><time>2026-04-10T15:51:46.999Z</time></trkpt><trkpt lat="44.41807307847082" lon="7.845982899943939"><ele>391.0</ele><time>2026-04-10T15:51:47.999Z</time></trkpt><trkpt lat="44.41820241013688" lon="7.846093104171416"><ele>391.0</ele><time>2026-04-10T15:51:48.999Z</time></trkpt><trkpt lat="44.418323792129705" lon="7.846199211626212"><ele>390.75</ele><time>2026-04-10T15:51:49.999Z</time></trkpt><trkpt lat="44.418439231359294" lon="7.846295863846665"><ele>390.5</ele><time>2026-04-10T15:51:50.999Z</time></trkpt><trkpt lat="44.41855438993387" lon="7.846391653558702"><ele>390.25</ele><time>2026-04-10T15:51:51.999Z</time></trkpt><trkpt lat="44.41865632804658" lon="7.846473500026413"><ele>390.0</ele><time>2026-04-10T15:51:52.999Z</time></trkpt><trkpt lat="44.41874812457567" lon="7.8465520647304166"><ele>390.0</ele><time>2026-04-10T15:51:53.999Z</time></trkpt><trkpt lat="44.418834349076086" lon="7.846629291163987"><ele>390.0</ele><time>2026-04-10T15:51:54.999Z</time></trkpt><trkpt lat="44.41891165966412" lon="7.846693664164922"><ele>390.0</ele><time>2026-04-10T15:51:55.999Z</time></trkpt><trkpt lat="44.41898637420588" lon="7.846760134850492"><ele>390.0</ele><time>2026-04-10T15:51:56.999Z</time></trkpt><trkpt lat="44.419047433991146" lon="7.846823781377342"><ele>390.0</ele><time>2026-04-10T15:51:57.999Z</time></trkpt><trkpt lat="44.41909315111334" lon="7.846899095498668"><ele>390.0</ele><time>2026-04-10T15:51:58.999Z</time></trkpt><trkpt lat="44.419125236830794" lon="7.846985089747667"><ele>389.6</ele><time>2026-04-10T15:51:59.999Z</time></trkpt><trkpt lat="44.41913962553838" lon="7.8470987740227605"><ele>389.2</ele><time>2026-04-10T15:52:00.999Z</time></trkpt><trkpt lat="44.41914752685135" lon="7.847199093599395"><ele>388.79999999999995</ele><time>2026-04-10T15:52:01.999Z</time></trkpt><trkpt lat="44.419140380818206" lon="7.84729350828875"><ele>388.4</ele><time>2026-04-10T15:52:02.999Z</time></trkpt><trkpt lat="44.4192110194821" lon="7.847433159767303"><ele>388.0</ele><time>2026-04-10T15:52:04.999Z</time></trkpt><trkpt lat="44.41934846184161" lon="7.847448703552521"><ele>388.0</ele><time>2026-04-10T15:52:06.999Z</time></trkpt><trkpt lat="44.41943451801731" lon="7.847442449567801"><ele>388.0</ele><time>2026-04-10T15:52:07.999Z</time></trkpt><trkpt lat="44.41952809970578" lon="7.847440634612093"><ele>388.0</ele><time>2026-04-10T15:52:08.999Z</time></trkpt><trkpt lat="44.41963768188598" lon="7.847473355357968"><ele>388.0</ele><time>2026-04-10T15:52:09.999Z</time></trkpt><trkpt lat="44.419750904371604" lon="7.847534841770885"><ele>388.0</ele><time>2026-04-10T15:52:10.999Z</time></trkpt><trkpt lat="44.41986000120491" lon="7.84761723564593"><ele>388.0</ele><time>2026-04-10T15:52:11.999Z</time></trkpt><trkpt lat="44.419965434279064" lon="7.847723439689072"><ele>388.0</ele><time>2026-04-10T15:52:12.999Z</time></trkpt><trkpt lat="44.4200730924829" lon="7.8478419368252155"><ele>388.0</ele><time>2026-04-10T15:52:13.999Z</time></trkpt><trkpt lat="44.42018946249937" lon="7.847974239508753"><ele>388.0</ele><time>2026-04-10T15:52:14.999Z</time></trkpt><trkpt lat="44.420295561622204" lon="7.848107866802007"><ele>388.0</ele><time>2026-04-10T15:52:15.999Z</time></trkpt><trkpt lat="44.42040803729099" lon="7.848250612984365"><ele>388.0</ele><time>2026-04-10T15:52:16.999Z</time></trkpt><trkpt lat="44.42052658007728" lon="7.848390091250309"><ele>388.0</ele><time>2026-04-10T15:52:17.999Z</time></trkpt><trkpt lat="44.420638309990686" lon="7.848514715709275"><ele>388.0</ele><time>2026-04-10T15:52:18.999Z</time></trkpt><trkpt lat="44.4207461398946" lon="7.848635999587356"><ele>387.5</ele><time>2026-04-10T15:52:19.999Z</time></trkpt><trkpt lat="44.42085363433803" lon="7.8487460541611105"><ele>387.0</ele><time>2026-04-10T15:52:20.999Z</time></trkpt><trkpt lat="44.42096624026074" lon="7.848816356723412"><ele>386.5</ele><time>2026-04-10T15:52:21.999Z</time></trkpt><trkpt lat="44.42106122385038" lon="7.848893490865814"><ele>386.0</ele><time>2026-04-10T15:52:22.999Z</time></trkpt><trkpt lat="44.421152017822706" lon="7.848934306752571"><ele>385.99999999999994</ele><time>2026-04-10T15:52:23.999Z</time></trkpt><trkpt lat="44.42123883789376" lon="7.848966865655986"><ele>386.0</ele><time>2026-04-10T15:52:24.999Z</time></trkpt><trkpt lat="44.4213151267939" lon="7.848994796576612"><ele>386.0</ele><time>2026-04-10T15:52:25.999Z</time></trkpt><trkpt lat="44.42137830536599" lon="7.848998282017255"><ele>386.0</ele><time>2026-04-10T15:52:26.999Z</time></trkpt><trkpt lat="44.42148502055506" lon="7.849089187779528"><ele>385.99999999999994</ele><time>2026-04-10T15:52:28.999Z</time></trkpt><trkpt lat="44.42152746382868" lon="7.849182590880046"><ele>386.0</ele><time>2026-04-10T15:52:29.999Z</time></trkpt><trkpt lat="44.42153730623418" lon="7.84932091586017"><ele>385.8333333333333</ele><time>2026-04-10T15:52:30.999Z</time></trkpt><trkpt lat="44.42156276952065" lon="7.849426714058475"><ele>385.66666666666663</ele><time>2026-04-10T15:52:31.999Z</time></trkpt><trkpt lat="44.421597017132505" lon="7.849514366993648"><ele>385.5</ele><time>2026-04-10T15:52:32.999Z</time></trkpt><trkpt lat="44.42165921386128" lon="7.849587813497092"><ele>385.33333333333337</ele><time>2026-04-10T15:52:33.999Z</time></trkpt><trkpt lat="44.42172813950781" lon="7.849645386231361"><ele>385.1666666666667</ele><time>2026-04-10T15:52:34.999Z</time></trkpt><trkpt lat="44.421802671025944" lon="7.849663183325023"><ele>385.0</ele><time>2026-04-10T15:52:35.999Z</time></trkpt><trkpt lat="44.42189027834484" lon="7.849650523719306"><ele>385.00000000000006</ele><time>2026-04-10T15:52:36.999Z</time></trkpt><trkpt lat="44.42197065752028" lon="7.84959978349958"><ele>385.0</ele><time>2026-04-10T15:52:37.999Z</time></trkpt><trkpt lat="44.42204312861059" lon="7.849516492148116"><ele>385.0</ele><time>2026-04-10T15:52:38.999Z</time></trkpt><trkpt lat="44.42210436728532" lon="7.8494005787818155"><ele>385.0</ele><time>2026-04-10T15:52:39.999Z</time></trkpt><trkpt lat="44.42215627593894" lon="7.849308161304045"><ele>385.00000000000006</ele><time>2026-04-10T15:52:40.999Z</time></trkpt><trkpt lat="44.42221684600217" lon="7.849251595408523"><ele>385.0</ele><time>2026-04-10T15:52:41.999Z</time></trkpt><trkpt lat="44.422298918854246" lon="7.849224077546351"><ele>385.0</ele><time>2026-04-10T15:52:42.999Z</time></trkpt><trkpt lat="44.42240328806511" lon="7.8492372080165085"><ele>385.0</ele><time>2026-04-10T15:52:43.999Z</time></trkpt><trkpt lat="44.422513789658026" lon="7.84928287768034"><ele>385.0</ele><time>2026-04-10T15:52:44.999Z</time></trkpt><trkpt lat="44.42262379634486" lon="7.849354044562078"><ele>385.0</ele><time>2026-04-10T15:52:45.999Z</time></trkpt><trkpt lat="44.42273434781097" lon="7.849453364205211"><ele>385.0</ele><time>2026-04-10T15:52:46.999Z</time></trkpt><trkpt lat="44.42283688794452" lon="7.849570390516324"><ele>385.0</ele><time>2026-04-10T15:52:47.999Z</time></trkpt><trkpt lat="44.422919474320324" lon="7.849679832216925"><ele>385.0</ele><time>2026-04-10T15:52:48.998Z</time></trkpt><trkpt lat="44.42298224854159" lon="7.8497956614023545"><ele>385.0</ele><time>2026-04-10T15:52:49.998Z</time></trkpt><trkpt lat="44.423031537385654" lon="7.849915679946603"><ele>385.0</ele><time>2026-04-10T15:52:50.998Z</time></trkpt><trkpt lat="44.42308097631633" lon="7.85003493632977"><ele>384.75</ele><time>2026-04-10T15:52:51.998Z</time></trkpt><trkpt lat="44.42314169821319" lon="7.850148968288261"><ele>384.5</ele><time>2026-04-10T15:52:52.998Z</time></trkpt><trkpt lat="44.42323103949829" lon="7.850255127996875"><ele>384.25</ele><time>2026-04-10T15:52:53.998Z</time></trkpt><trkpt lat="44.42334237478498" lon="7.8503447228059535"><ele>384.0</ele><time>2026-04-10T15:52:54.998Z</time></trkpt><trkpt lat="44.42344971141138" lon="7.850458132453694"><ele>384.0</ele><time>2026-04-10T15:52:55.998Z</time></trkpt><trkpt lat="44.42354797749754" lon="7.850615123660394"><ele>384.0</ele><time>2026-04-10T15:52:56.998Z</time></trkpt><trkpt lat="44.42364418255387" lon="7.850793341473997"><ele>384.0</ele><time>2026-04-10T15:52:57.998Z</time></trkpt><trkpt lat="44.42373052988234" lon="7.850976005364392"><ele>383.6666666666667</ele><time>2026-04-10T15:52:58.998Z</time></trkpt><trkpt lat="44.423824373201704" lon="7.8511750215076415"><ele>383.33333333333337</ele><time>2026-04-10T15:52:59.998Z</time></trkpt><trkpt lat="44.42391926758488" lon="7.851390949189196"><ele>383.0</ele><time>2026-04-10T15:53:00.998Z</time></trkpt><trkpt lat="44.424016957634855" lon="7.85161983871879"><ele>382.6666666666667</ele><time>2026-04-10T15:53:01.998Z</time></trkpt><trkpt lat="44.424119726789094" lon="7.85184811558684"><ele>382.3333333333333</ele><time>2026-04-10T15:53:02.998Z</time></trkpt><trkpt lat="44.424226633432674" lon="7.852077389011719"><ele>382.0</ele><time>2026-04-10T15:53:03.998Z</time></trkpt><trkpt lat="44.42433626615182" lon="7.8523183672111685"><ele>382.0</ele><time>2026-04-10T15:53:04.998Z</time></trkpt><trkpt lat="44.42445123551028" lon="7.852560477607517"><ele>382.0</ele><time>2026-04-10T15:53:05.998Z</time></trkpt><trkpt lat="44.42457964646528" lon="7.852804263818795"><ele>382.0</ele><time>2026-04-10T15:53:06.998Z</time></trkpt><trkpt lat="44.4247239230867" lon="7.853034967515282"><ele>382.0</ele><time>2026-04-10T15:53:07.998Z</time></trkpt><trkpt lat="44.4248845532676" lon="7.853246651221643"><ele>382.0</ele><time>2026-04-10T15:53:08.998Z</time></trkpt><trkpt lat="44.42505066940097" lon="7.853454435598251"><ele>382.0</ele><time>2026-04-10T15:53:10Z</time></trkpt><trkpt lat="44.425218776566936" lon="7.853665194897809"><ele>382.5</ele><time>2026-04-10T15:53:11Z</time></trkpt><trkpt lat="44.425387324365914" lon="7.853884997960906"><ele>383.0</ele><time>2026-04-10T15:53:12Z</time></trkpt><trkpt lat="44.425560456945426" lon="7.85410867296452"><ele>383.0</ele><time>2026-04-10T15:53:13Z</time></trkpt><trkpt lat="44.425731978896955" lon="7.854331979618603"><ele>383.0</ele><time>2026-04-10T15:53:14Z</time></trkpt><trkpt lat="44.425907117566155" lon="7.854557975599115"><ele>383.0</ele><time>2026-04-10T15:53:15Z</time></trkpt><trkpt lat="44.426080107348895" lon="7.854792641582501"><ele>383.0</ele><time>2026-04-10T15:53:16Z</time></trkpt><trkpt lat="44.426245690645004" lon="7.8550063002415245"><ele>382.5</ele><time>2026-04-10T15:53:17Z</time></trkpt><trkpt lat="44.42641174768044" lon="7.855214891574704"><ele>382.0</ele><time>2026-04-10T15:53:18Z</time></trkpt><trkpt lat="44.42658443554107" lon="7.855445678112099"><ele>382.0</ele><time>2026-04-10T15:53:19Z</time></trkpt><trkpt lat="44.42676355595438" lon="7.855685096561549"><ele>382.0</ele><time>2026-04-10T15:53:20Z</time></trkpt><trkpt lat="44.42694890408011" lon="7.855925336390817"><ele>382.0</ele><time>2026-04-10T15:53:21Z</time></trkpt><trkpt lat="44.42713501330208" lon="7.856160647555755"><ele>382.0</ele><time>2026-04-10T15:53:22Z</time></trkpt><trkpt lat="44.42732061099339" lon="7.856398515217327"><ele>382.0</ele><time>2026-04-10T15:53:23Z</time></trkpt><trkpt lat="44.42751088318207" lon="7.856641176750158"><ele>382.0</ele><time>2026-04-10T15:53:24Z</time></trkpt><trkpt lat="44.427702427287386" lon="7.856883965437014"><ele>381.5</ele><time>2026-04-10T15:53:25Z</time></trkpt><trkpt lat="44.42789503751976" lon="7.857122002440458"><ele>381.0</ele><time>2026-04-10T15:53:26Z</time></trkpt><trkpt lat="44.42809165269547" lon="7.857357233684999"><ele>380.0</ele><time>2026-04-10T15:53:27Z</time></trkpt><trkpt lat="44.42829278246902" lon="7.857585893914007"><ele>379.0</ele><time>2026-04-10T15:53:28Z</time></trkpt><trkpt lat="44.42849217811304" lon="7.85781026684462"><ele>379.0</ele><time>2026-04-10T15:53:29Z</time></trkpt><trkpt lat="44.42868849161912" lon="7.8580277879570986"><ele>379.0</ele><time>2026-04-10T15:53:30Z</time></trkpt><trkpt lat="44.42888282068193" lon="7.858249965927657"><ele>379.0</ele><time>2026-04-10T15:53:31Z</time></trkpt><trkpt lat="44.42907821010215" lon="7.858471946008317"><ele>379.0</ele><time>2026-04-10T15:53:32Z</time></trkpt><trkpt lat="44.42927536454069" lon="7.858695042782115"><ele>379.0</ele><time>2026-04-10T15:53:33Z</time></trkpt><trkpt lat="44.42947177603154" lon="7.858914456518546"><ele>379.0</ele><time>2026-04-10T15:53:34Z</time></trkpt><trkpt lat="44.42966270161314" lon="7.859129483251249"><ele>379.5</ele><time>2026-04-10T15:53:35Z</time></trkpt><trkpt lat="44.429854877588006" lon="7.859342387513502"><ele>380.0</ele><time>2026-04-10T15:53:36Z</time></trkpt><trkpt lat="44.43004483132855" lon="7.859548660464295"><ele>380.0</ele><time>2026-04-10T15:53:37Z</time></trkpt><trkpt lat="44.43023566860429" lon="7.8597619477920615"><ele>380.0</ele><time>2026-04-10T15:53:38Z</time></trkpt><trkpt lat="44.430429581011985" lon="7.8599817791018065"><ele>379.0</ele><time>2026-04-10T15:53:39Z</time></trkpt><trkpt lat="44.43062573589142" lon="7.860201323980818"><ele>378.0</ele><time>2026-04-10T15:53:40Z</time></trkpt><trkpt lat="44.430818892405554" lon="7.86041229017537"><ele>378.0</ele><time>2026-04-10T15:53:41Z</time></trkpt><trkpt lat="44.431013977705234" lon="7.860634086983285"><ele>378.0</ele><time>2026-04-10T15:53:42Z</time></trkpt><trkpt lat="44.43121243201742" lon="7.860853866868428"><ele>378.5</ele><time>2026-04-10T15:53:43Z</time></trkpt><trkpt lat="44.43140897796868" lon="7.861080775293982"><ele>379.0</ele><time>2026-04-10T15:53:44Z</time></trkpt><trkpt lat="44.43160436561598" lon="7.861301092106563"><ele>379.0</ele><time>2026-04-10T15:53:45Z</time></trkpt><trkpt lat="44.43180620579533" lon="7.861521864968131"><ele>379.0</ele><time>2026-04-10T15:53:46Z</time></trkpt><trkpt lat="44.43199838386123" lon="7.8617421475829765"><ele>377.0</ele><time>2026-04-10T15:53:47Z</time></trkpt><trkpt lat="44.43219107423149" lon="7.861947676391243"><ele>375.0</ele><time>2026-04-10T15:53:48Z</time></trkpt><trkpt lat="44.43238319221344" lon="7.86216376045269"><ele>375.0</ele><time>2026-04-10T15:53:49Z</time></trkpt><trkpt lat="44.432579702147" lon="7.862377563555187"><ele>375.0</ele><time>2026-04-10T15:53:50Z</time></trkpt><trkpt lat="44.43277908479785" lon="7.862601449300745"><ele>375.0</ele><time>2026-04-10T15:53:51Z</time></trkpt><trkpt lat="44.43297949759354" lon="7.862815433583635"><ele>375.0</ele><time>2026-04-10T15:53:52Z</time></trkpt><trkpt lat="44.43317284741883" lon="7.86305557314754"><ele>375.0</ele><time>2026-04-10T15:53:53Z</time></trkpt><trkpt lat="44.43337598936882" lon="7.863283968092671"><ele>375.0</ele><time>2026-04-10T15:53:53.999Z</time></trkpt><trkpt lat="44.433578097296056" lon="7.863512423605762"><ele>375.0</ele><time>2026-04-10T15:53:54.999Z</time></trkpt><trkpt lat="44.433788773402576" lon="7.863732614898573"><ele>375.0</ele><time>2026-04-10T15:53:55.999Z</time></trkpt><trkpt lat="44.43398703944714" lon="7.863958699163025"><ele>374.5</ele><time>2026-04-10T15:53:56.999Z</time></trkpt><trkpt lat="44.43417946913941" lon="7.864186074836088"><ele>374.0</ele><time>2026-04-10T15:53:57.999Z</time></trkpt><trkpt lat="44.43437337622399" lon="7.864408016746311"><ele>374.0</ele><time>2026-04-10T15:53:58.999Z</time></trkpt><trkpt lat="44.43457005064083" lon="7.864629266183471"><ele>374.0</ele><time>2026-04-10T15:53:59.999Z</time></trkpt><trkpt lat="44.43476632865722" lon="7.864855282793688"><ele>374.0</ele><time>2026-04-10T15:54:00.999Z</time></trkpt><trkpt lat="44.434964539911725" lon="7.865083015750016"><ele>374.0</ele><time>2026-04-10T15:54:01.999Z</time></trkpt><trkpt lat="44.435164192860626" lon="7.865312676128502"><ele>374.0</ele><time>2026-04-10T15:54:02.999Z</time></trkpt><trkpt lat="44.43536298234244" lon="7.865537204765636"><ele>374.0</ele><time>2026-04-10T15:54:03.999Z</time></trkpt><trkpt lat="44.435565187062465" lon="7.865757924970321"><ele>374.0</ele><time>2026-04-10T15:54:04.999Z</time></trkpt><trkpt lat="44.43576927693944" lon="7.865977870999331"><ele>374.0</ele><time>2026-04-10T15:54:05.999Z</time></trkpt><trkpt lat="44.43597013425129" lon="7.866204743907257"><ele>374.0</ele><time>2026-04-10T15:54:06.999Z</time></trkpt><trkpt lat="44.43617413566384" lon="7.866425088314176"><ele>374.0</ele><time>2026-04-10T15:54:07.999Z</time></trkpt><trkpt lat="44.436375252237085" lon="7.866653958829809"><ele>373.5</ele><time>2026-04-10T15:54:08.999Z</time></trkpt><trkpt lat="44.436576057485055" lon="7.866884092074722"><ele>373.0</ele><time>2026-04-10T15:54:09.999Z</time></trkpt><trkpt lat="44.43677619476664" lon="7.8671104394938975"><ele>373.0</ele><time>2026-04-10T15:54:10.999Z</time></trkpt><trkpt lat="44.43697663099782" lon="7.86734211366699"><ele>373.0</ele><time>2026-04-10T15:54:11.999Z</time></trkpt><trkpt lat="44.43717879607307" lon="7.8675605349077085"><ele>372.0</ele><time>2026-04-10T15:54:12.999Z</time></trkpt><trkpt lat="44.43737931282213" lon="7.867776767645283"><ele>371.0</ele><time>2026-04-10T15:54:13.999Z</time></trkpt><trkpt lat="44.43758309554706" lon="7.867989774860857"><ele>371.0</ele><time>2026-04-10T15:54:14.999Z</time></trkpt><trkpt lat="44.437789066033346" lon="7.868201184731449"><ele>371.0</ele><time>2026-04-10T15:54:15.999Z</time></trkpt><trkpt lat="44.437997716693104" lon="7.868408686440738"><ele>371.0</ele><time>2026-04-10T15:54:16.999Z</time></trkpt><trkpt lat="44.438215378536704" lon="7.868605846421245"><ele>371.0</ele><time>2026-04-10T15:54:17.999Z</time></trkpt><trkpt lat="44.438430893757754" lon="7.86879933667558"><ele>371.0</ele><time>2026-04-10T15:54:18.999Z</time></trkpt><trkpt lat="44.43864756697766" lon="7.868994157813643"><ele>371.0</ele><time>2026-04-10T15:54:19.999Z</time></trkpt><trkpt lat="44.43886592799239" lon="7.869180698822793"><ele>371.0</ele><time>2026-04-10T15:54:20.999Z</time></trkpt><trkpt lat="44.43909031122415" lon="7.869357275541346"><ele>371.0</ele><time>2026-04-10T15:54:21.999Z</time></trkpt><trkpt lat="44.43931151539462" lon="7.869529759871327"><ele>371.0</ele><time>2026-04-10T15:54:22.999Z</time></trkpt><trkpt lat="44.439535425282884" lon="7.869701748823183"><ele>371.0</ele><time>2026-04-10T15:54:23.999Z</time></trkpt><trkpt lat="44.43975774703133" lon="7.869865277645701"><ele>371.0</ele><time>2026-04-10T15:54:24.999Z</time></trkpt><trkpt lat="44.43997856512569" lon="7.87002869316679"><ele>371.0</ele><time>2026-04-10T15:54:25.999Z</time></trkpt><trkpt lat="44.4401922818803" lon="7.870183260820037"><ele>371.0</ele><time>2026-04-10T15:54:26.999Z</time></trkpt><trkpt lat="44.44040192826931" lon="7.870342899241751"><ele>371.0</ele><time>2026-04-10T15:54:27.999Z</time></trkpt><trkpt lat="44.44061366644474" lon="7.870503626436111"><ele>370.5</ele><time>2026-04-10T15:54:28.999Z</time></trkpt><trkpt lat="44.44082529302212" lon="7.870667109159909"><ele>370.0</ele><time>2026-04-10T15:54:29.999Z</time></trkpt><trkpt lat="44.44103901204653" lon="7.8708301637429345"><ele>369.0</ele><time>2026-04-10T15:54:30.999Z</time></trkpt><trkpt lat="44.44125740736514" lon="7.870985567946464"><ele>368.0</ele><time>2026-04-10T15:54:31.999Z</time></trkpt><trkpt lat="44.44147697486804" lon="7.871152519916746"><ele>365.5</ele><time>2026-04-10T15:54:32.999Z</time></trkpt><trkpt lat="44.44168854077838" lon="7.871316281570701"><ele>363.0</ele><time>2026-04-10T15:54:33.999Z</time></trkpt><trkpt lat="44.441897706964205" lon="7.871471585906831"><ele>363.0</ele><time>2026-04-10T15:54:34.999Z</time></trkpt><trkpt lat="44.44209603847783" lon="7.871621538322425"><ele>363.0</ele><time>2026-04-10T15:54:35.999Z</time></trkpt><trkpt lat="44.44228968979626" lon="7.8717700559182635"><ele>363.0</ele><time>2026-04-10T15:54:36.999Z</time></trkpt><trkpt lat="44.44248364548866" lon="7.871925194743455"><ele>360.0</ele><time>2026-04-10T15:54:37.999Z</time></trkpt><trkpt lat="44.4426783796709" lon="7.872089433431834"><ele>357.0</ele><time>2026-04-10T15:54:38.999Z</time></trkpt><trkpt lat="44.442871251652946" lon="7.872257987933363"><ele>356.0</ele><time>2026-04-10T15:54:39.999Z</time></trkpt><trkpt lat="44.44305329557932" lon="7.872416020576459"><ele>355.0</ele><time>2026-04-10T15:54:40.999Z</time></trkpt><trkpt lat="44.44323134104336" lon="7.872580728972617"><ele>354.0</ele><time>2026-04-10T15:54:41.999Z</time></trkpt><trkpt lat="44.44341145150913" lon="7.872753066116568"><ele>350.3333333333333</ele><time>2026-04-10T15:54:42.999Z</time></trkpt><trkpt lat="44.443584318181166" lon="7.872917218558068"><ele>346.66666666666663</ele><time>2026-04-10T15:54:43.999Z</time></trkpt><trkpt lat="44.443750894416446" lon="7.873078199566565"><ele>343.0</ele><time>2026-04-10T15:54:44.999Z</time></trkpt><trkpt lat="44.443912033906514" lon="7.873236090847465"><ele>343.0</ele><time>2026-04-10T15:54:45.999Z</time></trkpt><trkpt lat="44.44407038355559" lon="7.873394087856207"><ele>343.0</ele><time>2026-04-10T15:54:46.999Z</time></trkpt><trkpt lat="44.44422312778834" lon="7.8735461006184595"><ele>343.0</ele><time>2026-04-10T15:54:47.999Z</time></trkpt><trkpt lat="44.44436960105693" lon="7.873696360797323"><ele>341.66666666666663</ele><time>2026-04-10T15:54:48.999Z</time></trkpt><trkpt lat="44.444499997327604" lon="7.873831712225097"><ele>340.3333333333333</ele><time>2026-04-10T15:54:49.999Z</time></trkpt><trkpt lat="44.44462422104339" lon="7.873965171792843"><ele>339.0</ele><time>2026-04-10T15:54:50.999Z</time></trkpt><trkpt lat="44.444748614039646" lon="7.874103121262285"><ele>339.0</ele><time>2026-04-10T15:54:51.999Z</time></trkpt><trkpt lat="44.44486959703719" lon="7.874253640719049"><ele>339.0</ele><time>2026-04-10T15:54:52.999Z</time></trkpt><trkpt lat="44.444982753278815" lon="7.874425278970553"><ele>339.0</ele><time>2026-04-10T15:54:53.999Z</time></trkpt><trkpt lat="44.44508800120828" lon="7.874618037732228"><ele>335.3333333333333</ele><time>2026-04-10T15:54:54.998Z</time></trkpt><trkpt lat="44.44519035429029" lon="7.8748290539447705"><ele>331.66666666666663</ele><time>2026-04-10T15:54:55.998Z</time></trkpt><trkpt lat="44.445276451416305" lon="7.875055246542105"><ele>328.0</ele><time>2026-04-10T15:54:56.998Z</time></trkpt><trkpt lat="44.44534860071048" lon="7.87529513062086"><ele>330.0</ele><time>2026-04-10T15:54:57.998Z</time></trkpt><trkpt lat="44.44541300147379" lon="7.87554045224032"><ele>332.0</ele><time>2026-04-10T15:54:58.998Z</time></trkpt><trkpt lat="44.4454664015635" lon="7.875801779115903"><ele>334.0</ele><time>2026-04-10T15:54:59.998Z</time></trkpt><trkpt lat="44.44551076536375" lon="7.876057575847141"><ele>334.0</ele><time>2026-04-10T15:55:00.998Z</time></trkpt><trkpt lat="44.44555416234634" lon="7.876306519571131"><ele>334.0</ele><time>2026-04-10T15:55:01.998Z</time></trkpt><trkpt lat="44.445588031957946" lon="7.876530675378346"><ele>334.0</ele><time>2026-04-10T15:55:02.998Z</time></trkpt><trkpt lat="44.44562934855311" lon="7.87673834461507"><ele>330.75</ele><time>2026-04-10T15:55:03.998Z</time></trkpt><trkpt lat="44.44567735605942" lon="7.876942401672666"><ele>327.5</ele><time>2026-04-10T15:55:04.998Z</time></trkpt><trkpt lat="44.44573842035465" lon="7.877135381928284"><ele>324.25</ele><time>2026-04-10T15:55:05.998Z</time></trkpt><trkpt lat="44.44580352094238" lon="7.8772969685912"><ele>321.0</ele><time>2026-04-10T15:55:06.998Z</time></trkpt><trkpt lat="44.44587497196993" lon="7.877457944806632"><ele>314.0</ele><time>2026-04-10T15:55:07.998Z</time></trkpt><trkpt lat="44.445962900427745" lon="7.8776317005623095"><ele>307.0</ele><time>2026-04-10T15:55:08.998Z</time></trkpt><trkpt lat="44.4460751867554" lon="7.877791201434401"><ele>300.0</ele><time>2026-04-10T15:55:09.998Z</time></trkpt><trkpt lat="44.446203449889516" lon="7.877944013633055"><ele>308.3333333333333</ele><time>2026-04-10T15:55:10.998Z</time></trkpt><trkpt lat="44.44633807815339" lon="7.878088520853485"><ele>316.66666666666663</ele><time>2026-04-10T15:55:11.998Z</time></trkpt><trkpt lat="44.446471820400426" lon="7.8782244038548335"><ele>325.0</ele><time>2026-04-10T15:55:12.998Z</time></trkpt><trkpt lat="44.446597517152625" lon="7.878372109693028"><ele>317.66666666666663</ele><time>2026-04-10T15:55:13.998Z</time></trkpt><trkpt lat="44.44671496808105" lon="7.878527609339241"><ele>310.3333333333333</ele><time>2026-04-10T15:55:14.998Z</time></trkpt><trkpt lat="44.44682197667583" lon="7.878692417101988"><ele>303.0</ele><time>2026-04-10T15:55:16Z</time></trkpt><trkpt lat="44.44692333088313" lon="7.8788860155781375"><ele>303.0</ele><time>2026-04-10T15:55:17Z</time></trkpt><trkpt lat="44.44700497961002" lon="7.879110067817492"><ele>303.0</ele><time>2026-04-10T15:55:18Z</time></trkpt><trkpt lat="44.44706557861369" lon="7.879351023317494"><ele>303.0</ele><time>2026-04-10T15:55:19Z</time></trkpt><trkpt lat="44.44711303533048" lon="7.879627695326076"><ele>307.3333333333333</ele><time>2026-04-10T15:55:20Z</time></trkpt><trkpt lat="44.44714908695133" lon="7.8799184088059055"><ele>311.66666666666663</ele><time>2026-04-10T15:55:21Z</time></trkpt><trkpt lat="44.447168186052764" lon="7.880236534523051"><ele>316.0</ele><time>2026-04-10T15:55:22Z</time></trkpt><trkpt lat="44.447182901519774" lon="7.880558934869529"><ele>316.0</ele><time>2026-04-10T15:55:23Z</time></trkpt><trkpt lat="44.44720029310572" lon="7.880897978505701"><ele>316.0</ele><time>2026-04-10T15:55:24Z</time></trkpt><trkpt lat="44.447217468054205" lon="7.881246471117635"><ele>312.5</ele><time>2026-04-10T15:55:25Z</time></trkpt><trkpt lat="44.44723670279607" lon="7.881596395687816"><ele>309.0</ele><time>2026-04-10T15:55:26Z</time></trkpt><trkpt lat="44.4472544349915" lon="7.881941876298462"><ele>307.5</ele><time>2026-04-10T15:55:27Z</time></trkpt><trkpt lat="44.447281014832235" lon="7.882294188811662"><ele>306.0</ele><time>2026-04-10T15:55:28Z</time></trkpt><trkpt lat="44.44730572021349" lon="7.882641853340241"><ele>304.6666666666667</ele><time>2026-04-10T15:55:29Z</time></trkpt><trkpt lat="44.447326536863834" lon="7.882956232586648"><ele>303.33333333333337</ele><time>2026-04-10T15:55:30Z</time></trkpt><trkpt lat="44.447350229259634" lon="7.883253669747625"><ele>302.0</ele><time>2026-04-10T15:55:31Z</time></trkpt><trkpt lat="44.447375938255185" lon="7.883533174739511"><ele>299.6666666666667</ele><time>2026-04-10T15:55:32Z</time></trkpt><trkpt lat="44.44741696789112" lon="7.883799232072572"><ele>297.3333333333333</ele><time>2026-04-10T15:55:33Z</time></trkpt><trkpt lat="44.447474775651436" lon="7.884065331224129"><ele>295.0</ele><time>2026-04-10T15:55:34Z</time></trkpt><trkpt lat="44.44754884844276" lon="7.884339822317537"><ele>294.3333333333333</ele><time>2026-04-10T15:55:35Z</time></trkpt><trkpt lat="44.447638944242506" lon="7.88460762457566"><ele>293.6666666666667</ele><time>2026-04-10T15:55:36Z</time></trkpt><trkpt lat="44.44773325257635" lon="7.884871958466091"><ele>293.0</ele><time>2026-04-10T15:55:37Z</time></trkpt><trkpt lat="44.44783610506689" lon="7.885136941435554"><ele>292.0</ele><time>2026-04-10T15:55:38Z</time></trkpt><trkpt lat="44.44794817332233" lon="7.885398552922927"><ele>291.0</ele><time>2026-04-10T15:55:39Z</time></trkpt><trkpt lat="44.448069939148844" lon="7.885661913484665"><ele>290.0</ele><time>2026-04-10T15:55:40Z</time></trkpt><trkpt lat="44.448198545950476" lon="7.885922977225329"><ele>291.5</ele><time>2026-04-10T15:55:41Z</time></trkpt><trkpt lat="44.4483314957177" lon="7.886184106502353"><ele>293.0</ele><time>2026-04-10T15:55:42Z</time></trkpt><trkpt lat="44.44846355969541" lon="7.886450313150747"><ele>293.0</ele><time>2026-04-10T15:55:43Z</time></trkpt><trkpt lat="44.44859535224661" lon="7.886720364853281"><ele>293.0</ele><time>2026-04-10T15:55:44Z</time></trkpt><trkpt lat="44.44872639355889" lon="7.886987583911933"><ele>292.0</ele><time>2026-04-10T15:55:45Z</time></trkpt><trkpt lat="44.4488597572073" lon="7.887259579002018"><ele>291.0</ele><time>2026-04-10T15:55:46Z</time></trkpt><trkpt lat="44.448987072102874" lon="7.887513253475077"><ele>292.0</ele><time>2026-04-10T15:55:47Z</time></trkpt><trkpt lat="44.449116692314476" lon="7.887766292465915"><ele>293.0</ele><time>2026-04-10T15:55:48Z</time></trkpt><trkpt lat="44.44925005924539" lon="7.888034909144513"><ele>293.0</ele><time>2026-04-10T15:55:49Z</time></trkpt><trkpt lat="44.44938774301384" lon="7.888309345188583"><ele>293.0</ele><time>2026-04-10T15:55:50Z</time></trkpt><trkpt lat="44.44953161402746" lon="7.888588636321695"><ele>290.0</ele><time>2026-04-10T15:55:51Z</time></trkpt><trkpt lat="44.4496756662766" lon="7.8888811165090615"><ele>287.0</ele><time>2026-04-10T15:55:52Z</time></trkpt><trkpt lat="44.44981339776131" lon="7.889169032544272"><ele>288.0</ele><time>2026-04-10T15:55:53Z</time></trkpt><trkpt lat="44.44994280279416" lon="7.889438675132289"><ele>289.0</ele><time>2026-04-10T15:55:54Z</time></trkpt><trkpt lat="44.45006634724873" lon="7.8896956200034385"><ele>289.0</ele><time>2026-04-10T15:55:55Z</time></trkpt><trkpt lat="44.45018747325255" lon="7.889942941916279"><ele>289.0</ele><time>2026-04-10T15:55:56Z</time></trkpt><trkpt lat="44.450304403821" lon="7.8901735812346105"><ele>289.0</ele><time>2026-04-10T15:55:57Z</time></trkpt><trkpt lat="44.45041405427011" lon="7.890400669219927"><ele>287.3333333333333</ele><time>2026-04-10T15:55:58Z</time></trkpt><trkpt lat="44.45051904163315" lon="7.890615167147674"><ele>285.6666666666667</ele><time>2026-04-10T15:55:59Z</time></trkpt><trkpt lat="44.450619425515875" lon="7.890818148303515"><ele>284.0</ele><time>2026-04-10T15:56:00Z</time></trkpt><trkpt lat="44.4507179409618" lon="7.891013012218476"><ele>284.0</ele><time>2026-04-10T15:56:00.999Z</time></trkpt><trkpt lat="44.450813438764" lon="7.891196442404179"><ele>284.0</ele><time>2026-04-10T15:56:01.999Z</time></trkpt><trkpt lat="44.45089080759962" lon="7.891350223652216"><ele>284.0</ele><time>2026-04-10T15:56:02.999Z</time></trkpt><trkpt lat="44.45096804030088" lon="7.891505843486346"><ele>284.0</ele><time>2026-04-10T15:56:03.999Z</time></trkpt><trkpt lat="44.45103425253936" lon="7.891642686012874"><ele>284.0</ele><time>2026-04-10T15:56:04.999Z</time></trkpt><trkpt lat="44.451097857855686" lon="7.891772060168086"><ele>284.0</ele><time>2026-04-10T15:56:05.999Z</time></trkpt><trkpt lat="44.451149850944816" lon="7.891890058441571"><ele>284.0</ele><time>2026-04-10T15:56:06.999Z</time></trkpt><trkpt lat="44.45118692389501" lon="7.891994115405731"><ele>284.0</ele><time>2026-04-10T15:56:07.999Z</time></trkpt><trkpt lat="44.4512331859874" lon="7.8921563242407675"><ele>284.0</ele><time>2026-04-10T15:56:09.999Z</time></trkpt><trkpt lat="44.45124877325801" lon="7.892342281076225"><ele>284.0</ele><time>2026-04-10T15:56:11.999Z</time></trkpt><trkpt lat="44.45125705255308" lon="7.892464724107826"><ele>284.0</ele><time>2026-04-10T15:56:12.999Z</time></trkpt><trkpt lat="44.45126594417747" lon="7.892559954733128"><ele>284.0</ele><time>2026-04-10T15:56:13.999Z</time></trkpt><trkpt lat="44.45128392156948" lon="7.892646509563879"><ele>284.0</ele><time>2026-04-10T15:56:14.999Z</time></trkpt><trkpt lat="44.4512970568911" lon="7.892809386505355"><ele>284.0</ele><time>2026-04-10T15:56:16.999Z</time></trkpt><trkpt lat="44.451438914627275" lon="7.892822281448327"><ele>283.8</ele><time>2026-04-10T15:56:17.999Z</time></trkpt><trkpt lat="44.45151912433585" lon="7.892812067927278"><ele>283.59999999999997</ele><time>2026-04-10T15:56:18.999Z</time></trkpt><trkpt lat="44.451619423036746" lon="7.8927606070673315"><ele>283.4</ele><time>2026-04-10T15:56:19.999Z</time></trkpt><trkpt lat="44.451724760913145" lon="7.892703705496672"><ele>283.2</ele><time>2026-04-10T15:56:20.999Z</time></trkpt><trkpt lat="44.45183647507581" lon="7.8926376628231285"><ele>283.0</ele><time>2026-04-10T15:56:21.999Z</time></trkpt><trkpt lat="44.451968124011024" lon="7.892571889125707"><ele>283.0</ele><time>2026-04-10T15:56:22.999Z</time></trkpt><trkpt lat="44.45210004705858" lon="7.892518218679621"><ele>283.0</ele><time>2026-04-10T15:56:23.999Z</time></trkpt><trkpt lat="44.45225328701803" lon="7.89246610931513"><ele>283.0</ele><time>2026-04-10T15:56:24.999Z</time></trkpt><trkpt lat="44.452414928000145" lon="7.892413792969116"><ele>282.0</ele><time>2026-04-10T15:56:25.999Z</time></trkpt><trkpt lat="44.45258822336173" lon="7.892353580074674"><ele>281.0</ele><time>2026-04-10T15:56:26.999Z</time></trkpt><trkpt lat="44.452767270299226" lon="7.892293373775772"><ele>280.0</ele><time>2026-04-10T15:56:27.999Z</time></trkpt><trkpt lat="44.45295248807052" lon="7.892234852779833"><ele>279.3333333333333</ele><time>2026-04-10T15:56:28.999Z</time></trkpt><trkpt lat="44.453145071549066" lon="7.892170275841893"><ele>278.6666666666667</ele><time>2026-04-10T15:56:29.999Z</time></trkpt><trkpt lat="44.45334094635463" lon="7.892106650502129"><ele>278.0</ele><time>2026-04-10T15:56:30.999Z</time></trkpt><trkpt lat="44.45353830390712" lon="7.8920371729386485"><ele>278.0</ele><time>2026-04-10T15:56:31.999Z</time></trkpt><trkpt lat="44.453742599947525" lon="7.891968714537166"><ele>278.0</ele><time>2026-04-10T15:56:32.999Z</time></trkpt><trkpt lat="44.45395234253938" lon="7.8918975599750185"><ele>278.0</ele><time>2026-04-10T15:56:33.999Z</time></trkpt><trkpt lat="44.45416911387011" lon="7.891823853266217"><ele>280.0</ele><time>2026-04-10T15:56:34.999Z</time></trkpt><trkpt lat="44.454391065405474" lon="7.891748481625205"><ele>282.0</ele><time>2026-04-10T15:56:35.999Z</time></trkpt><trkpt lat="44.45462261185323" lon="7.891669780082756"><ele>283.5</ele><time>2026-04-10T15:56:36.999Z</time></trkpt><trkpt lat="44.454857542889826" lon="7.891586712863094"><ele>285.0</ele><time>2026-04-10T15:56:37.999Z</time></trkpt><trkpt lat="44.45509565206422" lon="7.891501450388287"><ele>285.0</ele><time>2026-04-10T15:56:38.999Z</time></trkpt><trkpt lat="44.4553351888979" lon="7.891415847515903"><ele>285.0</ele><time>2026-04-10T15:56:39.999Z</time></trkpt><trkpt lat="44.45557806419044" lon="7.891329380645177"><ele>283.5</ele><time>2026-04-10T15:56:40.999Z</time></trkpt><trkpt lat="44.455817030436265" lon="7.891244307296117"><ele>282.0</ele><time>2026-04-10T15:56:41.999Z</time></trkpt><trkpt lat="44.45606825746558" lon="7.891160910104899"><ele>278.5</ele><time>2026-04-10T15:56:42.999Z</time></trkpt><trkpt lat="44.45631674221373" lon="7.891074883955812"><ele>275.0</ele><time>2026-04-10T15:56:43.999Z</time></trkpt><trkpt lat="44.45656918959476" lon="7.890987685948638"><ele>275.5</ele><time>2026-04-10T15:56:44.999Z</time></trkpt><trkpt lat="44.456825069650044" lon="7.890896272240203"><ele>276.0</ele><time>2026-04-10T15:56:45.999Z</time></trkpt><trkpt lat="44.45708310825292" lon="7.8908044628074085"><ele>274.0</ele><time>2026-04-10T15:56:46.999Z</time></trkpt><trkpt lat="44.457341012710565" lon="7.890710518733014"><ele>272.0</ele><time>2026-04-10T15:56:47.999Z</time></trkpt><trkpt lat="44.45759742394718" lon="7.89062117787814"><ele>272.0</ele><time>2026-04-10T15:56:48.999Z</time></trkpt><trkpt lat="44.45783544953154" lon="7.89053714985841"><ele>272.0</ele><time>2026-04-10T15:56:49.999Z</time></trkpt><trkpt lat="44.45806209417934" lon="7.890459619260559"><ele>272.33333333333337</ele><time>2026-04-10T15:56:50.999Z</time></trkpt><trkpt lat="44.45827964242667" lon="7.8903834940992965"><ele>272.6666666666667</ele><time>2026-04-10T15:56:51.999Z</time></trkpt><trkpt lat="44.458487027769" lon="7.89031256031405"><ele>273.0</ele><time>2026-04-10T15:56:52.999Z</time></trkpt><trkpt lat="44.4586819568052" lon="7.89023932005416"><ele>273.6666666666667</ele><time>2026-04-10T15:56:53.999Z</time></trkpt><trkpt lat="44.458872270132844" lon="7.890159079754776"><ele>274.33333333333337</ele><time>2026-04-10T15:56:54.999Z</time></trkpt><trkpt lat="44.45905576492809" lon="7.890075618870402"><ele>275.0</ele><time>2026-04-10T15:56:55.999Z</time></trkpt><trkpt lat="44.45924216484206" lon="7.889975061694008"><ele>275.6666666666667</ele><time>2026-04-10T15:56:56.999Z</time></trkpt><trkpt lat="44.45942203170988" lon="7.889854714164109"><ele>276.3333333333333</ele><time>2026-04-10T15:56:57.999Z</time></trkpt><trkpt lat="44.45958690644632" lon="7.8897311504162495"><ele>277.0</ele><time>2026-04-10T15:56:58.999Z</time></trkpt><trkpt lat="44.45974407637714" lon="7.8896013013741095"><ele>277.0</ele><time>2026-04-10T15:56:59.999Z</time></trkpt><trkpt lat="44.45990041683096" lon="7.889454634873002"><ele>277.0</ele><time>2026-04-10T15:57:00.999Z</time></trkpt><trkpt lat="44.46004965758788" lon="7.88929686938859"><ele>277.0</ele><time>2026-04-10T15:57:01.999Z</time></trkpt><trkpt lat="44.460196691805564" lon="7.889118132916403"><ele>277.66666666666663</ele><time>2026-04-10T15:57:02.998Z</time></trkpt><trkpt lat="44.46034088060914" lon="7.888931111992433"><ele>278.3333333333333</ele><time>2026-04-10T15:57:03.998Z</time></trkpt><trkpt lat="44.46049417249676" lon="7.888745880250044"><ele>279.0</ele><time>2026-04-10T15:57:04.998Z</time></trkpt><trkpt lat="44.46065237395197" lon="7.888565533329474"><ele>279.6666666666667</ele><time>2026-04-10T15:57:05.998Z</time></trkpt><trkpt lat="44.46080844812417" lon="7.88837069437806"><ele>280.33333333333337</ele><time>2026-04-10T15:57:06.998Z</time></trkpt><trkpt lat="44.46096357439959" lon="7.888173494114425"><ele>281.0</ele><time>2026-04-10T15:57:07.998Z</time></trkpt><trkpt lat="44.461127789233004" lon="7.887973668419789"><ele>281.33333333333337</ele><time>2026-04-10T15:57:08.998Z</time></trkpt><trkpt lat="44.46129283500048" lon="7.887768129939943"><ele>281.6666666666667</ele><time>2026-04-10T15:57:09.998Z</time></trkpt><trkpt lat="44.461463150273" lon="7.887564527506888"><ele>282.0</ele><time>2026-04-10T15:57:10.998Z</time></trkpt><trkpt lat="44.46163013160131" lon="7.887354546619198"><ele>282.0</ele><time>2026-04-10T15:57:11.998Z</time></trkpt><trkpt lat="44.46180302709915" lon="7.887139624944387"><ele>282.0</ele><time>2026-04-10T15:57:12.998Z</time></trkpt><trkpt lat="44.46197678202283" lon="7.886926823428994"><ele>283.3333333333333</ele><time>2026-04-10T15:57:13.998Z</time></trkpt><trkpt lat="44.46213289566524" lon="7.886716966675329"><ele>284.66666666666663</ele><time>2026-04-10T15:57:14.998Z</time></trkpt><trkpt lat="44.46228368126602" lon="7.886533284903499"><ele>286.0</ele><time>2026-04-10T15:57:15.998Z</time></trkpt><trkpt lat="44.462435426062484" lon="7.886348823869756"><ele>286.0</ele><time>2026-04-10T15:57:16.998Z</time></trkpt><trkpt lat="44.46259178667222" lon="7.886162574590405"><ele>286.0</ele><time>2026-04-10T15:57:17.998Z</time></trkpt><trkpt lat="44.46275364956193" lon="7.8859776150343"><ele>286.0</ele><time>2026-04-10T15:57:18.998Z</time></trkpt><trkpt lat="44.46291287868049" lon="7.885788068622663"><ele>281.66666666666663</ele><time>2026-04-10T15:57:19.998Z</time></trkpt><trkpt lat="44.463077660854765" lon="7.885601795982733"><ele>277.3333333333333</ele><time>2026-04-10T15:57:20.998Z</time></trkpt><trkpt lat="44.463247309973575" lon="7.885422157296643"><ele>273.0</ele><time>2026-04-10T15:57:22Z</time></trkpt><trkpt lat="44.46342325849898" lon="7.885250843123515"><ele>274.0</ele><time>2026-04-10T15:57:23Z</time></trkpt><trkpt lat="44.46360910125061" lon="7.885093905920688"><ele>275.0</ele><time>2026-04-10T15:57:24Z</time></trkpt><trkpt lat="44.46379716186513" lon="7.884944222563581"><ele>276.0</ele><time>2026-04-10T15:57:25Z</time></trkpt><trkpt lat="44.46399414495942" lon="7.884808416726176"><ele>276.3333333333333</ele><time>2026-04-10T15:57:26Z</time></trkpt><trkpt lat="44.4641929628738" lon="7.88468331378379"><ele>276.66666666666663</ele><time>2026-04-10T15:57:27Z</time></trkpt><trkpt lat="44.4643973936625" lon="7.884565199172627"><ele>277.0</ele><time>2026-04-10T15:57:28Z</time></trkpt><trkpt lat="44.46460935570904" lon="7.884462195758082"><ele>276.3333333333333</ele><time>2026-04-10T15:57:29Z</time></trkpt><trkpt lat="44.46482078623217" lon="7.8843699357910735"><ele>275.6666666666667</ele><time>2026-04-10T15:57:30Z</time></trkpt><trkpt lat="44.4650339977621" lon="7.8842898495750084"><ele>275.0</ele><time>2026-04-10T15:57:31Z</time></trkpt><trkpt lat="44.4652459159696" lon="7.8842219202858"><ele>276.6666666666667</ele><time>2026-04-10T15:57:32Z</time></trkpt><trkpt lat="44.465464747159665" lon="7.88416344799072"><ele>278.3333333333333</ele><time>2026-04-10T15:57:33Z</time></trkpt><trkpt lat="44.46568115231211" lon="7.884121480713903"><ele>280.0</ele><time>2026-04-10T15:57:34Z</time></trkpt><trkpt lat="44.46589926121264" lon="7.884091497632159"><ele>280.0</ele><time>2026-04-10T15:57:35Z</time></trkpt><trkpt lat="44.46611511475411" lon="7.884078463151134"><ele>280.0</ele><time>2026-04-10T15:57:36Z</time></trkpt><trkpt lat="44.46633165110668" lon="7.8840786937675835"><ele>280.0</ele><time>2026-04-10T15:57:37Z</time></trkpt><trkpt lat="44.46654712658504" lon="7.884091334867983"><ele>281.66666666666663</ele><time>2026-04-10T15:57:38Z</time></trkpt><trkpt lat="44.466763720621884" lon="7.884113798258836"><ele>283.3333333333333</ele><time>2026-04-10T15:57:39Z</time></trkpt><trkpt lat="44.466980864112614" lon="7.884146026499913"><ele>285.0</ele><time>2026-04-10T15:57:40Z</time></trkpt><trkpt lat="44.46719074870196" lon="7.884185757109264"><ele>285.0</ele><time>2026-04-10T15:57:41Z</time></trkpt><trkpt lat="44.467397511272765" lon="7.8842410911152"><ele>285.0</ele><time>2026-04-10T15:57:42Z</time></trkpt><trkpt lat="44.46760448145826" lon="7.884302711181275"><ele>285.0</ele><time>2026-04-10T15:57:43Z</time></trkpt><trkpt lat="44.467802659014836" lon="7.884407415145575"><ele>285.0</ele><time>2026-04-10T15:57:44Z</time></trkpt><trkpt lat="44.46800351104102" lon="7.884502368209558"><ele>285.0</ele><time>2026-04-10T15:57:45Z</time></trkpt><trkpt lat="44.46820267052317" lon="7.884608525255128"><ele>285.0</ele><time>2026-04-10T15:57:46Z</time></trkpt><trkpt lat="44.46839208247561" lon="7.884720795753353"><ele>285.0</ele><time>2026-04-10T15:57:47Z</time></trkpt><trkpt lat="44.46857450115542" lon="7.884838687326848"><ele>285.0</ele><time>2026-04-10T15:57:48Z</time></trkpt><trkpt lat="44.468753665250574" lon="7.884968602588102"><ele>285.0</ele><time>2026-04-10T15:57:49Z</time></trkpt><trkpt lat="44.4689293544349" lon="7.885108682847767"><ele>285.3333333333333</ele><time>2026-04-10T15:57:50Z</time></trkpt><trkpt lat="44.469091655155935" lon="7.8852491329732075"><ele>285.66666666666663</ele><time>2026-04-10T15:57:51Z</time></trkpt><trkpt lat="44.46924062534115" lon="7.885389628329412"><ele>286.0</ele><time>2026-04-10T15:57:52Z</time></trkpt><trkpt lat="44.469383496996585" lon="7.8855264287249796"><ele>286.0</ele><time>2026-04-10T15:57:53Z</time></trkpt><trkpt lat="44.46949681035206" lon="7.885647659402288"><ele>286.0</ele><time>2026-04-10T15:57:54Z</time></trkpt><trkpt lat="44.469604121618254" lon="7.885771840731597"><ele>286.0</ele><time>2026-04-10T15:57:55Z</time></trkpt><trkpt lat="44.46970953639725" lon="7.885899497021108"><ele>286.0</ele><time>2026-04-10T15:57:56Z</time></trkpt><trkpt lat="44.46981992301368" lon="7.886005816949136"><ele>286.25</ele><time>2026-04-10T15:57:57Z</time></trkpt><trkpt lat="44.46991582004945" lon="7.886135950126097"><ele>286.5</ele><time>2026-04-10T15:57:58Z</time></trkpt><trkpt lat="44.470015861403965" lon="7.886269519741153"><ele>286.75</ele><time>2026-04-10T15:57:59Z</time></trkpt><trkpt lat="44.47010042735359" lon="7.886406410196676"><ele>287.0</ele><time>2026-04-10T15:58:00Z</time></trkpt><trkpt lat="44.47019639056742" lon="7.886542873153001"><ele>287.0</ele><time>2026-04-10T15:58:01Z</time></trkpt><trkpt lat="44.47030141631333" lon="7.88668846362856"><ele>287.0</ele><time>2026-04-10T15:58:02Z</time></trkpt><trkpt lat="44.47041304183883" lon="7.886848553787406"><ele>287.0</ele><time>2026-04-10T15:58:03Z</time></trkpt><trkpt lat="44.47053392058885" lon="7.887024896284497"><ele>286.33333333333337</ele><time>2026-04-10T15:58:04Z</time></trkpt><trkpt lat="44.47066173825606" lon="7.887200046839847"><ele>285.6666666666667</ele><time>2026-04-10T15:58:05Z</time></trkpt><trkpt lat="44.4707976117522" lon="7.8873731083043195"><ele>285.0</ele><time>2026-04-10T15:58:05.999Z</time></trkpt><trkpt lat="44.47094383534788" lon="7.887552879657391"><ele>284.0</ele><time>2026-04-10T15:58:06.999Z</time></trkpt><trkpt lat="44.471091268894504" lon="7.887730735760538"><ele>283.0</ele><time>2026-04-10T15:58:07.999Z</time></trkpt><trkpt lat="44.47124853917559" lon="7.887908327135328"><ele>282.0</ele><time>2026-04-10T15:58:08.999Z</time></trkpt><trkpt lat="44.47141417908011" lon="7.888081270773794"><ele>281.6666666666667</ele><time>2026-04-10T15:58:09.999Z</time></trkpt><trkpt lat="44.47158325735745" lon="7.888254227993327"><ele>281.33333333333337</ele><time>2026-04-10T15:58:10.999Z</time></trkpt><trkpt lat="44.47176079807959" lon="7.888424681298343"><ele>281.0</ele><time>2026-04-10T15:58:11.999Z</time></trkpt><trkpt lat="44.47194851260279" lon="7.888586482986644"><ele>280.0</ele><time>2026-04-10T15:58:12.999Z</time></trkpt><trkpt lat="44.47215075825604" lon="7.888740294189251"><ele>279.0</ele><time>2026-04-10T15:58:13.999Z</time></trkpt><trkpt lat="44.47234888163009" lon="7.888879334754088"><ele>279.0</ele><time>2026-04-10T15:58:14.999Z</time></trkpt><trkpt lat="44.472544958632376" lon="7.8889932924537645"><ele>279.0</ele><time>2026-04-10T15:58:15.999Z</time></trkpt><trkpt lat="44.47273962903768" lon="7.8891034477941995"><ele>279.0</ele><time>2026-04-10T15:58:16.999Z</time></trkpt><trkpt lat="44.47293375609034" lon="7.889205390246639"><ele>278.3333333333333</ele><time>2026-04-10T15:58:17.999Z</time></trkpt><trkpt lat="44.473129327823855" lon="7.889299958891159"><ele>277.66666666666663</ele><time>2026-04-10T15:58:18.999Z</time></trkpt><trkpt lat="44.473326916817726" lon="7.889380339612253"><ele>277.0</ele><time>2026-04-10T15:58:19.999Z</time></trkpt><trkpt lat="44.47352333922113" lon="7.889453834976513"><ele>277.0</ele><time>2026-04-10T15:58:20.999Z</time></trkpt><trkpt lat="44.47372720711983" lon="7.8895200998924055"><ele>277.0</ele><time>2026-04-10T15:58:21.999Z</time></trkpt><trkpt lat="44.473932382620056" lon="7.889574227821481"><ele>277.0</ele><time>2026-04-10T15:58:22.999Z</time></trkpt><trkpt lat="44.47414074976455" lon="7.889619450587078"><ele>277.3333333333333</ele><time>2026-04-10T15:58:23.999Z</time></trkpt><trkpt lat="44.47434872890687" lon="7.88965804946429"><ele>277.6666666666667</ele><time>2026-04-10T15:58:24.999Z</time></trkpt><trkpt lat="44.47456164209446" lon="7.8896843525506775"><ele>278.0</ele><time>2026-04-10T15:58:25.999Z</time></trkpt><trkpt lat="44.474779483966984" lon="7.889700386797852"><ele>277.33333333333337</ele><time>2026-04-10T15:58:26.999Z</time></trkpt><trkpt lat="44.47499931986432" lon="7.889698674927725"><ele>276.6666666666667</ele><time>2026-04-10T15:58:27.999Z</time></trkpt><trkpt lat="44.47522547681366" lon="7.889684724000701"><ele>276.0</ele><time>2026-04-10T15:58:28.999Z</time></trkpt><trkpt lat="44.47545678162614" lon="7.889678019009348"><ele>275.0</ele><time>2026-04-10T15:58:29.999Z</time></trkpt><trkpt lat="44.47568932160257" lon="7.889679038090315"><ele>274.0</ele><time>2026-04-10T15:58:30.999Z</time></trkpt><trkpt lat="44.475909771437465" lon="7.889682868753399"><ele>274.0</ele><time>2026-04-10T15:58:31.999Z</time></trkpt><trkpt lat="44.47613139111702" lon="7.889696638387125"><ele>274.0</ele><time>2026-04-10T15:58:32.999Z</time></trkpt><trkpt lat="44.47636558334111" lon="7.889726764719199"><ele>274.0</ele><time>2026-04-10T15:58:33.999Z</time></trkpt><trkpt lat="44.476603888417486" lon="7.88977971517592"><ele>274.0</ele><time>2026-04-10T15:58:34.999Z</time></trkpt><trkpt lat="44.47683577433603" lon="7.889846896387184"><ele>274.0</ele><time>2026-04-10T15:58:35.999Z</time></trkpt><trkpt lat="44.47706549961482" lon="7.889923943804734"><ele>274.0</ele><time>2026-04-10T15:58:36.999Z</time></trkpt><trkpt lat="44.477278782234755" lon="7.890000890010055"><ele>274.66666666666663</ele><time>2026-04-10T15:58:37.999Z</time></trkpt><trkpt lat="44.47747226585342" lon="7.890100623582842"><ele>275.3333333333333</ele><time>2026-04-10T15:58:38.999Z</time></trkpt><trkpt lat="44.477649883236225" lon="7.890163473635203"><ele>276.0</ele><time>2026-04-10T15:58:39.999Z</time></trkpt><trkpt lat="44.47782019710397" lon="7.890197902344522"><ele>275.0</ele><time>2026-04-10T15:58:40.999Z</time></trkpt><trkpt lat="44.47797840456671" lon="7.890250701785338"><ele>274.0</ele><time>2026-04-10T15:58:41.999Z</time></trkpt><trkpt lat="44.47812398380427" lon="7.89031430669521"><ele>273.0</ele><time>2026-04-10T15:58:42.999Z</time></trkpt><trkpt lat="44.478266468000285" lon="7.890347404752937"><ele>273.0</ele><time>2026-04-10T15:58:43.999Z</time></trkpt><trkpt lat="44.478403230559884" lon="7.890371973634923"><ele>273.0</ele><time>2026-04-10T15:58:44.999Z</time></trkpt><trkpt lat="44.47855763104701" lon="7.890370728166897"><ele>273.0</ele><time>2026-04-10T15:58:45.999Z</time></trkpt><trkpt lat="44.47869438319236" lon="7.890354634408224"><ele>273.0</ele><time>2026-04-10T15:58:46.999Z</time></trkpt><trkpt lat="44.47881467703682" lon="7.8903107312702385"><ele>273.2</ele><time>2026-04-10T15:58:47.999Z</time></trkpt><trkpt lat="44.47892563903816" lon="7.890289080861907"><ele>273.4</ele><time>2026-04-10T15:58:48.999Z</time></trkpt><trkpt lat="44.479025170360416" lon="7.890267748769307"><ele>273.59999999999997</ele><time>2026-04-10T15:58:49.999Z</time></trkpt><trkpt lat="44.479120754127614" lon="7.890251590270083"><ele>273.8</ele><time>2026-04-10T15:58:50.999Z</time></trkpt><trkpt lat="44.47920974773402" lon="7.890245768329655"><ele>274.0</ele><time>2026-04-10T15:58:51.999Z</time></trkpt><trkpt lat="44.47928944847802" lon="7.890254287944104"><ele>274.0</ele><time>2026-04-10T15:58:52.999Z</time></trkpt><trkpt lat="44.4793640112698" lon="7.890273309889009"><ele>274.0</ele><time>2026-04-10T15:58:53.999Z</time></trkpt><trkpt lat="44.47943164424246" lon="7.890319017999582"><ele>274.0</ele><time>2026-04-10T15:58:54.999Z</time></trkpt><trkpt lat="44.47950252579254" lon="7.8903189149286455"><ele>274.0</ele><time>2026-04-10T15:58:55.999Z</time></trkpt><trkpt lat="44.47957534614587" lon="7.890276928523359"><ele>274.0</ele><time>2026-04-10T15:58:56.999Z</time></trkpt><trkpt lat="44.47962779985788" lon="7.890178032950388"><ele>274.0</ele><time>2026-04-10T15:58:57.999Z</time></trkpt><trkpt lat="44.479652052007054" lon="7.890081511362426"><ele>274.0</ele><time>2026-04-10T15:58:58.999Z</time></trkpt><trkpt lat="44.47964876922395" lon="7.889961903209225"><ele>274.0</ele><time>2026-04-10T15:58:59.999Z</time></trkpt><trkpt lat="44.479547014187276" lon="7.889839715307699"><ele>274.0</ele><time>2026-04-10T15:59:00.999Z</time></trkpt><trkpt lat="44.47949744030758" lon="7.889715982431817"><ele>274.0</ele><time>2026-04-10T15:59:01.999Z</time></trkpt><trkpt lat="44.47946237544928" lon="7.889574402782503"><ele>274.0</ele><time>2026-04-10T15:59:02.999Z</time></trkpt><trkpt lat="44.47944086535841" lon="7.889419069314403"><ele>274.5</ele><time>2026-04-10T15:59:03.999Z</time></trkpt><trkpt lat="44.479431156889845" lon="7.889249193028853"><ele>275.0</ele><time>2026-04-10T15:59:04.999Z</time></trkpt><trkpt lat="44.47942498918931" lon="7.889090959977263"><ele>275.5</ele><time>2026-04-10T15:59:05.999Z</time></trkpt><trkpt lat="44.479415989519154" lon="7.888928368812349"><ele>276.0</ele><time>2026-04-10T15:59:06.999Z</time></trkpt><trkpt lat="44.47940074199611" lon="7.888775096893906"><ele>276.0</ele><time>2026-04-10T15:59:07.998Z</time></trkpt><trkpt lat="44.47939572643381" lon="7.888640351124627"><ele>276.0</ele><time>2026-04-10T15:59:08.998Z</time></trkpt><trkpt lat="44.47938537005979" lon="7.888502740971232"><ele>276.0</ele><time>2026-04-10T15:59:09.998Z</time></trkpt><trkpt lat="44.479378188269585" lon="7.888377976390893"><ele>276.0</ele><time>2026-04-10T15:59:10.998Z</time></trkpt><trkpt lat="44.479379996257556" lon="7.888269684828654"><ele>276.0</ele><time>2026-04-10T15:59:11.998Z</time></trkpt><trkpt lat="44.479402739399305" lon="7.888154254119754"><ele>276.0</ele><time>2026-04-10T15:59:12.998Z</time></trkpt><trkpt lat="44.479441208677535" lon="7.888037373312259"><ele>276.40000000000003</ele><time>2026-04-10T15:59:13.998Z</time></trkpt><trkpt lat="44.47949934037878" lon="7.887926226093112"><ele>276.8</ele><time>2026-04-10T15:59:14.998Z</time></trkpt><trkpt lat="44.47957149499972" lon="7.887833231223796"><ele>277.20000000000005</ele><time>2026-04-10T15:59:15.998Z</time></trkpt><trkpt lat="44.479648485014124" lon="7.887747022594313"><ele>277.6</ele><time>2026-04-10T15:59:16.998Z</time></trkpt><trkpt lat="44.47972466595546" lon="7.887665804331518"><ele>278.0</ele><time>2026-04-10T15:59:17.998Z</time></trkpt><trkpt lat="44.47979043389972" lon="7.887581539662554"><ele>281.2</ele><time>2026-04-10T15:59:18.998Z</time></trkpt><trkpt lat="44.47984834359988" lon="7.887481764283098"><ele>284.4</ele><time>2026-04-10T15:59:19.998Z</time></trkpt><trkpt lat="44.47988666286467" lon="7.887360809087532"><ele>287.59999999999997</ele><time>2026-04-10T15:59:20.998Z</time></trkpt><trkpt lat="44.47990636708909" lon="7.887217778180195"><ele>290.8</ele><time>2026-04-10T15:59:21.998Z</time></trkpt><trkpt lat="44.47989646594334" lon="7.887068785501161"><ele>294.0</ele><time>2026-04-10T15:59:22.998Z</time></trkpt><trkpt lat="44.479866885397655" lon="7.886910333404619"><ele>296.75</ele><time>2026-04-10T15:59:23.998Z</time></trkpt><trkpt lat="44.479834789904416" lon="7.886743751969729"><ele>299.5</ele><time>2026-04-10T15:59:24.998Z</time></trkpt><trkpt lat="44.479799153854735" lon="7.886570727758836"><ele>302.25</ele><time>2026-04-10T15:59:25.998Z</time></trkpt><trkpt lat="44.479760274710344" lon="7.88638337626883"><ele>305.0</ele><time>2026-04-10T15:59:26.998Z</time></trkpt><trkpt lat="44.479718962644334" lon="7.886201840567871"><ele>305.0</ele><time>2026-04-10T15:59:28Z</time></trkpt><trkpt lat="44.47968374653318" lon="7.886039564343495"><ele>305.0</ele><time>2026-04-10T15:59:29Z</time></trkpt><trkpt lat="44.47964570247414" lon="7.885871814322485"><ele>305.0</ele><time>2026-04-10T15:59:30Z</time></trkpt><trkpt lat="44.47960736395491" lon="7.88569900916617"><ele>305.0</ele><time>2026-04-10T15:59:31Z</time></trkpt><trkpt lat="44.47956321592033" lon="7.885505926733175"><ele>303.6666666666667</ele><time>2026-04-10T15:59:32Z</time></trkpt><trkpt lat="44.47951333926853" lon="7.8853207595312"><ele>302.3333333333333</ele><time>2026-04-10T15:59:33Z</time></trkpt><trkpt lat="44.47944865788371" lon="7.885125670582264"><ele>301.0</ele><time>2026-04-10T15:59:34Z</time></trkpt><trkpt lat="44.47936115408689" lon="7.884937207793397"><ele>301.0</ele><time>2026-04-10T15:59:35Z</time></trkpt><trkpt lat="44.47926363872274" lon="7.884762798828395"><ele>301.0</ele><time>2026-04-10T15:59:36Z</time></trkpt><trkpt lat="44.47917256139184" lon="7.884619893935158"><ele>301.0</ele><time>2026-04-10T15:59:37Z</time></trkpt><trkpt lat="44.47908492250984" lon="7.884486238611326"><ele>301.0</ele><time>2026-04-10T15:59:38Z</time></trkpt><trkpt lat="44.47899240581656" lon="7.884341351585227"><ele>299.6</ele><time>2026-04-10T15:59:39Z</time></trkpt><trkpt lat="44.47891052754233" lon="7.884209519410599"><ele>298.20000000000005</ele><time>2026-04-10T15:59:40Z</time></trkpt><trkpt lat="44.478833199660315" lon="7.884085209834847"><ele>296.79999999999995</ele><time>2026-04-10T15:59:41Z</time></trkpt><trkpt lat="44.478766584487985" lon="7.883966669195503"><ele>295.4</ele><time>2026-04-10T15:59:42Z</time></trkpt><trkpt lat="44.4787112082515" lon="7.8838586143442715"><ele>294.0</ele><time>2026-04-10T15:59:43Z</time></trkpt><trkpt lat="44.478667992637625" lon="7.883761310492572"><ele>294.0</ele><time>2026-04-10T15:59:44Z</time></trkpt><trkpt lat="44.478640534374506" lon="7.883660177990916"><ele>294.0</ele><time>2026-04-10T15:59:45Z</time></trkpt><trkpt lat="44.478621430632444" lon="7.88354298347386"><ele>294.0</ele><time>2026-04-10T15:59:46Z</time></trkpt><trkpt lat="44.47861807179625" lon="7.883441799108255"><ele>294.0</ele><time>2026-04-10T15:59:47Z</time></trkpt><trkpt lat="44.478636467633386" lon="7.883356790950734"><ele>294.0</ele><time>2026-04-10T15:59:48Z</time></trkpt><trkpt lat="44.47867192990073" lon="7.8832809918003335"><ele>294.0</ele><time>2026-04-10T15:59:49Z</time></trkpt><trkpt lat="44.47872829573665" lon="7.883218405787053"><ele>294.0</ele><time>2026-04-10T15:59:50Z</time></trkpt><trkpt lat="44.47880486989059" lon="7.8831723555141355"><ele>300.0</ele><time>2026-04-10T15:59:51Z</time></trkpt><trkpt lat="44.4788893225078" lon="7.883121872270007"><ele>306.0</ele><time>2026-04-10T15:59:52Z</time></trkpt><trkpt lat="44.478975035574486" lon="7.8830535914256386"><ele>312.0</ele><time>2026-04-10T15:59:53Z</time></trkpt><trkpt lat="44.47905455926759" lon="7.882992487737631"><ele>318.0</ele><time>2026-04-10T15:59:54Z</time></trkpt><trkpt lat="44.47913005407241" lon="7.882930432916535"><ele>324.0</ele><time>2026-04-10T15:59:55Z</time></trkpt><trkpt lat="44.47919732962102" lon="7.882857421106222"><ele>324.0</ele><time>2026-04-10T15:59:56Z</time></trkpt><trkpt lat="44.479248206121845" lon="7.882780260136599"><ele>324.0</ele><time>2026-04-10T15:59:57Z</time></trkpt><trkpt lat="44.47928476452905" lon="7.88268748520029"><ele>324.0</ele><time>2026-04-10T15:59:58Z</time></trkpt><trkpt lat="44.47930039624144" lon="7.8825863172877115"><ele>324.0</ele><time>2026-04-10T15:59:59Z</time></trkpt><trkpt lat="44.47931196414342" lon="7.882491285593441"><ele>324.0</ele><time>2026-04-10T16:00:00Z</time></trkpt><trkpt lat="44.47928330498761" lon="7.882389940639355"><ele>324.0</ele><time>2026-04-10T16:00:01Z</time></trkpt><trkpt lat="44.47922205822267" lon="7.882315686727257"><ele>324.4</ele><time>2026-04-10T16:00:02Z</time></trkpt><trkpt lat="44.479145693970025" lon="7.882309386496921"><ele>324.79999999999995</ele><time>2026-04-10T16:00:03Z</time></trkpt><trkpt lat="44.47901439232809" lon="7.882348559166176"><ele>325.20000000000005</ele><time>2026-04-10T16:00:05Z</time></trkpt><trkpt lat="44.47893812496675" lon="7.882410702396658"><ele>325.6</ele><time>2026-04-10T16:00:06Z</time></trkpt><trkpt lat="44.478853288907764" lon="7.882463473273504"><ele>326.0</ele><time>2026-04-10T16:00:07Z</time></trkpt><trkpt lat="44.47876720540169" lon="7.882480004125246"><ele>324.1666666666667</ele><time>2026-04-10T16:00:08Z</time></trkpt><trkpt lat="44.478696587102434" lon="7.882477705327218"><ele>322.33333333333337</ele><time>2026-04-10T16:00:09Z</time></trkpt><trkpt lat="44.478617016544774" lon="7.882457767779737"><ele>320.5</ele><time>2026-04-10T16:00:10Z</time></trkpt><trkpt lat="44.47854112146698" lon="7.882403937375025"><ele>318.6666666666667</ele><time>2026-04-10T16:00:11Z</time></trkpt><trkpt lat="44.47846638947131" lon="7.882327941133371"><ele>316.8333333333333</ele><time>2026-04-10T16:00:11.999Z</time></trkpt><trkpt lat="44.47839058705847" lon="7.882230287038331"><ele>315.0</ele><time>2026-04-10T16:00:12.999Z</time></trkpt><trkpt lat="44.47830007518867" lon="7.882124164569927"><ele>315.0</ele><time>2026-04-10T16:00:13.999Z</time></trkpt><trkpt lat="44.4781987586742" lon="7.882017483679658"><ele>315.0</ele><time>2026-04-10T16:00:14.999Z</time></trkpt><trkpt lat="44.47810042101129" lon="7.881911622149563"><ele>315.0</ele><time>2026-04-10T16:00:15.999Z</time></trkpt><trkpt lat="44.478022795809835" lon="7.881819992359093"><ele>315.0</ele><time>2026-04-10T16:00:16.999Z</time></trkpt><trkpt lat="44.47794789542206" lon="7.88172820002671"><ele>314.6666666666667</ele><time>2026-04-10T16:00:17.999Z</time></trkpt><trkpt lat="44.47788327434506" lon="7.881622090888985"><ele>314.3333333333333</ele><time>2026-04-10T16:00:18.999Z</time></trkpt><trkpt lat="44.477838392758265" lon="7.881516846935904"><ele>314.0</ele><time>2026-04-10T16:00:19.999Z</time></trkpt><trkpt lat="44.47779874923165" lon="7.881411757095978"><ele>313.66666666666663</ele><time>2026-04-10T16:00:20.999Z</time></trkpt><trkpt lat="44.477762576664844" lon="7.881316432506841"><ele>313.3333333333333</ele><time>2026-04-10T16:00:21.999Z</time></trkpt><trkpt lat="44.47772676629101" lon="7.881234661375637"><ele>313.0</ele><time>2026-04-10T16:00:22.999Z</time></trkpt><trkpt lat="44.47766344061056" lon="7.881089620339595"><ele>313.0</ele><time>2026-04-10T16:00:24.999Z</time></trkpt><trkpt lat="44.47762111435236" lon="7.880986007176999"><ele>313.0</ele><time>2026-04-10T16:00:26.999Z</time></trkpt><trkpt lat="44.47762786769857" lon="7.880881886226393"><ele>313.0</ele><time>2026-04-10T16:00:28.999Z</time></trkpt><trkpt lat="44.477703544932524" lon="7.880855584128055"><ele>313.0</ele><time>2026-04-10T16:00:30.999Z</time></trkpt><trkpt lat="44.47774650285432" lon="7.881026307313492"><ele>313.0</ele><time>2026-04-10T16:00:32.999Z</time></trkpt><trkpt lat="44.47778198973102" lon="7.881129107124238"><ele>313.0</ele><time>2026-04-10T16:00:33.999Z</time></trkpt><trkpt lat="44.47782320358219" lon="7.881239854395807"><ele>313.0</ele><time>2026-04-10T16:00:34.999Z</time></trkpt><trkpt lat="44.47787987532013" lon="7.881356499070674"><ele>313.0</ele><time>2026-04-10T16:00:35.999Z</time></trkpt><trkpt lat="44.47794335266412" lon="7.881458553879567"><ele>313.0</ele><time>2026-04-10T16:00:36.999Z</time></trkpt><trkpt lat="44.478024007099066" lon="7.881551893059756"><ele>313.0</ele><time>2026-04-10T16:00:37.999Z</time></trkpt><trkpt lat="44.4780992423425" lon="7.881601967153812"><ele>313.0</ele><time>2026-04-10T16:00:38.999Z</time></trkpt><trkpt lat="44.478166326406445" lon="7.881657145398928"><ele>313.3333333333333</ele><time>2026-04-10T16:00:39.999Z</time></trkpt><trkpt lat="44.478240123929545" lon="7.88170742123746"><ele>313.66666666666663</ele><time>2026-04-10T16:00:40.999Z</time></trkpt><trkpt lat="44.47830033128878" lon="7.881768568670093"><ele>314.0</ele><time>2026-04-10T16:00:41.999Z</time></trkpt><trkpt lat="44.47836127543721" lon="7.881821503251978"><ele>314.3333333333333</ele><time>2026-04-10T16:00:42.999Z</time></trkpt><trkpt lat="44.478460110679976" lon="7.881900822841189"><ele>314.6666666666667</ele><time>2026-04-10T16:00:44.999Z</time></trkpt><trkpt lat="44.47855142751623" lon="7.881978410274915"><ele>315.0</ele><time>2026-04-10T16:00:46.999Z</time></trkpt><trkpt lat="44.478609676907595" lon="7.882032279995164"><ele>315.0</ele><time>2026-04-10T16:00:48.999Z</time></trkpt><trkpt lat="44.47866986009301" lon="7.882072180529822"><ele>315.0</ele><time>2026-04-10T16:00:50.999Z</time></trkpt><trkpt lat="44.47874302225698" lon="7.882062909249649"><ele>315.0</ele><time>2026-04-10T16:00:52.999Z</time></trkpt><trkpt lat="44.47872948996716" lon="7.881903560411232"><ele>315.0</ele><time>2026-04-10T16:00:54.999Z</time></trkpt><trkpt lat="44.47866193692855" lon="7.881838924272325"><ele>315.0</ele><time>2026-04-10T16:00:55.999Z</time></trkpt><trkpt lat="44.47859578188286" lon="7.881787405225757"><ele>315.0</ele><time>2026-04-10T16:00:56.999Z</time></trkpt><trkpt lat="44.47853497346757" lon="7.881729150395206"><ele>318.3333333333333</ele><time>2026-04-10T16:00:57.999Z</time></trkpt><trkpt lat="44.47847273983728" lon="7.881665002578485"><ele>321.6666666666667</ele><time>2026-04-10T16:00:58.999Z</time></trkpt><trkpt lat="44.47841083682292" lon="7.8815951442959005"><ele>325.0</ele><time>2026-04-10T16:00:59.999Z</time></trkpt><trkpt lat="44.47834430512518" lon="7.881515451079042"><ele>328.33333333333337</ele><time>2026-04-10T16:01:00.999Z</time></trkpt><trkpt lat="44.47827390529508" lon="7.88143423545963"><ele>331.6666666666667</ele><time>2026-04-10T16:01:01.999Z</time></trkpt><trkpt lat="44.47821612735918" lon="7.881330054442931"><ele>335.0</ele><time>2026-04-10T16:01:02.999Z</time></trkpt><trkpt lat="44.47815489246289" lon="7.881238383570286"><ele>335.0</ele><time>2026-04-10T16:01:03.999Z</time></trkpt><trkpt lat="44.478130135535565" lon="7.881131147936392"><ele>335.0</ele><time>2026-04-10T16:01:04.999Z</time></trkpt><trkpt lat="44.47809410932347" lon="7.881030565635723"><ele>335.0</ele><time>2026-04-10T16:01:05.999Z</time></trkpt><trkpt lat="44.47806213217429" lon="7.880930613957015"><ele>335.0</ele><time>2026-04-10T16:01:06.999Z</time></trkpt><trkpt lat="44.47803305346274" lon="7.8808319763591825"><ele>335.0</ele><time>2026-04-10T16:01:07.999Z</time></trkpt><trkpt lat="44.478012170886686" lon="7.880738495274279"><ele>335.0</ele><time>2026-04-10T16:01:08.999Z</time></trkpt><trkpt lat="44.47799373394912" lon="7.8806485941307445"><ele>333.6</ele><time>2026-04-10T16:01:09.999Z</time></trkpt><trkpt lat="44.477976734704036" lon="7.8805517272927235"><ele>332.2</ele><time>2026-04-10T16:01:10.999Z</time></trkpt><trkpt lat="44.47795753890847" lon="7.880406452216054"><ele>330.79999999999995</ele><time>2026-04-10T16:01:12.999Z</time></trkpt><trkpt lat="44.477915981725396" lon="7.880258291924968"><ele>329.4</ele><time>2026-04-10T16:01:14.998Z</time></trkpt><trkpt lat="44.47789895188466" lon="7.880103539288527"><ele>328.0</ele><time>2026-04-10T16:01:16.998Z</time></trkpt><trkpt lat="44.47790904110593" lon="7.880014426303749"><ele>329.99999999999994</ele><time>2026-04-10T16:01:17.998Z</time></trkpt><trkpt lat="44.477921035575534" lon="7.879917740791259"><ele>332.0</ele><time>2026-04-10T16:01:18.998Z</time></trkpt><trkpt lat="44.47793504550313" lon="7.879818496630823"><ele>334.0</ele><time>2026-04-10T16:01:19.998Z</time></trkpt><trkpt lat="44.477954717917356" lon="7.87971331612731"><ele>336.0</ele><time>2026-04-10T16:01:20.998Z</time></trkpt><trkpt lat="44.47797831476294" lon="7.879616674161339"><ele>338.0</ele><time>2026-04-10T16:01:21.998Z</time></trkpt><trkpt lat="44.47799857329069" lon="7.879532699791331"><ele>339.99999999999994</ele><time>2026-04-10T16:01:22.998Z</time></trkpt><trkpt lat="44.47801469308368" lon="7.8794454966690655"><ele>342.0</ele><time>2026-04-10T16:01:23.998Z</time></trkpt><trkpt lat="44.47802972789645" lon="7.879344867176891"><ele>346.0</ele><time>2026-04-10T16:01:24.998Z</time></trkpt><trkpt lat="44.47802363201469" lon="7.879196924835812"><ele>350.0</ele><time>2026-04-10T16:01:26.998Z</time></trkpt><trkpt lat="44.4780181979993" lon="7.879065806170647"><ele>354.0</ele><time>2026-04-10T16:01:28.998Z</time></trkpt><trkpt lat="44.47803116254644" lon="7.878946240271022"><ele>358.0</ele><time>2026-04-10T16:01:30.998Z</time></trkpt><trkpt lat="44.478111779745824" lon="7.878850052833371"><ele>362.0</ele><time>2026-04-10T16:01:32.998Z</time></trkpt><trkpt lat="44.478169819725885" lon="7.8787471677153835"><ele>362.0</ele><time>2026-04-10T16:01:35Z</time></trkpt><trkpt lat="44.47822626477722" lon="7.878698976720183"><ele>362.0</ele><time>2026-04-10T16:01:37Z</time></trkpt><trkpt lat="44.478294246198644" lon="7.878633470778125"><ele>362.0</ele><time>2026-04-10T16:01:39Z</time></trkpt><trkpt lat="44.47835668651303" lon="7.878616865577616"><ele>362.0</ele><time>2026-04-10T16:01:40Z</time></trkpt><trkpt lat="44.47843098592737" lon="7.87860809317377"><ele>362.0</ele><time>2026-04-10T16:01:41Z</time></trkpt><trkpt lat="44.47849497311043" lon="7.878462450888767"><ele>362.0</ele><time>2026-04-10T16:01:42Z</time></trkpt><trkpt lat="44.47857248213821" lon="7.878394387371842"><ele>362.0</ele><time>2026-04-10T16:01:43Z</time></trkpt><trkpt lat="44.478641056216034" lon="7.878330401782816"><ele>362.0</ele><time>2026-04-10T16:01:44Z</time></trkpt><trkpt lat="44.478682771801324" lon="7.878228408488039"><ele>362.0</ele><time>2026-04-10T16:01:45Z</time></trkpt><trkpt lat="44.47874046709416" lon="7.878130325007691"><ele>362.0</ele><time>2026-04-10T16:01:46Z</time></trkpt><trkpt lat="44.478783559036145" lon="7.878033068023124"><ele>362.0</ele><time>2026-04-10T16:01:47Z</time></trkpt><trkpt lat="44.478826381616344" lon="7.877948897331064"><ele>362.0</ele><time>2026-04-10T16:01:48Z</time></trkpt><trkpt lat="44.478858855486735" lon="7.877846499529892"><ele>362.33333333333337</ele><time>2026-04-10T16:01:49Z</time></trkpt><trkpt lat="44.47890375431657" lon="7.877759652055998"><ele>362.6666666666667</ele><time>2026-04-10T16:01:50Z</time></trkpt><trkpt lat="44.478946789350566" lon="7.877684483344616"><ele>363.0</ele><time>2026-04-10T16:01:51Z</time></trkpt><trkpt lat="44.47899717012556" lon="7.877616096569665"><ele>363.3333333333333</ele><time>2026-04-10T16:01:52Z</time></trkpt><trkpt lat="44.47904714891645" lon="7.877502272290454"><ele>363.66666666666663</ele><time>2026-04-10T16:01:53Z</time></trkpt><trkpt lat="44.47910883701229" lon="7.877409344964455"><ele>364.0</ele><time>2026-04-10T16:01:54Z</time></trkpt><trkpt lat="44.47915396783907" lon="7.877328509867937"><ele>364.0</ele><time>2026-04-10T16:01:55Z</time></trkpt><trkpt lat="44.47922152770459" lon="7.877284541171136"><ele>364.0</ele><time>2026-04-10T16:01:56Z</time></trkpt><trkpt lat="44.47927118570148" lon="7.877195308314758"><ele>364.0</ele><time>2026-04-10T16:01:58Z</time></trkpt><trkpt lat="44.47932752508399" lon="7.877107181093905"><ele>364.0</ele><time>2026-04-10T16:02:00Z</time></trkpt><trkpt lat="44.47941493915998" lon="7.8770352892841"><ele>364.0</ele><time>2026-04-10T16:02:02Z</time></trkpt><trkpt lat="44.47949477619615" lon="7.877005720432662"><ele>364.0</ele><time>2026-04-10T16:02:11Z</time></trkpt><trkpt lat="44.479515201564716" lon="7.876865805612048"><ele>363.4</ele><time>2026-04-10T16:02:13Z</time></trkpt><trkpt lat="44.4795003169482" lon="7.87667302765835"><ele>362.79999999999995</ele><time>2026-04-10T16:02:15Z</time></trkpt><trkpt lat="44.47949908851531" lon="7.876545062757453"><ele>362.20000000000005</ele><time>2026-04-10T16:02:16Z</time></trkpt><trkpt lat="44.479495313893416" lon="7.876439482136259"><ele>361.6</ele><time>2026-04-10T16:02:17Z</time></trkpt><trkpt lat="44.47949901686573" lon="7.876334983385768"><ele>361.0</ele><time>2026-04-10T16:02:18Z</time></trkpt><trkpt lat="44.47950391034464" lon="7.8762187853412"><ele>361.0</ele><time>2026-04-10T16:02:18.999Z</time></trkpt><trkpt lat="44.47950671880049" lon="7.87607556167248"><ele>361.0</ele><time>2026-04-10T16:02:19.999Z</time></trkpt><trkpt lat="44.47950487656128" lon="7.875959092259427"><ele>361.0</ele><time>2026-04-10T16:02:20.999Z</time></trkpt><trkpt lat="44.47950423108328" lon="7.875852008755961"><ele>361.0</ele><time>2026-04-10T16:02:21.999Z</time></trkpt><trkpt lat="44.47950071521201" lon="7.87575289150613"><ele>361.0</ele><time>2026-04-10T16:02:22.999Z</time></trkpt><trkpt lat="44.47950363457835" lon="7.875658593013151"><ele>361.0</ele><time>2026-04-10T16:02:23.999Z</time></trkpt><trkpt lat="44.47950274665024" lon="7.875557719147912"><ele>361.0</ele><time>2026-04-10T16:02:24.999Z</time></trkpt><trkpt lat="44.47949795475452" lon="7.875452116975412"><ele>361.0</ele><time>2026-04-10T16:02:25.999Z</time></trkpt><trkpt lat="44.479526232339985" lon="7.8753370295591605"><ele>361.0</ele><time>2026-04-10T16:02:26.999Z</time></trkpt><trkpt lat="44.47949553680281" lon="7.875248495998469"><ele>361.0</ele><time>2026-04-10T16:02:27.999Z</time></trkpt><trkpt lat="44.479500480667426" lon="7.875131155725871"><ele>361.0</ele><time>2026-04-10T16:02:28.999Z</time></trkpt><trkpt lat="44.47950655995078" lon="7.875004603159825"><ele>361.0</ele><time>2026-04-10T16:02:29.999Z</time></trkpt><trkpt lat="44.47950088300264" lon="7.8748869799760035"><ele>361.0</ele><time>2026-04-10T16:02:30.999Z</time></trkpt><trkpt lat="44.47949286987777" lon="7.8747647171589445"><ele>361.0</ele><time>2026-04-10T16:02:31.999Z</time></trkpt><trkpt lat="44.479478472389594" lon="7.874642003112063"><ele>361.0</ele><time>2026-04-10T16:02:32.999Z</time></trkpt><trkpt lat="44.47945981817881" lon="7.874492074006377"><ele>361.0</ele><time>2026-04-10T16:02:33.999Z</time></trkpt><trkpt lat="44.47944966725505" lon="7.874361629598388"><ele>361.0</ele><time>2026-04-10T16:02:34.999Z</time></trkpt><trkpt lat="44.47943465096511" lon="7.874235142710076"><ele>361.20000000000005</ele><time>2026-04-10T16:02:35.999Z</time></trkpt><trkpt lat="44.47941825193996" lon="7.874115967365299"><ele>361.40000000000003</ele><time>2026-04-10T16:02:36.999Z</time></trkpt><trkpt lat="44.47940267610028" lon="7.873989920317775"><ele>361.6</ele><time>2026-04-10T16:02:37.999Z</time></trkpt><trkpt lat="44.47937313544038" lon="7.873863100682433"><ele>361.8</ele><time>2026-04-10T16:02:38.999Z</time></trkpt><trkpt lat="44.47933319112211" lon="7.873725287773818"><ele>362.0</ele><time>2026-04-10T16:02:39.999Z</time></trkpt><trkpt lat="44.47929592766467" lon="7.873597117151334"><ele>362.0</ele><time>2026-04-10T16:02:40.999Z</time></trkpt><trkpt lat="44.47927614432412" lon="7.873468585178731"><ele>362.0</ele><time>2026-04-10T16:02:41.999Z</time></trkpt><trkpt lat="44.47924351319232" lon="7.873362951658415"><ele>362.0</ele><time>2026-04-10T16:02:42.999Z</time></trkpt><trkpt lat="44.479213876220086" lon="7.8732709550022335"><ele>362.0</ele><time>2026-04-10T16:02:43.999Z</time></trkpt><trkpt lat="44.47918466985297" lon="7.873181085167739"><ele>362.0</ele><time>2026-04-10T16:02:44.999Z</time></trkpt><trkpt lat="44.479143415800266" lon="7.873106963291436"><ele>362.0</ele><time>2026-04-10T16:02:45.999Z</time></trkpt><trkpt lat="44.479131253026715" lon="7.873019101053288"><ele>362.0</ele><time>2026-04-10T16:02:46.999Z</time></trkpt><trkpt lat="44.47906224976946" lon="7.872874293919639"><ele>362.40000000000003</ele><time>2026-04-10T16:02:48.999Z</time></trkpt><trkpt lat="44.479030929992156" lon="7.872760417783978"><ele>362.8</ele><time>2026-04-10T16:02:49.999Z</time></trkpt><trkpt lat="44.47899633423986" lon="7.872648333611111"><ele>363.2</ele><time>2026-04-10T16:02:50.999Z</time></trkpt><trkpt lat="44.47897086190857" lon="7.8725006428461555"><ele>363.6</ele><time>2026-04-10T16:02:51.999Z</time></trkpt><trkpt lat="44.478943130768414" lon="7.872381429067699"><ele>364.0</ele><time>2026-04-10T16:02:52.999Z</time></trkpt><trkpt lat="44.47890724023224" lon="7.8722538958126025"><ele>364.0</ele><time>2026-04-10T16:02:53.999Z</time></trkpt><trkpt lat="44.478861460162896" lon="7.87210303597908"><ele>364.0</ele><time>2026-04-10T16:02:54.999Z</time></trkpt><trkpt lat="44.47881699043173" lon="7.871950868893236"><ele>364.0</ele><time>2026-04-10T16:02:55.999Z</time></trkpt><trkpt lat="44.47877767927517" lon="7.871813742173165"><ele>364.0</ele><time>2026-04-10T16:02:56.999Z</time></trkpt><trkpt lat="44.478752547956894" lon="7.871696189681258"><ele>364.0</ele><time>2026-04-10T16:02:57.999Z</time></trkpt><trkpt lat="44.47871475263565" lon="7.871565480010914"><ele>364.0</ele><time>2026-04-10T16:02:58.999Z</time></trkpt><trkpt lat="44.47867770952566" lon="7.871446164831342"><ele>364.0</ele><time>2026-04-10T16:02:59.999Z</time></trkpt><trkpt lat="44.47863946685574" lon="7.871338025510017"><ele>364.0</ele><time>2026-04-10T16:03:00.999Z</time></trkpt><trkpt lat="44.47860590631232" lon="7.871233353520186"><ele>364.0</ele><time>2026-04-10T16:03:01.999Z</time></trkpt><trkpt lat="44.47858358320726" lon="7.871132292206588"><ele>364.0</ele><time>2026-04-10T16:03:02.999Z</time></trkpt><trkpt lat="44.47857404665586" lon="7.871043443964807"><ele>364.0</ele><time>2026-04-10T16:03:03.999Z</time></trkpt><trkpt lat="44.478547755878466" lon="7.870960217348381"><ele>363.79999999999995</ele><time>2026-04-10T16:03:04.999Z</time></trkpt><trkpt lat="44.47865073175428" lon="7.870846461713412"><ele>363.59999999999997</ele><time>2026-04-10T16:03:05.999Z</time></trkpt><trkpt lat="44.478708032951005" lon="7.87076579082367"><ele>363.4</ele><time>2026-04-10T16:03:06.999Z</time></trkpt><trkpt lat="44.47871672688101" lon="7.870600334577722"><ele>363.2</ele><time>2026-04-10T16:03:07.999Z</time></trkpt><trkpt lat="44.47878272185191" lon="7.870469456304407"><ele>363.0</ele><time>2026-04-10T16:03:08.999Z</time></trkpt><trkpt lat="44.47883880576312" lon="7.870350742664776"><ele>363.0</ele><time>2026-04-10T16:03:09.999Z</time></trkpt><trkpt lat="44.478889425699386" lon="7.870241528406757"><ele>363.0</ele><time>2026-04-10T16:03:10.999Z</time></trkpt><trkpt lat="44.478937676110036" lon="7.870134455194786"><ele>363.0</ele><time>2026-04-10T16:03:11.999Z</time></trkpt><trkpt lat="44.478980725730345" lon="7.870048490749487"><ele>363.0</ele><time>2026-04-10T16:03:12.999Z</time></trkpt><trkpt lat="44.479037912865095" lon="7.869935259347263"><ele>363.0</ele><time>2026-04-10T16:03:14.999Z</time></trkpt><trkpt lat="44.479101031167076" lon="7.8698759866936445"><ele>363.0</ele><time>2026-04-10T16:03:17.999Z</time></trkpt><trkpt lat="44.479157957206375" lon="7.869979206820601"><ele>363.0</ele><time>2026-04-10T16:03:18.999Z</time></trkpt><trkpt lat="44.47921222212168" lon="7.870032524551514"><ele>363.0</ele><time>2026-04-10T16:03:19.998Z</time></trkpt><trkpt lat="44.4792809576213" lon="7.870074108638293"><ele>363.0</ele><time>2026-04-10T16:03:20.998Z</time></trkpt><trkpt lat="44.47934700015594" lon="7.870151210607656"><ele>363.0</ele><time>2026-04-10T16:03:21.998Z</time></trkpt><trkpt lat="44.47943252225922" lon="7.870242128207284"><ele>363.0</ele><time>2026-04-10T16:03:22.998Z</time></trkpt><trkpt lat="44.47952207488616" lon="7.870332013022171"><ele>363.0</ele><time>2026-04-10T16:03:23.998Z</time></trkpt><trkpt lat="44.47962846931629" lon="7.870441025791399"><ele>363.0</ele><time>2026-04-10T16:03:24.998Z</time></trkpt><trkpt lat="44.47973681125261" lon="7.8705454849227054"><ele>363.0</ele><time>2026-04-10T16:03:25.998Z</time></trkpt><trkpt lat="44.47983418966023" lon="7.870636935837211"><ele>363.0</ele><time>2026-04-10T16:03:26.998Z</time></trkpt><trkpt lat="44.479927541471895" lon="7.870731268635397"><ele>363.0</ele><time>2026-04-10T16:03:27.998Z</time></trkpt><trkpt lat="44.48002625311826" lon="7.870828553485939"><ele>363.0</ele><time>2026-04-10T16:03:28.998Z</time></trkpt><trkpt lat="44.4801300461219" lon="7.870932875193411"><ele>363.0</ele><time>2026-04-10T16:03:29.998Z</time></trkpt><trkpt lat="44.48023017951255" lon="7.871028450808004"><ele>363.0</ele><time>2026-04-10T16:03:30.998Z</time></trkpt><trkpt lat="44.48032179652074" lon="7.871125776228456"><ele>363.0</ele><time>2026-04-10T16:03:31.998Z</time></trkpt><trkpt lat="44.48040632751194" lon="7.871254899360865"><ele>363.0</ele><time>2026-04-10T16:03:32.998Z</time></trkpt><trkpt lat="44.4804929486002" lon="7.87135600381559"><ele>363.0</ele><time>2026-04-10T16:03:33.998Z</time></trkpt><trkpt lat="44.48055296724854" lon="7.871476268784309"><ele>363.0</ele><time>2026-04-10T16:03:34.998Z</time></trkpt><trkpt lat="44.48060581597493" lon="7.871599995384427"><ele>363.0</ele><time>2026-04-10T16:03:35.998Z</time></trkpt><trkpt lat="44.4806501649264" lon="7.871721317456438"><ele>363.0</ele><time>2026-04-10T16:03:36.998Z</time></trkpt><trkpt lat="44.48068725422754" lon="7.871831559700115"><ele>363.0</ele><time>2026-04-10T16:03:37.998Z</time></trkpt><trkpt lat="44.48071904771229" lon="7.8719289418783776"><ele>363.0</ele><time>2026-04-10T16:03:38.998Z</time></trkpt><trkpt lat="44.48074987014291" lon="7.872014727868635"><ele>363.0</ele><time>2026-04-10T16:03:40Z</time></trkpt><trkpt lat="44.48077290250579" lon="7.872135628739305"><ele>363.0</ele><time>2026-04-10T16:03:42Z</time></trkpt><trkpt lat="44.480747673110415" lon="7.872268672594318"><ele>363.0</ele><time>2026-04-10T16:03:44Z</time></trkpt><trkpt lat="44.48061376089102" lon="7.872297835627666"><ele>363.0</ele><time>2026-04-10T16:03:45Z</time></trkpt><trkpt lat="44.48053293286549" lon="7.872337178329259"><ele>363.0</ele><time>2026-04-10T16:03:46Z</time></trkpt><trkpt lat="44.48046088144638" lon="7.872370965671743"><ele>363.0</ele><time>2026-04-10T16:03:47Z</time></trkpt><trkpt lat="44.48039432386895" lon="7.872402271221111"><ele>363.0</ele><time>2026-04-10T16:03:48Z</time></trkpt><trkpt lat="44.48029231355583" lon="7.8724566578911"><ele>363.0</ele><time>2026-04-10T16:03:50Z</time></trkpt><trkpt lat="44.480226254185936" lon="7.872473845139907"><ele>363.0</ele><time>2026-04-10T16:03:54Z</time></trkpt><trkpt lat="44.48023800001605" lon="7.872845677267479"><ele>363.0</ele><time>2026-04-10T16:04:15Z</time></trkpt><trkpt lat="44.48022514214779" lon="7.8729647737021"><ele>363.0</ele><time>2026-04-10T16:04:17Z</time></trkpt><trkpt lat="44.480214599750184" lon="7.8730567324761935"><ele>363.0</ele><time>2026-04-10T16:04:19.016Z</time></trkpt><trkpt lat="44.48020767706396" lon="7.873145922348665"><ele>363.0</ele><time>2026-04-10T16:04:21.015Z</time></trkpt><trkpt lat="44.480207978664815" lon="7.873235655717411"><ele>363.0</ele><time>2026-04-10T16:04:23.013Z</time></trkpt><trkpt lat="44.47968710096618" lon="7.872897922156933"><ele>363.0</ele><time>2026-04-10T16:04:36.017Z</time></trkpt><trkpt lat="44.479616665675245" lon="7.872977751327468"><ele>363.0</ele><time>2026-04-10T16:06:09.988Z</time></trkpt><trkpt lat="44.47952552937767" lon="7.872905102487551"><ele>364.0</ele><time>2026-04-10T16:06:15.015Z</time></trkpt><trkpt lat="44.479711094825696" lon="7.872999416530933"><ele>363.0</ele><time>2026-04-10T16:07:23.997Z</time></trkpt></trkseg></trk></gpx>